<?xml version='1.0' encoding='UTF-8'?>
<gpx version="1.1" creator="https://www.komoot.de" xmlns="http://www.topografix.com/GPX/1/1" xmlns:xsi="http://www.w3.org/2001/XMLSchema-instance" xsi:schemaLocation="http://www.topografix.com/GPX/1/1 http://www.topografix.com/GPX/1/1/gpx.xsd">
  <metadata>
    <name>Lugano to Milano</name>
    <author>
      <link href="https://www.komoot.de">
        <text>komoot</text>
        <type>text/html</type>
      </link>
    </author>
  </metadata>
  <trk>
    <name>Lugano to Milano</name>
    <trkseg>
      <trkpt lat="45.992190" lon="8.942255">
        <ele>339.757070</ele>
        <time>2026-05-02T04:07:34.690Z</time>
      </trkpt>
      <trkpt lat="45.992060" lon="8.942289">
        <ele>339.757070</ele>
        <time>2026-05-02T04:07:49.571Z</time>
      </trkpt>
      <trkpt lat="45.991998" lon="8.942408">
        <ele>339.757070</ele>
        <time>2026-05-02T04:07:53.571Z</time>
      </trkpt>
      <trkpt lat="45.991963" lon="8.942555">
        <ele>339.757070</ele>
        <time>2026-05-02T04:07:57.569Z</time>
      </trkpt>
      <trkpt lat="45.991855" lon="8.942590">
        <ele>339.757070</ele>
        <time>2026-05-02T04:08:01.569Z</time>
      </trkpt>
      <trkpt lat="45.991752" lon="8.942614">
        <ele>339.757070</ele>
        <time>2026-05-02T04:08:04.573Z</time>
      </trkpt>
      <trkpt lat="45.991634" lon="8.942534">
        <ele>339.757070</ele>
        <time>2026-05-02T04:08:07.573Z</time>
      </trkpt>
      <trkpt lat="45.991550" lon="8.942412">
        <ele>339.757070</ele>
        <time>2026-05-02T04:08:10.575Z</time>
      </trkpt>
      <trkpt lat="45.991479" lon="8.942293">
        <ele>339.671251</ele>
        <time>2026-05-02T04:08:14.575Z</time>
      </trkpt>
      <trkpt lat="45.991476" lon="8.942427">
        <ele>339.224688</ele>
        <time>2026-05-02T04:08:23.574Z</time>
      </trkpt>
      <trkpt lat="45.991557" lon="8.942558">
        <ele>338.640572</ele>
        <time>2026-05-02T04:08:27.573Z</time>
      </trkpt>
      <trkpt lat="45.991624" lon="8.942681">
        <ele>338.119973</ele>
        <time>2026-05-02T04:08:30.587Z</time>
      </trkpt>
      <trkpt lat="45.991722" lon="8.942751">
        <ele>337.595471</ele>
        <time>2026-05-02T04:08:34.581Z</time>
      </trkpt>
      <trkpt lat="45.991805" lon="8.942812">
        <ele>337.148683</ele>
        <time>2026-05-02T04:08:40.570Z</time>
      </trkpt>
      <trkpt lat="45.991791" lon="8.943374">
        <ele>335.275563</ele>
        <time>2026-05-02T04:08:51.581Z</time>
      </trkpt>
      <trkpt lat="45.991870" lon="8.943454">
        <ele>334.812478</ele>
        <time>2026-05-02T04:09:02.572Z</time>
      </trkpt>
      <trkpt lat="45.991910" lon="8.943570">
        <ele>334.381132</ele>
        <time>2026-05-02T04:09:10.575Z</time>
      </trkpt>
      <trkpt lat="45.991843" lon="8.943474">
        <ele>333.927898</ele>
        <time>2026-05-02T04:09:20.572Z</time>
      </trkpt>
      <trkpt lat="45.991755" lon="8.943378">
        <ele>333.398526</ele>
        <time>2026-05-02T04:09:25.579Z</time>
      </trkpt>
      <trkpt lat="45.991670" lon="8.943318">
        <ele>332.944653</ele>
        <time>2026-05-02T04:09:30.572Z</time>
      </trkpt>
      <trkpt lat="45.991581" lon="8.943301">
        <ele>332.514230</ele>
        <time>2026-05-02T04:09:36.571Z</time>
      </trkpt>
      <trkpt lat="45.991477" lon="8.943362">
        <ele>331.975826</ele>
        <time>2026-05-02T04:09:42.573Z</time>
      </trkpt>
      <trkpt lat="45.991448" lon="8.943503">
        <ele>331.486031</ele>
        <time>2026-05-02T04:09:45.572Z</time>
      </trkpt>
      <trkpt lat="45.991435" lon="8.943695">
        <ele>331.045411</ele>
        <time>2026-05-02T04:09:48.571Z</time>
      </trkpt>
      <trkpt lat="45.991414" lon="8.943831">
        <ele>330.903856</ele>
        <time>2026-05-02T04:09:50.570Z</time>
      </trkpt>
      <trkpt lat="45.991394" lon="8.943976">
        <ele>330.753654</ele>
        <time>2026-05-02T04:09:52.574Z</time>
      </trkpt>
      <trkpt lat="45.991371" lon="8.944124">
        <ele>330.599562</ele>
        <time>2026-05-02T04:09:54.573Z</time>
      </trkpt>
      <trkpt lat="45.991350" lon="8.944276">
        <ele>330.442099</ele>
        <time>2026-05-02T04:09:56.575Z</time>
      </trkpt>
      <trkpt lat="45.991329" lon="8.944430">
        <ele>330.282641</ele>
        <time>2026-05-02T04:09:58.566Z</time>
      </trkpt>
      <trkpt lat="45.991310" lon="8.944587">
        <ele>330.120720</ele>
        <time>2026-05-02T04:10:00.575Z</time>
      </trkpt>
      <trkpt lat="45.991297" lon="8.944748">
        <ele>329.956034</ele>
        <time>2026-05-02T04:10:02.574Z</time>
      </trkpt>
      <trkpt lat="45.991290" lon="8.944902">
        <ele>329.799228</ele>
        <time>2026-05-02T04:10:04.575Z</time>
      </trkpt>
      <trkpt lat="45.991288" lon="8.945070">
        <ele>329.628506</ele>
        <time>2026-05-02T04:10:06.575Z</time>
      </trkpt>
      <trkpt lat="45.991279" lon="8.945233">
        <ele>329.462367</ele>
        <time>2026-05-02T04:10:08.574Z</time>
      </trkpt>
      <trkpt lat="45.991276" lon="8.945382">
        <ele>329.310912</ele>
        <time>2026-05-02T04:10:10.569Z</time>
      </trkpt>
      <trkpt lat="45.991272" lon="8.945537">
        <ele>329.153315</ele>
        <time>2026-05-02T04:10:12.572Z</time>
      </trkpt>
      <trkpt lat="45.991265" lon="8.945685">
        <ele>329.002591</ele>
        <time>2026-05-02T04:10:14.574Z</time>
      </trkpt>
      <trkpt lat="45.991255" lon="8.945828">
        <ele>328.856562</ele>
        <time>2026-05-02T04:10:16.580Z</time>
      </trkpt>
      <trkpt lat="45.991244" lon="8.945974">
        <ele>328.707348</ele>
        <time>2026-05-02T04:10:18.575Z</time>
      </trkpt>
      <trkpt lat="45.991224" lon="8.946110">
        <ele>328.566104</ele>
        <time>2026-05-02T04:10:20.572Z</time>
      </trkpt>
      <trkpt lat="45.991215" lon="8.946250">
        <ele>328.437355</ele>
        <time>2026-05-02T04:10:22.575Z</time>
      </trkpt>
      <trkpt lat="45.991217" lon="8.946386">
        <ele>328.323390</ele>
        <time>2026-05-02T04:10:24.572Z</time>
      </trkpt>
      <trkpt lat="45.991220" lon="8.946527">
        <ele>328.205206</ele>
        <time>2026-05-02T04:10:26.577Z</time>
      </trkpt>
      <trkpt lat="45.991223" lon="8.946664">
        <ele>328.090373</ele>
        <time>2026-05-02T04:10:28.574Z</time>
      </trkpt>
      <trkpt lat="45.991225" lon="8.946797">
        <ele>327.978921</ele>
        <time>2026-05-02T04:10:30.574Z</time>
      </trkpt>
      <trkpt lat="45.991211" lon="8.946930">
        <ele>327.866223</ele>
        <time>2026-05-02T04:10:32.577Z</time>
      </trkpt>
      <trkpt lat="45.991199" lon="8.947064">
        <ele>327.753031</ele>
        <time>2026-05-02T04:10:34.575Z</time>
      </trkpt>
      <trkpt lat="45.991178" lon="8.947238">
        <ele>327.605073</ele>
        <time>2026-05-02T04:10:37.567Z</time>
      </trkpt>
      <trkpt lat="45.991152" lon="8.947401">
        <ele>327.464960</ele>
        <time>2026-05-02T04:10:40.574Z</time>
      </trkpt>
      <trkpt lat="45.991164" lon="8.947537">
        <ele>327.350106</ele>
        <time>2026-05-02T04:10:48.582Z</time>
      </trkpt>
      <trkpt lat="45.991252" lon="8.947668">
        <ele>327.197444</ele>
        <time>2026-05-02T04:10:52.582Z</time>
      </trkpt>
      <trkpt lat="45.991347" lon="8.947732">
        <ele>327.070961</ele>
        <time>2026-05-02T04:10:54.575Z</time>
      </trkpt>
      <trkpt lat="45.991444" lon="8.947802">
        <ele>326.940115</ele>
        <time>2026-05-02T04:10:56.573Z</time>
      </trkpt>
      <trkpt lat="45.991553" lon="8.947879">
        <ele>326.793700</ele>
        <time>2026-05-02T04:10:59.578Z</time>
      </trkpt>
      <trkpt lat="45.991658" lon="8.947939">
        <ele>326.657472</ele>
        <time>2026-05-02T04:11:03.579Z</time>
      </trkpt>
      <trkpt lat="45.991755" lon="8.947973">
        <ele>326.537086</ele>
        <time>2026-05-02T04:11:08.585Z</time>
      </trkpt>
      <trkpt lat="45.991845" lon="8.947909">
        <ele>326.416037</ele>
        <time>2026-05-02T04:11:19.579Z</time>
      </trkpt>
      <trkpt lat="45.991779" lon="8.948035">
        <ele>326.382047</ele>
        <time>2026-05-02T04:12:25.566Z</time>
      </trkpt>
      <trkpt lat="45.991683" lon="8.948019">
        <ele>326.490301</ele>
        <time>2026-05-02T04:12:31.575Z</time>
      </trkpt>
      <trkpt lat="45.991585" lon="8.948062">
        <ele>326.605063</ele>
        <time>2026-05-02T04:12:35.583Z</time>
      </trkpt>
      <trkpt lat="45.991507" lon="8.948183">
        <ele>326.733522</ele>
        <time>2026-05-02T04:12:38.571Z</time>
      </trkpt>
      <trkpt lat="45.991426" lon="8.948323">
        <ele>326.875309</ele>
        <time>2026-05-02T04:12:41.571Z</time>
      </trkpt>
      <trkpt lat="45.991333" lon="8.948468">
        <ele>327.028888</ele>
        <time>2026-05-02T04:12:44.575Z</time>
      </trkpt>
      <trkpt lat="45.991267" lon="8.948570">
        <ele>327.137364</ele>
        <time>2026-05-02T04:12:46.575Z</time>
      </trkpt>
      <trkpt lat="45.991205" lon="8.948682">
        <ele>327.248813</ele>
        <time>2026-05-02T04:12:48.575Z</time>
      </trkpt>
      <trkpt lat="45.991141" lon="8.948794">
        <ele>327.361672</ele>
        <time>2026-05-02T04:12:50.575Z</time>
      </trkpt>
      <trkpt lat="45.991083" lon="8.948904">
        <ele>327.469141</ele>
        <time>2026-05-02T04:12:52.573Z</time>
      </trkpt>
      <trkpt lat="45.991031" lon="8.949012">
        <ele>327.571403</ele>
        <time>2026-05-02T04:12:54.576Z</time>
      </trkpt>
      <trkpt lat="45.990980" lon="8.949127">
        <ele>327.677581</ele>
        <time>2026-05-02T04:12:56.574Z</time>
      </trkpt>
      <trkpt lat="45.990930" lon="8.949258">
        <ele>327.793903</ele>
        <time>2026-05-02T04:12:58.575Z</time>
      </trkpt>
      <trkpt lat="45.990888" lon="8.949392">
        <ele>327.908310</ele>
        <time>2026-05-02T04:13:00.577Z</time>
      </trkpt>
      <trkpt lat="45.990852" lon="8.949520">
        <ele>328.015780</ele>
        <time>2026-05-02T04:13:02.572Z</time>
      </trkpt>
      <trkpt lat="45.990815" lon="8.949647">
        <ele>328.122956</ele>
        <time>2026-05-02T04:13:04.574Z</time>
      </trkpt>
      <trkpt lat="45.990778" lon="8.949784">
        <ele>328.237349</ele>
        <time>2026-05-02T04:13:06.580Z</time>
      </trkpt>
      <trkpt lat="45.990736" lon="8.949913">
        <ele>328.348221</ele>
        <time>2026-05-02T04:13:08.573Z</time>
      </trkpt>
      <trkpt lat="45.990689" lon="8.950031">
        <ele>328.254583</ele>
        <time>2026-05-02T04:13:10.574Z</time>
      </trkpt>
      <trkpt lat="45.990643" lon="8.950159">
        <ele>328.152756</ele>
        <time>2026-05-02T04:13:12.571Z</time>
      </trkpt>
      <trkpt lat="45.990597" lon="8.950296">
        <ele>328.045241</ele>
        <time>2026-05-02T04:13:14.572Z</time>
      </trkpt>
      <trkpt lat="45.990557" lon="8.950422">
        <ele>327.947357</ele>
        <time>2026-05-02T04:13:16.572Z</time>
      </trkpt>
      <trkpt lat="45.990492" lon="8.950602">
        <ele>327.804016</ele>
        <time>2026-05-02T04:13:19.575Z</time>
      </trkpt>
      <trkpt lat="45.990460" lon="8.950731">
        <ele>327.707230</ele>
        <time>2026-05-02T04:13:21.577Z</time>
      </trkpt>
      <trkpt lat="45.990423" lon="8.950852">
        <ele>327.613818</ele>
        <time>2026-05-02T04:13:23.576Z</time>
      </trkpt>
      <trkpt lat="45.990381" lon="8.950978">
        <ele>327.515070</ele>
        <time>2026-05-02T04:13:25.571Z</time>
      </trkpt>
      <trkpt lat="45.990323" lon="8.951152">
        <ele>327.378705</ele>
        <time>2026-05-02T04:13:28.577Z</time>
      </trkpt>
      <trkpt lat="45.990274" lon="8.951275">
        <ele>327.278520</ele>
        <time>2026-05-02T04:13:30.576Z</time>
      </trkpt>
      <trkpt lat="45.990227" lon="8.951399">
        <ele>327.178712</ele>
        <time>2026-05-02T04:13:32.578Z</time>
      </trkpt>
      <trkpt lat="45.990177" lon="8.951520">
        <ele>327.079234</ele>
        <time>2026-05-02T04:13:34.577Z</time>
      </trkpt>
      <trkpt lat="45.990123" lon="8.951642">
        <ele>326.977022</ele>
        <time>2026-05-02T04:13:36.577Z</time>
      </trkpt>
      <trkpt lat="45.990066" lon="8.951764">
        <ele>326.873139</ele>
        <time>2026-05-02T04:13:38.574Z</time>
      </trkpt>
      <trkpt lat="45.990009" lon="8.951887">
        <ele>326.768668</ele>
        <time>2026-05-02T04:13:40.571Z</time>
      </trkpt>
      <trkpt lat="45.989947" lon="8.952012">
        <ele>326.660145</ele>
        <time>2026-05-02T04:13:42.575Z</time>
      </trkpt>
      <trkpt lat="45.989887" lon="8.952134">
        <ele>326.554528</ele>
        <time>2026-05-02T04:13:44.576Z</time>
      </trkpt>
      <trkpt lat="45.989825" lon="8.952249">
        <ele>326.534623</ele>
        <time>2026-05-02T04:13:46.575Z</time>
      </trkpt>
      <trkpt lat="45.989763" lon="8.952360">
        <ele>326.555661</ele>
        <time>2026-05-02T04:13:48.576Z</time>
      </trkpt>
      <trkpt lat="45.989704" lon="8.952473">
        <ele>326.576542</ele>
        <time>2026-05-02T04:13:50.574Z</time>
      </trkpt>
      <trkpt lat="45.989645" lon="8.952587">
        <ele>326.597540</ele>
        <time>2026-05-02T04:13:52.575Z</time>
      </trkpt>
      <trkpt lat="45.989584" lon="8.952706">
        <ele>326.619385</ele>
        <time>2026-05-02T04:13:54.575Z</time>
      </trkpt>
      <trkpt lat="45.989520" lon="8.952825">
        <ele>326.641615</ele>
        <time>2026-05-02T04:13:56.571Z</time>
      </trkpt>
      <trkpt lat="45.989456" lon="8.952947">
        <ele>326.664196</ele>
        <time>2026-05-02T04:13:58.573Z</time>
      </trkpt>
      <trkpt lat="45.989391" lon="8.953064">
        <ele>326.686325</ele>
        <time>2026-05-02T04:14:00.573Z</time>
      </trkpt>
      <trkpt lat="45.989322" lon="8.953185">
        <ele>326.709449</ele>
        <time>2026-05-02T04:14:02.579Z</time>
      </trkpt>
      <trkpt lat="45.989250" lon="8.953313">
        <ele>326.733777</ele>
        <time>2026-05-02T04:14:04.574Z</time>
      </trkpt>
      <trkpt lat="45.989184" lon="8.953442">
        <ele>326.757442</ele>
        <time>2026-05-02T04:14:06.575Z</time>
      </trkpt>
      <trkpt lat="45.989112" lon="8.953574">
        <ele>326.782232</ele>
        <time>2026-05-02T04:14:08.572Z</time>
      </trkpt>
      <trkpt lat="45.989043" lon="8.953702">
        <ele>326.806164</ele>
        <time>2026-05-02T04:14:10.575Z</time>
      </trkpt>
      <trkpt lat="45.988976" lon="8.953828">
        <ele>326.829602</ele>
        <time>2026-05-02T04:14:12.579Z</time>
      </trkpt>
      <trkpt lat="45.988904" lon="8.953951">
        <ele>326.853361</ele>
        <time>2026-05-02T04:14:14.574Z</time>
      </trkpt>
      <trkpt lat="45.988839" lon="8.954076">
        <ele>326.876424</ele>
        <time>2026-05-02T04:14:16.579Z</time>
      </trkpt>
      <trkpt lat="45.988777" lon="8.954197">
        <ele>326.898634</ele>
        <time>2026-05-02T04:14:18.573Z</time>
      </trkpt>
      <trkpt lat="45.988722" lon="8.954311">
        <ele>327.308118</ele>
        <time>2026-05-02T04:14:20.570Z</time>
      </trkpt>
      <trkpt lat="45.988649" lon="8.954454">
        <ele>327.954334</ele>
        <time>2026-05-02T04:14:23.578Z</time>
      </trkpt>
      <trkpt lat="45.988582" lon="8.954576">
        <ele>328.520652</ele>
        <time>2026-05-02T04:14:26.576Z</time>
      </trkpt>
      <trkpt lat="45.988519" lon="8.954687">
        <ele>329.042610</ele>
        <time>2026-05-02T04:14:29.574Z</time>
      </trkpt>
      <trkpt lat="45.988460" lon="8.954796">
        <ele>329.545799</ele>
        <time>2026-05-02T04:14:32.574Z</time>
      </trkpt>
      <trkpt lat="45.988390" lon="8.954926">
        <ele>330.144752</ele>
        <time>2026-05-02T04:14:36.574Z</time>
      </trkpt>
      <trkpt lat="45.988329" lon="8.955047">
        <ele>330.689175</ele>
        <time>2026-05-02T04:14:40.581Z</time>
      </trkpt>
      <trkpt lat="45.988265" lon="8.955166">
        <ele>331.237202</ele>
        <time>2026-05-02T04:14:45.570Z</time>
      </trkpt>
      <trkpt lat="45.988259" lon="8.955299">
        <ele>331.722574</ele>
        <time>2026-05-02T04:14:50.573Z</time>
      </trkpt>
      <trkpt lat="45.988175" lon="8.955357">
        <ele>332.210895</ele>
        <time>2026-05-02T04:14:54.573Z</time>
      </trkpt>
      <trkpt lat="45.988104" lon="8.955467">
        <ele>332.757669</ele>
        <time>2026-05-02T04:14:58.575Z</time>
      </trkpt>
      <trkpt lat="45.988044" lon="8.955575">
        <ele>333.261249</ele>
        <time>2026-05-02T04:15:02.573Z</time>
      </trkpt>
      <trkpt lat="45.987970" lon="8.955655">
        <ele>333.746344</ele>
        <time>2026-05-02T04:15:06.577Z</time>
      </trkpt>
      <trkpt lat="45.987870" lon="8.955724">
        <ele>334.327604</ele>
        <time>2026-05-02T04:15:11.568Z</time>
      </trkpt>
      <trkpt lat="45.987780" lon="8.955743">
        <ele>334.804377</ele>
        <time>2026-05-02T04:15:15.571Z</time>
      </trkpt>
      <trkpt lat="45.987689" lon="8.955737">
        <ele>335.281843</ele>
        <time>2026-05-02T04:15:19.570Z</time>
      </trkpt>
      <trkpt lat="45.987599" lon="8.955714">
        <ele>335.760947</ele>
        <time>2026-05-02T04:15:23.573Z</time>
      </trkpt>
      <trkpt lat="45.987514" lon="8.955663">
        <ele>336.243629</ele>
        <time>2026-05-02T04:15:27.566Z</time>
      </trkpt>
      <trkpt lat="45.987428" lon="8.955612">
        <ele>336.857584</ele>
        <time>2026-05-02T04:15:31.568Z</time>
      </trkpt>
      <trkpt lat="45.987339" lon="8.955557">
        <ele>337.525281</ele>
        <time>2026-05-02T04:15:35.575Z</time>
      </trkpt>
      <trkpt lat="45.987241" lon="8.955507">
        <ele>338.242047</ele>
        <time>2026-05-02T04:15:39.572Z</time>
      </trkpt>
      <trkpt lat="45.987140" lon="8.955480">
        <ele>338.950210</ele>
        <time>2026-05-02T04:15:43.574Z</time>
      </trkpt>
      <trkpt lat="45.987038" lon="8.955466">
        <ele>339.656547</ele>
        <time>2026-05-02T04:15:48.573Z</time>
      </trkpt>
      <trkpt lat="45.986932" lon="8.955471">
        <ele>340.387661</ele>
        <time>2026-05-02T04:15:53.574Z</time>
      </trkpt>
      <trkpt lat="45.986825" lon="8.955497">
        <ele>341.135716</ele>
        <time>2026-05-02T04:15:58.572Z</time>
      </trkpt>
      <trkpt lat="45.986720" lon="8.955531">
        <ele>341.877638</ele>
        <time>2026-05-02T04:16:03.577Z</time>
      </trkpt>
      <trkpt lat="45.986626" lon="8.955569">
        <ele>342.550714</ele>
        <time>2026-05-02T04:16:08.579Z</time>
      </trkpt>
      <trkpt lat="45.986531" lon="8.955601">
        <ele>343.223303</ele>
        <time>2026-05-02T04:16:14.574Z</time>
      </trkpt>
      <trkpt lat="45.986432" lon="8.955644">
        <ele>343.936172</ele>
        <time>2026-05-02T04:16:20.573Z</time>
      </trkpt>
      <trkpt lat="45.986334" lon="8.955659">
        <ele>344.615555</ele>
        <time>2026-05-02T04:16:26.573Z</time>
      </trkpt>
      <trkpt lat="45.986234" lon="8.955659">
        <ele>345.304915</ele>
        <time>2026-05-02T04:16:32.574Z</time>
      </trkpt>
      <trkpt lat="45.986135" lon="8.955652">
        <ele>345.988204</ele>
        <time>2026-05-02T04:16:38.572Z</time>
      </trkpt>
      <trkpt lat="45.986039" lon="8.955619">
        <ele>346.668605</ele>
        <time>2026-05-02T04:16:44.571Z</time>
      </trkpt>
      <trkpt lat="45.985943" lon="8.955590">
        <ele>347.344812</ele>
        <time>2026-05-02T04:16:50.571Z</time>
      </trkpt>
      <trkpt lat="45.985840" lon="8.955561">
        <ele>348.068313</ele>
        <time>2026-05-02T04:16:56.579Z</time>
      </trkpt>
      <trkpt lat="45.985750" lon="8.955541">
        <ele>348.696089</ele>
        <time>2026-05-02T04:17:01.579Z</time>
      </trkpt>
      <trkpt lat="45.985653" lon="8.955539">
        <ele>349.349384</ele>
        <time>2026-05-02T04:17:06.575Z</time>
      </trkpt>
      <trkpt lat="45.985554" lon="8.955547">
        <ele>350.016308</ele>
        <time>2026-05-02T04:17:11.576Z</time>
      </trkpt>
      <trkpt lat="45.985453" lon="8.955561">
        <ele>350.698779</ele>
        <time>2026-05-02T04:17:16.572Z</time>
      </trkpt>
      <trkpt lat="45.985355" lon="8.955577">
        <ele>351.362157</ele>
        <time>2026-05-02T04:17:21.577Z</time>
      </trkpt>
      <trkpt lat="45.985265" lon="8.955592">
        <ele>351.971543</ele>
        <time>2026-05-02T04:17:26.573Z</time>
      </trkpt>
      <trkpt lat="45.985157" lon="8.955588">
        <ele>352.698193</ele>
        <time>2026-05-02T04:17:32.574Z</time>
      </trkpt>
      <trkpt lat="45.985064" lon="8.955585">
        <ele>353.323870</ele>
        <time>2026-05-02T04:17:37.575Z</time>
      </trkpt>
      <trkpt lat="45.984965" lon="8.955567">
        <ele>353.995038</ele>
        <time>2026-05-02T04:17:42.579Z</time>
      </trkpt>
      <trkpt lat="45.984862" lon="8.955541">
        <ele>354.698393</ele>
        <time>2026-05-02T04:17:47.571Z</time>
      </trkpt>
      <trkpt lat="45.984762" lon="8.955498">
        <ele>355.400375</ele>
        <time>2026-05-02T04:17:52.571Z</time>
      </trkpt>
      <trkpt lat="45.984662" lon="8.955452">
        <ele>356.106499</ele>
        <time>2026-05-02T04:17:57.576Z</time>
      </trkpt>
      <trkpt lat="45.984561" lon="8.955414">
        <ele>356.808657</ele>
        <time>2026-05-02T04:18:02.573Z</time>
      </trkpt>
      <trkpt lat="45.984462" lon="8.955398">
        <ele>357.478717</ele>
        <time>2026-05-02T04:18:07.575Z</time>
      </trkpt>
      <trkpt lat="45.984361" lon="8.955422">
        <ele>358.167243</ele>
        <time>2026-05-02T04:18:12.577Z</time>
      </trkpt>
      <trkpt lat="45.984259" lon="8.955450">
        <ele>358.865665</ele>
        <time>2026-05-02T04:18:17.573Z</time>
      </trkpt>
      <trkpt lat="45.984163" lon="8.955496">
        <ele>359.546212</ele>
        <time>2026-05-02T04:18:22.575Z</time>
      </trkpt>
      <trkpt lat="45.984057" lon="8.955519">
        <ele>360.267227</ele>
        <time>2026-05-02T04:18:28.573Z</time>
      </trkpt>
      <trkpt lat="45.983963" lon="8.955510">
        <ele>360.833278</ele>
        <time>2026-05-02T04:18:33.575Z</time>
      </trkpt>
      <trkpt lat="45.983868" lon="8.955497">
        <ele>360.888624</ele>
        <time>2026-05-02T04:18:38.571Z</time>
      </trkpt>
      <trkpt lat="45.983765" lon="8.955482">
        <ele>360.948666</ele>
        <time>2026-05-02T04:18:43.574Z</time>
      </trkpt>
      <trkpt lat="45.983661" lon="8.955470">
        <ele>361.009177</ele>
        <time>2026-05-02T04:18:48.571Z</time>
      </trkpt>
      <trkpt lat="45.983552" lon="8.955485">
        <ele>361.072683</ele>
        <time>2026-05-02T04:18:53.571Z</time>
      </trkpt>
      <trkpt lat="45.983442" lon="8.955506">
        <ele>361.137039</ele>
        <time>2026-05-02T04:18:58.566Z</time>
      </trkpt>
      <trkpt lat="45.983339" lon="8.955526">
        <ele>361.197318</ele>
        <time>2026-05-02T04:19:04.565Z</time>
      </trkpt>
      <trkpt lat="45.983243" lon="8.955505">
        <ele>361.253635</ele>
        <time>2026-05-02T04:19:10.568Z</time>
      </trkpt>
      <trkpt lat="45.983152" lon="8.955469">
        <ele>361.308370</ele>
        <time>2026-05-02T04:19:15.575Z</time>
      </trkpt>
      <trkpt lat="45.983049" lon="8.955413">
        <ele>361.372229</ele>
        <time>2026-05-02T04:19:20.567Z</time>
      </trkpt>
      <trkpt lat="45.982952" lon="8.955356">
        <ele>361.432995</ele>
        <time>2026-05-02T04:19:24.566Z</time>
      </trkpt>
      <trkpt lat="45.982863" lon="8.955310">
        <ele>361.487841</ele>
        <time>2026-05-02T04:19:27.574Z</time>
      </trkpt>
      <trkpt lat="45.982764" lon="8.955266">
        <ele>361.547934</ele>
        <time>2026-05-02T04:19:30.570Z</time>
      </trkpt>
      <trkpt lat="45.982651" lon="8.955211">
        <ele>361.617118</ele>
        <time>2026-05-02T04:19:33.575Z</time>
      </trkpt>
      <trkpt lat="45.982567" lon="8.955163">
        <ele>361.669536</ele>
        <time>2026-05-02T04:19:35.572Z</time>
      </trkpt>
      <trkpt lat="45.982479" lon="8.955115">
        <ele>361.724117</ele>
        <time>2026-05-02T04:19:37.577Z</time>
      </trkpt>
      <trkpt lat="45.982382" lon="8.955063">
        <ele>361.784151</ele>
        <time>2026-05-02T04:19:39.578Z</time>
      </trkpt>
      <trkpt lat="45.982274" lon="8.955012">
        <ele>361.850075</ele>
        <time>2026-05-02T04:19:41.575Z</time>
      </trkpt>
      <trkpt lat="45.982157" lon="8.954956">
        <ele>361.373116</ele>
        <time>2026-05-02T04:19:43.571Z</time>
      </trkpt>
      <trkpt lat="45.982036" lon="8.954897">
        <ele>360.658397</ele>
        <time>2026-05-02T04:19:45.576Z</time>
      </trkpt>
      <trkpt lat="45.981927" lon="8.954850">
        <ele>360.021828</ele>
        <time>2026-05-02T04:19:47.578Z</time>
      </trkpt>
      <trkpt lat="45.981822" lon="8.954829">
        <ele>359.428774</ele>
        <time>2026-05-02T04:19:49.574Z</time>
      </trkpt>
      <trkpt lat="45.981706" lon="8.954840">
        <ele>358.778421</ele>
        <time>2026-05-02T04:19:51.572Z</time>
      </trkpt>
      <trkpt lat="45.981587" lon="8.954862">
        <ele>358.107220</ele>
        <time>2026-05-02T04:19:54.571Z</time>
      </trkpt>
      <trkpt lat="45.981504" lon="8.954915">
        <ele>357.599229</ele>
        <time>2026-05-02T04:20:02.577Z</time>
      </trkpt>
      <trkpt lat="45.981332" lon="8.954880">
        <ele>356.627427</ele>
        <time>2026-05-02T04:20:45.574Z</time>
      </trkpt>
      <trkpt lat="45.981204" lon="8.954902">
        <ele>355.906259</ele>
        <time>2026-05-02T04:20:48.574Z</time>
      </trkpt>
      <trkpt lat="45.981110" lon="8.954925">
        <ele>355.372842</ele>
        <time>2026-05-02T04:20:50.573Z</time>
      </trkpt>
      <trkpt lat="45.981011" lon="8.954975">
        <ele>354.785882</ele>
        <time>2026-05-02T04:20:52.574Z</time>
      </trkpt>
      <trkpt lat="45.980900" lon="8.955034">
        <ele>354.123903</ele>
        <time>2026-05-02T04:20:54.576Z</time>
      </trkpt>
      <trkpt lat="45.980775" lon="8.955052">
        <ele>353.421115</ele>
        <time>2026-05-02T04:20:56.574Z</time>
      </trkpt>
      <trkpt lat="45.980641" lon="8.955040">
        <ele>352.670020</ele>
        <time>2026-05-02T04:20:58.577Z</time>
      </trkpt>
      <trkpt lat="45.980507" lon="8.955041">
        <ele>351.920366</ele>
        <time>2026-05-02T04:21:00.580Z</time>
      </trkpt>
      <trkpt lat="45.980368" lon="8.955076">
        <ele>351.367386</ele>
        <time>2026-05-02T04:21:02.574Z</time>
      </trkpt>
      <trkpt lat="45.980225" lon="8.955121">
        <ele>350.834553</ele>
        <time>2026-05-02T04:21:04.576Z</time>
      </trkpt>
      <trkpt lat="45.980076" lon="8.955167">
        <ele>350.279838</ele>
        <time>2026-05-02T04:21:06.569Z</time>
      </trkpt>
      <trkpt lat="45.979921" lon="8.955217">
        <ele>349.701623</ele>
        <time>2026-05-02T04:21:08.575Z</time>
      </trkpt>
      <trkpt lat="45.979765" lon="8.955266">
        <ele>349.120399</ele>
        <time>2026-05-02T04:21:10.575Z</time>
      </trkpt>
      <trkpt lat="45.979607" lon="8.955334">
        <ele>348.520094</ele>
        <time>2026-05-02T04:21:12.585Z</time>
      </trkpt>
      <trkpt lat="45.979450" lon="8.955426">
        <ele>347.903034</ele>
        <time>2026-05-02T04:21:14.569Z</time>
      </trkpt>
      <trkpt lat="45.979287" lon="8.955496">
        <ele>347.283841</ele>
        <time>2026-05-02T04:21:16.575Z</time>
      </trkpt>
      <trkpt lat="45.979123" lon="8.955533">
        <ele>346.679575</ele>
        <time>2026-05-02T04:21:18.574Z</time>
      </trkpt>
      <trkpt lat="45.978965" lon="8.955558">
        <ele>346.100974</ele>
        <time>2026-05-02T04:21:20.576Z</time>
      </trkpt>
      <trkpt lat="45.978811" lon="8.955574">
        <ele>345.538942</ele>
        <time>2026-05-02T04:21:22.574Z</time>
      </trkpt>
      <trkpt lat="45.978664" lon="8.955591">
        <ele>345.132621</ele>
        <time>2026-05-02T04:21:24.573Z</time>
      </trkpt>
      <trkpt lat="45.978522" lon="8.955605">
        <ele>344.876109</ele>
        <time>2026-05-02T04:21:26.574Z</time>
      </trkpt>
      <trkpt lat="45.978386" lon="8.955612">
        <ele>344.630852</ele>
        <time>2026-05-02T04:21:28.573Z</time>
      </trkpt>
      <trkpt lat="45.978255" lon="8.955607">
        <ele>344.394681</ele>
        <time>2026-05-02T04:21:30.581Z</time>
      </trkpt>
      <trkpt lat="45.978122" lon="8.955591">
        <ele>344.154152</ele>
        <time>2026-05-02T04:21:32.567Z</time>
      </trkpt>
      <trkpt lat="45.977994" lon="8.955557">
        <ele>343.919573</ele>
        <time>2026-05-02T04:21:34.571Z</time>
      </trkpt>
      <trkpt lat="45.977870" lon="8.955512">
        <ele>343.689103</ele>
        <time>2026-05-02T04:21:36.572Z</time>
      </trkpt>
      <trkpt lat="45.977746" lon="8.955449">
        <ele>343.452109</ele>
        <time>2026-05-02T04:21:38.575Z</time>
      </trkpt>
      <trkpt lat="45.977623" lon="8.955380">
        <ele>343.214190</ele>
        <time>2026-05-02T04:21:40.574Z</time>
      </trkpt>
      <trkpt lat="45.977501" lon="8.955312">
        <ele>342.978403</ele>
        <time>2026-05-02T04:21:42.578Z</time>
      </trkpt>
      <trkpt lat="45.977377" lon="8.955239">
        <ele>342.736951</ele>
        <time>2026-05-02T04:21:44.579Z</time>
      </trkpt>
      <trkpt lat="45.977254" lon="8.955172">
        <ele>342.499929</ele>
        <time>2026-05-02T04:21:46.577Z</time>
      </trkpt>
      <trkpt lat="45.977132" lon="8.955101">
        <ele>342.262760</ele>
        <time>2026-05-02T04:21:48.572Z</time>
      </trkpt>
      <trkpt lat="45.977016" lon="8.955031">
        <ele>342.036066</ele>
        <time>2026-05-02T04:21:50.586Z</time>
      </trkpt>
      <trkpt lat="45.976899" lon="8.954968">
        <ele>341.973748</ele>
        <time>2026-05-02T04:21:52.577Z</time>
      </trkpt>
      <trkpt lat="45.976778" lon="8.954902">
        <ele>341.922970</ele>
        <time>2026-05-02T04:21:54.580Z</time>
      </trkpt>
      <trkpt lat="45.976661" lon="8.954833">
        <ele>341.873353</ele>
        <time>2026-05-02T04:21:56.586Z</time>
      </trkpt>
      <trkpt lat="45.976549" lon="8.954767">
        <ele>341.825861</ele>
        <time>2026-05-02T04:21:58.586Z</time>
      </trkpt>
      <trkpt lat="45.976442" lon="8.954693">
        <ele>341.779276</ele>
        <time>2026-05-02T04:22:00.578Z</time>
      </trkpt>
      <trkpt lat="45.976332" lon="8.954616">
        <ele>341.731275</ele>
        <time>2026-05-02T04:22:02.585Z</time>
      </trkpt>
      <trkpt lat="45.976224" lon="8.954522">
        <ele>341.681746</ele>
        <time>2026-05-02T04:22:04.578Z</time>
      </trkpt>
      <trkpt lat="45.976114" lon="8.954421">
        <ele>341.630543</ele>
        <time>2026-05-02T04:22:06.577Z</time>
      </trkpt>
      <trkpt lat="45.976007" lon="8.954320">
        <ele>341.580328</ele>
        <time>2026-05-02T04:22:08.575Z</time>
      </trkpt>
      <trkpt lat="45.975910" lon="8.954216">
        <ele>341.532860</ele>
        <time>2026-05-02T04:22:10.577Z</time>
      </trkpt>
      <trkpt lat="45.975809" lon="8.954113">
        <ele>341.484283</ele>
        <time>2026-05-02T04:22:12.577Z</time>
      </trkpt>
      <trkpt lat="45.975712" lon="8.954011">
        <ele>341.437140</ele>
        <time>2026-05-02T04:22:14.573Z</time>
      </trkpt>
      <trkpt lat="45.975618" lon="8.953909">
        <ele>341.390941</ele>
        <time>2026-05-02T04:22:16.584Z</time>
      </trkpt>
      <trkpt lat="45.975526" lon="8.953811">
        <ele>341.346024</ele>
        <time>2026-05-02T04:22:18.574Z</time>
      </trkpt>
      <trkpt lat="45.975427" lon="8.953711">
        <ele>341.239204</ele>
        <time>2026-05-02T04:22:20.576Z</time>
      </trkpt>
      <trkpt lat="45.975328" lon="8.953607">
        <ele>340.997063</ele>
        <time>2026-05-02T04:22:22.571Z</time>
      </trkpt>
      <trkpt lat="45.975230" lon="8.953508">
        <ele>340.760526</ele>
        <time>2026-05-02T04:22:24.580Z</time>
      </trkpt>
      <trkpt lat="45.975127" lon="8.953411">
        <ele>340.517352</ele>
        <time>2026-05-02T04:22:26.579Z</time>
      </trkpt>
      <trkpt lat="45.975022" lon="8.953327">
        <ele>340.280030</ele>
        <time>2026-05-02T04:22:28.571Z</time>
      </trkpt>
      <trkpt lat="45.974908" lon="8.953259">
        <ele>340.036248</ele>
        <time>2026-05-02T04:22:30.579Z</time>
      </trkpt>
      <trkpt lat="45.974789" lon="8.953196">
        <ele>339.785766</ele>
        <time>2026-05-02T04:22:32.574Z</time>
      </trkpt>
      <trkpt lat="45.974675" lon="8.953138">
        <ele>339.546905</ele>
        <time>2026-05-02T04:22:34.580Z</time>
      </trkpt>
      <trkpt lat="45.974559" lon="8.953068">
        <ele>339.298419</ele>
        <time>2026-05-02T04:22:36.582Z</time>
      </trkpt>
      <trkpt lat="45.974441" lon="8.953007">
        <ele>339.050732</ele>
        <time>2026-05-02T04:22:38.587Z</time>
      </trkpt>
      <trkpt lat="45.974323" lon="8.952942">
        <ele>338.801134</ele>
        <time>2026-05-02T04:22:40.579Z</time>
      </trkpt>
      <trkpt lat="45.974205" lon="8.952878">
        <ele>338.552024</ele>
        <time>2026-05-02T04:22:42.578Z</time>
      </trkpt>
      <trkpt lat="45.974089" lon="8.952815">
        <ele>338.307094</ele>
        <time>2026-05-02T04:22:44.572Z</time>
      </trkpt>
      <trkpt lat="45.973976" lon="8.952733">
        <ele>338.057090</ele>
        <time>2026-05-02T04:22:46.577Z</time>
      </trkpt>
      <trkpt lat="45.973864" lon="8.952644">
        <ele>337.804344</ele>
        <time>2026-05-02T04:22:48.577Z</time>
      </trkpt>
      <trkpt lat="45.973746" lon="8.952548">
        <ele>337.524050</ele>
        <time>2026-05-02T04:22:50.580Z</time>
      </trkpt>
      <trkpt lat="45.973623" lon="8.952444">
        <ele>337.226456</ele>
        <time>2026-05-02T04:22:52.577Z</time>
      </trkpt>
      <trkpt lat="45.973506" lon="8.952327">
        <ele>336.929244</ele>
        <time>2026-05-02T04:22:54.576Z</time>
      </trkpt>
      <trkpt lat="45.973391" lon="8.952187">
        <ele>336.615016</ele>
        <time>2026-05-02T04:22:56.575Z</time>
      </trkpt>
      <trkpt lat="45.973277" lon="8.952042">
        <ele>336.297624</ele>
        <time>2026-05-02T04:22:58.576Z</time>
      </trkpt>
      <trkpt lat="45.973165" lon="8.951895">
        <ele>335.981398</ele>
        <time>2026-05-02T04:23:00.586Z</time>
      </trkpt>
      <trkpt lat="45.973060" lon="8.951745">
        <ele>335.672753</ele>
        <time>2026-05-02T04:23:02.577Z</time>
      </trkpt>
      <trkpt lat="45.972961" lon="8.951597">
        <ele>335.374955</ele>
        <time>2026-05-02T04:23:04.576Z</time>
      </trkpt>
      <trkpt lat="45.972868" lon="8.951449">
        <ele>335.085695</ele>
        <time>2026-05-02T04:23:06.575Z</time>
      </trkpt>
      <trkpt lat="45.972775" lon="8.951301">
        <ele>334.796436</ele>
        <time>2026-05-02T04:23:08.574Z</time>
      </trkpt>
      <trkpt lat="45.972681" lon="8.951162">
        <ele>334.515266</ele>
        <time>2026-05-02T04:23:10.573Z</time>
      </trkpt>
      <trkpt lat="45.972579" lon="8.951047">
        <ele>334.244958</ele>
        <time>2026-05-02T04:23:12.574Z</time>
      </trkpt>
      <trkpt lat="45.972465" lon="8.950948">
        <ele>333.971606</ele>
        <time>2026-05-02T04:23:14.575Z</time>
      </trkpt>
      <trkpt lat="45.972348" lon="8.950859">
        <ele>333.725147</ele>
        <time>2026-05-02T04:23:16.573Z</time>
      </trkpt>
      <trkpt lat="45.972236" lon="8.950770">
        <ele>333.486880</ele>
        <time>2026-05-02T04:23:18.574Z</time>
      </trkpt>
      <trkpt lat="45.972123" lon="8.950692">
        <ele>333.253482</ele>
        <time>2026-05-02T04:23:20.574Z</time>
      </trkpt>
      <trkpt lat="45.972007" lon="8.950611">
        <ele>333.013366</ele>
        <time>2026-05-02T04:23:22.575Z</time>
      </trkpt>
      <trkpt lat="45.971890" lon="8.950525">
        <ele>332.768697</ele>
        <time>2026-05-02T04:23:24.582Z</time>
      </trkpt>
      <trkpt lat="45.971780" lon="8.950434">
        <ele>332.532403</ele>
        <time>2026-05-02T04:23:26.572Z</time>
      </trkpt>
      <trkpt lat="45.971673" lon="8.950347">
        <ele>332.303527</ele>
        <time>2026-05-02T04:23:28.576Z</time>
      </trkpt>
      <trkpt lat="45.971565" lon="8.950261">
        <ele>332.073657</ele>
        <time>2026-05-02T04:23:30.578Z</time>
      </trkpt>
      <trkpt lat="45.971452" lon="8.950172">
        <ele>331.833757</ele>
        <time>2026-05-02T04:23:32.571Z</time>
      </trkpt>
      <trkpt lat="45.971344" lon="8.950085">
        <ele>331.603257</ele>
        <time>2026-05-02T04:23:34.572Z</time>
      </trkpt>
      <trkpt lat="45.971235" lon="8.949998">
        <ele>331.371130</ele>
        <time>2026-05-02T04:23:36.570Z</time>
      </trkpt>
      <trkpt lat="45.971125" lon="8.949909">
        <ele>331.136115</ele>
        <time>2026-05-02T04:23:38.581Z</time>
      </trkpt>
      <trkpt lat="45.971015" lon="8.949820">
        <ele>330.901100</ele>
        <time>2026-05-02T04:23:40.578Z</time>
      </trkpt>
      <trkpt lat="45.970903" lon="8.949728">
        <ele>330.660930</ele>
        <time>2026-05-02T04:23:42.577Z</time>
      </trkpt>
      <trkpt lat="45.970789" lon="8.949641">
        <ele>330.562178</ele>
        <time>2026-05-02T04:23:44.578Z</time>
      </trkpt>
      <trkpt lat="45.970677" lon="8.949552">
        <ele>330.465554</ele>
        <time>2026-05-02T04:23:46.584Z</time>
      </trkpt>
      <trkpt lat="45.970565" lon="8.949466">
        <ele>330.369681</ele>
        <time>2026-05-02T04:23:48.576Z</time>
      </trkpt>
      <trkpt lat="45.970455" lon="8.949379">
        <ele>330.274887</ele>
        <time>2026-05-02T04:23:50.569Z</time>
      </trkpt>
      <trkpt lat="45.970347" lon="8.949303">
        <ele>330.184093</ele>
        <time>2026-05-02T04:23:52.578Z</time>
      </trkpt>
      <trkpt lat="45.970238" lon="8.949227">
        <ele>330.092621</ele>
        <time>2026-05-02T04:23:54.574Z</time>
      </trkpt>
      <trkpt lat="45.970127" lon="8.949161">
        <ele>330.001919</ele>
        <time>2026-05-02T04:23:56.571Z</time>
      </trkpt>
      <trkpt lat="45.970014" lon="8.949104">
        <ele>329.911490</ele>
        <time>2026-05-02T04:23:58.574Z</time>
      </trkpt>
      <trkpt lat="45.969904" lon="8.949055">
        <ele>329.824528</ele>
        <time>2026-05-02T04:24:00.573Z</time>
      </trkpt>
      <trkpt lat="45.969797" lon="8.949004">
        <ele>329.739404</ele>
        <time>2026-05-02T04:24:02.573Z</time>
      </trkpt>
      <trkpt lat="45.969688" lon="8.948951">
        <ele>329.652515</ele>
        <time>2026-05-02T04:24:04.574Z</time>
      </trkpt>
      <trkpt lat="45.969583" lon="8.948901">
        <ele>329.568989</ele>
        <time>2026-05-02T04:24:06.574Z</time>
      </trkpt>
      <trkpt lat="45.969480" lon="8.948846">
        <ele>329.486020</ele>
        <time>2026-05-02T04:24:08.573Z</time>
      </trkpt>
      <trkpt lat="45.969374" lon="8.948800">
        <ele>329.402408</ele>
        <time>2026-05-02T04:24:10.573Z</time>
      </trkpt>
      <trkpt lat="45.969268" lon="8.948750">
        <ele>329.318165</ele>
        <time>2026-05-02T04:24:12.572Z</time>
      </trkpt>
      <trkpt lat="45.969166" lon="8.948702">
        <ele>329.328623</ele>
        <time>2026-05-02T04:24:14.574Z</time>
      </trkpt>
      <trkpt lat="45.969071" lon="8.948660">
        <ele>329.362054</ele>
        <time>2026-05-02T04:24:16.573Z</time>
      </trkpt>
      <trkpt lat="45.968979" lon="8.948617">
        <ele>329.394593</ele>
        <time>2026-05-02T04:24:18.572Z</time>
      </trkpt>
      <trkpt lat="45.968883" lon="8.948565">
        <ele>329.429098</ele>
        <time>2026-05-02T04:24:20.571Z</time>
      </trkpt>
      <trkpt lat="45.968783" lon="8.948516">
        <ele>329.464634</ele>
        <time>2026-05-02T04:24:22.572Z</time>
      </trkpt>
      <trkpt lat="45.968679" lon="8.948457">
        <ele>329.502239</ele>
        <time>2026-05-02T04:24:24.575Z</time>
      </trkpt>
      <trkpt lat="45.968575" lon="8.948397">
        <ele>329.539930</ele>
        <time>2026-05-02T04:24:26.574Z</time>
      </trkpt>
      <trkpt lat="45.968472" lon="8.948338">
        <ele>329.577222</ele>
        <time>2026-05-02T04:24:28.579Z</time>
      </trkpt>
      <trkpt lat="45.968370" lon="8.948280">
        <ele>329.614116</ele>
        <time>2026-05-02T04:24:30.578Z</time>
      </trkpt>
      <trkpt lat="45.968267" lon="8.948220">
        <ele>329.651495</ele>
        <time>2026-05-02T04:24:32.578Z</time>
      </trkpt>
      <trkpt lat="45.968166" lon="8.948165">
        <ele>329.687822</ele>
        <time>2026-05-02T04:24:34.575Z</time>
      </trkpt>
      <trkpt lat="45.968071" lon="8.948112">
        <ele>329.722097</ele>
        <time>2026-05-02T04:24:36.578Z</time>
      </trkpt>
      <trkpt lat="45.967972" lon="8.948055">
        <ele>329.757966</ele>
        <time>2026-05-02T04:24:38.578Z</time>
      </trkpt>
      <trkpt lat="45.967878" lon="8.948013">
        <ele>329.791075</ele>
        <time>2026-05-02T04:24:40.576Z</time>
      </trkpt>
      <trkpt lat="45.967777" lon="8.947983">
        <ele>329.825766</ele>
        <time>2026-05-02T04:24:42.577Z</time>
      </trkpt>
      <trkpt lat="45.967677" lon="8.947961">
        <ele>329.859796</ele>
        <time>2026-05-02T04:24:44.576Z</time>
      </trkpt>
      <trkpt lat="45.967574" lon="8.947948">
        <ele>329.894576</ele>
        <time>2026-05-02T04:24:46.576Z</time>
      </trkpt>
      <trkpt lat="45.967468" lon="8.947949">
        <ele>329.977679</ele>
        <time>2026-05-02T04:24:48.576Z</time>
      </trkpt>
      <trkpt lat="45.967364" lon="8.947950">
        <ele>330.079651</ele>
        <time>2026-05-02T04:24:50.576Z</time>
      </trkpt>
      <trkpt lat="45.967266" lon="8.947950">
        <ele>330.175738</ele>
        <time>2026-05-02T04:24:52.576Z</time>
      </trkpt>
      <trkpt lat="45.967175" lon="8.947949">
        <ele>330.264965</ele>
        <time>2026-05-02T04:24:54.577Z</time>
      </trkpt>
      <trkpt lat="45.967047" lon="8.947940">
        <ele>330.390617</ele>
        <time>2026-05-02T04:24:57.573Z</time>
      </trkpt>
      <trkpt lat="45.966936" lon="8.947937">
        <ele>330.499470</ele>
        <time>2026-05-02T04:25:00.573Z</time>
      </trkpt>
      <trkpt lat="45.966831" lon="8.947930">
        <ele>330.602531</ele>
        <time>2026-05-02T04:25:03.574Z</time>
      </trkpt>
      <trkpt lat="45.966726" lon="8.947925">
        <ele>330.705538</ele>
        <time>2026-05-02T04:25:06.576Z</time>
      </trkpt>
      <trkpt lat="45.966621" lon="8.947917">
        <ele>330.808633</ele>
        <time>2026-05-02T04:25:09.576Z</time>
      </trkpt>
      <trkpt lat="45.966510" lon="8.947902">
        <ele>330.917946</ele>
        <time>2026-05-02T04:25:12.573Z</time>
      </trkpt>
      <trkpt lat="45.966394" lon="8.947885">
        <ele>331.032270</ele>
        <time>2026-05-02T04:25:15.573Z</time>
      </trkpt>
      <trkpt lat="45.966271" lon="8.947857">
        <ele>331.154370</ele>
        <time>2026-05-02T04:25:18.566Z</time>
      </trkpt>
      <trkpt lat="45.966183" lon="8.947828">
        <ele>331.242887</ele>
        <time>2026-05-02T04:25:20.577Z</time>
      </trkpt>
      <trkpt lat="45.966091" lon="8.947790">
        <ele>331.336736</ele>
        <time>2026-05-02T04:25:22.572Z</time>
      </trkpt>
      <trkpt lat="45.966005" lon="8.947747">
        <ele>331.426005</ele>
        <time>2026-05-02T04:25:24.574Z</time>
      </trkpt>
      <trkpt lat="45.965922" lon="8.947692">
        <ele>331.515602</ele>
        <time>2026-05-02T04:25:26.572Z</time>
      </trkpt>
      <trkpt lat="45.965840" lon="8.947632">
        <ele>331.605803</ele>
        <time>2026-05-02T04:25:28.579Z</time>
      </trkpt>
      <trkpt lat="45.965753" lon="8.947576">
        <ele>331.629885</ele>
        <time>2026-05-02T04:25:30.571Z</time>
      </trkpt>
      <trkpt lat="45.965668" lon="8.947520">
        <ele>331.511411</ele>
        <time>2026-05-02T04:25:32.576Z</time>
      </trkpt>
      <trkpt lat="45.965575" lon="8.947481">
        <ele>331.388652</ele>
        <time>2026-05-02T04:25:34.572Z</time>
      </trkpt>
      <trkpt lat="45.965478" lon="8.947443">
        <ele>331.261253</ele>
        <time>2026-05-02T04:25:36.572Z</time>
      </trkpt>
      <trkpt lat="45.965378" lon="8.947419">
        <ele>331.132777</ele>
        <time>2026-05-02T04:25:38.578Z</time>
      </trkpt>
      <trkpt lat="45.965276" lon="8.947396">
        <ele>331.001940</ele>
        <time>2026-05-02T04:25:40.577Z</time>
      </trkpt>
      <trkpt lat="45.965170" lon="8.947364">
        <ele>330.864686</ele>
        <time>2026-05-02T04:25:42.576Z</time>
      </trkpt>
      <trkpt lat="45.965061" lon="8.947335">
        <ele>330.724213</ele>
        <time>2026-05-02T04:25:44.569Z</time>
      </trkpt>
      <trkpt lat="45.964953" lon="8.947305">
        <ele>330.584823</ele>
        <time>2026-05-02T04:25:46.577Z</time>
      </trkpt>
      <trkpt lat="45.964847" lon="8.947281">
        <ele>330.448841</ele>
        <time>2026-05-02T04:25:48.575Z</time>
      </trkpt>
      <trkpt lat="45.964737" lon="8.947252">
        <ele>330.307122</ele>
        <time>2026-05-02T04:25:50.575Z</time>
      </trkpt>
      <trkpt lat="45.964633" lon="8.947222">
        <ele>330.172705</ele>
        <time>2026-05-02T04:25:52.578Z</time>
      </trkpt>
      <trkpt lat="45.964528" lon="8.947193">
        <ele>330.037214</ele>
        <time>2026-05-02T04:25:54.571Z</time>
      </trkpt>
      <trkpt lat="45.964420" lon="8.947164">
        <ele>329.897987</ele>
        <time>2026-05-02T04:25:56.578Z</time>
      </trkpt>
      <trkpt lat="45.964313" lon="8.947144">
        <ele>329.761252</ele>
        <time>2026-05-02T04:25:58.575Z</time>
      </trkpt>
      <trkpt lat="45.964207" lon="8.947130">
        <ele>329.626359</ele>
        <time>2026-05-02T04:26:00.577Z</time>
      </trkpt>
      <trkpt lat="45.964098" lon="8.947113">
        <ele>329.487419</ele>
        <time>2026-05-02T04:26:02.573Z</time>
      </trkpt>
      <trkpt lat="45.963990" lon="8.947103">
        <ele>329.378279</ele>
        <time>2026-05-02T04:26:04.576Z</time>
      </trkpt>
      <trkpt lat="45.963884" lon="8.947095">
        <ele>329.339396</ele>
        <time>2026-05-02T04:26:06.574Z</time>
      </trkpt>
      <trkpt lat="45.963773" lon="8.947088">
        <ele>329.298697</ele>
        <time>2026-05-02T04:26:08.576Z</time>
      </trkpt>
      <trkpt lat="45.963666" lon="8.947080">
        <ele>329.259448</ele>
        <time>2026-05-02T04:26:10.574Z</time>
      </trkpt>
      <trkpt lat="45.963559" lon="8.947075">
        <ele>329.220232</ele>
        <time>2026-05-02T04:26:12.575Z</time>
      </trkpt>
      <trkpt lat="45.963451" lon="8.947060">
        <ele>329.180487</ele>
        <time>2026-05-02T04:26:14.574Z</time>
      </trkpt>
      <trkpt lat="45.963342" lon="8.947050">
        <ele>329.140478</ele>
        <time>2026-05-02T04:26:16.583Z</time>
      </trkpt>
      <trkpt lat="45.963240" lon="8.947041">
        <ele>329.103044</ele>
        <time>2026-05-02T04:26:18.575Z</time>
      </trkpt>
      <trkpt lat="45.963141" lon="8.947036">
        <ele>329.066757</ele>
        <time>2026-05-02T04:26:20.577Z</time>
      </trkpt>
      <trkpt lat="45.963038" lon="8.947033">
        <ele>329.029019</ele>
        <time>2026-05-02T04:26:22.578Z</time>
      </trkpt>
      <trkpt lat="45.962933" lon="8.947037">
        <ele>328.990543</ele>
        <time>2026-05-02T04:26:24.575Z</time>
      </trkpt>
      <trkpt lat="45.962832" lon="8.947049">
        <ele>328.953419</ele>
        <time>2026-05-02T04:26:26.579Z</time>
      </trkpt>
      <trkpt lat="45.962726" lon="8.947064">
        <ele>328.914403</ele>
        <time>2026-05-02T04:26:28.577Z</time>
      </trkpt>
      <trkpt lat="45.962620" lon="8.947082">
        <ele>328.875304</ele>
        <time>2026-05-02T04:26:30.579Z</time>
      </trkpt>
      <trkpt lat="45.962517" lon="8.947091">
        <ele>328.837505</ele>
        <time>2026-05-02T04:26:32.585Z</time>
      </trkpt>
      <trkpt lat="45.962412" lon="8.947106">
        <ele>328.798853</ele>
        <time>2026-05-02T04:26:34.577Z</time>
      </trkpt>
      <trkpt lat="45.962311" lon="8.947125">
        <ele>328.761540</ele>
        <time>2026-05-02T04:26:36.579Z</time>
      </trkpt>
      <trkpt lat="45.962212" lon="8.947136">
        <ele>328.729563</ele>
        <time>2026-05-02T04:26:38.578Z</time>
      </trkpt>
      <trkpt lat="45.962110" lon="8.947150">
        <ele>328.721309</ele>
        <time>2026-05-02T04:26:40.575Z</time>
      </trkpt>
      <trkpt lat="45.962014" lon="8.947161">
        <ele>328.713552</ele>
        <time>2026-05-02T04:26:42.576Z</time>
      </trkpt>
      <trkpt lat="45.961918" lon="8.947172">
        <ele>328.705794</ele>
        <time>2026-05-02T04:26:44.576Z</time>
      </trkpt>
      <trkpt lat="45.961823" lon="8.947179">
        <ele>328.698131</ele>
        <time>2026-05-02T04:26:46.576Z</time>
      </trkpt>
      <trkpt lat="45.961728" lon="8.947183">
        <ele>328.690476</ele>
        <time>2026-05-02T04:26:48.574Z</time>
      </trkpt>
      <trkpt lat="45.961634" lon="8.947174">
        <ele>328.682887</ele>
        <time>2026-05-02T04:26:50.575Z</time>
      </trkpt>
      <trkpt lat="45.961536" lon="8.947164">
        <ele>328.674973</ele>
        <time>2026-05-02T04:26:52.573Z</time>
      </trkpt>
      <trkpt lat="45.961437" lon="8.947152">
        <ele>328.666970</ele>
        <time>2026-05-02T04:26:54.576Z</time>
      </trkpt>
      <trkpt lat="45.961334" lon="8.947134">
        <ele>328.658612</ele>
        <time>2026-05-02T04:26:56.579Z</time>
      </trkpt>
      <trkpt lat="45.961228" lon="8.947115">
        <ele>328.650007</ele>
        <time>2026-05-02T04:26:58.575Z</time>
      </trkpt>
      <trkpt lat="45.961121" lon="8.947092">
        <ele>328.641292</ele>
        <time>2026-05-02T04:27:00.576Z</time>
      </trkpt>
      <trkpt lat="45.961010" lon="8.947065">
        <ele>328.632224</ele>
        <time>2026-05-02T04:27:02.574Z</time>
      </trkpt>
      <trkpt lat="45.960898" lon="8.947036">
        <ele>328.623057</ele>
        <time>2026-05-02T04:27:04.576Z</time>
      </trkpt>
      <trkpt lat="45.960794" lon="8.947013">
        <ele>328.614581</ele>
        <time>2026-05-02T04:27:06.576Z</time>
      </trkpt>
      <trkpt lat="45.960694" lon="8.946987">
        <ele>328.606395</ele>
        <time>2026-05-02T04:27:08.576Z</time>
      </trkpt>
      <trkpt lat="45.960594" lon="8.946966">
        <ele>328.598255</ele>
        <time>2026-05-02T04:27:10.579Z</time>
      </trkpt>
      <trkpt lat="45.960494" lon="8.946949">
        <ele>328.590143</ele>
        <time>2026-05-02T04:27:12.579Z</time>
      </trkpt>
      <trkpt lat="45.960392" lon="8.946931">
        <ele>328.493518</ele>
        <time>2026-05-02T04:27:14.571Z</time>
      </trkpt>
      <trkpt lat="45.960287" lon="8.946905">
        <ele>328.297735</ele>
        <time>2026-05-02T04:27:16.572Z</time>
      </trkpt>
      <trkpt lat="45.960181" lon="8.946878">
        <ele>328.099922</ele>
        <time>2026-05-02T04:27:18.579Z</time>
      </trkpt>
      <trkpt lat="45.960077" lon="8.946856">
        <ele>327.906759</ele>
        <time>2026-05-02T04:27:20.573Z</time>
      </trkpt>
      <trkpt lat="45.959972" lon="8.946837">
        <ele>327.712293</ele>
        <time>2026-05-02T04:27:22.577Z</time>
      </trkpt>
      <trkpt lat="45.959866" lon="8.946826">
        <ele>327.517004</ele>
        <time>2026-05-02T04:27:24.579Z</time>
      </trkpt>
      <trkpt lat="45.959760" lon="8.946815">
        <ele>327.321715</ele>
        <time>2026-05-02T04:27:26.577Z</time>
      </trkpt>
      <trkpt lat="45.959654" lon="8.946809">
        <ele>327.126781</ele>
        <time>2026-05-02T04:27:28.579Z</time>
      </trkpt>
      <trkpt lat="45.959555" lon="8.946801">
        <ele>326.944574</ele>
        <time>2026-05-02T04:27:30.591Z</time>
      </trkpt>
      <trkpt lat="45.959451" lon="8.946793">
        <ele>326.753194</ele>
        <time>2026-05-02T04:27:32.577Z</time>
      </trkpt>
      <trkpt lat="45.959345" lon="8.946787">
        <ele>326.558260</ele>
        <time>2026-05-02T04:27:34.577Z</time>
      </trkpt>
      <trkpt lat="45.959235" lon="8.946779">
        <ele>326.355869</ele>
        <time>2026-05-02T04:27:36.575Z</time>
      </trkpt>
      <trkpt lat="45.959123" lon="8.946779">
        <ele>326.150060</ele>
        <time>2026-05-02T04:27:38.577Z</time>
      </trkpt>
      <trkpt lat="45.959005" lon="8.946782">
        <ele>325.933192</ele>
        <time>2026-05-02T04:27:40.573Z</time>
      </trkpt>
      <trkpt lat="45.958883" lon="8.946797">
        <ele>325.708191</ele>
        <time>2026-05-02T04:27:42.579Z</time>
      </trkpt>
      <trkpt lat="45.958756" lon="8.946807">
        <ele>325.474470</ele>
        <time>2026-05-02T04:27:44.575Z</time>
      </trkpt>
      <trkpt lat="45.958633" lon="8.946832">
        <ele>325.278535</ele>
        <time>2026-05-02T04:27:46.577Z</time>
      </trkpt>
      <trkpt lat="45.958513" lon="8.946853">
        <ele>325.264148</ele>
        <time>2026-05-02T04:27:48.575Z</time>
      </trkpt>
      <trkpt lat="45.958395" lon="8.946869">
        <ele>325.250042</ele>
        <time>2026-05-02T04:27:50.582Z</time>
      </trkpt>
      <trkpt lat="45.958273" lon="8.946894">
        <ele>325.235376</ele>
        <time>2026-05-02T04:27:52.573Z</time>
      </trkpt>
      <trkpt lat="45.958156" lon="8.946921">
        <ele>325.221273</ele>
        <time>2026-05-02T04:27:54.575Z</time>
      </trkpt>
      <trkpt lat="45.958038" lon="8.946950">
        <ele>325.207026</ele>
        <time>2026-05-02T04:27:56.575Z</time>
      </trkpt>
      <trkpt lat="45.957920" lon="8.946984">
        <ele>325.192703</ele>
        <time>2026-05-02T04:27:58.575Z</time>
      </trkpt>
      <trkpt lat="45.957810" lon="8.947016">
        <ele>325.179347</ele>
        <time>2026-05-02T04:28:00.574Z</time>
      </trkpt>
      <trkpt lat="45.957697" lon="8.947041">
        <ele>325.165740</ele>
        <time>2026-05-02T04:28:02.584Z</time>
      </trkpt>
      <trkpt lat="45.957595" lon="8.947093">
        <ele>325.152861</ele>
        <time>2026-05-02T04:28:04.586Z</time>
      </trkpt>
      <trkpt lat="45.957490" lon="8.947142">
        <ele>325.139723</ele>
        <time>2026-05-02T04:28:06.592Z</time>
      </trkpt>
      <trkpt lat="45.957393" lon="8.947161">
        <ele>325.128072</ele>
        <time>2026-05-02T04:28:08.581Z</time>
      </trkpt>
      <trkpt lat="45.957281" lon="8.947188">
        <ele>325.114557</ele>
        <time>2026-05-02T04:28:10.583Z</time>
      </trkpt>
      <trkpt lat="45.957175" lon="8.947222">
        <ele>325.101632</ele>
        <time>2026-05-02T04:28:12.573Z</time>
      </trkpt>
      <trkpt lat="45.957075" lon="8.947253">
        <ele>325.089457</ele>
        <time>2026-05-02T04:28:14.575Z</time>
      </trkpt>
      <trkpt lat="45.956976" lon="8.947296">
        <ele>325.077149</ele>
        <time>2026-05-02T04:28:16.575Z</time>
      </trkpt>
      <trkpt lat="45.956872" lon="8.947334">
        <ele>325.063273</ele>
        <time>2026-05-02T04:28:18.576Z</time>
      </trkpt>
      <trkpt lat="45.956770" lon="8.947378">
        <ele>325.044592</ele>
        <time>2026-05-02T04:28:20.585Z</time>
      </trkpt>
      <trkpt lat="45.956673" lon="8.947418">
        <ele>325.026890</ele>
        <time>2026-05-02T04:28:22.590Z</time>
      </trkpt>
      <trkpt lat="45.956573" lon="8.947458">
        <ele>325.008682</ele>
        <time>2026-05-02T04:28:24.580Z</time>
      </trkpt>
      <trkpt lat="45.956474" lon="8.947499">
        <ele>324.990609</ele>
        <time>2026-05-02T04:28:26.578Z</time>
      </trkpt>
      <trkpt lat="45.956379" lon="8.947533">
        <ele>324.973435</ele>
        <time>2026-05-02T04:28:28.575Z</time>
      </trkpt>
      <trkpt lat="45.956277" lon="8.947573">
        <ele>324.954888</ele>
        <time>2026-05-02T04:28:30.576Z</time>
      </trkpt>
      <trkpt lat="45.956177" lon="8.947613">
        <ele>324.936679</ele>
        <time>2026-05-02T04:28:32.576Z</time>
      </trkpt>
      <trkpt lat="45.956079" lon="8.947665">
        <ele>324.918355</ele>
        <time>2026-05-02T04:28:34.578Z</time>
      </trkpt>
      <trkpt lat="45.955980" lon="8.947716">
        <ele>324.899907</ele>
        <time>2026-05-02T04:28:36.576Z</time>
      </trkpt>
      <trkpt lat="45.955886" lon="8.947768">
        <ele>324.882239</ele>
        <time>2026-05-02T04:28:38.572Z</time>
      </trkpt>
      <trkpt lat="45.955798" lon="8.947822">
        <ele>324.865455</ele>
        <time>2026-05-02T04:28:40.572Z</time>
      </trkpt>
      <trkpt lat="45.955710" lon="8.947867">
        <ele>324.849071</ele>
        <time>2026-05-02T04:28:42.577Z</time>
      </trkpt>
      <trkpt lat="45.955581" lon="8.947857">
        <ele>324.826408</ele>
        <time>2026-05-02T04:28:45.584Z</time>
      </trkpt>
      <trkpt lat="45.955476" lon="8.947905">
        <ele>324.807080</ele>
        <time>2026-05-02T04:28:48.577Z</time>
      </trkpt>
      <trkpt lat="45.955436" lon="8.948064">
        <ele>324.786458</ele>
        <time>2026-05-02T04:28:51.580Z</time>
      </trkpt>
      <trkpt lat="45.955439" lon="8.948201">
        <ele>324.769741</ele>
        <time>2026-05-02T04:28:53.576Z</time>
      </trkpt>
      <trkpt lat="45.955423" lon="8.948344">
        <ele>324.752076</ele>
        <time>2026-05-02T04:28:55.577Z</time>
      </trkpt>
      <trkpt lat="45.955393" lon="8.948481">
        <ele>324.789275</ele>
        <time>2026-05-02T04:28:57.579Z</time>
      </trkpt>
      <trkpt lat="45.955358" lon="8.948604">
        <ele>324.826435</ele>
        <time>2026-05-02T04:28:59.574Z</time>
      </trkpt>
      <trkpt lat="45.955291" lon="8.948767">
        <ele>324.879380</ele>
        <time>2026-05-02T04:29:02.574Z</time>
      </trkpt>
      <trkpt lat="45.955218" lon="8.948923">
        <ele>324.931958</ele>
        <time>2026-05-02T04:29:05.575Z</time>
      </trkpt>
      <trkpt lat="45.955164" lon="8.949029">
        <ele>324.968702</ele>
        <time>2026-05-02T04:29:07.582Z</time>
      </trkpt>
      <trkpt lat="45.955112" lon="8.949146">
        <ele>325.007529</ele>
        <time>2026-05-02T04:29:09.574Z</time>
      </trkpt>
      <trkpt lat="45.955058" lon="8.949261">
        <ele>325.046330</ele>
        <time>2026-05-02T04:29:11.573Z</time>
      </trkpt>
      <trkpt lat="45.955003" lon="8.949377">
        <ele>325.085589</ele>
        <time>2026-05-02T04:29:13.573Z</time>
      </trkpt>
      <trkpt lat="45.954946" lon="8.949490">
        <ele>325.124625</ele>
        <time>2026-05-02T04:29:15.575Z</time>
      </trkpt>
      <trkpt lat="45.954891" lon="8.949608">
        <ele>325.164347</ele>
        <time>2026-05-02T04:29:17.585Z</time>
      </trkpt>
      <trkpt lat="45.954839" lon="8.949723">
        <ele>325.202704</ele>
        <time>2026-05-02T04:29:19.608Z</time>
      </trkpt>
      <trkpt lat="45.954784" lon="8.949833">
        <ele>325.240589</ele>
        <time>2026-05-02T04:29:21.576Z</time>
      </trkpt>
      <trkpt lat="45.954728" lon="8.949945">
        <ele>325.279162</ele>
        <time>2026-05-02T04:29:23.579Z</time>
      </trkpt>
      <trkpt lat="45.954649" lon="8.950085">
        <ele>325.329578</ele>
        <time>2026-05-02T04:29:26.573Z</time>
      </trkpt>
      <trkpt lat="45.954557" lon="8.950159">
        <ele>325.371971</ele>
        <time>2026-05-02T04:29:29.574Z</time>
      </trkpt>
      <trkpt lat="45.954477" lon="8.950232">
        <ele>325.410074</ele>
        <time>2026-05-02T04:29:32.574Z</time>
      </trkpt>
      <trkpt lat="45.954412" lon="8.950356">
        <ele>325.453496</ele>
        <time>2026-05-02T04:29:36.578Z</time>
      </trkpt>
      <trkpt lat="45.954324" lon="8.950437">
        <ele>325.447135</ele>
        <time>2026-05-02T04:29:40.583Z</time>
      </trkpt>
      <trkpt lat="45.954263" lon="8.950546">
        <ele>325.395963</ele>
        <time>2026-05-02T04:29:44.576Z</time>
      </trkpt>
      <trkpt lat="45.954191" lon="8.950663">
        <ele>325.338821</ele>
        <time>2026-05-02T04:29:48.576Z</time>
      </trkpt>
      <trkpt lat="45.954139" lon="8.950772">
        <ele>325.290476</ele>
        <time>2026-05-02T04:29:52.570Z</time>
      </trkpt>
      <trkpt lat="45.954072" lon="8.950876">
        <ele>325.238623</ele>
        <time>2026-05-02T04:29:57.573Z</time>
      </trkpt>
      <trkpt lat="45.953986" lon="8.950921">
        <ele>325.190484</ele>
        <time>2026-05-02T04:30:07.579Z</time>
      </trkpt>
      <trkpt lat="45.954048" lon="8.951044">
        <ele>325.134923</ele>
        <time>2026-05-02T04:30:19.568Z</time>
      </trkpt>
      <trkpt lat="45.954120" lon="8.950944">
        <ele>325.082274</ele>
        <time>2026-05-02T04:30:26.579Z</time>
      </trkpt>
      <trkpt lat="45.954070" lon="8.951058">
        <ele>325.032980</ele>
        <time>2026-05-02T04:30:43.579Z</time>
      </trkpt>
      <trkpt lat="45.954010" lon="8.951196">
        <ele>324.973456</ele>
        <time>2026-05-02T04:30:47.573Z</time>
      </trkpt>
      <trkpt lat="45.953949" lon="8.951316">
        <ele>324.919091</ele>
        <time>2026-05-02T04:30:50.574Z</time>
      </trkpt>
      <trkpt lat="45.953889" lon="8.951466">
        <ele>324.855803</ele>
        <time>2026-05-02T04:30:53.580Z</time>
      </trkpt>
      <trkpt lat="45.953835" lon="8.951635">
        <ele>324.787782</ele>
        <time>2026-05-02T04:30:56.579Z</time>
      </trkpt>
      <trkpt lat="45.953793" lon="8.951811">
        <ele>324.719731</ele>
        <time>2026-05-02T04:30:59.573Z</time>
      </trkpt>
      <trkpt lat="45.953765" lon="8.951977">
        <ele>324.657261</ele>
        <time>2026-05-02T04:31:02.572Z</time>
      </trkpt>
      <trkpt lat="45.953751" lon="8.952141">
        <ele>324.596834</ele>
        <time>2026-05-02T04:31:05.573Z</time>
      </trkpt>
      <trkpt lat="45.953742" lon="8.952305">
        <ele>324.536670</ele>
        <time>2026-05-02T04:31:08.574Z</time>
      </trkpt>
      <trkpt lat="45.953745" lon="8.952472">
        <ele>324.688974</ele>
        <time>2026-05-02T04:31:11.573Z</time>
      </trkpt>
      <trkpt lat="45.953758" lon="8.952621">
        <ele>324.855832</ele>
        <time>2026-05-02T04:31:14.585Z</time>
      </trkpt>
      <trkpt lat="45.953776" lon="8.952773">
        <ele>325.027157</ele>
        <time>2026-05-02T04:31:17.570Z</time>
      </trkpt>
      <trkpt lat="45.953798" lon="8.952920">
        <ele>325.194235</ele>
        <time>2026-05-02T04:31:20.572Z</time>
      </trkpt>
      <trkpt lat="45.953797" lon="8.953078">
        <ele>325.369802</ele>
        <time>2026-05-02T04:31:23.582Z</time>
      </trkpt>
      <trkpt lat="45.953782" lon="8.953241">
        <ele>325.552496</ele>
        <time>2026-05-02T04:31:26.568Z</time>
      </trkpt>
      <trkpt lat="45.953768" lon="8.953401">
        <ele>325.731680</ele>
        <time>2026-05-02T04:31:29.571Z</time>
      </trkpt>
      <trkpt lat="45.953752" lon="8.953554">
        <ele>325.903596</ele>
        <time>2026-05-02T04:31:32.576Z</time>
      </trkpt>
      <trkpt lat="45.953736" lon="8.953725">
        <ele>326.095314</ele>
        <time>2026-05-02T04:31:35.570Z</time>
      </trkpt>
      <trkpt lat="45.953718" lon="8.953893">
        <ele>326.284188</ele>
        <time>2026-05-02T04:31:38.581Z</time>
      </trkpt>
      <trkpt lat="45.953693" lon="8.954053">
        <ele>326.466405</ele>
        <time>2026-05-02T04:31:41.572Z</time>
      </trkpt>
      <trkpt lat="45.953667" lon="8.954202">
        <ele>326.637099</ele>
        <time>2026-05-02T04:31:44.573Z</time>
      </trkpt>
      <trkpt lat="45.953644" lon="8.954332">
        <ele>326.786151</ele>
        <time>2026-05-02T04:31:47.579Z</time>
      </trkpt>
      <trkpt lat="45.953623" lon="8.954497">
        <ele>326.972535</ele>
        <time>2026-05-02T04:31:51.571Z</time>
      </trkpt>
      <trkpt lat="45.953611" lon="8.954644">
        <ele>327.136995</ele>
        <time>2026-05-02T04:31:55.571Z</time>
      </trkpt>
      <trkpt lat="45.953595" lon="8.954787">
        <ele>327.297932</ele>
        <time>2026-05-02T04:31:59.570Z</time>
      </trkpt>
      <trkpt lat="45.953603" lon="8.954933">
        <ele>327.447777</ele>
        <time>2026-05-02T04:32:03.577Z</time>
      </trkpt>
      <trkpt lat="45.953632" lon="8.955093">
        <ele>327.590430</ele>
        <time>2026-05-02T04:32:07.576Z</time>
      </trkpt>
      <trkpt lat="45.953629" lon="8.955237">
        <ele>327.714722</ele>
        <time>2026-05-02T04:32:10.576Z</time>
      </trkpt>
      <trkpt lat="45.953618" lon="8.955373">
        <ele>327.832847</ele>
        <time>2026-05-02T04:32:13.576Z</time>
      </trkpt>
      <trkpt lat="45.953602" lon="8.955520">
        <ele>327.961216</ele>
        <time>2026-05-02T04:32:16.576Z</time>
      </trkpt>
      <trkpt lat="45.953589" lon="8.955686">
        <ele>328.105338</ele>
        <time>2026-05-02T04:32:19.584Z</time>
      </trkpt>
      <trkpt lat="45.953574" lon="8.955850">
        <ele>328.248048</ele>
        <time>2026-05-02T04:32:22.575Z</time>
      </trkpt>
      <trkpt lat="45.953559" lon="8.956011">
        <ele>328.388192</ele>
        <time>2026-05-02T04:32:25.577Z</time>
      </trkpt>
      <trkpt lat="45.953549" lon="8.956173">
        <ele>328.528507</ele>
        <time>2026-05-02T04:32:28.569Z</time>
      </trkpt>
      <trkpt lat="45.953532" lon="8.956327">
        <ele>328.663035</ele>
        <time>2026-05-02T04:32:31.570Z</time>
      </trkpt>
      <trkpt lat="45.953517" lon="8.956492">
        <ele>328.806601</ele>
        <time>2026-05-02T04:32:34.584Z</time>
      </trkpt>
      <trkpt lat="45.953501" lon="8.956657">
        <ele>328.950333</ele>
        <time>2026-05-02T04:32:37.572Z</time>
      </trkpt>
      <trkpt lat="45.953489" lon="8.956820">
        <ele>329.091747</ele>
        <time>2026-05-02T04:32:40.581Z</time>
      </trkpt>
      <trkpt lat="45.953476" lon="8.956988">
        <ele>329.237584</ele>
        <time>2026-05-02T04:32:43.572Z</time>
      </trkpt>
      <trkpt lat="45.953464" lon="8.957152">
        <ele>329.379857</ele>
        <time>2026-05-02T04:32:46.571Z</time>
      </trkpt>
      <trkpt lat="45.953454" lon="8.957296">
        <ele>329.504711</ele>
        <time>2026-05-02T04:32:49.587Z</time>
      </trkpt>
      <trkpt lat="45.953414" lon="8.957417">
        <ele>329.620304</ele>
        <time>2026-05-02T04:32:56.579Z</time>
      </trkpt>
      <trkpt lat="45.953399" lon="8.957560">
        <ele>329.578856</ele>
        <time>2026-05-02T04:33:02.582Z</time>
      </trkpt>
      <trkpt lat="45.953389" lon="8.957702">
        <ele>329.516009</ele>
        <time>2026-05-02T04:33:08.576Z</time>
      </trkpt>
      <trkpt lat="45.953378" lon="8.957850">
        <ele>329.450467</ele>
        <time>2026-05-02T04:33:13.573Z</time>
      </trkpt>
      <trkpt lat="45.953355" lon="8.958135">
        <ele>329.324129</ele>
        <time>2026-05-02T04:34:13.578Z</time>
      </trkpt>
      <trkpt lat="45.953343" lon="8.958299">
        <ele>329.251515</ele>
        <time>2026-05-02T04:34:17.575Z</time>
      </trkpt>
      <trkpt lat="45.953330" lon="8.958459">
        <ele>329.180581</ele>
        <time>2026-05-02T04:34:21.573Z</time>
      </trkpt>
      <trkpt lat="45.953316" lon="8.958619">
        <ele>329.109572</ele>
        <time>2026-05-02T04:34:25.574Z</time>
      </trkpt>
      <trkpt lat="45.953300" lon="8.958764">
        <ele>329.044924</ele>
        <time>2026-05-02T04:34:29.579Z</time>
      </trkpt>
      <trkpt lat="45.953329" lon="8.958890">
        <ele>328.986480</ele>
        <time>2026-05-02T04:34:38.578Z</time>
      </trkpt>
      <trkpt lat="45.953308" lon="8.959055">
        <ele>328.912617</ele>
        <time>2026-05-02T04:34:42.579Z</time>
      </trkpt>
      <trkpt lat="45.953294" lon="8.959203">
        <ele>328.846847</ele>
        <time>2026-05-02T04:34:45.570Z</time>
      </trkpt>
      <trkpt lat="45.953282" lon="8.959357">
        <ele>328.778610</ele>
        <time>2026-05-02T04:34:48.579Z</time>
      </trkpt>
      <trkpt lat="45.953268" lon="8.959515">
        <ele>328.708474</ele>
        <time>2026-05-02T04:34:51.576Z</time>
      </trkpt>
      <trkpt lat="45.953254" lon="8.959681">
        <ele>328.634842</ele>
        <time>2026-05-02T04:34:54.576Z</time>
      </trkpt>
      <trkpt lat="45.953241" lon="8.959844">
        <ele>328.562596</ele>
        <time>2026-05-02T04:34:57.575Z</time>
      </trkpt>
      <trkpt lat="45.953228" lon="8.960015">
        <ele>328.489847</ele>
        <time>2026-05-02T04:35:00.575Z</time>
      </trkpt>
      <trkpt lat="45.953211" lon="8.960188">
        <ele>328.438555</ele>
        <time>2026-05-02T04:35:03.576Z</time>
      </trkpt>
      <trkpt lat="45.953194" lon="8.960369">
        <ele>328.384937</ele>
        <time>2026-05-02T04:35:06.575Z</time>
      </trkpt>
      <trkpt lat="45.953177" lon="8.960552">
        <ele>328.330736</ele>
        <time>2026-05-02T04:35:09.576Z</time>
      </trkpt>
      <trkpt lat="45.953159" lon="8.960747">
        <ele>328.272988</ele>
        <time>2026-05-02T04:35:12.573Z</time>
      </trkpt>
      <trkpt lat="45.953139" lon="8.960939">
        <ele>328.215994</ele>
        <time>2026-05-02T04:35:15.583Z</time>
      </trkpt>
      <trkpt lat="45.953121" lon="8.961070">
        <ele>328.176793</ele>
        <time>2026-05-02T04:35:17.570Z</time>
      </trkpt>
      <trkpt lat="45.953102" lon="8.961202">
        <ele>328.137220</ele>
        <time>2026-05-02T04:35:19.576Z</time>
      </trkpt>
      <trkpt lat="45.953080" lon="8.961331">
        <ele>328.098227</ele>
        <time>2026-05-02T04:35:21.581Z</time>
      </trkpt>
      <trkpt lat="45.953056" lon="8.961464">
        <ele>328.057888</ele>
        <time>2026-05-02T04:35:23.575Z</time>
      </trkpt>
      <trkpt lat="45.953034" lon="8.961590">
        <ele>328.019750</ele>
        <time>2026-05-02T04:35:25.574Z</time>
      </trkpt>
      <trkpt lat="45.953009" lon="8.961718">
        <ele>327.980719</ele>
        <time>2026-05-02T04:35:27.572Z</time>
      </trkpt>
      <trkpt lat="45.952982" lon="8.961851">
        <ele>327.940044</ele>
        <time>2026-05-02T04:35:29.570Z</time>
      </trkpt>
      <trkpt lat="45.952949" lon="8.961985">
        <ele>327.898310</ele>
        <time>2026-05-02T04:35:31.579Z</time>
      </trkpt>
      <trkpt lat="45.952917" lon="8.962110">
        <ele>327.859206</ele>
        <time>2026-05-02T04:35:33.575Z</time>
      </trkpt>
      <trkpt lat="45.952883" lon="8.962237">
        <ele>327.819254</ele>
        <time>2026-05-02T04:35:35.575Z</time>
      </trkpt>
      <trkpt lat="45.952844" lon="8.962364">
        <ele>327.778495</ele>
        <time>2026-05-02T04:35:37.583Z</time>
      </trkpt>
      <trkpt lat="45.952807" lon="8.962485">
        <ele>327.739690</ele>
        <time>2026-05-02T04:35:39.574Z</time>
      </trkpt>
      <trkpt lat="45.952749" lon="8.962660">
        <ele>327.559353</ele>
        <time>2026-05-02T04:35:42.579Z</time>
      </trkpt>
      <trkpt lat="45.952705" lon="8.962781">
        <ele>327.426938</ele>
        <time>2026-05-02T04:35:44.578Z</time>
      </trkpt>
      <trkpt lat="45.952660" lon="8.962898">
        <ele>327.297278</ele>
        <time>2026-05-02T04:35:46.580Z</time>
      </trkpt>
      <trkpt lat="45.952612" lon="8.963021">
        <ele>327.160499</ele>
        <time>2026-05-02T04:35:48.576Z</time>
      </trkpt>
      <trkpt lat="45.952563" lon="8.963136">
        <ele>327.029706</ele>
        <time>2026-05-02T04:35:50.573Z</time>
      </trkpt>
      <trkpt lat="45.952515" lon="8.963248">
        <ele>326.902121</ele>
        <time>2026-05-02T04:35:52.577Z</time>
      </trkpt>
      <trkpt lat="45.952440" lon="8.963409">
        <ele>326.714192</ele>
        <time>2026-05-02T04:35:55.577Z</time>
      </trkpt>
      <trkpt lat="45.952378" lon="8.963521">
        <ele>326.575362</ele>
        <time>2026-05-02T04:35:57.576Z</time>
      </trkpt>
      <trkpt lat="45.952316" lon="8.963631">
        <ele>326.438044</ele>
        <time>2026-05-02T04:35:59.569Z</time>
      </trkpt>
      <trkpt lat="45.952245" lon="8.963740">
        <ele>326.293203</ele>
        <time>2026-05-02T04:36:01.576Z</time>
      </trkpt>
      <trkpt lat="45.952171" lon="8.963854">
        <ele>326.141963</ele>
        <time>2026-05-02T04:36:03.571Z</time>
      </trkpt>
      <trkpt lat="45.952093" lon="8.963972">
        <ele>325.984073</ele>
        <time>2026-05-02T04:36:05.571Z</time>
      </trkpt>
      <trkpt lat="45.952016" lon="8.964088">
        <ele>325.828550</ele>
        <time>2026-05-02T04:36:07.576Z</time>
      </trkpt>
      <trkpt lat="45.951938" lon="8.964211">
        <ele>325.667112</ele>
        <time>2026-05-02T04:36:09.576Z</time>
      </trkpt>
      <trkpt lat="45.951845" lon="8.964311">
        <ele>325.505158</ele>
        <time>2026-05-02T04:36:11.573Z</time>
      </trkpt>
      <trkpt lat="45.951733" lon="8.964356">
        <ele>325.342964</ele>
        <time>2026-05-02T04:36:13.573Z</time>
      </trkpt>
      <trkpt lat="45.951655" lon="8.964475">
        <ele>325.211385</ele>
        <time>2026-05-02T04:36:15.575Z</time>
      </trkpt>
      <trkpt lat="45.951566" lon="8.964564">
        <ele>325.154489</ele>
        <time>2026-05-02T04:36:17.575Z</time>
      </trkpt>
      <trkpt lat="45.951468" lon="8.964620">
        <ele>325.099141</ele>
        <time>2026-05-02T04:36:19.572Z</time>
      </trkpt>
      <trkpt lat="45.951363" lon="8.964645">
        <ele>325.043278</ele>
        <time>2026-05-02T04:36:21.576Z</time>
      </trkpt>
      <trkpt lat="45.951263" lon="8.964642">
        <ele>324.990779</ele>
        <time>2026-05-02T04:36:23.574Z</time>
      </trkpt>
      <trkpt lat="45.951162" lon="8.964628">
        <ele>324.937521</ele>
        <time>2026-05-02T04:36:25.582Z</time>
      </trkpt>
      <trkpt lat="45.951058" lon="8.964601">
        <ele>324.882052</ele>
        <time>2026-05-02T04:36:27.571Z</time>
      </trkpt>
      <trkpt lat="45.950959" lon="8.964563">
        <ele>324.828270</ele>
        <time>2026-05-02T04:36:29.573Z</time>
      </trkpt>
      <trkpt lat="45.950862" lon="8.964540">
        <ele>324.776670</ele>
        <time>2026-05-02T04:36:31.574Z</time>
      </trkpt>
      <trkpt lat="45.950759" lon="8.964530">
        <ele>324.722485</ele>
        <time>2026-05-02T04:36:34.575Z</time>
      </trkpt>
      <trkpt lat="45.950662" lon="8.964507">
        <ele>324.670884</ele>
        <time>2026-05-02T04:36:38.579Z</time>
      </trkpt>
      <trkpt lat="45.950569" lon="8.964502">
        <ele>324.622037</ele>
        <time>2026-05-02T04:36:42.576Z</time>
      </trkpt>
      <trkpt lat="45.950478" lon="8.964534">
        <ele>324.572866</ele>
        <time>2026-05-02T04:36:45.575Z</time>
      </trkpt>
      <trkpt lat="45.950368" lon="8.964541">
        <ele>324.515073</ele>
        <time>2026-05-02T04:36:48.578Z</time>
      </trkpt>
      <trkpt lat="45.950260" lon="8.964548">
        <ele>324.458329</ele>
        <time>2026-05-02T04:36:51.570Z</time>
      </trkpt>
      <trkpt lat="45.950234" lon="8.964419">
        <ele>324.409314</ele>
        <time>2026-05-02T04:36:58.583Z</time>
      </trkpt>
      <trkpt lat="45.950144" lon="8.964394">
        <ele>324.361202</ele>
        <time>2026-05-02T04:37:11.589Z</time>
      </trkpt>
      <trkpt lat="45.950053" lon="8.964427">
        <ele>324.311943</ele>
        <time>2026-05-02T04:39:25.577Z</time>
      </trkpt>
      <trkpt lat="45.949963" lon="8.964451">
        <ele>324.286557</ele>
        <time>2026-05-02T04:39:30.576Z</time>
      </trkpt>
      <trkpt lat="45.949854" lon="8.964476">
        <ele>324.295190</ele>
        <time>2026-05-02T04:39:35.577Z</time>
      </trkpt>
      <trkpt lat="45.949748" lon="8.964504">
        <ele>324.303618</ele>
        <time>2026-05-02T04:39:40.576Z</time>
      </trkpt>
      <trkpt lat="45.949646" lon="8.964522">
        <ele>324.311655</ele>
        <time>2026-05-02T04:39:45.582Z</time>
      </trkpt>
      <trkpt lat="45.949552" lon="8.964542">
        <ele>324.319087</ele>
        <time>2026-05-02T04:39:51.574Z</time>
      </trkpt>
      <trkpt lat="45.949505" lon="8.964691">
        <ele>324.327984</ele>
        <time>2026-05-02T04:40:37.575Z</time>
      </trkpt>
      <trkpt lat="45.949577" lon="8.964807">
        <ele>324.336439</ele>
        <time>2026-05-02T04:40:43.573Z</time>
      </trkpt>
      <trkpt lat="45.949557" lon="8.964962">
        <ele>324.345012</ele>
        <time>2026-05-02T04:40:51.583Z</time>
      </trkpt>
      <trkpt lat="45.949488" lon="8.965109">
        <ele>324.354656</ele>
        <time>2026-05-02T04:40:55.574Z</time>
      </trkpt>
      <trkpt lat="45.949424" lon="8.965243">
        <ele>324.363496</ele>
        <time>2026-05-02T04:40:58.580Z</time>
      </trkpt>
      <trkpt lat="45.949355" lon="8.965376">
        <ele>324.372520</ele>
        <time>2026-05-02T04:41:01.580Z</time>
      </trkpt>
      <trkpt lat="45.949285" lon="8.965517">
        <ele>324.381941</ele>
        <time>2026-05-02T04:41:04.580Z</time>
      </trkpt>
      <trkpt lat="45.949217" lon="8.965641">
        <ele>324.390529</ele>
        <time>2026-05-02T04:41:07.580Z</time>
      </trkpt>
      <trkpt lat="45.949139" lon="8.965758">
        <ele>324.399343</ele>
        <time>2026-05-02T04:41:10.586Z</time>
      </trkpt>
      <trkpt lat="45.949063" lon="8.965857">
        <ele>324.407362</ele>
        <time>2026-05-02T04:41:13.570Z</time>
      </trkpt>
      <trkpt lat="45.948975" lon="8.965936">
        <ele>324.415475</ele>
        <time>2026-05-02T04:41:16.576Z</time>
      </trkpt>
      <trkpt lat="45.948877" lon="8.966015">
        <ele>324.424261</ele>
        <time>2026-05-02T04:41:19.575Z</time>
      </trkpt>
      <trkpt lat="45.948772" lon="8.966079">
        <ele>324.518611</ele>
        <time>2026-05-02T04:41:22.576Z</time>
      </trkpt>
      <trkpt lat="45.948663" lon="8.966122">
        <ele>324.612365</ele>
        <time>2026-05-02T04:41:25.573Z</time>
      </trkpt>
      <trkpt lat="45.948555" lon="8.966153">
        <ele>324.703717</ele>
        <time>2026-05-02T04:41:28.574Z</time>
      </trkpt>
      <trkpt lat="45.948444" lon="8.966171">
        <ele>324.796374</ele>
        <time>2026-05-02T04:41:31.575Z</time>
      </trkpt>
      <trkpt lat="45.948328" lon="8.966194">
        <ele>324.893505</ele>
        <time>2026-05-02T04:41:34.582Z</time>
      </trkpt>
      <trkpt lat="45.948218" lon="8.966213">
        <ele>324.985405</ele>
        <time>2026-05-02T04:41:37.576Z</time>
      </trkpt>
      <trkpt lat="45.948105" lon="8.966230">
        <ele>325.079650</ele>
        <time>2026-05-02T04:41:40.573Z</time>
      </trkpt>
      <trkpt lat="45.947989" lon="8.966255">
        <ele>325.176945</ele>
        <time>2026-05-02T04:41:43.587Z</time>
      </trkpt>
      <trkpt lat="45.947874" lon="8.966274">
        <ele>325.272964</ele>
        <time>2026-05-02T04:41:46.579Z</time>
      </trkpt>
      <trkpt lat="45.947755" lon="8.966298">
        <ele>325.372640</ele>
        <time>2026-05-02T04:41:49.583Z</time>
      </trkpt>
      <trkpt lat="45.947644" lon="8.966319">
        <ele>325.465507</ele>
        <time>2026-05-02T04:41:52.574Z</time>
      </trkpt>
      <trkpt lat="45.947524" lon="8.966339">
        <ele>325.565712</ele>
        <time>2026-05-02T04:41:55.579Z</time>
      </trkpt>
      <trkpt lat="45.947402" lon="8.966343">
        <ele>325.666936</ele>
        <time>2026-05-02T04:41:58.577Z</time>
      </trkpt>
      <trkpt lat="45.947284" lon="8.966337">
        <ele>325.764878</ele>
        <time>2026-05-02T04:42:01.577Z</time>
      </trkpt>
      <trkpt lat="45.947157" lon="8.966323">
        <ele>325.870532</ele>
        <time>2026-05-02T04:42:04.578Z</time>
      </trkpt>
      <trkpt lat="45.947037" lon="8.966300">
        <ele>325.978814</ele>
        <time>2026-05-02T04:42:07.577Z</time>
      </trkpt>
      <trkpt lat="45.946918" lon="8.966268">
        <ele>326.093667</ele>
        <time>2026-05-02T04:42:10.575Z</time>
      </trkpt>
      <trkpt lat="45.946791" lon="8.966232">
        <ele>326.216472</ele>
        <time>2026-05-02T04:42:13.574Z</time>
      </trkpt>
      <trkpt lat="45.946663" lon="8.966195">
        <ele>326.340336</ele>
        <time>2026-05-02T04:42:16.576Z</time>
      </trkpt>
      <trkpt lat="45.946535" lon="8.966154">
        <ele>326.464747</ele>
        <time>2026-05-02T04:42:19.574Z</time>
      </trkpt>
      <trkpt lat="45.946446" lon="8.966123">
        <ele>326.551623</ele>
        <time>2026-05-02T04:42:21.576Z</time>
      </trkpt>
      <trkpt lat="45.946355" lon="8.966091">
        <ele>326.640500</ele>
        <time>2026-05-02T04:42:23.581Z</time>
      </trkpt>
      <trkpt lat="45.946227" lon="8.966043">
        <ele>326.765995</ele>
        <time>2026-05-02T04:42:26.575Z</time>
      </trkpt>
      <trkpt lat="45.946138" lon="8.966008">
        <ele>326.853531</ele>
        <time>2026-05-02T04:42:28.575Z</time>
      </trkpt>
      <trkpt lat="45.946048" lon="8.965974">
        <ele>326.941811</ele>
        <time>2026-05-02T04:42:30.581Z</time>
      </trkpt>
      <trkpt lat="45.945917" lon="8.965920">
        <ele>327.071097</ele>
        <time>2026-05-02T04:42:33.574Z</time>
      </trkpt>
      <trkpt lat="45.945828" lon="8.965879">
        <ele>327.159759</ele>
        <time>2026-05-02T04:42:35.580Z</time>
      </trkpt>
      <trkpt lat="45.945738" lon="8.965844">
        <ele>327.248210</ele>
        <time>2026-05-02T04:42:37.577Z</time>
      </trkpt>
      <trkpt lat="45.945646" lon="8.965808">
        <ele>327.338665</ele>
        <time>2026-05-02T04:42:39.581Z</time>
      </trkpt>
      <trkpt lat="45.945554" lon="8.965770">
        <ele>327.429475</ele>
        <time>2026-05-02T04:42:41.588Z</time>
      </trkpt>
      <trkpt lat="45.945465" lon="8.965732">
        <ele>327.517553</ele>
        <time>2026-05-02T04:42:43.575Z</time>
      </trkpt>
      <trkpt lat="45.945377" lon="8.965696">
        <ele>327.604352</ele>
        <time>2026-05-02T04:42:45.577Z</time>
      </trkpt>
      <trkpt lat="45.945252" lon="8.965645">
        <ele>327.832120</ele>
        <time>2026-05-02T04:42:48.573Z</time>
      </trkpt>
      <trkpt lat="45.945122" lon="8.965594">
        <ele>328.087218</ele>
        <time>2026-05-02T04:42:51.581Z</time>
      </trkpt>
      <trkpt lat="45.945034" lon="8.965564">
        <ele>328.258430</ele>
        <time>2026-05-02T04:42:53.576Z</time>
      </trkpt>
      <trkpt lat="45.944906" lon="8.965516">
        <ele>328.508852</ele>
        <time>2026-05-02T04:42:56.577Z</time>
      </trkpt>
      <trkpt lat="45.944819" lon="8.965482">
        <ele>328.679526</ele>
        <time>2026-05-02T04:42:58.576Z</time>
      </trkpt>
      <trkpt lat="45.944688" lon="8.965443">
        <ele>328.932784</ele>
        <time>2026-05-02T04:43:01.587Z</time>
      </trkpt>
      <trkpt lat="45.944560" lon="8.965401">
        <ele>329.181331</ele>
        <time>2026-05-02T04:43:04.583Z</time>
      </trkpt>
      <trkpt lat="45.944432" lon="8.965360">
        <ele>329.429588</ele>
        <time>2026-05-02T04:43:07.591Z</time>
      </trkpt>
      <trkpt lat="45.944309" lon="8.965328">
        <ele>329.666222</ele>
        <time>2026-05-02T04:43:10.583Z</time>
      </trkpt>
      <trkpt lat="45.944187" lon="8.965302">
        <ele>329.899705</ele>
        <time>2026-05-02T04:43:13.576Z</time>
      </trkpt>
      <trkpt lat="45.944074" lon="8.965283">
        <ele>330.115085</ele>
        <time>2026-05-02T04:43:16.576Z</time>
      </trkpt>
      <trkpt lat="45.943972" lon="8.965266">
        <ele>330.309476</ele>
        <time>2026-05-02T04:43:19.575Z</time>
      </trkpt>
      <trkpt lat="45.943874" lon="8.965242">
        <ele>330.497673</ele>
        <time>2026-05-02T04:43:22.576Z</time>
      </trkpt>
      <trkpt lat="45.943777" lon="8.965220">
        <ele>330.683575</ele>
        <time>2026-05-02T04:43:25.579Z</time>
      </trkpt>
      <trkpt lat="45.943679" lon="8.965190">
        <ele>330.873258</ele>
        <time>2026-05-02T04:43:28.577Z</time>
      </trkpt>
      <trkpt lat="45.943585" lon="8.965164">
        <ele>331.067962</ele>
        <time>2026-05-02T04:43:31.575Z</time>
      </trkpt>
      <trkpt lat="45.943490" lon="8.965125">
        <ele>331.349218</ele>
        <time>2026-05-02T04:43:34.575Z</time>
      </trkpt>
      <trkpt lat="45.943393" lon="8.965080">
        <ele>331.639377</ele>
        <time>2026-05-02T04:43:37.575Z</time>
      </trkpt>
      <trkpt lat="45.943297" lon="8.965029">
        <ele>331.930727</ele>
        <time>2026-05-02T04:43:40.573Z</time>
      </trkpt>
      <trkpt lat="45.943199" lon="8.964976">
        <ele>332.228796</ele>
        <time>2026-05-02T04:43:43.572Z</time>
      </trkpt>
      <trkpt lat="45.943106" lon="8.964926">
        <ele>332.511452</ele>
        <time>2026-05-02T04:43:46.575Z</time>
      </trkpt>
      <trkpt lat="45.943015" lon="8.964873">
        <ele>332.790956</ele>
        <time>2026-05-02T04:43:49.579Z</time>
      </trkpt>
      <trkpt lat="45.942920" lon="8.964822">
        <ele>333.079638</ele>
        <time>2026-05-02T04:43:52.575Z</time>
      </trkpt>
      <trkpt lat="45.942821" lon="8.964767">
        <ele>333.381777</ele>
        <time>2026-05-02T04:43:55.581Z</time>
      </trkpt>
      <trkpt lat="45.942719" lon="8.964707">
        <ele>333.695511</ele>
        <time>2026-05-02T04:43:58.572Z</time>
      </trkpt>
      <trkpt lat="45.942616" lon="8.964652">
        <ele>334.008300</ele>
        <time>2026-05-02T04:44:01.577Z</time>
      </trkpt>
      <trkpt lat="45.942512" lon="8.964595">
        <ele>334.325147</ele>
        <time>2026-05-02T04:44:04.579Z</time>
      </trkpt>
      <trkpt lat="45.942408" lon="8.964539">
        <ele>334.641295</ele>
        <time>2026-05-02T04:44:07.577Z</time>
      </trkpt>
      <trkpt lat="45.942304" lon="8.964485">
        <ele>334.956077</ele>
        <time>2026-05-02T04:44:10.575Z</time>
      </trkpt>
      <trkpt lat="45.942197" lon="8.964428">
        <ele>335.280920</ele>
        <time>2026-05-02T04:44:13.574Z</time>
      </trkpt>
      <trkpt lat="45.942090" lon="8.964371">
        <ele>335.605762</ele>
        <time>2026-05-02T04:44:16.576Z</time>
      </trkpt>
      <trkpt lat="45.941979" lon="8.964334">
        <ele>335.930142</ele>
        <time>2026-05-02T04:44:19.583Z</time>
      </trkpt>
      <trkpt lat="45.941867" lon="8.964307">
        <ele>336.161375</ele>
        <time>2026-05-02T04:44:22.579Z</time>
      </trkpt>
      <trkpt lat="45.941749" lon="8.964288">
        <ele>336.203734</ele>
        <time>2026-05-02T04:44:25.575Z</time>
      </trkpt>
      <trkpt lat="45.941636" lon="8.964283">
        <ele>336.244066</ele>
        <time>2026-05-02T04:44:28.586Z</time>
      </trkpt>
      <trkpt lat="45.941513" lon="8.964293">
        <ele>336.288017</ele>
        <time>2026-05-02T04:44:31.580Z</time>
      </trkpt>
      <trkpt lat="45.941384" lon="8.964310">
        <ele>336.334230</ele>
        <time>2026-05-02T04:44:34.572Z</time>
      </trkpt>
      <trkpt lat="45.941262" lon="8.964331">
        <ele>336.378065</ele>
        <time>2026-05-02T04:44:37.573Z</time>
      </trkpt>
      <trkpt lat="45.941135" lon="8.964351">
        <ele>336.423643</ele>
        <time>2026-05-02T04:44:40.580Z</time>
      </trkpt>
      <trkpt lat="45.941010" lon="8.964375">
        <ele>336.468632</ele>
        <time>2026-05-02T04:44:43.580Z</time>
      </trkpt>
      <trkpt lat="45.940875" lon="8.964392">
        <ele>336.516978</ele>
        <time>2026-05-02T04:44:46.571Z</time>
      </trkpt>
      <trkpt lat="45.940778" lon="8.964410">
        <ele>336.551870</ele>
        <time>2026-05-02T04:44:48.578Z</time>
      </trkpt>
      <trkpt lat="45.940684" lon="8.964428">
        <ele>336.585701</ele>
        <time>2026-05-02T04:44:50.577Z</time>
      </trkpt>
      <trkpt lat="45.940588" lon="8.964442">
        <ele>336.620124</ele>
        <time>2026-05-02T04:44:52.578Z</time>
      </trkpt>
      <trkpt lat="45.940455" lon="8.964467">
        <ele>336.667976</ele>
        <time>2026-05-02T04:44:55.578Z</time>
      </trkpt>
      <trkpt lat="45.940363" lon="8.964485">
        <ele>336.701099</ele>
        <time>2026-05-02T04:44:57.586Z</time>
      </trkpt>
      <trkpt lat="45.940266" lon="8.964505">
        <ele>336.736058</ele>
        <time>2026-05-02T04:44:59.584Z</time>
      </trkpt>
      <trkpt lat="45.940173" lon="8.964546">
        <ele>336.770760</ele>
        <time>2026-05-02T04:45:01.575Z</time>
      </trkpt>
      <trkpt lat="45.940083" lon="8.964601">
        <ele>336.734348</ele>
        <time>2026-05-02T04:45:03.574Z</time>
      </trkpt>
      <trkpt lat="45.939995" lon="8.964667">
        <ele>336.609920</ele>
        <time>2026-05-02T04:45:05.577Z</time>
      </trkpt>
      <trkpt lat="45.939914" lon="8.964738">
        <ele>336.490993</ele>
        <time>2026-05-02T04:45:07.576Z</time>
      </trkpt>
      <trkpt lat="45.939840" lon="8.964830">
        <ele>336.368355</ele>
        <time>2026-05-02T04:45:09.577Z</time>
      </trkpt>
      <trkpt lat="45.939778" lon="8.964947">
        <ele>336.240111</ele>
        <time>2026-05-02T04:45:11.583Z</time>
      </trkpt>
      <trkpt lat="45.939720" lon="8.965067">
        <ele>336.112704</ele>
        <time>2026-05-02T04:45:13.574Z</time>
      </trkpt>
      <trkpt lat="45.939677" lon="8.965196">
        <ele>335.987985</ele>
        <time>2026-05-02T04:45:15.573Z</time>
      </trkpt>
      <trkpt lat="45.939639" lon="8.965338">
        <ele>335.855335</ele>
        <time>2026-05-02T04:45:17.574Z</time>
      </trkpt>
      <trkpt lat="45.939599" lon="8.965477">
        <ele>335.724185</ele>
        <time>2026-05-02T04:45:19.574Z</time>
      </trkpt>
      <trkpt lat="45.939556" lon="8.965615">
        <ele>335.592347</ele>
        <time>2026-05-02T04:45:21.580Z</time>
      </trkpt>
      <trkpt lat="45.939518" lon="8.965760">
        <ele>335.457252</ele>
        <time>2026-05-02T04:45:23.577Z</time>
      </trkpt>
      <trkpt lat="45.939481" lon="8.965898">
        <ele>335.328307</ele>
        <time>2026-05-02T04:45:25.572Z</time>
      </trkpt>
      <trkpt lat="45.939444" lon="8.966028">
        <ele>335.205843</ele>
        <time>2026-05-02T04:45:27.575Z</time>
      </trkpt>
      <trkpt lat="45.939404" lon="8.966148">
        <ele>335.089826</ele>
        <time>2026-05-02T04:45:29.581Z</time>
      </trkpt>
      <trkpt lat="45.939360" lon="8.966266">
        <ele>334.973093</ele>
        <time>2026-05-02T04:45:31.581Z</time>
      </trkpt>
      <trkpt lat="45.939309" lon="8.966389">
        <ele>334.848243</ele>
        <time>2026-05-02T04:45:33.586Z</time>
      </trkpt>
      <trkpt lat="45.939251" lon="8.966512">
        <ele>334.718679</ele>
        <time>2026-05-02T04:45:35.579Z</time>
      </trkpt>
      <trkpt lat="45.939201" lon="8.966628">
        <ele>334.599695</ele>
        <time>2026-05-02T04:45:37.581Z</time>
      </trkpt>
      <trkpt lat="45.939149" lon="8.966737">
        <ele>334.433311</ele>
        <time>2026-05-02T04:45:39.579Z</time>
      </trkpt>
      <trkpt lat="45.939098" lon="8.966850">
        <ele>334.196852</ele>
        <time>2026-05-02T04:45:41.580Z</time>
      </trkpt>
      <trkpt lat="45.939049" lon="8.966977">
        <ele>333.941919</ele>
        <time>2026-05-02T04:45:43.587Z</time>
      </trkpt>
      <trkpt lat="45.939006" lon="8.967110">
        <ele>333.684469</ele>
        <time>2026-05-02T04:45:45.579Z</time>
      </trkpt>
      <trkpt lat="45.938967" lon="8.967248">
        <ele>333.423000</ele>
        <time>2026-05-02T04:45:47.578Z</time>
      </trkpt>
      <trkpt lat="45.938930" lon="8.967399">
        <ele>333.141978</ele>
        <time>2026-05-02T04:45:49.571Z</time>
      </trkpt>
      <trkpt lat="45.938887" lon="8.967552">
        <ele>332.852316</ele>
        <time>2026-05-02T04:45:51.579Z</time>
      </trkpt>
      <trkpt lat="45.938844" lon="8.967703">
        <ele>332.565904</ele>
        <time>2026-05-02T04:45:53.578Z</time>
      </trkpt>
      <trkpt lat="45.938799" lon="8.967858">
        <ele>332.271075</ele>
        <time>2026-05-02T04:45:55.576Z</time>
      </trkpt>
      <trkpt lat="45.938735" lon="8.968009">
        <ele>331.960677</ele>
        <time>2026-05-02T04:45:57.577Z</time>
      </trkpt>
      <trkpt lat="45.938664" lon="8.968152">
        <ele>331.652260</ele>
        <time>2026-05-02T04:45:59.576Z</time>
      </trkpt>
      <trkpt lat="45.938582" lon="8.968288">
        <ele>331.336308</ele>
        <time>2026-05-02T04:46:01.577Z</time>
      </trkpt>
      <trkpt lat="45.938486" lon="8.968408">
        <ele>331.015243</ele>
        <time>2026-05-02T04:46:03.575Z</time>
      </trkpt>
      <trkpt lat="45.938389" lon="8.968525">
        <ele>330.695679</ele>
        <time>2026-05-02T04:46:05.575Z</time>
      </trkpt>
      <trkpt lat="45.938292" lon="8.968637">
        <ele>330.381683</ele>
        <time>2026-05-02T04:46:07.574Z</time>
      </trkpt>
      <trkpt lat="45.938195" lon="8.968751">
        <ele>330.065476</ele>
        <time>2026-05-02T04:46:09.574Z</time>
      </trkpt>
      <trkpt lat="45.938097" lon="8.968860">
        <ele>329.819705</ele>
        <time>2026-05-02T04:46:11.577Z</time>
      </trkpt>
      <trkpt lat="45.938001" lon="8.968977">
        <ele>329.589842</ele>
        <time>2026-05-02T04:46:13.572Z</time>
      </trkpt>
      <trkpt lat="45.937902" lon="8.969099">
        <ele>329.351689</ele>
        <time>2026-05-02T04:46:15.574Z</time>
      </trkpt>
      <trkpt lat="45.937798" lon="8.969221">
        <ele>329.106529</ele>
        <time>2026-05-02T04:46:17.573Z</time>
      </trkpt>
      <trkpt lat="45.937693" lon="8.969352">
        <ele>328.852610</ele>
        <time>2026-05-02T04:46:19.576Z</time>
      </trkpt>
      <trkpt lat="45.937585" lon="8.969474">
        <ele>328.601746</ele>
        <time>2026-05-02T04:46:21.574Z</time>
      </trkpt>
      <trkpt lat="45.937473" lon="8.969585">
        <ele>328.353284</ele>
        <time>2026-05-02T04:46:23.574Z</time>
      </trkpt>
      <trkpt lat="45.937360" lon="8.969683">
        <ele>328.112245</ele>
        <time>2026-05-02T04:46:25.580Z</time>
      </trkpt>
      <trkpt lat="45.937250" lon="8.969768">
        <ele>327.884146</ele>
        <time>2026-05-02T04:46:27.575Z</time>
      </trkpt>
      <trkpt lat="45.937142" lon="8.969844">
        <ele>327.664519</ele>
        <time>2026-05-02T04:46:29.573Z</time>
      </trkpt>
      <trkpt lat="45.937041" lon="8.969909">
        <ele>327.462399</ele>
        <time>2026-05-02T04:46:31.578Z</time>
      </trkpt>
      <trkpt lat="45.936943" lon="8.969966">
        <ele>327.269305</ele>
        <time>2026-05-02T04:46:33.572Z</time>
      </trkpt>
      <trkpt lat="45.936848" lon="8.970015">
        <ele>327.084953</ele>
        <time>2026-05-02T04:46:35.578Z</time>
      </trkpt>
      <trkpt lat="45.936752" lon="8.970061">
        <ele>326.900121</ele>
        <time>2026-05-02T04:46:37.575Z</time>
      </trkpt>
      <trkpt lat="45.936657" lon="8.970112">
        <ele>326.714896</ele>
        <time>2026-05-02T04:46:39.572Z</time>
      </trkpt>
      <trkpt lat="45.936566" lon="8.970158">
        <ele>326.845106</ele>
        <time>2026-05-02T04:46:41.574Z</time>
      </trkpt>
      <trkpt lat="45.936473" lon="8.970207">
        <ele>326.988449</ele>
        <time>2026-05-02T04:46:43.576Z</time>
      </trkpt>
      <trkpt lat="45.936385" lon="8.970255">
        <ele>327.124660</ele>
        <time>2026-05-02T04:46:45.574Z</time>
      </trkpt>
      <trkpt lat="45.936297" lon="8.970302">
        <ele>327.260518</ele>
        <time>2026-05-02T04:46:47.575Z</time>
      </trkpt>
      <trkpt lat="45.936206" lon="8.970348">
        <ele>327.400116</ele>
        <time>2026-05-02T04:46:49.580Z</time>
      </trkpt>
      <trkpt lat="45.936120" lon="8.970387">
        <ele>327.530621</ele>
        <time>2026-05-02T04:46:51.575Z</time>
      </trkpt>
      <trkpt lat="45.936030" lon="8.970421">
        <ele>327.665291</ele>
        <time>2026-05-02T04:46:53.588Z</time>
      </trkpt>
      <trkpt lat="45.935939" lon="8.970439">
        <ele>327.798229</ele>
        <time>2026-05-02T04:46:55.576Z</time>
      </trkpt>
      <trkpt lat="45.935848" lon="8.970446">
        <ele>327.930115</ele>
        <time>2026-05-02T04:46:57.574Z</time>
      </trkpt>
      <trkpt lat="45.935757" lon="8.970438">
        <ele>328.062059</ele>
        <time>2026-05-02T04:46:59.576Z</time>
      </trkpt>
      <trkpt lat="45.935664" lon="8.970408">
        <ele>328.199996</ele>
        <time>2026-05-02T04:47:01.569Z</time>
      </trkpt>
      <trkpt lat="45.935567" lon="8.970383">
        <ele>328.342614</ele>
        <time>2026-05-02T04:47:03.568Z</time>
      </trkpt>
      <trkpt lat="45.935477" lon="8.970363">
        <ele>328.474411</ele>
        <time>2026-05-02T04:47:05.575Z</time>
      </trkpt>
      <trkpt lat="45.935386" lon="8.970349">
        <ele>328.606860</ele>
        <time>2026-05-02T04:47:07.575Z</time>
      </trkpt>
      <trkpt lat="45.935287" lon="8.970357">
        <ele>328.750361</ele>
        <time>2026-05-02T04:47:09.586Z</time>
      </trkpt>
      <trkpt lat="45.935191" lon="8.970388">
        <ele>328.892756</ele>
        <time>2026-05-02T04:47:11.573Z</time>
      </trkpt>
      <trkpt lat="45.935092" lon="8.970424">
        <ele>329.040542</ele>
        <time>2026-05-02T04:47:13.572Z</time>
      </trkpt>
      <trkpt lat="45.934996" lon="8.970460">
        <ele>329.184123</ele>
        <time>2026-05-02T04:47:15.573Z</time>
      </trkpt>
      <trkpt lat="45.934908" lon="8.970502">
        <ele>329.313503</ele>
        <time>2026-05-02T04:47:17.572Z</time>
      </trkpt>
      <trkpt lat="45.934818" lon="8.970542">
        <ele>329.333010</ele>
        <time>2026-05-02T04:47:19.575Z</time>
      </trkpt>
      <trkpt lat="45.934731" lon="8.970580">
        <ele>329.351839</ele>
        <time>2026-05-02T04:47:21.572Z</time>
      </trkpt>
      <trkpt lat="45.934609" lon="8.970642">
        <ele>329.378634</ele>
        <time>2026-05-02T04:47:24.580Z</time>
      </trkpt>
      <trkpt lat="45.934492" lon="8.970698">
        <ele>329.404169</ele>
        <time>2026-05-02T04:47:27.574Z</time>
      </trkpt>
      <trkpt lat="45.934369" lon="8.970761">
        <ele>329.431207</ele>
        <time>2026-05-02T04:47:30.573Z</time>
      </trkpt>
      <trkpt lat="45.934250" lon="8.970852">
        <ele>329.459118</ele>
        <time>2026-05-02T04:47:33.573Z</time>
      </trkpt>
      <trkpt lat="45.934144" lon="8.970950">
        <ele>329.485214</ele>
        <time>2026-05-02T04:47:36.574Z</time>
      </trkpt>
      <trkpt lat="45.934044" lon="8.971050">
        <ele>329.510438</ele>
        <time>2026-05-02T04:47:39.578Z</time>
      </trkpt>
      <trkpt lat="45.933973" lon="8.971133">
        <ele>329.529386</ele>
        <time>2026-05-02T04:47:41.578Z</time>
      </trkpt>
      <trkpt lat="45.933903" lon="8.971222">
        <ele>329.548736</ele>
        <time>2026-05-02T04:47:43.577Z</time>
      </trkpt>
      <trkpt lat="45.933837" lon="8.971325">
        <ele>329.568906</ele>
        <time>2026-05-02T04:47:45.572Z</time>
      </trkpt>
      <trkpt lat="45.933774" lon="8.971417">
        <ele>329.587501</ele>
        <time>2026-05-02T04:47:47.575Z</time>
      </trkpt>
      <trkpt lat="45.933708" lon="8.971511">
        <ele>329.606738</ele>
        <time>2026-05-02T04:47:49.573Z</time>
      </trkpt>
      <trkpt lat="45.933638" lon="8.971612">
        <ele>329.627274</ele>
        <time>2026-05-02T04:47:51.568Z</time>
      </trkpt>
      <trkpt lat="45.933576" lon="8.971708">
        <ele>329.646141</ele>
        <time>2026-05-02T04:47:53.585Z</time>
      </trkpt>
      <trkpt lat="45.933512" lon="8.971808">
        <ele>329.665713</ele>
        <time>2026-05-02T04:47:55.584Z</time>
      </trkpt>
      <trkpt lat="45.933446" lon="8.971909">
        <ele>329.683670</ele>
        <time>2026-05-02T04:47:57.577Z</time>
      </trkpt>
      <trkpt lat="45.933382" lon="8.972004">
        <ele>329.628414</ele>
        <time>2026-05-02T04:47:59.585Z</time>
      </trkpt>
      <trkpt lat="45.933316" lon="8.972101">
        <ele>329.571722</ele>
        <time>2026-05-02T04:48:01.574Z</time>
      </trkpt>
      <trkpt lat="45.933248" lon="8.972203">
        <ele>329.512694</ele>
        <time>2026-05-02T04:48:03.579Z</time>
      </trkpt>
      <trkpt lat="45.933183" lon="8.972295">
        <ele>329.457905</ele>
        <time>2026-05-02T04:48:05.576Z</time>
      </trkpt>
      <trkpt lat="45.933092" lon="8.972426">
        <ele>329.380553</ele>
        <time>2026-05-02T04:48:08.573Z</time>
      </trkpt>
      <trkpt lat="45.933028" lon="8.972530">
        <ele>329.322538</ele>
        <time>2026-05-02T04:48:10.577Z</time>
      </trkpt>
      <trkpt lat="45.932961" lon="8.972634">
        <ele>329.263313</ele>
        <time>2026-05-02T04:48:12.582Z</time>
      </trkpt>
      <trkpt lat="45.932894" lon="8.972741">
        <ele>329.203162</ele>
        <time>2026-05-02T04:48:14.581Z</time>
      </trkpt>
      <trkpt lat="45.932826" lon="8.972848">
        <ele>329.142608</ele>
        <time>2026-05-02T04:48:16.575Z</time>
      </trkpt>
      <trkpt lat="45.932758" lon="8.972949">
        <ele>329.083880</ele>
        <time>2026-05-02T04:48:18.581Z</time>
      </trkpt>
      <trkpt lat="45.932693" lon="8.973044">
        <ele>329.028205</ele>
        <time>2026-05-02T04:48:20.571Z</time>
      </trkpt>
      <trkpt lat="45.932623" lon="8.973151">
        <ele>328.966834</ele>
        <time>2026-05-02T04:48:22.572Z</time>
      </trkpt>
      <trkpt lat="45.932555" lon="8.973248">
        <ele>328.909295</ele>
        <time>2026-05-02T04:48:24.579Z</time>
      </trkpt>
      <trkpt lat="45.932484" lon="8.973359">
        <ele>328.846291</ele>
        <time>2026-05-02T04:48:26.579Z</time>
      </trkpt>
      <trkpt lat="45.932413" lon="8.973468">
        <ele>328.783899</ele>
        <time>2026-05-02T04:48:28.580Z</time>
      </trkpt>
      <trkpt lat="45.932341" lon="8.973579">
        <ele>328.720487</ele>
        <time>2026-05-02T04:48:30.574Z</time>
      </trkpt>
      <trkpt lat="45.932269" lon="8.973686">
        <ele>328.658287</ele>
        <time>2026-05-02T04:48:32.580Z</time>
      </trkpt>
      <trkpt lat="45.932200" lon="8.973791">
        <ele>328.585590</ele>
        <time>2026-05-02T04:48:34.578Z</time>
      </trkpt>
      <trkpt lat="45.932132" lon="8.973896">
        <ele>328.416738</ele>
        <time>2026-05-02T04:48:36.575Z</time>
      </trkpt>
      <trkpt lat="45.932067" lon="8.974008">
        <ele>328.245063</ele>
        <time>2026-05-02T04:48:38.577Z</time>
      </trkpt>
      <trkpt lat="45.931997" lon="8.974109">
        <ele>328.077254</ele>
        <time>2026-05-02T04:48:40.578Z</time>
      </trkpt>
      <trkpt lat="45.931930" lon="8.974207">
        <ele>327.915525</ele>
        <time>2026-05-02T04:48:42.578Z</time>
      </trkpt>
      <trkpt lat="45.931862" lon="8.974312">
        <ele>327.746674</ele>
        <time>2026-05-02T04:48:44.575Z</time>
      </trkpt>
      <trkpt lat="45.931791" lon="8.974421">
        <ele>327.570916</ele>
        <time>2026-05-02T04:48:46.583Z</time>
      </trkpt>
      <trkpt lat="45.931723" lon="8.974530">
        <ele>327.398589</ele>
        <time>2026-05-02T04:48:48.583Z</time>
      </trkpt>
      <trkpt lat="45.931655" lon="8.974642">
        <ele>327.223617</ele>
        <time>2026-05-02T04:48:50.586Z</time>
      </trkpt>
      <trkpt lat="45.931585" lon="8.974754">
        <ele>327.046402</ele>
        <time>2026-05-02T04:48:52.578Z</time>
      </trkpt>
      <trkpt lat="45.931517" lon="8.974857">
        <ele>326.879264</ele>
        <time>2026-05-02T04:48:54.580Z</time>
      </trkpt>
      <trkpt lat="45.931451" lon="8.974971">
        <ele>326.704696</ele>
        <time>2026-05-02T04:48:56.572Z</time>
      </trkpt>
      <trkpt lat="45.931439" lon="8.975120">
        <ele>326.528164</ele>
        <time>2026-05-02T04:48:59.578Z</time>
      </trkpt>
      <trkpt lat="45.931395" lon="8.975235">
        <ele>326.373691</ele>
        <time>2026-05-02T04:49:01.573Z</time>
      </trkpt>
      <trkpt lat="45.931327" lon="8.975333">
        <ele>326.210771</ele>
        <time>2026-05-02T04:49:03.574Z</time>
      </trkpt>
      <trkpt lat="45.931257" lon="8.975435">
        <ele>326.042125</ele>
        <time>2026-05-02T04:49:05.580Z</time>
      </trkpt>
      <trkpt lat="45.931185" lon="8.975537">
        <ele>325.871085</ele>
        <time>2026-05-02T04:49:07.580Z</time>
      </trkpt>
      <trkpt lat="45.931111" lon="8.975645">
        <ele>325.692659</ele>
        <time>2026-05-02T04:49:09.582Z</time>
      </trkpt>
      <trkpt lat="45.931037" lon="8.975750">
        <ele>325.555199</ele>
        <time>2026-05-02T04:49:11.574Z</time>
      </trkpt>
      <trkpt lat="45.930959" lon="8.975855">
        <ele>325.530909</ele>
        <time>2026-05-02T04:49:13.581Z</time>
      </trkpt>
      <trkpt lat="45.930883" lon="8.975962">
        <ele>325.506728</ele>
        <time>2026-05-02T04:49:15.579Z</time>
      </trkpt>
      <trkpt lat="45.930808" lon="8.976072">
        <ele>325.482373</ele>
        <time>2026-05-02T04:49:17.582Z</time>
      </trkpt>
      <trkpt lat="45.930736" lon="8.976180">
        <ele>325.458720</ele>
        <time>2026-05-02T04:49:19.580Z</time>
      </trkpt>
      <trkpt lat="45.930665" lon="8.976285">
        <ele>325.435566</ele>
        <time>2026-05-02T04:49:21.584Z</time>
      </trkpt>
      <trkpt lat="45.930593" lon="8.976394">
        <ele>325.411798</ele>
        <time>2026-05-02T04:49:23.580Z</time>
      </trkpt>
      <trkpt lat="45.930522" lon="8.976495">
        <ele>325.389093</ele>
        <time>2026-05-02T04:49:25.579Z</time>
      </trkpt>
      <trkpt lat="45.930450" lon="8.976602">
        <ele>325.365553</ele>
        <time>2026-05-02T04:49:27.579Z</time>
      </trkpt>
      <trkpt lat="45.930382" lon="8.976721">
        <ele>325.341202</ele>
        <time>2026-05-02T04:49:29.580Z</time>
      </trkpt>
      <trkpt lat="45.930312" lon="8.976817">
        <ele>325.319211</ele>
        <time>2026-05-02T04:49:31.579Z</time>
      </trkpt>
      <trkpt lat="45.930236" lon="8.976912">
        <ele>325.296318</ele>
        <time>2026-05-02T04:49:33.578Z</time>
      </trkpt>
      <trkpt lat="45.930157" lon="8.976989">
        <ele>325.274621</ele>
        <time>2026-05-02T04:49:35.577Z</time>
      </trkpt>
      <trkpt lat="45.930064" lon="8.977039">
        <ele>325.252050</ele>
        <time>2026-05-02T04:49:37.577Z</time>
      </trkpt>
      <trkpt lat="45.929969" lon="8.977147">
        <ele>325.224519</ele>
        <time>2026-05-02T04:49:40.575Z</time>
      </trkpt>
      <trkpt lat="45.929894" lon="8.977238">
        <ele>325.202209</ele>
        <time>2026-05-02T04:49:42.571Z</time>
      </trkpt>
      <trkpt lat="45.929776" lon="8.977323">
        <ele>325.172206</ele>
        <time>2026-05-02T04:49:45.576Z</time>
      </trkpt>
      <trkpt lat="45.929755" lon="8.977468">
        <ele>325.199402</ele>
        <time>2026-05-02T04:49:47.577Z</time>
      </trkpt>
      <trkpt lat="45.929672" lon="8.977590">
        <ele>325.562232</ele>
        <time>2026-05-02T04:49:50.573Z</time>
      </trkpt>
      <trkpt lat="45.929610" lon="8.977685">
        <ele>325.839200</ele>
        <time>2026-05-02T04:49:52.574Z</time>
      </trkpt>
      <trkpt lat="45.929519" lon="8.977810">
        <ele>326.223911</ele>
        <time>2026-05-02T04:49:55.582Z</time>
      </trkpt>
      <trkpt lat="45.929436" lon="8.977917">
        <ele>326.564674</ele>
        <time>2026-05-02T04:49:58.581Z</time>
      </trkpt>
      <trkpt lat="45.929354" lon="8.978014">
        <ele>326.889261</ele>
        <time>2026-05-02T04:50:01.575Z</time>
      </trkpt>
      <trkpt lat="45.929276" lon="8.978107">
        <ele>327.199006</ele>
        <time>2026-05-02T04:50:04.583Z</time>
      </trkpt>
      <trkpt lat="45.929200" lon="8.978193">
        <ele>327.494641</ele>
        <time>2026-05-02T04:50:07.581Z</time>
      </trkpt>
      <trkpt lat="45.929123" lon="8.978278">
        <ele>327.791384</ele>
        <time>2026-05-02T04:50:10.579Z</time>
      </trkpt>
      <trkpt lat="45.929048" lon="8.978362">
        <ele>328.081991</ele>
        <time>2026-05-02T04:50:13.575Z</time>
      </trkpt>
      <trkpt lat="45.928978" lon="8.978449">
        <ele>328.364830</ele>
        <time>2026-05-02T04:50:16.579Z</time>
      </trkpt>
      <trkpt lat="45.928906" lon="8.978532">
        <ele>328.646924</ele>
        <time>2026-05-02T04:50:19.575Z</time>
      </trkpt>
      <trkpt lat="45.928830" lon="8.978612">
        <ele>328.934845</ele>
        <time>2026-05-02T04:50:22.594Z</time>
      </trkpt>
      <trkpt lat="45.928755" lon="8.978693">
        <ele>329.221577</ele>
        <time>2026-05-02T04:50:25.580Z</time>
      </trkpt>
      <trkpt lat="45.928682" lon="8.978782">
        <ele>329.514147</ele>
        <time>2026-05-02T04:50:28.575Z</time>
      </trkpt>
      <trkpt lat="45.928608" lon="8.978869">
        <ele>329.806345</ele>
        <time>2026-05-02T04:50:31.584Z</time>
      </trkpt>
      <trkpt lat="45.928533" lon="8.978956">
        <ele>330.100916</ele>
        <time>2026-05-02T04:50:34.584Z</time>
      </trkpt>
      <trkpt lat="45.928456" lon="8.979041">
        <ele>330.397661</ele>
        <time>2026-05-02T04:50:37.585Z</time>
      </trkpt>
      <trkpt lat="45.928379" lon="8.979128">
        <ele>330.698129</ele>
        <time>2026-05-02T04:50:40.579Z</time>
      </trkpt>
      <trkpt lat="45.928303" lon="8.979216">
        <ele>331.003519</ele>
        <time>2026-05-02T04:50:43.578Z</time>
      </trkpt>
      <trkpt lat="45.928224" lon="8.979308">
        <ele>331.321684</ele>
        <time>2026-05-02T04:50:46.576Z</time>
      </trkpt>
      <trkpt lat="45.928148" lon="8.979406">
        <ele>331.641179</ele>
        <time>2026-05-02T04:50:49.580Z</time>
      </trkpt>
      <trkpt lat="45.928068" lon="8.979496">
        <ele>331.959081</ele>
        <time>2026-05-02T04:50:52.581Z</time>
      </trkpt>
      <trkpt lat="45.927995" lon="8.979573">
        <ele>332.242428</ele>
        <time>2026-05-02T04:50:55.581Z</time>
      </trkpt>
      <trkpt lat="45.927920" lon="8.979657">
        <ele>332.539959</ele>
        <time>2026-05-02T04:50:58.582Z</time>
      </trkpt>
      <trkpt lat="45.927845" lon="8.979746">
        <ele>332.844300</ele>
        <time>2026-05-02T04:51:01.575Z</time>
      </trkpt>
      <trkpt lat="45.927771" lon="8.979834">
        <ele>333.144843</ele>
        <time>2026-05-02T04:51:04.579Z</time>
      </trkpt>
      <trkpt lat="45.927681" lon="8.979940">
        <ele>333.508947</ele>
        <time>2026-05-02T04:51:08.572Z</time>
      </trkpt>
      <trkpt lat="45.927605" lon="8.980024">
        <ele>333.808954</ele>
        <time>2026-05-02T04:51:11.578Z</time>
      </trkpt>
      <trkpt lat="45.927530" lon="8.980112">
        <ele>334.111915</ele>
        <time>2026-05-02T04:51:14.578Z</time>
      </trkpt>
      <trkpt lat="45.927451" lon="8.980199">
        <ele>334.423346</ele>
        <time>2026-05-02T04:51:17.578Z</time>
      </trkpt>
      <trkpt lat="45.927372" lon="8.980287">
        <ele>334.736105</ele>
        <time>2026-05-02T04:51:20.577Z</time>
      </trkpt>
      <trkpt lat="45.927296" lon="8.980376">
        <ele>335.042868</ele>
        <time>2026-05-02T04:51:23.576Z</time>
      </trkpt>
      <trkpt lat="45.927216" lon="8.980459">
        <ele>335.351615</ele>
        <time>2026-05-02T04:51:26.583Z</time>
      </trkpt>
      <trkpt lat="45.927137" lon="8.980541">
        <ele>335.656550</ele>
        <time>2026-05-02T04:51:29.579Z</time>
      </trkpt>
      <trkpt lat="45.927058" lon="8.980627">
        <ele>335.966663</ele>
        <time>2026-05-02T04:51:32.582Z</time>
      </trkpt>
      <trkpt lat="45.926981" lon="8.980717">
        <ele>336.277228</ele>
        <time>2026-05-02T04:51:35.582Z</time>
      </trkpt>
      <trkpt lat="45.926903" lon="8.980811">
        <ele>336.440334</ele>
        <time>2026-05-02T04:51:38.575Z</time>
      </trkpt>
      <trkpt lat="45.926824" lon="8.980906">
        <ele>336.604434</ele>
        <time>2026-05-02T04:51:41.573Z</time>
      </trkpt>
      <trkpt lat="45.926747" lon="8.981004">
        <ele>336.768288</ele>
        <time>2026-05-02T04:51:44.576Z</time>
      </trkpt>
      <trkpt lat="45.926676" lon="8.981087">
        <ele>336.914093</ele>
        <time>2026-05-02T04:51:47.582Z</time>
      </trkpt>
      <trkpt lat="45.926601" lon="8.981171">
        <ele>337.065575</ele>
        <time>2026-05-02T04:51:50.574Z</time>
      </trkpt>
      <trkpt lat="45.926526" lon="8.981268">
        <ele>337.226314</ele>
        <time>2026-05-02T04:51:53.580Z</time>
      </trkpt>
      <trkpt lat="45.926443" lon="8.981359">
        <ele>337.392628</ele>
        <time>2026-05-02T04:51:56.573Z</time>
      </trkpt>
      <trkpt lat="45.926359" lon="8.981448">
        <ele>337.558887</ele>
        <time>2026-05-02T04:51:59.577Z</time>
      </trkpt>
      <trkpt lat="45.926279" lon="8.981542">
        <ele>337.723510</ele>
        <time>2026-05-02T04:52:02.576Z</time>
      </trkpt>
      <trkpt lat="45.926194" lon="8.981639">
        <ele>337.896423</ele>
        <time>2026-05-02T04:52:05.579Z</time>
      </trkpt>
      <trkpt lat="45.926111" lon="8.981734">
        <ele>338.065463</ele>
        <time>2026-05-02T04:52:08.576Z</time>
      </trkpt>
      <trkpt lat="45.926024" lon="8.981836">
        <ele>338.244333</ele>
        <time>2026-05-02T04:52:11.572Z</time>
      </trkpt>
      <trkpt lat="45.925934" lon="8.981944">
        <ele>338.431122</ele>
        <time>2026-05-02T04:52:14.576Z</time>
      </trkpt>
      <trkpt lat="45.925845" lon="8.982050">
        <ele>338.615269</ele>
        <time>2026-05-02T04:52:17.571Z</time>
      </trkpt>
      <trkpt lat="45.925750" lon="8.982150">
        <ele>338.802872</ele>
        <time>2026-05-02T04:52:20.578Z</time>
      </trkpt>
      <trkpt lat="45.925655" lon="8.982249">
        <ele>338.989822</ele>
        <time>2026-05-02T04:52:23.579Z</time>
      </trkpt>
      <trkpt lat="45.925559" lon="8.982349">
        <ele>339.127951</ele>
        <time>2026-05-02T04:52:26.576Z</time>
      </trkpt>
      <trkpt lat="45.925468" lon="8.982447">
        <ele>339.036705</ele>
        <time>2026-05-02T04:52:29.575Z</time>
      </trkpt>
      <trkpt lat="45.925374" lon="8.982557">
        <ele>338.939437</ele>
        <time>2026-05-02T04:52:32.576Z</time>
      </trkpt>
      <trkpt lat="45.925274" lon="8.982665">
        <ele>338.839063</ele>
        <time>2026-05-02T04:52:35.582Z</time>
      </trkpt>
      <trkpt lat="45.925171" lon="8.982778">
        <ele>338.735086</ele>
        <time>2026-05-02T04:52:38.574Z</time>
      </trkpt>
      <trkpt lat="45.925074" lon="8.982883">
        <ele>338.637643</ele>
        <time>2026-05-02T04:52:41.580Z</time>
      </trkpt>
      <trkpt lat="45.924977" lon="8.982989">
        <ele>338.539863</ele>
        <time>2026-05-02T04:52:44.580Z</time>
      </trkpt>
      <trkpt lat="45.924881" lon="8.983100">
        <ele>338.440996</ele>
        <time>2026-05-02T04:52:47.573Z</time>
      </trkpt>
      <trkpt lat="45.924789" lon="8.983223">
        <ele>338.340172</ele>
        <time>2026-05-02T04:52:50.576Z</time>
      </trkpt>
      <trkpt lat="45.924707" lon="8.983367">
        <ele>338.236287</ele>
        <time>2026-05-02T04:52:53.579Z</time>
      </trkpt>
      <trkpt lat="45.924641" lon="8.983522">
        <ele>338.134837</ele>
        <time>2026-05-02T04:52:56.575Z</time>
      </trkpt>
      <trkpt lat="45.924574" lon="8.983685">
        <ele>338.029147</ele>
        <time>2026-05-02T04:52:59.582Z</time>
      </trkpt>
      <trkpt lat="45.924526" lon="8.983795">
        <ele>337.956660</ele>
        <time>2026-05-02T04:53:01.579Z</time>
      </trkpt>
      <trkpt lat="45.924478" lon="8.983907">
        <ele>337.883224</ele>
        <time>2026-05-02T04:53:03.573Z</time>
      </trkpt>
      <trkpt lat="45.924428" lon="8.984023">
        <ele>337.807045</ele>
        <time>2026-05-02T04:53:05.585Z</time>
      </trkpt>
      <trkpt lat="45.924378" lon="8.984142">
        <ele>337.729438</ele>
        <time>2026-05-02T04:53:07.576Z</time>
      </trkpt>
      <trkpt lat="45.924310" lon="8.984311">
        <ele>337.637392</ele>
        <time>2026-05-02T04:53:10.576Z</time>
      </trkpt>
      <trkpt lat="45.924238" lon="8.984469">
        <ele>337.553984</ele>
        <time>2026-05-02T04:53:13.576Z</time>
      </trkpt>
      <trkpt lat="45.924170" lon="8.984617">
        <ele>337.475660</ele>
        <time>2026-05-02T04:53:16.577Z</time>
      </trkpt>
      <trkpt lat="45.924114" lon="8.984765">
        <ele>337.401263</ele>
        <time>2026-05-02T04:53:19.577Z</time>
      </trkpt>
      <trkpt lat="45.924056" lon="8.984888">
        <ele>337.335644</ele>
        <time>2026-05-02T04:53:22.570Z</time>
      </trkpt>
      <trkpt lat="45.923991" lon="8.985011">
        <ele>337.267433</ele>
        <time>2026-05-02T04:53:25.576Z</time>
      </trkpt>
      <trkpt lat="45.923917" lon="8.985089">
        <ele>337.209183</ele>
        <time>2026-05-02T04:53:27.575Z</time>
      </trkpt>
      <trkpt lat="45.923834" lon="8.985153">
        <ele>337.149392</ele>
        <time>2026-05-02T04:53:29.582Z</time>
      </trkpt>
      <trkpt lat="45.923747" lon="8.985220">
        <ele>337.086738</ele>
        <time>2026-05-02T04:53:31.574Z</time>
      </trkpt>
      <trkpt lat="45.923662" lon="8.985283">
        <ele>337.026029</ele>
        <time>2026-05-02T04:53:33.573Z</time>
      </trkpt>
      <trkpt lat="45.923569" lon="8.985321">
        <ele>336.964653</ele>
        <time>2026-05-02T04:53:35.577Z</time>
      </trkpt>
      <trkpt lat="45.923478" lon="8.985348">
        <ele>336.905667</ele>
        <time>2026-05-02T04:53:37.583Z</time>
      </trkpt>
      <trkpt lat="45.923393" lon="8.985396">
        <ele>336.847694</ele>
        <time>2026-05-02T04:53:39.574Z</time>
      </trkpt>
      <trkpt lat="45.923268" lon="8.985449">
        <ele>336.764962</ele>
        <time>2026-05-02T04:53:42.572Z</time>
      </trkpt>
      <trkpt lat="45.923142" lon="8.985508">
        <ele>336.680839</ele>
        <time>2026-05-02T04:53:45.579Z</time>
      </trkpt>
      <trkpt lat="45.923019" lon="8.985559">
        <ele>336.599574</ele>
        <time>2026-05-02T04:53:48.574Z</time>
      </trkpt>
      <trkpt lat="45.922905" lon="8.985603">
        <ele>336.667619</ele>
        <time>2026-05-02T04:53:51.571Z</time>
      </trkpt>
      <trkpt lat="45.922801" lon="8.985644">
        <ele>336.878190</ele>
        <time>2026-05-02T04:53:54.577Z</time>
      </trkpt>
      <trkpt lat="45.922700" lon="8.985687">
        <ele>337.083873</ele>
        <time>2026-05-02T04:53:57.572Z</time>
      </trkpt>
      <trkpt lat="45.922597" lon="8.985733">
        <ele>337.294476</ele>
        <time>2026-05-02T04:54:00.573Z</time>
      </trkpt>
      <trkpt lat="45.922501" lon="8.985773">
        <ele>337.489644</ele>
        <time>2026-05-02T04:54:03.576Z</time>
      </trkpt>
      <trkpt lat="45.922412" lon="8.985805">
        <ele>337.668782</ele>
        <time>2026-05-02T04:54:06.573Z</time>
      </trkpt>
      <trkpt lat="45.922320" lon="8.985845">
        <ele>337.856460</ele>
        <time>2026-05-02T04:54:09.567Z</time>
      </trkpt>
      <trkpt lat="45.922219" lon="8.985880">
        <ele>338.059325</ele>
        <time>2026-05-02T04:54:12.584Z</time>
      </trkpt>
      <trkpt lat="45.922118" lon="8.985928">
        <ele>338.267039</ele>
        <time>2026-05-02T04:54:15.577Z</time>
      </trkpt>
      <trkpt lat="45.922017" lon="8.985972">
        <ele>338.473112</ele>
        <time>2026-05-02T04:54:18.573Z</time>
      </trkpt>
      <trkpt lat="45.921916" lon="8.986007">
        <ele>338.675977</ele>
        <time>2026-05-02T04:54:21.582Z</time>
      </trkpt>
      <trkpt lat="45.921816" lon="8.986063">
        <ele>338.885533</ele>
        <time>2026-05-02T04:54:24.573Z</time>
      </trkpt>
      <trkpt lat="45.921721" lon="8.986111">
        <ele>339.082158</ele>
        <time>2026-05-02T04:54:27.573Z</time>
      </trkpt>
      <trkpt lat="45.921606" lon="8.986161">
        <ele>339.316756</ele>
        <time>2026-05-02T04:54:31.580Z</time>
      </trkpt>
      <trkpt lat="45.921517" lon="8.986192">
        <ele>339.495569</ele>
        <time>2026-05-02T04:54:34.572Z</time>
      </trkpt>
      <trkpt lat="45.921428" lon="8.986230">
        <ele>339.676857</ele>
        <time>2026-05-02T04:54:37.572Z</time>
      </trkpt>
      <trkpt lat="45.921338" lon="8.986249">
        <ele>339.854479</ele>
        <time>2026-05-02T04:54:40.580Z</time>
      </trkpt>
      <trkpt lat="45.921249" lon="8.986279">
        <ele>340.032977</ele>
        <time>2026-05-02T04:54:43.579Z</time>
      </trkpt>
      <trkpt lat="45.921148" lon="8.986303">
        <ele>339.860767</ele>
        <time>2026-05-02T04:54:47.578Z</time>
      </trkpt>
      <trkpt lat="45.920855" lon="8.986369">
        <ele>339.101959</ele>
        <time>2026-05-02T04:55:42.572Z</time>
      </trkpt>
      <trkpt lat="45.920741" lon="8.986355">
        <ele>338.809220</ele>
        <time>2026-05-02T04:55:45.578Z</time>
      </trkpt>
      <trkpt lat="45.920620" lon="8.986341">
        <ele>338.498632</ele>
        <time>2026-05-02T04:55:48.573Z</time>
      </trkpt>
      <trkpt lat="45.920490" lon="8.986313">
        <ele>338.162306</ele>
        <time>2026-05-02T04:55:51.578Z</time>
      </trkpt>
      <trkpt lat="45.920347" lon="8.986298">
        <ele>337.795458</ele>
        <time>2026-05-02T04:55:54.576Z</time>
      </trkpt>
      <trkpt lat="45.920245" lon="8.986316">
        <ele>337.532525</ele>
        <time>2026-05-02T04:55:56.579Z</time>
      </trkpt>
      <trkpt lat="45.920121" lon="8.986333">
        <ele>337.213823</ele>
        <time>2026-05-02T04:55:58.576Z</time>
      </trkpt>
      <trkpt lat="45.919998" lon="8.986352">
        <ele>336.897308</ele>
        <time>2026-05-02T04:56:00.573Z</time>
      </trkpt>
      <trkpt lat="45.919867" lon="8.986375">
        <ele>336.559645</ele>
        <time>2026-05-02T04:56:02.575Z</time>
      </trkpt>
      <trkpt lat="45.919743" lon="8.986382">
        <ele>336.242138</ele>
        <time>2026-05-02T04:56:04.579Z</time>
      </trkpt>
      <trkpt lat="45.919613" lon="8.986369">
        <ele>335.908721</ele>
        <time>2026-05-02T04:56:06.583Z</time>
      </trkpt>
      <trkpt lat="45.919488" lon="8.986343">
        <ele>335.585569</ele>
        <time>2026-05-02T04:56:08.583Z</time>
      </trkpt>
      <trkpt lat="45.919378" lon="8.986283">
        <ele>335.286200</ele>
        <time>2026-05-02T04:56:10.575Z</time>
      </trkpt>
      <trkpt lat="45.919280" lon="8.986213">
        <ele>335.008709</ele>
        <time>2026-05-02T04:56:12.576Z</time>
      </trkpt>
      <trkpt lat="45.919192" lon="8.986153">
        <ele>334.761734</ele>
        <time>2026-05-02T04:56:14.580Z</time>
      </trkpt>
      <trkpt lat="45.919108" lon="8.986102">
        <ele>334.530512</ele>
        <time>2026-05-02T04:56:16.581Z</time>
      </trkpt>
      <trkpt lat="45.919004" lon="8.986041">
        <ele>334.245686</ele>
        <time>2026-05-02T04:56:19.577Z</time>
      </trkpt>
      <trkpt lat="45.918937" lon="8.985955">
        <ele>334.017916</ele>
        <time>2026-05-02T04:56:29.572Z</time>
      </trkpt>
      <trkpt lat="45.919004" lon="8.985837">
        <ele>333.749227</ele>
        <time>2026-05-02T04:56:36.587Z</time>
      </trkpt>
      <trkpt lat="45.919023" lon="8.985692">
        <ele>333.488942</ele>
        <time>2026-05-02T04:56:39.581Z</time>
      </trkpt>
      <trkpt lat="45.919039" lon="8.985544">
        <ele>333.224729</ele>
        <time>2026-05-02T04:56:42.578Z</time>
      </trkpt>
      <trkpt lat="45.919092" lon="8.985428">
        <ele>332.979913</ele>
        <time>2026-05-02T04:56:48.576Z</time>
      </trkpt>
      <trkpt lat="45.919037" lon="8.985212">
        <ele>332.574158</ele>
        <time>2026-05-02T04:57:33.579Z</time>
      </trkpt>
      <trkpt lat="45.918956" lon="8.985105">
        <ele>332.295205</ele>
        <time>2026-05-02T04:57:38.581Z</time>
      </trkpt>
      <trkpt lat="45.918846" lon="8.985129">
        <ele>332.013079</ele>
        <time>2026-05-02T04:57:41.577Z</time>
      </trkpt>
      <trkpt lat="45.918733" lon="8.985141">
        <ele>331.725760</ele>
        <time>2026-05-02T04:57:44.585Z</time>
      </trkpt>
      <trkpt lat="45.918612" lon="8.985164">
        <ele>331.416264</ele>
        <time>2026-05-02T04:57:47.579Z</time>
      </trkpt>
      <trkpt lat="45.918488" lon="8.985182">
        <ele>331.100234</ele>
        <time>2026-05-02T04:57:50.578Z</time>
      </trkpt>
      <trkpt lat="45.918365" lon="8.985197">
        <ele>330.919371</ele>
        <time>2026-05-02T04:57:53.577Z</time>
      </trkpt>
      <trkpt lat="45.918235" lon="8.985211">
        <ele>330.947597</ele>
        <time>2026-05-02T04:57:56.576Z</time>
      </trkpt>
      <trkpt lat="45.918107" lon="8.985226">
        <ele>330.975404</ele>
        <time>2026-05-02T04:57:59.576Z</time>
      </trkpt>
      <trkpt lat="45.917977" lon="8.985240">
        <ele>331.003631</ele>
        <time>2026-05-02T04:58:02.576Z</time>
      </trkpt>
      <trkpt lat="45.917847" lon="8.985250">
        <ele>331.031819</ele>
        <time>2026-05-02T04:58:05.574Z</time>
      </trkpt>
      <trkpt lat="45.917749" lon="8.985276">
        <ele>331.053396</ele>
        <time>2026-05-02T04:58:07.583Z</time>
      </trkpt>
      <trkpt lat="45.917618" lon="8.985286">
        <ele>331.081801</ele>
        <time>2026-05-02T04:58:10.572Z</time>
      </trkpt>
      <trkpt lat="45.917519" lon="8.985273">
        <ele>331.103326</ele>
        <time>2026-05-02T04:58:12.581Z</time>
      </trkpt>
      <trkpt lat="45.917385" lon="8.985264">
        <ele>331.132371</ele>
        <time>2026-05-02T04:58:15.581Z</time>
      </trkpt>
      <trkpt lat="45.917293" lon="8.985246">
        <ele>331.152475</ele>
        <time>2026-05-02T04:58:17.580Z</time>
      </trkpt>
      <trkpt lat="45.917198" lon="8.985223">
        <ele>331.173334</ele>
        <time>2026-05-02T04:58:19.580Z</time>
      </trkpt>
      <trkpt lat="45.917108" lon="8.985202">
        <ele>331.193076</ele>
        <time>2026-05-02T04:58:21.580Z</time>
      </trkpt>
      <trkpt lat="45.917019" lon="8.985168">
        <ele>331.213016</ele>
        <time>2026-05-02T04:58:23.579Z</time>
      </trkpt>
      <trkpt lat="45.916889" lon="8.985120">
        <ele>331.242077</ele>
        <time>2026-05-02T04:58:26.581Z</time>
      </trkpt>
      <trkpt lat="45.916801" lon="8.985086">
        <ele>331.261807</ele>
        <time>2026-05-02T04:58:28.577Z</time>
      </trkpt>
      <trkpt lat="45.916714" lon="8.985022">
        <ele>331.282968</ele>
        <time>2026-05-02T04:58:30.579Z</time>
      </trkpt>
      <trkpt lat="45.916624" lon="8.984960">
        <ele>331.279866</ele>
        <time>2026-05-02T04:58:32.576Z</time>
      </trkpt>
      <trkpt lat="45.916537" lon="8.984896">
        <ele>331.216113</ele>
        <time>2026-05-02T04:58:34.578Z</time>
      </trkpt>
      <trkpt lat="45.916456" lon="8.984820">
        <ele>331.153014</ele>
        <time>2026-05-02T04:58:36.571Z</time>
      </trkpt>
      <trkpt lat="45.916337" lon="8.984727">
        <ele>331.064656</ele>
        <time>2026-05-02T04:58:39.577Z</time>
      </trkpt>
      <trkpt lat="45.916224" lon="8.984641">
        <ele>330.981249</ele>
        <time>2026-05-02T04:58:42.582Z</time>
      </trkpt>
      <trkpt lat="45.916117" lon="8.984555">
        <ele>330.901280</ele>
        <time>2026-05-02T04:58:45.575Z</time>
      </trkpt>
      <trkpt lat="45.916013" lon="8.984468">
        <ele>330.822785</ele>
        <time>2026-05-02T04:58:48.578Z</time>
      </trkpt>
      <trkpt lat="45.915903" lon="8.984402">
        <ele>330.745030</ele>
        <time>2026-05-02T04:58:51.582Z</time>
      </trkpt>
      <trkpt lat="45.915792" lon="8.984338">
        <ele>330.667014</ele>
        <time>2026-05-02T04:58:54.581Z</time>
      </trkpt>
      <trkpt lat="45.915677" lon="8.984294">
        <ele>330.589385</ele>
        <time>2026-05-02T04:58:57.580Z</time>
      </trkpt>
      <trkpt lat="45.915545" lon="8.984272">
        <ele>330.502701</ele>
        <time>2026-05-02T04:59:00.581Z</time>
      </trkpt>
      <trkpt lat="45.915455" lon="8.984257">
        <ele>330.443599</ele>
        <time>2026-05-02T04:59:02.582Z</time>
      </trkpt>
      <trkpt lat="45.915351" lon="8.984254">
        <ele>330.375744</ele>
        <time>2026-05-02T04:59:04.580Z</time>
      </trkpt>
      <trkpt lat="45.915239" lon="8.984253">
        <ele>330.302683</ele>
        <time>2026-05-02T04:59:06.580Z</time>
      </trkpt>
      <trkpt lat="45.915123" lon="8.984251">
        <ele>330.227008</ele>
        <time>2026-05-02T04:59:08.581Z</time>
      </trkpt>
      <trkpt lat="45.914997" lon="8.984243">
        <ele>330.144735</ele>
        <time>2026-05-02T04:59:10.580Z</time>
      </trkpt>
      <trkpt lat="45.914867" lon="8.984253">
        <ele>329.882941</ele>
        <time>2026-05-02T04:59:12.580Z</time>
      </trkpt>
      <trkpt lat="45.914731" lon="8.984254">
        <ele>329.553979</ele>
        <time>2026-05-02T04:59:14.580Z</time>
      </trkpt>
      <trkpt lat="45.914591" lon="8.984254">
        <ele>329.215346</ele>
        <time>2026-05-02T04:59:16.579Z</time>
      </trkpt>
      <trkpt lat="45.914447" lon="8.984247">
        <ele>328.866838</ele>
        <time>2026-05-02T04:59:18.579Z</time>
      </trkpt>
      <trkpt lat="45.914299" lon="8.984234">
        <ele>328.508187</ele>
        <time>2026-05-02T04:59:20.579Z</time>
      </trkpt>
      <trkpt lat="45.914154" lon="8.984212">
        <ele>328.155511</ele>
        <time>2026-05-02T04:59:22.586Z</time>
      </trkpt>
      <trkpt lat="45.914014" lon="8.984188">
        <ele>327.814478</ele>
        <time>2026-05-02T04:59:24.584Z</time>
      </trkpt>
      <trkpt lat="45.913873" lon="8.984167">
        <ele>327.471600</ele>
        <time>2026-05-02T04:59:26.578Z</time>
      </trkpt>
      <trkpt lat="45.913741" lon="8.984130">
        <ele>327.146303</ele>
        <time>2026-05-02T04:59:28.587Z</time>
      </trkpt>
      <trkpt lat="45.913615" lon="8.984080">
        <ele>326.830131</ele>
        <time>2026-05-02T04:59:30.578Z</time>
      </trkpt>
      <trkpt lat="45.913490" lon="8.984034">
        <ele>326.518027</ele>
        <time>2026-05-02T04:59:32.585Z</time>
      </trkpt>
      <trkpt lat="45.913371" lon="8.983988">
        <ele>326.219961</ele>
        <time>2026-05-02T04:59:34.578Z</time>
      </trkpt>
      <trkpt lat="45.913263" lon="8.983936">
        <ele>325.944462</ele>
        <time>2026-05-02T04:59:36.584Z</time>
      </trkpt>
      <trkpt lat="45.913159" lon="8.983885">
        <ele>325.781266</ele>
        <time>2026-05-02T04:59:38.578Z</time>
      </trkpt>
      <trkpt lat="45.913059" lon="8.983837">
        <ele>325.799115</ele>
        <time>2026-05-02T04:59:40.577Z</time>
      </trkpt>
      <trkpt lat="45.912958" lon="8.983779">
        <ele>325.817528</ele>
        <time>2026-05-02T04:59:42.581Z</time>
      </trkpt>
      <trkpt lat="45.912860" lon="8.983721">
        <ele>325.835470</ele>
        <time>2026-05-02T04:59:44.574Z</time>
      </trkpt>
      <trkpt lat="45.912763" lon="8.983661">
        <ele>325.853348</ele>
        <time>2026-05-02T04:59:46.580Z</time>
      </trkpt>
      <trkpt lat="45.912663" lon="8.983597">
        <ele>325.871880</ele>
        <time>2026-05-02T04:59:48.580Z</time>
      </trkpt>
      <trkpt lat="45.912564" lon="8.983536">
        <ele>325.890115</ele>
        <time>2026-05-02T04:59:50.582Z</time>
      </trkpt>
      <trkpt lat="45.912465" lon="8.983474">
        <ele>325.908397</ele>
        <time>2026-05-02T04:59:52.579Z</time>
      </trkpt>
      <trkpt lat="45.912369" lon="8.983408">
        <ele>325.926413</ele>
        <time>2026-05-02T04:59:54.581Z</time>
      </trkpt>
      <trkpt lat="45.912273" lon="8.983347">
        <ele>325.944182</ele>
        <time>2026-05-02T04:59:56.577Z</time>
      </trkpt>
      <trkpt lat="45.912179" lon="8.983283">
        <ele>325.961791</ele>
        <time>2026-05-02T04:59:58.581Z</time>
      </trkpt>
      <trkpt lat="45.912088" lon="8.983220">
        <ele>325.978891</ele>
        <time>2026-05-02T05:00:00.580Z</time>
      </trkpt>
      <trkpt lat="45.911987" lon="8.983158">
        <ele>325.997484</ele>
        <time>2026-05-02T05:00:02.579Z</time>
      </trkpt>
      <trkpt lat="45.911888" lon="8.983102">
        <ele>326.015495</ele>
        <time>2026-05-02T05:00:04.579Z</time>
      </trkpt>
      <trkpt lat="45.911788" lon="8.983039">
        <ele>326.033980</ele>
        <time>2026-05-02T05:00:06.572Z</time>
      </trkpt>
      <trkpt lat="45.911694" lon="8.982995">
        <ele>326.050716</ele>
        <time>2026-05-02T05:00:08.587Z</time>
      </trkpt>
      <trkpt lat="45.911594" lon="8.982930">
        <ele>326.069296</ele>
        <time>2026-05-02T05:00:10.580Z</time>
      </trkpt>
      <trkpt lat="45.911502" lon="8.982870">
        <ele>326.025626</ele>
        <time>2026-05-02T05:00:12.571Z</time>
      </trkpt>
      <trkpt lat="45.911417" lon="8.982808">
        <ele>325.908244</ele>
        <time>2026-05-02T05:00:14.580Z</time>
      </trkpt>
      <trkpt lat="45.911288" lon="8.982744">
        <ele>325.740188</ele>
        <time>2026-05-02T05:00:17.571Z</time>
      </trkpt>
      <trkpt lat="45.911190" lon="8.982703">
        <ele>325.614497</ele>
        <time>2026-05-02T05:00:19.577Z</time>
      </trkpt>
      <trkpt lat="45.911094" lon="8.982664">
        <ele>325.491646</ele>
        <time>2026-05-02T05:00:21.602Z</time>
      </trkpt>
      <trkpt lat="45.910987" lon="8.982635">
        <ele>325.357558</ele>
        <time>2026-05-02T05:00:23.579Z</time>
      </trkpt>
      <trkpt lat="45.910882" lon="8.982606">
        <ele>325.225889</ele>
        <time>2026-05-02T05:00:25.578Z</time>
      </trkpt>
      <trkpt lat="45.910781" lon="8.982580">
        <ele>325.099533</ele>
        <time>2026-05-02T05:00:27.580Z</time>
      </trkpt>
      <trkpt lat="45.910673" lon="8.982556">
        <ele>324.964956</ele>
        <time>2026-05-02T05:00:29.579Z</time>
      </trkpt>
      <trkpt lat="45.910563" lon="8.982539">
        <ele>324.828715</ele>
        <time>2026-05-02T05:00:31.574Z</time>
      </trkpt>
      <trkpt lat="45.910458" lon="8.982522">
        <ele>324.698594</ele>
        <time>2026-05-02T05:00:33.578Z</time>
      </trkpt>
      <trkpt lat="45.910356" lon="8.982519">
        <ele>324.572960</ele>
        <time>2026-05-02T05:00:35.575Z</time>
      </trkpt>
      <trkpt lat="45.910248" lon="8.982515">
        <ele>324.439919</ele>
        <time>2026-05-02T05:00:37.578Z</time>
      </trkpt>
      <trkpt lat="45.910137" lon="8.982521">
        <ele>324.303131</ele>
        <time>2026-05-02T05:00:39.583Z</time>
      </trkpt>
      <trkpt lat="45.910030" lon="8.982515">
        <ele>324.171265</ele>
        <time>2026-05-02T05:00:41.577Z</time>
      </trkpt>
      <trkpt lat="45.909921" lon="8.982509">
        <ele>324.036938</ele>
        <time>2026-05-02T05:00:43.583Z</time>
      </trkpt>
      <trkpt lat="45.909816" lon="8.982517">
        <ele>323.907454</ele>
        <time>2026-05-02T05:00:45.583Z</time>
      </trkpt>
      <trkpt lat="45.909714" lon="8.982511">
        <ele>323.862709</ele>
        <time>2026-05-02T05:00:47.579Z</time>
      </trkpt>
      <trkpt lat="45.909609" lon="8.982501">
        <ele>323.860507</ele>
        <time>2026-05-02T05:00:49.581Z</time>
      </trkpt>
      <trkpt lat="45.909504" lon="8.982508">
        <ele>323.858307</ele>
        <time>2026-05-02T05:00:51.584Z</time>
      </trkpt>
      <trkpt lat="45.909392" lon="8.982509">
        <ele>323.855963</ele>
        <time>2026-05-02T05:00:53.580Z</time>
      </trkpt>
      <trkpt lat="45.909281" lon="8.982515">
        <ele>323.853638</ele>
        <time>2026-05-02T05:00:55.580Z</time>
      </trkpt>
      <trkpt lat="45.909165" lon="8.982521">
        <ele>323.851208</ele>
        <time>2026-05-02T05:00:57.574Z</time>
      </trkpt>
      <trkpt lat="45.909063" lon="8.982521">
        <ele>323.849074</ele>
        <time>2026-05-02T05:00:59.588Z</time>
      </trkpt>
      <trkpt lat="45.908951" lon="8.982516">
        <ele>323.846729</ele>
        <time>2026-05-02T05:01:01.581Z</time>
      </trkpt>
      <trkpt lat="45.908843" lon="8.982503">
        <ele>323.844460</ele>
        <time>2026-05-02T05:01:03.580Z</time>
      </trkpt>
      <trkpt lat="45.908740" lon="8.982514">
        <ele>323.842299</ele>
        <time>2026-05-02T05:01:05.588Z</time>
      </trkpt>
      <trkpt lat="45.908625" lon="8.982505">
        <ele>323.839888</ele>
        <time>2026-05-02T05:01:07.588Z</time>
      </trkpt>
      <trkpt lat="45.908515" lon="8.982507">
        <ele>323.837586</ele>
        <time>2026-05-02T05:01:09.587Z</time>
      </trkpt>
      <trkpt lat="45.908414" lon="8.982487">
        <ele>323.835452</ele>
        <time>2026-05-02T05:01:11.577Z</time>
      </trkpt>
      <trkpt lat="45.908309" lon="8.982471">
        <ele>323.833242</ele>
        <time>2026-05-02T05:01:13.580Z</time>
      </trkpt>
      <trkpt lat="45.908205" lon="8.982444">
        <ele>323.831030</ele>
        <time>2026-05-02T05:01:15.577Z</time>
      </trkpt>
      <trkpt lat="45.908107" lon="8.982415">
        <ele>323.828936</ele>
        <time>2026-05-02T05:01:17.580Z</time>
      </trkpt>
      <trkpt lat="45.908000" lon="8.982388">
        <ele>323.826663</ele>
        <time>2026-05-02T05:01:19.576Z</time>
      </trkpt>
      <trkpt lat="45.907892" lon="8.982363">
        <ele>323.760379</ele>
        <time>2026-05-02T05:01:21.585Z</time>
      </trkpt>
      <trkpt lat="45.907791" lon="8.982318">
        <ele>323.690462</ele>
        <time>2026-05-02T05:01:23.583Z</time>
      </trkpt>
      <trkpt lat="45.907689" lon="8.982278">
        <ele>323.620554</ele>
        <time>2026-05-02T05:01:25.583Z</time>
      </trkpt>
      <trkpt lat="45.907594" lon="8.982233">
        <ele>323.554415</ele>
        <time>2026-05-02T05:01:27.582Z</time>
      </trkpt>
      <trkpt lat="45.907492" lon="8.982190">
        <ele>323.484131</ele>
        <time>2026-05-02T05:01:29.582Z</time>
      </trkpt>
      <trkpt lat="45.907398" lon="8.982133">
        <ele>323.416672</ele>
        <time>2026-05-02T05:01:31.581Z</time>
      </trkpt>
      <trkpt lat="45.907299" lon="8.982076">
        <ele>323.346156</ele>
        <time>2026-05-02T05:01:33.573Z</time>
      </trkpt>
      <trkpt lat="45.907208" lon="8.982019">
        <ele>323.280520</ele>
        <time>2026-05-02T05:01:35.573Z</time>
      </trkpt>
      <trkpt lat="45.907124" lon="8.981951">
        <ele>323.216773</ele>
        <time>2026-05-02T05:01:37.581Z</time>
      </trkpt>
      <trkpt lat="45.907029" lon="8.981886">
        <ele>323.147204</ele>
        <time>2026-05-02T05:01:39.578Z</time>
      </trkpt>
      <trkpt lat="45.906936" lon="8.981811">
        <ele>323.076692</ele>
        <time>2026-05-02T05:01:41.572Z</time>
      </trkpt>
      <trkpt lat="45.906847" lon="8.981733">
        <ele>323.007766</ele>
        <time>2026-05-02T05:01:43.585Z</time>
      </trkpt>
      <trkpt lat="45.906771" lon="8.981660">
        <ele>322.947324</ele>
        <time>2026-05-02T05:01:45.581Z</time>
      </trkpt>
      <trkpt lat="45.906680" lon="8.981585">
        <ele>322.877963</ele>
        <time>2026-05-02T05:01:47.576Z</time>
      </trkpt>
      <trkpt lat="45.906592" lon="8.981518">
        <ele>322.812116</ele>
        <time>2026-05-02T05:01:49.580Z</time>
      </trkpt>
      <trkpt lat="45.906511" lon="8.981439">
        <ele>322.747390</ele>
        <time>2026-05-02T05:01:51.579Z</time>
      </trkpt>
      <trkpt lat="45.906426" lon="8.981380">
        <ele>322.684975</ele>
        <time>2026-05-02T05:01:54.586Z</time>
      </trkpt>
      <trkpt lat="45.906252" lon="8.981101">
        <ele>322.667784</ele>
        <time>2026-05-02T05:03:18.579Z</time>
      </trkpt>
      <trkpt lat="45.906196" lon="8.980988">
        <ele>322.683451</ele>
        <time>2026-05-02T05:03:25.584Z</time>
      </trkpt>
      <trkpt lat="45.905967" lon="8.980781">
        <ele>322.727360</ele>
        <time>2026-05-02T05:04:55.579Z</time>
      </trkpt>
      <trkpt lat="45.905875" lon="8.980698">
        <ele>322.744990</ele>
        <time>2026-05-02T05:04:59.586Z</time>
      </trkpt>
      <trkpt lat="45.905786" lon="8.980644">
        <ele>322.760669</ele>
        <time>2026-05-02T05:05:02.576Z</time>
      </trkpt>
      <trkpt lat="45.905699" lon="8.980575">
        <ele>322.776797</ele>
        <time>2026-05-02T05:05:05.579Z</time>
      </trkpt>
      <trkpt lat="45.905620" lon="8.980507">
        <ele>322.791743</ele>
        <time>2026-05-02T05:05:08.576Z</time>
      </trkpt>
      <trkpt lat="45.905534" lon="8.980444">
        <ele>322.807410</ele>
        <time>2026-05-02T05:05:11.583Z</time>
      </trkpt>
      <trkpt lat="45.905445" lon="8.980375">
        <ele>322.823823</ele>
        <time>2026-05-02T05:05:14.580Z</time>
      </trkpt>
      <trkpt lat="45.905366" lon="8.980306">
        <ele>322.838827</ele>
        <time>2026-05-02T05:05:17.581Z</time>
      </trkpt>
      <trkpt lat="45.905288" lon="8.980197">
        <ele>322.856485</ele>
        <time>2026-05-02T05:05:23.582Z</time>
      </trkpt>
      <trkpt lat="45.905180" lon="8.980178">
        <ele>322.874144</ele>
        <time>2026-05-02T05:05:26.582Z</time>
      </trkpt>
      <trkpt lat="45.905082" lon="8.980132">
        <ele>322.890877</ele>
        <time>2026-05-02T05:05:29.581Z</time>
      </trkpt>
      <trkpt lat="45.904984" lon="8.980068">
        <ele>322.908348</ele>
        <time>2026-05-02T05:05:32.581Z</time>
      </trkpt>
      <trkpt lat="45.904906" lon="8.980002">
        <ele>322.923039</ele>
        <time>2026-05-02T05:05:35.578Z</time>
      </trkpt>
      <trkpt lat="45.904820" lon="8.979925">
        <ele>322.931171</ele>
        <time>2026-05-02T05:05:39.581Z</time>
      </trkpt>
      <trkpt lat="45.904734" lon="8.979808">
        <ele>322.934970</ele>
        <time>2026-05-02T05:05:43.580Z</time>
      </trkpt>
      <trkpt lat="45.904646" lon="8.979706">
        <ele>322.938596</ele>
        <time>2026-05-02T05:05:47.579Z</time>
      </trkpt>
      <trkpt lat="45.904564" lon="8.979611">
        <ele>322.941975</ele>
        <time>2026-05-02T05:05:53.577Z</time>
      </trkpt>
      <trkpt lat="45.904517" lon="8.979491">
        <ele>322.945049</ele>
        <time>2026-05-02T05:05:58.576Z</time>
      </trkpt>
      <trkpt lat="45.904514" lon="8.978948">
        <ele>322.957170</ele>
        <time>2026-05-02T05:06:22.580Z</time>
      </trkpt>
      <trkpt lat="45.904530" lon="8.978791">
        <ele>322.960712</ele>
        <time>2026-05-02T05:06:25.580Z</time>
      </trkpt>
      <trkpt lat="45.904550" lon="8.978622">
        <ele>322.964539</ele>
        <time>2026-05-02T05:06:28.580Z</time>
      </trkpt>
      <trkpt lat="45.904570" lon="8.978455">
        <ele>322.968321</ele>
        <time>2026-05-02T05:06:31.582Z</time>
      </trkpt>
      <trkpt lat="45.904591" lon="8.978277">
        <ele>322.972351</ele>
        <time>2026-05-02T05:06:34.572Z</time>
      </trkpt>
      <trkpt lat="45.904609" lon="8.978101">
        <ele>322.976322</ele>
        <time>2026-05-02T05:06:37.586Z</time>
      </trkpt>
      <trkpt lat="45.904637" lon="8.977934">
        <ele>322.980157</ele>
        <time>2026-05-02T05:06:40.580Z</time>
      </trkpt>
      <trkpt lat="45.904655" lon="8.977737">
        <ele>322.984592</ele>
        <time>2026-05-02T05:06:43.571Z</time>
      </trkpt>
      <trkpt lat="45.904673" lon="8.977590">
        <ele>322.986920</ele>
        <time>2026-05-02T05:06:45.580Z</time>
      </trkpt>
      <trkpt lat="45.904685" lon="8.977460">
        <ele>322.987182</ele>
        <time>2026-05-02T05:06:47.579Z</time>
      </trkpt>
      <trkpt lat="45.904706" lon="8.977273">
        <ele>322.987562</ele>
        <time>2026-05-02T05:06:50.577Z</time>
      </trkpt>
      <trkpt lat="45.904721" lon="8.977139">
        <ele>322.987833</ele>
        <time>2026-05-02T05:06:52.583Z</time>
      </trkpt>
      <trkpt lat="45.904730" lon="8.977003">
        <ele>322.988107</ele>
        <time>2026-05-02T05:06:54.585Z</time>
      </trkpt>
      <trkpt lat="45.904750" lon="8.976810">
        <ele>322.988498</ele>
        <time>2026-05-02T05:06:57.585Z</time>
      </trkpt>
      <trkpt lat="45.904769" lon="8.976681">
        <ele>322.988762</ele>
        <time>2026-05-02T05:06:59.578Z</time>
      </trkpt>
      <trkpt lat="45.904788" lon="8.976551">
        <ele>322.989028</ele>
        <time>2026-05-02T05:07:01.577Z</time>
      </trkpt>
      <trkpt lat="45.904799" lon="8.976417">
        <ele>322.989298</ele>
        <time>2026-05-02T05:07:03.584Z</time>
      </trkpt>
      <trkpt lat="45.904812" lon="8.976286">
        <ele>322.989563</ele>
        <time>2026-05-02T05:07:05.579Z</time>
      </trkpt>
      <trkpt lat="45.904826" lon="8.976156">
        <ele>322.989826</ele>
        <time>2026-05-02T05:07:07.583Z</time>
      </trkpt>
      <trkpt lat="45.904842" lon="8.976025">
        <ele>322.990093</ele>
        <time>2026-05-02T05:07:09.579Z</time>
      </trkpt>
      <trkpt lat="45.904857" lon="8.975881">
        <ele>322.990384</ele>
        <time>2026-05-02T05:07:11.579Z</time>
      </trkpt>
      <trkpt lat="45.904865" lon="8.975747">
        <ele>322.990654</ele>
        <time>2026-05-02T05:07:13.575Z</time>
      </trkpt>
      <trkpt lat="45.904897" lon="8.975611">
        <ele>322.990941</ele>
        <time>2026-05-02T05:07:15.583Z</time>
      </trkpt>
      <trkpt lat="45.904909" lon="8.975464">
        <ele>322.991237</ele>
        <time>2026-05-02T05:07:17.585Z</time>
      </trkpt>
      <trkpt lat="45.904918" lon="8.975327">
        <ele>322.991513</ele>
        <time>2026-05-02T05:07:19.581Z</time>
      </trkpt>
      <trkpt lat="45.904934" lon="8.975183">
        <ele>322.991805</ele>
        <time>2026-05-02T05:07:21.585Z</time>
      </trkpt>
      <trkpt lat="45.904950" lon="8.975043">
        <ele>322.998736</ele>
        <time>2026-05-02T05:07:23.583Z</time>
      </trkpt>
      <trkpt lat="45.904973" lon="8.974896">
        <ele>323.020762</ele>
        <time>2026-05-02T05:07:25.582Z</time>
      </trkpt>
      <trkpt lat="45.904989" lon="8.974759">
        <ele>323.041069</ele>
        <time>2026-05-02T05:07:27.583Z</time>
      </trkpt>
      <trkpt lat="45.905008" lon="8.974612">
        <ele>323.062925</ele>
        <time>2026-05-02T05:07:29.582Z</time>
      </trkpt>
      <trkpt lat="45.905025" lon="8.974469">
        <ele>323.084132</ele>
        <time>2026-05-02T05:07:31.582Z</time>
      </trkpt>
      <trkpt lat="45.905047" lon="8.974281">
        <ele>323.112000</ele>
        <time>2026-05-02T05:07:34.579Z</time>
      </trkpt>
      <trkpt lat="45.905059" lon="8.974107">
        <ele>323.137561</ele>
        <time>2026-05-02T05:07:37.579Z</time>
      </trkpt>
      <trkpt lat="45.905084" lon="8.973926">
        <ele>323.164536</ele>
        <time>2026-05-02T05:07:40.579Z</time>
      </trkpt>
      <trkpt lat="45.905096" lon="8.973789">
        <ele>323.184721</ele>
        <time>2026-05-02T05:07:42.581Z</time>
      </trkpt>
      <trkpt lat="45.905119" lon="8.973604">
        <ele>323.212193</ele>
        <time>2026-05-02T05:07:45.579Z</time>
      </trkpt>
      <trkpt lat="45.905134" lon="8.973473">
        <ele>323.231600</ele>
        <time>2026-05-02T05:07:47.579Z</time>
      </trkpt>
      <trkpt lat="45.905154" lon="8.973287">
        <ele>323.259113</ele>
        <time>2026-05-02T05:07:50.583Z</time>
      </trkpt>
      <trkpt lat="45.905166" lon="8.973141">
        <ele>323.280604</ele>
        <time>2026-05-02T05:07:52.583Z</time>
      </trkpt>
      <trkpt lat="45.905172" lon="8.972996">
        <ele>323.301838</ele>
        <time>2026-05-02T05:07:54.580Z</time>
      </trkpt>
      <trkpt lat="45.905189" lon="8.972862">
        <ele>323.321749</ele>
        <time>2026-05-02T05:07:56.578Z</time>
      </trkpt>
      <trkpt lat="45.905201" lon="8.972732">
        <ele>323.340919</ele>
        <time>2026-05-02T05:07:58.575Z</time>
      </trkpt>
      <trkpt lat="45.905224" lon="8.972557">
        <ele>323.366953</ele>
        <time>2026-05-02T05:08:01.583Z</time>
      </trkpt>
      <trkpt lat="45.905248" lon="8.972379">
        <ele>323.642436</ele>
        <time>2026-05-02T05:08:04.582Z</time>
      </trkpt>
      <trkpt lat="45.905270" lon="8.972188">
        <ele>323.969228</ele>
        <time>2026-05-02T05:08:07.579Z</time>
      </trkpt>
      <trkpt lat="45.905286" lon="8.971994">
        <ele>324.298990</ele>
        <time>2026-05-02T05:08:10.582Z</time>
      </trkpt>
      <trkpt lat="45.905294" lon="8.971861">
        <ele>324.524329</ele>
        <time>2026-05-02T05:08:12.580Z</time>
      </trkpt>
      <trkpt lat="45.905314" lon="8.971734">
        <ele>324.744125</ele>
        <time>2026-05-02T05:08:14.576Z</time>
      </trkpt>
      <trkpt lat="45.905333" lon="8.971605">
        <ele>324.966699</ele>
        <time>2026-05-02T05:08:16.579Z</time>
      </trkpt>
      <trkpt lat="45.905355" lon="8.971439">
        <ele>325.251941</ele>
        <time>2026-05-02T05:08:19.581Z</time>
      </trkpt>
      <trkpt lat="45.905370" lon="8.971275">
        <ele>325.531152</ele>
        <time>2026-05-02T05:08:22.577Z</time>
      </trkpt>
      <trkpt lat="45.905397" lon="8.971150">
        <ele>325.752081</ele>
        <time>2026-05-02T05:08:24.581Z</time>
      </trkpt>
      <trkpt lat="45.905520" lon="8.971165">
        <ele>326.051528</ele>
        <time>2026-05-02T05:08:28.581Z</time>
      </trkpt>
      <trkpt lat="45.905611" lon="8.971216">
        <ele>326.288468</ele>
        <time>2026-05-02T05:08:30.581Z</time>
      </trkpt>
      <trkpt lat="45.905707" lon="8.971243">
        <ele>326.525762</ele>
        <time>2026-05-02T05:08:32.580Z</time>
      </trkpt>
      <trkpt lat="45.905826" lon="8.971287">
        <ele>326.823834</ele>
        <time>2026-05-02T05:08:35.582Z</time>
      </trkpt>
      <trkpt lat="45.905947" lon="8.971307">
        <ele>327.119291</ele>
        <time>2026-05-02T05:08:38.579Z</time>
      </trkpt>
      <trkpt lat="45.906040" lon="8.971315">
        <ele>327.345295</ele>
        <time>2026-05-02T05:08:40.580Z</time>
      </trkpt>
      <trkpt lat="45.906138" lon="8.971346">
        <ele>327.588714</ele>
        <time>2026-05-02T05:08:42.578Z</time>
      </trkpt>
      <trkpt lat="45.906238" lon="8.971326">
        <ele>327.622748</ele>
        <time>2026-05-02T05:08:44.580Z</time>
      </trkpt>
      <trkpt lat="45.906328" lon="8.971285">
        <ele>327.371806</ele>
        <time>2026-05-02T05:08:46.585Z</time>
      </trkpt>
      <trkpt lat="45.906424" lon="8.971251">
        <ele>327.109014</ele>
        <time>2026-05-02T05:08:48.577Z</time>
      </trkpt>
      <trkpt lat="45.906516" lon="8.971267">
        <ele>326.862703</ele>
        <time>2026-05-02T05:08:50.581Z</time>
      </trkpt>
      <trkpt lat="45.906612" lon="8.971339">
        <ele>326.574888</ele>
        <time>2026-05-02T05:08:53.572Z</time>
      </trkpt>
      <trkpt lat="45.906715" lon="8.971384">
        <ele>326.288754</ele>
        <time>2026-05-02T05:08:56.581Z</time>
      </trkpt>
      <trkpt lat="45.906814" lon="8.971395">
        <ele>326.024836</ele>
        <time>2026-05-02T05:08:59.578Z</time>
      </trkpt>
      <trkpt lat="45.906911" lon="8.971356">
        <ele>325.757121</ele>
        <time>2026-05-02T05:09:02.578Z</time>
      </trkpt>
      <trkpt lat="45.907025" lon="8.971296">
        <ele>325.434440</ele>
        <time>2026-05-02T05:09:05.575Z</time>
      </trkpt>
      <trkpt lat="45.907116" lon="8.971237">
        <ele>325.169097</ele>
        <time>2026-05-02T05:09:07.575Z</time>
      </trkpt>
      <trkpt lat="45.907208" lon="8.971175">
        <ele>324.899020</ele>
        <time>2026-05-02T05:09:09.577Z</time>
      </trkpt>
      <trkpt lat="45.907302" lon="8.971125">
        <ele>324.632614</ele>
        <time>2026-05-02T05:09:11.582Z</time>
      </trkpt>
      <trkpt lat="45.907397" lon="8.971099">
        <ele>324.375576</ele>
        <time>2026-05-02T05:09:13.581Z</time>
      </trkpt>
      <trkpt lat="45.907505" lon="8.971081">
        <ele>324.086599</ele>
        <time>2026-05-02T05:09:16.582Z</time>
      </trkpt>
      <trkpt lat="45.907594" lon="8.971113">
        <ele>323.842755</ele>
        <time>2026-05-02T05:09:18.582Z</time>
      </trkpt>
      <trkpt lat="45.907683" lon="8.971135">
        <ele>323.602729</ele>
        <time>2026-05-02T05:09:20.579Z</time>
      </trkpt>
      <trkpt lat="45.907797" lon="8.971182">
        <ele>323.287507</ele>
        <time>2026-05-02T05:09:23.582Z</time>
      </trkpt>
      <trkpt lat="45.907876" lon="8.971250">
        <ele>323.042753</ele>
        <time>2026-05-02T05:09:25.581Z</time>
      </trkpt>
      <trkpt lat="45.908003" lon="8.971324">
        <ele>322.937859</ele>
        <time>2026-05-02T05:09:28.578Z</time>
      </trkpt>
      <trkpt lat="45.908109" lon="8.971432">
        <ele>322.919534</ele>
        <time>2026-05-02T05:09:31.580Z</time>
      </trkpt>
      <trkpt lat="45.908193" lon="8.971545">
        <ele>322.903307</ele>
        <time>2026-05-02T05:09:34.586Z</time>
      </trkpt>
      <trkpt lat="45.908293" lon="8.971641">
        <ele>322.886347</ele>
        <time>2026-05-02T05:09:37.580Z</time>
      </trkpt>
      <trkpt lat="45.908413" lon="8.971723">
        <ele>322.867608</ele>
        <time>2026-05-02T05:09:40.580Z</time>
      </trkpt>
      <trkpt lat="45.908537" lon="8.971782">
        <ele>322.849186</ele>
        <time>2026-05-02T05:09:43.579Z</time>
      </trkpt>
      <trkpt lat="45.908659" lon="8.971844">
        <ele>322.830936</ele>
        <time>2026-05-02T05:09:46.584Z</time>
      </trkpt>
      <trkpt lat="45.908781" lon="8.971920">
        <ele>322.812184</ele>
        <time>2026-05-02T05:09:49.578Z</time>
      </trkpt>
      <trkpt lat="45.908892" lon="8.972015">
        <ele>322.793964</ele>
        <time>2026-05-02T05:09:52.583Z</time>
      </trkpt>
      <trkpt lat="45.908998" lon="8.972108">
        <ele>322.776449</ele>
        <time>2026-05-02T05:09:55.578Z</time>
      </trkpt>
      <trkpt lat="45.909108" lon="8.972207">
        <ele>322.758145</ele>
        <time>2026-05-02T05:09:58.576Z</time>
      </trkpt>
      <trkpt lat="45.909220" lon="8.972298">
        <ele>322.740000</ele>
        <time>2026-05-02T05:10:01.583Z</time>
      </trkpt>
      <trkpt lat="45.909328" lon="8.972374">
        <ele>322.723041</ele>
        <time>2026-05-02T05:10:04.580Z</time>
      </trkpt>
      <trkpt lat="45.909440" lon="8.972459">
        <ele>322.705178</ele>
        <time>2026-05-02T05:10:07.580Z</time>
      </trkpt>
      <trkpt lat="45.909544" lon="8.972533">
        <ele>322.681718</ele>
        <time>2026-05-02T05:10:10.580Z</time>
      </trkpt>
      <trkpt lat="45.909651" lon="8.972584">
        <ele>322.654445</ele>
        <time>2026-05-02T05:10:13.597Z</time>
      </trkpt>
      <trkpt lat="45.909759" lon="8.972630">
        <ele>322.627193</ele>
        <time>2026-05-02T05:10:16.575Z</time>
      </trkpt>
      <trkpt lat="45.909855" lon="8.972654">
        <ele>322.603619</ele>
        <time>2026-05-02T05:10:19.580Z</time>
      </trkpt>
      <trkpt lat="45.909949" lon="8.972676">
        <ele>322.580577</ele>
        <time>2026-05-02T05:10:22.585Z</time>
      </trkpt>
      <trkpt lat="45.910042" lon="8.972695">
        <ele>322.557852</ele>
        <time>2026-05-02T05:10:25.582Z</time>
      </trkpt>
      <trkpt lat="45.910141" lon="8.972724">
        <ele>322.533408</ele>
        <time>2026-05-02T05:10:28.584Z</time>
      </trkpt>
      <trkpt lat="45.910258" lon="8.972746">
        <ele>322.504860</ele>
        <time>2026-05-02T05:10:31.579Z</time>
      </trkpt>
      <trkpt lat="45.910375" lon="8.972776">
        <ele>322.476107</ele>
        <time>2026-05-02T05:10:34.581Z</time>
      </trkpt>
      <trkpt lat="45.910488" lon="8.972792">
        <ele>322.448636</ele>
        <time>2026-05-02T05:10:37.576Z</time>
      </trkpt>
      <trkpt lat="45.910597" lon="8.972794">
        <ele>322.422264</ele>
        <time>2026-05-02T05:10:40.584Z</time>
      </trkpt>
      <trkpt lat="45.910711" lon="8.972770">
        <ele>322.394389</ele>
        <time>2026-05-02T05:10:43.584Z</time>
      </trkpt>
      <trkpt lat="45.910835" lon="8.972740">
        <ele>322.363967</ele>
        <time>2026-05-02T05:10:46.578Z</time>
      </trkpt>
      <trkpt lat="45.910962" lon="8.972707">
        <ele>322.332743</ele>
        <time>2026-05-02T05:10:49.585Z</time>
      </trkpt>
      <trkpt lat="45.911098" lon="8.972694">
        <ele>322.299768</ele>
        <time>2026-05-02T05:10:52.584Z</time>
      </trkpt>
      <trkpt lat="45.911224" lon="8.972667">
        <ele>322.268947</ele>
        <time>2026-05-02T05:10:55.581Z</time>
      </trkpt>
      <trkpt lat="45.911350" lon="8.972640">
        <ele>322.308672</ele>
        <time>2026-05-02T05:10:58.582Z</time>
      </trkpt>
      <trkpt lat="45.911459" lon="8.972610">
        <ele>322.356255</ele>
        <time>2026-05-02T05:11:01.575Z</time>
      </trkpt>
      <trkpt lat="45.911566" lon="8.972564">
        <ele>322.404139</ele>
        <time>2026-05-02T05:11:04.580Z</time>
      </trkpt>
      <trkpt lat="45.911673" lon="8.972486">
        <ele>322.455579</ele>
        <time>2026-05-02T05:11:07.580Z</time>
      </trkpt>
      <trkpt lat="45.911778" lon="8.972391">
        <ele>322.508775</ele>
        <time>2026-05-02T05:11:10.580Z</time>
      </trkpt>
      <trkpt lat="45.911884" lon="8.972298">
        <ele>322.562021</ele>
        <time>2026-05-02T05:11:13.578Z</time>
      </trkpt>
      <trkpt lat="45.911997" lon="8.972209">
        <ele>322.617267</ele>
        <time>2026-05-02T05:11:16.579Z</time>
      </trkpt>
      <trkpt lat="45.912111" lon="8.972104">
        <ele>322.675319</ele>
        <time>2026-05-02T05:11:19.584Z</time>
      </trkpt>
      <trkpt lat="45.912224" lon="8.972018">
        <ele>322.730141</ele>
        <time>2026-05-02T05:11:22.587Z</time>
      </trkpt>
      <trkpt lat="45.912342" lon="8.971928">
        <ele>322.787415</ele>
        <time>2026-05-02T05:11:25.581Z</time>
      </trkpt>
      <trkpt lat="45.912427" lon="8.971872">
        <ele>322.827505</ele>
        <time>2026-05-02T05:11:27.579Z</time>
      </trkpt>
      <trkpt lat="45.912510" lon="8.971819">
        <ele>322.866445</ele>
        <time>2026-05-02T05:11:29.583Z</time>
      </trkpt>
      <trkpt lat="45.912594" lon="8.971753">
        <ele>322.907490</ele>
        <time>2026-05-02T05:11:31.584Z</time>
      </trkpt>
      <trkpt lat="45.912676" lon="8.971699">
        <ele>322.946162</ele>
        <time>2026-05-02T05:11:33.579Z</time>
      </trkpt>
      <trkpt lat="45.912789" lon="8.971611">
        <ele>323.001265</ele>
        <time>2026-05-02T05:11:36.579Z</time>
      </trkpt>
      <trkpt lat="45.912907" lon="8.971528">
        <ele>323.034921</ele>
        <time>2026-05-02T05:11:39.579Z</time>
      </trkpt>
      <trkpt lat="45.913016" lon="8.971449">
        <ele>323.035337</ele>
        <time>2026-05-02T05:11:42.581Z</time>
      </trkpt>
      <trkpt lat="45.913123" lon="8.971358">
        <ele>323.035759</ele>
        <time>2026-05-02T05:11:45.578Z</time>
      </trkpt>
      <trkpt lat="45.913228" lon="8.971273">
        <ele>323.036169</ele>
        <time>2026-05-02T05:11:48.583Z</time>
      </trkpt>
      <trkpt lat="45.913321" lon="8.971200">
        <ele>323.036529</ele>
        <time>2026-05-02T05:11:51.576Z</time>
      </trkpt>
      <trkpt lat="45.913417" lon="8.971132">
        <ele>323.036893</ele>
        <time>2026-05-02T05:11:54.581Z</time>
      </trkpt>
      <trkpt lat="45.913491" lon="8.971046">
        <ele>323.037217</ele>
        <time>2026-05-02T05:11:57.589Z</time>
      </trkpt>
      <trkpt lat="45.913556" lon="8.970946">
        <ele>323.037541</ele>
        <time>2026-05-02T05:12:00.581Z</time>
      </trkpt>
      <trkpt lat="45.913636" lon="8.970875">
        <ele>323.037860</ele>
        <time>2026-05-02T05:12:03.585Z</time>
      </trkpt>
      <trkpt lat="45.913705" lon="8.970775">
        <ele>323.038194</ele>
        <time>2026-05-02T05:12:06.579Z</time>
      </trkpt>
      <trkpt lat="45.913770" lon="8.970646">
        <ele>323.038570</ele>
        <time>2026-05-02T05:12:09.579Z</time>
      </trkpt>
      <trkpt lat="45.913840" lon="8.970508">
        <ele>323.038975</ele>
        <time>2026-05-02T05:12:12.580Z</time>
      </trkpt>
      <trkpt lat="45.913903" lon="8.970369">
        <ele>323.039367</ele>
        <time>2026-05-02T05:12:15.583Z</time>
      </trkpt>
      <trkpt lat="45.913969" lon="8.970220">
        <ele>323.039785</ele>
        <time>2026-05-02T05:12:18.588Z</time>
      </trkpt>
      <trkpt lat="45.914037" lon="8.970066">
        <ele>323.040216</ele>
        <time>2026-05-02T05:12:21.579Z</time>
      </trkpt>
      <trkpt lat="45.914104" lon="8.969928">
        <ele>323.040615</ele>
        <time>2026-05-02T05:12:24.576Z</time>
      </trkpt>
      <trkpt lat="45.914194" lon="8.969862">
        <ele>323.039441</ele>
        <time>2026-05-02T05:12:27.580Z</time>
      </trkpt>
      <trkpt lat="45.914311" lon="8.969920">
        <ele>323.033582</ele>
        <time>2026-05-02T05:12:30.579Z</time>
      </trkpt>
      <trkpt lat="45.914425" lon="8.970026">
        <ele>323.027154</ele>
        <time>2026-05-02T05:12:33.579Z</time>
      </trkpt>
      <trkpt lat="45.914498" lon="8.970111">
        <ele>323.022706</ele>
        <time>2026-05-02T05:12:35.584Z</time>
      </trkpt>
      <trkpt lat="45.914569" lon="8.970205">
        <ele>323.018136</ele>
        <time>2026-05-02T05:12:37.582Z</time>
      </trkpt>
      <trkpt lat="45.914640" lon="8.970286">
        <ele>323.013845</ele>
        <time>2026-05-02T05:12:39.583Z</time>
      </trkpt>
      <trkpt lat="45.914722" lon="8.970359">
        <ele>323.009279</ele>
        <time>2026-05-02T05:12:41.584Z</time>
      </trkpt>
      <trkpt lat="45.914806" lon="8.970415">
        <ele>323.004895</ele>
        <time>2026-05-02T05:12:43.600Z</time>
      </trkpt>
      <trkpt lat="45.914898" lon="8.970451">
        <ele>323.000381</ele>
        <time>2026-05-02T05:12:45.583Z</time>
      </trkpt>
      <trkpt lat="45.914994" lon="8.970494">
        <ele>322.995621</ele>
        <time>2026-05-02T05:12:47.583Z</time>
      </trkpt>
      <trkpt lat="45.915090" lon="8.970530">
        <ele>322.990924</ele>
        <time>2026-05-02T05:12:49.582Z</time>
      </trkpt>
      <trkpt lat="45.915183" lon="8.970561">
        <ele>322.986404</ele>
        <time>2026-05-02T05:12:51.573Z</time>
      </trkpt>
      <trkpt lat="45.915274" lon="8.970592">
        <ele>322.981977</ele>
        <time>2026-05-02T05:12:53.577Z</time>
      </trkpt>
      <trkpt lat="45.915362" lon="8.970626">
        <ele>322.977663</ele>
        <time>2026-05-02T05:12:55.582Z</time>
      </trkpt>
      <trkpt lat="45.915455" lon="8.970664">
        <ele>322.973085</ele>
        <time>2026-05-02T05:12:57.572Z</time>
      </trkpt>
      <trkpt lat="45.915551" lon="8.970710">
        <ele>322.968295</ele>
        <time>2026-05-02T05:12:59.580Z</time>
      </trkpt>
      <trkpt lat="45.915647" lon="8.970747">
        <ele>322.963589</ele>
        <time>2026-05-02T05:13:01.581Z</time>
      </trkpt>
      <trkpt lat="45.915744" lon="8.970778">
        <ele>322.958885</ele>
        <time>2026-05-02T05:13:03.587Z</time>
      </trkpt>
      <trkpt lat="45.915845" lon="8.970806">
        <ele>322.949964</ele>
        <time>2026-05-02T05:13:05.579Z</time>
      </trkpt>
      <trkpt lat="45.915940" lon="8.970828">
        <ele>322.934488</ele>
        <time>2026-05-02T05:13:07.589Z</time>
      </trkpt>
      <trkpt lat="45.916056" lon="8.970849">
        <ele>322.915685</ele>
        <time>2026-05-02T05:13:10.581Z</time>
      </trkpt>
      <trkpt lat="45.916272" lon="8.970860">
        <ele>322.880924</ele>
        <time>2026-05-02T05:13:57.587Z</time>
      </trkpt>
      <trkpt lat="45.916375" lon="8.970861">
        <ele>322.864358</ele>
        <time>2026-05-02T05:14:00.580Z</time>
      </trkpt>
      <trkpt lat="45.916482" lon="8.970857">
        <ele>322.847144</ele>
        <time>2026-05-02T05:14:03.580Z</time>
      </trkpt>
      <trkpt lat="45.916584" lon="8.970840">
        <ele>322.830630</ele>
        <time>2026-05-02T05:14:06.578Z</time>
      </trkpt>
      <trkpt lat="45.916679" lon="8.970822">
        <ele>322.815219</ele>
        <time>2026-05-02T05:14:09.579Z</time>
      </trkpt>
      <trkpt lat="45.916790" lon="8.970794">
        <ele>322.797094</ele>
        <time>2026-05-02T05:14:12.578Z</time>
      </trkpt>
      <trkpt lat="45.916895" lon="8.970768">
        <ele>322.779958</ele>
        <time>2026-05-02T05:14:15.586Z</time>
      </trkpt>
      <trkpt lat="45.917006" lon="8.970723">
        <ele>322.761410</ele>
        <time>2026-05-02T05:14:18.583Z</time>
      </trkpt>
      <trkpt lat="45.917122" lon="8.970672">
        <ele>322.741901</ele>
        <time>2026-05-02T05:14:21.577Z</time>
      </trkpt>
      <trkpt lat="45.917237" lon="8.970638">
        <ele>322.723018</ele>
        <time>2026-05-02T05:14:24.578Z</time>
      </trkpt>
      <trkpt lat="45.917355" lon="8.970594">
        <ele>322.703413</ele>
        <time>2026-05-02T05:14:27.582Z</time>
      </trkpt>
      <trkpt lat="45.917467" lon="8.970549">
        <ele>322.684709</ele>
        <time>2026-05-02T05:14:30.578Z</time>
      </trkpt>
      <trkpt lat="45.917590" lon="8.970496">
        <ele>322.669998</ele>
        <time>2026-05-02T05:14:33.590Z</time>
      </trkpt>
      <trkpt lat="45.917706" lon="8.970451">
        <ele>322.698994</ele>
        <time>2026-05-02T05:14:36.577Z</time>
      </trkpt>
      <trkpt lat="45.917825" lon="8.970413">
        <ele>322.728414</ele>
        <time>2026-05-02T05:14:39.582Z</time>
      </trkpt>
      <trkpt lat="45.917941" lon="8.970377">
        <ele>322.757054</ele>
        <time>2026-05-02T05:14:42.580Z</time>
      </trkpt>
      <trkpt lat="45.918067" lon="8.970349">
        <ele>322.787824</ele>
        <time>2026-05-02T05:14:45.577Z</time>
      </trkpt>
      <trkpt lat="45.918190" lon="8.970330">
        <ele>322.817679</ele>
        <time>2026-05-02T05:14:48.577Z</time>
      </trkpt>
      <trkpt lat="45.918312" lon="8.970318">
        <ele>322.847192</ele>
        <time>2026-05-02T05:14:51.573Z</time>
      </trkpt>
      <trkpt lat="45.918426" lon="8.970310">
        <ele>322.874737</ele>
        <time>2026-05-02T05:14:54.586Z</time>
      </trkpt>
      <trkpt lat="45.918544" lon="8.970306">
        <ele>322.903223</ele>
        <time>2026-05-02T05:14:57.580Z</time>
      </trkpt>
      <trkpt lat="45.918660" lon="8.970292">
        <ele>322.931316</ele>
        <time>2026-05-02T05:15:00.578Z</time>
      </trkpt>
      <trkpt lat="45.918773" lon="8.970276">
        <ele>322.958720</ele>
        <time>2026-05-02T05:15:03.579Z</time>
      </trkpt>
      <trkpt lat="45.918893" lon="8.970261">
        <ele>322.987789</ele>
        <time>2026-05-02T05:15:06.586Z</time>
      </trkpt>
      <trkpt lat="45.919016" lon="8.970248">
        <ele>323.017554</ele>
        <time>2026-05-02T05:15:09.579Z</time>
      </trkpt>
      <trkpt lat="45.919142" lon="8.970240">
        <ele>323.047992</ele>
        <time>2026-05-02T05:15:12.583Z</time>
      </trkpt>
      <trkpt lat="45.919280" lon="8.970233">
        <ele>323.081318</ele>
        <time>2026-05-02T05:15:15.576Z</time>
      </trkpt>
      <trkpt lat="45.919373" lon="8.970224">
        <ele>323.104565</ele>
        <time>2026-05-02T05:15:17.579Z</time>
      </trkpt>
      <trkpt lat="45.919467" lon="8.970213">
        <ele>323.132517</ele>
        <time>2026-05-02T05:15:19.576Z</time>
      </trkpt>
      <trkpt lat="45.919598" lon="8.970214">
        <ele>323.171343</ele>
        <time>2026-05-02T05:15:22.579Z</time>
      </trkpt>
      <trkpt lat="45.919734" lon="8.970233">
        <ele>323.211841</ele>
        <time>2026-05-02T05:15:25.581Z</time>
      </trkpt>
      <trkpt lat="45.919864" lon="8.970249">
        <ele>323.250511</ele>
        <time>2026-05-02T05:15:28.576Z</time>
      </trkpt>
      <trkpt lat="45.919957" lon="8.970272">
        <ele>323.278479</ele>
        <time>2026-05-02T05:15:30.584Z</time>
      </trkpt>
      <trkpt lat="45.920050" lon="8.970293">
        <ele>323.306380</ele>
        <time>2026-05-02T05:15:32.581Z</time>
      </trkpt>
      <trkpt lat="45.920149" lon="8.970303">
        <ele>323.335794</ele>
        <time>2026-05-02T05:15:34.585Z</time>
      </trkpt>
      <trkpt lat="45.920248" lon="8.970323">
        <ele>323.365424</ele>
        <time>2026-05-02T05:15:36.580Z</time>
      </trkpt>
      <trkpt lat="45.920335" lon="8.970357">
        <ele>323.392145</ele>
        <time>2026-05-02T05:15:38.580Z</time>
      </trkpt>
      <trkpt lat="45.920420" lon="8.970401">
        <ele>323.418920</ele>
        <time>2026-05-02T05:15:40.587Z</time>
      </trkpt>
      <trkpt lat="45.920506" lon="8.970460">
        <ele>323.447163</ele>
        <time>2026-05-02T05:15:42.578Z</time>
      </trkpt>
      <trkpt lat="45.920614" lon="8.970562">
        <ele>323.485462</ele>
        <time>2026-05-02T05:15:45.580Z</time>
      </trkpt>
      <trkpt lat="45.920697" lon="8.970621">
        <ele>323.512905</ele>
        <time>2026-05-02T05:15:47.581Z</time>
      </trkpt>
      <trkpt lat="45.920813" lon="8.970719">
        <ele>323.552783</ele>
        <time>2026-05-02T05:15:50.579Z</time>
      </trkpt>
      <trkpt lat="45.920903" lon="8.970765">
        <ele>323.581093</ele>
        <time>2026-05-02T05:15:52.579Z</time>
      </trkpt>
      <trkpt lat="45.921032" lon="8.970810">
        <ele>323.620435</ele>
        <time>2026-05-02T05:15:55.584Z</time>
      </trkpt>
      <trkpt lat="45.921160" lon="8.970798">
        <ele>323.676224</ele>
        <time>2026-05-02T05:15:58.584Z</time>
      </trkpt>
      <trkpt lat="45.921276" lon="8.970739">
        <ele>323.738765</ele>
        <time>2026-05-02T05:16:01.578Z</time>
      </trkpt>
      <trkpt lat="45.921392" lon="8.970648">
        <ele>323.805932</ele>
        <time>2026-05-02T05:16:04.578Z</time>
      </trkpt>
      <trkpt lat="45.921469" lon="8.970562">
        <ele>323.855492</ele>
        <time>2026-05-02T05:16:06.575Z</time>
      </trkpt>
      <trkpt lat="45.921550" lon="8.970491">
        <ele>323.903712</ele>
        <time>2026-05-02T05:16:08.584Z</time>
      </trkpt>
      <trkpt lat="45.921642" lon="8.970437">
        <ele>323.954220</ele>
        <time>2026-05-02T05:16:10.584Z</time>
      </trkpt>
      <trkpt lat="45.921737" lon="8.970396">
        <ele>324.004635</ele>
        <time>2026-05-02T05:16:12.577Z</time>
      </trkpt>
      <trkpt lat="45.921843" lon="8.970365">
        <ele>324.059615</ele>
        <time>2026-05-02T05:16:14.581Z</time>
      </trkpt>
      <trkpt lat="45.921944" lon="8.970327">
        <ele>324.112679</ele>
        <time>2026-05-02T05:16:16.574Z</time>
      </trkpt>
      <trkpt lat="45.922039" lon="8.970298">
        <ele>324.162041</ele>
        <time>2026-05-02T05:16:18.581Z</time>
      </trkpt>
      <trkpt lat="45.922130" lon="8.970271">
        <ele>324.209268</ele>
        <time>2026-05-02T05:16:20.581Z</time>
      </trkpt>
      <trkpt lat="45.922225" lon="8.970244">
        <ele>324.258488</ele>
        <time>2026-05-02T05:16:22.579Z</time>
      </trkpt>
      <trkpt lat="45.922319" lon="8.970217">
        <ele>324.307209</ele>
        <time>2026-05-02T05:16:24.581Z</time>
      </trkpt>
      <trkpt lat="45.922414" lon="8.970196">
        <ele>324.356062</ele>
        <time>2026-05-02T05:16:26.588Z</time>
      </trkpt>
      <trkpt lat="45.922505" lon="8.970162">
        <ele>324.403851</ele>
        <time>2026-05-02T05:16:28.579Z</time>
      </trkpt>
      <trkpt lat="45.922600" lon="8.970129">
        <ele>324.453526</ele>
        <time>2026-05-02T05:16:30.590Z</time>
      </trkpt>
      <trkpt lat="45.922695" lon="8.970102">
        <ele>324.502746</ele>
        <time>2026-05-02T05:16:32.588Z</time>
      </trkpt>
      <trkpt lat="45.922827" lon="8.970064">
        <ele>324.531269</ele>
        <time>2026-05-02T05:16:35.581Z</time>
      </trkpt>
      <trkpt lat="45.922920" lon="8.970041">
        <ele>324.497397</ele>
        <time>2026-05-02T05:16:37.581Z</time>
      </trkpt>
      <trkpt lat="45.923017" lon="8.970018">
        <ele>324.462109</ele>
        <time>2026-05-02T05:16:39.579Z</time>
      </trkpt>
      <trkpt lat="45.923110" lon="8.970011">
        <ele>324.428682</ele>
        <time>2026-05-02T05:16:41.578Z</time>
      </trkpt>
      <trkpt lat="45.923202" lon="8.969997">
        <ele>324.395474</ele>
        <time>2026-05-02T05:16:43.579Z</time>
      </trkpt>
      <trkpt lat="45.923336" lon="8.969986">
        <ele>324.347298</ele>
        <time>2026-05-02T05:16:46.579Z</time>
      </trkpt>
      <trkpt lat="45.923469" lon="8.969964">
        <ele>324.299244</ele>
        <time>2026-05-02T05:16:49.579Z</time>
      </trkpt>
      <trkpt lat="45.923562" lon="8.969910">
        <ele>324.263242</ele>
        <time>2026-05-02T05:16:51.579Z</time>
      </trkpt>
      <trkpt lat="45.923683" lon="8.969821">
        <ele>324.214455</ele>
        <time>2026-05-02T05:16:54.575Z</time>
      </trkpt>
      <trkpt lat="45.923761" lon="8.969732">
        <ele>324.178710</ele>
        <time>2026-05-02T05:16:56.581Z</time>
      </trkpt>
      <trkpt lat="45.923839" lon="8.969642">
        <ele>324.142810</ele>
        <time>2026-05-02T05:16:58.577Z</time>
      </trkpt>
      <trkpt lat="45.923930" lon="8.969508">
        <ele>324.096052</ele>
        <time>2026-05-02T05:17:01.577Z</time>
      </trkpt>
      <trkpt lat="45.923998" lon="8.969402">
        <ele>324.060049</ele>
        <time>2026-05-02T05:17:03.579Z</time>
      </trkpt>
      <trkpt lat="45.924066" lon="8.969298">
        <ele>324.024411</ele>
        <time>2026-05-02T05:17:05.579Z</time>
      </trkpt>
      <trkpt lat="45.924142" lon="8.969206">
        <ele>323.988748</ele>
        <time>2026-05-02T05:17:07.578Z</time>
      </trkpt>
      <trkpt lat="45.924233" lon="8.969057">
        <ele>323.939241</ele>
        <time>2026-05-02T05:17:10.575Z</time>
      </trkpt>
      <trkpt lat="45.924312" lon="8.968960">
        <ele>323.902042</ele>
        <time>2026-05-02T05:17:12.581Z</time>
      </trkpt>
      <trkpt lat="45.924397" lon="8.968885">
        <ele>323.880989</ele>
        <time>2026-05-02T05:17:14.573Z</time>
      </trkpt>
      <trkpt lat="45.924482" lon="8.968820">
        <ele>323.860665</ele>
        <time>2026-05-02T05:17:16.583Z</time>
      </trkpt>
      <trkpt lat="45.924572" lon="8.968757">
        <ele>323.839534</ele>
        <time>2026-05-02T05:17:18.581Z</time>
      </trkpt>
      <trkpt lat="45.924654" lon="8.968686">
        <ele>323.819327</ele>
        <time>2026-05-02T05:17:20.578Z</time>
      </trkpt>
      <trkpt lat="45.924788" lon="8.968597">
        <ele>323.788166</ele>
        <time>2026-05-02T05:17:23.588Z</time>
      </trkpt>
      <trkpt lat="45.924877" lon="8.968538">
        <ele>323.767477</ele>
        <time>2026-05-02T05:17:25.587Z</time>
      </trkpt>
      <trkpt lat="45.924963" lon="8.968473">
        <ele>323.746967</ele>
        <time>2026-05-02T05:17:27.581Z</time>
      </trkpt>
      <trkpt lat="45.925054" lon="8.968409">
        <ele>323.725582</ele>
        <time>2026-05-02T05:17:29.587Z</time>
      </trkpt>
      <trkpt lat="45.925146" lon="8.968354">
        <ele>323.704548</ele>
        <time>2026-05-02T05:17:31.579Z</time>
      </trkpt>
      <trkpt lat="45.925232" lon="8.968287">
        <ele>323.683900</ele>
        <time>2026-05-02T05:17:33.579Z</time>
      </trkpt>
      <trkpt lat="45.925318" lon="8.968227">
        <ele>323.663720</ele>
        <time>2026-05-02T05:17:35.581Z</time>
      </trkpt>
      <trkpt lat="45.925432" lon="8.968131">
        <ele>323.635830</ele>
        <time>2026-05-02T05:17:38.579Z</time>
      </trkpt>
      <trkpt lat="45.925519" lon="8.968069">
        <ele>323.615332</ele>
        <time>2026-05-02T05:17:40.580Z</time>
      </trkpt>
      <trkpt lat="45.925600" lon="8.968008">
        <ele>323.596029</ele>
        <time>2026-05-02T05:17:42.580Z</time>
      </trkpt>
      <trkpt lat="45.925681" lon="8.967933">
        <ele>323.575691</ele>
        <time>2026-05-02T05:17:44.585Z</time>
      </trkpt>
      <trkpt lat="45.925786" lon="8.967819">
        <ele>323.547915</ele>
        <time>2026-05-02T05:17:47.580Z</time>
      </trkpt>
      <trkpt lat="45.925859" lon="8.967722">
        <ele>323.526931</ele>
        <time>2026-05-02T05:17:49.583Z</time>
      </trkpt>
      <trkpt lat="45.925935" lon="8.967625">
        <ele>323.566391</ele>
        <time>2026-05-02T05:17:51.574Z</time>
      </trkpt>
      <trkpt lat="45.926014" lon="8.967526">
        <ele>323.623496</ele>
        <time>2026-05-02T05:17:53.583Z</time>
      </trkpt>
      <trkpt lat="45.926098" lon="8.967434">
        <ele>323.681036</ele>
        <time>2026-05-02T05:17:55.579Z</time>
      </trkpt>
      <trkpt lat="45.926166" lon="8.967335">
        <ele>323.733770</ele>
        <time>2026-05-02T05:17:57.584Z</time>
      </trkpt>
      <trkpt lat="45.926262" lon="8.967199">
        <ele>323.807209</ele>
        <time>2026-05-02T05:18:00.584Z</time>
      </trkpt>
      <trkpt lat="45.926338" lon="8.967121">
        <ele>323.858091</ele>
        <time>2026-05-02T05:18:02.584Z</time>
      </trkpt>
      <trkpt lat="45.926402" lon="8.967017">
        <ele>323.910721</ele>
        <time>2026-05-02T05:18:04.582Z</time>
      </trkpt>
      <trkpt lat="45.926466" lon="8.966917">
        <ele>323.962225</ele>
        <time>2026-05-02T05:18:06.582Z</time>
      </trkpt>
      <trkpt lat="45.926532" lon="8.966746">
        <ele>324.036345</ele>
        <time>2026-05-02T05:18:09.576Z</time>
      </trkpt>
      <trkpt lat="45.926572" lon="8.966622">
        <ele>324.088151</ele>
        <time>2026-05-02T05:18:11.581Z</time>
      </trkpt>
      <trkpt lat="45.926606" lon="8.966494">
        <ele>324.140082</ele>
        <time>2026-05-02T05:18:13.580Z</time>
      </trkpt>
      <trkpt lat="45.926641" lon="8.966366">
        <ele>324.192210</ele>
        <time>2026-05-02T05:18:15.583Z</time>
      </trkpt>
      <trkpt lat="45.926678" lon="8.966238">
        <ele>324.244746</ele>
        <time>2026-05-02T05:18:17.583Z</time>
      </trkpt>
      <trkpt lat="45.926723" lon="8.966122">
        <ele>324.295087</ele>
        <time>2026-05-02T05:18:19.580Z</time>
      </trkpt>
      <trkpt lat="45.926797" lon="8.965972">
        <ele>324.364787</ele>
        <time>2026-05-02T05:18:22.580Z</time>
      </trkpt>
      <trkpt lat="45.926859" lon="8.965868">
        <ele>324.416700</ele>
        <time>2026-05-02T05:18:24.581Z</time>
      </trkpt>
      <trkpt lat="45.926932" lon="8.965776">
        <ele>324.469597</ele>
        <time>2026-05-02T05:18:26.581Z</time>
      </trkpt>
      <trkpt lat="45.927004" lon="8.965694">
        <ele>324.490340</ele>
        <time>2026-05-02T05:18:28.582Z</time>
      </trkpt>
      <trkpt lat="45.927105" lon="8.965592">
        <ele>324.442303</ele>
        <time>2026-05-02T05:18:31.581Z</time>
      </trkpt>
      <trkpt lat="45.927251" lon="8.965375">
        <ele>324.360575</ele>
        <time>2026-05-02T05:19:14.582Z</time>
      </trkpt>
      <trkpt lat="45.927332" lon="8.965281">
        <ele>324.320062</ele>
        <time>2026-05-02T05:19:17.580Z</time>
      </trkpt>
      <trkpt lat="45.927416" lon="8.965183">
        <ele>324.277960</ele>
        <time>2026-05-02T05:19:20.582Z</time>
      </trkpt>
      <trkpt lat="45.927496" lon="8.965062">
        <ele>324.232768</ele>
        <time>2026-05-02T05:19:23.582Z</time>
      </trkpt>
      <trkpt lat="45.927563" lon="8.964930">
        <ele>324.188533</ele>
        <time>2026-05-02T05:19:26.582Z</time>
      </trkpt>
      <trkpt lat="45.927622" lon="8.964806">
        <ele>324.147863</ele>
        <time>2026-05-02T05:19:29.578Z</time>
      </trkpt>
      <trkpt lat="45.927681" lon="8.964681">
        <ele>324.106970</ele>
        <time>2026-05-02T05:19:32.576Z</time>
      </trkpt>
      <trkpt lat="45.927750" lon="8.964579">
        <ele>324.068453</ele>
        <time>2026-05-02T05:19:35.586Z</time>
      </trkpt>
      <trkpt lat="45.927857" lon="8.964336">
        <ele>323.990598</ele>
        <time>2026-05-02T05:20:29.582Z</time>
      </trkpt>
      <trkpt lat="45.927918" lon="8.964199">
        <ele>323.946564</ele>
        <time>2026-05-02T05:20:32.586Z</time>
      </trkpt>
      <trkpt lat="45.927989" lon="8.964065">
        <ele>323.900964</ele>
        <time>2026-05-02T05:20:35.585Z</time>
      </trkpt>
      <trkpt lat="45.928052" lon="8.963949">
        <ele>323.861124</ele>
        <time>2026-05-02T05:20:38.583Z</time>
      </trkpt>
      <trkpt lat="45.928186" lon="8.963672">
        <ele>323.745822</ele>
        <time>2026-05-02T05:21:20.584Z</time>
      </trkpt>
      <trkpt lat="45.928262" lon="8.963543">
        <ele>323.666576</ele>
        <time>2026-05-02T05:21:23.577Z</time>
      </trkpt>
      <trkpt lat="45.928343" lon="8.963407">
        <ele>323.582647</ele>
        <time>2026-05-02T05:21:26.574Z</time>
      </trkpt>
      <trkpt lat="45.928425" lon="8.963263">
        <ele>323.495409</ele>
        <time>2026-05-02T05:21:29.582Z</time>
      </trkpt>
      <trkpt lat="45.928504" lon="8.963124">
        <ele>323.411267</ele>
        <time>2026-05-02T05:21:32.588Z</time>
      </trkpt>
      <trkpt lat="45.928552" lon="8.963014">
        <ele>323.350396</ele>
        <time>2026-05-02T05:21:34.579Z</time>
      </trkpt>
      <trkpt lat="45.928607" lon="8.962844">
        <ele>323.262509</ele>
        <time>2026-05-02T05:21:37.580Z</time>
      </trkpt>
      <trkpt lat="45.928653" lon="8.962671">
        <ele>323.175691</ele>
        <time>2026-05-02T05:21:40.580Z</time>
      </trkpt>
      <trkpt lat="45.928697" lon="8.962541">
        <ele>323.107921</ele>
        <time>2026-05-02T05:21:44.583Z</time>
      </trkpt>
      <trkpt lat="45.928754" lon="8.962428">
        <ele>323.042489</ele>
        <time>2026-05-02T05:21:50.580Z</time>
      </trkpt>
      <trkpt lat="45.928805" lon="8.962317">
        <ele>322.980130</ele>
        <time>2026-05-02T05:22:02.580Z</time>
      </trkpt>
      <trkpt lat="45.928885" lon="8.962204">
        <ele>322.904549</ele>
        <time>2026-05-02T05:22:06.580Z</time>
      </trkpt>
      <trkpt lat="45.928959" lon="8.962086">
        <ele>322.830073</ele>
        <time>2026-05-02T05:22:09.579Z</time>
      </trkpt>
      <trkpt lat="45.929033" lon="8.961944">
        <ele>322.746900</ele>
        <time>2026-05-02T05:22:12.582Z</time>
      </trkpt>
      <trkpt lat="45.929110" lon="8.961792">
        <ele>322.658756</ele>
        <time>2026-05-02T05:22:15.583Z</time>
      </trkpt>
      <trkpt lat="45.929178" lon="8.961646">
        <ele>322.598311</ele>
        <time>2026-05-02T05:22:18.583Z</time>
      </trkpt>
      <trkpt lat="45.929230" lon="8.961539">
        <ele>322.632993</ele>
        <time>2026-05-02T05:22:20.582Z</time>
      </trkpt>
      <trkpt lat="45.929287" lon="8.961431">
        <ele>322.669014</ele>
        <time>2026-05-02T05:22:22.577Z</time>
      </trkpt>
      <trkpt lat="45.929344" lon="8.961327">
        <ele>322.704194</ele>
        <time>2026-05-02T05:22:24.578Z</time>
      </trkpt>
      <trkpt lat="45.929434" lon="8.961186">
        <ele>322.755041</ele>
        <time>2026-05-02T05:22:27.582Z</time>
      </trkpt>
      <trkpt lat="45.929497" lon="8.961083">
        <ele>322.791484</ele>
        <time>2026-05-02T05:22:29.581Z</time>
      </trkpt>
      <trkpt lat="45.929556" lon="8.960981">
        <ele>322.826732</ele>
        <time>2026-05-02T05:22:31.579Z</time>
      </trkpt>
      <trkpt lat="45.929638" lon="8.960832">
        <ele>322.877214</ele>
        <time>2026-05-02T05:22:34.578Z</time>
      </trkpt>
      <trkpt lat="45.929709" lon="8.960729">
        <ele>322.915743</ele>
        <time>2026-05-02T05:22:36.582Z</time>
      </trkpt>
      <trkpt lat="45.929768" lon="8.960631">
        <ele>322.950180</ele>
        <time>2026-05-02T05:22:38.588Z</time>
      </trkpt>
      <trkpt lat="45.929843" lon="8.960494">
        <ele>322.996502</ele>
        <time>2026-05-02T05:22:41.581Z</time>
      </trkpt>
      <trkpt lat="45.929901" lon="8.960394">
        <ele>323.031097</ele>
        <time>2026-05-02T05:22:43.583Z</time>
      </trkpt>
      <trkpt lat="45.929963" lon="8.960288">
        <ele>323.067895</ele>
        <time>2026-05-02T05:22:45.583Z</time>
      </trkpt>
      <trkpt lat="45.930028" lon="8.960194">
        <ele>323.103113</ele>
        <time>2026-05-02T05:22:47.580Z</time>
      </trkpt>
      <trkpt lat="45.930091" lon="8.960094">
        <ele>323.138961</ele>
        <time>2026-05-02T05:22:49.586Z</time>
      </trkpt>
      <trkpt lat="45.930149" lon="8.959994">
        <ele>323.173556</ele>
        <time>2026-05-02T05:22:51.586Z</time>
      </trkpt>
      <trkpt lat="45.930243" lon="8.959869">
        <ele>323.222467</ele>
        <time>2026-05-02T05:22:54.580Z</time>
      </trkpt>
      <trkpt lat="45.930358" lon="8.959781">
        <ele>323.272231</ele>
        <time>2026-05-02T05:22:57.581Z</time>
      </trkpt>
      <trkpt lat="45.930462" lon="8.959738">
        <ele>323.294359</ele>
        <time>2026-05-02T05:23:00.586Z</time>
      </trkpt>
      <trkpt lat="45.930609" lon="8.959685">
        <ele>323.321456</ele>
        <time>2026-05-02T05:23:40.580Z</time>
      </trkpt>
      <trkpt lat="45.930702" lon="8.959603">
        <ele>323.340962</ele>
        <time>2026-05-02T05:23:43.585Z</time>
      </trkpt>
      <trkpt lat="45.930783" lon="8.959513">
        <ele>323.359266</ele>
        <time>2026-05-02T05:23:46.585Z</time>
      </trkpt>
      <trkpt lat="45.930868" lon="8.959396">
        <ele>323.380306</ele>
        <time>2026-05-02T05:23:49.580Z</time>
      </trkpt>
      <trkpt lat="45.930957" lon="8.959285">
        <ele>323.401372</ele>
        <time>2026-05-02T05:23:52.579Z</time>
      </trkpt>
      <trkpt lat="45.931049" lon="8.959187">
        <ele>323.421844</ele>
        <time>2026-05-02T05:23:55.572Z</time>
      </trkpt>
      <trkpt lat="45.931126" lon="8.959068">
        <ele>323.442056</ele>
        <time>2026-05-02T05:23:58.580Z</time>
      </trkpt>
      <trkpt lat="45.931189" lon="8.958932">
        <ele>323.462377</ele>
        <time>2026-05-02T05:24:01.584Z</time>
      </trkpt>
      <trkpt lat="45.931236" lon="8.958795">
        <ele>323.481374</ele>
        <time>2026-05-02T05:24:04.583Z</time>
      </trkpt>
      <trkpt lat="45.931256" lon="8.958637">
        <ele>323.501345</ele>
        <time>2026-05-02T05:24:07.584Z</time>
      </trkpt>
      <trkpt lat="45.931265" lon="8.958454">
        <ele>323.524159</ele>
        <time>2026-05-02T05:24:10.581Z</time>
      </trkpt>
      <trkpt lat="45.931290" lon="8.958290">
        <ele>323.545038</ele>
        <time>2026-05-02T05:24:13.582Z</time>
      </trkpt>
      <trkpt lat="45.931337" lon="8.958126">
        <ele>323.567096</ele>
        <time>2026-05-02T05:24:16.582Z</time>
      </trkpt>
      <trkpt lat="45.931402" lon="8.957976">
        <ele>323.589074</ele>
        <time>2026-05-02T05:24:19.582Z</time>
      </trkpt>
      <trkpt lat="45.931468" lon="8.957824">
        <ele>323.601069</ele>
        <time>2026-05-02T05:24:22.581Z</time>
      </trkpt>
      <trkpt lat="45.931519" lon="8.957658">
        <ele>323.604769</ele>
        <time>2026-05-02T05:24:25.588Z</time>
      </trkpt>
      <trkpt lat="45.931560" lon="8.957486">
        <ele>323.608477</ele>
        <time>2026-05-02T05:24:28.586Z</time>
      </trkpt>
      <trkpt lat="45.931603" lon="8.957304">
        <ele>323.612397</ele>
        <time>2026-05-02T05:24:31.585Z</time>
      </trkpt>
      <trkpt lat="45.931647" lon="8.957176">
        <ele>323.615308</ele>
        <time>2026-05-02T05:24:33.587Z</time>
      </trkpt>
      <trkpt lat="45.931703" lon="8.957002">
        <ele>323.619218</ele>
        <time>2026-05-02T05:24:36.585Z</time>
      </trkpt>
      <trkpt lat="45.931748" lon="8.956882">
        <ele>323.621998</ele>
        <time>2026-05-02T05:24:38.577Z</time>
      </trkpt>
      <trkpt lat="45.931789" lon="8.956757">
        <ele>323.624816</ele>
        <time>2026-05-02T05:24:40.579Z</time>
      </trkpt>
      <trkpt lat="45.931837" lon="8.956637">
        <ele>323.627639</ele>
        <time>2026-05-02T05:24:42.585Z</time>
      </trkpt>
      <trkpt lat="45.931882" lon="8.956519">
        <ele>323.630383</ele>
        <time>2026-05-02T05:24:44.586Z</time>
      </trkpt>
      <trkpt lat="45.931931" lon="8.956395">
        <ele>323.633291</ele>
        <time>2026-05-02T05:24:46.580Z</time>
      </trkpt>
      <trkpt lat="45.931976" lon="8.956276">
        <ele>323.636053</ele>
        <time>2026-05-02T05:24:48.584Z</time>
      </trkpt>
      <trkpt lat="45.932049" lon="8.956119">
        <ele>323.639905</ele>
        <time>2026-05-02T05:24:51.578Z</time>
      </trkpt>
      <trkpt lat="45.932090" lon="8.955996">
        <ele>323.642686</ele>
        <time>2026-05-02T05:24:53.580Z</time>
      </trkpt>
      <trkpt lat="45.932141" lon="8.955873">
        <ele>323.645606</ele>
        <time>2026-05-02T05:24:55.584Z</time>
      </trkpt>
      <trkpt lat="45.932182" lon="8.955757">
        <ele>323.648259</ele>
        <time>2026-05-02T05:24:57.584Z</time>
      </trkpt>
      <trkpt lat="45.932233" lon="8.955635">
        <ele>323.651162</ele>
        <time>2026-05-02T05:24:59.585Z</time>
      </trkpt>
      <trkpt lat="45.932279" lon="8.955522">
        <ele>323.647539</ele>
        <time>2026-05-02T05:25:01.583Z</time>
      </trkpt>
      <trkpt lat="45.932328" lon="8.955406">
        <ele>323.641798</ele>
        <time>2026-05-02T05:25:03.582Z</time>
      </trkpt>
      <trkpt lat="45.932413" lon="8.955259">
        <ele>323.633711</ele>
        <time>2026-05-02T05:25:06.581Z</time>
      </trkpt>
      <trkpt lat="45.932510" lon="8.955235">
        <ele>323.627724</ele>
        <time>2026-05-02T05:25:10.582Z</time>
      </trkpt>
      <trkpt lat="45.932550" lon="8.955090">
        <ele>323.621125</ele>
        <time>2026-05-02T05:25:55.585Z</time>
      </trkpt>
      <trkpt lat="45.932628" lon="8.954988">
        <ele>323.614712</ele>
        <time>2026-05-02T05:25:58.582Z</time>
      </trkpt>
      <trkpt lat="45.932706" lon="8.954885">
        <ele>323.608271</ele>
        <time>2026-05-02T05:26:01.582Z</time>
      </trkpt>
      <trkpt lat="45.932774" lon="8.954784">
        <ele>323.602324</ele>
        <time>2026-05-02T05:26:04.583Z</time>
      </trkpt>
      <trkpt lat="45.932854" lon="8.954672">
        <ele>323.595532</ele>
        <time>2026-05-02T05:26:07.580Z</time>
      </trkpt>
      <trkpt lat="45.932914" lon="8.954551">
        <ele>323.589246</ele>
        <time>2026-05-02T05:26:10.580Z</time>
      </trkpt>
      <trkpt lat="45.932962" lon="8.954399">
        <ele>323.582184</ele>
        <time>2026-05-02T05:26:13.582Z</time>
      </trkpt>
      <trkpt lat="45.932992" lon="8.954227">
        <ele>323.574683</ele>
        <time>2026-05-02T05:26:16.583Z</time>
      </trkpt>
      <trkpt lat="45.933010" lon="8.954035">
        <ele>323.566487</ele>
        <time>2026-05-02T05:26:19.587Z</time>
      </trkpt>
      <trkpt lat="45.933029" lon="8.953839">
        <ele>323.558115</ele>
        <time>2026-05-02T05:26:22.582Z</time>
      </trkpt>
      <trkpt lat="45.933045" lon="8.953702">
        <ele>323.552239</ele>
        <time>2026-05-02T05:26:24.579Z</time>
      </trkpt>
      <trkpt lat="45.933060" lon="8.953569">
        <ele>323.546539</ele>
        <time>2026-05-02T05:26:26.580Z</time>
      </trkpt>
      <trkpt lat="45.933061" lon="8.953436">
        <ele>323.526762</ele>
        <time>2026-05-02T05:26:28.587Z</time>
      </trkpt>
      <trkpt lat="45.933078" lon="8.953245">
        <ele>323.440301</ele>
        <time>2026-05-02T05:26:31.594Z</time>
      </trkpt>
      <trkpt lat="45.933088" lon="8.953102">
        <ele>323.375769</ele>
        <time>2026-05-02T05:26:33.586Z</time>
      </trkpt>
      <trkpt lat="45.933099" lon="8.952968">
        <ele>323.315183</ele>
        <time>2026-05-02T05:26:35.579Z</time>
      </trkpt>
      <trkpt lat="45.933122" lon="8.952775">
        <ele>323.227261</ele>
        <time>2026-05-02T05:26:38.583Z</time>
      </trkpt>
      <trkpt lat="45.933153" lon="8.952642">
        <ele>323.164278</ele>
        <time>2026-05-02T05:26:40.586Z</time>
      </trkpt>
      <trkpt lat="45.933195" lon="8.952510">
        <ele>323.099101</ele>
        <time>2026-05-02T05:26:42.584Z</time>
      </trkpt>
      <trkpt lat="45.933248" lon="8.952393">
        <ele>323.036406</ele>
        <time>2026-05-02T05:26:44.583Z</time>
      </trkpt>
      <trkpt lat="45.933305" lon="8.952273">
        <ele>322.971158</ele>
        <time>2026-05-02T05:26:46.578Z</time>
      </trkpt>
      <trkpt lat="45.933368" lon="8.952148">
        <ele>322.901844</ele>
        <time>2026-05-02T05:26:48.584Z</time>
      </trkpt>
      <trkpt lat="45.933431" lon="8.952038">
        <ele>322.837862</ele>
        <time>2026-05-02T05:26:50.584Z</time>
      </trkpt>
      <trkpt lat="45.933490" lon="8.951931">
        <ele>322.776550</ele>
        <time>2026-05-02T05:26:52.579Z</time>
      </trkpt>
      <trkpt lat="45.933557" lon="8.951831">
        <ele>322.714204</ele>
        <time>2026-05-02T05:26:54.578Z</time>
      </trkpt>
      <trkpt lat="45.933627" lon="8.951734">
        <ele>322.651441</ele>
        <time>2026-05-02T05:26:56.582Z</time>
      </trkpt>
      <trkpt lat="45.933700" lon="8.951639">
        <ele>322.587875</ele>
        <time>2026-05-02T05:26:58.580Z</time>
      </trkpt>
      <trkpt lat="45.933772" lon="8.951549">
        <ele>322.526282</ele>
        <time>2026-05-02T05:27:00.583Z</time>
      </trkpt>
      <trkpt lat="45.933848" lon="8.951457">
        <ele>322.462143</ele>
        <time>2026-05-02T05:27:02.589Z</time>
      </trkpt>
      <trkpt lat="45.933925" lon="8.951358">
        <ele>322.395456</ele>
        <time>2026-05-02T05:27:04.574Z</time>
      </trkpt>
      <trkpt lat="45.934001" lon="8.951266">
        <ele>322.411296</ele>
        <time>2026-05-02T05:27:06.580Z</time>
      </trkpt>
      <trkpt lat="45.934077" lon="8.951173">
        <ele>322.450200</ele>
        <time>2026-05-02T05:27:08.581Z</time>
      </trkpt>
      <trkpt lat="45.934151" lon="8.951076">
        <ele>322.489235</ele>
        <time>2026-05-02T05:27:10.580Z</time>
      </trkpt>
      <trkpt lat="45.934224" lon="8.950977">
        <ele>322.528353</ele>
        <time>2026-05-02T05:27:12.580Z</time>
      </trkpt>
      <trkpt lat="45.934293" lon="8.950873">
        <ele>322.567321</ele>
        <time>2026-05-02T05:27:14.579Z</time>
      </trkpt>
      <trkpt lat="45.934355" lon="8.950761">
        <ele>322.606131</ele>
        <time>2026-05-02T05:27:16.580Z</time>
      </trkpt>
      <trkpt lat="45.934427" lon="8.950659">
        <ele>322.645533</ele>
        <time>2026-05-02T05:27:18.581Z</time>
      </trkpt>
      <trkpt lat="45.934495" lon="8.950561">
        <ele>322.683064</ele>
        <time>2026-05-02T05:27:20.582Z</time>
      </trkpt>
      <trkpt lat="45.934564" lon="8.950448">
        <ele>322.723833</ele>
        <time>2026-05-02T05:27:22.581Z</time>
      </trkpt>
      <trkpt lat="45.934629" lon="8.950337">
        <ele>322.763173</ele>
        <time>2026-05-02T05:27:24.587Z</time>
      </trkpt>
      <trkpt lat="45.934701" lon="8.950232">
        <ele>322.803150</ele>
        <time>2026-05-02T05:27:26.586Z</time>
      </trkpt>
      <trkpt lat="45.934775" lon="8.950129">
        <ele>322.843299</ele>
        <time>2026-05-02T05:27:28.579Z</time>
      </trkpt>
      <trkpt lat="45.934845" lon="8.950029">
        <ele>322.881766</ele>
        <time>2026-05-02T05:27:30.579Z</time>
      </trkpt>
      <trkpt lat="45.934928" lon="8.949938">
        <ele>322.922454</ele>
        <time>2026-05-02T05:27:32.579Z</time>
      </trkpt>
      <trkpt lat="45.935011" lon="8.949858">
        <ele>322.961406</ele>
        <time>2026-05-02T05:27:34.579Z</time>
      </trkpt>
      <trkpt lat="45.935102" lon="8.949798">
        <ele>323.000432</ele>
        <time>2026-05-02T05:27:36.584Z</time>
      </trkpt>
      <trkpt lat="45.935188" lon="8.949741">
        <ele>323.037347</ele>
        <time>2026-05-02T05:27:38.585Z</time>
      </trkpt>
      <trkpt lat="45.935279" lon="8.949682">
        <ele>323.076261</ele>
        <time>2026-05-02T05:27:40.581Z</time>
      </trkpt>
      <trkpt lat="45.935372" lon="8.949621">
        <ele>323.094102</ele>
        <time>2026-05-02T05:27:42.584Z</time>
      </trkpt>
      <trkpt lat="45.935464" lon="8.949559">
        <ele>323.107897</ele>
        <time>2026-05-02T05:27:44.583Z</time>
      </trkpt>
      <trkpt lat="45.935550" lon="8.949499">
        <ele>323.120876</ele>
        <time>2026-05-02T05:27:46.583Z</time>
      </trkpt>
      <trkpt lat="45.935636" lon="8.949424">
        <ele>323.134532</ele>
        <time>2026-05-02T05:27:48.582Z</time>
      </trkpt>
      <trkpt lat="45.935712" lon="8.949346">
        <ele>323.147210</ele>
        <time>2026-05-02T05:27:50.581Z</time>
      </trkpt>
      <trkpt lat="45.935825" lon="8.949243">
        <ele>323.165375</ele>
        <time>2026-05-02T05:27:53.581Z</time>
      </trkpt>
      <trkpt lat="45.935900" lon="8.949163">
        <ele>323.178054</ele>
        <time>2026-05-02T05:27:55.579Z</time>
      </trkpt>
      <trkpt lat="45.935959" lon="8.949063">
        <ele>323.190437</ele>
        <time>2026-05-02T05:27:57.589Z</time>
      </trkpt>
      <trkpt lat="45.936010" lon="8.948954">
        <ele>323.202842</ele>
        <time>2026-05-02T05:27:59.582Z</time>
      </trkpt>
      <trkpt lat="45.936046" lon="8.948830">
        <ele>323.215530</ele>
        <time>2026-05-02T05:28:01.584Z</time>
      </trkpt>
      <trkpt lat="45.936050" lon="8.948689">
        <ele>323.228855</ele>
        <time>2026-05-02T05:28:03.583Z</time>
      </trkpt>
      <trkpt lat="45.936033" lon="8.948560">
        <ele>323.241253</ele>
        <time>2026-05-02T05:28:05.578Z</time>
      </trkpt>
      <trkpt lat="45.935998" lon="8.948434">
        <ele>323.254064</ele>
        <time>2026-05-02T05:28:07.579Z</time>
      </trkpt>
      <trkpt lat="45.935944" lon="8.948312">
        <ele>323.267719</ele>
        <time>2026-05-02T05:28:09.586Z</time>
      </trkpt>
      <trkpt lat="45.935886" lon="8.948198">
        <ele>323.281057</ele>
        <time>2026-05-02T05:28:11.578Z</time>
      </trkpt>
      <trkpt lat="45.935830" lon="8.948089">
        <ele>323.293853</ele>
        <time>2026-05-02T05:28:13.587Z</time>
      </trkpt>
      <trkpt lat="45.935770" lon="8.947980">
        <ele>323.306979</ele>
        <time>2026-05-02T05:28:15.584Z</time>
      </trkpt>
      <trkpt lat="45.935707" lon="8.947867">
        <ele>323.320655</ele>
        <time>2026-05-02T05:28:17.578Z</time>
      </trkpt>
      <trkpt lat="45.935653" lon="8.947755">
        <ele>323.293135</ele>
        <time>2026-05-02T05:28:19.583Z</time>
      </trkpt>
      <trkpt lat="45.935592" lon="8.947641">
        <ele>323.228056</ele>
        <time>2026-05-02T05:28:21.578Z</time>
      </trkpt>
      <trkpt lat="45.935536" lon="8.947529">
        <ele>323.165645</ele>
        <time>2026-05-02T05:28:23.585Z</time>
      </trkpt>
      <trkpt lat="45.935469" lon="8.947426">
        <ele>323.101835</ele>
        <time>2026-05-02T05:28:25.582Z</time>
      </trkpt>
      <trkpt lat="45.935399" lon="8.947322">
        <ele>323.036352</ele>
        <time>2026-05-02T05:28:27.585Z</time>
      </trkpt>
      <trkpt lat="45.935329" lon="8.947231">
        <ele>322.974959</ele>
        <time>2026-05-02T05:28:29.581Z</time>
      </trkpt>
      <trkpt lat="45.935253" lon="8.947141">
        <ele>322.910906</ele>
        <time>2026-05-02T05:28:31.582Z</time>
      </trkpt>
      <trkpt lat="45.935177" lon="8.947051">
        <ele>322.846853</ele>
        <time>2026-05-02T05:28:33.582Z</time>
      </trkpt>
      <trkpt lat="45.935104" lon="8.946965">
        <ele>322.785457</ele>
        <time>2026-05-02T05:28:35.589Z</time>
      </trkpt>
      <trkpt lat="45.935033" lon="8.946880">
        <ele>322.725352</ele>
        <time>2026-05-02T05:28:37.580Z</time>
      </trkpt>
      <trkpt lat="45.934963" lon="8.946792">
        <ele>322.664860</ele>
        <time>2026-05-02T05:28:39.584Z</time>
      </trkpt>
      <trkpt lat="45.934886" lon="8.946697">
        <ele>322.598853</ele>
        <time>2026-05-02T05:28:41.581Z</time>
      </trkpt>
      <trkpt lat="45.934813" lon="8.946597">
        <ele>322.533259</ele>
        <time>2026-05-02T05:28:43.581Z</time>
      </trkpt>
      <trkpt lat="45.934743" lon="8.946490">
        <ele>322.466793</ele>
        <time>2026-05-02T05:28:45.586Z</time>
      </trkpt>
      <trkpt lat="45.934682" lon="8.946381">
        <ele>322.403492</ele>
        <time>2026-05-02T05:28:47.579Z</time>
      </trkpt>
      <trkpt lat="45.934619" lon="8.946275">
        <ele>322.340404</ele>
        <time>2026-05-02T05:28:49.579Z</time>
      </trkpt>
      <trkpt lat="45.934554" lon="8.946171">
        <ele>322.277139</ele>
        <time>2026-05-02T05:28:51.579Z</time>
      </trkpt>
      <trkpt lat="45.934495" lon="8.946063">
        <ele>322.215001</ele>
        <time>2026-05-02T05:28:53.581Z</time>
      </trkpt>
      <trkpt lat="45.934432" lon="8.945960">
        <ele>322.159939</ele>
        <time>2026-05-02T05:28:55.579Z</time>
      </trkpt>
      <trkpt lat="45.934368" lon="8.945852">
        <ele>322.225295</ele>
        <time>2026-05-02T05:28:57.578Z</time>
      </trkpt>
      <trkpt lat="45.934302" lon="8.945748">
        <ele>322.290145</ele>
        <time>2026-05-02T05:28:59.578Z</time>
      </trkpt>
      <trkpt lat="45.934230" lon="8.945645">
        <ele>322.357411</ele>
        <time>2026-05-02T05:29:01.581Z</time>
      </trkpt>
      <trkpt lat="45.934154" lon="8.945547">
        <ele>322.425022</ele>
        <time>2026-05-02T05:29:03.581Z</time>
      </trkpt>
      <trkpt lat="45.934082" lon="8.945449">
        <ele>322.490685</ele>
        <time>2026-05-02T05:29:05.585Z</time>
      </trkpt>
      <trkpt lat="45.934012" lon="8.945361">
        <ele>322.552267</ele>
        <time>2026-05-02T05:29:07.578Z</time>
      </trkpt>
      <trkpt lat="45.933914" lon="8.945232">
        <ele>322.640264</ele>
        <time>2026-05-02T05:29:10.585Z</time>
      </trkpt>
      <trkpt lat="45.933842" lon="8.945143">
        <ele>322.703148</ele>
        <time>2026-05-02T05:29:12.591Z</time>
      </trkpt>
      <trkpt lat="45.933768" lon="8.945048">
        <ele>322.768851</ele>
        <time>2026-05-02T05:29:14.580Z</time>
      </trkpt>
      <trkpt lat="45.933701" lon="8.944956">
        <ele>322.830209</ele>
        <time>2026-05-02T05:29:16.573Z</time>
      </trkpt>
      <trkpt lat="45.933619" lon="8.944867">
        <ele>322.898254</ele>
        <time>2026-05-02T05:29:18.574Z</time>
      </trkpt>
      <trkpt lat="45.933545" lon="8.944768">
        <ele>322.965197</ele>
        <time>2026-05-02T05:29:20.575Z</time>
      </trkpt>
      <trkpt lat="45.933486" lon="8.944668">
        <ele>323.025601</ele>
        <time>2026-05-02T05:29:22.583Z</time>
      </trkpt>
      <trkpt lat="45.933401" lon="8.944572">
        <ele>323.097187</ele>
        <time>2026-05-02T05:29:24.575Z</time>
      </trkpt>
      <trkpt lat="45.933324" lon="8.944473">
        <ele>323.165599</ele>
        <time>2026-05-02T05:29:26.581Z</time>
      </trkpt>
      <trkpt lat="45.933252" lon="8.944377">
        <ele>323.230632</ele>
        <time>2026-05-02T05:29:28.575Z</time>
      </trkpt>
      <trkpt lat="45.933174" lon="8.944277">
        <ele>323.299845</ele>
        <time>2026-05-02T05:29:30.580Z</time>
      </trkpt>
      <trkpt lat="45.933098" lon="8.944188">
        <ele>323.340337</ele>
        <time>2026-05-02T05:29:32.580Z</time>
      </trkpt>
      <trkpt lat="45.933026" lon="8.944104">
        <ele>323.314122</ele>
        <time>2026-05-02T05:29:34.582Z</time>
      </trkpt>
      <trkpt lat="45.932943" lon="8.944019">
        <ele>323.285311</ele>
        <time>2026-05-02T05:29:36.575Z</time>
      </trkpt>
      <trkpt lat="45.932856" lon="8.943943">
        <ele>323.256530</ele>
        <time>2026-05-02T05:29:38.582Z</time>
      </trkpt>
      <trkpt lat="45.932774" lon="8.943873">
        <ele>323.229567</ele>
        <time>2026-05-02T05:29:40.590Z</time>
      </trkpt>
      <trkpt lat="45.932683" lon="8.943808">
        <ele>323.200839</ele>
        <time>2026-05-02T05:29:42.584Z</time>
      </trkpt>
      <trkpt lat="45.932595" lon="8.943735">
        <ele>323.172115</ele>
        <time>2026-05-02T05:29:44.588Z</time>
      </trkpt>
      <trkpt lat="45.932510" lon="8.943670">
        <ele>323.144895</ele>
        <time>2026-05-02T05:29:46.580Z</time>
      </trkpt>
      <trkpt lat="45.932429" lon="8.943597">
        <ele>323.117867</ele>
        <time>2026-05-02T05:29:48.581Z</time>
      </trkpt>
      <trkpt lat="45.932343" lon="8.943519">
        <ele>323.089118</ele>
        <time>2026-05-02T05:29:50.581Z</time>
      </trkpt>
      <trkpt lat="45.932263" lon="8.943436">
        <ele>323.061226</ele>
        <time>2026-05-02T05:29:52.581Z</time>
      </trkpt>
      <trkpt lat="45.932182" lon="8.943354">
        <ele>323.033218</ele>
        <time>2026-05-02T05:29:54.582Z</time>
      </trkpt>
      <trkpt lat="45.932103" lon="8.943278">
        <ele>323.006343</ele>
        <time>2026-05-02T05:29:56.586Z</time>
      </trkpt>
      <trkpt lat="45.932019" lon="8.943195">
        <ele>322.977526</ele>
        <time>2026-05-02T05:29:58.581Z</time>
      </trkpt>
      <trkpt lat="45.931938" lon="8.943106">
        <ele>322.948704</ele>
        <time>2026-05-02T05:30:00.579Z</time>
      </trkpt>
      <trkpt lat="45.931853" lon="8.943020">
        <ele>322.919318</ele>
        <time>2026-05-02T05:30:02.581Z</time>
      </trkpt>
      <trkpt lat="45.931774" lon="8.942944">
        <ele>322.892443</ele>
        <time>2026-05-02T05:30:04.579Z</time>
      </trkpt>
      <trkpt lat="45.931697" lon="8.942860">
        <ele>322.865116</ele>
        <time>2026-05-02T05:30:06.582Z</time>
      </trkpt>
      <trkpt lat="45.931619" lon="8.942774">
        <ele>322.841200</ele>
        <time>2026-05-02T05:30:08.587Z</time>
      </trkpt>
      <trkpt lat="45.931544" lon="8.942690">
        <ele>322.872573</ele>
        <time>2026-05-02T05:30:10.578Z</time>
      </trkpt>
      <trkpt lat="45.931474" lon="8.942608">
        <ele>322.902369</ele>
        <time>2026-05-02T05:30:12.585Z</time>
      </trkpt>
      <trkpt lat="45.931363" lon="8.942492">
        <ele>322.947653</ele>
        <time>2026-05-02T05:30:15.585Z</time>
      </trkpt>
      <trkpt lat="45.931288" lon="8.942405">
        <ele>322.979454</ele>
        <time>2026-05-02T05:30:17.584Z</time>
      </trkpt>
      <trkpt lat="45.931208" lon="8.942304">
        <ele>323.014587</ele>
        <time>2026-05-02T05:30:19.584Z</time>
      </trkpt>
      <trkpt lat="45.931144" lon="8.942209">
        <ele>323.044943</ele>
        <time>2026-05-02T05:30:21.583Z</time>
      </trkpt>
      <trkpt lat="45.931079" lon="8.942108">
        <ele>323.076526</ele>
        <time>2026-05-02T05:30:23.583Z</time>
      </trkpt>
      <trkpt lat="45.931018" lon="8.942000">
        <ele>323.108458</ele>
        <time>2026-05-02T05:30:25.582Z</time>
      </trkpt>
      <trkpt lat="45.930957" lon="8.941882">
        <ele>323.142204</ele>
        <time>2026-05-02T05:30:27.584Z</time>
      </trkpt>
      <trkpt lat="45.930902" lon="8.941771">
        <ele>323.173485</ele>
        <time>2026-05-02T05:30:29.584Z</time>
      </trkpt>
      <trkpt lat="45.930851" lon="8.941649">
        <ele>323.206155</ele>
        <time>2026-05-02T05:30:31.584Z</time>
      </trkpt>
      <trkpt lat="45.930802" lon="8.941512">
        <ele>323.241514</ele>
        <time>2026-05-02T05:30:33.583Z</time>
      </trkpt>
      <trkpt lat="45.930762" lon="8.941358">
        <ele>323.279245</ele>
        <time>2026-05-02T05:30:35.581Z</time>
      </trkpt>
      <trkpt lat="45.930739" lon="8.941213">
        <ele>323.313380</ele>
        <time>2026-05-02T05:30:37.591Z</time>
      </trkpt>
      <trkpt lat="45.930738" lon="8.941066">
        <ele>323.347122</ele>
        <time>2026-05-02T05:30:39.584Z</time>
      </trkpt>
      <trkpt lat="45.930732" lon="8.940928">
        <ele>323.378858</ele>
        <time>2026-05-02T05:30:41.581Z</time>
      </trkpt>
      <trkpt lat="45.930721" lon="8.940776">
        <ele>323.413934</ele>
        <time>2026-05-02T05:30:43.588Z</time>
      </trkpt>
      <trkpt lat="45.930729" lon="8.940626">
        <ele>323.407627</ele>
        <time>2026-05-02T05:30:45.587Z</time>
      </trkpt>
      <trkpt lat="45.930723" lon="8.940473">
        <ele>323.351890</ele>
        <time>2026-05-02T05:30:47.580Z</time>
      </trkpt>
      <trkpt lat="45.930720" lon="8.940326">
        <ele>323.298400</ele>
        <time>2026-05-02T05:30:49.586Z</time>
      </trkpt>
      <trkpt lat="45.930706" lon="8.940183">
        <ele>323.245875</ele>
        <time>2026-05-02T05:30:51.586Z</time>
      </trkpt>
      <trkpt lat="45.930699" lon="8.940042">
        <ele>323.194460</ele>
        <time>2026-05-02T05:30:53.589Z</time>
      </trkpt>
      <trkpt lat="45.930682" lon="8.939850">
        <ele>323.124062</ele>
        <time>2026-05-02T05:30:56.586Z</time>
      </trkpt>
      <trkpt lat="45.930672" lon="8.939715">
        <ele>323.074683</ele>
        <time>2026-05-02T05:30:58.576Z</time>
      </trkpt>
      <trkpt lat="45.930652" lon="8.939586">
        <ele>323.026611</ele>
        <time>2026-05-02T05:31:00.579Z</time>
      </trkpt>
      <trkpt lat="45.930634" lon="8.939453">
        <ele>322.977329</ele>
        <time>2026-05-02T05:31:02.587Z</time>
      </trkpt>
      <trkpt lat="45.930605" lon="8.939279">
        <ele>322.912250</ele>
        <time>2026-05-02T05:31:05.585Z</time>
      </trkpt>
      <trkpt lat="45.930561" lon="8.939165">
        <ele>322.864829</ele>
        <time>2026-05-02T05:31:07.585Z</time>
      </trkpt>
      <trkpt lat="45.930466" lon="8.939031">
        <ele>322.795234</ele>
        <time>2026-05-02T05:31:10.582Z</time>
      </trkpt>
      <trkpt lat="45.930400" lon="8.938940">
        <ele>322.747414</ele>
        <time>2026-05-02T05:31:12.584Z</time>
      </trkpt>
      <trkpt lat="45.930319" lon="8.938843">
        <ele>322.692287</ele>
        <time>2026-05-02T05:31:14.585Z</time>
      </trkpt>
      <trkpt lat="45.930249" lon="8.938739">
        <ele>322.639648</ele>
        <time>2026-05-02T05:31:16.583Z</time>
      </trkpt>
      <trkpt lat="45.930179" lon="8.938644">
        <ele>322.589310</ele>
        <time>2026-05-02T05:31:18.582Z</time>
      </trkpt>
      <trkpt lat="45.930115" lon="8.938551">
        <ele>322.541725</ele>
        <time>2026-05-02T05:31:20.582Z</time>
      </trkpt>
      <trkpt lat="45.930050" lon="8.938456">
        <ele>322.493254</ele>
        <time>2026-05-02T05:31:22.585Z</time>
      </trkpt>
      <trkpt lat="45.929978" lon="8.938353">
        <ele>322.422850</ele>
        <time>2026-05-02T05:31:24.580Z</time>
      </trkpt>
      <trkpt lat="45.929915" lon="8.938245">
        <ele>322.354515</ele>
        <time>2026-05-02T05:31:26.590Z</time>
      </trkpt>
      <trkpt lat="45.929849" lon="8.938146">
        <ele>322.288034</ele>
        <time>2026-05-02T05:31:28.589Z</time>
      </trkpt>
      <trkpt lat="45.929782" lon="8.938057">
        <ele>322.224453</ele>
        <time>2026-05-02T05:31:30.582Z</time>
      </trkpt>
      <trkpt lat="45.929690" lon="8.937925">
        <ele>322.133859</ele>
        <time>2026-05-02T05:31:33.587Z</time>
      </trkpt>
      <trkpt lat="45.929601" lon="8.937788">
        <ele>322.042977</ele>
        <time>2026-05-02T05:31:36.587Z</time>
      </trkpt>
      <trkpt lat="45.929525" lon="8.937702">
        <ele>321.975564</ele>
        <time>2026-05-02T05:31:38.580Z</time>
      </trkpt>
      <trkpt lat="45.929439" lon="8.937648">
        <ele>321.910153</ele>
        <time>2026-05-02T05:31:40.580Z</time>
      </trkpt>
      <trkpt lat="45.929353" lon="8.937607">
        <ele>321.847000</ele>
        <time>2026-05-02T05:31:42.578Z</time>
      </trkpt>
      <trkpt lat="45.929263" lon="8.937572">
        <ele>321.782015</ele>
        <time>2026-05-02T05:31:44.583Z</time>
      </trkpt>
      <trkpt lat="45.929168" lon="8.937523">
        <ele>321.711666</ele>
        <time>2026-05-02T05:31:46.584Z</time>
      </trkpt>
      <trkpt lat="45.929073" lon="8.937470">
        <ele>321.640639</ele>
        <time>2026-05-02T05:31:48.579Z</time>
      </trkpt>
      <trkpt lat="45.928975" lon="8.937429">
        <ele>321.569499</ele>
        <time>2026-05-02T05:31:50.581Z</time>
      </trkpt>
      <trkpt lat="45.928883" lon="8.937377">
        <ele>321.500596</ele>
        <time>2026-05-02T05:31:52.594Z</time>
      </trkpt>
      <trkpt lat="45.928793" lon="8.937328">
        <ele>321.433517</ele>
        <time>2026-05-02T05:31:54.585Z</time>
      </trkpt>
      <trkpt lat="45.928701" lon="8.937299">
        <ele>321.367869</ele>
        <time>2026-05-02T05:31:56.585Z</time>
      </trkpt>
      <trkpt lat="45.928610" lon="8.937284">
        <ele>321.304025</ele>
        <time>2026-05-02T05:31:58.582Z</time>
      </trkpt>
      <trkpt lat="45.928515" lon="8.937282">
        <ele>321.239696</ele>
        <time>2026-05-02T05:32:00.583Z</time>
      </trkpt>
      <trkpt lat="45.928414" lon="8.937290">
        <ele>321.392332</ele>
        <time>2026-05-02T05:32:02.582Z</time>
      </trkpt>
      <trkpt lat="45.928280" lon="8.937309">
        <ele>321.595514</ele>
        <time>2026-05-02T05:32:05.591Z</time>
      </trkpt>
      <trkpt lat="45.928189" lon="8.937308">
        <ele>321.732833</ele>
        <time>2026-05-02T05:32:07.573Z</time>
      </trkpt>
      <trkpt lat="45.928058" lon="8.937306">
        <ele>321.930518</ele>
        <time>2026-05-02T05:32:10.579Z</time>
      </trkpt>
      <trkpt lat="45.927958" lon="8.937310">
        <ele>322.081473</ele>
        <time>2026-05-02T05:32:12.581Z</time>
      </trkpt>
      <trkpt lat="45.927834" lon="8.937302">
        <ele>322.268772</ele>
        <time>2026-05-02T05:32:15.584Z</time>
      </trkpt>
      <trkpt lat="45.927736" lon="8.937285">
        <ele>322.417723</ele>
        <time>2026-05-02T05:32:17.582Z</time>
      </trkpt>
      <trkpt lat="45.927609" lon="8.937244">
        <ele>322.614133</ele>
        <time>2026-05-02T05:32:20.580Z</time>
      </trkpt>
      <trkpt lat="45.927495" lon="8.937165">
        <ele>322.805095</ele>
        <time>2026-05-02T05:32:23.581Z</time>
      </trkpt>
      <trkpt lat="45.927389" lon="8.937102">
        <ele>322.978174</ele>
        <time>2026-05-02T05:32:26.581Z</time>
      </trkpt>
      <trkpt lat="45.927284" lon="8.937059">
        <ele>323.142918</ele>
        <time>2026-05-02T05:32:29.581Z</time>
      </trkpt>
      <trkpt lat="45.927178" lon="8.937014">
        <ele>323.309695</ele>
        <time>2026-05-02T05:32:32.582Z</time>
      </trkpt>
      <trkpt lat="45.927048" lon="8.936988">
        <ele>323.507749</ele>
        <time>2026-05-02T05:32:35.587Z</time>
      </trkpt>
      <trkpt lat="45.926940" lon="8.936968">
        <ele>323.672063</ele>
        <time>2026-05-02T05:32:37.586Z</time>
      </trkpt>
      <trkpt lat="45.926804" lon="8.936941">
        <ele>323.879229</ele>
        <time>2026-05-02T05:32:40.578Z</time>
      </trkpt>
      <trkpt lat="45.926710" lon="8.936890">
        <ele>323.957034</ele>
        <time>2026-05-02T05:32:42.585Z</time>
      </trkpt>
      <trkpt lat="45.926637" lon="8.936808">
        <ele>323.965157</ele>
        <time>2026-05-02T05:32:44.586Z</time>
      </trkpt>
      <trkpt lat="45.926565" lon="8.936722">
        <ele>323.973364</ele>
        <time>2026-05-02T05:32:46.577Z</time>
      </trkpt>
      <trkpt lat="45.926465" lon="8.936609">
        <ele>323.984517</ele>
        <time>2026-05-02T05:32:49.586Z</time>
      </trkpt>
      <trkpt lat="45.926355" lon="8.936520">
        <ele>323.995584</ele>
        <time>2026-05-02T05:32:52.582Z</time>
      </trkpt>
      <trkpt lat="45.926247" lon="8.936468">
        <ele>324.005570</ele>
        <time>2026-05-02T05:32:55.583Z</time>
      </trkpt>
      <trkpt lat="45.926131" lon="8.936421">
        <ele>324.016137</ele>
        <time>2026-05-02T05:32:58.582Z</time>
      </trkpt>
      <trkpt lat="45.926026" lon="8.936363">
        <ele>324.026000</ele>
        <time>2026-05-02T05:33:01.578Z</time>
      </trkpt>
      <trkpt lat="45.925930" lon="8.936268">
        <ele>324.036219</ele>
        <time>2026-05-02T05:33:04.582Z</time>
      </trkpt>
      <trkpt lat="45.925840" lon="8.936172">
        <ele>324.046045</ele>
        <time>2026-05-02T05:33:07.583Z</time>
      </trkpt>
      <trkpt lat="45.925749" lon="8.936074">
        <ele>324.056014</ele>
        <time>2026-05-02T05:33:10.582Z</time>
      </trkpt>
      <trkpt lat="45.925655" lon="8.935965">
        <ele>324.066603</ele>
        <time>2026-05-02T05:33:13.580Z</time>
      </trkpt>
      <trkpt lat="45.925555" lon="8.935874">
        <ele>324.076980</ele>
        <time>2026-05-02T05:33:16.579Z</time>
      </trkpt>
      <trkpt lat="45.925446" lon="8.935777">
        <ele>324.088220</ele>
        <time>2026-05-02T05:33:19.579Z</time>
      </trkpt>
      <trkpt lat="45.925335" lon="8.935685">
        <ele>324.099454</ele>
        <time>2026-05-02T05:33:22.579Z</time>
      </trkpt>
      <trkpt lat="45.925220" lon="8.935589">
        <ele>324.112094</ele>
        <time>2026-05-02T05:33:25.579Z</time>
      </trkpt>
      <trkpt lat="45.925106" lon="8.935490">
        <ele>324.136109</ele>
        <time>2026-05-02T05:33:28.582Z</time>
      </trkpt>
      <trkpt lat="45.924995" lon="8.935396">
        <ele>324.159338</ele>
        <time>2026-05-02T05:33:31.586Z</time>
      </trkpt>
      <trkpt lat="45.924919" lon="8.935323">
        <ele>324.175819</ele>
        <time>2026-05-02T05:33:33.580Z</time>
      </trkpt>
      <trkpt lat="45.924842" lon="8.935252">
        <ele>324.192313</ele>
        <time>2026-05-02T05:33:35.581Z</time>
      </trkpt>
      <trkpt lat="45.924759" lon="8.935180">
        <ele>324.209792</ele>
        <time>2026-05-02T05:33:37.595Z</time>
      </trkpt>
      <trkpt lat="45.924645" lon="8.935096">
        <ele>324.232891</ele>
        <time>2026-05-02T05:33:40.585Z</time>
      </trkpt>
      <trkpt lat="45.924554" lon="8.935034">
        <ele>324.251048</ele>
        <time>2026-05-02T05:33:43.584Z</time>
      </trkpt>
      <trkpt lat="45.924455" lon="8.934936">
        <ele>324.272722</ele>
        <time>2026-05-02T05:33:47.585Z</time>
      </trkpt>
      <trkpt lat="45.924359" lon="8.934811">
        <ele>324.296077</ele>
        <time>2026-05-02T05:33:50.592Z</time>
      </trkpt>
      <trkpt lat="45.924308" lon="8.934681">
        <ele>324.314796</ele>
        <time>2026-05-02T05:33:52.576Z</time>
      </trkpt>
      <trkpt lat="45.924269" lon="8.934544">
        <ele>324.333363</ele>
        <time>2026-05-02T05:33:54.574Z</time>
      </trkpt>
      <trkpt lat="45.924221" lon="8.934403">
        <ele>324.353052</ele>
        <time>2026-05-02T05:33:56.582Z</time>
      </trkpt>
      <trkpt lat="45.924176" lon="8.934274">
        <ele>324.371153</ele>
        <time>2026-05-02T05:33:58.579Z</time>
      </trkpt>
      <trkpt lat="45.924138" lon="8.934151">
        <ele>324.388034</ele>
        <time>2026-05-02T05:34:00.584Z</time>
      </trkpt>
      <trkpt lat="45.924097" lon="8.934027">
        <ele>324.405254</ele>
        <time>2026-05-02T05:34:02.581Z</time>
      </trkpt>
      <trkpt lat="45.924063" lon="8.933905">
        <ele>324.421739</ele>
        <time>2026-05-02T05:34:04.584Z</time>
      </trkpt>
      <trkpt lat="45.924019" lon="8.933787">
        <ele>324.414253</ele>
        <time>2026-05-02T05:34:06.582Z</time>
      </trkpt>
      <trkpt lat="45.923981" lon="8.933668">
        <ele>324.331704</ele>
        <time>2026-05-02T05:34:08.584Z</time>
      </trkpt>
      <trkpt lat="45.923940" lon="8.933550">
        <ele>324.248548</ele>
        <time>2026-05-02T05:34:10.580Z</time>
      </trkpt>
      <trkpt lat="45.923885" lon="8.933374">
        <ele>324.126907</ele>
        <time>2026-05-02T05:34:13.582Z</time>
      </trkpt>
      <trkpt lat="45.923843" lon="8.933255">
        <ele>324.042780</ele>
        <time>2026-05-02T05:34:15.590Z</time>
      </trkpt>
      <trkpt lat="45.923802" lon="8.933130">
        <ele>323.955654</ele>
        <time>2026-05-02T05:34:17.576Z</time>
      </trkpt>
      <trkpt lat="45.923759" lon="8.932997">
        <ele>323.863191</ele>
        <time>2026-05-02T05:34:19.579Z</time>
      </trkpt>
      <trkpt lat="45.923720" lon="8.932870">
        <ele>323.775670</ele>
        <time>2026-05-02T05:34:21.581Z</time>
      </trkpt>
      <trkpt lat="45.923680" lon="8.932742">
        <ele>323.687204</ele>
        <time>2026-05-02T05:34:23.580Z</time>
      </trkpt>
      <trkpt lat="45.923638" lon="8.932608">
        <ele>323.594545</ele>
        <time>2026-05-02T05:34:25.582Z</time>
      </trkpt>
      <trkpt lat="45.923598" lon="8.932474">
        <ele>323.502615</ele>
        <time>2026-05-02T05:34:27.581Z</time>
      </trkpt>
      <trkpt lat="45.923555" lon="8.932339">
        <ele>323.409007</ele>
        <time>2026-05-02T05:34:29.587Z</time>
      </trkpt>
      <trkpt lat="45.923514" lon="8.932203">
        <ele>323.315560</ele>
        <time>2026-05-02T05:34:31.586Z</time>
      </trkpt>
      <trkpt lat="45.923473" lon="8.932075">
        <ele>323.226719</ele>
        <time>2026-05-02T05:34:34.586Z</time>
      </trkpt>
      <trkpt lat="45.923406" lon="8.931845">
        <ele>323.069515</ele>
        <time>2026-05-02T05:35:45.588Z</time>
      </trkpt>
      <trkpt lat="45.923348" lon="8.931722">
        <ele>322.975833</ele>
        <time>2026-05-02T05:35:49.579Z</time>
      </trkpt>
      <trkpt lat="45.923290" lon="8.931622">
        <ele>322.893748</ele>
        <time>2026-05-02T05:35:53.583Z</time>
      </trkpt>
      <trkpt lat="45.923220" lon="8.931500">
        <ele>322.805482</ele>
        <time>2026-05-02T05:35:58.588Z</time>
      </trkpt>
      <trkpt lat="45.923130" lon="8.931400">
        <ele>322.816546</ele>
        <time>2026-05-02T05:36:03.596Z</time>
      </trkpt>
      <trkpt lat="45.923053" lon="8.931289">
        <ele>322.827152</ele>
        <time>2026-05-02T05:36:06.584Z</time>
      </trkpt>
      <trkpt lat="45.922964" lon="8.931170">
        <ele>322.838974</ele>
        <time>2026-05-02T05:36:09.576Z</time>
      </trkpt>
      <trkpt lat="45.922870" lon="8.931048">
        <ele>322.851291</ele>
        <time>2026-05-02T05:36:12.580Z</time>
      </trkpt>
      <trkpt lat="45.922782" lon="8.930940">
        <ele>322.862545</ele>
        <time>2026-05-02T05:36:15.579Z</time>
      </trkpt>
      <trkpt lat="45.922700" lon="8.930846">
        <ele>322.872746</ele>
        <time>2026-05-02T05:36:18.581Z</time>
      </trkpt>
      <trkpt lat="45.922620" lon="8.930749">
        <ele>322.882926</ele>
        <time>2026-05-02T05:36:21.584Z</time>
      </trkpt>
      <trkpt lat="45.922533" lon="8.930641">
        <ele>322.894106</ele>
        <time>2026-05-02T05:36:24.581Z</time>
      </trkpt>
      <trkpt lat="45.922439" lon="8.930527">
        <ele>322.906068</ele>
        <time>2026-05-02T05:36:27.592Z</time>
      </trkpt>
      <trkpt lat="45.922340" lon="8.930412">
        <ele>322.918447</ele>
        <time>2026-05-02T05:36:30.584Z</time>
      </trkpt>
      <trkpt lat="45.922268" lon="8.930332">
        <ele>322.927298</ele>
        <time>2026-05-02T05:36:32.584Z</time>
      </trkpt>
      <trkpt lat="45.922162" lon="8.930223">
        <ele>322.939974</ele>
        <time>2026-05-02T05:36:35.584Z</time>
      </trkpt>
      <trkpt lat="45.922067" lon="8.930127">
        <ele>322.951269</ele>
        <time>2026-05-02T05:36:38.582Z</time>
      </trkpt>
      <trkpt lat="45.921982" lon="8.930041">
        <ele>322.961379</ele>
        <time>2026-05-02T05:36:41.582Z</time>
      </trkpt>
      <trkpt lat="45.921893" lon="8.929956">
        <ele>322.971772</ele>
        <time>2026-05-02T05:36:44.582Z</time>
      </trkpt>
      <trkpt lat="45.921787" lon="8.929868">
        <ele>323.001586</ele>
        <time>2026-05-02T05:36:47.590Z</time>
      </trkpt>
      <trkpt lat="45.921682" lon="8.929787">
        <ele>323.060763</ele>
        <time>2026-05-02T05:36:50.581Z</time>
      </trkpt>
      <trkpt lat="45.921566" lon="8.929723">
        <ele>323.122466</ele>
        <time>2026-05-02T05:36:53.580Z</time>
      </trkpt>
      <trkpt lat="45.921483" lon="8.929663">
        <ele>323.168603</ele>
        <time>2026-05-02T05:36:56.586Z</time>
      </trkpt>
      <trkpt lat="45.921381" lon="8.929619">
        <ele>323.221488</ele>
        <time>2026-05-02T05:37:02.581Z</time>
      </trkpt>
      <trkpt lat="45.921237" lon="8.929604">
        <ele>323.293187</ele>
        <time>2026-05-02T05:38:46.581Z</time>
      </trkpt>
      <trkpt lat="45.921146" lon="8.929621">
        <ele>323.338758</ele>
        <time>2026-05-02T05:38:49.581Z</time>
      </trkpt>
      <trkpt lat="45.921039" lon="8.929637">
        <ele>323.392181</ele>
        <time>2026-05-02T05:38:52.586Z</time>
      </trkpt>
      <trkpt lat="45.920852" lon="8.929636">
        <ele>323.485047</ele>
        <time>2026-05-02T05:39:57.588Z</time>
      </trkpt>
      <trkpt lat="45.920751" lon="8.929642">
        <ele>323.535247</ele>
        <time>2026-05-02T05:40:00.577Z</time>
      </trkpt>
      <trkpt lat="45.920648" lon="8.929668">
        <ele>323.587180</ele>
        <time>2026-05-02T05:40:03.581Z</time>
      </trkpt>
      <trkpt lat="45.920537" lon="8.929673">
        <ele>323.642331</ele>
        <time>2026-05-02T05:40:06.585Z</time>
      </trkpt>
      <trkpt lat="45.920425" lon="8.929670">
        <ele>323.697960</ele>
        <time>2026-05-02T05:40:09.580Z</time>
      </trkpt>
      <trkpt lat="45.920317" lon="8.929664">
        <ele>323.751633</ele>
        <time>2026-05-02T05:40:12.580Z</time>
      </trkpt>
      <trkpt lat="45.920211" lon="8.929646">
        <ele>323.804640</ele>
        <time>2026-05-02T05:40:15.581Z</time>
      </trkpt>
      <trkpt lat="45.920108" lon="8.929604">
        <ele>323.857808</ele>
        <time>2026-05-02T05:40:18.583Z</time>
      </trkpt>
      <trkpt lat="45.920000" lon="8.929555">
        <ele>323.945226</ele>
        <time>2026-05-02T05:40:21.583Z</time>
      </trkpt>
      <trkpt lat="45.919893" lon="8.929501">
        <ele>324.043830</ele>
        <time>2026-05-02T05:40:24.581Z</time>
      </trkpt>
      <trkpt lat="45.919790" lon="8.929444">
        <ele>324.139797</ele>
        <time>2026-05-02T05:40:27.577Z</time>
      </trkpt>
      <trkpt lat="45.919686" lon="8.929376">
        <ele>324.239141</ele>
        <time>2026-05-02T05:40:30.581Z</time>
      </trkpt>
      <trkpt lat="45.919584" lon="8.929301">
        <ele>324.338761</ele>
        <time>2026-05-02T05:40:33.580Z</time>
      </trkpt>
      <trkpt lat="45.919474" lon="8.929205">
        <ele>324.450654</ele>
        <time>2026-05-02T05:40:36.580Z</time>
      </trkpt>
      <trkpt lat="45.919361" lon="8.929097">
        <ele>324.568645</ele>
        <time>2026-05-02T05:40:39.580Z</time>
      </trkpt>
      <trkpt lat="45.919286" lon="8.929018">
        <ele>324.649492</ele>
        <time>2026-05-02T05:40:41.587Z</time>
      </trkpt>
      <trkpt lat="45.919183" lon="8.928900">
        <ele>324.764015</ele>
        <time>2026-05-02T05:40:44.580Z</time>
      </trkpt>
      <trkpt lat="45.919089" lon="8.928791">
        <ele>324.869028</ele>
        <time>2026-05-02T05:40:47.580Z</time>
      </trkpt>
      <trkpt lat="45.919019" lon="8.928707">
        <ele>324.948315</ele>
        <time>2026-05-02T05:40:50.579Z</time>
      </trkpt>
      <trkpt lat="45.918869" lon="8.928551">
        <ele>325.109298</ele>
        <time>2026-05-02T05:41:29.580Z</time>
      </trkpt>
      <trkpt lat="45.918782" lon="8.928455">
        <ele>325.204664</ele>
        <time>2026-05-02T05:41:32.579Z</time>
      </trkpt>
      <trkpt lat="45.918704" lon="8.928338">
        <ele>325.302687</ele>
        <time>2026-05-02T05:41:35.587Z</time>
      </trkpt>
      <trkpt lat="45.918636" lon="8.928191">
        <ele>325.409471</ele>
        <time>2026-05-02T05:41:38.586Z</time>
      </trkpt>
      <trkpt lat="45.918593" lon="8.928033">
        <ele>325.441234</ele>
        <time>2026-05-02T05:41:41.578Z</time>
      </trkpt>
      <trkpt lat="45.918558" lon="8.927865">
        <ele>325.447922</ele>
        <time>2026-05-02T05:41:44.581Z</time>
      </trkpt>
      <trkpt lat="45.918519" lon="8.927699">
        <ele>325.454603</ele>
        <time>2026-05-02T05:41:47.579Z</time>
      </trkpt>
      <trkpt lat="45.918479" lon="8.927543">
        <ele>325.460942</ele>
        <time>2026-05-02T05:41:50.578Z</time>
      </trkpt>
      <trkpt lat="45.918439" lon="8.927373">
        <ele>325.467785</ele>
        <time>2026-05-02T05:41:53.579Z</time>
      </trkpt>
      <trkpt lat="45.918399" lon="8.927200">
        <ele>325.474737</ele>
        <time>2026-05-02T05:41:56.584Z</time>
      </trkpt>
      <trkpt lat="45.918355" lon="8.927022">
        <ele>325.481940</ele>
        <time>2026-05-02T05:41:59.585Z</time>
      </trkpt>
      <trkpt lat="45.918329" lon="8.926890">
        <ele>325.487171</ele>
        <time>2026-05-02T05:42:01.578Z</time>
      </trkpt>
      <trkpt lat="45.918281" lon="8.926713">
        <ele>325.494415</ele>
        <time>2026-05-02T05:42:04.585Z</time>
      </trkpt>
      <trkpt lat="45.918208" lon="8.926547">
        <ele>325.501904</ele>
        <time>2026-05-02T05:42:07.585Z</time>
      </trkpt>
      <trkpt lat="45.918148" lon="8.926429">
        <ele>325.507477</ele>
        <time>2026-05-02T05:42:09.585Z</time>
      </trkpt>
      <trkpt lat="45.918084" lon="8.926309">
        <ele>325.513243</ele>
        <time>2026-05-02T05:42:11.584Z</time>
      </trkpt>
      <trkpt lat="45.918008" lon="8.926213">
        <ele>325.518788</ele>
        <time>2026-05-02T05:42:13.585Z</time>
      </trkpt>
      <trkpt lat="45.917931" lon="8.926128">
        <ele>325.524110</ele>
        <time>2026-05-02T05:42:15.580Z</time>
      </trkpt>
      <trkpt lat="45.917852" lon="8.926059">
        <ele>325.529177</ele>
        <time>2026-05-02T05:42:17.580Z</time>
      </trkpt>
      <trkpt lat="45.917766" lon="8.925992">
        <ele>325.534538</ele>
        <time>2026-05-02T05:42:19.580Z</time>
      </trkpt>
      <trkpt lat="45.917671" lon="8.925935">
        <ele>325.559179</ele>
        <time>2026-05-02T05:42:21.580Z</time>
      </trkpt>
      <trkpt lat="45.917579" lon="8.925878">
        <ele>325.585017</ele>
        <time>2026-05-02T05:42:23.582Z</time>
      </trkpt>
      <trkpt lat="45.917485" lon="8.925825">
        <ele>325.611059</ele>
        <time>2026-05-02T05:42:25.579Z</time>
      </trkpt>
      <trkpt lat="45.917397" lon="8.925776">
        <ele>325.635398</ele>
        <time>2026-05-02T05:42:27.583Z</time>
      </trkpt>
      <trkpt lat="45.917309" lon="8.925724">
        <ele>325.659937</ele>
        <time>2026-05-02T05:42:29.579Z</time>
      </trkpt>
      <trkpt lat="45.917217" lon="8.925677">
        <ele>325.685119</ele>
        <time>2026-05-02T05:42:31.580Z</time>
      </trkpt>
      <trkpt lat="45.917126" lon="8.925621">
        <ele>325.710649</ele>
        <time>2026-05-02T05:42:33.582Z</time>
      </trkpt>
      <trkpt lat="45.917041" lon="8.925552">
        <ele>325.735826</ele>
        <time>2026-05-02T05:42:35.582Z</time>
      </trkpt>
      <trkpt lat="45.916957" lon="8.925480">
        <ele>325.761050</ele>
        <time>2026-05-02T05:42:37.586Z</time>
      </trkpt>
      <trkpt lat="45.916874" lon="8.925406">
        <ele>325.786240</ele>
        <time>2026-05-02T05:42:39.582Z</time>
      </trkpt>
      <trkpt lat="45.916792" lon="8.925329">
        <ele>325.811501</ele>
        <time>2026-05-02T05:42:41.580Z</time>
      </trkpt>
      <trkpt lat="45.916714" lon="8.925249">
        <ele>325.836214</ele>
        <time>2026-05-02T05:42:43.579Z</time>
      </trkpt>
      <trkpt lat="45.916637" lon="8.925162">
        <ele>325.861474</ele>
        <time>2026-05-02T05:42:45.585Z</time>
      </trkpt>
      <trkpt lat="45.916554" lon="8.925072">
        <ele>325.888289</ele>
        <time>2026-05-02T05:42:47.581Z</time>
      </trkpt>
      <trkpt lat="45.916476" lon="8.924968">
        <ele>325.915728</ele>
        <time>2026-05-02T05:42:49.586Z</time>
      </trkpt>
      <trkpt lat="45.916403" lon="8.924852">
        <ele>325.943794</ele>
        <time>2026-05-02T05:42:51.584Z</time>
      </trkpt>
      <trkpt lat="45.916350" lon="8.924731">
        <ele>325.969449</ele>
        <time>2026-05-02T05:42:53.585Z</time>
      </trkpt>
      <trkpt lat="45.916300" lon="8.924604">
        <ele>325.995633</ele>
        <time>2026-05-02T05:42:55.583Z</time>
      </trkpt>
      <trkpt lat="45.916258" lon="8.924475">
        <ele>326.016343</ele>
        <time>2026-05-02T05:42:57.579Z</time>
      </trkpt>
      <trkpt lat="45.916216" lon="8.924344">
        <ele>326.036587</ele>
        <time>2026-05-02T05:42:59.583Z</time>
      </trkpt>
      <trkpt lat="45.916168" lon="8.924211">
        <ele>326.057616</ele>
        <time>2026-05-02T05:43:01.585Z</time>
      </trkpt>
      <trkpt lat="45.916119" lon="8.924076">
        <ele>326.078988</ele>
        <time>2026-05-02T05:43:03.583Z</time>
      </trkpt>
      <trkpt lat="45.916071" lon="8.923939">
        <ele>326.100517</ele>
        <time>2026-05-02T05:43:05.578Z</time>
      </trkpt>
      <trkpt lat="45.916027" lon="8.923809">
        <ele>326.120807</ele>
        <time>2026-05-02T05:43:07.580Z</time>
      </trkpt>
      <trkpt lat="45.915981" lon="8.923686">
        <ele>326.140406</ele>
        <time>2026-05-02T05:43:09.577Z</time>
      </trkpt>
      <trkpt lat="45.915936" lon="8.923561">
        <ele>326.160160</ele>
        <time>2026-05-02T05:43:11.582Z</time>
      </trkpt>
      <trkpt lat="45.915889" lon="8.923428">
        <ele>326.181097</ele>
        <time>2026-05-02T05:43:13.582Z</time>
      </trkpt>
      <trkpt lat="45.915838" lon="8.923297">
        <ele>326.202166</ele>
        <time>2026-05-02T05:43:15.582Z</time>
      </trkpt>
      <trkpt lat="45.915791" lon="8.923165">
        <ele>326.222978</ele>
        <time>2026-05-02T05:43:17.580Z</time>
      </trkpt>
      <trkpt lat="45.915747" lon="8.923037">
        <ele>326.243017</ele>
        <time>2026-05-02T05:43:19.581Z</time>
      </trkpt>
      <trkpt lat="45.915694" lon="8.922912">
        <ele>326.263562</ele>
        <time>2026-05-02T05:43:21.580Z</time>
      </trkpt>
      <trkpt lat="45.915637" lon="8.922787">
        <ele>326.284539</ele>
        <time>2026-05-02T05:43:23.581Z</time>
      </trkpt>
      <trkpt lat="45.915583" lon="8.922673">
        <ele>326.303896</ele>
        <time>2026-05-02T05:43:25.583Z</time>
      </trkpt>
      <trkpt lat="45.915522" lon="8.922565">
        <ele>326.323420</ele>
        <time>2026-05-02T05:43:27.587Z</time>
      </trkpt>
      <trkpt lat="45.915457" lon="8.922450">
        <ele>326.344216</ele>
        <time>2026-05-02T05:43:29.581Z</time>
      </trkpt>
      <trkpt lat="45.915389" lon="8.922339">
        <ele>326.366100</ele>
        <time>2026-05-02T05:43:31.579Z</time>
      </trkpt>
      <trkpt lat="45.915328" lon="8.922228">
        <ele>326.392982</ele>
        <time>2026-05-02T05:43:33.582Z</time>
      </trkpt>
      <trkpt lat="45.915273" lon="8.922114">
        <ele>326.419346</ele>
        <time>2026-05-02T05:43:35.584Z</time>
      </trkpt>
      <trkpt lat="45.915222" lon="8.922000">
        <ele>326.445104</ele>
        <time>2026-05-02T05:43:37.579Z</time>
      </trkpt>
      <trkpt lat="45.915163" lon="8.921833">
        <ele>326.480700</ele>
        <time>2026-05-02T05:43:40.578Z</time>
      </trkpt>
      <trkpt lat="45.915126" lon="8.921682">
        <ele>326.511124</ele>
        <time>2026-05-02T05:43:43.584Z</time>
      </trkpt>
      <trkpt lat="45.915103" lon="8.921539">
        <ele>326.539018</ele>
        <time>2026-05-02T05:43:46.586Z</time>
      </trkpt>
      <trkpt lat="45.915084" lon="8.921367">
        <ele>326.572115</ele>
        <time>2026-05-02T05:43:49.585Z</time>
      </trkpt>
      <trkpt lat="45.915071" lon="8.921184">
        <ele>326.607074</ele>
        <time>2026-05-02T05:43:52.585Z</time>
      </trkpt>
      <trkpt lat="45.915056" lon="8.920997">
        <ele>326.642848</ele>
        <time>2026-05-02T05:43:55.584Z</time>
      </trkpt>
      <trkpt lat="45.915035" lon="8.920813">
        <ele>326.678284</ele>
        <time>2026-05-02T05:43:58.579Z</time>
      </trkpt>
      <trkpt lat="45.915019" lon="8.920626">
        <ele>326.714091</ele>
        <time>2026-05-02T05:44:01.592Z</time>
      </trkpt>
      <trkpt lat="45.915002" lon="8.920442">
        <ele>326.749366</ele>
        <time>2026-05-02T05:44:04.582Z</time>
      </trkpt>
      <trkpt lat="45.914984" lon="8.920315">
        <ele>326.773998</ele>
        <time>2026-05-02T05:44:06.581Z</time>
      </trkpt>
      <trkpt lat="45.914967" lon="8.920180">
        <ele>326.800071</ele>
        <time>2026-05-02T05:44:08.576Z</time>
      </trkpt>
      <trkpt lat="45.914947" lon="8.920042">
        <ele>326.826860</ele>
        <time>2026-05-02T05:44:10.582Z</time>
      </trkpt>
      <trkpt lat="45.914911" lon="8.919904">
        <ele>326.852154</ele>
        <time>2026-05-02T05:44:12.582Z</time>
      </trkpt>
      <trkpt lat="45.914864" lon="8.919774">
        <ele>326.836769</ele>
        <time>2026-05-02T05:44:14.581Z</time>
      </trkpt>
      <trkpt lat="45.914817" lon="8.919647">
        <ele>326.821662</ele>
        <time>2026-05-02T05:44:16.580Z</time>
      </trkpt>
      <trkpt lat="45.914768" lon="8.919522">
        <ele>326.806595</ele>
        <time>2026-05-02T05:44:18.583Z</time>
      </trkpt>
      <trkpt lat="45.914713" lon="8.919399">
        <ele>326.791241</ele>
        <time>2026-05-02T05:44:20.582Z</time>
      </trkpt>
      <trkpt lat="45.914660" lon="8.919270">
        <ele>326.775508</ele>
        <time>2026-05-02T05:44:22.588Z</time>
      </trkpt>
      <trkpt lat="45.914611" lon="8.919145">
        <ele>326.760441</ele>
        <time>2026-05-02T05:44:24.588Z</time>
      </trkpt>
      <trkpt lat="45.914559" lon="8.919024">
        <ele>326.745506</ele>
        <time>2026-05-02T05:44:26.588Z</time>
      </trkpt>
      <trkpt lat="45.914517" lon="8.918909">
        <ele>326.731866</ele>
        <time>2026-05-02T05:44:28.581Z</time>
      </trkpt>
      <trkpt lat="45.914466" lon="8.918793">
        <ele>326.717456</ele>
        <time>2026-05-02T05:44:30.580Z</time>
      </trkpt>
      <trkpt lat="45.914409" lon="8.918685">
        <ele>326.703221</ele>
        <time>2026-05-02T05:44:32.579Z</time>
      </trkpt>
      <trkpt lat="45.914343" lon="8.918593">
        <ele>326.689343</ele>
        <time>2026-05-02T05:44:34.579Z</time>
      </trkpt>
      <trkpt lat="45.914272" lon="8.918511">
        <ele>326.675595</ele>
        <time>2026-05-02T05:44:36.578Z</time>
      </trkpt>
      <trkpt lat="45.914199" lon="8.918420">
        <ele>326.661010</ele>
        <time>2026-05-02T05:44:38.582Z</time>
      </trkpt>
      <trkpt lat="45.914121" lon="8.918333">
        <ele>326.646107</ele>
        <time>2026-05-02T05:44:40.585Z</time>
      </trkpt>
      <trkpt lat="45.914042" lon="8.918234">
        <ele>326.630287</ele>
        <time>2026-05-02T05:44:42.580Z</time>
      </trkpt>
      <trkpt lat="45.913970" lon="8.918144">
        <ele>326.615884</ele>
        <time>2026-05-02T05:44:44.580Z</time>
      </trkpt>
      <trkpt lat="45.913897" lon="8.918050">
        <ele>326.601091</ele>
        <time>2026-05-02T05:44:46.597Z</time>
      </trkpt>
      <trkpt lat="45.913820" lon="8.917959">
        <ele>326.586044</ele>
        <time>2026-05-02T05:44:48.578Z</time>
      </trkpt>
      <trkpt lat="45.913761" lon="8.917845">
        <ele>326.644762</ele>
        <time>2026-05-02T05:44:50.584Z</time>
      </trkpt>
      <trkpt lat="45.913725" lon="8.917716">
        <ele>326.732453</ele>
        <time>2026-05-02T05:44:52.584Z</time>
      </trkpt>
      <trkpt lat="45.913698" lon="8.917584">
        <ele>326.819258</ele>
        <time>2026-05-02T05:44:54.584Z</time>
      </trkpt>
      <trkpt lat="45.913672" lon="8.917455">
        <ele>326.903992</ele>
        <time>2026-05-02T05:44:56.590Z</time>
      </trkpt>
      <trkpt lat="45.913644" lon="8.917330">
        <ele>326.986843</ele>
        <time>2026-05-02T05:44:58.583Z</time>
      </trkpt>
      <trkpt lat="45.913627" lon="8.917199">
        <ele>327.070918</ele>
        <time>2026-05-02T05:45:00.583Z</time>
      </trkpt>
      <trkpt lat="45.913637" lon="8.917025">
        <ele>327.181071</ele>
        <time>2026-05-02T05:45:03.584Z</time>
      </trkpt>
      <trkpt lat="45.913542" lon="8.916782">
        <ele>327.356929</ele>
        <time>2026-05-02T05:45:38.580Z</time>
      </trkpt>
      <trkpt lat="45.913488" lon="8.916620">
        <ele>327.470262</ele>
        <time>2026-05-02T05:45:42.585Z</time>
      </trkpt>
      <trkpt lat="45.913433" lon="8.916457">
        <ele>327.584558</ele>
        <time>2026-05-02T05:45:45.578Z</time>
      </trkpt>
      <trkpt lat="45.913388" lon="8.916343">
        <ele>327.667252</ele>
        <time>2026-05-02T05:45:47.584Z</time>
      </trkpt>
      <trkpt lat="45.913329" lon="8.916177">
        <ele>327.784859</ele>
        <time>2026-05-02T05:45:50.582Z</time>
      </trkpt>
      <trkpt lat="45.913284" lon="8.916004">
        <ele>327.901386</ele>
        <time>2026-05-02T05:45:53.582Z</time>
      </trkpt>
      <trkpt lat="45.913244" lon="8.915818">
        <ele>328.024215</ele>
        <time>2026-05-02T05:45:56.590Z</time>
      </trkpt>
      <trkpt lat="45.913219" lon="8.915687">
        <ele>328.109918</ele>
        <time>2026-05-02T05:45:58.582Z</time>
      </trkpt>
      <trkpt lat="45.913197" lon="8.915558">
        <ele>328.193716</ele>
        <time>2026-05-02T05:46:00.587Z</time>
      </trkpt>
      <trkpt lat="45.913175" lon="8.915431">
        <ele>328.255379</ele>
        <time>2026-05-02T05:46:02.577Z</time>
      </trkpt>
      <trkpt lat="45.913148" lon="8.915296">
        <ele>328.314871</ele>
        <time>2026-05-02T05:46:04.584Z</time>
      </trkpt>
      <trkpt lat="45.913117" lon="8.915156">
        <ele>328.377095</ele>
        <time>2026-05-02T05:46:06.582Z</time>
      </trkpt>
      <trkpt lat="45.913087" lon="8.915016">
        <ele>328.439137</ele>
        <time>2026-05-02T05:46:08.581Z</time>
      </trkpt>
      <trkpt lat="45.913062" lon="8.914876">
        <ele>328.500352</ele>
        <time>2026-05-02T05:46:10.581Z</time>
      </trkpt>
      <trkpt lat="45.913035" lon="8.914740">
        <ele>328.560251</ele>
        <time>2026-05-02T05:46:12.579Z</time>
      </trkpt>
      <trkpt lat="45.913005" lon="8.914596">
        <ele>328.623914</ele>
        <time>2026-05-02T05:46:14.581Z</time>
      </trkpt>
      <trkpt lat="45.912975" lon="8.914450">
        <ele>328.688389</ele>
        <time>2026-05-02T05:46:16.579Z</time>
      </trkpt>
      <trkpt lat="45.912948" lon="8.914308">
        <ele>328.750736</ele>
        <time>2026-05-02T05:46:18.587Z</time>
      </trkpt>
      <trkpt lat="45.912918" lon="8.914166">
        <ele>328.813588</ele>
        <time>2026-05-02T05:46:20.580Z</time>
      </trkpt>
      <trkpt lat="45.912886" lon="8.914026">
        <ele>328.876000</ele>
        <time>2026-05-02T05:46:22.579Z</time>
      </trkpt>
      <trkpt lat="45.912856" lon="8.913884">
        <ele>328.938852</ele>
        <time>2026-05-02T05:46:24.579Z</time>
      </trkpt>
      <trkpt lat="45.912823" lon="8.913745">
        <ele>329.001055</ele>
        <time>2026-05-02T05:46:26.580Z</time>
      </trkpt>
      <trkpt lat="45.912788" lon="8.913599">
        <ele>329.066458</ele>
        <time>2026-05-02T05:46:28.587Z</time>
      </trkpt>
      <trkpt lat="45.912761" lon="8.913458">
        <ele>329.128396</ele>
        <time>2026-05-02T05:46:30.580Z</time>
      </trkpt>
      <trkpt lat="45.912740" lon="8.913312">
        <ele>329.191539</ele>
        <time>2026-05-02T05:46:32.581Z</time>
      </trkpt>
      <trkpt lat="45.912718" lon="8.913172">
        <ele>329.252326</ele>
        <time>2026-05-02T05:46:34.593Z</time>
      </trkpt>
      <trkpt lat="45.912696" lon="8.913036">
        <ele>329.294895</ele>
        <time>2026-05-02T05:46:36.581Z</time>
      </trkpt>
      <trkpt lat="45.912674" lon="8.912896">
        <ele>329.096675</ele>
        <time>2026-05-02T05:46:38.583Z</time>
      </trkpt>
      <trkpt lat="45.912655" lon="8.912752">
        <ele>328.894256</ele>
        <time>2026-05-02T05:46:40.581Z</time>
      </trkpt>
      <trkpt lat="45.912638" lon="8.912606">
        <ele>328.689815</ele>
        <time>2026-05-02T05:46:42.584Z</time>
      </trkpt>
      <trkpt lat="45.912623" lon="8.912455">
        <ele>328.479158</ele>
        <time>2026-05-02T05:46:44.584Z</time>
      </trkpt>
      <trkpt lat="45.912608" lon="8.912310">
        <ele>328.276701</ele>
        <time>2026-05-02T05:46:46.584Z</time>
      </trkpt>
      <trkpt lat="45.912586" lon="8.912162">
        <ele>328.067690</ele>
        <time>2026-05-02T05:46:48.583Z</time>
      </trkpt>
      <trkpt lat="45.912570" lon="8.912021">
        <ele>327.870385</ele>
        <time>2026-05-02T05:46:50.583Z</time>
      </trkpt>
      <trkpt lat="45.912555" lon="8.911870">
        <ele>327.659728</ele>
        <time>2026-05-02T05:46:52.583Z</time>
      </trkpt>
      <trkpt lat="45.912542" lon="8.911723">
        <ele>327.455077</ele>
        <time>2026-05-02T05:46:54.581Z</time>
      </trkpt>
      <trkpt lat="45.912509" lon="8.911585">
        <ele>327.253546</ele>
        <time>2026-05-02T05:46:56.580Z</time>
      </trkpt>
      <trkpt lat="45.912459" lon="8.911470">
        <ele>327.066261</ele>
        <time>2026-05-02T05:46:58.581Z</time>
      </trkpt>
      <trkpt lat="45.912397" lon="8.911363">
        <ele>326.873949</ele>
        <time>2026-05-02T05:47:00.581Z</time>
      </trkpt>
      <trkpt lat="45.912323" lon="8.911263">
        <ele>326.672330</ele>
        <time>2026-05-02T05:47:02.581Z</time>
      </trkpt>
      <trkpt lat="45.912232" lon="8.911189">
        <ele>326.464787</ele>
        <time>2026-05-02T05:47:04.583Z</time>
      </trkpt>
      <trkpt lat="45.912129" lon="8.911158">
        <ele>326.255898</ele>
        <time>2026-05-02T05:47:06.580Z</time>
      </trkpt>
      <trkpt lat="45.912024" lon="8.911142">
        <ele>326.046305</ele>
        <time>2026-05-02T05:47:08.581Z</time>
      </trkpt>
      <trkpt lat="45.911921" lon="8.911129">
        <ele>325.841063</ele>
        <time>2026-05-02T05:47:10.580Z</time>
      </trkpt>
      <trkpt lat="45.911815" lon="8.911129">
        <ele>325.795838</ele>
        <time>2026-05-02T05:47:12.579Z</time>
      </trkpt>
      <trkpt lat="45.911712" lon="8.911123">
        <ele>325.908249</ele>
        <time>2026-05-02T05:47:14.581Z</time>
      </trkpt>
      <trkpt lat="45.911616" lon="8.911110">
        <ele>326.013398</ele>
        <time>2026-05-02T05:47:16.580Z</time>
      </trkpt>
      <trkpt lat="45.911516" lon="8.911097">
        <ele>326.122890</ele>
        <time>2026-05-02T05:47:18.579Z</time>
      </trkpt>
      <trkpt lat="45.911415" lon="8.911071">
        <ele>326.234780</ele>
        <time>2026-05-02T05:47:20.580Z</time>
      </trkpt>
      <trkpt lat="45.911316" lon="8.911029">
        <ele>326.347342</ele>
        <time>2026-05-02T05:47:22.579Z</time>
      </trkpt>
      <trkpt lat="45.911214" lon="8.910989">
        <ele>326.462636</ele>
        <time>2026-05-02T05:47:24.588Z</time>
      </trkpt>
      <trkpt lat="45.911116" lon="8.910949">
        <ele>326.573728</ele>
        <time>2026-05-02T05:47:26.594Z</time>
      </trkpt>
      <trkpt lat="45.911021" lon="8.910913">
        <ele>326.680863</ele>
        <time>2026-05-02T05:47:28.577Z</time>
      </trkpt>
      <trkpt lat="45.910927" lon="8.910867">
        <ele>326.789147</ele>
        <time>2026-05-02T05:47:30.579Z</time>
      </trkpt>
      <trkpt lat="45.910837" lon="8.910819">
        <ele>326.893828</ele>
        <time>2026-05-02T05:47:32.581Z</time>
      </trkpt>
      <trkpt lat="45.910752" lon="8.910774">
        <ele>326.992607</ele>
        <time>2026-05-02T05:47:34.581Z</time>
      </trkpt>
      <trkpt lat="45.910662" lon="8.910725">
        <ele>327.097555</ele>
        <time>2026-05-02T05:47:36.583Z</time>
      </trkpt>
      <trkpt lat="45.910580" lon="8.910658">
        <ele>327.200414</ele>
        <time>2026-05-02T05:47:38.579Z</time>
      </trkpt>
      <trkpt lat="45.910500" lon="8.910594">
        <ele>327.300255</ele>
        <time>2026-05-02T05:47:40.585Z</time>
      </trkpt>
      <trkpt lat="45.910416" lon="8.910531">
        <ele>327.403577</ele>
        <time>2026-05-02T05:47:42.585Z</time>
      </trkpt>
      <trkpt lat="45.910332" lon="8.910469">
        <ele>327.506550</ele>
        <time>2026-05-02T05:47:44.578Z</time>
      </trkpt>
      <trkpt lat="45.910247" lon="8.910403">
        <ele>327.611902</ele>
        <time>2026-05-02T05:47:46.579Z</time>
      </trkpt>
      <trkpt lat="45.910162" lon="8.910342">
        <ele>327.658502</ele>
        <time>2026-05-02T05:47:48.581Z</time>
      </trkpt>
      <trkpt lat="45.910074" lon="8.910275">
        <ele>327.400078</ele>
        <time>2026-05-02T05:47:50.583Z</time>
      </trkpt>
      <trkpt lat="45.909992" lon="8.910213">
        <ele>327.159637</ele>
        <time>2026-05-02T05:47:52.582Z</time>
      </trkpt>
      <trkpt lat="45.909905" lon="8.910159">
        <ele>326.913718</ele>
        <time>2026-05-02T05:47:54.590Z</time>
      </trkpt>
      <trkpt lat="45.909820" lon="8.910093">
        <ele>326.663010</ele>
        <time>2026-05-02T05:47:56.582Z</time>
      </trkpt>
      <trkpt lat="45.909817" lon="8.909941">
        <ele>326.388452</ele>
        <time>2026-05-02T05:48:01.583Z</time>
      </trkpt>
      <trkpt lat="45.909883" lon="8.909807">
        <ele>326.092020</ele>
        <time>2026-05-02T05:48:04.582Z</time>
      </trkpt>
      <trkpt lat="45.909958" lon="8.909678">
        <ele>325.788490</ele>
        <time>2026-05-02T05:48:07.580Z</time>
      </trkpt>
      <trkpt lat="45.910023" lon="8.909564">
        <ele>325.522371</ele>
        <time>2026-05-02T05:48:10.580Z</time>
      </trkpt>
      <trkpt lat="45.910065" lon="8.909443">
        <ele>325.278220</ele>
        <time>2026-05-02T05:48:15.588Z</time>
      </trkpt>
      <trkpt lat="45.910027" lon="8.909283">
        <ele>324.972963</ele>
        <time>2026-05-02T05:48:19.582Z</time>
      </trkpt>
      <trkpt lat="45.910021" lon="8.909135">
        <ele>324.705285</ele>
        <time>2026-05-02T05:48:22.588Z</time>
      </trkpt>
      <trkpt lat="45.910016" lon="8.908978">
        <ele>324.421514</ele>
        <time>2026-05-02T05:48:25.579Z</time>
      </trkpt>
      <trkpt lat="45.910015" lon="8.908832">
        <ele>324.157888</ele>
        <time>2026-05-02T05:48:28.584Z</time>
      </trkpt>
      <trkpt lat="45.910004" lon="8.908671">
        <ele>323.865793</ele>
        <time>2026-05-02T05:48:31.586Z</time>
      </trkpt>
      <trkpt lat="45.909947" lon="8.908550">
        <ele>323.601956</ele>
        <time>2026-05-02T05:48:34.584Z</time>
      </trkpt>
      <trkpt lat="45.909851" lon="8.908505">
        <ele>323.339921</ele>
        <time>2026-05-02T05:48:37.584Z</time>
      </trkpt>
      <trkpt lat="45.909739" lon="8.908520">
        <ele>323.048021</ele>
        <time>2026-05-02T05:48:40.582Z</time>
      </trkpt>
      <trkpt lat="45.909635" lon="8.908544">
        <ele>322.995699</ele>
        <time>2026-05-02T05:48:43.584Z</time>
      </trkpt>
      <trkpt lat="45.909531" lon="8.908560">
        <ele>322.958178</ele>
        <time>2026-05-02T05:48:46.583Z</time>
      </trkpt>
      <trkpt lat="45.909427" lon="8.908533">
        <ele>322.920266</ele>
        <time>2026-05-02T05:48:49.586Z</time>
      </trkpt>
      <trkpt lat="45.909349" lon="8.908451">
        <ele>322.885599</ele>
        <time>2026-05-02T05:48:52.583Z</time>
      </trkpt>
      <trkpt lat="45.909274" lon="8.908356">
        <ele>322.849736</ele>
        <time>2026-05-02T05:48:55.583Z</time>
      </trkpt>
      <trkpt lat="45.909185" lon="8.908238">
        <ele>322.806299</ele>
        <time>2026-05-02T05:48:58.582Z</time>
      </trkpt>
      <trkpt lat="45.909095" lon="8.908131">
        <ele>322.764398</ele>
        <time>2026-05-02T05:49:01.582Z</time>
      </trkpt>
      <trkpt lat="45.909012" lon="8.908015">
        <ele>322.722867</ele>
        <time>2026-05-02T05:49:04.580Z</time>
      </trkpt>
      <trkpt lat="45.908916" lon="8.907898">
        <ele>322.677713</ele>
        <time>2026-05-02T05:49:07.582Z</time>
      </trkpt>
      <trkpt lat="45.908828" lon="8.907788">
        <ele>322.635875</ele>
        <time>2026-05-02T05:49:10.582Z</time>
      </trkpt>
      <trkpt lat="45.908738" lon="8.907671">
        <ele>322.592341</ele>
        <time>2026-05-02T05:49:13.587Z</time>
      </trkpt>
      <trkpt lat="45.908646" lon="8.907562">
        <ele>322.549570</ele>
        <time>2026-05-02T05:49:16.584Z</time>
      </trkpt>
      <trkpt lat="45.908553" lon="8.907461">
        <ele>322.507754</ele>
        <time>2026-05-02T05:49:19.581Z</time>
      </trkpt>
      <trkpt lat="45.908454" lon="8.907403">
        <ele>322.469402</ele>
        <time>2026-05-02T05:49:22.585Z</time>
      </trkpt>
      <trkpt lat="45.908346" lon="8.907354">
        <ele>322.428775</ele>
        <time>2026-05-02T05:49:25.578Z</time>
      </trkpt>
      <trkpt lat="45.908228" lon="8.907300">
        <ele>322.384997</ele>
        <time>2026-05-02T05:49:28.581Z</time>
      </trkpt>
      <trkpt lat="45.908106" lon="8.907235">
        <ele>322.357448</ele>
        <time>2026-05-02T05:49:31.579Z</time>
      </trkpt>
      <trkpt lat="45.907993" lon="8.907168">
        <ele>322.331566</ele>
        <time>2026-05-02T05:49:34.583Z</time>
      </trkpt>
      <trkpt lat="45.907872" lon="8.907108">
        <ele>322.304465</ele>
        <time>2026-05-02T05:49:37.591Z</time>
      </trkpt>
      <trkpt lat="45.907761" lon="8.907037">
        <ele>322.278740</ele>
        <time>2026-05-02T05:49:40.579Z</time>
      </trkpt>
      <trkpt lat="45.907647" lon="8.906978">
        <ele>322.253085</ele>
        <time>2026-05-02T05:49:43.581Z</time>
      </trkpt>
      <trkpt lat="45.907525" lon="8.906915">
        <ele>322.225638</ele>
        <time>2026-05-02T05:49:46.597Z</time>
      </trkpt>
      <trkpt lat="45.907408" lon="8.906846">
        <ele>322.198861</ele>
        <time>2026-05-02T05:49:49.584Z</time>
      </trkpt>
      <trkpt lat="45.907299" lon="8.906747">
        <ele>322.171560</ele>
        <time>2026-05-02T05:49:52.581Z</time>
      </trkpt>
      <trkpt lat="45.907225" lon="8.906606">
        <ele>322.145540</ele>
        <time>2026-05-02T05:49:55.583Z</time>
      </trkpt>
      <trkpt lat="45.907172" lon="8.906449">
        <ele>322.119832</ele>
        <time>2026-05-02T05:49:58.586Z</time>
      </trkpt>
      <trkpt lat="45.907146" lon="8.906275">
        <ele>322.093612</ele>
        <time>2026-05-02T05:50:01.582Z</time>
      </trkpt>
      <trkpt lat="45.907103" lon="8.906103">
        <ele>322.066686</ele>
        <time>2026-05-02T05:50:04.580Z</time>
      </trkpt>
      <trkpt lat="45.907034" lon="8.905950">
        <ele>322.039825</ele>
        <time>2026-05-02T05:50:07.581Z</time>
      </trkpt>
      <trkpt lat="45.906936" lon="8.905909">
        <ele>322.018214</ele>
        <time>2026-05-02T05:50:10.581Z</time>
      </trkpt>
      <trkpt lat="45.906814" lon="8.905912">
        <ele>321.980396</ele>
        <time>2026-05-02T05:50:13.583Z</time>
      </trkpt>
      <trkpt lat="45.906683" lon="8.905909">
        <ele>321.926526</ele>
        <time>2026-05-02T05:50:16.584Z</time>
      </trkpt>
      <trkpt lat="45.906560" lon="8.905904">
        <ele>321.875932</ele>
        <time>2026-05-02T05:50:19.585Z</time>
      </trkpt>
      <trkpt lat="45.906434" lon="8.905905">
        <ele>321.824124</ele>
        <time>2026-05-02T05:50:22.586Z</time>
      </trkpt>
      <trkpt lat="45.906305" lon="8.905912">
        <ele>321.771046</ele>
        <time>2026-05-02T05:50:25.585Z</time>
      </trkpt>
      <trkpt lat="45.906174" lon="8.905933">
        <ele>321.716849</ele>
        <time>2026-05-02T05:50:28.585Z</time>
      </trkpt>
      <trkpt lat="45.906052" lon="8.905962">
        <ele>321.666005</ele>
        <time>2026-05-02T05:50:31.586Z</time>
      </trkpt>
      <trkpt lat="45.905923" lon="8.905990">
        <ele>321.612362</ele>
        <time>2026-05-02T05:50:34.584Z</time>
      </trkpt>
      <trkpt lat="45.905798" lon="8.905987">
        <ele>321.560959</ele>
        <time>2026-05-02T05:50:37.596Z</time>
      </trkpt>
      <trkpt lat="45.905673" lon="8.905953">
        <ele>321.508651</ele>
        <time>2026-05-02T05:50:40.580Z</time>
      </trkpt>
      <trkpt lat="45.905547" lon="8.905922">
        <ele>321.456090</ele>
        <time>2026-05-02T05:50:43.580Z</time>
      </trkpt>
      <trkpt lat="45.905423" lon="8.905899">
        <ele>321.404682</ele>
        <time>2026-05-02T05:50:46.581Z</time>
      </trkpt>
      <trkpt lat="45.905304" lon="8.905886">
        <ele>321.355612</ele>
        <time>2026-05-02T05:50:49.581Z</time>
      </trkpt>
      <trkpt lat="45.905193" lon="8.905882">
        <ele>321.309958</ele>
        <time>2026-05-02T05:50:52.581Z</time>
      </trkpt>
      <trkpt lat="45.905091" lon="8.905890">
        <ele>321.267956</ele>
        <time>2026-05-02T05:50:55.581Z</time>
      </trkpt>
      <trkpt lat="45.904999" lon="8.905916">
        <ele>321.302716</ele>
        <time>2026-05-02T05:50:58.582Z</time>
      </trkpt>
      <trkpt lat="45.904911" lon="8.905948">
        <ele>321.341081</ele>
        <time>2026-05-02T05:51:03.588Z</time>
      </trkpt>
      <trkpt lat="45.904812" lon="8.905885">
        <ele>321.386842</ele>
        <time>2026-05-02T05:51:09.582Z</time>
      </trkpt>
      <trkpt lat="45.904725" lon="8.905844">
        <ele>321.425539</ele>
        <time>2026-05-02T05:51:12.580Z</time>
      </trkpt>
      <trkpt lat="45.904634" lon="8.905856">
        <ele>321.464161</ele>
        <time>2026-05-02T05:51:15.580Z</time>
      </trkpt>
      <trkpt lat="45.904538" lon="8.905916">
        <ele>321.508406</ele>
        <time>2026-05-02T05:51:19.584Z</time>
      </trkpt>
      <trkpt lat="45.904430" lon="8.905906">
        <ele>321.554146</ele>
        <time>2026-05-02T05:51:23.584Z</time>
      </trkpt>
      <trkpt lat="45.904347" lon="8.905796">
        <ele>321.601866</ele>
        <time>2026-05-02T05:51:27.579Z</time>
      </trkpt>
      <trkpt lat="45.904240" lon="8.905724">
        <ele>321.651801</ele>
        <time>2026-05-02T05:51:31.582Z</time>
      </trkpt>
      <trkpt lat="45.904136" lon="8.905664">
        <ele>321.699166</ele>
        <time>2026-05-02T05:51:35.582Z</time>
      </trkpt>
      <trkpt lat="45.904033" lon="8.905601">
        <ele>321.746477</ele>
        <time>2026-05-02T05:51:39.583Z</time>
      </trkpt>
      <trkpt lat="45.903932" lon="8.905538">
        <ele>321.793012</ele>
        <time>2026-05-02T05:51:43.582Z</time>
      </trkpt>
      <trkpt lat="45.903830" lon="8.905474">
        <ele>321.840052</ele>
        <time>2026-05-02T05:51:47.588Z</time>
      </trkpt>
      <trkpt lat="45.903726" lon="8.905396">
        <ele>321.889633</ele>
        <time>2026-05-02T05:51:51.582Z</time>
      </trkpt>
      <trkpt lat="45.903623" lon="8.905323">
        <ele>321.938172</ele>
        <time>2026-05-02T05:51:55.580Z</time>
      </trkpt>
      <trkpt lat="45.903521" lon="8.905251">
        <ele>321.986202</ele>
        <time>2026-05-02T05:51:59.586Z</time>
      </trkpt>
      <trkpt lat="45.903437" lon="8.905156">
        <ele>322.052963</ele>
        <time>2026-05-02T05:52:03.582Z</time>
      </trkpt>
      <trkpt lat="45.903346" lon="8.905055">
        <ele>322.287630</ele>
        <time>2026-05-02T05:52:07.585Z</time>
      </trkpt>
      <trkpt lat="45.903275" lon="8.904915">
        <ele>322.533661</ele>
        <time>2026-05-02T05:52:11.581Z</time>
      </trkpt>
      <trkpt lat="45.903217" lon="8.904808">
        <ele>322.726287</ele>
        <time>2026-05-02T05:52:14.578Z</time>
      </trkpt>
      <trkpt lat="45.903152" lon="8.904676">
        <ele>322.955946</ele>
        <time>2026-05-02T05:52:18.579Z</time>
      </trkpt>
      <trkpt lat="45.903090" lon="8.904552">
        <ele>323.172799</ele>
        <time>2026-05-02T05:52:22.583Z</time>
      </trkpt>
      <trkpt lat="45.903030" lon="8.904426">
        <ele>323.389635</ele>
        <time>2026-05-02T05:52:26.581Z</time>
      </trkpt>
      <trkpt lat="45.903007" lon="8.904296">
        <ele>323.580138</ele>
        <time>2026-05-02T05:52:31.581Z</time>
      </trkpt>
      <trkpt lat="45.902931" lon="8.904175">
        <ele>323.811634</ele>
        <time>2026-05-02T05:55:29.580Z</time>
      </trkpt>
      <trkpt lat="45.902830" lon="8.904136">
        <ele>324.025078</ele>
        <time>2026-05-02T05:55:34.582Z</time>
      </trkpt>
      <trkpt lat="45.902725" lon="8.904104">
        <ele>324.244141</ele>
        <time>2026-05-02T05:55:39.587Z</time>
      </trkpt>
      <trkpt lat="45.902626" lon="8.904062">
        <ele>324.454813</ele>
        <time>2026-05-02T05:55:45.580Z</time>
      </trkpt>
      <trkpt lat="45.902539" lon="8.904028">
        <ele>324.638822</ele>
        <time>2026-05-02T05:55:49.583Z</time>
      </trkpt>
      <trkpt lat="45.902442" lon="8.903979">
        <ele>324.848666</ele>
        <time>2026-05-02T05:55:53.582Z</time>
      </trkpt>
      <trkpt lat="45.902348" lon="8.903898">
        <ele>325.072360</ele>
        <time>2026-05-02T05:55:57.583Z</time>
      </trkpt>
      <trkpt lat="45.902261" lon="8.903824">
        <ele>325.278692</ele>
        <time>2026-05-02T05:56:00.576Z</time>
      </trkpt>
      <trkpt lat="45.902164" lon="8.903736">
        <ele>325.512812</ele>
        <time>2026-05-02T05:56:04.587Z</time>
      </trkpt>
      <trkpt lat="45.902071" lon="8.903676">
        <ele>325.710992</ele>
        <time>2026-05-02T05:56:08.581Z</time>
      </trkpt>
      <trkpt lat="45.901983" lon="8.903619">
        <ele>325.827739</ele>
        <time>2026-05-02T05:56:11.583Z</time>
      </trkpt>
      <trkpt lat="45.901881" lon="8.903562">
        <ele>325.960105</ele>
        <time>2026-05-02T05:56:14.581Z</time>
      </trkpt>
      <trkpt lat="45.901769" lon="8.903491">
        <ele>326.108161</ele>
        <time>2026-05-02T05:56:17.582Z</time>
      </trkpt>
      <trkpt lat="45.901663" lon="8.903418">
        <ele>326.250328</ele>
        <time>2026-05-02T05:56:20.580Z</time>
      </trkpt>
      <trkpt lat="45.901554" lon="8.903335">
        <ele>326.399526</ele>
        <time>2026-05-02T05:56:23.578Z</time>
      </trkpt>
      <trkpt lat="45.901453" lon="8.903253">
        <ele>326.539831</ele>
        <time>2026-05-02T05:56:26.588Z</time>
      </trkpt>
      <trkpt lat="45.901353" lon="8.903145">
        <ele>326.691129</ele>
        <time>2026-05-02T05:56:29.587Z</time>
      </trkpt>
      <trkpt lat="45.901267" lon="8.903023">
        <ele>326.837290</ele>
        <time>2026-05-02T05:56:32.580Z</time>
      </trkpt>
      <trkpt lat="45.901180" lon="8.902901">
        <ele>326.984314</ele>
        <time>2026-05-02T05:56:35.577Z</time>
      </trkpt>
      <trkpt lat="45.901099" lon="8.902782">
        <ele>327.124419</ele>
        <time>2026-05-02T05:56:38.580Z</time>
      </trkpt>
      <trkpt lat="45.901018" lon="8.902656">
        <ele>327.268795</ele>
        <time>2026-05-02T05:56:41.581Z</time>
      </trkpt>
      <trkpt lat="45.900941" lon="8.902535">
        <ele>327.406799</ele>
        <time>2026-05-02T05:56:44.578Z</time>
      </trkpt>
      <trkpt lat="45.900863" lon="8.902404">
        <ele>327.551909</ele>
        <time>2026-05-02T05:56:47.591Z</time>
      </trkpt>
      <trkpt lat="45.900784" lon="8.902268">
        <ele>327.701014</ele>
        <time>2026-05-02T05:56:50.582Z</time>
      </trkpt>
      <trkpt lat="45.900710" lon="8.902127">
        <ele>327.849656</ele>
        <time>2026-05-02T05:56:53.574Z</time>
      </trkpt>
      <trkpt lat="45.900628" lon="8.901987">
        <ele>328.072938</ele>
        <time>2026-05-02T05:56:56.580Z</time>
      </trkpt>
      <trkpt lat="45.900549" lon="8.901848">
        <ele>328.303474</ele>
        <time>2026-05-02T05:56:59.589Z</time>
      </trkpt>
      <trkpt lat="45.900472" lon="8.901714">
        <ele>328.526703</ele>
        <time>2026-05-02T05:57:02.581Z</time>
      </trkpt>
      <trkpt lat="45.900396" lon="8.901586">
        <ele>328.742841</ele>
        <time>2026-05-02T05:57:05.580Z</time>
      </trkpt>
      <trkpt lat="45.900329" lon="8.901458">
        <ele>328.948586</ele>
        <time>2026-05-02T05:57:08.581Z</time>
      </trkpt>
      <trkpt lat="45.900265" lon="8.901340">
        <ele>329.140764</ele>
        <time>2026-05-02T05:57:11.588Z</time>
      </trkpt>
      <trkpt lat="45.900205" lon="8.901215">
        <ele>329.335827</ele>
        <time>2026-05-02T05:57:14.581Z</time>
      </trkpt>
      <trkpt lat="45.900137" lon="8.901091">
        <ele>329.538626</ele>
        <time>2026-05-02T05:57:17.585Z</time>
      </trkpt>
      <trkpt lat="45.900073" lon="8.900963">
        <ele>329.741091</ele>
        <time>2026-05-02T05:57:20.587Z</time>
      </trkpt>
      <trkpt lat="45.900001" lon="8.900842">
        <ele>329.945598</ele>
        <time>2026-05-02T05:57:23.579Z</time>
      </trkpt>
      <trkpt lat="45.899928" lon="8.900713">
        <ele>330.159180</ele>
        <time>2026-05-02T05:57:26.581Z</time>
      </trkpt>
      <trkpt lat="45.899855" lon="8.900587">
        <ele>330.369787</ele>
        <time>2026-05-02T05:57:29.581Z</time>
      </trkpt>
      <trkpt lat="45.899783" lon="8.900461">
        <ele>330.579217</ele>
        <time>2026-05-02T05:57:32.585Z</time>
      </trkpt>
      <trkpt lat="45.899715" lon="8.900341">
        <ele>330.778007</ele>
        <time>2026-05-02T05:57:35.581Z</time>
      </trkpt>
      <trkpt lat="45.899660" lon="8.900237">
        <ele>330.945802</ele>
        <time>2026-05-02T05:57:48.582Z</time>
      </trkpt>
      <trkpt lat="45.899540" lon="8.900045">
        <ele>331.196396</ele>
        <time>2026-05-02T05:58:18.586Z</time>
      </trkpt>
      <trkpt lat="45.899471" lon="8.899923">
        <ele>331.206515</ele>
        <time>2026-05-02T05:58:21.586Z</time>
      </trkpt>
      <trkpt lat="45.899399" lon="8.899800">
        <ele>331.216861</ele>
        <time>2026-05-02T05:58:24.584Z</time>
      </trkpt>
      <trkpt lat="45.899327" lon="8.899675">
        <ele>331.227305</ele>
        <time>2026-05-02T05:58:27.582Z</time>
      </trkpt>
      <trkpt lat="45.899250" lon="8.899541">
        <ele>331.238491</ele>
        <time>2026-05-02T05:58:30.583Z</time>
      </trkpt>
      <trkpt lat="45.899171" lon="8.899414">
        <ele>331.249455</ele>
        <time>2026-05-02T05:58:33.590Z</time>
      </trkpt>
      <trkpt lat="45.899084" lon="8.899288">
        <ele>331.260880</ele>
        <time>2026-05-02T05:58:36.580Z</time>
      </trkpt>
      <trkpt lat="45.898999" lon="8.899165">
        <ele>331.272038</ele>
        <time>2026-05-02T05:58:39.580Z</time>
      </trkpt>
      <trkpt lat="45.898910" lon="8.899033">
        <ele>331.283868</ele>
        <time>2026-05-02T05:58:42.582Z</time>
      </trkpt>
      <trkpt lat="45.898844" lon="8.898944">
        <ele>331.292239</ele>
        <time>2026-05-02T05:58:44.586Z</time>
      </trkpt>
      <trkpt lat="45.898749" lon="8.898813">
        <ele>331.304418</ele>
        <time>2026-05-02T05:58:47.584Z</time>
      </trkpt>
      <trkpt lat="45.898654" lon="8.898673">
        <ele>331.317004</ele>
        <time>2026-05-02T05:58:50.581Z</time>
      </trkpt>
      <trkpt lat="45.898588" lon="8.898582">
        <ele>331.325464</ele>
        <time>2026-05-02T05:58:52.581Z</time>
      </trkpt>
      <trkpt lat="45.898525" lon="8.898486">
        <ele>331.333958</ele>
        <time>2026-05-02T05:58:54.595Z</time>
      </trkpt>
      <trkpt lat="45.898461" lon="8.898392">
        <ele>331.342422</ele>
        <time>2026-05-02T05:58:56.579Z</time>
      </trkpt>
      <trkpt lat="45.898395" lon="8.898298">
        <ele>331.351018</ele>
        <time>2026-05-02T05:58:58.584Z</time>
      </trkpt>
      <trkpt lat="45.898326" lon="8.898204">
        <ele>331.373393</ele>
        <time>2026-05-02T05:59:00.577Z</time>
      </trkpt>
      <trkpt lat="45.898259" lon="8.898116">
        <ele>331.467984</ele>
        <time>2026-05-02T05:59:02.580Z</time>
      </trkpt>
      <trkpt lat="45.898160" lon="8.897979">
        <ele>331.611212</ele>
        <time>2026-05-02T05:59:05.594Z</time>
      </trkpt>
      <trkpt lat="45.898089" lon="8.897886">
        <ele>331.711326</ele>
        <time>2026-05-02T05:59:07.585Z</time>
      </trkpt>
      <trkpt lat="45.898024" lon="8.897792">
        <ele>331.807426</ele>
        <time>2026-05-02T05:59:09.584Z</time>
      </trkpt>
      <trkpt lat="45.897925" lon="8.897656">
        <ele>331.950153</ele>
        <time>2026-05-02T05:59:12.593Z</time>
      </trkpt>
      <trkpt lat="45.897858" lon="8.897565">
        <ele>332.046225</ele>
        <time>2026-05-02T05:59:14.584Z</time>
      </trkpt>
      <trkpt lat="45.897791" lon="8.897472">
        <ele>332.143300</ele>
        <time>2026-05-02T05:59:16.582Z</time>
      </trkpt>
      <trkpt lat="45.897726" lon="8.897381">
        <ele>332.237869</ele>
        <time>2026-05-02T05:59:18.578Z</time>
      </trkpt>
      <trkpt lat="45.897630" lon="8.897249">
        <ele>332.376332</ele>
        <time>2026-05-02T05:59:21.584Z</time>
      </trkpt>
      <trkpt lat="45.897533" lon="8.897121">
        <ele>332.513570</ele>
        <time>2026-05-02T05:59:24.583Z</time>
      </trkpt>
      <trkpt lat="45.897443" lon="8.897000">
        <ele>332.642008</ele>
        <time>2026-05-02T05:59:27.584Z</time>
      </trkpt>
      <trkpt lat="45.897356" lon="8.896885">
        <ele>332.765195</ele>
        <time>2026-05-02T05:59:30.578Z</time>
      </trkpt>
      <trkpt lat="45.897273" lon="8.896772">
        <ele>332.884345</ele>
        <time>2026-05-02T05:59:33.583Z</time>
      </trkpt>
      <trkpt lat="45.897187" lon="8.896664">
        <ele>333.003367</ele>
        <time>2026-05-02T05:59:36.585Z</time>
      </trkpt>
      <trkpt lat="45.897101" lon="8.896556">
        <ele>333.122388</ele>
        <time>2026-05-02T05:59:39.583Z</time>
      </trkpt>
      <trkpt lat="45.897021" lon="8.896458">
        <ele>333.231938</ele>
        <time>2026-05-02T05:59:42.580Z</time>
      </trkpt>
      <trkpt lat="45.896932" lon="8.896368">
        <ele>333.955205</ele>
        <time>2026-05-02T05:59:45.580Z</time>
      </trkpt>
      <trkpt lat="45.896838" lon="8.896285">
        <ele>334.693185</ele>
        <time>2026-05-02T05:59:48.580Z</time>
      </trkpt>
      <trkpt lat="45.896747" lon="8.896198">
        <ele>335.424294</ele>
        <time>2026-05-02T05:59:51.588Z</time>
      </trkpt>
      <trkpt lat="45.896658" lon="8.896109">
        <ele>336.149581</ele>
        <time>2026-05-02T05:59:54.588Z</time>
      </trkpt>
      <trkpt lat="45.896573" lon="8.896023">
        <ele>336.844941</ele>
        <time>2026-05-02T05:59:57.584Z</time>
      </trkpt>
      <trkpt lat="45.896492" lon="8.895934">
        <ele>337.526994</ele>
        <time>2026-05-02T06:00:00.581Z</time>
      </trkpt>
      <trkpt lat="45.896420" lon="8.895832">
        <ele>338.203304</ele>
        <time>2026-05-02T06:00:03.581Z</time>
      </trkpt>
      <trkpt lat="45.896350" lon="8.895728">
        <ele>338.876815</ele>
        <time>2026-05-02T06:00:06.577Z</time>
      </trkpt>
      <trkpt lat="45.896267" lon="8.895614">
        <ele>339.644832</ele>
        <time>2026-05-02T06:00:10.585Z</time>
      </trkpt>
      <trkpt lat="45.896183" lon="8.895524">
        <ele>340.345705</ele>
        <time>2026-05-02T06:00:13.587Z</time>
      </trkpt>
      <trkpt lat="45.896097" lon="8.895451">
        <ele>341.013826</ele>
        <time>2026-05-02T06:00:16.581Z</time>
      </trkpt>
      <trkpt lat="45.896004" lon="8.895403">
        <ele>341.674804</ele>
        <time>2026-05-02T06:00:19.584Z</time>
      </trkpt>
      <trkpt lat="45.895901" lon="8.895392">
        <ele>342.365656</ele>
        <time>2026-05-02T06:00:24.586Z</time>
      </trkpt>
      <trkpt lat="45.895797" lon="8.895375">
        <ele>343.065784</ele>
        <time>2026-05-02T06:00:30.582Z</time>
      </trkpt>
      <trkpt lat="45.895690" lon="8.895370">
        <ele>343.781869</ele>
        <time>2026-05-02T06:00:36.583Z</time>
      </trkpt>
      <trkpt lat="45.895592" lon="8.895335">
        <ele>344.457323</ele>
        <time>2026-05-02T06:00:42.580Z</time>
      </trkpt>
      <trkpt lat="45.895492" lon="8.895323">
        <ele>345.128537</ele>
        <time>2026-05-02T06:00:49.581Z</time>
      </trkpt>
      <trkpt lat="45.895400" lon="8.895289">
        <ele>346.258251</ele>
        <time>2026-05-02T06:00:57.583Z</time>
      </trkpt>
      <trkpt lat="45.895304" lon="8.895245">
        <ele>347.598225</ele>
        <time>2026-05-02T06:01:06.578Z</time>
      </trkpt>
      <trkpt lat="45.895213" lon="8.895190">
        <ele>348.911034</ele>
        <time>2026-05-02T06:01:14.583Z</time>
      </trkpt>
      <trkpt lat="45.895122" lon="8.895140">
        <ele>350.206603</ele>
        <time>2026-05-02T06:01:22.584Z</time>
      </trkpt>
      <trkpt lat="45.895041" lon="8.895080">
        <ele>351.418448</ele>
        <time>2026-05-02T06:01:30.590Z</time>
      </trkpt>
      <trkpt lat="45.894952" lon="8.895018">
        <ele>352.733728</ele>
        <time>2026-05-02T06:01:38.585Z</time>
      </trkpt>
      <trkpt lat="45.894866" lon="8.894965">
        <ele>353.978104</ele>
        <time>2026-05-02T06:01:45.588Z</time>
      </trkpt>
      <trkpt lat="45.894779" lon="8.894917">
        <ele>355.217382</ele>
        <time>2026-05-02T06:01:52.580Z</time>
      </trkpt>
      <trkpt lat="45.894691" lon="8.894868">
        <ele>356.472397</ele>
        <time>2026-05-02T06:01:59.585Z</time>
      </trkpt>
      <trkpt lat="45.894600" lon="8.894833">
        <ele>357.725111</ele>
        <time>2026-05-02T06:02:06.579Z</time>
      </trkpt>
      <trkpt lat="45.894511" lon="8.894809">
        <ele>358.929288</ele>
        <time>2026-05-02T06:02:13.582Z</time>
      </trkpt>
      <trkpt lat="45.894417" lon="8.894758">
        <ele>360.265439</ele>
        <time>2026-05-02T06:02:21.585Z</time>
      </trkpt>
      <trkpt lat="45.894331" lon="8.894699">
        <ele>361.532735</ele>
        <time>2026-05-02T06:02:29.580Z</time>
      </trkpt>
      <trkpt lat="45.894259" lon="8.894617">
        <ele>362.754483</ele>
        <time>2026-05-02T06:02:37.590Z</time>
      </trkpt>
      <trkpt lat="45.894183" lon="8.894540">
        <ele>363.991115</ele>
        <time>2026-05-02T06:02:45.590Z</time>
      </trkpt>
      <trkpt lat="45.894108" lon="8.894457">
        <ele>365.249999</ele>
        <time>2026-05-02T06:02:53.583Z</time>
      </trkpt>
      <trkpt lat="45.894039" lon="8.894358">
        <ele>366.546703</ele>
        <time>2026-05-02T06:03:01.587Z</time>
      </trkpt>
      <trkpt lat="45.893975" lon="8.894251">
        <ele>367.852465</ele>
        <time>2026-05-02T06:03:09.585Z</time>
      </trkpt>
      <trkpt lat="45.893913" lon="8.894138">
        <ele>369.183402</ele>
        <time>2026-05-02T06:03:17.586Z</time>
      </trkpt>
      <trkpt lat="45.893855" lon="8.894036">
        <ele>369.989588</ele>
        <time>2026-05-02T06:03:24.589Z</time>
      </trkpt>
      <trkpt lat="45.893793" lon="8.893939">
        <ele>370.795680</ele>
        <time>2026-05-02T06:03:31.582Z</time>
      </trkpt>
      <trkpt lat="45.893726" lon="8.893843">
        <ele>371.627809</ele>
        <time>2026-05-02T06:03:38.582Z</time>
      </trkpt>
      <trkpt lat="45.893667" lon="8.893742">
        <ele>372.434891</ele>
        <time>2026-05-02T06:03:45.587Z</time>
      </trkpt>
      <trkpt lat="45.893600" lon="8.893648">
        <ele>373.258423</ele>
        <time>2026-05-02T06:03:53.586Z</time>
      </trkpt>
      <trkpt lat="45.893541" lon="8.893532">
        <ele>374.137814</ele>
        <time>2026-05-02T06:04:02.584Z</time>
      </trkpt>
      <trkpt lat="45.893492" lon="8.893416">
        <ele>374.968358</ele>
        <time>2026-05-02T06:04:10.581Z</time>
      </trkpt>
      <trkpt lat="45.893439" lon="8.893298">
        <ele>375.827945</ele>
        <time>2026-05-02T06:04:18.591Z</time>
      </trkpt>
      <trkpt lat="45.893360" lon="8.893209">
        <ele>376.710796</ele>
        <time>2026-05-02T06:04:25.584Z</time>
      </trkpt>
      <trkpt lat="45.893270" lon="8.893139">
        <ele>377.610808</ele>
        <time>2026-05-02T06:04:33.586Z</time>
      </trkpt>
      <trkpt lat="45.893182" lon="8.893110">
        <ele>378.404799</ele>
        <time>2026-05-02T06:04:40.581Z</time>
      </trkpt>
      <trkpt lat="45.893087" lon="8.893099">
        <ele>379.242964</ele>
        <time>2026-05-02T06:04:47.581Z</time>
      </trkpt>
      <trkpt lat="45.892987" lon="8.893089">
        <ele>380.124518</ele>
        <time>2026-05-02T06:04:55.583Z</time>
      </trkpt>
      <trkpt lat="45.892885" lon="8.893085">
        <ele>381.021868</ele>
        <time>2026-05-02T06:05:03.581Z</time>
      </trkpt>
      <trkpt lat="45.892792" lon="8.893071">
        <ele>381.844212</ele>
        <time>2026-05-02T06:05:10.582Z</time>
      </trkpt>
      <trkpt lat="45.892691" lon="8.893046">
        <ele>382.745518</ele>
        <time>2026-05-02T06:05:17.581Z</time>
      </trkpt>
      <trkpt lat="45.892600" lon="8.893005">
        <ele>383.584222</ele>
        <time>2026-05-02T06:05:23.580Z</time>
      </trkpt>
      <trkpt lat="45.892524" lon="8.892931">
        <ele>384.391607</ele>
        <time>2026-05-02T06:05:28.580Z</time>
      </trkpt>
      <trkpt lat="45.892451" lon="8.892835">
        <ele>385.104100</ele>
        <time>2026-05-02T06:05:33.586Z</time>
      </trkpt>
      <trkpt lat="45.892367" lon="8.892737">
        <ele>385.483215</ele>
        <time>2026-05-02T06:05:38.578Z</time>
      </trkpt>
      <trkpt lat="45.892293" lon="8.892663">
        <ele>385.799103</ele>
        <time>2026-05-02T06:05:42.583Z</time>
      </trkpt>
      <trkpt lat="45.892216" lon="8.892595">
        <ele>386.115773</ele>
        <time>2026-05-02T06:05:46.582Z</time>
      </trkpt>
      <trkpt lat="45.892135" lon="8.892520">
        <ele>386.453398</ele>
        <time>2026-05-02T06:05:50.591Z</time>
      </trkpt>
      <trkpt lat="45.892056" lon="8.892451">
        <ele>386.777318</ele>
        <time>2026-05-02T06:05:53.584Z</time>
      </trkpt>
      <trkpt lat="45.891959" lon="8.892351">
        <ele>387.195611</ele>
        <time>2026-05-02T06:05:57.583Z</time>
      </trkpt>
      <trkpt lat="45.891868" lon="8.892248">
        <ele>387.601497</ele>
        <time>2026-05-02T06:06:01.581Z</time>
      </trkpt>
      <trkpt lat="45.891796" lon="8.892145">
        <ele>387.957483</ele>
        <time>2026-05-02T06:06:05.580Z</time>
      </trkpt>
      <trkpt lat="45.891724" lon="8.892035">
        <ele>388.325713</ele>
        <time>2026-05-02T06:06:09.583Z</time>
      </trkpt>
      <trkpt lat="45.891677" lon="8.891912">
        <ele>388.667891</ele>
        <time>2026-05-02T06:06:13.573Z</time>
      </trkpt>
      <trkpt lat="45.891636" lon="8.891789">
        <ele>389.000464</ele>
        <time>2026-05-02T06:06:17.580Z</time>
      </trkpt>
      <trkpt lat="45.891584" lon="8.891682">
        <ele>389.318707</ele>
        <time>2026-05-02T06:06:21.582Z</time>
      </trkpt>
      <trkpt lat="45.891522" lon="8.891557">
        <ele>389.693015</ele>
        <time>2026-05-02T06:06:27.584Z</time>
      </trkpt>
      <trkpt lat="45.891497" lon="8.891402">
        <ele>390.081016</ele>
        <time>2026-05-02T06:06:32.578Z</time>
      </trkpt>
      <trkpt lat="45.891447" lon="8.891281">
        <ele>390.424173</ele>
        <time>2026-05-02T06:06:36.587Z</time>
      </trkpt>
      <trkpt lat="45.891391" lon="8.891151">
        <ele>390.796998</ele>
        <time>2026-05-02T06:06:40.580Z</time>
      </trkpt>
      <trkpt lat="45.891319" lon="8.891023">
        <ele>391.198334</ele>
        <time>2026-05-02T06:06:44.577Z</time>
      </trkpt>
      <trkpt lat="45.891248" lon="8.890907">
        <ele>391.377984</ele>
        <time>2026-05-02T06:06:48.587Z</time>
      </trkpt>
      <trkpt lat="45.891171" lon="8.890806">
        <ele>391.480197</ele>
        <time>2026-05-02T06:06:52.583Z</time>
      </trkpt>
      <trkpt lat="45.891079" lon="8.890716">
        <ele>391.589310</ele>
        <time>2026-05-02T06:06:56.587Z</time>
      </trkpt>
      <trkpt lat="45.890984" lon="8.890672">
        <ele>391.687162</ele>
        <time>2026-05-02T06:07:00.577Z</time>
      </trkpt>
      <trkpt lat="45.890880" lon="8.890643">
        <ele>391.791019</ele>
        <time>2026-05-02T06:07:05.579Z</time>
      </trkpt>
      <trkpt lat="45.890774" lon="8.890609">
        <ele>391.897493</ele>
        <time>2026-05-02T06:07:09.579Z</time>
      </trkpt>
      <trkpt lat="45.890657" lon="8.890593">
        <ele>392.012711</ele>
        <time>2026-05-02T06:07:13.582Z</time>
      </trkpt>
      <trkpt lat="45.890550" lon="8.890535">
        <ele>392.124825</ele>
        <time>2026-05-02T06:07:17.581Z</time>
      </trkpt>
      <trkpt lat="45.890458" lon="8.890466">
        <ele>392.226565</ele>
        <time>2026-05-02T06:07:21.584Z</time>
      </trkpt>
      <trkpt lat="45.890366" lon="8.890373">
        <ele>392.336843</ele>
        <time>2026-05-02T06:07:25.579Z</time>
      </trkpt>
      <trkpt lat="45.890260" lon="8.890298">
        <ele>392.452677</ele>
        <time>2026-05-02T06:07:29.576Z</time>
      </trkpt>
      <trkpt lat="45.890158" lon="8.890283">
        <ele>392.553194</ele>
        <time>2026-05-02T06:07:33.583Z</time>
      </trkpt>
      <trkpt lat="45.890059" lon="8.890253">
        <ele>392.652383</ele>
        <time>2026-05-02T06:07:37.591Z</time>
      </trkpt>
      <trkpt lat="45.889947" lon="8.890235">
        <ele>392.762865</ele>
        <time>2026-05-02T06:07:41.587Z</time>
      </trkpt>
      <trkpt lat="45.889839" lon="8.890196">
        <ele>392.872035</ele>
        <time>2026-05-02T06:07:45.583Z</time>
      </trkpt>
      <trkpt lat="45.889735" lon="8.890151">
        <ele>392.978513</ele>
        <time>2026-05-02T06:07:49.590Z</time>
      </trkpt>
      <trkpt lat="45.889640" lon="8.890088">
        <ele>393.090218</ele>
        <time>2026-05-02T06:07:54.580Z</time>
      </trkpt>
      <trkpt lat="45.889557" lon="8.890019">
        <ele>393.236613</ele>
        <time>2026-05-02T06:07:58.588Z</time>
      </trkpt>
      <trkpt lat="45.889478" lon="8.889951">
        <ele>393.377206</ele>
        <time>2026-05-02T06:08:01.579Z</time>
      </trkpt>
      <trkpt lat="45.889405" lon="8.889874">
        <ele>393.515461</ele>
        <time>2026-05-02T06:08:04.581Z</time>
      </trkpt>
      <trkpt lat="45.889319" lon="8.889793">
        <ele>393.672450</ele>
        <time>2026-05-02T06:08:07.587Z</time>
      </trkpt>
      <trkpt lat="45.889225" lon="8.889715">
        <ele>393.838169</ele>
        <time>2026-05-02T06:08:10.589Z</time>
      </trkpt>
      <trkpt lat="45.889122" lon="8.889639">
        <ele>394.014939</ele>
        <time>2026-05-02T06:08:13.591Z</time>
      </trkpt>
      <trkpt lat="45.889022" lon="8.889564">
        <ele>394.187152</ele>
        <time>2026-05-02T06:08:16.582Z</time>
      </trkpt>
      <trkpt lat="45.888931" lon="8.889501">
        <ele>394.341365</ele>
        <time>2026-05-02T06:08:19.580Z</time>
      </trkpt>
      <trkpt lat="45.888851" lon="8.889425">
        <ele>394.487781</ele>
        <time>2026-05-02T06:08:22.582Z</time>
      </trkpt>
      <trkpt lat="45.888760" lon="8.889364">
        <ele>394.641083</ele>
        <time>2026-05-02T06:08:25.583Z</time>
      </trkpt>
      <trkpt lat="45.888676" lon="8.889287">
        <ele>394.793200</ele>
        <time>2026-05-02T06:08:28.590Z</time>
      </trkpt>
      <trkpt lat="45.888581" lon="8.889229">
        <ele>394.950783</ele>
        <time>2026-05-02T06:08:31.579Z</time>
      </trkpt>
      <trkpt lat="45.888491" lon="8.889164">
        <ele>395.104564</ele>
        <time>2026-05-02T06:08:34.579Z</time>
      </trkpt>
      <trkpt lat="45.888416" lon="8.889076">
        <ele>395.252395</ele>
        <time>2026-05-02T06:08:37.580Z</time>
      </trkpt>
      <trkpt lat="45.888351" lon="8.888984">
        <ele>395.391694</ele>
        <time>2026-05-02T06:08:40.588Z</time>
      </trkpt>
      <trkpt lat="45.888318" lon="8.888840">
        <ele>395.552792</ele>
        <time>2026-05-02T06:08:44.585Z</time>
      </trkpt>
      <trkpt lat="45.888322" lon="8.888672">
        <ele>395.731418</ele>
        <time>2026-05-02T06:08:48.596Z</time>
      </trkpt>
      <trkpt lat="45.888311" lon="8.888508">
        <ele>395.782412</ele>
        <time>2026-05-02T06:08:52.582Z</time>
      </trkpt>
      <trkpt lat="45.888217" lon="8.888433">
        <ele>395.734219</ele>
        <time>2026-05-02T06:08:56.586Z</time>
      </trkpt>
      <trkpt lat="45.888128" lon="8.888458">
        <ele>395.693573</ele>
        <time>2026-05-02T06:08:59.586Z</time>
      </trkpt>
      <trkpt lat="45.888030" lon="8.888479">
        <ele>395.649163</ele>
        <time>2026-05-02T06:09:02.579Z</time>
      </trkpt>
      <trkpt lat="45.887930" lon="8.888475">
        <ele>395.604325</ele>
        <time>2026-05-02T06:09:05.582Z</time>
      </trkpt>
      <trkpt lat="45.887832" lon="8.888471">
        <ele>395.560382</ele>
        <time>2026-05-02T06:09:08.577Z</time>
      </trkpt>
      <trkpt lat="45.887729" lon="8.888462">
        <ele>395.514132</ele>
        <time>2026-05-02T06:09:11.583Z</time>
      </trkpt>
      <trkpt lat="45.887620" lon="8.888453">
        <ele>395.465196</ele>
        <time>2026-05-02T06:09:14.578Z</time>
      </trkpt>
      <trkpt lat="45.887508" lon="8.888465">
        <ele>395.414857</ele>
        <time>2026-05-02T06:09:17.584Z</time>
      </trkpt>
      <trkpt lat="45.887395" lon="8.888483">
        <ele>395.363899</ele>
        <time>2026-05-02T06:09:20.588Z</time>
      </trkpt>
      <trkpt lat="45.887274" lon="8.888502">
        <ele>395.309343</ele>
        <time>2026-05-02T06:09:23.579Z</time>
      </trkpt>
      <trkpt lat="45.887158" lon="8.888520">
        <ele>395.257048</ele>
        <time>2026-05-02T06:09:26.574Z</time>
      </trkpt>
      <trkpt lat="45.887046" lon="8.888528">
        <ele>395.206787</ele>
        <time>2026-05-02T06:09:29.582Z</time>
      </trkpt>
      <trkpt lat="45.886927" lon="8.888534">
        <ele>395.153417</ele>
        <time>2026-05-02T06:09:32.581Z</time>
      </trkpt>
      <trkpt lat="45.886804" lon="8.888538">
        <ele>395.098273</ele>
        <time>2026-05-02T06:09:35.582Z</time>
      </trkpt>
      <trkpt lat="45.886687" lon="8.888551">
        <ele>395.045676</ele>
        <time>2026-05-02T06:09:38.588Z</time>
      </trkpt>
      <trkpt lat="45.886576" lon="8.888557">
        <ele>394.984376</ele>
        <time>2026-05-02T06:09:41.581Z</time>
      </trkpt>
      <trkpt lat="45.886468" lon="8.888562">
        <ele>394.870463</ele>
        <time>2026-05-02T06:09:44.581Z</time>
      </trkpt>
      <trkpt lat="45.886354" lon="8.888582">
        <ele>394.749392</ele>
        <time>2026-05-02T06:09:47.583Z</time>
      </trkpt>
      <trkpt lat="45.886234" lon="8.888634">
        <ele>394.617258</ele>
        <time>2026-05-02T06:09:50.583Z</time>
      </trkpt>
      <trkpt lat="45.886148" lon="8.888678">
        <ele>394.521020</ele>
        <time>2026-05-02T06:09:52.588Z</time>
      </trkpt>
      <trkpt lat="45.886059" lon="8.888719">
        <ele>394.422490</ele>
        <time>2026-05-02T06:09:54.580Z</time>
      </trkpt>
      <trkpt lat="45.885972" lon="8.888754">
        <ele>394.327247</ele>
        <time>2026-05-02T06:09:56.580Z</time>
      </trkpt>
      <trkpt lat="45.885845" lon="8.888799">
        <ele>394.189351</ele>
        <time>2026-05-02T06:09:59.583Z</time>
      </trkpt>
      <trkpt lat="45.885720" lon="8.888813">
        <ele>394.057177</ele>
        <time>2026-05-02T06:10:02.578Z</time>
      </trkpt>
      <trkpt lat="45.885600" lon="8.888828">
        <ele>393.930195</ele>
        <time>2026-05-02T06:10:05.582Z</time>
      </trkpt>
      <trkpt lat="45.885477" lon="8.888811">
        <ele>393.799930</ele>
        <time>2026-05-02T06:10:08.586Z</time>
      </trkpt>
      <trkpt lat="45.885348" lon="8.888780">
        <ele>393.662049</ele>
        <time>2026-05-02T06:10:11.587Z</time>
      </trkpt>
      <trkpt lat="45.885218" lon="8.888744">
        <ele>393.522481</ele>
        <time>2026-05-02T06:10:14.595Z</time>
      </trkpt>
      <trkpt lat="45.885084" lon="8.888713">
        <ele>393.379398</ele>
        <time>2026-05-02T06:10:17.584Z</time>
      </trkpt>
      <trkpt lat="45.884991" lon="8.888687">
        <ele>393.279518</ele>
        <time>2026-05-02T06:10:19.583Z</time>
      </trkpt>
      <trkpt lat="45.884894" lon="8.888655">
        <ele>393.174600</ele>
        <time>2026-05-02T06:10:21.586Z</time>
      </trkpt>
      <trkpt lat="45.884798" lon="8.888615">
        <ele>393.074936</ele>
        <time>2026-05-02T06:10:23.584Z</time>
      </trkpt>
      <trkpt lat="45.884699" lon="8.888569">
        <ele>392.981283</ele>
        <time>2026-05-02T06:10:25.591Z</time>
      </trkpt>
      <trkpt lat="45.884599" lon="8.888517">
        <ele>392.885560</ele>
        <time>2026-05-02T06:10:27.584Z</time>
      </trkpt>
      <trkpt lat="45.884502" lon="8.888471">
        <ele>392.793619</ele>
        <time>2026-05-02T06:10:29.588Z</time>
      </trkpt>
      <trkpt lat="45.884407" lon="8.888416">
        <ele>392.701429</ele>
        <time>2026-05-02T06:10:31.583Z</time>
      </trkpt>
      <trkpt lat="45.884311" lon="8.888364">
        <ele>392.609083</ele>
        <time>2026-05-02T06:10:33.590Z</time>
      </trkpt>
      <trkpt lat="45.884217" lon="8.888312">
        <ele>392.518420</ele>
        <time>2026-05-02T06:10:35.584Z</time>
      </trkpt>
      <trkpt lat="45.884122" lon="8.888265">
        <ele>392.427984</ele>
        <time>2026-05-02T06:10:37.583Z</time>
      </trkpt>
      <trkpt lat="45.884029" lon="8.888221">
        <ele>392.339854</ele>
        <time>2026-05-02T06:10:39.590Z</time>
      </trkpt>
      <trkpt lat="45.883939" lon="8.888179">
        <ele>392.254680</ele>
        <time>2026-05-02T06:10:41.581Z</time>
      </trkpt>
      <trkpt lat="45.883847" lon="8.888140">
        <ele>392.168343</ele>
        <time>2026-05-02T06:10:43.579Z</time>
      </trkpt>
      <trkpt lat="45.883755" lon="8.888105">
        <ele>392.082681</ele>
        <time>2026-05-02T06:10:45.587Z</time>
      </trkpt>
      <trkpt lat="45.883627" lon="8.888060">
        <ele>391.964072</ele>
        <time>2026-05-02T06:10:48.587Z</time>
      </trkpt>
      <trkpt lat="45.883498" lon="8.888037">
        <ele>391.847071</ele>
        <time>2026-05-02T06:10:51.582Z</time>
      </trkpt>
      <trkpt lat="45.883367" lon="8.888004">
        <ele>391.727362</ele>
        <time>2026-05-02T06:10:54.581Z</time>
      </trkpt>
      <trkpt lat="45.883243" lon="8.887963">
        <ele>391.612834</ele>
        <time>2026-05-02T06:10:57.585Z</time>
      </trkpt>
      <trkpt lat="45.883116" lon="8.887932">
        <ele>391.496886</ele>
        <time>2026-05-02T06:11:00.587Z</time>
      </trkpt>
      <trkpt lat="45.882990" lon="8.887900">
        <ele>391.453941</ele>
        <time>2026-05-02T06:11:03.584Z</time>
      </trkpt>
      <trkpt lat="45.882858" lon="8.887886">
        <ele>391.414737</ele>
        <time>2026-05-02T06:11:06.579Z</time>
      </trkpt>
      <trkpt lat="45.882765" lon="8.887876">
        <ele>391.387115</ele>
        <time>2026-05-02T06:11:08.584Z</time>
      </trkpt>
      <trkpt lat="45.882631" lon="8.887858">
        <ele>391.347252</ele>
        <time>2026-05-02T06:11:11.579Z</time>
      </trkpt>
      <trkpt lat="45.882534" lon="8.887852">
        <ele>391.318494</ele>
        <time>2026-05-02T06:11:13.579Z</time>
      </trkpt>
      <trkpt lat="45.882434" lon="8.887849">
        <ele>391.288869</ele>
        <time>2026-05-02T06:11:15.584Z</time>
      </trkpt>
      <trkpt lat="45.882340" lon="8.887843">
        <ele>391.260999</ele>
        <time>2026-05-02T06:11:17.590Z</time>
      </trkpt>
      <trkpt lat="45.882211" lon="8.887864">
        <ele>391.222546</ele>
        <time>2026-05-02T06:11:20.582Z</time>
      </trkpt>
      <trkpt lat="45.882119" lon="8.887873">
        <ele>391.195233</ele>
        <time>2026-05-02T06:11:22.590Z</time>
      </trkpt>
      <trkpt lat="45.882028" lon="8.887882">
        <ele>391.168215</ele>
        <time>2026-05-02T06:11:24.590Z</time>
      </trkpt>
      <trkpt lat="45.881897" lon="8.887900">
        <ele>391.129237</ele>
        <time>2026-05-02T06:11:27.584Z</time>
      </trkpt>
      <trkpt lat="45.881808" lon="8.887932">
        <ele>391.102063</ele>
        <time>2026-05-02T06:11:29.581Z</time>
      </trkpt>
      <trkpt lat="45.881717" lon="8.887967">
        <ele>391.074160</ele>
        <time>2026-05-02T06:11:31.582Z</time>
      </trkpt>
      <trkpt lat="45.881589" lon="8.888021">
        <ele>391.034646</ele>
        <time>2026-05-02T06:11:34.580Z</time>
      </trkpt>
      <trkpt lat="45.881495" lon="8.888059">
        <ele>391.005722</ele>
        <time>2026-05-02T06:11:36.581Z</time>
      </trkpt>
      <trkpt lat="45.881400" lon="8.888107">
        <ele>390.975894</ele>
        <time>2026-05-02T06:11:38.587Z</time>
      </trkpt>
      <trkpt lat="45.881302" lon="8.888151">
        <ele>390.907104</ele>
        <time>2026-05-02T06:11:40.579Z</time>
      </trkpt>
      <trkpt lat="45.881203" lon="8.888188">
        <ele>390.772403</ele>
        <time>2026-05-02T06:11:42.580Z</time>
      </trkpt>
      <trkpt lat="45.881111" lon="8.888223">
        <ele>390.647082</ele>
        <time>2026-05-02T06:11:44.581Z</time>
      </trkpt>
      <trkpt lat="45.880975" lon="8.888257">
        <ele>390.465309</ele>
        <time>2026-05-02T06:11:47.587Z</time>
      </trkpt>
      <trkpt lat="45.880884" lon="8.888270">
        <ele>390.344891</ele>
        <time>2026-05-02T06:11:49.574Z</time>
      </trkpt>
      <trkpt lat="45.880791" lon="8.888281">
        <ele>390.222016</ele>
        <time>2026-05-02T06:11:51.595Z</time>
      </trkpt>
      <trkpt lat="45.880691" lon="8.888295">
        <ele>390.089714</ele>
        <time>2026-05-02T06:11:53.596Z</time>
      </trkpt>
      <trkpt lat="45.880598" lon="8.888305">
        <ele>389.966911</ele>
        <time>2026-05-02T06:11:55.587Z</time>
      </trkpt>
      <trkpt lat="45.880468" lon="8.888333">
        <ele>389.793816</ele>
        <time>2026-05-02T06:11:58.581Z</time>
      </trkpt>
      <trkpt lat="45.880336" lon="8.888348">
        <ele>389.619458</ele>
        <time>2026-05-02T06:12:01.584Z</time>
      </trkpt>
      <trkpt lat="45.880247" lon="8.888363">
        <ele>389.501461</ele>
        <time>2026-05-02T06:12:03.588Z</time>
      </trkpt>
      <trkpt lat="45.880115" lon="8.888387">
        <ele>389.326259</ele>
        <time>2026-05-02T06:12:06.581Z</time>
      </trkpt>
      <trkpt lat="45.879982" lon="8.888418">
        <ele>389.148837</ele>
        <time>2026-05-02T06:12:09.581Z</time>
      </trkpt>
      <trkpt lat="45.879888" lon="8.888446">
        <ele>389.022427</ele>
        <time>2026-05-02T06:12:11.584Z</time>
      </trkpt>
      <trkpt lat="45.879793" lon="8.888485">
        <ele>388.892324</ele>
        <time>2026-05-02T06:12:13.583Z</time>
      </trkpt>
      <trkpt lat="45.879692" lon="8.888526">
        <ele>388.754121</ele>
        <time>2026-05-02T06:12:15.583Z</time>
      </trkpt>
      <trkpt lat="45.879582" lon="8.888566">
        <ele>388.604706</ele>
        <time>2026-05-02T06:12:17.583Z</time>
      </trkpt>
      <trkpt lat="45.879460" lon="8.888612">
        <ele>388.169867</ele>
        <time>2026-05-02T06:12:19.584Z</time>
      </trkpt>
      <trkpt lat="45.879329" lon="8.888657">
        <ele>387.673857</ele>
        <time>2026-05-02T06:12:21.583Z</time>
      </trkpt>
      <trkpt lat="45.879190" lon="8.888696">
        <ele>387.152316</ele>
        <time>2026-05-02T06:12:23.581Z</time>
      </trkpt>
      <trkpt lat="45.879045" lon="8.888741">
        <ele>386.606033</ele>
        <time>2026-05-02T06:12:25.587Z</time>
      </trkpt>
      <trkpt lat="45.878898" lon="8.888811">
        <ele>386.035735</ele>
        <time>2026-05-02T06:12:27.590Z</time>
      </trkpt>
      <trkpt lat="45.878745" lon="8.888873">
        <ele>385.450322</ele>
        <time>2026-05-02T06:12:29.582Z</time>
      </trkpt>
      <trkpt lat="45.878586" lon="8.888907">
        <ele>384.858352</ele>
        <time>2026-05-02T06:12:31.582Z</time>
      </trkpt>
      <trkpt lat="45.878424" lon="8.888905">
        <ele>384.261765</ele>
        <time>2026-05-02T06:12:33.579Z</time>
      </trkpt>
      <trkpt lat="45.878264" lon="8.888902">
        <ele>383.672515</ele>
        <time>2026-05-02T06:12:35.587Z</time>
      </trkpt>
      <trkpt lat="45.878104" lon="8.888883">
        <ele>383.081305</ele>
        <time>2026-05-02T06:12:37.579Z</time>
      </trkpt>
      <trkpt lat="45.877947" lon="8.888884">
        <ele>382.503147</ele>
        <time>2026-05-02T06:12:39.586Z</time>
      </trkpt>
      <trkpt lat="45.877791" lon="8.888896">
        <ele>381.951463</ele>
        <time>2026-05-02T06:12:41.591Z</time>
      </trkpt>
      <trkpt lat="45.877637" lon="8.888920">
        <ele>381.746486</ele>
        <time>2026-05-02T06:12:43.579Z</time>
      </trkpt>
      <trkpt lat="45.877486" lon="8.888950">
        <ele>381.544772</ele>
        <time>2026-05-02T06:12:45.579Z</time>
      </trkpt>
      <trkpt lat="45.877337" lon="8.888976">
        <ele>381.346157</ele>
        <time>2026-05-02T06:12:47.582Z</time>
      </trkpt>
      <trkpt lat="45.877193" lon="8.889007">
        <ele>381.153480</ele>
        <time>2026-05-02T06:12:49.584Z</time>
      </trkpt>
      <trkpt lat="45.877056" lon="8.889031">
        <ele>380.970851</ele>
        <time>2026-05-02T06:12:51.581Z</time>
      </trkpt>
      <trkpt lat="45.876925" lon="8.889060">
        <ele>380.795458</ele>
        <time>2026-05-02T06:12:53.583Z</time>
      </trkpt>
      <trkpt lat="45.876802" lon="8.889082">
        <ele>380.631440</ele>
        <time>2026-05-02T06:12:55.583Z</time>
      </trkpt>
      <trkpt lat="45.876680" lon="8.889114">
        <ele>380.467334</ele>
        <time>2026-05-02T06:12:57.583Z</time>
      </trkpt>
      <trkpt lat="45.876560" lon="8.889122">
        <ele>380.308372</ele>
        <time>2026-05-02T06:12:59.584Z</time>
      </trkpt>
      <trkpt lat="45.876448" lon="8.889121">
        <ele>380.160165</ele>
        <time>2026-05-02T06:13:01.579Z</time>
      </trkpt>
      <trkpt lat="45.876339" lon="8.889108">
        <ele>380.015434</ele>
        <time>2026-05-02T06:13:03.584Z</time>
      </trkpt>
      <trkpt lat="45.876224" lon="8.889108">
        <ele>379.863259</ele>
        <time>2026-05-02T06:13:05.592Z</time>
      </trkpt>
      <trkpt lat="45.876110" lon="8.889120">
        <ele>379.712004</ele>
        <time>2026-05-02T06:13:07.583Z</time>
      </trkpt>
      <trkpt lat="45.875998" lon="8.889157">
        <ele>379.579542</ele>
        <time>2026-05-02T06:13:09.577Z</time>
      </trkpt>
      <trkpt lat="45.875894" lon="8.889205">
        <ele>379.549716</ele>
        <time>2026-05-02T06:13:11.590Z</time>
      </trkpt>
      <trkpt lat="45.875789" lon="8.889245">
        <ele>379.520056</ele>
        <time>2026-05-02T06:13:13.585Z</time>
      </trkpt>
      <trkpt lat="45.875690" lon="8.889304">
        <ele>379.490791</ele>
        <time>2026-05-02T06:13:15.582Z</time>
      </trkpt>
      <trkpt lat="45.875597" lon="8.889375">
        <ele>379.462034</ele>
        <time>2026-05-02T06:13:17.590Z</time>
      </trkpt>
      <trkpt lat="45.875498" lon="8.889459">
        <ele>379.430639</ele>
        <time>2026-05-02T06:13:19.580Z</time>
      </trkpt>
      <trkpt lat="45.875395" lon="8.889536">
        <ele>379.398935</ele>
        <time>2026-05-02T06:13:21.581Z</time>
      </trkpt>
      <trkpt lat="45.875286" lon="8.889585">
        <ele>379.367750</ele>
        <time>2026-05-02T06:13:23.595Z</time>
      </trkpt>
      <trkpt lat="45.875174" lon="8.889606">
        <ele>379.336911</ele>
        <time>2026-05-02T06:13:25.583Z</time>
      </trkpt>
      <trkpt lat="45.875062" lon="8.889580">
        <ele>379.305934</ele>
        <time>2026-05-02T06:13:27.589Z</time>
      </trkpt>
      <trkpt lat="45.874953" lon="8.889516">
        <ele>379.273782</ele>
        <time>2026-05-02T06:13:29.588Z</time>
      </trkpt>
      <trkpt lat="45.874850" lon="8.889440">
        <ele>379.242165</ele>
        <time>2026-05-02T06:13:31.588Z</time>
      </trkpt>
      <trkpt lat="45.874740" lon="8.889379">
        <ele>379.209970</ele>
        <time>2026-05-02T06:13:33.585Z</time>
      </trkpt>
      <trkpt lat="45.874626" lon="8.889341">
        <ele>379.178016</ele>
        <time>2026-05-02T06:13:35.581Z</time>
      </trkpt>
      <trkpt lat="45.874517" lon="8.889324">
        <ele>379.148080</ele>
        <time>2026-05-02T06:13:37.579Z</time>
      </trkpt>
      <trkpt lat="45.874410" lon="8.889329">
        <ele>379.118850</ele>
        <time>2026-05-02T06:13:39.587Z</time>
      </trkpt>
      <trkpt lat="45.874307" lon="8.889337">
        <ele>379.120053</ele>
        <time>2026-05-02T06:13:41.585Z</time>
      </trkpt>
      <trkpt lat="45.874204" lon="8.889350">
        <ele>379.382008</ele>
        <time>2026-05-02T06:13:43.584Z</time>
      </trkpt>
      <trkpt lat="45.874105" lon="8.889362">
        <ele>379.633715</ele>
        <time>2026-05-02T06:13:45.585Z</time>
      </trkpt>
      <trkpt lat="45.874009" lon="8.889375">
        <ele>379.878008</ele>
        <time>2026-05-02T06:13:47.585Z</time>
      </trkpt>
      <trkpt lat="45.873915" lon="8.889395">
        <ele>380.118754</ele>
        <time>2026-05-02T06:13:49.586Z</time>
      </trkpt>
      <trkpt lat="45.873825" lon="8.889414">
        <ele>380.349218</ele>
        <time>2026-05-02T06:13:51.583Z</time>
      </trkpt>
      <trkpt lat="45.873696" lon="8.889447">
        <ele>380.681181</ele>
        <time>2026-05-02T06:13:54.584Z</time>
      </trkpt>
      <trkpt lat="45.873573" lon="8.889488">
        <ele>381.001082</ele>
        <time>2026-05-02T06:13:57.590Z</time>
      </trkpt>
      <trkpt lat="45.873448" lon="8.889540">
        <ele>381.330783</ele>
        <time>2026-05-02T06:14:00.583Z</time>
      </trkpt>
      <trkpt lat="45.873323" lon="8.889596">
        <ele>381.662517</ele>
        <time>2026-05-02T06:14:03.586Z</time>
      </trkpt>
      <trkpt lat="45.873201" lon="8.889652">
        <ele>381.987003</ele>
        <time>2026-05-02T06:14:06.582Z</time>
      </trkpt>
      <trkpt lat="45.873079" lon="8.889711">
        <ele>382.313139</ele>
        <time>2026-05-02T06:14:09.583Z</time>
      </trkpt>
      <trkpt lat="45.872964" lon="8.889764">
        <ele>382.619122</ele>
        <time>2026-05-02T06:14:12.582Z</time>
      </trkpt>
      <trkpt lat="45.872853" lon="8.889811">
        <ele>382.912305</ele>
        <time>2026-05-02T06:14:15.580Z</time>
      </trkpt>
      <trkpt lat="45.872751" lon="8.889855">
        <ele>383.182124</ele>
        <time>2026-05-02T06:14:18.584Z</time>
      </trkpt>
      <trkpt lat="45.872645" lon="8.889893">
        <ele>383.458913</ele>
        <time>2026-05-02T06:14:21.584Z</time>
      </trkpt>
      <trkpt lat="45.872548" lon="8.889941">
        <ele>383.744144</ele>
        <time>2026-05-02T06:14:24.584Z</time>
      </trkpt>
      <trkpt lat="45.872477" lon="8.890023">
        <ele>384.060287</ele>
        <time>2026-05-02T06:14:27.587Z</time>
      </trkpt>
      <trkpt lat="45.872405" lon="8.890102">
        <ele>384.374689</ele>
        <time>2026-05-02T06:14:30.587Z</time>
      </trkpt>
      <trkpt lat="45.872326" lon="8.890163">
        <ele>384.685923</ele>
        <time>2026-05-02T06:14:33.579Z</time>
      </trkpt>
      <trkpt lat="45.872231" lon="8.890191">
        <ele>385.022442</ele>
        <time>2026-05-02T06:14:36.590Z</time>
      </trkpt>
      <trkpt lat="45.872139" lon="8.890223">
        <ele>385.350909</ele>
        <time>2026-05-02T06:14:39.592Z</time>
      </trkpt>
      <trkpt lat="45.872054" lon="8.890270">
        <ele>385.666961</ele>
        <time>2026-05-02T06:14:42.583Z</time>
      </trkpt>
      <trkpt lat="45.871968" lon="8.890335">
        <ele>386.004179</ele>
        <time>2026-05-02T06:14:45.590Z</time>
      </trkpt>
      <trkpt lat="45.871859" lon="8.890411">
        <ele>386.424623</ele>
        <time>2026-05-02T06:14:49.591Z</time>
      </trkpt>
      <trkpt lat="45.871776" lon="8.890475">
        <ele>386.751515</ele>
        <time>2026-05-02T06:14:52.590Z</time>
      </trkpt>
      <trkpt lat="45.871690" lon="8.890543">
        <ele>387.092169</ele>
        <time>2026-05-02T06:14:55.590Z</time>
      </trkpt>
      <trkpt lat="45.871602" lon="8.890595">
        <ele>387.422363</ele>
        <time>2026-05-02T06:14:58.588Z</time>
      </trkpt>
      <trkpt lat="45.871519" lon="8.890645">
        <ele>387.734681</ele>
        <time>2026-05-02T06:15:01.588Z</time>
      </trkpt>
      <trkpt lat="45.871432" lon="8.890699">
        <ele>388.063556</ele>
        <time>2026-05-02T06:15:04.587Z</time>
      </trkpt>
      <trkpt lat="45.871348" lon="8.890755">
        <ele>388.384906</ele>
        <time>2026-05-02T06:15:07.587Z</time>
      </trkpt>
      <trkpt lat="45.871249" lon="8.890823">
        <ele>388.765700</ele>
        <time>2026-05-02T06:15:11.589Z</time>
      </trkpt>
      <trkpt lat="45.871142" lon="8.890902">
        <ele>389.183176</ele>
        <time>2026-05-02T06:15:15.587Z</time>
      </trkpt>
      <trkpt lat="45.871058" lon="8.890969">
        <ele>389.516588</ele>
        <time>2026-05-02T06:15:18.587Z</time>
      </trkpt>
      <trkpt lat="45.870970" lon="8.891037">
        <ele>389.863339</ele>
        <time>2026-05-02T06:15:21.587Z</time>
      </trkpt>
      <trkpt lat="45.870893" lon="8.891105">
        <ele>390.002178</ele>
        <time>2026-05-02T06:15:24.584Z</time>
      </trkpt>
      <trkpt lat="45.870795" lon="8.891202">
        <ele>390.162148</ele>
        <time>2026-05-02T06:15:28.586Z</time>
      </trkpt>
      <trkpt lat="45.870696" lon="8.891291">
        <ele>390.319130</ele>
        <time>2026-05-02T06:15:32.583Z</time>
      </trkpt>
      <trkpt lat="45.870603" lon="8.891398">
        <ele>390.479292</ele>
        <time>2026-05-02T06:15:36.592Z</time>
      </trkpt>
      <trkpt lat="45.870525" lon="8.891477">
        <ele>390.607577</ele>
        <time>2026-05-02T06:15:39.590Z</time>
      </trkpt>
      <trkpt lat="45.870441" lon="8.891533">
        <ele>390.732049</ele>
        <time>2026-05-02T06:15:42.579Z</time>
      </trkpt>
      <trkpt lat="45.870338" lon="8.891573">
        <ele>390.875461</ele>
        <time>2026-05-02T06:15:46.586Z</time>
      </trkpt>
      <trkpt lat="45.870237" lon="8.891582">
        <ele>391.011473</ele>
        <time>2026-05-02T06:15:50.581Z</time>
      </trkpt>
      <trkpt lat="45.870150" lon="8.891542">
        <ele>391.134253</ele>
        <time>2026-05-02T06:15:56.591Z</time>
      </trkpt>
      <trkpt lat="45.870054" lon="8.891479">
        <ele>391.276117</ele>
        <time>2026-05-02T06:16:01.587Z</time>
      </trkpt>
      <trkpt lat="45.869964" lon="8.891473">
        <ele>391.397214</ele>
        <time>2026-05-02T06:16:06.581Z</time>
      </trkpt>
      <trkpt lat="45.869873" lon="8.891535">
        <ele>391.532590</ele>
        <time>2026-05-02T06:16:11.581Z</time>
      </trkpt>
      <trkpt lat="45.869785" lon="8.891621">
        <ele>391.675654</ele>
        <time>2026-05-02T06:16:17.586Z</time>
      </trkpt>
      <trkpt lat="45.869704" lon="8.891685">
        <ele>391.799913</ele>
        <time>2026-05-02T06:16:22.584Z</time>
      </trkpt>
      <trkpt lat="45.869619" lon="8.891776">
        <ele>391.942409</ele>
        <time>2026-05-02T06:16:27.586Z</time>
      </trkpt>
      <trkpt lat="45.869543" lon="8.891851">
        <ele>392.066349</ele>
        <time>2026-05-02T06:16:31.583Z</time>
      </trkpt>
      <trkpt lat="45.869462" lon="8.891922">
        <ele>392.193894</ele>
        <time>2026-05-02T06:16:35.583Z</time>
      </trkpt>
      <trkpt lat="45.869362" lon="8.891989">
        <ele>392.387859</ele>
        <time>2026-05-02T06:16:40.577Z</time>
      </trkpt>
      <trkpt lat="45.869271" lon="8.892068">
        <ele>392.728193</ele>
        <time>2026-05-02T06:16:45.582Z</time>
      </trkpt>
      <trkpt lat="45.869173" lon="8.892153">
        <ele>393.094617</ele>
        <time>2026-05-02T06:16:50.584Z</time>
      </trkpt>
      <trkpt lat="45.869073" lon="8.892243">
        <ele>393.472334</ele>
        <time>2026-05-02T06:16:54.586Z</time>
      </trkpt>
      <trkpt lat="45.868969" lon="8.892296">
        <ele>393.825534</ele>
        <time>2026-05-02T06:16:58.589Z</time>
      </trkpt>
      <trkpt lat="45.868866" lon="8.892328">
        <ele>394.162823</ele>
        <time>2026-05-02T06:17:02.582Z</time>
      </trkpt>
      <trkpt lat="45.868758" lon="8.892355">
        <ele>394.513689</ele>
        <time>2026-05-02T06:17:06.586Z</time>
      </trkpt>
      <trkpt lat="45.868653" lon="8.892385">
        <ele>394.856340</ele>
        <time>2026-05-02T06:17:10.585Z</time>
      </trkpt>
      <trkpt lat="45.868564" lon="8.892402">
        <ele>395.143704</ele>
        <time>2026-05-02T06:17:13.586Z</time>
      </trkpt>
      <trkpt lat="45.868449" lon="8.892432">
        <ele>395.517798</ele>
        <time>2026-05-02T06:17:17.581Z</time>
      </trkpt>
      <trkpt lat="45.868337" lon="8.892433">
        <ele>395.876275</ele>
        <time>2026-05-02T06:17:21.584Z</time>
      </trkpt>
      <trkpt lat="45.868225" lon="8.892424">
        <ele>396.235305</ele>
        <time>2026-05-02T06:17:25.584Z</time>
      </trkpt>
      <trkpt lat="45.868135" lon="8.892392">
        <ele>396.532058</ele>
        <time>2026-05-02T06:17:29.589Z</time>
      </trkpt>
      <trkpt lat="45.868031" lon="8.892367">
        <ele>396.869554</ele>
        <time>2026-05-02T06:17:34.582Z</time>
      </trkpt>
      <trkpt lat="45.867889" lon="8.892366">
        <ele>397.324047</ele>
        <time>2026-05-02T06:18:29.584Z</time>
      </trkpt>
      <trkpt lat="45.867791" lon="8.892404">
        <ele>397.648940</ele>
        <time>2026-05-02T06:18:36.593Z</time>
      </trkpt>
      <trkpt lat="45.867699" lon="8.892380">
        <ele>397.948216</ele>
        <time>2026-05-02T06:18:42.585Z</time>
      </trkpt>
      <trkpt lat="45.867613" lon="8.892339">
        <ele>398.577822</ele>
        <time>2026-05-02T06:18:47.583Z</time>
      </trkpt>
      <trkpt lat="45.867524" lon="8.892301">
        <ele>399.460689</ele>
        <time>2026-05-02T06:18:52.586Z</time>
      </trkpt>
      <trkpt lat="45.867437" lon="8.892265">
        <ele>400.321585</ele>
        <time>2026-05-02T06:18:57.585Z</time>
      </trkpt>
      <trkpt lat="45.867346" lon="8.892230">
        <ele>401.217355</ele>
        <time>2026-05-02T06:19:02.582Z</time>
      </trkpt>
      <trkpt lat="45.867245" lon="8.892196">
        <ele>402.203747</ele>
        <time>2026-05-02T06:19:08.582Z</time>
      </trkpt>
      <trkpt lat="45.867148" lon="8.892162">
        <ele>403.153149</ele>
        <time>2026-05-02T06:19:14.603Z</time>
      </trkpt>
      <trkpt lat="45.867057" lon="8.892177">
        <ele>404.024106</ele>
        <time>2026-05-02T06:19:20.583Z</time>
      </trkpt>
      <trkpt lat="45.866995" lon="8.892278">
        <ele>404.915586</ele>
        <time>2026-05-02T06:19:26.586Z</time>
      </trkpt>
      <trkpt lat="45.867004" lon="8.892408">
        <ele>405.780564</ele>
        <time>2026-05-02T06:19:31.588Z</time>
      </trkpt>
      <trkpt lat="45.867074" lon="8.892494">
        <ele>406.656490</ele>
        <time>2026-05-02T06:19:36.586Z</time>
      </trkpt>
      <trkpt lat="45.867164" lon="8.892532">
        <ele>407.548476</ele>
        <time>2026-05-02T06:19:41.593Z</time>
      </trkpt>
      <trkpt lat="45.867250" lon="8.892570">
        <ele>408.404040</ele>
        <time>2026-05-02T06:19:46.591Z</time>
      </trkpt>
      <trkpt lat="45.867344" lon="8.892596">
        <ele>409.314268</ele>
        <time>2026-05-02T06:19:52.584Z</time>
      </trkpt>
      <trkpt lat="45.867437" lon="8.892647">
        <ele>410.260838</ele>
        <time>2026-05-02T06:19:59.580Z</time>
      </trkpt>
      <trkpt lat="45.867538" lon="8.892679">
        <ele>411.244293</ele>
        <time>2026-05-02T06:20:06.582Z</time>
      </trkpt>
      <trkpt lat="45.867608" lon="8.892762">
        <ele>412.107435</ele>
        <time>2026-05-02T06:20:13.583Z</time>
      </trkpt>
      <trkpt lat="45.867511" lon="8.892752">
        <ele>413.032135</ele>
        <time>2026-05-02T06:20:19.587Z</time>
      </trkpt>
      <trkpt lat="45.867410" lon="8.892724">
        <ele>414.010226</ele>
        <time>2026-05-02T06:20:25.584Z</time>
      </trkpt>
      <trkpt lat="45.867306" lon="8.892698">
        <ele>415.013985</ele>
        <time>2026-05-02T06:20:31.592Z</time>
      </trkpt>
      <trkpt lat="45.867204" lon="8.892676">
        <ele>415.855633</ele>
        <time>2026-05-02T06:20:37.586Z</time>
      </trkpt>
      <trkpt lat="45.867099" lon="8.892653">
        <ele>416.695573</ele>
        <time>2026-05-02T06:20:43.584Z</time>
      </trkpt>
      <trkpt lat="45.867003" lon="8.892633">
        <ele>417.462685</ele>
        <time>2026-05-02T06:20:49.586Z</time>
      </trkpt>
      <trkpt lat="45.866905" lon="8.892599">
        <ele>418.259960</ele>
        <time>2026-05-02T06:20:55.583Z</time>
      </trkpt>
      <trkpt lat="45.866811" lon="8.892571">
        <ele>419.019131</ele>
        <time>2026-05-02T06:21:01.592Z</time>
      </trkpt>
      <trkpt lat="45.866709" lon="8.892541">
        <ele>419.842486</ele>
        <time>2026-05-02T06:21:07.584Z</time>
      </trkpt>
      <trkpt lat="45.866606" lon="8.892507">
        <ele>420.678247</ele>
        <time>2026-05-02T06:21:13.585Z</time>
      </trkpt>
      <trkpt lat="45.866519" lon="8.892472">
        <ele>421.392725</ele>
        <time>2026-05-02T06:21:18.589Z</time>
      </trkpt>
      <trkpt lat="45.866427" lon="8.892437">
        <ele>422.145354</ele>
        <time>2026-05-02T06:21:23.580Z</time>
      </trkpt>
      <trkpt lat="45.866337" lon="8.892409">
        <ele>422.873580</ele>
        <time>2026-05-02T06:21:28.586Z</time>
      </trkpt>
      <trkpt lat="45.866234" lon="8.892369">
        <ele>423.717358</ele>
        <time>2026-05-02T06:21:34.582Z</time>
      </trkpt>
      <trkpt lat="45.866131" lon="8.892329">
        <ele>424.561135</ele>
        <time>2026-05-02T06:21:40.592Z</time>
      </trkpt>
      <trkpt lat="45.866028" lon="8.892296">
        <ele>425.395680</ele>
        <time>2026-05-02T06:21:46.586Z</time>
      </trkpt>
      <trkpt lat="45.865923" lon="8.892265">
        <ele>426.243383</ele>
        <time>2026-05-02T06:21:52.583Z</time>
      </trkpt>
      <trkpt lat="45.865819" lon="8.892230">
        <ele>427.088093</ele>
        <time>2026-05-02T06:21:58.589Z</time>
      </trkpt>
      <trkpt lat="45.865728" lon="8.892199">
        <ele>427.827688</ele>
        <time>2026-05-02T06:22:03.596Z</time>
      </trkpt>
      <trkpt lat="45.865640" lon="8.892173">
        <ele>428.538164</ele>
        <time>2026-05-02T06:22:08.588Z</time>
      </trkpt>
      <trkpt lat="45.865533" lon="8.892149">
        <ele>429.394840</ele>
        <time>2026-05-02T06:22:14.589Z</time>
      </trkpt>
      <trkpt lat="45.865445" lon="8.892123">
        <ele>430.178008</ele>
        <time>2026-05-02T06:22:19.589Z</time>
      </trkpt>
      <trkpt lat="45.865339" lon="8.892099">
        <ele>431.113431</ele>
        <time>2026-05-02T06:22:25.587Z</time>
      </trkpt>
      <trkpt lat="45.865248" lon="8.892078">
        <ele>431.916860</ele>
        <time>2026-05-02T06:22:30.583Z</time>
      </trkpt>
      <trkpt lat="45.865157" lon="8.892064">
        <ele>432.714652</ele>
        <time>2026-05-02T06:22:35.583Z</time>
      </trkpt>
      <trkpt lat="45.865067" lon="8.892058">
        <ele>433.500033</ele>
        <time>2026-05-02T06:22:40.584Z</time>
      </trkpt>
      <trkpt lat="45.864983" lon="8.892106">
        <ele>434.288106</ele>
        <time>2026-05-02T06:22:46.582Z</time>
      </trkpt>
      <trkpt lat="45.864926" lon="8.892208">
        <ele>435.081980</ele>
        <time>2026-05-02T06:22:53.583Z</time>
      </trkpt>
      <trkpt lat="45.864968" lon="8.892349">
        <ele>436.012888</ele>
        <time>2026-05-02T06:22:59.586Z</time>
      </trkpt>
      <trkpt lat="45.865046" lon="8.892436">
        <ele>436.873816</ele>
        <time>2026-05-02T06:23:04.581Z</time>
      </trkpt>
      <trkpt lat="45.865134" lon="8.892521">
        <ele>437.798294</ele>
        <time>2026-05-02T06:23:10.587Z</time>
      </trkpt>
      <trkpt lat="45.865216" lon="8.892598">
        <ele>438.652344</ele>
        <time>2026-05-02T06:23:16.586Z</time>
      </trkpt>
      <trkpt lat="45.865291" lon="8.892673">
        <ele>439.449017</ele>
        <time>2026-05-02T06:23:22.580Z</time>
      </trkpt>
      <trkpt lat="45.865365" lon="8.892751">
        <ele>440.249190</ele>
        <time>2026-05-02T06:23:28.581Z</time>
      </trkpt>
      <trkpt lat="45.865429" lon="8.892842">
        <ele>441.034280</ele>
        <time>2026-05-02T06:23:34.591Z</time>
      </trkpt>
      <trkpt lat="45.865483" lon="8.892970">
        <ele>441.942720</ele>
        <time>2026-05-02T06:23:41.582Z</time>
      </trkpt>
      <trkpt lat="45.865505" lon="8.893102">
        <ele>442.766602</ele>
        <time>2026-05-02T06:23:47.591Z</time>
      </trkpt>
      <trkpt lat="45.865518" lon="8.893232">
        <ele>443.563808</ele>
        <time>2026-05-02T06:23:53.587Z</time>
      </trkpt>
      <trkpt lat="45.865517" lon="8.893370">
        <ele>444.401524</ele>
        <time>2026-05-02T06:23:59.587Z</time>
      </trkpt>
      <trkpt lat="45.865513" lon="8.893513">
        <ele>445.023805</ele>
        <time>2026-05-02T06:24:05.586Z</time>
      </trkpt>
      <trkpt lat="45.865503" lon="8.893663">
        <ele>444.807821</ele>
        <time>2026-05-02T06:24:11.585Z</time>
      </trkpt>
      <trkpt lat="45.865499" lon="8.893793">
        <ele>444.621304</ele>
        <time>2026-05-02T06:24:16.584Z</time>
      </trkpt>
      <trkpt lat="45.865481" lon="8.893928">
        <ele>444.424287</ele>
        <time>2026-05-02T06:24:21.584Z</time>
      </trkpt>
      <trkpt lat="45.865461" lon="8.894067">
        <ele>444.220843</ele>
        <time>2026-05-02T06:24:26.583Z</time>
      </trkpt>
      <trkpt lat="45.865436" lon="8.894205">
        <ele>444.016457</ele>
        <time>2026-05-02T06:24:31.584Z</time>
      </trkpt>
      <trkpt lat="45.865402" lon="8.894340">
        <ele>443.810688</ele>
        <time>2026-05-02T06:24:36.586Z</time>
      </trkpt>
      <trkpt lat="45.865321" lon="8.894427">
        <ele>443.602484</ele>
        <time>2026-05-02T06:24:41.587Z</time>
      </trkpt>
      <trkpt lat="45.865217" lon="8.894464">
        <ele>443.381941</ele>
        <time>2026-05-02T06:24:46.584Z</time>
      </trkpt>
      <trkpt lat="45.865143" lon="8.894554">
        <ele>443.182334</ele>
        <time>2026-05-02T06:24:50.587Z</time>
      </trkpt>
      <trkpt lat="45.865080" lon="8.894701">
        <ele>442.934923</ele>
        <time>2026-05-02T06:24:54.586Z</time>
      </trkpt>
      <trkpt lat="45.865014" lon="8.894874">
        <ele>442.652176</ele>
        <time>2026-05-02T06:24:57.587Z</time>
      </trkpt>
      <trkpt lat="45.864963" lon="8.895011">
        <ele>442.429508</ele>
        <time>2026-05-02T06:24:59.581Z</time>
      </trkpt>
      <trkpt lat="45.864896" lon="8.895168">
        <ele>442.165573</ele>
        <time>2026-05-02T06:25:01.586Z</time>
      </trkpt>
      <trkpt lat="45.864816" lon="8.895328">
        <ele>441.883239</ele>
        <time>2026-05-02T06:25:03.594Z</time>
      </trkpt>
      <trkpt lat="45.864720" lon="8.895496">
        <ele>441.571735</ele>
        <time>2026-05-02T06:25:05.585Z</time>
      </trkpt>
      <trkpt lat="45.864615" lon="8.895696">
        <ele>440.904911</ele>
        <time>2026-05-02T06:25:07.584Z</time>
      </trkpt>
      <trkpt lat="45.864554" lon="8.895803">
        <ele>440.315270</ele>
        <time>2026-05-02T06:25:08.585Z</time>
      </trkpt>
      <trkpt lat="45.864489" lon="8.895912">
        <ele>439.703365</ele>
        <time>2026-05-02T06:25:09.585Z</time>
      </trkpt>
      <trkpt lat="45.864423" lon="8.896028">
        <ele>439.064635</ele>
        <time>2026-05-02T06:25:10.579Z</time>
      </trkpt>
      <trkpt lat="45.864354" lon="8.896146">
        <ele>438.407618</ele>
        <time>2026-05-02T06:25:11.585Z</time>
      </trkpt>
      <trkpt lat="45.864282" lon="8.896268">
        <ele>437.725719</ele>
        <time>2026-05-02T06:25:12.583Z</time>
      </trkpt>
      <trkpt lat="45.864201" lon="8.896386">
        <ele>437.019205</ele>
        <time>2026-05-02T06:25:13.584Z</time>
      </trkpt>
      <trkpt lat="45.864106" lon="8.896480">
        <ele>436.312778</ele>
        <time>2026-05-02T06:25:14.583Z</time>
      </trkpt>
      <trkpt lat="45.864010" lon="8.896557">
        <ele>435.639467</ele>
        <time>2026-05-02T06:25:15.575Z</time>
      </trkpt>
      <trkpt lat="45.863917" lon="8.896627">
        <ele>434.996521</ele>
        <time>2026-05-02T06:25:16.585Z</time>
      </trkpt>
      <trkpt lat="45.863824" lon="8.896692">
        <ele>434.363191</ele>
        <time>2026-05-02T06:25:17.592Z</time>
      </trkpt>
      <trkpt lat="45.863732" lon="8.896756">
        <ele>433.737231</ele>
        <time>2026-05-02T06:25:18.585Z</time>
      </trkpt>
      <trkpt lat="45.863643" lon="8.896825">
        <ele>433.117911</ele>
        <time>2026-05-02T06:25:19.582Z</time>
      </trkpt>
      <trkpt lat="45.863555" lon="8.896891">
        <ele>432.509999</ele>
        <time>2026-05-02T06:25:20.584Z</time>
      </trkpt>
      <trkpt lat="45.863470" lon="8.896955">
        <ele>431.922317</ele>
        <time>2026-05-02T06:25:21.584Z</time>
      </trkpt>
      <trkpt lat="45.863391" lon="8.897023">
        <ele>431.358334</ele>
        <time>2026-05-02T06:25:22.583Z</time>
      </trkpt>
      <trkpt lat="45.863316" lon="8.897095">
        <ele>430.805919</ele>
        <time>2026-05-02T06:25:23.584Z</time>
      </trkpt>
      <trkpt lat="45.863172" lon="8.897236">
        <ele>430.270810</ele>
        <time>2026-05-02T06:25:25.579Z</time>
      </trkpt>
      <trkpt lat="45.863034" lon="8.897363">
        <ele>430.133673</ele>
        <time>2026-05-02T06:25:27.587Z</time>
      </trkpt>
      <trkpt lat="45.862901" lon="8.897480">
        <ele>430.003174</ele>
        <time>2026-05-02T06:25:29.582Z</time>
      </trkpt>
      <trkpt lat="45.862773" lon="8.897587">
        <ele>429.879256</ele>
        <time>2026-05-02T06:25:31.583Z</time>
      </trkpt>
      <trkpt lat="45.862651" lon="8.897690">
        <ele>429.760847</ele>
        <time>2026-05-02T06:25:33.585Z</time>
      </trkpt>
      <trkpt lat="45.862538" lon="8.897798">
        <ele>429.647276</ele>
        <time>2026-05-02T06:25:35.587Z</time>
      </trkpt>
      <trkpt lat="45.862439" lon="8.897921">
        <ele>429.537745</ele>
        <time>2026-05-02T06:25:37.581Z</time>
      </trkpt>
      <trkpt lat="45.862343" lon="8.898048">
        <ele>429.428535</ele>
        <time>2026-05-02T06:25:39.586Z</time>
      </trkpt>
      <trkpt lat="45.862254" lon="8.898172">
        <ele>429.324782</ele>
        <time>2026-05-02T06:25:41.587Z</time>
      </trkpt>
      <trkpt lat="45.862169" lon="8.898291">
        <ele>429.225458</ele>
        <time>2026-05-02T06:25:43.582Z</time>
      </trkpt>
      <trkpt lat="45.862087" lon="8.898408">
        <ele>429.128741</ele>
        <time>2026-05-02T06:25:45.583Z</time>
      </trkpt>
      <trkpt lat="45.862002" lon="8.898528">
        <ele>429.029011</ele>
        <time>2026-05-02T06:25:47.579Z</time>
      </trkpt>
      <trkpt lat="45.861918" lon="8.898649">
        <ele>428.929463</ele>
        <time>2026-05-02T06:25:49.586Z</time>
      </trkpt>
      <trkpt lat="45.861836" lon="8.898773">
        <ele>428.844777</ele>
        <time>2026-05-02T06:25:51.586Z</time>
      </trkpt>
      <trkpt lat="45.861751" lon="8.898877">
        <ele>428.820099</ele>
        <time>2026-05-02T06:25:53.587Z</time>
      </trkpt>
      <trkpt lat="45.861663" lon="8.898983">
        <ele>428.794717</ele>
        <time>2026-05-02T06:25:55.586Z</time>
      </trkpt>
      <trkpt lat="45.861572" lon="8.899078">
        <ele>428.769855</ele>
        <time>2026-05-02T06:25:57.585Z</time>
      </trkpt>
      <trkpt lat="45.861478" lon="8.899136">
        <ele>428.747245</ele>
        <time>2026-05-02T06:25:59.593Z</time>
      </trkpt>
      <trkpt lat="45.861375" lon="8.899158">
        <ele>428.724234</ele>
        <time>2026-05-02T06:26:01.583Z</time>
      </trkpt>
      <trkpt lat="45.861271" lon="8.899164">
        <ele>428.701233</ele>
        <time>2026-05-02T06:26:03.583Z</time>
      </trkpt>
      <trkpt lat="45.861170" lon="8.899174">
        <ele>428.678860</ele>
        <time>2026-05-02T06:26:05.593Z</time>
      </trkpt>
      <trkpt lat="45.861071" lon="8.899187">
        <ele>428.656891</ele>
        <time>2026-05-02T06:26:07.584Z</time>
      </trkpt>
      <trkpt lat="45.860973" lon="8.899192">
        <ele>428.635221</ele>
        <time>2026-05-02T06:26:09.582Z</time>
      </trkpt>
      <trkpt lat="45.860873" lon="8.899201">
        <ele>428.613079</ele>
        <time>2026-05-02T06:26:11.579Z</time>
      </trkpt>
      <trkpt lat="45.860773" lon="8.899215">
        <ele>428.590876</ele>
        <time>2026-05-02T06:26:13.583Z</time>
      </trkpt>
      <trkpt lat="45.860671" lon="8.899223">
        <ele>428.568302</ele>
        <time>2026-05-02T06:26:15.586Z</time>
      </trkpt>
      <trkpt lat="45.860568" lon="8.899232">
        <ele>428.545499</ele>
        <time>2026-05-02T06:26:17.583Z</time>
      </trkpt>
      <trkpt lat="45.860469" lon="8.899239">
        <ele>428.523595</ele>
        <time>2026-05-02T06:26:19.585Z</time>
      </trkpt>
      <trkpt lat="45.860375" lon="8.899258">
        <ele>428.502617</ele>
        <time>2026-05-02T06:26:21.590Z</time>
      </trkpt>
      <trkpt lat="45.860243" lon="8.899295">
        <ele>428.472897</ele>
        <time>2026-05-02T06:26:24.583Z</time>
      </trkpt>
      <trkpt lat="45.860152" lon="8.899329">
        <ele>428.454080</ele>
        <time>2026-05-02T06:26:26.590Z</time>
      </trkpt>
      <trkpt lat="45.860061" lon="8.899369">
        <ele>428.507851</ele>
        <time>2026-05-02T06:26:28.581Z</time>
      </trkpt>
      <trkpt lat="45.859970" lon="8.899418">
        <ele>428.562763</ele>
        <time>2026-05-02T06:26:30.583Z</time>
      </trkpt>
      <trkpt lat="45.859880" lon="8.899476">
        <ele>428.618500</ele>
        <time>2026-05-02T06:26:32.587Z</time>
      </trkpt>
      <trkpt lat="45.859793" lon="8.899531">
        <ele>428.672209</ele>
        <time>2026-05-02T06:26:34.585Z</time>
      </trkpt>
      <trkpt lat="45.859710" lon="8.899587">
        <ele>428.724024</ele>
        <time>2026-05-02T06:26:36.576Z</time>
      </trkpt>
      <trkpt lat="45.859587" lon="8.899670">
        <ele>428.800811</ele>
        <time>2026-05-02T06:26:39.592Z</time>
      </trkpt>
      <trkpt lat="45.859503" lon="8.899726">
        <ele>428.853138</ele>
        <time>2026-05-02T06:26:41.583Z</time>
      </trkpt>
      <trkpt lat="45.859417" lon="8.899785">
        <ele>428.906990</ele>
        <time>2026-05-02T06:26:43.578Z</time>
      </trkpt>
      <trkpt lat="45.859295" lon="8.899865">
        <ele>428.982768</ele>
        <time>2026-05-02T06:26:46.583Z</time>
      </trkpt>
      <trkpt lat="45.859176" lon="8.899944">
        <ele>429.056842</ele>
        <time>2026-05-02T06:26:49.581Z</time>
      </trkpt>
      <trkpt lat="45.859057" lon="8.900026">
        <ele>429.131420</ele>
        <time>2026-05-02T06:26:52.587Z</time>
      </trkpt>
      <trkpt lat="45.858943" lon="8.900102">
        <ele>429.202434</ele>
        <time>2026-05-02T06:26:55.581Z</time>
      </trkpt>
      <trkpt lat="45.858825" lon="8.900183">
        <ele>429.276332</ele>
        <time>2026-05-02T06:26:58.585Z</time>
      </trkpt>
      <trkpt lat="45.858705" lon="8.900263">
        <ele>429.351084</ele>
        <time>2026-05-02T06:27:01.584Z</time>
      </trkpt>
      <trkpt lat="45.858584" lon="8.900343">
        <ele>429.426350</ele>
        <time>2026-05-02T06:27:04.584Z</time>
      </trkpt>
      <trkpt lat="45.858470" lon="8.900420">
        <ele>429.658745</ele>
        <time>2026-05-02T06:27:07.587Z</time>
      </trkpt>
      <trkpt lat="45.858355" lon="8.900492">
        <ele>430.129015</ele>
        <time>2026-05-02T06:27:10.582Z</time>
      </trkpt>
      <trkpt lat="45.858247" lon="8.900563">
        <ele>430.574262</ele>
        <time>2026-05-02T06:27:13.587Z</time>
      </trkpt>
      <trkpt lat="45.858142" lon="8.900627">
        <ele>431.001845</ele>
        <time>2026-05-02T06:27:16.581Z</time>
      </trkpt>
      <trkpt lat="45.858039" lon="8.900694">
        <ele>431.425708</ele>
        <time>2026-05-02T06:27:19.584Z</time>
      </trkpt>
      <trkpt lat="45.857944" lon="8.900762">
        <ele>431.823607</ele>
        <time>2026-05-02T06:27:22.588Z</time>
      </trkpt>
      <trkpt lat="45.857848" lon="8.900827">
        <ele>432.221461</ele>
        <time>2026-05-02T06:27:25.583Z</time>
      </trkpt>
      <trkpt lat="45.857752" lon="8.900889">
        <ele>432.616038</ele>
        <time>2026-05-02T06:27:28.585Z</time>
      </trkpt>
      <trkpt lat="45.857660" lon="8.900956">
        <ele>433.002718</ele>
        <time>2026-05-02T06:27:31.578Z</time>
      </trkpt>
      <trkpt lat="45.857572" lon="8.901027">
        <ele>433.381091</ele>
        <time>2026-05-02T06:27:34.587Z</time>
      </trkpt>
      <trkpt lat="45.857481" lon="8.901095">
        <ele>433.765630</ele>
        <time>2026-05-02T06:27:37.581Z</time>
      </trkpt>
      <trkpt lat="45.857395" lon="8.901168">
        <ele>434.140115</ele>
        <time>2026-05-02T06:27:40.587Z</time>
      </trkpt>
      <trkpt lat="45.857309" lon="8.901239">
        <ele>434.511972</ele>
        <time>2026-05-02T06:27:43.587Z</time>
      </trkpt>
      <trkpt lat="45.857223" lon="8.901308">
        <ele>434.881253</ele>
        <time>2026-05-02T06:27:46.583Z</time>
      </trkpt>
      <trkpt lat="45.857135" lon="8.901381">
        <ele>435.262212</ele>
        <time>2026-05-02T06:27:49.584Z</time>
      </trkpt>
      <trkpt lat="45.857054" lon="8.901459">
        <ele>435.627798</ele>
        <time>2026-05-02T06:27:52.585Z</time>
      </trkpt>
      <trkpt lat="45.856971" lon="8.901532">
        <ele>435.992649</ele>
        <time>2026-05-02T06:27:55.581Z</time>
      </trkpt>
      <trkpt lat="45.856890" lon="8.901610">
        <ele>436.291071</ele>
        <time>2026-05-02T06:27:58.585Z</time>
      </trkpt>
      <trkpt lat="45.856808" lon="8.901698">
        <ele>436.499678</ele>
        <time>2026-05-02T06:28:01.581Z</time>
      </trkpt>
      <trkpt lat="45.856731" lon="8.901786">
        <ele>436.700217</ele>
        <time>2026-05-02T06:28:04.583Z</time>
      </trkpt>
      <trkpt lat="45.856653" lon="8.901871">
        <ele>436.899752</ele>
        <time>2026-05-02T06:28:07.581Z</time>
      </trkpt>
      <trkpt lat="45.856575" lon="8.901957">
        <ele>437.100148</ele>
        <time>2026-05-02T06:28:10.590Z</time>
      </trkpt>
      <trkpt lat="45.856496" lon="8.902047">
        <ele>437.305644</ele>
        <time>2026-05-02T06:28:13.582Z</time>
      </trkpt>
      <trkpt lat="45.856415" lon="8.902134">
        <ele>437.511770</ele>
        <time>2026-05-02T06:28:16.583Z</time>
      </trkpt>
      <trkpt lat="45.856330" lon="8.902220">
        <ele>437.723658</ele>
        <time>2026-05-02T06:28:19.587Z</time>
      </trkpt>
      <trkpt lat="45.856246" lon="8.902302">
        <ele>437.930639</ele>
        <time>2026-05-02T06:28:22.583Z</time>
      </trkpt>
      <trkpt lat="45.856155" lon="8.902379">
        <ele>438.145876</ele>
        <time>2026-05-02T06:28:25.587Z</time>
      </trkpt>
      <trkpt lat="45.856060" lon="8.902459">
        <ele>438.370297</ele>
        <time>2026-05-02T06:28:28.586Z</time>
      </trkpt>
      <trkpt lat="45.855974" lon="8.902545">
        <ele>438.583854</ele>
        <time>2026-05-02T06:28:31.587Z</time>
      </trkpt>
      <trkpt lat="45.855890" lon="8.902649">
        <ele>438.809870</ele>
        <time>2026-05-02T06:28:34.593Z</time>
      </trkpt>
      <trkpt lat="45.855824" lon="8.902778">
        <ele>439.037037</ele>
        <time>2026-05-02T06:28:37.588Z</time>
      </trkpt>
      <trkpt lat="45.855793" lon="8.902927">
        <ele>439.257731</ele>
        <time>2026-05-02T06:28:40.585Z</time>
      </trkpt>
      <trkpt lat="45.855780" lon="8.903102">
        <ele>439.507501</ele>
        <time>2026-05-02T06:28:43.585Z</time>
      </trkpt>
      <trkpt lat="45.855777" lon="8.903278">
        <ele>439.757355</ele>
        <time>2026-05-02T06:28:46.592Z</time>
      </trkpt>
      <trkpt lat="45.855767" lon="8.903437">
        <ele>440.011142</ele>
        <time>2026-05-02T06:28:49.592Z</time>
      </trkpt>
      <trkpt lat="45.855763" lon="8.903607">
        <ele>440.313529</ele>
        <time>2026-05-02T06:28:52.579Z</time>
      </trkpt>
      <trkpt lat="45.855770" lon="8.903763">
        <ele>440.591431</ele>
        <time>2026-05-02T06:28:55.583Z</time>
      </trkpt>
      <trkpt lat="45.855790" lon="8.903915">
        <ele>440.866426</ele>
        <time>2026-05-02T06:28:58.586Z</time>
      </trkpt>
      <trkpt lat="45.855812" lon="8.904074">
        <ele>441.154610</ele>
        <time>2026-05-02T06:29:01.584Z</time>
      </trkpt>
      <trkpt lat="45.855832" lon="8.904239">
        <ele>441.452345</ele>
        <time>2026-05-02T06:29:04.589Z</time>
      </trkpt>
      <trkpt lat="45.855855" lon="8.904404">
        <ele>441.751488</ele>
        <time>2026-05-02T06:29:07.582Z</time>
      </trkpt>
      <trkpt lat="45.855875" lon="8.904564">
        <ele>442.040469</ele>
        <time>2026-05-02T06:29:10.580Z</time>
      </trkpt>
      <trkpt lat="45.855895" lon="8.904714">
        <ele>442.311971</ele>
        <time>2026-05-02T06:29:13.584Z</time>
      </trkpt>
      <trkpt lat="45.855917" lon="8.904864">
        <ele>442.584479</ele>
        <time>2026-05-02T06:29:16.590Z</time>
      </trkpt>
      <trkpt lat="45.855937" lon="8.905019">
        <ele>442.864716</ele>
        <time>2026-05-02T06:29:19.575Z</time>
      </trkpt>
      <trkpt lat="45.855959" lon="8.905170">
        <ele>443.138964</ele>
        <time>2026-05-02T06:29:22.582Z</time>
      </trkpt>
      <trkpt lat="45.855974" lon="8.905309">
        <ele>443.389017</ele>
        <time>2026-05-02T06:29:25.588Z</time>
      </trkpt>
      <trkpt lat="45.855986" lon="8.905455">
        <ele>443.650366</ele>
        <time>2026-05-02T06:29:28.586Z</time>
      </trkpt>
      <trkpt lat="45.856001" lon="8.905595">
        <ele>443.902175</ele>
        <time>2026-05-02T06:29:31.589Z</time>
      </trkpt>
      <trkpt lat="45.856014" lon="8.905734">
        <ele>444.151497</ele>
        <time>2026-05-02T06:29:34.586Z</time>
      </trkpt>
      <trkpt lat="45.856028" lon="8.905871">
        <ele>444.397653</ele>
        <time>2026-05-02T06:29:37.580Z</time>
      </trkpt>
      <trkpt lat="45.856048" lon="8.906002">
        <ele>444.849222</ele>
        <time>2026-05-02T06:29:40.592Z</time>
      </trkpt>
      <trkpt lat="45.856077" lon="8.906126">
        <ele>445.375346</ele>
        <time>2026-05-02T06:29:43.585Z</time>
      </trkpt>
      <trkpt lat="45.856119" lon="8.906275">
        <ele>446.021883</ele>
        <time>2026-05-02T06:29:47.584Z</time>
      </trkpt>
      <trkpt lat="45.856178" lon="8.906411">
        <ele>446.666347</ele>
        <time>2026-05-02T06:29:51.585Z</time>
      </trkpt>
      <trkpt lat="45.856226" lon="8.906540">
        <ele>447.254622</ele>
        <time>2026-05-02T06:29:55.590Z</time>
      </trkpt>
      <trkpt lat="45.856253" lon="8.906674">
        <ele>447.815702</ele>
        <time>2026-05-02T06:29:59.589Z</time>
      </trkpt>
      <trkpt lat="45.856226" lon="8.906810">
        <ele>448.384513</ele>
        <time>2026-05-02T06:30:03.583Z</time>
      </trkpt>
      <trkpt lat="45.856158" lon="8.906910">
        <ele>448.946658</ele>
        <time>2026-05-02T06:30:07.584Z</time>
      </trkpt>
      <trkpt lat="45.856079" lon="8.906984">
        <ele>449.491405</ele>
        <time>2026-05-02T06:30:11.587Z</time>
      </trkpt>
      <trkpt lat="45.855988" lon="8.907073">
        <ele>450.127286</ele>
        <time>2026-05-02T06:30:16.583Z</time>
      </trkpt>
      <trkpt lat="45.855912" lon="8.907169">
        <ele>450.711878</ele>
        <time>2026-05-02T06:30:21.586Z</time>
      </trkpt>
      <trkpt lat="45.855842" lon="8.907278">
        <ele>451.308239</ele>
        <time>2026-05-02T06:30:26.586Z</time>
      </trkpt>
      <trkpt lat="45.855765" lon="8.907389">
        <ele>451.938386</ele>
        <time>2026-05-02T06:30:31.592Z</time>
      </trkpt>
      <trkpt lat="45.855675" lon="8.907479">
        <ele>452.571794</ele>
        <time>2026-05-02T06:30:36.583Z</time>
      </trkpt>
      <trkpt lat="45.855586" lon="8.907568">
        <ele>453.198165</ele>
        <time>2026-05-02T06:30:41.590Z</time>
      </trkpt>
      <trkpt lat="45.855518" lon="8.907665">
        <ele>453.751743</ele>
        <time>2026-05-02T06:30:45.590Z</time>
      </trkpt>
      <trkpt lat="45.855445" lon="8.907768">
        <ele>454.342825</ele>
        <time>2026-05-02T06:30:49.590Z</time>
      </trkpt>
      <trkpt lat="45.855391" lon="8.907884">
        <ele>454.861764</ele>
        <time>2026-05-02T06:30:53.593Z</time>
      </trkpt>
      <trkpt lat="45.855356" lon="8.908009">
        <ele>454.938506</ele>
        <time>2026-05-02T06:30:57.588Z</time>
      </trkpt>
      <trkpt lat="45.855287" lon="8.908100">
        <ele>455.015133</ele>
        <time>2026-05-02T06:31:02.588Z</time>
      </trkpt>
      <trkpt lat="45.855219" lon="8.908194">
        <ele>455.092336</ele>
        <time>2026-05-02T06:31:07.587Z</time>
      </trkpt>
      <trkpt lat="45.855110" lon="8.908370">
        <ele>455.226494</ele>
        <time>2026-05-02T06:31:50.595Z</time>
      </trkpt>
      <trkpt lat="45.855040" lon="8.908501">
        <ele>455.320548</ele>
        <time>2026-05-02T06:33:12.581Z</time>
      </trkpt>
      <trkpt lat="45.854938" lon="8.908559">
        <ele>455.410275</ele>
        <time>2026-05-02T06:33:17.587Z</time>
      </trkpt>
      <trkpt lat="45.854830" lon="8.908573">
        <ele>455.498965</ele>
        <time>2026-05-02T06:33:21.587Z</time>
      </trkpt>
      <trkpt lat="45.854739" lon="8.908584">
        <ele>455.573655</ele>
        <time>2026-05-02T06:33:24.585Z</time>
      </trkpt>
      <trkpt lat="45.854642" lon="8.908587">
        <ele>455.653008</ele>
        <time>2026-05-02T06:33:27.585Z</time>
      </trkpt>
      <trkpt lat="45.854533" lon="8.908600">
        <ele>455.742464</ele>
        <time>2026-05-02T06:33:30.592Z</time>
      </trkpt>
      <trkpt lat="45.854425" lon="8.908610">
        <ele>455.830978</ele>
        <time>2026-05-02T06:33:33.592Z</time>
      </trkpt>
      <trkpt lat="45.854316" lon="8.908623">
        <ele>455.920433</ele>
        <time>2026-05-02T06:33:36.592Z</time>
      </trkpt>
      <trkpt lat="45.854204" lon="8.908642">
        <ele>456.012673</ele>
        <time>2026-05-02T06:33:39.587Z</time>
      </trkpt>
      <trkpt lat="45.854090" lon="8.908655">
        <ele>456.106204</ele>
        <time>2026-05-02T06:33:42.592Z</time>
      </trkpt>
      <trkpt lat="45.853976" lon="8.908663">
        <ele>456.199553</ele>
        <time>2026-05-02T06:33:45.584Z</time>
      </trkpt>
      <trkpt lat="45.853852" lon="8.908681">
        <ele>456.301487</ele>
        <time>2026-05-02T06:33:48.590Z</time>
      </trkpt>
      <trkpt lat="45.853723" lon="8.908696">
        <ele>456.258565</ele>
        <time>2026-05-02T06:33:51.585Z</time>
      </trkpt>
      <trkpt lat="45.853596" lon="8.908716">
        <ele>456.172266</ele>
        <time>2026-05-02T06:33:54.589Z</time>
      </trkpt>
      <trkpt lat="45.853475" lon="8.908729">
        <ele>456.090305</ele>
        <time>2026-05-02T06:33:57.584Z</time>
      </trkpt>
      <trkpt lat="45.853357" lon="8.908750">
        <ele>456.009990</ele>
        <time>2026-05-02T06:34:00.588Z</time>
      </trkpt>
      <trkpt lat="45.853231" lon="8.908764">
        <ele>455.924626</ele>
        <time>2026-05-02T06:34:03.583Z</time>
      </trkpt>
      <trkpt lat="45.853099" lon="8.908784">
        <ele>455.834969</ele>
        <time>2026-05-02T06:34:06.582Z</time>
      </trkpt>
      <trkpt lat="45.852972" lon="8.908802">
        <ele>455.748768</ele>
        <time>2026-05-02T06:34:09.589Z</time>
      </trkpt>
      <trkpt lat="45.852842" lon="8.908814">
        <ele>455.660775</ele>
        <time>2026-05-02T06:34:12.583Z</time>
      </trkpt>
      <trkpt lat="45.852712" lon="8.908820">
        <ele>455.572919</ele>
        <time>2026-05-02T06:34:15.583Z</time>
      </trkpt>
      <trkpt lat="45.852588" lon="8.908829">
        <ele>455.489054</ele>
        <time>2026-05-02T06:34:18.587Z</time>
      </trkpt>
      <trkpt lat="45.852460" lon="8.908834">
        <ele>455.402562</ele>
        <time>2026-05-02T06:34:21.587Z</time>
      </trkpt>
      <trkpt lat="45.852329" lon="8.908842">
        <ele>455.313995</ele>
        <time>2026-05-02T06:34:24.588Z</time>
      </trkpt>
      <trkpt lat="45.852200" lon="8.908845">
        <ele>455.226848</ele>
        <time>2026-05-02T06:34:27.585Z</time>
      </trkpt>
      <trkpt lat="45.852070" lon="8.908848">
        <ele>455.139026</ele>
        <time>2026-05-02T06:34:30.589Z</time>
      </trkpt>
      <trkpt lat="45.851935" lon="8.908856">
        <ele>455.119280</ele>
        <time>2026-05-02T06:34:33.583Z</time>
      </trkpt>
      <trkpt lat="45.851844" lon="8.908857">
        <ele>455.127406</ele>
        <time>2026-05-02T06:34:35.584Z</time>
      </trkpt>
      <trkpt lat="45.851756" lon="8.908829">
        <ele>455.135455</ele>
        <time>2026-05-02T06:34:37.585Z</time>
      </trkpt>
      <trkpt lat="45.851680" lon="8.908740">
        <ele>455.144212</ele>
        <time>2026-05-02T06:34:39.584Z</time>
      </trkpt>
      <trkpt lat="45.851618" lon="8.908628">
        <ele>455.153110</ele>
        <time>2026-05-02T06:34:41.582Z</time>
      </trkpt>
      <trkpt lat="45.851537" lon="8.908561">
        <ele>455.161457</ele>
        <time>2026-05-02T06:34:43.582Z</time>
      </trkpt>
      <trkpt lat="45.851416" lon="8.908623">
        <ele>455.172930</ele>
        <time>2026-05-02T06:34:46.589Z</time>
      </trkpt>
      <trkpt lat="45.851335" lon="8.908760">
        <ele>455.184106</ele>
        <time>2026-05-02T06:34:49.582Z</time>
      </trkpt>
      <trkpt lat="45.851225" lon="8.908836">
        <ele>455.195007</ele>
        <time>2026-05-02T06:34:52.589Z</time>
      </trkpt>
      <trkpt lat="45.851102" lon="8.908847">
        <ele>455.206011</ele>
        <time>2026-05-02T06:34:55.583Z</time>
      </trkpt>
      <trkpt lat="45.850982" lon="8.908856">
        <ele>455.216741</ele>
        <time>2026-05-02T06:34:58.588Z</time>
      </trkpt>
      <trkpt lat="45.850857" lon="8.908874">
        <ele>455.227959</ele>
        <time>2026-05-02T06:35:01.584Z</time>
      </trkpt>
      <trkpt lat="45.850724" lon="8.908879">
        <ele>455.239839</ele>
        <time>2026-05-02T06:35:04.584Z</time>
      </trkpt>
      <trkpt lat="45.850630" lon="8.908883">
        <ele>455.248236</ele>
        <time>2026-05-02T06:35:06.577Z</time>
      </trkpt>
      <trkpt lat="45.850540" lon="8.908892">
        <ele>455.256292</ele>
        <time>2026-05-02T06:35:08.587Z</time>
      </trkpt>
      <trkpt lat="45.850405" lon="8.908908">
        <ele>455.268388</ele>
        <time>2026-05-02T06:35:11.594Z</time>
      </trkpt>
      <trkpt lat="45.850312" lon="8.908916">
        <ele>455.230568</ele>
        <time>2026-05-02T06:35:13.586Z</time>
      </trkpt>
      <trkpt lat="45.850219" lon="8.908921">
        <ele>455.164711</ele>
        <time>2026-05-02T06:35:15.585Z</time>
      </trkpt>
      <trkpt lat="45.850126" lon="8.908923">
        <ele>455.098893</ele>
        <time>2026-05-02T06:35:17.582Z</time>
      </trkpt>
      <trkpt lat="45.850031" lon="8.908931">
        <ele>455.031551</ele>
        <time>2026-05-02T06:35:19.584Z</time>
      </trkpt>
      <trkpt lat="45.849940" lon="8.908934">
        <ele>454.967138</ele>
        <time>2026-05-02T06:35:21.585Z</time>
      </trkpt>
      <trkpt lat="45.849846" lon="8.908938">
        <ele>454.900590</ele>
        <time>2026-05-02T06:35:23.592Z</time>
      </trkpt>
      <trkpt lat="45.849755" lon="8.908938">
        <ele>454.836194</ele>
        <time>2026-05-02T06:35:25.592Z</time>
      </trkpt>
      <trkpt lat="45.849663" lon="8.908932">
        <ele>454.771024</ele>
        <time>2026-05-02T06:35:27.592Z</time>
      </trkpt>
      <trkpt lat="45.849569" lon="8.908910">
        <ele>454.703627</ele>
        <time>2026-05-02T06:35:29.585Z</time>
      </trkpt>
      <trkpt lat="45.849480" lon="8.908856">
        <ele>454.635253</ele>
        <time>2026-05-02T06:35:31.582Z</time>
      </trkpt>
      <trkpt lat="45.849389" lon="8.908800">
        <ele>454.565191</ele>
        <time>2026-05-02T06:35:33.585Z</time>
      </trkpt>
      <trkpt lat="45.849294" lon="8.908791">
        <ele>454.497818</ele>
        <time>2026-05-02T06:35:35.598Z</time>
      </trkpt>
      <trkpt lat="45.849196" lon="8.908812">
        <ele>454.427701</ele>
        <time>2026-05-02T06:35:37.598Z</time>
      </trkpt>
      <trkpt lat="45.849102" lon="8.908808">
        <ele>454.361153</ele>
        <time>2026-05-02T06:35:39.584Z</time>
      </trkpt>
      <trkpt lat="45.849014" lon="8.908741">
        <ele>454.290665</ele>
        <time>2026-05-02T06:35:41.590Z</time>
      </trkpt>
      <trkpt lat="45.848936" lon="8.908659">
        <ele>454.222252</ele>
        <time>2026-05-02T06:35:43.585Z</time>
      </trkpt>
      <trkpt lat="45.848840" lon="8.908627">
        <ele>454.152511</ele>
        <time>2026-05-02T06:35:45.584Z</time>
      </trkpt>
      <trkpt lat="45.848754" lon="8.908693">
        <ele>454.083504</ele>
        <time>2026-05-02T06:35:47.589Z</time>
      </trkpt>
      <trkpt lat="45.848687" lon="8.908801">
        <ele>454.012217</ele>
        <time>2026-05-02T06:35:49.588Z</time>
      </trkpt>
      <trkpt lat="45.848606" lon="8.908891">
        <ele>453.949449</ele>
        <time>2026-05-02T06:35:51.588Z</time>
      </trkpt>
      <trkpt lat="45.848517" lon="8.908947">
        <ele>453.892006</ele>
        <time>2026-05-02T06:35:53.585Z</time>
      </trkpt>
      <trkpt lat="45.848415" lon="8.908978">
        <ele>453.830373</ele>
        <time>2026-05-02T06:35:55.589Z</time>
      </trkpt>
      <trkpt lat="45.848309" lon="8.908993">
        <ele>453.767408</ele>
        <time>2026-05-02T06:35:57.588Z</time>
      </trkpt>
      <trkpt lat="45.848205" lon="8.909003">
        <ele>453.705792</ele>
        <time>2026-05-02T06:35:59.590Z</time>
      </trkpt>
      <trkpt lat="45.848100" lon="8.909013">
        <ele>453.643585</ele>
        <time>2026-05-02T06:36:01.579Z</time>
      </trkpt>
      <trkpt lat="45.847995" lon="8.909020">
        <ele>453.581448</ele>
        <time>2026-05-02T06:36:03.587Z</time>
      </trkpt>
      <trkpt lat="45.847896" lon="8.909026">
        <ele>453.522873</ele>
        <time>2026-05-02T06:36:05.578Z</time>
      </trkpt>
      <trkpt lat="45.847793" lon="8.909044">
        <ele>453.461536</ele>
        <time>2026-05-02T06:36:07.587Z</time>
      </trkpt>
      <trkpt lat="45.847688" lon="8.909056">
        <ele>453.399270</ele>
        <time>2026-05-02T06:36:09.588Z</time>
      </trkpt>
      <trkpt lat="45.847585" lon="8.909067">
        <ele>453.338214</ele>
        <time>2026-05-02T06:36:11.587Z</time>
      </trkpt>
      <trkpt lat="45.847487" lon="8.909078">
        <ele>453.280105</ele>
        <time>2026-05-02T06:36:13.584Z</time>
      </trkpt>
      <trkpt lat="45.847384" lon="8.909086">
        <ele>453.219128</ele>
        <time>2026-05-02T06:36:15.584Z</time>
      </trkpt>
      <trkpt lat="45.847275" lon="8.909095">
        <ele>453.154587</ele>
        <time>2026-05-02T06:36:17.593Z</time>
      </trkpt>
      <trkpt lat="45.847166" lon="8.909105">
        <ele>453.090021</ele>
        <time>2026-05-02T06:36:19.591Z</time>
      </trkpt>
      <trkpt lat="45.847057" lon="8.909111">
        <ele>453.025539</ele>
        <time>2026-05-02T06:36:21.583Z</time>
      </trkpt>
      <trkpt lat="45.846948" lon="8.909128">
        <ele>452.960726</ele>
        <time>2026-05-02T06:36:23.586Z</time>
      </trkpt>
      <trkpt lat="45.846840" lon="8.909135">
        <ele>452.754662</ele>
        <time>2026-05-02T06:36:25.584Z</time>
      </trkpt>
      <trkpt lat="45.846736" lon="8.909147">
        <ele>452.466215</ele>
        <time>2026-05-02T06:36:27.585Z</time>
      </trkpt>
      <trkpt lat="45.846633" lon="8.909157">
        <ele>452.180810</ele>
        <time>2026-05-02T06:36:29.588Z</time>
      </trkpt>
      <trkpt lat="45.846527" lon="8.909163">
        <ele>451.887534</ele>
        <time>2026-05-02T06:36:31.584Z</time>
      </trkpt>
      <trkpt lat="45.846420" lon="8.909171">
        <ele>451.591320</ele>
        <time>2026-05-02T06:36:33.590Z</time>
      </trkpt>
      <trkpt lat="45.846311" lon="8.909183">
        <ele>451.289092</ele>
        <time>2026-05-02T06:36:35.585Z</time>
      </trkpt>
      <trkpt lat="45.846198" lon="8.909191">
        <ele>450.976312</ele>
        <time>2026-05-02T06:36:37.582Z</time>
      </trkpt>
      <trkpt lat="45.846089" lon="8.909193">
        <ele>450.674945</ele>
        <time>2026-05-02T06:36:39.588Z</time>
      </trkpt>
      <trkpt lat="45.845981" lon="8.909189">
        <ele>450.376267</ele>
        <time>2026-05-02T06:36:41.582Z</time>
      </trkpt>
      <trkpt lat="45.845871" lon="8.909180">
        <ele>450.071667</ele>
        <time>2026-05-02T06:36:43.582Z</time>
      </trkpt>
      <trkpt lat="45.845760" lon="8.909171">
        <ele>449.764306</ele>
        <time>2026-05-02T06:36:45.588Z</time>
      </trkpt>
      <trkpt lat="45.845642" lon="8.909160">
        <ele>449.437395</ele>
        <time>2026-05-02T06:36:47.587Z</time>
      </trkpt>
      <trkpt lat="45.845518" lon="8.909150">
        <ele>449.094043</ele>
        <time>2026-05-02T06:36:49.584Z</time>
      </trkpt>
      <trkpt lat="45.845390" lon="8.909137">
        <ele>448.739288</ele>
        <time>2026-05-02T06:36:51.575Z</time>
      </trkpt>
      <trkpt lat="45.845253" lon="8.909126">
        <ele>448.359945</ele>
        <time>2026-05-02T06:36:53.588Z</time>
      </trkpt>
      <trkpt lat="45.845110" lon="8.909111">
        <ele>447.963552</ele>
        <time>2026-05-02T06:36:55.586Z</time>
      </trkpt>
      <trkpt lat="45.844960" lon="8.909099">
        <ele>447.291988</ele>
        <time>2026-05-02T06:36:57.581Z</time>
      </trkpt>
      <trkpt lat="45.844807" lon="8.909083">
        <ele>446.605853</ele>
        <time>2026-05-02T06:36:59.585Z</time>
      </trkpt>
      <trkpt lat="45.844651" lon="8.909069">
        <ele>445.906750</ele>
        <time>2026-05-02T06:37:01.585Z</time>
      </trkpt>
      <trkpt lat="45.844496" lon="8.909057">
        <ele>445.212476</ele>
        <time>2026-05-02T06:37:03.582Z</time>
      </trkpt>
      <trkpt lat="45.844342" lon="8.909048">
        <ele>444.523110</ele>
        <time>2026-05-02T06:37:05.586Z</time>
      </trkpt>
      <trkpt lat="45.844190" lon="8.909033">
        <ele>443.841656</ele>
        <time>2026-05-02T06:37:07.593Z</time>
      </trkpt>
      <trkpt lat="45.844038" lon="8.909010">
        <ele>443.158041</ele>
        <time>2026-05-02T06:37:09.586Z</time>
      </trkpt>
      <trkpt lat="45.843883" lon="8.908987">
        <ele>442.461079</ele>
        <time>2026-05-02T06:37:11.581Z</time>
      </trkpt>
      <trkpt lat="45.843726" lon="8.908967">
        <ele>441.756107</ele>
        <time>2026-05-02T06:37:13.587Z</time>
      </trkpt>
      <trkpt lat="45.843568" lon="8.908944">
        <ele>441.045797</ele>
        <time>2026-05-02T06:37:15.584Z</time>
      </trkpt>
      <trkpt lat="45.843404" lon="8.908908">
        <ele>440.303749</ele>
        <time>2026-05-02T06:37:17.579Z</time>
      </trkpt>
      <trkpt lat="45.843243" lon="8.908852">
        <ele>439.556039</ele>
        <time>2026-05-02T06:37:19.584Z</time>
      </trkpt>
      <trkpt lat="45.843071" lon="8.908780">
        <ele>438.739430</ele>
        <time>2026-05-02T06:37:21.586Z</time>
      </trkpt>
      <trkpt lat="45.842985" lon="8.908730">
        <ele>438.316522</ele>
        <time>2026-05-02T06:37:22.584Z</time>
      </trkpt>
      <trkpt lat="45.842898" lon="8.908682">
        <ele>437.891705</ele>
        <time>2026-05-02T06:37:23.590Z</time>
      </trkpt>
      <trkpt lat="45.842810" lon="8.908627">
        <ele>437.454243</ele>
        <time>2026-05-02T06:37:24.584Z</time>
      </trkpt>
      <trkpt lat="45.842719" lon="8.908575">
        <ele>437.007820</ele>
        <time>2026-05-02T06:37:25.589Z</time>
      </trkpt>
      <trkpt lat="45.842628" lon="8.908526">
        <ele>436.564832</ele>
        <time>2026-05-02T06:37:26.584Z</time>
      </trkpt>
      <trkpt lat="45.842539" lon="8.908475">
        <ele>436.128053</ele>
        <time>2026-05-02T06:37:27.589Z</time>
      </trkpt>
      <trkpt lat="45.842448" lon="8.908433">
        <ele>435.692373</ele>
        <time>2026-05-02T06:37:28.582Z</time>
      </trkpt>
      <trkpt lat="45.842356" lon="8.908400">
        <ele>435.260154</ele>
        <time>2026-05-02T06:37:29.582Z</time>
      </trkpt>
      <trkpt lat="45.842264" lon="8.908373">
        <ele>434.832155</ele>
        <time>2026-05-02T06:37:30.584Z</time>
      </trkpt>
      <trkpt lat="45.842172" lon="8.908353">
        <ele>434.408048</ele>
        <time>2026-05-02T06:37:31.590Z</time>
      </trkpt>
      <trkpt lat="45.842081" lon="8.908343">
        <ele>433.992066</ele>
        <time>2026-05-02T06:37:32.589Z</time>
      </trkpt>
      <trkpt lat="45.841990" lon="8.908342">
        <ele>433.577286</ele>
        <time>2026-05-02T06:37:33.592Z</time>
      </trkpt>
      <trkpt lat="45.841816" lon="8.908363">
        <ele>432.781415</ele>
        <time>2026-05-02T06:37:35.583Z</time>
      </trkpt>
      <trkpt lat="45.841652" lon="8.908436">
        <ele>431.998808</ele>
        <time>2026-05-02T06:37:37.589Z</time>
      </trkpt>
      <trkpt lat="45.841506" lon="8.908548">
        <ele>431.525805</ele>
        <time>2026-05-02T06:37:39.581Z</time>
      </trkpt>
      <trkpt lat="45.841374" lon="8.908684">
        <ele>431.223356</ele>
        <time>2026-05-02T06:37:41.580Z</time>
      </trkpt>
      <trkpt lat="45.841258" lon="8.908841">
        <ele>430.926585</ele>
        <time>2026-05-02T06:37:43.583Z</time>
      </trkpt>
      <trkpt lat="45.841143" lon="8.908990">
        <ele>430.638216</ele>
        <time>2026-05-02T06:37:45.583Z</time>
      </trkpt>
      <trkpt lat="45.841034" lon="8.909145">
        <ele>430.352617</ele>
        <time>2026-05-02T06:37:47.583Z</time>
      </trkpt>
      <trkpt lat="45.840931" lon="8.909295">
        <ele>430.079496</ele>
        <time>2026-05-02T06:37:49.582Z</time>
      </trkpt>
      <trkpt lat="45.840831" lon="8.909438">
        <ele>429.816748</ele>
        <time>2026-05-02T06:37:51.588Z</time>
      </trkpt>
      <trkpt lat="45.840736" lon="8.909576">
        <ele>429.565162</ele>
        <time>2026-05-02T06:37:53.585Z</time>
      </trkpt>
      <trkpt lat="45.840641" lon="8.909706">
        <ele>429.320846</ele>
        <time>2026-05-02T06:37:55.582Z</time>
      </trkpt>
      <trkpt lat="45.840555" lon="8.909829">
        <ele>429.094865</ele>
        <time>2026-05-02T06:37:57.579Z</time>
      </trkpt>
      <trkpt lat="45.840472" lon="8.909953">
        <ele>428.871870</ele>
        <time>2026-05-02T06:37:59.590Z</time>
      </trkpt>
      <trkpt lat="45.840390" lon="8.910075">
        <ele>428.652035</ele>
        <time>2026-05-02T06:38:01.587Z</time>
      </trkpt>
      <trkpt lat="45.840306" lon="8.910186">
        <ele>428.439508</ele>
        <time>2026-05-02T06:38:03.587Z</time>
      </trkpt>
      <trkpt lat="45.840204" lon="8.910263">
        <ele>428.475177</ele>
        <time>2026-05-02T06:38:05.593Z</time>
      </trkpt>
      <trkpt lat="45.840102" lon="8.910309">
        <ele>428.614625</ele>
        <time>2026-05-02T06:38:07.585Z</time>
      </trkpt>
      <trkpt lat="45.840029" lon="8.910399">
        <ele>428.740137</ele>
        <time>2026-05-02T06:38:09.584Z</time>
      </trkpt>
      <trkpt lat="45.840062" lon="8.910523">
        <ele>428.860750</ele>
        <time>2026-05-02T06:38:11.591Z</time>
      </trkpt>
      <trkpt lat="45.840139" lon="8.910600">
        <ele>428.983149</ele>
        <time>2026-05-02T06:38:13.585Z</time>
      </trkpt>
      <trkpt lat="45.840222" lon="8.910670">
        <ele>429.108707</ele>
        <time>2026-05-02T06:38:15.584Z</time>
      </trkpt>
      <trkpt lat="45.840312" lon="8.910712">
        <ele>429.232140</ele>
        <time>2026-05-02T06:38:17.591Z</time>
      </trkpt>
      <trkpt lat="45.840399" lon="8.910761">
        <ele>429.354035</ele>
        <time>2026-05-02T06:38:19.582Z</time>
      </trkpt>
      <trkpt lat="45.840488" lon="8.910818">
        <ele>429.481147</ele>
        <time>2026-05-02T06:38:21.584Z</time>
      </trkpt>
      <trkpt lat="45.840575" lon="8.910875">
        <ele>429.605881</ele>
        <time>2026-05-02T06:38:23.584Z</time>
      </trkpt>
      <trkpt lat="45.840661" lon="8.910924">
        <ele>429.726562</ele>
        <time>2026-05-02T06:38:25.582Z</time>
      </trkpt>
      <trkpt lat="45.840747" lon="8.910972">
        <ele>429.846912</ele>
        <time>2026-05-02T06:38:27.580Z</time>
      </trkpt>
      <trkpt lat="45.840865" lon="8.911042">
        <ele>430.013442</ele>
        <time>2026-05-02T06:38:30.586Z</time>
      </trkpt>
      <trkpt lat="45.840974" lon="8.911111">
        <ele>430.168820</ele>
        <time>2026-05-02T06:38:33.585Z</time>
      </trkpt>
      <trkpt lat="45.841075" lon="8.911170">
        <ele>430.311043</ele>
        <time>2026-05-02T06:38:36.582Z</time>
      </trkpt>
      <trkpt lat="45.841166" lon="8.911226">
        <ele>430.440180</ele>
        <time>2026-05-02T06:38:39.589Z</time>
      </trkpt>
      <trkpt lat="45.841273" lon="8.911290">
        <ele>430.591370</ele>
        <time>2026-05-02T06:38:43.585Z</time>
      </trkpt>
      <trkpt lat="45.841362" lon="8.911351">
        <ele>430.718533</ele>
        <time>2026-05-02T06:38:46.595Z</time>
      </trkpt>
      <trkpt lat="45.841443" lon="8.911440">
        <ele>430.751954</ele>
        <time>2026-05-02T06:38:49.583Z</time>
      </trkpt>
      <trkpt lat="45.841516" lon="8.911559">
        <ele>430.788145</ele>
        <time>2026-05-02T06:38:52.587Z</time>
      </trkpt>
      <trkpt lat="45.841575" lon="8.911691">
        <ele>430.823942</ele>
        <time>2026-05-02T06:38:55.581Z</time>
      </trkpt>
      <trkpt lat="45.841616" lon="8.911840">
        <ele>430.860508</ele>
        <time>2026-05-02T06:38:58.583Z</time>
      </trkpt>
      <trkpt lat="45.841653" lon="8.912001">
        <ele>430.899203</ele>
        <time>2026-05-02T06:39:01.582Z</time>
      </trkpt>
      <trkpt lat="45.841686" lon="8.912173">
        <ele>430.939924</ele>
        <time>2026-05-02T06:39:04.586Z</time>
      </trkpt>
      <trkpt lat="45.841704" lon="8.912334">
        <ele>430.977142</ele>
        <time>2026-05-02T06:39:07.587Z</time>
      </trkpt>
      <trkpt lat="45.841708" lon="8.912500">
        <ele>431.015053</ele>
        <time>2026-05-02T06:39:10.585Z</time>
      </trkpt>
      <trkpt lat="45.841686" lon="8.912645">
        <ele>431.048925</ele>
        <time>2026-05-02T06:39:13.588Z</time>
      </trkpt>
      <trkpt lat="45.841644" lon="8.912781">
        <ele>431.082880</ele>
        <time>2026-05-02T06:39:16.586Z</time>
      </trkpt>
      <trkpt lat="45.841558" lon="8.912892">
        <ele>431.120772</ele>
        <time>2026-05-02T06:39:19.585Z</time>
      </trkpt>
      <trkpt lat="45.841439" lon="8.912944">
        <ele>431.161528</ele>
        <time>2026-05-02T06:39:22.584Z</time>
      </trkpt>
      <trkpt lat="45.841330" lon="8.913009">
        <ele>431.200199</ele>
        <time>2026-05-02T06:39:25.591Z</time>
      </trkpt>
      <trkpt lat="45.841242" lon="8.913058">
        <ele>431.231125</ele>
        <time>2026-05-02T06:39:28.584Z</time>
      </trkpt>
      <trkpt lat="45.841160" lon="8.913111">
        <ele>431.260589</ele>
        <time>2026-05-02T06:39:34.581Z</time>
      </trkpt>
      <trkpt lat="45.841070" lon="8.913209">
        <ele>431.297601</ele>
        <time>2026-05-02T06:39:38.588Z</time>
      </trkpt>
      <trkpt lat="45.841028" lon="8.913332">
        <ele>431.214856</ele>
        <time>2026-05-02T06:39:41.581Z</time>
      </trkpt>
      <trkpt lat="45.841035" lon="8.913488">
        <ele>431.061527</ele>
        <time>2026-05-02T06:39:44.588Z</time>
      </trkpt>
      <trkpt lat="45.841064" lon="8.913636">
        <ele>430.910730</ele>
        <time>2026-05-02T06:39:47.586Z</time>
      </trkpt>
      <trkpt lat="45.841098" lon="8.913764">
        <ele>430.776365</ele>
        <time>2026-05-02T06:39:50.586Z</time>
      </trkpt>
      <trkpt lat="45.841130" lon="8.913919">
        <ele>430.617800</ele>
        <time>2026-05-02T06:39:54.587Z</time>
      </trkpt>
      <trkpt lat="45.841160" lon="8.914087">
        <ele>430.447691</ele>
        <time>2026-05-02T06:39:58.594Z</time>
      </trkpt>
      <trkpt lat="45.841171" lon="8.914223">
        <ele>430.313400</ele>
        <time>2026-05-02T06:40:01.584Z</time>
      </trkpt>
      <trkpt lat="45.841192" lon="8.914375">
        <ele>430.161409</ele>
        <time>2026-05-02T06:40:04.586Z</time>
      </trkpt>
      <trkpt lat="45.841251" lon="8.914524">
        <ele>429.993306</ele>
        <time>2026-05-02T06:40:07.585Z</time>
      </trkpt>
      <trkpt lat="45.841336" lon="8.914661">
        <ele>429.813365</ele>
        <time>2026-05-02T06:40:10.586Z</time>
      </trkpt>
      <trkpt lat="45.841438" lon="8.914780">
        <ele>429.628305</ele>
        <time>2026-05-02T06:40:13.593Z</time>
      </trkpt>
      <trkpt lat="45.841524" lon="8.914913">
        <ele>429.450320</ele>
        <time>2026-05-02T06:40:16.580Z</time>
      </trkpt>
      <trkpt lat="45.841579" lon="8.915080">
        <ele>429.269139</ele>
        <time>2026-05-02T06:40:19.585Z</time>
      </trkpt>
      <trkpt lat="45.841617" lon="8.915203">
        <ele>429.137165</ele>
        <time>2026-05-02T06:40:21.585Z</time>
      </trkpt>
      <trkpt lat="45.841657" lon="8.915338">
        <ele>428.993274</ele>
        <time>2026-05-02T06:40:23.583Z</time>
      </trkpt>
      <trkpt lat="45.841700" lon="8.915478">
        <ele>428.843203</ele>
        <time>2026-05-02T06:40:25.578Z</time>
      </trkpt>
      <trkpt lat="45.841740" lon="8.915628">
        <ele>428.538970</ele>
        <time>2026-05-02T06:40:27.585Z</time>
      </trkpt>
      <trkpt lat="45.841779" lon="8.915779">
        <ele>428.121512</ele>
        <time>2026-05-02T06:40:29.587Z</time>
      </trkpt>
      <trkpt lat="45.841816" lon="8.915937">
        <ele>427.689423</ele>
        <time>2026-05-02T06:40:31.584Z</time>
      </trkpt>
      <trkpt lat="45.841853" lon="8.916106">
        <ele>427.230217</ele>
        <time>2026-05-02T06:40:33.582Z</time>
      </trkpt>
      <trkpt lat="45.841886" lon="8.916284">
        <ele>426.752746</ele>
        <time>2026-05-02T06:40:35.584Z</time>
      </trkpt>
      <trkpt lat="45.841924" lon="8.916471">
        <ele>426.247804</ele>
        <time>2026-05-02T06:40:37.584Z</time>
      </trkpt>
      <trkpt lat="45.841967" lon="8.916666">
        <ele>425.717607</ele>
        <time>2026-05-02T06:40:39.584Z</time>
      </trkpt>
      <trkpt lat="45.842013" lon="8.916872">
        <ele>425.156853</ele>
        <time>2026-05-02T06:40:41.581Z</time>
      </trkpt>
      <trkpt lat="45.842059" lon="8.917084">
        <ele>424.581269</ele>
        <time>2026-05-02T06:40:43.581Z</time>
      </trkpt>
      <trkpt lat="45.842115" lon="8.917294">
        <ele>423.998390</ele>
        <time>2026-05-02T06:40:45.582Z</time>
      </trkpt>
      <trkpt lat="45.842180" lon="8.917499">
        <ele>423.414539</ele>
        <time>2026-05-02T06:40:47.587Z</time>
      </trkpt>
      <trkpt lat="45.842244" lon="8.917701">
        <ele>422.839308</ele>
        <time>2026-05-02T06:40:49.582Z</time>
      </trkpt>
      <trkpt lat="45.842316" lon="8.917892">
        <ele>422.276363</ele>
        <time>2026-05-02T06:40:51.585Z</time>
      </trkpt>
      <trkpt lat="45.842385" lon="8.918070">
        <ele>421.936509</ele>
        <time>2026-05-02T06:40:53.587Z</time>
      </trkpt>
      <trkpt lat="45.842448" lon="8.918247">
        <ele>421.711657</ele>
        <time>2026-05-02T06:40:55.577Z</time>
      </trkpt>
      <trkpt lat="45.842513" lon="8.918413">
        <ele>421.496238</ele>
        <time>2026-05-02T06:40:57.585Z</time>
      </trkpt>
      <trkpt lat="45.842574" lon="8.918571">
        <ele>421.291888</ele>
        <time>2026-05-02T06:40:59.585Z</time>
      </trkpt>
      <trkpt lat="45.842635" lon="8.918724">
        <ele>421.092467</ele>
        <time>2026-05-02T06:41:01.581Z</time>
      </trkpt>
      <trkpt lat="45.842693" lon="8.918878">
        <ele>420.894425</ele>
        <time>2026-05-02T06:41:03.584Z</time>
      </trkpt>
      <trkpt lat="45.842752" lon="8.919021">
        <ele>420.706415</ele>
        <time>2026-05-02T06:41:05.584Z</time>
      </trkpt>
      <trkpt lat="45.842807" lon="8.919163">
        <ele>420.522619</ele>
        <time>2026-05-02T06:41:07.584Z</time>
      </trkpt>
      <trkpt lat="45.842860" lon="8.919301">
        <ele>420.344356</ele>
        <time>2026-05-02T06:41:09.583Z</time>
      </trkpt>
      <trkpt lat="45.842914" lon="8.919435">
        <ele>420.169234</ele>
        <time>2026-05-02T06:41:11.579Z</time>
      </trkpt>
      <trkpt lat="45.842970" lon="8.919576">
        <ele>419.985628</ele>
        <time>2026-05-02T06:41:13.584Z</time>
      </trkpt>
      <trkpt lat="45.843030" lon="8.919721">
        <ele>419.794843</ele>
        <time>2026-05-02T06:41:15.590Z</time>
      </trkpt>
      <trkpt lat="45.843088" lon="8.919864">
        <ele>419.607656</ele>
        <time>2026-05-02T06:41:17.592Z</time>
      </trkpt>
      <trkpt lat="45.843142" lon="8.920009">
        <ele>419.421659</ele>
        <time>2026-05-02T06:41:19.583Z</time>
      </trkpt>
      <trkpt lat="45.843200" lon="8.920150">
        <ele>419.236423</ele>
        <time>2026-05-02T06:41:21.589Z</time>
      </trkpt>
      <trkpt lat="45.843254" lon="8.920286">
        <ele>418.853227</ele>
        <time>2026-05-02T06:41:23.583Z</time>
      </trkpt>
      <trkpt lat="45.843309" lon="8.920427">
        <ele>418.301409</ele>
        <time>2026-05-02T06:41:25.585Z</time>
      </trkpt>
      <trkpt lat="45.843366" lon="8.920568">
        <ele>417.744736</ele>
        <time>2026-05-02T06:41:27.580Z</time>
      </trkpt>
      <trkpt lat="45.843429" lon="8.920711">
        <ele>417.166975</ele>
        <time>2026-05-02T06:41:29.589Z</time>
      </trkpt>
      <trkpt lat="45.843484" lon="8.920865">
        <ele>416.576028</ele>
        <time>2026-05-02T06:41:31.581Z</time>
      </trkpt>
      <trkpt lat="45.843528" lon="8.921013">
        <ele>416.026552</ele>
        <time>2026-05-02T06:41:33.585Z</time>
      </trkpt>
      <trkpt lat="45.843529" lon="8.921168">
        <ele>415.497250</ele>
        <time>2026-05-02T06:41:35.580Z</time>
      </trkpt>
      <trkpt lat="45.843461" lon="8.921301">
        <ele>414.933900</ele>
        <time>2026-05-02T06:41:37.591Z</time>
      </trkpt>
      <trkpt lat="45.843342" lon="8.921388">
        <ele>414.279290</ele>
        <time>2026-05-02T06:41:39.589Z</time>
      </trkpt>
      <trkpt lat="45.843199" lon="8.921482">
        <ele>413.508332</ele>
        <time>2026-05-02T06:41:41.588Z</time>
      </trkpt>
      <trkpt lat="45.843031" lon="8.921585">
        <ele>412.612862</ele>
        <time>2026-05-02T06:41:43.583Z</time>
      </trkpt>
      <trkpt lat="45.842938" lon="8.921636">
        <ele>412.124860</ele>
        <time>2026-05-02T06:41:44.582Z</time>
      </trkpt>
      <trkpt lat="45.842846" lon="8.921692">
        <ele>411.635025</ele>
        <time>2026-05-02T06:41:45.588Z</time>
      </trkpt>
      <trkpt lat="45.842757" lon="8.921750">
        <ele>411.155910</ele>
        <time>2026-05-02T06:41:46.581Z</time>
      </trkpt>
      <trkpt lat="45.842672" lon="8.921805">
        <ele>410.698883</ele>
        <time>2026-05-02T06:41:47.586Z</time>
      </trkpt>
      <trkpt lat="45.842590" lon="8.921859">
        <ele>410.333152</ele>
        <time>2026-05-02T06:41:48.580Z</time>
      </trkpt>
      <trkpt lat="45.842431" lon="8.921963">
        <ele>410.219776</ele>
        <time>2026-05-02T06:41:50.581Z</time>
      </trkpt>
      <trkpt lat="45.842285" lon="8.922054">
        <ele>410.116495</ele>
        <time>2026-05-02T06:41:52.587Z</time>
      </trkpt>
      <trkpt lat="45.842147" lon="8.922139">
        <ele>410.019056</ele>
        <time>2026-05-02T06:41:54.581Z</time>
      </trkpt>
      <trkpt lat="45.842017" lon="8.922215">
        <ele>409.927975</ele>
        <time>2026-05-02T06:41:56.578Z</time>
      </trkpt>
      <trkpt lat="45.841894" lon="8.922286">
        <ele>409.841952</ele>
        <time>2026-05-02T06:41:58.584Z</time>
      </trkpt>
      <trkpt lat="45.841783" lon="8.922356">
        <ele>409.763284</ele>
        <time>2026-05-02T06:42:00.585Z</time>
      </trkpt>
      <trkpt lat="45.841672" lon="8.922424">
        <ele>409.684974</ele>
        <time>2026-05-02T06:42:02.586Z</time>
      </trkpt>
      <trkpt lat="45.841564" lon="8.922488">
        <ele>409.609159</ele>
        <time>2026-05-02T06:42:04.583Z</time>
      </trkpt>
      <trkpt lat="45.841463" lon="8.922551">
        <ele>409.537703</ele>
        <time>2026-05-02T06:42:06.582Z</time>
      </trkpt>
      <trkpt lat="45.841362" lon="8.922607">
        <ele>409.467448</ele>
        <time>2026-05-02T06:42:08.584Z</time>
      </trkpt>
      <trkpt lat="45.841265" lon="8.922627">
        <ele>409.403861</ele>
        <time>2026-05-02T06:42:10.583Z</time>
      </trkpt>
      <trkpt lat="45.841138" lon="8.922666">
        <ele>409.319590</ele>
        <time>2026-05-02T06:42:13.586Z</time>
      </trkpt>
      <trkpt lat="45.841019" lon="8.922726">
        <ele>409.237749</ele>
        <time>2026-05-02T06:42:16.584Z</time>
      </trkpt>
      <trkpt lat="45.840932" lon="8.922779">
        <ele>409.178196</ele>
        <time>2026-05-02T06:42:18.583Z</time>
      </trkpt>
      <trkpt lat="45.840840" lon="8.922833">
        <ele>409.200980</ele>
        <time>2026-05-02T06:42:20.585Z</time>
      </trkpt>
      <trkpt lat="45.840728" lon="8.922867">
        <ele>409.227220</ele>
        <time>2026-05-02T06:42:22.582Z</time>
      </trkpt>
      <trkpt lat="45.840587" lon="8.922864">
        <ele>409.259543</ele>
        <time>2026-05-02T06:42:24.589Z</time>
      </trkpt>
      <trkpt lat="45.840470" lon="8.922825">
        <ele>409.287076</ele>
        <time>2026-05-02T06:42:26.581Z</time>
      </trkpt>
      <trkpt lat="45.840372" lon="8.922720">
        <ele>409.315107</ele>
        <time>2026-05-02T06:42:29.582Z</time>
      </trkpt>
      <trkpt lat="45.840329" lon="8.922585">
        <ele>409.338811</ele>
        <time>2026-05-02T06:42:34.581Z</time>
      </trkpt>
      <trkpt lat="45.840329" lon="8.922454">
        <ele>409.359730</ele>
        <time>2026-05-02T06:42:39.587Z</time>
      </trkpt>
      <trkpt lat="45.840241" lon="8.922507">
        <ele>409.381605</ele>
        <time>2026-05-02T06:42:45.590Z</time>
      </trkpt>
      <trkpt lat="45.840269" lon="8.922656">
        <ele>409.406249</ele>
        <time>2026-05-02T06:42:49.584Z</time>
      </trkpt>
      <trkpt lat="45.840322" lon="8.922790">
        <ele>409.430855</ele>
        <time>2026-05-02T06:42:53.585Z</time>
      </trkpt>
      <trkpt lat="45.840414" lon="8.922897">
        <ele>409.457997</ele>
        <time>2026-05-02T06:42:57.584Z</time>
      </trkpt>
      <trkpt lat="45.840488" lon="8.922978">
        <ele>409.479328</ele>
        <time>2026-05-02T06:43:00.586Z</time>
      </trkpt>
      <trkpt lat="45.840504" lon="8.923147">
        <ele>409.506563</ele>
        <time>2026-05-02T06:43:04.591Z</time>
      </trkpt>
      <trkpt lat="45.840423" lon="8.923251">
        <ele>409.531474</ele>
        <time>2026-05-02T06:43:08.580Z</time>
      </trkpt>
      <trkpt lat="45.840324" lon="8.923302">
        <ele>409.555584</ele>
        <time>2026-05-02T06:43:12.589Z</time>
      </trkpt>
      <trkpt lat="45.840231" lon="8.923358">
        <ele>409.578701</ele>
        <time>2026-05-02T06:43:17.589Z</time>
      </trkpt>
      <trkpt lat="45.840136" lon="8.923403">
        <ele>409.577675</ele>
        <time>2026-05-02T06:43:23.589Z</time>
      </trkpt>
      <trkpt lat="45.839987" lon="8.923478">
        <ele>409.539213</ele>
        <time>2026-05-02T06:50:08.591Z</time>
      </trkpt>
      <trkpt lat="45.839898" lon="8.923531">
        <ele>409.515743</ele>
        <time>2026-05-02T06:50:15.580Z</time>
      </trkpt>
      <trkpt lat="45.839826" lon="8.923635">
        <ele>409.490862</ele>
        <time>2026-05-02T06:50:21.586Z</time>
      </trkpt>
      <trkpt lat="45.839816" lon="8.923791">
        <ele>409.464277</ele>
        <time>2026-05-02T06:50:26.587Z</time>
      </trkpt>
      <trkpt lat="45.839827" lon="8.923928">
        <ele>409.440874</ele>
        <time>2026-05-02T06:50:30.584Z</time>
      </trkpt>
      <trkpt lat="45.839823" lon="8.924079">
        <ele>409.415231</ele>
        <time>2026-05-02T06:50:34.591Z</time>
      </trkpt>
      <trkpt lat="45.839803" lon="8.924213">
        <ele>409.391976</ele>
        <time>2026-05-02T06:50:38.582Z</time>
      </trkpt>
      <trkpt lat="45.839782" lon="8.924345">
        <ele>409.368999</ele>
        <time>2026-05-02T06:50:42.583Z</time>
      </trkpt>
      <trkpt lat="45.839753" lon="8.924489">
        <ele>409.343562</ele>
        <time>2026-05-02T06:50:46.589Z</time>
      </trkpt>
      <trkpt lat="45.839731" lon="8.924655">
        <ele>409.314887</ele>
        <time>2026-05-02T06:50:50.584Z</time>
      </trkpt>
      <trkpt lat="45.839713" lon="8.924815">
        <ele>409.287383</ele>
        <time>2026-05-02T06:50:54.582Z</time>
      </trkpt>
      <trkpt lat="45.839704" lon="8.924987">
        <ele>409.258113</ele>
        <time>2026-05-02T06:50:58.581Z</time>
      </trkpt>
      <trkpt lat="45.839697" lon="8.925122">
        <ele>409.235140</ele>
        <time>2026-05-02T06:51:01.580Z</time>
      </trkpt>
      <trkpt lat="45.839691" lon="8.925257">
        <ele>409.212184</ele>
        <time>2026-05-02T06:51:04.589Z</time>
      </trkpt>
      <trkpt lat="45.839683" lon="8.925427">
        <ele>409.183270</ele>
        <time>2026-05-02T06:51:08.579Z</time>
      </trkpt>
      <trkpt lat="45.839678" lon="8.925565">
        <ele>409.159819</ele>
        <time>2026-05-02T06:51:11.590Z</time>
      </trkpt>
      <trkpt lat="45.839672" lon="8.925705">
        <ele>408.995917</ele>
        <time>2026-05-02T06:51:14.584Z</time>
      </trkpt>
      <trkpt lat="45.839674" lon="8.925839">
        <ele>408.772452</ele>
        <time>2026-05-02T06:51:17.595Z</time>
      </trkpt>
      <trkpt lat="45.839689" lon="8.926007">
        <ele>408.490061</ele>
        <time>2026-05-02T06:51:21.587Z</time>
      </trkpt>
      <trkpt lat="45.839697" lon="8.926176">
        <ele>408.207644</ele>
        <time>2026-05-02T06:51:25.587Z</time>
      </trkpt>
      <trkpt lat="45.839712" lon="8.926307">
        <ele>407.986302</ele>
        <time>2026-05-02T06:51:28.584Z</time>
      </trkpt>
      <trkpt lat="45.839740" lon="8.926433">
        <ele>407.765799</ele>
        <time>2026-05-02T06:51:31.583Z</time>
      </trkpt>
      <trkpt lat="45.839763" lon="8.926566">
        <ele>407.537323</ele>
        <time>2026-05-02T06:51:34.578Z</time>
      </trkpt>
      <trkpt lat="45.839807" lon="8.926703">
        <ele>407.285805</ele>
        <time>2026-05-02T06:51:38.585Z</time>
      </trkpt>
      <trkpt lat="45.839867" lon="8.926820">
        <ele>407.043585</ele>
        <time>2026-05-02T06:51:42.582Z</time>
      </trkpt>
      <trkpt lat="45.839912" lon="8.926967">
        <ele>406.775881</ele>
        <time>2026-05-02T06:51:46.595Z</time>
      </trkpt>
      <trkpt lat="45.839904" lon="8.927097">
        <ele>406.558294</ele>
        <time>2026-05-02T06:51:49.583Z</time>
      </trkpt>
      <trkpt lat="45.839887" lon="8.927232">
        <ele>406.329567</ele>
        <time>2026-05-02T06:51:53.590Z</time>
      </trkpt>
      <trkpt lat="45.839883" lon="8.927381">
        <ele>406.080961</ele>
        <time>2026-05-02T06:51:57.586Z</time>
      </trkpt>
      <trkpt lat="45.839889" lon="8.927519">
        <ele>405.850432</ele>
        <time>2026-05-02T06:52:00.587Z</time>
      </trkpt>
      <trkpt lat="45.839895" lon="8.927662">
        <ele>405.611582</ele>
        <time>2026-05-02T06:52:03.592Z</time>
      </trkpt>
      <trkpt lat="45.839901" lon="8.927800">
        <ele>405.381053</ele>
        <time>2026-05-02T06:52:06.580Z</time>
      </trkpt>
      <trkpt lat="45.839904" lon="8.927971">
        <ele>405.095862</ele>
        <time>2026-05-02T06:52:10.583Z</time>
      </trkpt>
      <trkpt lat="45.839908" lon="8.928129">
        <ele>404.839470</ele>
        <time>2026-05-02T06:52:14.579Z</time>
      </trkpt>
      <trkpt lat="45.839910" lon="8.928296">
        <ele>404.693687</ele>
        <time>2026-05-02T06:52:18.580Z</time>
      </trkpt>
      <trkpt lat="45.839907" lon="8.928468">
        <ele>404.543515</ele>
        <time>2026-05-02T06:52:22.583Z</time>
      </trkpt>
      <trkpt lat="45.839909" lon="8.928636">
        <ele>404.396859</ele>
        <time>2026-05-02T06:52:26.579Z</time>
      </trkpt>
      <trkpt lat="45.839908" lon="8.928794">
        <ele>404.258947</ele>
        <time>2026-05-02T06:52:30.581Z</time>
      </trkpt>
      <trkpt lat="45.839907" lon="8.928928">
        <ele>404.141982</ele>
        <time>2026-05-02T06:52:33.583Z</time>
      </trkpt>
      <trkpt lat="45.839909" lon="8.929069">
        <ele>404.018889</ele>
        <time>2026-05-02T06:52:36.589Z</time>
      </trkpt>
      <trkpt lat="45.839909" lon="8.929203">
        <ele>403.901930</ele>
        <time>2026-05-02T06:52:39.589Z</time>
      </trkpt>
      <trkpt lat="45.839906" lon="8.929372">
        <ele>403.754375</ele>
        <time>2026-05-02T06:52:43.581Z</time>
      </trkpt>
      <trkpt lat="45.839905" lon="8.929514">
        <ele>403.630428</ele>
        <time>2026-05-02T06:52:46.583Z</time>
      </trkpt>
      <trkpt lat="45.839901" lon="8.929658">
        <ele>403.504642</ele>
        <time>2026-05-02T06:52:49.587Z</time>
      </trkpt>
      <trkpt lat="45.839897" lon="8.929787">
        <ele>403.391936</ele>
        <time>2026-05-02T06:52:52.583Z</time>
      </trkpt>
      <trkpt lat="45.839889" lon="8.929946">
        <ele>403.252796</ele>
        <time>2026-05-02T06:52:56.587Z</time>
      </trkpt>
      <trkpt lat="45.839880" lon="8.930116">
        <ele>403.103988</ele>
        <time>2026-05-02T06:53:00.587Z</time>
      </trkpt>
      <trkpt lat="45.839875" lon="8.930253">
        <ele>402.984247</ele>
        <time>2026-05-02T06:53:03.586Z</time>
      </trkpt>
      <trkpt lat="45.839859" lon="8.930392">
        <ele>402.861280</ele>
        <time>2026-05-02T06:53:06.585Z</time>
      </trkpt>
      <trkpt lat="45.839834" lon="8.930520">
        <ele>402.745251</ele>
        <time>2026-05-02T06:53:09.592Z</time>
      </trkpt>
      <trkpt lat="45.839796" lon="8.930684">
        <ele>402.594398</ele>
        <time>2026-05-02T06:53:13.586Z</time>
      </trkpt>
      <trkpt lat="45.839763" lon="8.930810">
        <ele>402.558759</ele>
        <time>2026-05-02T06:53:16.582Z</time>
      </trkpt>
      <trkpt lat="45.839724" lon="8.930930">
        <ele>402.524013</ele>
        <time>2026-05-02T06:53:19.584Z</time>
      </trkpt>
      <trkpt lat="45.839665" lon="8.931062">
        <ele>402.482860</ele>
        <time>2026-05-02T06:53:23.583Z</time>
      </trkpt>
      <trkpt lat="45.839607" lon="8.931182">
        <ele>402.444536</ele>
        <time>2026-05-02T06:53:27.581Z</time>
      </trkpt>
      <trkpt lat="45.839553" lon="8.931315">
        <ele>402.404141</ele>
        <time>2026-05-02T06:53:31.580Z</time>
      </trkpt>
      <trkpt lat="45.839495" lon="8.931455">
        <ele>402.361400</ele>
        <time>2026-05-02T06:53:35.589Z</time>
      </trkpt>
      <trkpt lat="45.839435" lon="8.931602">
        <ele>402.316694</ele>
        <time>2026-05-02T06:53:39.580Z</time>
      </trkpt>
      <trkpt lat="45.839383" lon="8.931722">
        <ele>402.279611</ele>
        <time>2026-05-02T06:53:42.582Z</time>
      </trkpt>
      <trkpt lat="45.839331" lon="8.931843">
        <ele>402.242305</ele>
        <time>2026-05-02T06:53:45.588Z</time>
      </trkpt>
      <trkpt lat="45.839285" lon="8.931962">
        <ele>402.206594</ele>
        <time>2026-05-02T06:53:48.580Z</time>
      </trkpt>
      <trkpt lat="45.839238" lon="8.932074">
        <ele>402.172285</ele>
        <time>2026-05-02T06:53:51.585Z</time>
      </trkpt>
      <trkpt lat="45.839180" lon="8.932216">
        <ele>402.129091</ele>
        <time>2026-05-02T06:53:55.584Z</time>
      </trkpt>
      <trkpt lat="45.839131" lon="8.932328">
        <ele>402.094387</ele>
        <time>2026-05-02T06:53:58.580Z</time>
      </trkpt>
      <trkpt lat="45.839081" lon="8.932444">
        <ele>402.058593</ele>
        <time>2026-05-02T06:54:01.583Z</time>
      </trkpt>
      <trkpt lat="45.839027" lon="8.932581">
        <ele>402.017289</ele>
        <time>2026-05-02T06:54:05.584Z</time>
      </trkpt>
      <trkpt lat="45.838984" lon="8.932701">
        <ele>401.981879</ele>
        <time>2026-05-02T06:54:08.583Z</time>
      </trkpt>
      <trkpt lat="45.838956" lon="8.932848">
        <ele>401.941889</ele>
        <time>2026-05-02T06:54:12.590Z</time>
      </trkpt>
      <trkpt lat="45.839047" lon="8.933065">
        <ele>402.286273</ele>
        <time>2026-05-02T06:54:33.583Z</time>
      </trkpt>
      <trkpt lat="45.839123" lon="8.933190">
        <ele>402.678449</ele>
        <time>2026-05-02T06:54:37.587Z</time>
      </trkpt>
      <trkpt lat="45.839189" lon="8.933301">
        <ele>403.023402</ele>
        <time>2026-05-02T06:54:41.581Z</time>
      </trkpt>
      <trkpt lat="45.839184" lon="8.933441">
        <ele>403.354771</ele>
        <time>2026-05-02T06:54:48.587Z</time>
      </trkpt>
      <trkpt lat="45.839068" lon="8.933531">
        <ele>403.802175</ele>
        <time>2026-05-02T06:55:14.581Z</time>
      </trkpt>
      <trkpt lat="45.839036" lon="8.933668">
        <ele>404.143734</ele>
        <time>2026-05-02T06:55:20.583Z</time>
      </trkpt>
      <trkpt lat="45.838963" lon="8.933764">
        <ele>404.479659</ele>
        <time>2026-05-02T06:55:27.587Z</time>
      </trkpt>
      <trkpt lat="45.838871" lon="8.933821">
        <ele>404.819652</ele>
        <time>2026-05-02T06:55:32.578Z</time>
      </trkpt>
      <trkpt lat="45.838770" lon="8.933859">
        <ele>405.173921</ele>
        <time>2026-05-02T06:55:37.586Z</time>
      </trkpt>
      <trkpt lat="45.838672" lon="8.933909">
        <ele>405.526815</ele>
        <time>2026-05-02T06:55:42.586Z</time>
      </trkpt>
      <trkpt lat="45.838563" lon="8.933944">
        <ele>405.905792</ele>
        <time>2026-05-02T06:55:47.582Z</time>
      </trkpt>
      <trkpt lat="45.838469" lon="8.933975">
        <ele>406.233043</ele>
        <time>2026-05-02T06:55:51.582Z</time>
      </trkpt>
      <trkpt lat="45.838367" lon="8.934005">
        <ele>406.586319</ele>
        <time>2026-05-02T06:55:55.581Z</time>
      </trkpt>
      <trkpt lat="45.838269" lon="8.934035">
        <ele>406.926310</ele>
        <time>2026-05-02T06:55:59.579Z</time>
      </trkpt>
      <trkpt lat="45.838172" lon="8.934076">
        <ele>407.269404</ele>
        <time>2026-05-02T06:56:03.584Z</time>
      </trkpt>
      <trkpt lat="45.838080" lon="8.934127">
        <ele>407.604030</ele>
        <time>2026-05-02T06:56:07.584Z</time>
      </trkpt>
      <trkpt lat="45.837988" lon="8.934145">
        <ele>407.919072</ele>
        <time>2026-05-02T06:56:11.580Z</time>
      </trkpt>
      <trkpt lat="45.837896" lon="8.934127">
        <ele>408.479334</ele>
        <time>2026-05-02T06:56:15.587Z</time>
      </trkpt>
      <trkpt lat="45.837808" lon="8.934085">
        <ele>409.153118</ele>
        <time>2026-05-02T06:56:19.595Z</time>
      </trkpt>
      <trkpt lat="45.837725" lon="8.934019">
        <ele>409.842513</ele>
        <time>2026-05-02T06:56:23.589Z</time>
      </trkpt>
      <trkpt lat="45.837661" lon="8.933926">
        <ele>410.504196</ele>
        <time>2026-05-02T06:56:27.586Z</time>
      </trkpt>
      <trkpt lat="45.837575" lon="8.933855">
        <ele>411.225015</ele>
        <time>2026-05-02T06:56:31.576Z</time>
      </trkpt>
      <trkpt lat="45.837487" lon="8.933816">
        <ele>411.894163</ele>
        <time>2026-05-02T06:56:35.584Z</time>
      </trkpt>
      <trkpt lat="45.837380" lon="8.933794">
        <ele>412.679509</ele>
        <time>2026-05-02T06:56:39.578Z</time>
      </trkpt>
      <trkpt lat="45.837275" lon="8.933753">
        <ele>413.470114</ele>
        <time>2026-05-02T06:56:43.583Z</time>
      </trkpt>
      <trkpt lat="45.837176" lon="8.933737">
        <ele>414.193946</ele>
        <time>2026-05-02T06:56:47.582Z</time>
      </trkpt>
      <trkpt lat="45.837082" lon="8.933719">
        <ele>414.882955</ele>
        <time>2026-05-02T06:56:51.581Z</time>
      </trkpt>
      <trkpt lat="45.836985" lon="8.933706">
        <ele>415.590776</ele>
        <time>2026-05-02T06:56:56.588Z</time>
      </trkpt>
      <trkpt lat="45.836888" lon="8.933700">
        <ele>416.296185</ele>
        <time>2026-05-02T06:57:02.584Z</time>
      </trkpt>
      <trkpt lat="45.836788" lon="8.933667">
        <ele>417.041692</ele>
        <time>2026-05-02T06:57:09.577Z</time>
      </trkpt>
      <trkpt lat="45.836710" lon="8.933594">
        <ele>417.718231</ele>
        <time>2026-05-02T06:57:16.580Z</time>
      </trkpt>
      <trkpt lat="45.836622" lon="8.933525">
        <ele>418.446778</ele>
        <time>2026-05-02T06:57:23.586Z</time>
      </trkpt>
      <trkpt lat="45.836534" lon="8.933473">
        <ele>419.138206</ele>
        <time>2026-05-02T06:57:29.583Z</time>
      </trkpt>
      <trkpt lat="45.836436" lon="8.933410">
        <ele>419.918381</ele>
        <time>2026-05-02T06:57:35.590Z</time>
      </trkpt>
      <trkpt lat="45.836352" lon="8.933344">
        <ele>420.614143</ele>
        <time>2026-05-02T06:57:40.583Z</time>
      </trkpt>
      <trkpt lat="45.836260" lon="8.933288">
        <ele>421.332199</ele>
        <time>2026-05-02T06:57:45.582Z</time>
      </trkpt>
      <trkpt lat="45.836172" lon="8.933259">
        <ele>421.967456</ele>
        <time>2026-05-02T06:57:49.581Z</time>
      </trkpt>
      <trkpt lat="45.836064" lon="8.933228">
        <ele>422.742364</ele>
        <time>2026-05-02T06:57:54.588Z</time>
      </trkpt>
      <trkpt lat="45.835963" lon="8.933209">
        <ele>423.459054</ele>
        <time>2026-05-02T06:57:59.587Z</time>
      </trkpt>
      <trkpt lat="45.835861" lon="8.933197">
        <ele>424.179109</ele>
        <time>2026-05-02T06:58:04.585Z</time>
      </trkpt>
      <trkpt lat="45.835768" lon="8.933128">
        <ele>424.915685</ele>
        <time>2026-05-02T06:58:09.583Z</time>
      </trkpt>
      <trkpt lat="45.835681" lon="8.933043">
        <ele>425.656152</ele>
        <time>2026-05-02T06:58:14.591Z</time>
      </trkpt>
      <trkpt lat="45.835591" lon="8.932959">
        <ele>426.411477</ele>
        <time>2026-05-02T06:58:19.592Z</time>
      </trkpt>
      <trkpt lat="45.835504" lon="8.932859">
        <ele>427.195679</ele>
        <time>2026-05-02T06:58:24.579Z</time>
      </trkpt>
      <trkpt lat="45.835434" lon="8.932746">
        <ele>427.936887</ele>
        <time>2026-05-02T06:58:29.583Z</time>
      </trkpt>
      <trkpt lat="45.835370" lon="8.932614">
        <ele>428.725206</ele>
        <time>2026-05-02T06:58:34.580Z</time>
      </trkpt>
      <trkpt lat="45.835287" lon="8.932518">
        <ele>429.475189</ele>
        <time>2026-05-02T06:58:39.592Z</time>
      </trkpt>
      <trkpt lat="45.835197" lon="8.932498">
        <ele>430.115953</ele>
        <time>2026-05-02T06:58:44.582Z</time>
      </trkpt>
      <trkpt lat="45.835093" lon="8.932495">
        <ele>430.847820</ele>
        <time>2026-05-02T06:58:50.581Z</time>
      </trkpt>
      <trkpt lat="45.835001" lon="8.932449">
        <ele>431.533263</ele>
        <time>2026-05-02T06:58:58.585Z</time>
      </trkpt>
      <trkpt lat="45.834911" lon="8.932384">
        <ele>432.242129</ele>
        <time>2026-05-02T06:59:06.585Z</time>
      </trkpt>
      <trkpt lat="45.834855" lon="8.932260">
        <ele>432.966505</ele>
        <time>2026-05-02T06:59:13.584Z</time>
      </trkpt>
      <trkpt lat="45.834791" lon="8.932163">
        <ele>433.621377</ele>
        <time>2026-05-02T06:59:19.585Z</time>
      </trkpt>
      <trkpt lat="45.834707" lon="8.932115">
        <ele>434.749057</ele>
        <time>2026-05-02T06:59:25.584Z</time>
      </trkpt>
      <trkpt lat="45.834614" lon="8.932145">
        <ele>436.059413</ele>
        <time>2026-05-02T06:59:32.583Z</time>
      </trkpt>
      <trkpt lat="45.834530" lon="8.932201">
        <ele>437.332643</ele>
        <time>2026-05-02T06:59:39.583Z</time>
      </trkpt>
      <trkpt lat="45.834451" lon="8.932272">
        <ele>438.613992</ele>
        <time>2026-05-02T06:59:46.578Z</time>
      </trkpt>
      <trkpt lat="45.834369" lon="8.932338">
        <ele>439.906391</ele>
        <time>2026-05-02T06:59:55.575Z</time>
      </trkpt>
      <trkpt lat="45.834285" lon="8.932410">
        <ele>441.251379</ele>
        <time>2026-05-02T07:00:04.580Z</time>
      </trkpt>
      <trkpt lat="45.834210" lon="8.932492">
        <ele>442.547467</ele>
        <time>2026-05-02T07:00:12.583Z</time>
      </trkpt>
      <trkpt lat="45.834140" lon="8.932589">
        <ele>443.885060</ele>
        <time>2026-05-02T07:00:21.584Z</time>
      </trkpt>
      <trkpt lat="45.834087" lon="8.932703">
        <ele>445.197717</ele>
        <time>2026-05-02T07:00:31.582Z</time>
      </trkpt>
      <trkpt lat="45.834050" lon="8.932821">
        <ele>446.437101</ele>
        <time>2026-05-02T07:00:40.583Z</time>
      </trkpt>
      <trkpt lat="45.833992" lon="8.932934">
        <ele>447.781397</ele>
        <time>2026-05-02T07:00:50.581Z</time>
      </trkpt>
      <trkpt lat="45.833927" lon="8.933029">
        <ele>449.056690</ele>
        <time>2026-05-02T07:01:00.582Z</time>
      </trkpt>
      <trkpt lat="45.833857" lon="8.933119">
        <ele>450.348617</ele>
        <time>2026-05-02T07:01:10.578Z</time>
      </trkpt>
      <trkpt lat="45.833787" lon="8.933203">
        <ele>451.602931</ele>
        <time>2026-05-02T07:01:18.582Z</time>
      </trkpt>
      <trkpt lat="45.833715" lon="8.933295">
        <ele>452.928126</ele>
        <time>2026-05-02T07:01:28.590Z</time>
      </trkpt>
      <trkpt lat="45.833633" lon="8.933376">
        <ele>454.296552</ele>
        <time>2026-05-02T07:01:38.584Z</time>
      </trkpt>
      <trkpt lat="45.833545" lon="8.933444">
        <ele>455.670470</ele>
        <time>2026-05-02T07:01:47.580Z</time>
      </trkpt>
      <trkpt lat="45.833460" lon="8.933510">
        <ele>456.998997</ele>
        <time>2026-05-02T07:01:55.580Z</time>
      </trkpt>
      <trkpt lat="45.833378" lon="8.933577">
        <ele>458.296113</ele>
        <time>2026-05-02T07:02:03.586Z</time>
      </trkpt>
      <trkpt lat="45.833300" lon="8.933641">
        <ele>459.111522</ele>
        <time>2026-05-02T07:02:12.586Z</time>
      </trkpt>
      <trkpt lat="45.833215" lon="8.933716">
        <ele>459.941730</ele>
        <time>2026-05-02T07:02:22.580Z</time>
      </trkpt>
      <trkpt lat="45.833127" lon="8.933785">
        <ele>460.776079</ele>
        <time>2026-05-02T07:02:31.581Z</time>
      </trkpt>
      <trkpt lat="45.833061" lon="8.933877">
        <ele>461.541610</ele>
        <time>2026-05-02T07:02:39.593Z</time>
      </trkpt>
      <trkpt lat="45.833096" lon="8.934015">
        <ele>462.392997</ele>
        <time>2026-05-02T07:02:47.587Z</time>
      </trkpt>
      <trkpt lat="45.833141" lon="8.934143">
        <ele>463.224167</ele>
        <time>2026-05-02T07:02:56.584Z</time>
      </trkpt>
      <trkpt lat="45.833185" lon="8.934266">
        <ele>464.025729</ele>
        <time>2026-05-02T07:03:05.577Z</time>
      </trkpt>
      <trkpt lat="45.833231" lon="8.934392">
        <ele>464.850391</ele>
        <time>2026-05-02T07:03:15.590Z</time>
      </trkpt>
      <trkpt lat="45.833268" lon="8.934514">
        <ele>465.621761</ele>
        <time>2026-05-02T07:03:23.583Z</time>
      </trkpt>
      <trkpt lat="45.833336" lon="8.934630">
        <ele>466.500604</ele>
        <time>2026-05-02T07:03:30.582Z</time>
      </trkpt>
      <trkpt lat="45.833391" lon="8.934751">
        <ele>467.338154</ele>
        <time>2026-05-02T07:03:36.581Z</time>
      </trkpt>
      <trkpt lat="45.833409" lon="8.934887">
        <ele>468.140686</ele>
        <time>2026-05-02T07:03:42.587Z</time>
      </trkpt>
      <trkpt lat="45.833460" lon="8.935084">
        <ele>469.359040</ele>
        <time>2026-05-02T07:04:24.581Z</time>
      </trkpt>
      <trkpt lat="45.833480" lon="8.935214">
        <ele>470.130842</ele>
        <time>2026-05-02T07:04:29.586Z</time>
      </trkpt>
      <trkpt lat="45.833477" lon="8.935348">
        <ele>470.908080</ele>
        <time>2026-05-02T07:04:34.587Z</time>
      </trkpt>
      <trkpt lat="45.833432" lon="8.935472">
        <ele>471.718611</ele>
        <time>2026-05-02T07:04:39.587Z</time>
      </trkpt>
      <trkpt lat="45.833363" lon="8.935571">
        <ele>472.530404</ele>
        <time>2026-05-02T07:04:44.586Z</time>
      </trkpt>
      <trkpt lat="45.833319" lon="8.935692">
        <ele>473.321667</ele>
        <time>2026-05-02T07:04:49.584Z</time>
      </trkpt>
      <trkpt lat="45.833304" lon="8.935840">
        <ele>473.724440</ele>
        <time>2026-05-02T07:04:54.586Z</time>
      </trkpt>
      <trkpt lat="45.833288" lon="8.935975">
        <ele>474.030204</ele>
        <time>2026-05-02T07:04:59.592Z</time>
      </trkpt>
      <trkpt lat="45.833279" lon="8.936125">
        <ele>474.366369</ele>
        <time>2026-05-02T07:05:04.592Z</time>
      </trkpt>
      <trkpt lat="45.833276" lon="8.936281">
        <ele>474.714825</ele>
        <time>2026-05-02T07:05:09.591Z</time>
      </trkpt>
      <trkpt lat="45.833272" lon="8.936437">
        <ele>475.063384</ele>
        <time>2026-05-02T07:05:14.588Z</time>
      </trkpt>
      <trkpt lat="45.833272" lon="8.936591">
        <ele>475.407242</ele>
        <time>2026-05-02T07:05:19.587Z</time>
      </trkpt>
      <trkpt lat="45.833285" lon="8.936745">
        <ele>475.753614</ele>
        <time>2026-05-02T07:05:24.587Z</time>
      </trkpt>
      <trkpt lat="45.833284" lon="8.936876">
        <ele>476.046133</ele>
        <time>2026-05-02T07:05:28.582Z</time>
      </trkpt>
      <trkpt lat="45.833287" lon="8.937036">
        <ele>476.403517</ele>
        <time>2026-05-02T07:05:33.586Z</time>
      </trkpt>
      <trkpt lat="45.833276" lon="8.937190">
        <ele>476.749177</ele>
        <time>2026-05-02T07:05:38.592Z</time>
      </trkpt>
      <trkpt lat="45.833290" lon="8.937325">
        <ele>477.053931</ele>
        <time>2026-05-02T07:05:42.586Z</time>
      </trkpt>
      <trkpt lat="45.833301" lon="8.937477">
        <ele>477.395148</ele>
        <time>2026-05-02T07:05:46.591Z</time>
      </trkpt>
      <trkpt lat="45.833307" lon="8.937629">
        <ele>477.735084</ele>
        <time>2026-05-02T07:05:50.581Z</time>
      </trkpt>
      <trkpt lat="45.833323" lon="8.937804">
        <ele>478.129181</ele>
        <time>2026-05-02T07:05:54.593Z</time>
      </trkpt>
      <trkpt lat="45.833347" lon="8.937969">
        <ele>478.505542</ele>
        <time>2026-05-02T07:05:57.586Z</time>
      </trkpt>
      <trkpt lat="45.833373" lon="8.938159">
        <ele>478.937886</ele>
        <time>2026-05-02T07:06:00.588Z</time>
      </trkpt>
      <trkpt lat="45.833412" lon="8.938329">
        <ele>479.158836</ele>
        <time>2026-05-02T07:06:03.589Z</time>
      </trkpt>
      <trkpt lat="45.833463" lon="8.938459">
        <ele>479.066369</ele>
        <time>2026-05-02T07:06:06.584Z</time>
      </trkpt>
      <trkpt lat="45.833511" lon="8.938582">
        <ele>478.978991</ele>
        <time>2026-05-02T07:06:09.590Z</time>
      </trkpt>
      <trkpt lat="45.833554" lon="8.938711">
        <ele>478.890360</ele>
        <time>2026-05-02T07:06:12.581Z</time>
      </trkpt>
      <trkpt lat="45.833595" lon="8.938843">
        <ele>478.800786</ele>
        <time>2026-05-02T07:06:15.586Z</time>
      </trkpt>
      <trkpt lat="45.833640" lon="8.938973">
        <ele>478.710817</ele>
        <time>2026-05-02T07:06:18.583Z</time>
      </trkpt>
      <trkpt lat="45.833682" lon="8.939103">
        <ele>478.622004</ele>
        <time>2026-05-02T07:06:21.588Z</time>
      </trkpt>
      <trkpt lat="45.833727" lon="8.939230">
        <ele>478.533697</ele>
        <time>2026-05-02T07:06:24.586Z</time>
      </trkpt>
      <trkpt lat="45.833771" lon="8.939347">
        <ele>478.451293</ele>
        <time>2026-05-02T07:06:27.586Z</time>
      </trkpt>
      <trkpt lat="45.833726" lon="8.939505">
        <ele>478.345500</ele>
        <time>2026-05-02T07:06:31.580Z</time>
      </trkpt>
      <trkpt lat="45.833681" lon="8.939677">
        <ele>478.231629</ele>
        <time>2026-05-02T07:06:34.584Z</time>
      </trkpt>
      <trkpt lat="45.833652" lon="8.939830">
        <ele>478.133354</ele>
        <time>2026-05-02T07:06:36.585Z</time>
      </trkpt>
      <trkpt lat="45.833634" lon="8.940003">
        <ele>478.024942</ele>
        <time>2026-05-02T07:06:38.586Z</time>
      </trkpt>
      <trkpt lat="45.833621" lon="8.940190">
        <ele>477.908466</ele>
        <time>2026-05-02T07:06:40.583Z</time>
      </trkpt>
      <trkpt lat="45.833601" lon="8.940374">
        <ele>477.793045</ele>
        <time>2026-05-02T07:06:42.585Z</time>
      </trkpt>
      <trkpt lat="45.833577" lon="8.940553">
        <ele>477.680067</ele>
        <time>2026-05-02T07:06:44.591Z</time>
      </trkpt>
      <trkpt lat="45.833555" lon="8.940742">
        <ele>477.538118</ele>
        <time>2026-05-02T07:06:46.584Z</time>
      </trkpt>
      <trkpt lat="45.833531" lon="8.940933">
        <ele>477.341145</ele>
        <time>2026-05-02T07:06:48.591Z</time>
      </trkpt>
      <trkpt lat="45.833503" lon="8.941114">
        <ele>477.152975</ele>
        <time>2026-05-02T07:06:50.583Z</time>
      </trkpt>
      <trkpt lat="45.833474" lon="8.941290">
        <ele>476.969425</ele>
        <time>2026-05-02T07:06:52.583Z</time>
      </trkpt>
      <trkpt lat="45.833432" lon="8.941450">
        <ele>476.795898</ele>
        <time>2026-05-02T07:06:54.588Z</time>
      </trkpt>
      <trkpt lat="45.833375" lon="8.941582">
        <ele>476.638288</ele>
        <time>2026-05-02T07:06:56.583Z</time>
      </trkpt>
      <trkpt lat="45.833312" lon="8.941701">
        <ele>476.486606</ele>
        <time>2026-05-02T07:06:58.584Z</time>
      </trkpt>
      <trkpt lat="45.833263" lon="8.941820">
        <ele>476.346318</ele>
        <time>2026-05-02T07:07:00.583Z</time>
      </trkpt>
      <trkpt lat="45.833213" lon="8.941942">
        <ele>476.202667</ele>
        <time>2026-05-02T07:07:02.584Z</time>
      </trkpt>
      <trkpt lat="45.833161" lon="8.942070">
        <ele>476.052290</ele>
        <time>2026-05-02T07:07:04.588Z</time>
      </trkpt>
      <trkpt lat="45.833120" lon="8.942198">
        <ele>475.909311</ele>
        <time>2026-05-02T07:07:06.588Z</time>
      </trkpt>
      <trkpt lat="45.833080" lon="8.942322">
        <ele>475.770629</ele>
        <time>2026-05-02T07:07:08.583Z</time>
      </trkpt>
      <trkpt lat="45.833030" lon="8.942494">
        <ele>475.581480</ele>
        <time>2026-05-02T07:07:11.582Z</time>
      </trkpt>
      <trkpt lat="45.832977" lon="8.942667">
        <ele>475.389678</ele>
        <time>2026-05-02T07:07:14.587Z</time>
      </trkpt>
      <trkpt lat="45.832928" lon="8.942848">
        <ele>475.192600</ele>
        <time>2026-05-02T07:07:17.589Z</time>
      </trkpt>
      <trkpt lat="45.832878" lon="8.943026">
        <ele>474.997816</ele>
        <time>2026-05-02T07:07:20.586Z</time>
      </trkpt>
      <trkpt lat="45.832843" lon="8.943150">
        <ele>474.941820</ele>
        <time>2026-05-02T07:07:22.588Z</time>
      </trkpt>
      <trkpt lat="45.832807" lon="8.943277">
        <ele>474.898645</ele>
        <time>2026-05-02T07:07:24.587Z</time>
      </trkpt>
      <trkpt lat="45.832775" lon="8.943403">
        <ele>474.856415</ele>
        <time>2026-05-02T07:07:26.585Z</time>
      </trkpt>
      <trkpt lat="45.832738" lon="8.943531">
        <ele>474.812777</ele>
        <time>2026-05-02T07:07:28.586Z</time>
      </trkpt>
      <trkpt lat="45.832704" lon="8.943656">
        <ele>474.770523</ele>
        <time>2026-05-02T07:07:30.588Z</time>
      </trkpt>
      <trkpt lat="45.832672" lon="8.943778">
        <ele>474.729474</ele>
        <time>2026-05-02T07:07:32.596Z</time>
      </trkpt>
      <trkpt lat="45.832635" lon="8.943909">
        <ele>474.684962</ele>
        <time>2026-05-02T07:07:34.585Z</time>
      </trkpt>
      <trkpt lat="45.832599" lon="8.944035">
        <ele>474.642079</ele>
        <time>2026-05-02T07:07:36.584Z</time>
      </trkpt>
      <trkpt lat="45.832561" lon="8.944160">
        <ele>474.599133</ele>
        <time>2026-05-02T07:07:38.585Z</time>
      </trkpt>
      <trkpt lat="45.832527" lon="8.944287">
        <ele>474.556291</ele>
        <time>2026-05-02T07:07:40.579Z</time>
      </trkpt>
      <trkpt lat="45.832491" lon="8.944408">
        <ele>474.514861</ele>
        <time>2026-05-02T07:07:42.584Z</time>
      </trkpt>
      <trkpt lat="45.832456" lon="8.944531">
        <ele>474.473023</ele>
        <time>2026-05-02T07:07:44.587Z</time>
      </trkpt>
      <trkpt lat="45.832420" lon="8.944653">
        <ele>474.431302</ele>
        <time>2026-05-02T07:07:46.584Z</time>
      </trkpt>
      <trkpt lat="45.832384" lon="8.944778">
        <ele>474.388710</ele>
        <time>2026-05-02T07:07:48.590Z</time>
      </trkpt>
      <trkpt lat="45.832355" lon="8.944904">
        <ele>474.346925</ele>
        <time>2026-05-02T07:07:50.586Z</time>
      </trkpt>
      <trkpt lat="45.832322" lon="8.945026">
        <ele>474.305714</ele>
        <time>2026-05-02T07:07:52.582Z</time>
      </trkpt>
      <trkpt lat="45.832287" lon="8.945146">
        <ele>474.264749</ele>
        <time>2026-05-02T07:07:54.585Z</time>
      </trkpt>
      <trkpt lat="45.832236" lon="8.945317">
        <ele>474.206176</ele>
        <time>2026-05-02T07:07:57.583Z</time>
      </trkpt>
      <trkpt lat="45.832200" lon="8.945440">
        <ele>474.164387</ele>
        <time>2026-05-02T07:07:59.583Z</time>
      </trkpt>
      <trkpt lat="45.832161" lon="8.945562">
        <ele>474.136323</ele>
        <time>2026-05-02T07:08:01.581Z</time>
      </trkpt>
      <trkpt lat="45.832097" lon="8.945729">
        <ele>474.096475</ele>
        <time>2026-05-02T07:08:04.584Z</time>
      </trkpt>
      <trkpt lat="45.832029" lon="8.945884">
        <ele>474.058180</ele>
        <time>2026-05-02T07:08:07.588Z</time>
      </trkpt>
      <trkpt lat="45.831966" lon="8.946050">
        <ele>474.018659</ele>
        <time>2026-05-02T07:08:10.587Z</time>
      </trkpt>
      <trkpt lat="45.831912" lon="8.946159">
        <ele>473.990696</ele>
        <time>2026-05-02T07:08:12.584Z</time>
      </trkpt>
      <trkpt lat="45.831843" lon="8.946321">
        <ele>473.950999</ele>
        <time>2026-05-02T07:08:15.587Z</time>
      </trkpt>
      <trkpt lat="45.831785" lon="8.946425">
        <ele>473.923148</ele>
        <time>2026-05-02T07:08:17.586Z</time>
      </trkpt>
      <trkpt lat="45.831725" lon="8.946540">
        <ele>473.893110</ele>
        <time>2026-05-02T07:08:19.585Z</time>
      </trkpt>
      <trkpt lat="45.831665" lon="8.946649">
        <ele>473.864067</ele>
        <time>2026-05-02T07:08:21.586Z</time>
      </trkpt>
      <trkpt lat="45.831617" lon="8.946762">
        <ele>473.836397</ele>
        <time>2026-05-02T07:08:23.584Z</time>
      </trkpt>
      <trkpt lat="45.831583" lon="8.946883">
        <ele>473.809119</ele>
        <time>2026-05-02T07:08:25.583Z</time>
      </trkpt>
      <trkpt lat="45.831544" lon="8.947065">
        <ele>473.769308</ele>
        <time>2026-05-02T07:08:28.583Z</time>
      </trkpt>
      <trkpt lat="45.831524" lon="8.947194">
        <ele>473.741678</ele>
        <time>2026-05-02T07:08:30.591Z</time>
      </trkpt>
      <trkpt lat="45.831501" lon="8.947320">
        <ele>473.714445</ele>
        <time>2026-05-02T07:08:32.582Z</time>
      </trkpt>
      <trkpt lat="45.831495" lon="8.947455">
        <ele>473.686162</ele>
        <time>2026-05-02T07:08:34.592Z</time>
      </trkpt>
      <trkpt lat="45.831481" lon="8.947637">
        <ele>473.647879</ele>
        <time>2026-05-02T07:08:37.584Z</time>
      </trkpt>
      <trkpt lat="45.831452" lon="8.947804">
        <ele>473.511287</ele>
        <time>2026-05-02T07:08:40.587Z</time>
      </trkpt>
      <trkpt lat="45.831388" lon="8.947969">
        <ele>473.171286</ele>
        <time>2026-05-02T07:08:43.589Z</time>
      </trkpt>
      <trkpt lat="45.831342" lon="8.948092">
        <ele>472.919949</ele>
        <time>2026-05-02T07:08:45.591Z</time>
      </trkpt>
      <trkpt lat="45.831295" lon="8.948222">
        <ele>472.656259</ele>
        <time>2026-05-02T07:08:47.582Z</time>
      </trkpt>
      <trkpt lat="45.831237" lon="8.948350">
        <ele>472.381356</ele>
        <time>2026-05-02T07:08:49.576Z</time>
      </trkpt>
      <trkpt lat="45.831160" lon="8.948450">
        <ele>472.113022</ele>
        <time>2026-05-02T07:08:51.582Z</time>
      </trkpt>
      <trkpt lat="45.831061" lon="8.948513">
        <ele>471.833189</ele>
        <time>2026-05-02T07:08:53.588Z</time>
      </trkpt>
      <trkpt lat="45.830964" lon="8.948577">
        <ele>471.557325</ele>
        <time>2026-05-02T07:08:55.586Z</time>
      </trkpt>
      <trkpt lat="45.830866" lon="8.948644">
        <ele>471.276831</ele>
        <time>2026-05-02T07:08:57.588Z</time>
      </trkpt>
      <trkpt lat="45.830770" lon="8.948706">
        <ele>471.004810</ele>
        <time>2026-05-02T07:08:59.588Z</time>
      </trkpt>
      <trkpt lat="45.830673" lon="8.948777">
        <ele>470.723449</ele>
        <time>2026-05-02T07:09:01.587Z</time>
      </trkpt>
      <trkpt lat="45.830596" lon="8.948883">
        <ele>470.447748</ele>
        <time>2026-05-02T07:09:03.595Z</time>
      </trkpt>
      <trkpt lat="45.830528" lon="8.948995">
        <ele>470.180283</ele>
        <time>2026-05-02T07:09:05.579Z</time>
      </trkpt>
      <trkpt lat="45.830450" lon="8.949091">
        <ele>469.914768</ele>
        <time>2026-05-02T07:09:07.595Z</time>
      </trkpt>
      <trkpt lat="45.830351" lon="8.949150">
        <ele>469.637776</ele>
        <time>2026-05-02T07:09:09.590Z</time>
      </trkpt>
      <trkpt lat="45.830246" lon="8.949175">
        <ele>469.362750</ele>
        <time>2026-05-02T07:09:11.585Z</time>
      </trkpt>
      <trkpt lat="45.830139" lon="8.949180">
        <ele>469.086119</ele>
        <time>2026-05-02T07:09:13.586Z</time>
      </trkpt>
      <trkpt lat="45.830027" lon="8.949169">
        <ele>468.650106</ele>
        <time>2026-05-02T07:09:15.585Z</time>
      </trkpt>
      <trkpt lat="45.829910" lon="8.949157">
        <ele>468.103221</ele>
        <time>2026-05-02T07:09:17.588Z</time>
      </trkpt>
      <trkpt lat="45.829794" lon="8.949136">
        <ele>467.558104</ele>
        <time>2026-05-02T07:09:19.584Z</time>
      </trkpt>
      <trkpt lat="45.829676" lon="8.949112">
        <ele>467.002450</ele>
        <time>2026-05-02T07:09:21.584Z</time>
      </trkpt>
      <trkpt lat="45.829555" lon="8.949091">
        <ele>466.434197</ele>
        <time>2026-05-02T07:09:23.591Z</time>
      </trkpt>
      <trkpt lat="45.829433" lon="8.949070">
        <ele>465.861314</ele>
        <time>2026-05-02T07:09:25.587Z</time>
      </trkpt>
      <trkpt lat="45.829310" lon="8.949047">
        <ele>465.282999</ele>
        <time>2026-05-02T07:09:27.583Z</time>
      </trkpt>
      <trkpt lat="45.829182" lon="8.949035">
        <ele>464.684947</ele>
        <time>2026-05-02T07:09:29.584Z</time>
      </trkpt>
      <trkpt lat="45.829047" lon="8.949030">
        <ele>464.055322</ele>
        <time>2026-05-02T07:09:31.584Z</time>
      </trkpt>
      <trkpt lat="45.828908" lon="8.949035">
        <ele>463.407053</ele>
        <time>2026-05-02T07:09:33.583Z</time>
      </trkpt>
      <trkpt lat="45.828760" lon="8.949056">
        <ele>462.713662</ele>
        <time>2026-05-02T07:09:35.591Z</time>
      </trkpt>
      <trkpt lat="45.828607" lon="8.949088">
        <ele>461.992788</ele>
        <time>2026-05-02T07:09:37.589Z</time>
      </trkpt>
      <trkpt lat="45.828458" lon="8.949131">
        <ele>461.284193</ele>
        <time>2026-05-02T07:09:39.590Z</time>
      </trkpt>
      <trkpt lat="45.828312" lon="8.949181">
        <ele>460.583680</ele>
        <time>2026-05-02T07:09:41.584Z</time>
      </trkpt>
      <trkpt lat="45.828216" lon="8.949196">
        <ele>460.089821</ele>
        <time>2026-05-02T07:09:43.594Z</time>
      </trkpt>
      <trkpt lat="45.828005" lon="8.949269">
        <ele>458.979825</ele>
        <time>2026-05-02T07:10:08.583Z</time>
      </trkpt>
      <trkpt lat="45.827882" lon="8.949278">
        <ele>458.349969</ele>
        <time>2026-05-02T07:10:11.586Z</time>
      </trkpt>
      <trkpt lat="45.827781" lon="8.949263">
        <ele>457.830683</ele>
        <time>2026-05-02T07:10:13.593Z</time>
      </trkpt>
      <trkpt lat="45.827668" lon="8.949269">
        <ele>457.252391</ele>
        <time>2026-05-02T07:10:15.587Z</time>
      </trkpt>
      <trkpt lat="45.827555" lon="8.949331">
        <ele>456.633697</ele>
        <time>2026-05-02T07:10:17.586Z</time>
      </trkpt>
      <trkpt lat="45.827441" lon="8.949440">
        <ele>455.933137</ele>
        <time>2026-05-02T07:10:19.583Z</time>
      </trkpt>
      <trkpt lat="45.827315" lon="8.949539">
        <ele>455.198497</ele>
        <time>2026-05-02T07:10:21.581Z</time>
      </trkpt>
      <trkpt lat="45.827176" lon="8.949609">
        <ele>454.445134</ele>
        <time>2026-05-02T07:10:23.581Z</time>
      </trkpt>
      <trkpt lat="45.827030" lon="8.949670">
        <ele>453.667469</ele>
        <time>2026-05-02T07:10:25.583Z</time>
      </trkpt>
      <trkpt lat="45.826879" lon="8.949717">
        <ele>452.877280</ele>
        <time>2026-05-02T07:10:27.589Z</time>
      </trkpt>
      <trkpt lat="45.826726" lon="8.949774">
        <ele>452.068881</ele>
        <time>2026-05-02T07:10:29.581Z</time>
      </trkpt>
      <trkpt lat="45.826572" lon="8.949830">
        <ele>451.358111</ele>
        <time>2026-05-02T07:10:31.583Z</time>
      </trkpt>
      <trkpt lat="45.826419" lon="8.949890">
        <ele>451.150570</ele>
        <time>2026-05-02T07:10:33.584Z</time>
      </trkpt>
      <trkpt lat="45.826270" lon="8.949947">
        <ele>450.948795</ele>
        <time>2026-05-02T07:10:35.589Z</time>
      </trkpt>
      <trkpt lat="45.826126" lon="8.950000">
        <ele>450.754272</ele>
        <time>2026-05-02T07:10:37.585Z</time>
      </trkpt>
      <trkpt lat="45.825984" lon="8.950059">
        <ele>450.560834</ele>
        <time>2026-05-02T07:10:39.585Z</time>
      </trkpt>
      <trkpt lat="45.825843" lon="8.950109">
        <ele>450.370786</ele>
        <time>2026-05-02T07:10:41.587Z</time>
      </trkpt>
      <trkpt lat="45.825704" lon="8.950156">
        <ele>450.183924</ele>
        <time>2026-05-02T07:10:43.579Z</time>
      </trkpt>
      <trkpt lat="45.825573" lon="8.950202">
        <ele>450.007453</ele>
        <time>2026-05-02T07:10:45.588Z</time>
      </trkpt>
      <trkpt lat="45.825439" lon="8.950256">
        <ele>449.825331</ele>
        <time>2026-05-02T07:10:47.583Z</time>
      </trkpt>
      <trkpt lat="45.825310" lon="8.950306">
        <ele>449.650486</ele>
        <time>2026-05-02T07:10:49.583Z</time>
      </trkpt>
      <trkpt lat="45.825183" lon="8.950351">
        <ele>449.479316</ele>
        <time>2026-05-02T07:10:51.587Z</time>
      </trkpt>
      <trkpt lat="45.825055" lon="8.950402">
        <ele>449.305492</ele>
        <time>2026-05-02T07:10:53.587Z</time>
      </trkpt>
      <trkpt lat="45.824929" lon="8.950448">
        <ele>449.135369</ele>
        <time>2026-05-02T07:10:55.582Z</time>
      </trkpt>
      <trkpt lat="45.824807" lon="8.950491">
        <ele>449.003830</ele>
        <time>2026-05-02T07:10:57.588Z</time>
      </trkpt>
      <trkpt lat="45.824688" lon="8.950542">
        <ele>448.919164</ele>
        <time>2026-05-02T07:10:59.586Z</time>
      </trkpt>
      <trkpt lat="45.824567" lon="8.950586">
        <ele>448.834068</ele>
        <time>2026-05-02T07:11:01.585Z</time>
      </trkpt>
      <trkpt lat="45.824445" lon="8.950633">
        <ele>448.747953</ele>
        <time>2026-05-02T07:11:03.591Z</time>
      </trkpt>
      <trkpt lat="45.824330" lon="8.950680">
        <ele>448.666437</ele>
        <time>2026-05-02T07:11:05.585Z</time>
      </trkpt>
      <trkpt lat="45.824217" lon="8.950722">
        <ele>448.586859</ele>
        <time>2026-05-02T07:11:07.581Z</time>
      </trkpt>
      <trkpt lat="45.824108" lon="8.950765">
        <ele>448.509795</ele>
        <time>2026-05-02T07:11:09.581Z</time>
      </trkpt>
      <trkpt lat="45.823996" lon="8.950812">
        <ele>448.430244</ele>
        <time>2026-05-02T07:11:11.584Z</time>
      </trkpt>
      <trkpt lat="45.823880" lon="8.950855">
        <ele>448.348568</ele>
        <time>2026-05-02T07:11:13.586Z</time>
      </trkpt>
      <trkpt lat="45.823769" lon="8.950892">
        <ele>448.270881</ele>
        <time>2026-05-02T07:11:15.584Z</time>
      </trkpt>
      <trkpt lat="45.823658" lon="8.950910">
        <ele>448.194728</ele>
        <time>2026-05-02T07:11:17.585Z</time>
      </trkpt>
      <trkpt lat="45.823548" lon="8.950909">
        <ele>448.119737</ele>
        <time>2026-05-02T07:11:19.583Z</time>
      </trkpt>
      <trkpt lat="45.823444" lon="8.950893">
        <ele>448.048431</ele>
        <time>2026-05-02T07:11:21.583Z</time>
      </trkpt>
      <trkpt lat="45.823340" lon="8.950882">
        <ele>447.977339</ele>
        <time>2026-05-02T07:11:23.584Z</time>
      </trkpt>
      <trkpt lat="45.823240" lon="8.950926">
        <ele>447.906034</ele>
        <time>2026-05-02T07:11:25.585Z</time>
      </trkpt>
      <trkpt lat="45.823158" lon="8.951037">
        <ele>447.829185</ele>
        <time>2026-05-02T07:11:27.583Z</time>
      </trkpt>
      <trkpt lat="45.823060" lon="8.951133">
        <ele>447.731467</ele>
        <time>2026-05-02T07:11:29.582Z</time>
      </trkpt>
      <trkpt lat="45.822947" lon="8.951199">
        <ele>447.626793</ele>
        <time>2026-05-02T07:11:31.583Z</time>
      </trkpt>
      <trkpt lat="45.822830" lon="8.951242">
        <ele>447.523169</ele>
        <time>2026-05-02T07:11:33.585Z</time>
      </trkpt>
      <trkpt lat="45.822719" lon="8.951283">
        <ele>447.424829</ele>
        <time>2026-05-02T07:11:35.583Z</time>
      </trkpt>
      <trkpt lat="45.822606" lon="8.951325">
        <ele>447.324678</ele>
        <time>2026-05-02T07:11:37.590Z</time>
      </trkpt>
      <trkpt lat="45.822497" lon="8.951366">
        <ele>447.227999</ele>
        <time>2026-05-02T07:11:39.584Z</time>
      </trkpt>
      <trkpt lat="45.822388" lon="8.951407">
        <ele>447.131320</ele>
        <time>2026-05-02T07:11:41.589Z</time>
      </trkpt>
      <trkpt lat="45.822280" lon="8.951437">
        <ele>447.036938</ele>
        <time>2026-05-02T07:11:43.584Z</time>
      </trkpt>
      <trkpt lat="45.822166" lon="8.951467">
        <ele>446.937497</ele>
        <time>2026-05-02T07:11:45.588Z</time>
      </trkpt>
      <trkpt lat="45.822047" lon="8.951489">
        <ele>446.834554</ele>
        <time>2026-05-02T07:11:47.588Z</time>
      </trkpt>
      <trkpt lat="45.821925" lon="8.951501">
        <ele>446.729635</ele>
        <time>2026-05-02T07:11:49.587Z</time>
      </trkpt>
      <trkpt lat="45.821803" lon="8.951505">
        <ele>446.624934</ele>
        <time>2026-05-02T07:11:51.582Z</time>
      </trkpt>
      <trkpt lat="45.821685" lon="8.951504">
        <ele>446.523691</ele>
        <time>2026-05-02T07:11:53.582Z</time>
      </trkpt>
      <trkpt lat="45.821566" lon="8.951500">
        <ele>446.421564</ele>
        <time>2026-05-02T07:11:55.585Z</time>
      </trkpt>
      <trkpt lat="45.821443" lon="8.951500">
        <ele>446.316032</ele>
        <time>2026-05-02T07:11:57.585Z</time>
      </trkpt>
      <trkpt lat="45.821321" lon="8.951500">
        <ele>446.200537</ele>
        <time>2026-05-02T07:11:59.586Z</time>
      </trkpt>
      <trkpt lat="45.821201" lon="8.951499">
        <ele>446.078635</ele>
        <time>2026-05-02T07:12:01.583Z</time>
      </trkpt>
      <trkpt lat="45.821086" lon="8.951502">
        <ele>445.961794</ele>
        <time>2026-05-02T07:12:03.585Z</time>
      </trkpt>
      <trkpt lat="45.820976" lon="8.951502">
        <ele>445.850052</ele>
        <time>2026-05-02T07:12:05.587Z</time>
      </trkpt>
      <trkpt lat="45.820867" lon="8.951505">
        <ele>445.739305</ele>
        <time>2026-05-02T07:12:07.583Z</time>
      </trkpt>
      <trkpt lat="45.820760" lon="8.951502">
        <ele>445.630589</ele>
        <time>2026-05-02T07:12:09.584Z</time>
      </trkpt>
      <trkpt lat="45.820650" lon="8.951504">
        <ele>445.518838</ele>
        <time>2026-05-02T07:12:11.588Z</time>
      </trkpt>
      <trkpt lat="45.820541" lon="8.951505">
        <ele>445.408109</ele>
        <time>2026-05-02T07:12:13.586Z</time>
      </trkpt>
      <trkpt lat="45.820436" lon="8.951507">
        <ele>445.301437</ele>
        <time>2026-05-02T07:12:15.590Z</time>
      </trkpt>
      <trkpt lat="45.820329" lon="8.951508">
        <ele>445.192740</ele>
        <time>2026-05-02T07:12:17.590Z</time>
      </trkpt>
      <trkpt lat="45.820221" lon="8.951507">
        <ele>445.083027</ele>
        <time>2026-05-02T07:12:19.590Z</time>
      </trkpt>
      <trkpt lat="45.820113" lon="8.951504">
        <ele>444.973296</ele>
        <time>2026-05-02T07:12:21.589Z</time>
      </trkpt>
      <trkpt lat="45.820008" lon="8.951491">
        <ele>444.866237</ele>
        <time>2026-05-02T07:12:23.590Z</time>
      </trkpt>
      <trkpt lat="45.819902" lon="8.951474">
        <ele>444.757887</ele>
        <time>2026-05-02T07:12:25.597Z</time>
      </trkpt>
      <trkpt lat="45.819799" lon="8.951442">
        <ele>444.650831</ele>
        <time>2026-05-02T07:12:27.594Z</time>
      </trkpt>
      <trkpt lat="45.819698" lon="8.951428">
        <ele>444.547754</ele>
        <time>2026-05-02T07:12:29.588Z</time>
      </trkpt>
      <trkpt lat="45.819623" lon="8.951514">
        <ele>444.450227</ele>
        <time>2026-05-02T07:12:31.588Z</time>
      </trkpt>
      <trkpt lat="45.819616" lon="8.951661">
        <ele>444.562789</ele>
        <time>2026-05-02T07:12:33.587Z</time>
      </trkpt>
      <trkpt lat="45.819628" lon="8.951820">
        <ele>444.702378</ele>
        <time>2026-05-02T07:12:35.589Z</time>
      </trkpt>
      <trkpt lat="45.819641" lon="8.951987">
        <ele>444.849043</ele>
        <time>2026-05-02T07:12:37.594Z</time>
      </trkpt>
      <trkpt lat="45.819647" lon="8.952155">
        <ele>444.995868</ele>
        <time>2026-05-02T07:12:39.587Z</time>
      </trkpt>
      <trkpt lat="45.819648" lon="8.952330">
        <ele>445.148615</ele>
        <time>2026-05-02T07:12:41.586Z</time>
      </trkpt>
      <trkpt lat="45.819646" lon="8.952504">
        <ele>445.300505</ele>
        <time>2026-05-02T07:12:43.587Z</time>
      </trkpt>
      <trkpt lat="45.819645" lon="8.952676">
        <ele>445.450633</ele>
        <time>2026-05-02T07:12:45.590Z</time>
      </trkpt>
      <trkpt lat="45.819636" lon="8.952834">
        <ele>445.588997</ele>
        <time>2026-05-02T07:12:47.581Z</time>
      </trkpt>
      <trkpt lat="45.819621" lon="8.952986">
        <ele>445.722988</ele>
        <time>2026-05-02T07:12:49.588Z</time>
      </trkpt>
      <trkpt lat="45.819585" lon="8.953134">
        <ele>445.859806</ele>
        <time>2026-05-02T07:12:51.591Z</time>
      </trkpt>
      <trkpt lat="45.819538" lon="8.953270">
        <ele>445.992302</ele>
        <time>2026-05-02T07:12:53.593Z</time>
      </trkpt>
      <trkpt lat="45.819489" lon="8.953403">
        <ele>446.123608</ele>
        <time>2026-05-02T07:12:55.584Z</time>
      </trkpt>
      <trkpt lat="45.819458" lon="8.953540">
        <ele>446.249328</ele>
        <time>2026-05-02T07:12:57.594Z</time>
      </trkpt>
      <trkpt lat="45.819436" lon="8.953665">
        <ele>446.361855</ele>
        <time>2026-05-02T07:12:59.587Z</time>
      </trkpt>
      <trkpt lat="45.819436" lon="8.953845">
        <ele>446.518962</ele>
        <time>2026-05-02T07:13:02.585Z</time>
      </trkpt>
      <trkpt lat="45.819469" lon="8.953983">
        <ele>446.646303</ele>
        <time>2026-05-02T07:13:05.583Z</time>
      </trkpt>
      <trkpt lat="45.819526" lon="8.954084">
        <ele>446.810933</ele>
        <time>2026-05-02T07:13:08.591Z</time>
      </trkpt>
      <trkpt lat="45.819600" lon="8.954189">
        <ele>447.045369</ele>
        <time>2026-05-02T07:13:12.585Z</time>
      </trkpt>
      <trkpt lat="45.819673" lon="8.954280">
        <ele>447.263202</ele>
        <time>2026-05-02T07:13:16.584Z</time>
      </trkpt>
      <trkpt lat="45.819745" lon="8.954369">
        <ele>447.477276</ele>
        <time>2026-05-02T07:13:20.583Z</time>
      </trkpt>
      <trkpt lat="45.819815" lon="8.954459">
        <ele>447.689003</ele>
        <time>2026-05-02T07:13:24.583Z</time>
      </trkpt>
      <trkpt lat="45.819875" lon="8.954557">
        <ele>447.893790</ele>
        <time>2026-05-02T07:13:28.589Z</time>
      </trkpt>
      <trkpt lat="45.819926" lon="8.954683">
        <ele>448.122540</ele>
        <time>2026-05-02T07:13:32.588Z</time>
      </trkpt>
      <trkpt lat="45.819968" lon="8.954831">
        <ele>448.373411</ele>
        <time>2026-05-02T07:13:36.594Z</time>
      </trkpt>
      <trkpt lat="45.820010" lon="8.954988">
        <ele>448.637420</ele>
        <time>2026-05-02T07:13:40.587Z</time>
      </trkpt>
      <trkpt lat="45.820056" lon="8.955148">
        <ele>448.909139</ele>
        <time>2026-05-02T07:13:44.584Z</time>
      </trkpt>
      <trkpt lat="45.820097" lon="8.955273">
        <ele>449.126024</ele>
        <time>2026-05-02T07:13:47.585Z</time>
      </trkpt>
      <trkpt lat="45.820132" lon="8.955405">
        <ele>449.347743</ele>
        <time>2026-05-02T07:13:50.591Z</time>
      </trkpt>
      <trkpt lat="45.820165" lon="8.955547">
        <ele>449.582736</ele>
        <time>2026-05-02T07:13:53.577Z</time>
      </trkpt>
      <trkpt lat="45.820148" lon="8.955699">
        <ele>449.824414</ele>
        <time>2026-05-02T07:13:56.590Z</time>
      </trkpt>
      <trkpt lat="45.820082" lon="8.955833">
        <ele>450.082015</ele>
        <time>2026-05-02T07:13:59.594Z</time>
      </trkpt>
      <trkpt lat="45.820020" lon="8.955989">
        <ele>450.363944</ele>
        <time>2026-05-02T07:14:02.575Z</time>
      </trkpt>
      <trkpt lat="45.819920" lon="8.956116">
        <ele>450.664769</ele>
        <time>2026-05-02T07:14:05.581Z</time>
      </trkpt>
      <trkpt lat="45.819830" lon="8.956152">
        <ele>450.706333</ele>
        <time>2026-05-02T07:14:07.579Z</time>
      </trkpt>
      <trkpt lat="45.819739" lon="8.956172">
        <ele>450.639834</ele>
        <time>2026-05-02T07:14:09.593Z</time>
      </trkpt>
      <trkpt lat="45.819648" lon="8.956203">
        <ele>450.572275</ele>
        <time>2026-05-02T07:14:11.586Z</time>
      </trkpt>
      <trkpt lat="45.819525" lon="8.956268">
        <ele>450.477595</ele>
        <time>2026-05-02T07:14:14.580Z</time>
      </trkpt>
      <trkpt lat="45.819409" lon="8.956350">
        <ele>450.384188</ele>
        <time>2026-05-02T07:14:17.580Z</time>
      </trkpt>
      <trkpt lat="45.819308" lon="8.956426">
        <ele>450.301810</ele>
        <time>2026-05-02T07:14:20.598Z</time>
      </trkpt>
      <trkpt lat="45.819211" lon="8.956493">
        <ele>450.224048</ele>
        <time>2026-05-02T07:14:23.582Z</time>
      </trkpt>
      <trkpt lat="45.819110" lon="8.956539">
        <ele>450.147506</ele>
        <time>2026-05-02T07:14:26.582Z</time>
      </trkpt>
      <trkpt lat="45.819002" lon="8.956588">
        <ele>450.065687</ele>
        <time>2026-05-02T07:14:29.589Z</time>
      </trkpt>
      <trkpt lat="45.818895" lon="8.956632">
        <ele>449.985287</ele>
        <time>2026-05-02T07:14:32.589Z</time>
      </trkpt>
      <trkpt lat="45.818786" lon="8.956679">
        <ele>449.903075</ele>
        <time>2026-05-02T07:14:35.582Z</time>
      </trkpt>
      <trkpt lat="45.818674" lon="8.956727">
        <ele>449.818642</ele>
        <time>2026-05-02T07:14:38.588Z</time>
      </trkpt>
      <trkpt lat="45.818552" lon="8.956780">
        <ele>449.726567</ele>
        <time>2026-05-02T07:14:41.588Z</time>
      </trkpt>
      <trkpt lat="45.818429" lon="8.956837">
        <ele>449.633202</ele>
        <time>2026-05-02T07:14:44.586Z</time>
      </trkpt>
      <trkpt lat="45.818340" lon="8.956878">
        <ele>449.565683</ele>
        <time>2026-05-02T07:14:46.585Z</time>
      </trkpt>
      <trkpt lat="45.818248" lon="8.956916">
        <ele>449.496530</ele>
        <time>2026-05-02T07:14:48.588Z</time>
      </trkpt>
      <trkpt lat="45.818154" lon="8.956955">
        <ele>449.391243</ele>
        <time>2026-05-02T07:14:50.585Z</time>
      </trkpt>
      <trkpt lat="45.818056" lon="8.957001">
        <ele>449.201083</ele>
        <time>2026-05-02T07:14:52.587Z</time>
      </trkpt>
      <trkpt lat="45.817956" lon="8.957042">
        <ele>449.009279</ele>
        <time>2026-05-02T07:14:54.586Z</time>
      </trkpt>
      <trkpt lat="45.817851" lon="8.957091">
        <ele>448.805651</ele>
        <time>2026-05-02T07:14:56.587Z</time>
      </trkpt>
      <trkpt lat="45.817746" lon="8.957145">
        <ele>448.599944</ele>
        <time>2026-05-02T07:14:58.585Z</time>
      </trkpt>
      <trkpt lat="45.817641" lon="8.957208">
        <ele>448.390051</ele>
        <time>2026-05-02T07:15:00.591Z</time>
      </trkpt>
      <trkpt lat="45.817543" lon="8.957280">
        <ele>448.187001</ele>
        <time>2026-05-02T07:15:02.586Z</time>
      </trkpt>
      <trkpt lat="45.817452" lon="8.957360">
        <ele>447.990180</ele>
        <time>2026-05-02T07:15:04.592Z</time>
      </trkpt>
      <trkpt lat="45.817369" lon="8.957453">
        <ele>447.795965</ele>
        <time>2026-05-02T07:15:06.591Z</time>
      </trkpt>
      <trkpt lat="45.817297" lon="8.957563">
        <ele>447.602002</ele>
        <time>2026-05-02T07:15:08.581Z</time>
      </trkpt>
      <trkpt lat="45.817225" lon="8.957677">
        <ele>447.404259</ele>
        <time>2026-05-02T07:15:10.578Z</time>
      </trkpt>
      <trkpt lat="45.817152" lon="8.957787">
        <ele>447.209028</ele>
        <time>2026-05-02T07:15:12.582Z</time>
      </trkpt>
      <trkpt lat="45.817080" lon="8.957889">
        <ele>447.022427</ele>
        <time>2026-05-02T07:15:14.577Z</time>
      </trkpt>
      <trkpt lat="45.817011" lon="8.957993">
        <ele>446.837867</ele>
        <time>2026-05-02T07:15:16.581Z</time>
      </trkpt>
      <trkpt lat="45.816937" lon="8.958084">
        <ele>446.658129</ele>
        <time>2026-05-02T07:15:18.585Z</time>
      </trkpt>
      <trkpt lat="45.816847" lon="8.958163">
        <ele>446.463552</ele>
        <time>2026-05-02T07:15:20.581Z</time>
      </trkpt>
      <trkpt lat="45.816755" lon="8.958240">
        <ele>446.267126</ele>
        <time>2026-05-02T07:15:22.588Z</time>
      </trkpt>
      <trkpt lat="45.816664" lon="8.958318">
        <ele>446.100951</ele>
        <time>2026-05-02T07:15:24.584Z</time>
      </trkpt>
      <trkpt lat="45.816568" lon="8.958396">
        <ele>445.997927</ele>
        <time>2026-05-02T07:15:26.582Z</time>
      </trkpt>
      <trkpt lat="45.816474" lon="8.958481">
        <ele>445.894168</ele>
        <time>2026-05-02T07:15:28.580Z</time>
      </trkpt>
      <trkpt lat="45.816380" lon="8.958563">
        <ele>445.791437</ele>
        <time>2026-05-02T07:15:30.580Z</time>
      </trkpt>
      <trkpt lat="45.816286" lon="8.958645">
        <ele>445.688706</ele>
        <time>2026-05-02T07:15:32.582Z</time>
      </trkpt>
      <trkpt lat="45.816193" lon="8.958727">
        <ele>445.586772</ele>
        <time>2026-05-02T07:15:34.586Z</time>
      </trkpt>
      <trkpt lat="45.816104" lon="8.958805">
        <ele>445.489382</ele>
        <time>2026-05-02T07:15:36.582Z</time>
      </trkpt>
      <trkpt lat="45.816019" lon="8.958882">
        <ele>445.395510</ele>
        <time>2026-05-02T07:15:38.586Z</time>
      </trkpt>
      <trkpt lat="45.815932" lon="8.958949">
        <ele>445.303303</ele>
        <time>2026-05-02T07:15:40.580Z</time>
      </trkpt>
      <trkpt lat="45.815843" lon="8.959004">
        <ele>445.212810</ele>
        <time>2026-05-02T07:15:42.589Z</time>
      </trkpt>
      <trkpt lat="45.815752" lon="8.959053">
        <ele>445.122044</ele>
        <time>2026-05-02T07:15:44.586Z</time>
      </trkpt>
      <trkpt lat="45.815661" lon="8.959100">
        <ele>445.031727</ele>
        <time>2026-05-02T07:15:46.580Z</time>
      </trkpt>
      <trkpt lat="45.815569" lon="8.959140">
        <ele>444.941957</ele>
        <time>2026-05-02T07:15:48.591Z</time>
      </trkpt>
      <trkpt lat="45.815480" lon="8.959178">
        <ele>444.855244</ele>
        <time>2026-05-02T07:15:50.580Z</time>
      </trkpt>
      <trkpt lat="45.815353" lon="8.959232">
        <ele>444.731548</ele>
        <time>2026-05-02T07:15:53.585Z</time>
      </trkpt>
      <trkpt lat="45.815266" lon="8.959275">
        <ele>444.645619</ele>
        <time>2026-05-02T07:15:55.592Z</time>
      </trkpt>
      <trkpt lat="45.815140" lon="8.959331">
        <ele>444.522441</ele>
        <time>2026-05-02T07:15:58.595Z</time>
      </trkpt>
      <trkpt lat="45.815052" lon="8.959366">
        <ele>444.400861</ele>
        <time>2026-05-02T07:16:00.579Z</time>
      </trkpt>
      <trkpt lat="45.814955" lon="8.959405">
        <ele>444.066672</ele>
        <time>2026-05-02T07:16:02.583Z</time>
      </trkpt>
      <trkpt lat="45.814855" lon="8.959432">
        <ele>443.729103</ele>
        <time>2026-05-02T07:16:04.579Z</time>
      </trkpt>
      <trkpt lat="45.814753" lon="8.959465">
        <ele>443.382226</ele>
        <time>2026-05-02T07:16:06.582Z</time>
      </trkpt>
      <trkpt lat="45.814650" lon="8.959484">
        <ele>443.037716</ele>
        <time>2026-05-02T07:16:08.584Z</time>
      </trkpt>
      <trkpt lat="45.814545" lon="8.959487">
        <ele>442.689314</ele>
        <time>2026-05-02T07:16:10.585Z</time>
      </trkpt>
      <trkpt lat="45.814440" lon="8.959488">
        <ele>442.340974</ele>
        <time>2026-05-02T07:16:12.580Z</time>
      </trkpt>
      <trkpt lat="45.814336" lon="8.959492">
        <ele>441.995835</ele>
        <time>2026-05-02T07:16:14.589Z</time>
      </trkpt>
      <trkpt lat="45.814233" lon="8.959497">
        <ele>441.653941</ele>
        <time>2026-05-02T07:16:16.579Z</time>
      </trkpt>
      <trkpt lat="45.814129" lon="8.959511">
        <ele>441.307411</ele>
        <time>2026-05-02T07:16:18.588Z</time>
      </trkpt>
      <trkpt lat="45.814031" lon="8.959536">
        <ele>440.977201</ele>
        <time>2026-05-02T07:16:20.582Z</time>
      </trkpt>
      <trkpt lat="45.813934" lon="8.959572">
        <ele>440.644816</ele>
        <time>2026-05-02T07:16:22.587Z</time>
      </trkpt>
      <trkpt lat="45.813842" lon="8.959637">
        <ele>440.304611</ele>
        <time>2026-05-02T07:16:24.588Z</time>
      </trkpt>
      <trkpt lat="45.813746" lon="8.959723">
        <ele>439.929153</ele>
        <time>2026-05-02T07:16:26.588Z</time>
      </trkpt>
      <trkpt lat="45.813653" lon="8.959830">
        <ele>439.533680</ele>
        <time>2026-05-02T07:16:28.580Z</time>
      </trkpt>
      <trkpt lat="45.813556" lon="8.959939">
        <ele>439.124935</ele>
        <time>2026-05-02T07:16:30.587Z</time>
      </trkpt>
      <trkpt lat="45.813458" lon="8.960054">
        <ele>438.704930</ele>
        <time>2026-05-02T07:16:32.586Z</time>
      </trkpt>
      <trkpt lat="45.813359" lon="8.960169">
        <ele>438.290301</ele>
        <time>2026-05-02T07:16:34.589Z</time>
      </trkpt>
      <trkpt lat="45.813256" lon="8.960285">
        <ele>437.872991</ele>
        <time>2026-05-02T07:16:36.584Z</time>
      </trkpt>
      <trkpt lat="45.813152" lon="8.960395">
        <ele>437.461214</ele>
        <time>2026-05-02T07:16:38.592Z</time>
      </trkpt>
      <trkpt lat="45.813039" lon="8.960480">
        <ele>437.054592</ele>
        <time>2026-05-02T07:16:40.588Z</time>
      </trkpt>
      <trkpt lat="45.812918" lon="8.960539">
        <ele>436.647307</ele>
        <time>2026-05-02T07:16:42.592Z</time>
      </trkpt>
      <trkpt lat="45.812847" lon="8.960674">
        <ele>436.271637</ele>
        <time>2026-05-02T07:16:44.588Z</time>
      </trkpt>
      <trkpt lat="45.812785" lon="8.960824">
        <ele>435.884255</ele>
        <time>2026-05-02T07:16:46.587Z</time>
      </trkpt>
      <trkpt lat="45.812691" lon="8.960951">
        <ele>435.472757</ele>
        <time>2026-05-02T07:16:48.582Z</time>
      </trkpt>
      <trkpt lat="45.812594" lon="8.961089">
        <ele>435.037401</ele>
        <time>2026-05-02T07:16:50.590Z</time>
      </trkpt>
      <trkpt lat="45.812496" lon="8.961222">
        <ele>434.607483</ele>
        <time>2026-05-02T07:16:52.584Z</time>
      </trkpt>
      <trkpt lat="45.812409" lon="8.961360">
        <ele>434.194147</ele>
        <time>2026-05-02T07:16:54.584Z</time>
      </trkpt>
      <trkpt lat="45.812343" lon="8.961514">
        <ele>433.792567</ele>
        <time>2026-05-02T07:16:56.586Z</time>
      </trkpt>
      <trkpt lat="45.812290" lon="8.961674">
        <ele>433.399056</ele>
        <time>2026-05-02T07:16:58.581Z</time>
      </trkpt>
      <trkpt lat="45.812262" lon="8.961837">
        <ele>433.026141</ele>
        <time>2026-05-02T07:17:00.589Z</time>
      </trkpt>
      <trkpt lat="45.812268" lon="8.961992">
        <ele>432.639952</ele>
        <time>2026-05-02T07:17:02.589Z</time>
      </trkpt>
      <trkpt lat="45.812277" lon="8.962136">
        <ele>432.131631</ele>
        <time>2026-05-02T07:17:04.580Z</time>
      </trkpt>
      <trkpt lat="45.812285" lon="8.962272">
        <ele>431.651769</ele>
        <time>2026-05-02T07:17:06.590Z</time>
      </trkpt>
      <trkpt lat="45.812296" lon="8.962450">
        <ele>431.023484</ele>
        <time>2026-05-02T07:17:09.589Z</time>
      </trkpt>
      <trkpt lat="45.812305" lon="8.962626">
        <ele>430.403022</ele>
        <time>2026-05-02T07:17:12.587Z</time>
      </trkpt>
      <trkpt lat="45.812303" lon="8.962822">
        <ele>429.713832</ele>
        <time>2026-05-02T07:17:15.586Z</time>
      </trkpt>
      <trkpt lat="45.812311" lon="8.962973">
        <ele>429.181400</ele>
        <time>2026-05-02T07:17:17.587Z</time>
      </trkpt>
      <trkpt lat="45.812306" lon="8.963124">
        <ele>428.649901</ele>
        <time>2026-05-02T07:17:19.581Z</time>
      </trkpt>
      <trkpt lat="45.812276" lon="8.963283">
        <ele>428.070753</ele>
        <time>2026-05-02T07:17:21.582Z</time>
      </trkpt>
      <trkpt lat="45.812230" lon="8.963444">
        <ele>427.458981</ele>
        <time>2026-05-02T07:17:23.579Z</time>
      </trkpt>
      <trkpt lat="45.812157" lon="8.963604">
        <ele>426.786635</ele>
        <time>2026-05-02T07:17:25.585Z</time>
      </trkpt>
      <trkpt lat="45.812066" lon="8.963744">
        <ele>426.113587</ele>
        <time>2026-05-02T07:17:27.586Z</time>
      </trkpt>
      <trkpt lat="45.811974" lon="8.963863">
        <ele>425.488754</ele>
        <time>2026-05-02T07:17:29.581Z</time>
      </trkpt>
      <trkpt lat="45.811890" lon="8.963973">
        <ele>424.915071</ele>
        <time>2026-05-02T07:17:31.586Z</time>
      </trkpt>
      <trkpt lat="45.811820" lon="8.964070">
        <ele>424.424164</ele>
        <time>2026-05-02T07:17:33.586Z</time>
      </trkpt>
      <trkpt lat="45.811718" lon="8.964131">
        <ele>423.866739</ele>
        <time>2026-05-02T07:17:36.585Z</time>
      </trkpt>
      <trkpt lat="45.811600" lon="8.964082">
        <ele>423.650973</ele>
        <time>2026-05-02T07:17:39.581Z</time>
      </trkpt>
      <trkpt lat="45.811476" lon="8.964052">
        <ele>423.609200</ele>
        <time>2026-05-02T07:17:42.583Z</time>
      </trkpt>
      <trkpt lat="45.811355" lon="8.964043">
        <ele>423.568951</ele>
        <time>2026-05-02T07:17:45.586Z</time>
      </trkpt>
      <trkpt lat="45.811235" lon="8.964049">
        <ele>423.529064</ele>
        <time>2026-05-02T07:17:48.583Z</time>
      </trkpt>
      <trkpt lat="45.811117" lon="8.964060">
        <ele>423.489782</ele>
        <time>2026-05-02T07:17:51.582Z</time>
      </trkpt>
      <trkpt lat="45.811010" lon="8.964107">
        <ele>423.452609</ele>
        <time>2026-05-02T07:17:54.586Z</time>
      </trkpt>
      <trkpt lat="45.810926" lon="8.964234">
        <ele>423.412071</ele>
        <time>2026-05-02T07:17:57.590Z</time>
      </trkpt>
      <trkpt lat="45.810837" lon="8.964365">
        <ele>423.369713</ele>
        <time>2026-05-02T07:18:00.586Z</time>
      </trkpt>
      <trkpt lat="45.810762" lon="8.964441">
        <ele>423.339210</ele>
        <time>2026-05-02T07:18:02.584Z</time>
      </trkpt>
      <trkpt lat="45.810687" lon="8.964517">
        <ele>423.308708</ele>
        <time>2026-05-02T07:18:04.585Z</time>
      </trkpt>
      <trkpt lat="45.810612" lon="8.964590">
        <ele>423.278601</ele>
        <time>2026-05-02T07:18:06.588Z</time>
      </trkpt>
      <trkpt lat="45.810506" lon="8.964694">
        <ele>423.235942</ele>
        <time>2026-05-02T07:18:09.590Z</time>
      </trkpt>
      <trkpt lat="45.810398" lon="8.964803">
        <ele>423.192077</ele>
        <time>2026-05-02T07:18:12.588Z</time>
      </trkpt>
      <trkpt lat="45.810293" lon="8.964900">
        <ele>423.150591</ele>
        <time>2026-05-02T07:18:15.586Z</time>
      </trkpt>
      <trkpt lat="45.810195" lon="8.965007">
        <ele>423.109680</ele>
        <time>2026-05-02T07:18:18.581Z</time>
      </trkpt>
      <trkpt lat="45.810088" lon="8.965114">
        <ele>422.805608</ele>
        <time>2026-05-02T07:18:21.587Z</time>
      </trkpt>
      <trkpt lat="45.809980" lon="8.965216">
        <ele>422.044687</ele>
        <time>2026-05-02T07:18:24.588Z</time>
      </trkpt>
      <trkpt lat="45.809901" lon="8.965283">
        <ele>421.504624</ele>
        <time>2026-05-02T07:18:26.583Z</time>
      </trkpt>
      <trkpt lat="45.809828" lon="8.965365">
        <ele>420.959014</ele>
        <time>2026-05-02T07:18:28.586Z</time>
      </trkpt>
      <trkpt lat="45.809753" lon="8.965446">
        <ele>420.406565</ele>
        <time>2026-05-02T07:18:30.587Z</time>
      </trkpt>
      <trkpt lat="45.809678" lon="8.965518">
        <ele>419.875501</ele>
        <time>2026-05-02T07:18:32.584Z</time>
      </trkpt>
      <trkpt lat="45.809599" lon="8.965585">
        <ele>419.335437</ele>
        <time>2026-05-02T07:18:34.580Z</time>
      </trkpt>
      <trkpt lat="45.809522" lon="8.965657">
        <ele>418.794551</ele>
        <time>2026-05-02T07:18:36.580Z</time>
      </trkpt>
      <trkpt lat="45.809410" lon="8.965753">
        <ele>418.026768</ele>
        <time>2026-05-02T07:18:39.586Z</time>
      </trkpt>
      <trkpt lat="45.809317" lon="8.965880">
        <ele>417.271174</ele>
        <time>2026-05-02T07:18:42.593Z</time>
      </trkpt>
      <trkpt lat="45.809242" lon="8.966011">
        <ele>416.575787</ele>
        <time>2026-05-02T07:18:45.584Z</time>
      </trkpt>
      <trkpt lat="45.809197" lon="8.966150">
        <ele>415.947108</ele>
        <time>2026-05-02T07:18:48.586Z</time>
      </trkpt>
      <trkpt lat="45.809164" lon="8.966327">
        <ele>415.195525</ele>
        <time>2026-05-02T07:18:51.584Z</time>
      </trkpt>
      <trkpt lat="45.809144" lon="8.966468">
        <ele>414.605284</ele>
        <time>2026-05-02T07:18:53.586Z</time>
      </trkpt>
      <trkpt lat="45.809121" lon="8.966611">
        <ele>414.003280</ele>
        <time>2026-05-02T07:18:55.586Z</time>
      </trkpt>
      <trkpt lat="45.809084" lon="8.966747">
        <ele>413.404416</ele>
        <time>2026-05-02T07:18:57.584Z</time>
      </trkpt>
      <trkpt lat="45.809045" lon="8.966868">
        <ele>412.857575</ele>
        <time>2026-05-02T07:18:59.581Z</time>
      </trkpt>
      <trkpt lat="45.809014" lon="8.966992">
        <ele>412.270789</ele>
        <time>2026-05-02T07:19:01.589Z</time>
      </trkpt>
      <trkpt lat="45.808983" lon="8.967179">
        <ele>411.279045</ele>
        <time>2026-05-02T07:19:04.582Z</time>
      </trkpt>
      <trkpt lat="45.808989" lon="8.967319">
        <ele>410.555345</ele>
        <time>2026-05-02T07:19:06.588Z</time>
      </trkpt>
      <trkpt lat="45.808999" lon="8.967449">
        <ele>409.880533</ele>
        <time>2026-05-02T07:19:08.581Z</time>
      </trkpt>
      <trkpt lat="45.809008" lon="8.967605">
        <ele>409.072892</ele>
        <time>2026-05-02T07:19:11.587Z</time>
      </trkpt>
      <trkpt lat="45.809001" lon="8.967740">
        <ele>408.374430</ele>
        <time>2026-05-02T07:19:14.574Z</time>
      </trkpt>
      <trkpt lat="45.808957" lon="8.967867">
        <ele>407.642692</ele>
        <time>2026-05-02T07:19:19.585Z</time>
      </trkpt>
      <trkpt lat="45.808837" lon="8.967924">
        <ele>406.707038</ele>
        <time>2026-05-02T07:19:23.580Z</time>
      </trkpt>
      <trkpt lat="45.808720" lon="8.967997">
        <ele>405.762651</ele>
        <time>2026-05-02T07:19:26.585Z</time>
      </trkpt>
      <trkpt lat="45.808637" lon="8.968071">
        <ele>405.039314</ele>
        <time>2026-05-02T07:19:30.586Z</time>
      </trkpt>
      <trkpt lat="45.808473" lon="8.968087">
        <ele>403.822592</ele>
        <time>2026-05-02T07:20:06.588Z</time>
      </trkpt>
      <trkpt lat="45.808363" lon="8.968125">
        <ele>402.985104</ele>
        <time>2026-05-02T07:20:09.586Z</time>
      </trkpt>
      <trkpt lat="45.808239" lon="8.968163">
        <ele>402.046556</ele>
        <time>2026-05-02T07:20:12.578Z</time>
      </trkpt>
      <trkpt lat="45.808112" lon="8.968203">
        <ele>401.084120</ele>
        <time>2026-05-02T07:20:15.587Z</time>
      </trkpt>
      <trkpt lat="45.807986" lon="8.968250">
        <ele>400.120464</ele>
        <time>2026-05-02T07:20:18.586Z</time>
      </trkpt>
      <trkpt lat="45.807857" lon="8.968293">
        <ele>399.178722</ele>
        <time>2026-05-02T07:20:21.592Z</time>
      </trkpt>
      <trkpt lat="45.807725" lon="8.968327">
        <ele>399.063954</ele>
        <time>2026-05-02T07:20:24.582Z</time>
      </trkpt>
      <trkpt lat="45.807633" lon="8.968357">
        <ele>398.983214</ele>
        <time>2026-05-02T07:20:26.583Z</time>
      </trkpt>
      <trkpt lat="45.807544" lon="8.968386">
        <ele>398.905111</ele>
        <time>2026-05-02T07:20:28.585Z</time>
      </trkpt>
      <trkpt lat="45.807456" lon="8.968412">
        <ele>398.828222</ele>
        <time>2026-05-02T07:20:30.585Z</time>
      </trkpt>
      <trkpt lat="45.807326" lon="8.968460">
        <ele>398.713346</ele>
        <time>2026-05-02T07:20:33.582Z</time>
      </trkpt>
      <trkpt lat="45.807199" lon="8.968523">
        <ele>398.598349</ele>
        <time>2026-05-02T07:20:36.583Z</time>
      </trkpt>
      <trkpt lat="45.807113" lon="8.968572">
        <ele>398.519161</ele>
        <time>2026-05-02T07:20:38.585Z</time>
      </trkpt>
      <trkpt lat="45.807029" lon="8.968626">
        <ele>398.440388</ele>
        <time>2026-05-02T07:20:40.585Z</time>
      </trkpt>
      <trkpt lat="45.806947" lon="8.968694">
        <ele>398.359334</ele>
        <time>2026-05-02T07:20:42.584Z</time>
      </trkpt>
      <trkpt lat="45.806871" lon="8.968767">
        <ele>398.281063</ele>
        <time>2026-05-02T07:20:44.583Z</time>
      </trkpt>
      <trkpt lat="45.806791" lon="8.968845">
        <ele>398.198286</ele>
        <time>2026-05-02T07:20:46.585Z</time>
      </trkpt>
      <trkpt lat="45.806712" lon="8.968921">
        <ele>398.116885</ele>
        <time>2026-05-02T07:20:48.584Z</time>
      </trkpt>
      <trkpt lat="45.806633" lon="8.968999">
        <ele>398.034815</ele>
        <time>2026-05-02T07:20:50.583Z</time>
      </trkpt>
      <trkpt lat="45.806528" lon="8.969110">
        <ele>397.923196</ele>
        <time>2026-05-02T07:20:53.584Z</time>
      </trkpt>
      <trkpt lat="45.806435" lon="8.969227">
        <ele>397.817340</ele>
        <time>2026-05-02T07:20:56.588Z</time>
      </trkpt>
      <trkpt lat="45.806350" lon="8.969333">
        <ele>397.720957</ele>
        <time>2026-05-02T07:20:59.580Z</time>
      </trkpt>
      <trkpt lat="45.806264" lon="8.969464">
        <ele>397.605380</ele>
        <time>2026-05-02T07:21:02.583Z</time>
      </trkpt>
      <trkpt lat="45.806172" lon="8.969596">
        <ele>397.464396</ele>
        <time>2026-05-02T07:21:05.587Z</time>
      </trkpt>
      <trkpt lat="45.806086" lon="8.969732">
        <ele>397.325708</ele>
        <time>2026-05-02T07:21:08.587Z</time>
      </trkpt>
      <trkpt lat="45.806003" lon="8.969858">
        <ele>397.194771</ele>
        <time>2026-05-02T07:21:11.581Z</time>
      </trkpt>
      <trkpt lat="45.805926" lon="8.969965">
        <ele>397.078616</ele>
        <time>2026-05-02T07:21:14.589Z</time>
      </trkpt>
      <trkpt lat="45.805854" lon="8.970085">
        <ele>396.959029</ele>
        <time>2026-05-02T07:21:18.586Z</time>
      </trkpt>
      <trkpt lat="45.805786" lon="8.970222">
        <ele>396.832002</ele>
        <time>2026-05-02T07:21:22.587Z</time>
      </trkpt>
      <trkpt lat="45.805741" lon="8.970335">
        <ele>396.733707</ele>
        <time>2026-05-02T07:21:26.583Z</time>
      </trkpt>
      <trkpt lat="45.805670" lon="8.970543">
        <ele>396.558780</ele>
        <time>2026-05-02T07:21:45.583Z</time>
      </trkpt>
      <trkpt lat="45.805617" lon="8.970664">
        <ele>396.450843</ele>
        <time>2026-05-02T07:21:48.583Z</time>
      </trkpt>
      <trkpt lat="45.805559" lon="8.970782">
        <ele>396.341789</ele>
        <time>2026-05-02T07:21:51.590Z</time>
      </trkpt>
      <trkpt lat="45.805503" lon="8.970896">
        <ele>396.236453</ele>
        <time>2026-05-02T07:21:53.590Z</time>
      </trkpt>
      <trkpt lat="45.805442" lon="8.971010">
        <ele>396.127906</ele>
        <time>2026-05-02T07:21:55.582Z</time>
      </trkpt>
      <trkpt lat="45.805387" lon="8.971124">
        <ele>396.023190</ele>
        <time>2026-05-02T07:21:57.585Z</time>
      </trkpt>
      <trkpt lat="45.805326" lon="8.971256">
        <ele>395.903571</ele>
        <time>2026-05-02T07:21:59.585Z</time>
      </trkpt>
      <trkpt lat="45.805264" lon="8.971408">
        <ele>395.770554</ele>
        <time>2026-05-02T07:22:01.584Z</time>
      </trkpt>
      <trkpt lat="45.805192" lon="8.971552">
        <ele>395.580622</ele>
        <time>2026-05-02T07:22:03.584Z</time>
      </trkpt>
      <trkpt lat="45.805123" lon="8.971699">
        <ele>395.319506</ele>
        <time>2026-05-02T07:22:05.588Z</time>
      </trkpt>
      <trkpt lat="45.805066" lon="8.971838">
        <ele>395.081894</ele>
        <time>2026-05-02T07:22:07.588Z</time>
      </trkpt>
      <trkpt lat="45.805028" lon="8.971970">
        <ele>394.871471</ele>
        <time>2026-05-02T07:22:09.588Z</time>
      </trkpt>
      <trkpt lat="45.805031" lon="8.972124">
        <ele>394.644476</ele>
        <time>2026-05-02T07:22:11.586Z</time>
      </trkpt>
      <trkpt lat="45.805040" lon="8.972294">
        <ele>394.393274</ele>
        <time>2026-05-02T07:22:13.587Z</time>
      </trkpt>
      <trkpt lat="45.805012" lon="8.972482">
        <ele>394.110020</ele>
        <time>2026-05-02T07:22:15.581Z</time>
      </trkpt>
      <trkpt lat="45.804963" lon="8.972654">
        <ele>393.836246</ele>
        <time>2026-05-02T07:22:17.587Z</time>
      </trkpt>
      <trkpt lat="45.804914" lon="8.972819">
        <ele>393.571990</ele>
        <time>2026-05-02T07:22:19.587Z</time>
      </trkpt>
      <trkpt lat="45.804863" lon="8.972970">
        <ele>393.324765</ele>
        <time>2026-05-02T07:22:21.588Z</time>
      </trkpt>
      <trkpt lat="45.804806" lon="8.973098">
        <ele>393.100971</ele>
        <time>2026-05-02T07:22:23.583Z</time>
      </trkpt>
      <trkpt lat="45.804755" lon="8.973222">
        <ele>392.888837</ele>
        <time>2026-05-02T07:22:25.587Z</time>
      </trkpt>
      <trkpt lat="45.804726" lon="8.973360">
        <ele>392.676466</ele>
        <time>2026-05-02T07:22:27.583Z</time>
      </trkpt>
      <trkpt lat="45.804741" lon="8.973516">
        <ele>392.444436</ele>
        <time>2026-05-02T07:22:29.584Z</time>
      </trkpt>
      <trkpt lat="45.804803" lon="8.973665">
        <ele>392.188759</ele>
        <time>2026-05-02T07:22:31.584Z</time>
      </trkpt>
      <trkpt lat="45.804891" lon="8.973780">
        <ele>391.937150</ele>
        <time>2026-05-02T07:22:33.581Z</time>
      </trkpt>
      <trkpt lat="45.804953" lon="8.973888">
        <ele>392.273010</ele>
        <time>2026-05-02T07:22:35.584Z</time>
      </trkpt>
      <trkpt lat="45.805012" lon="8.974029">
        <ele>392.836341</ele>
        <time>2026-05-02T07:22:38.583Z</time>
      </trkpt>
      <trkpt lat="45.805044" lon="8.974182">
        <ele>393.383525</ele>
        <time>2026-05-02T07:22:41.581Z</time>
      </trkpt>
      <trkpt lat="45.805029" lon="8.974319">
        <ele>393.858573</ele>
        <time>2026-05-02T07:22:44.590Z</time>
      </trkpt>
      <trkpt lat="45.804988" lon="8.974462">
        <ele>394.388235</ele>
        <time>2026-05-02T07:22:48.577Z</time>
      </trkpt>
      <trkpt lat="45.804950" lon="8.974586">
        <ele>394.852231</ele>
        <time>2026-05-02T07:22:53.591Z</time>
      </trkpt>
      <trkpt lat="45.804956" lon="8.974726">
        <ele>395.332709</ele>
        <time>2026-05-02T07:22:59.588Z</time>
      </trkpt>
      <trkpt lat="45.804993" lon="8.974844">
        <ele>395.775928</ele>
        <time>2026-05-02T07:23:04.588Z</time>
      </trkpt>
      <trkpt lat="45.805038" lon="8.974972">
        <ele>396.266997</ele>
        <time>2026-05-02T07:23:09.580Z</time>
      </trkpt>
      <trkpt lat="45.804995" lon="8.975105">
        <ele>396.769205</ele>
        <time>2026-05-02T07:23:14.587Z</time>
      </trkpt>
      <trkpt lat="45.804930" lon="8.975196">
        <ele>397.215512</ele>
        <time>2026-05-02T07:23:18.584Z</time>
      </trkpt>
      <trkpt lat="45.804866" lon="8.975305">
        <ele>397.703691</ele>
        <time>2026-05-02T07:23:23.584Z</time>
      </trkpt>
      <trkpt lat="45.804856" lon="8.975447">
        <ele>398.192591</ele>
        <time>2026-05-02T07:23:28.581Z</time>
      </trkpt>
      <trkpt lat="45.804895" lon="8.975565">
        <ele>398.639932</ele>
        <time>2026-05-02T07:23:32.578Z</time>
      </trkpt>
      <trkpt lat="45.804881" lon="8.975700">
        <ele>399.107466</ele>
        <time>2026-05-02T07:23:37.588Z</time>
      </trkpt>
      <trkpt lat="45.804797" lon="8.975791">
        <ele>399.624719</ele>
        <time>2026-05-02T07:23:42.582Z</time>
      </trkpt>
      <trkpt lat="45.804712" lon="8.975883">
        <ele>400.147957</ele>
        <time>2026-05-02T07:23:47.586Z</time>
      </trkpt>
      <trkpt lat="45.804632" lon="8.975987">
        <ele>400.678482</ele>
        <time>2026-05-02T07:23:52.588Z</time>
      </trkpt>
      <trkpt lat="45.804559" lon="8.976068">
        <ele>400.983965</ele>
        <time>2026-05-02T07:23:56.580Z</time>
      </trkpt>
      <trkpt lat="45.804488" lon="8.976157">
        <ele>401.275645</ele>
        <time>2026-05-02T07:24:00.584Z</time>
      </trkpt>
      <trkpt lat="45.804418" lon="8.976245">
        <ele>401.563578</ele>
        <time>2026-05-02T07:24:04.587Z</time>
      </trkpt>
      <trkpt lat="45.804349" lon="8.976337">
        <ele>401.854994</ele>
        <time>2026-05-02T07:24:08.581Z</time>
      </trkpt>
      <trkpt lat="45.804272" lon="8.976420">
        <ele>402.152947</ele>
        <time>2026-05-02T07:24:12.585Z</time>
      </trkpt>
      <trkpt lat="45.804204" lon="8.976507">
        <ele>402.434816</ele>
        <time>2026-05-02T07:24:16.592Z</time>
      </trkpt>
      <trkpt lat="45.804131" lon="8.976594">
        <ele>402.728410</ele>
        <time>2026-05-02T07:24:20.585Z</time>
      </trkpt>
      <trkpt lat="45.804061" lon="8.976676">
        <ele>403.007984</ele>
        <time>2026-05-02T07:24:24.587Z</time>
      </trkpt>
      <trkpt lat="45.804070" lon="8.976808">
        <ele>403.294003</ele>
        <time>2026-05-02T07:24:30.581Z</time>
      </trkpt>
      <trkpt lat="45.804156" lon="8.976885">
        <ele>403.607612</ele>
        <time>2026-05-02T07:24:37.583Z</time>
      </trkpt>
      <trkpt lat="45.804229" lon="8.976992">
        <ele>403.930476</ele>
        <time>2026-05-02T07:24:44.587Z</time>
      </trkpt>
      <trkpt lat="45.804318" lon="8.977029">
        <ele>404.217126</ele>
        <time>2026-05-02T07:24:49.584Z</time>
      </trkpt>
      <trkpt lat="45.804439" lon="8.977018">
        <ele>404.592190</ele>
        <time>2026-05-02T07:24:53.589Z</time>
      </trkpt>
      <trkpt lat="45.804529" lon="8.977029">
        <ele>404.871613</ele>
        <time>2026-05-02T07:24:56.586Z</time>
      </trkpt>
      <trkpt lat="45.804620" lon="8.977045">
        <ele>405.155228</ele>
        <time>2026-05-02T07:24:59.592Z</time>
      </trkpt>
      <trkpt lat="45.804723" lon="8.977069">
        <ele>405.478034</ele>
        <time>2026-05-02T07:25:02.588Z</time>
      </trkpt>
      <trkpt lat="45.804841" lon="8.977091">
        <ele>405.846136</ele>
        <time>2026-05-02T07:25:05.586Z</time>
      </trkpt>
      <trkpt lat="45.804957" lon="8.977113">
        <ele>406.208104</ele>
        <time>2026-05-02T07:25:08.579Z</time>
      </trkpt>
      <trkpt lat="45.805072" lon="8.977139">
        <ele>406.475451</ele>
        <time>2026-05-02T07:25:11.591Z</time>
      </trkpt>
      <trkpt lat="45.805185" lon="8.977165">
        <ele>406.708580</ele>
        <time>2026-05-02T07:25:14.585Z</time>
      </trkpt>
      <trkpt lat="45.805296" lon="8.977187">
        <ele>406.936841</ele>
        <time>2026-05-02T07:25:17.586Z</time>
      </trkpt>
      <trkpt lat="45.805412" lon="8.977207">
        <ele>407.174840</ele>
        <time>2026-05-02T07:25:20.591Z</time>
      </trkpt>
      <trkpt lat="45.805519" lon="8.977250">
        <ele>407.401196</ele>
        <time>2026-05-02T07:25:23.584Z</time>
      </trkpt>
      <trkpt lat="45.805508" lon="8.977396">
        <ele>407.609726</ele>
        <time>2026-05-02T07:25:26.590Z</time>
      </trkpt>
      <trkpt lat="45.805473" lon="8.977569">
        <ele>407.865527</ele>
        <time>2026-05-02T07:25:29.592Z</time>
      </trkpt>
      <trkpt lat="45.805444" lon="8.977735">
        <ele>408.108540</ele>
        <time>2026-05-02T07:25:32.589Z</time>
      </trkpt>
      <trkpt lat="45.805412" lon="8.977885">
        <ele>408.331295</ele>
        <time>2026-05-02T07:25:35.583Z</time>
      </trkpt>
      <trkpt lat="45.805380" lon="8.978013">
        <ele>408.524394</ele>
        <time>2026-05-02T07:25:38.588Z</time>
      </trkpt>
      <trkpt lat="45.805342" lon="8.978146">
        <ele>408.728505</ele>
        <time>2026-05-02T07:25:41.588Z</time>
      </trkpt>
      <trkpt lat="45.805298" lon="8.978275">
        <ele>408.932441</ele>
        <time>2026-05-02T07:25:44.582Z</time>
      </trkpt>
      <trkpt lat="45.805254" lon="8.978397">
        <ele>409.127497</ele>
        <time>2026-05-02T07:25:47.593Z</time>
      </trkpt>
      <trkpt lat="45.805200" lon="8.978512">
        <ele>409.324393</ele>
        <time>2026-05-02T07:25:50.582Z</time>
      </trkpt>
      <trkpt lat="45.805143" lon="8.978625">
        <ele>409.522460</ele>
        <time>2026-05-02T07:25:53.587Z</time>
      </trkpt>
      <trkpt lat="45.805082" lon="8.978724">
        <ele>409.710088</ele>
        <time>2026-05-02T07:25:56.586Z</time>
      </trkpt>
      <trkpt lat="45.805011" lon="8.978854">
        <ele>409.944602</ele>
        <time>2026-05-02T07:26:00.580Z</time>
      </trkpt>
      <trkpt lat="45.804929" lon="8.978979">
        <ele>410.567414</ele>
        <time>2026-05-02T07:26:04.584Z</time>
      </trkpt>
      <trkpt lat="45.804865" lon="8.979071">
        <ele>411.058983</ele>
        <time>2026-05-02T07:26:07.586Z</time>
      </trkpt>
      <trkpt lat="45.804780" lon="8.979192">
        <ele>411.708677</ele>
        <time>2026-05-02T07:26:11.590Z</time>
      </trkpt>
      <trkpt lat="45.804711" lon="8.979277">
        <ele>412.202126</ele>
        <time>2026-05-02T07:26:14.588Z</time>
      </trkpt>
      <trkpt lat="45.804636" lon="8.979355">
        <ele>412.704722</ele>
        <time>2026-05-02T07:26:17.582Z</time>
      </trkpt>
      <trkpt lat="45.804561" lon="8.979442">
        <ele>413.228025</ele>
        <time>2026-05-02T07:26:20.584Z</time>
      </trkpt>
      <trkpt lat="45.804482" lon="8.979512">
        <ele>413.731810</ele>
        <time>2026-05-02T07:26:23.584Z</time>
      </trkpt>
      <trkpt lat="45.804398" lon="8.979559">
        <ele>414.220989</ele>
        <time>2026-05-02T07:26:26.589Z</time>
      </trkpt>
      <trkpt lat="45.804313" lon="8.979610">
        <ele>414.720867</ele>
        <time>2026-05-02T07:26:29.588Z</time>
      </trkpt>
      <trkpt lat="45.804217" lon="8.979699">
        <ele>415.341017</ele>
        <time>2026-05-02T07:26:33.588Z</time>
      </trkpt>
      <trkpt lat="45.804134" lon="8.979795">
        <ele>415.919475</ele>
        <time>2026-05-02T07:26:38.587Z</time>
      </trkpt>
      <trkpt lat="45.804061" lon="8.979895">
        <ele>416.467115</ele>
        <time>2026-05-02T07:26:43.584Z</time>
      </trkpt>
      <trkpt lat="45.804004" lon="8.980014">
        <ele>417.013197</ele>
        <time>2026-05-02T07:26:48.587Z</time>
      </trkpt>
      <trkpt lat="45.803951" lon="8.980145">
        <ele>417.586057</ele>
        <time>2026-05-02T07:26:53.585Z</time>
      </trkpt>
      <trkpt lat="45.803883" lon="8.980265">
        <ele>418.170950</ele>
        <time>2026-05-02T07:26:58.585Z</time>
      </trkpt>
      <trkpt lat="45.803816" lon="8.980385">
        <ele>418.752436</ele>
        <time>2026-05-02T07:27:03.584Z</time>
      </trkpt>
      <trkpt lat="45.803743" lon="8.980501">
        <ele>419.343494</ele>
        <time>2026-05-02T07:27:08.590Z</time>
      </trkpt>
      <trkpt lat="45.803673" lon="8.980624">
        <ele>419.690887</ele>
        <time>2026-05-02T07:27:13.584Z</time>
      </trkpt>
      <trkpt lat="45.803610" lon="8.980721">
        <ele>419.628471</ele>
        <time>2026-05-02T07:27:17.588Z</time>
      </trkpt>
      <trkpt lat="45.803524" lon="8.980818">
        <ele>419.554588</ele>
        <time>2026-05-02T07:27:22.584Z</time>
      </trkpt>
      <trkpt lat="45.803449" lon="8.980893">
        <ele>419.492845</ele>
        <time>2026-05-02T07:27:26.588Z</time>
      </trkpt>
      <trkpt lat="45.803370" lon="8.980959">
        <ele>419.431104</ele>
        <time>2026-05-02T07:27:30.582Z</time>
      </trkpt>
      <trkpt lat="45.803287" lon="8.981027">
        <ele>419.366553</ele>
        <time>2026-05-02T07:27:34.587Z</time>
      </trkpt>
      <trkpt lat="45.803190" lon="8.981112">
        <ele>419.289788</ele>
        <time>2026-05-02T07:27:38.586Z</time>
      </trkpt>
      <trkpt lat="45.803096" lon="8.981193">
        <ele>419.215733</ele>
        <time>2026-05-02T07:27:42.581Z</time>
      </trkpt>
      <trkpt lat="45.803001" lon="8.981272">
        <ele>419.141574</ele>
        <time>2026-05-02T07:27:46.584Z</time>
      </trkpt>
      <trkpt lat="45.802903" lon="8.981355">
        <ele>419.064716</ele>
        <time>2026-05-02T07:27:50.590Z</time>
      </trkpt>
      <trkpt lat="45.802797" lon="8.981423">
        <ele>418.986297</ele>
        <time>2026-05-02T07:27:54.590Z</time>
      </trkpt>
      <trkpt lat="45.802683" lon="8.981484">
        <ele>418.904126</ele>
        <time>2026-05-02T07:27:58.590Z</time>
      </trkpt>
      <trkpt lat="45.802578" lon="8.981566">
        <ele>418.823387</ele>
        <time>2026-05-02T07:28:01.584Z</time>
      </trkpt>
      <trkpt lat="45.802477" lon="8.981602">
        <ele>418.753104</ele>
        <time>2026-05-02T07:28:03.581Z</time>
      </trkpt>
      <trkpt lat="45.802374" lon="8.981647">
        <ele>418.680389</ele>
        <time>2026-05-02T07:28:05.588Z</time>
      </trkpt>
      <trkpt lat="45.802274" lon="8.981700">
        <ele>418.608392</ele>
        <time>2026-05-02T07:28:07.589Z</time>
      </trkpt>
      <trkpt lat="45.802177" lon="8.981742">
        <ele>418.539965</ele>
        <time>2026-05-02T07:28:09.585Z</time>
      </trkpt>
      <trkpt lat="45.802064" lon="8.981793">
        <ele>418.336904</ele>
        <time>2026-05-02T07:28:12.588Z</time>
      </trkpt>
      <trkpt lat="45.801934" lon="8.981845">
        <ele>417.992283</ele>
        <time>2026-05-02T07:28:15.586Z</time>
      </trkpt>
      <trkpt lat="45.801817" lon="8.981881">
        <ele>417.686727</ele>
        <time>2026-05-02T07:28:18.586Z</time>
      </trkpt>
      <trkpt lat="45.801728" lon="8.981944">
        <ele>417.433299</ele>
        <time>2026-05-02T07:28:22.593Z</time>
      </trkpt>
      <trkpt lat="45.801689" lon="8.982299">
        <ele>416.793543</ele>
        <time>2026-05-02T07:28:50.588Z</time>
      </trkpt>
      <trkpt lat="45.801719" lon="8.982470">
        <ele>416.479644</ele>
        <time>2026-05-02T07:28:53.589Z</time>
      </trkpt>
      <trkpt lat="45.801745" lon="8.982641">
        <ele>416.168081</ele>
        <time>2026-05-02T07:28:56.590Z</time>
      </trkpt>
      <trkpt lat="45.801774" lon="8.982822">
        <ele>415.837471</ele>
        <time>2026-05-02T07:28:59.591Z</time>
      </trkpt>
      <trkpt lat="45.801788" lon="8.982955">
        <ele>415.598027</ele>
        <time>2026-05-02T07:29:01.583Z</time>
      </trkpt>
      <trkpt lat="45.801804" lon="8.983094">
        <ele>415.347234</ele>
        <time>2026-05-02T07:29:03.586Z</time>
      </trkpt>
      <trkpt lat="45.801815" lon="8.983241">
        <ele>415.084048</ele>
        <time>2026-05-02T07:29:05.588Z</time>
      </trkpt>
      <trkpt lat="45.801827" lon="8.983384">
        <ele>414.827647</ele>
        <time>2026-05-02T07:29:07.589Z</time>
      </trkpt>
      <trkpt lat="45.801836" lon="8.983529">
        <ele>414.568503</ele>
        <time>2026-05-02T07:29:09.587Z</time>
      </trkpt>
      <trkpt lat="45.801848" lon="8.983675">
        <ele>414.306800</ele>
        <time>2026-05-02T07:29:11.595Z</time>
      </trkpt>
      <trkpt lat="45.801857" lon="8.983823">
        <ele>414.042336</ele>
        <time>2026-05-02T07:29:13.585Z</time>
      </trkpt>
      <trkpt lat="45.801867" lon="8.983971">
        <ele>413.841137</ele>
        <time>2026-05-02T07:29:15.585Z</time>
      </trkpt>
      <trkpt lat="45.801877" lon="8.984119">
        <ele>413.702131</ele>
        <time>2026-05-02T07:29:17.584Z</time>
      </trkpt>
      <trkpt lat="45.801887" lon="8.984269">
        <ele>413.561264</ele>
        <time>2026-05-02T07:29:19.592Z</time>
      </trkpt>
      <trkpt lat="45.801898" lon="8.984424">
        <ele>413.415613</ele>
        <time>2026-05-02T07:29:21.583Z</time>
      </trkpt>
      <trkpt lat="45.801907" lon="8.984575">
        <ele>413.273936</ele>
        <time>2026-05-02T07:29:23.588Z</time>
      </trkpt>
      <trkpt lat="45.801924" lon="8.984727">
        <ele>413.130022</ele>
        <time>2026-05-02T07:29:25.583Z</time>
      </trkpt>
      <trkpt lat="45.801939" lon="8.984874">
        <ele>412.991135</ele>
        <time>2026-05-02T07:29:27.591Z</time>
      </trkpt>
      <trkpt lat="45.801946" lon="8.985023">
        <ele>412.851526</ele>
        <time>2026-05-02T07:29:29.591Z</time>
      </trkpt>
      <trkpt lat="45.801953" lon="8.985171">
        <ele>412.712851</ele>
        <time>2026-05-02T07:29:31.583Z</time>
      </trkpt>
      <trkpt lat="45.801963" lon="8.985325">
        <ele>412.568261</ele>
        <time>2026-05-02T07:29:33.594Z</time>
      </trkpt>
      <trkpt lat="45.801951" lon="8.985480">
        <ele>412.422468</ele>
        <time>2026-05-02T07:29:35.582Z</time>
      </trkpt>
      <trkpt lat="45.801930" lon="8.985634">
        <ele>412.275773</ele>
        <time>2026-05-02T07:29:37.590Z</time>
      </trkpt>
      <trkpt lat="45.801896" lon="8.985781">
        <ele>412.130984</ele>
        <time>2026-05-02T07:29:39.582Z</time>
      </trkpt>
      <trkpt lat="45.801889" lon="8.985924">
        <ele>411.996972</ele>
        <time>2026-05-02T07:29:41.590Z</time>
      </trkpt>
      <trkpt lat="45.801887" lon="8.986062">
        <ele>411.867935</ele>
        <time>2026-05-02T07:29:43.583Z</time>
      </trkpt>
      <trkpt lat="45.801870" lon="8.986195">
        <ele>411.741527</ele>
        <time>2026-05-02T07:29:45.589Z</time>
      </trkpt>
      <trkpt lat="45.801851" lon="8.986330">
        <ele>411.612776</ele>
        <time>2026-05-02T07:29:47.588Z</time>
      </trkpt>
      <trkpt lat="45.801822" lon="8.986464">
        <ele>411.557737</ele>
        <time>2026-05-02T07:29:49.588Z</time>
      </trkpt>
      <trkpt lat="45.801793" lon="8.986593">
        <ele>411.972461</ele>
        <time>2026-05-02T07:29:51.589Z</time>
      </trkpt>
      <trkpt lat="45.801766" lon="8.986720">
        <ele>412.378718</ele>
        <time>2026-05-02T07:29:53.594Z</time>
      </trkpt>
      <trkpt lat="45.801728" lon="8.986886">
        <ele>412.913321</ele>
        <time>2026-05-02T07:29:56.587Z</time>
      </trkpt>
      <trkpt lat="45.801694" lon="8.987038">
        <ele>413.401760</ele>
        <time>2026-05-02T07:29:59.588Z</time>
      </trkpt>
      <trkpt lat="45.801662" lon="8.987182">
        <ele>413.864210</ele>
        <time>2026-05-02T07:30:02.588Z</time>
      </trkpt>
      <trkpt lat="45.801629" lon="8.987314">
        <ele>414.293285</ele>
        <time>2026-05-02T07:30:05.586Z</time>
      </trkpt>
      <trkpt lat="45.801601" lon="8.987440">
        <ele>414.697929</ele>
        <time>2026-05-02T07:30:08.586Z</time>
      </trkpt>
      <trkpt lat="45.801572" lon="8.987566">
        <ele>415.103928</ele>
        <time>2026-05-02T07:30:11.586Z</time>
      </trkpt>
      <trkpt lat="45.801545" lon="8.987691">
        <ele>415.504338</ele>
        <time>2026-05-02T07:30:14.585Z</time>
      </trkpt>
      <trkpt lat="45.801509" lon="8.987855">
        <ele>416.030429</ele>
        <time>2026-05-02T07:30:18.583Z</time>
      </trkpt>
      <trkpt lat="45.801480" lon="8.987977">
        <ele>416.424825</ele>
        <time>2026-05-02T07:30:21.584Z</time>
      </trkpt>
      <trkpt lat="45.801448" lon="8.988135">
        <ele>416.928259</ele>
        <time>2026-05-02T07:30:25.591Z</time>
      </trkpt>
      <trkpt lat="45.801413" lon="8.988294">
        <ele>417.438441</ele>
        <time>2026-05-02T07:30:29.583Z</time>
      </trkpt>
      <trkpt lat="45.801375" lon="8.988458">
        <ele>417.967236</ele>
        <time>2026-05-02T07:30:33.589Z</time>
      </trkpt>
      <trkpt lat="45.801347" lon="8.988582">
        <ele>418.366056</ele>
        <time>2026-05-02T07:30:36.590Z</time>
      </trkpt>
      <trkpt lat="45.801319" lon="8.988705">
        <ele>418.761966</ele>
        <time>2026-05-02T07:30:39.587Z</time>
      </trkpt>
      <trkpt lat="45.801284" lon="8.988867">
        <ele>419.280909</ele>
        <time>2026-05-02T07:30:43.589Z</time>
      </trkpt>
      <trkpt lat="45.801246" lon="8.989020">
        <ele>419.832240</ele>
        <time>2026-05-02T07:30:47.588Z</time>
      </trkpt>
      <trkpt lat="45.801211" lon="8.989169">
        <ele>420.381404</ele>
        <time>2026-05-02T07:30:51.582Z</time>
      </trkpt>
      <trkpt lat="45.801175" lon="8.989303">
        <ele>420.882979</ele>
        <time>2026-05-02T07:30:55.581Z</time>
      </trkpt>
      <trkpt lat="45.801136" lon="8.989441">
        <ele>421.403074</ele>
        <time>2026-05-02T07:30:59.586Z</time>
      </trkpt>
      <trkpt lat="45.801100" lon="8.989578">
        <ele>421.914442</ele>
        <time>2026-05-02T07:31:03.585Z</time>
      </trkpt>
      <trkpt lat="45.801061" lon="8.989713">
        <ele>422.424842</ele>
        <time>2026-05-02T07:31:07.588Z</time>
      </trkpt>
      <trkpt lat="45.801020" lon="8.989846">
        <ele>422.932765</ele>
        <time>2026-05-02T07:31:11.578Z</time>
      </trkpt>
      <trkpt lat="45.800980" lon="8.989974">
        <ele>423.422696</ele>
        <time>2026-05-02T07:31:15.578Z</time>
      </trkpt>
      <trkpt lat="45.800937" lon="8.990107">
        <ele>423.934754</ele>
        <time>2026-05-02T07:31:19.586Z</time>
      </trkpt>
      <trkpt lat="45.800896" lon="8.990243">
        <ele>424.452278</ele>
        <time>2026-05-02T07:31:23.591Z</time>
      </trkpt>
      <trkpt lat="45.800859" lon="8.990382">
        <ele>424.971956</ele>
        <time>2026-05-02T07:31:27.585Z</time>
      </trkpt>
      <trkpt lat="45.800823" lon="8.990520">
        <ele>425.486595</ele>
        <time>2026-05-02T07:31:31.583Z</time>
      </trkpt>
      <trkpt lat="45.800787" lon="8.990671">
        <ele>426.043988</ele>
        <time>2026-05-02T07:31:35.581Z</time>
      </trkpt>
      <trkpt lat="45.800758" lon="8.990824">
        <ele>426.597779</ele>
        <time>2026-05-02T07:31:39.582Z</time>
      </trkpt>
      <trkpt lat="45.800739" lon="8.990980">
        <ele>427.150902</ele>
        <time>2026-05-02T07:31:43.589Z</time>
      </trkpt>
      <trkpt lat="45.800718" lon="8.991150">
        <ele>427.753920</ele>
        <time>2026-05-02T07:31:47.579Z</time>
      </trkpt>
      <trkpt lat="45.800703" lon="8.991287">
        <ele>428.238293</ele>
        <time>2026-05-02T07:31:50.579Z</time>
      </trkpt>
      <trkpt lat="45.800690" lon="8.991431">
        <ele>428.604787</ele>
        <time>2026-05-02T07:31:53.587Z</time>
      </trkpt>
      <trkpt lat="45.800687" lon="8.991581">
        <ele>428.912423</ele>
        <time>2026-05-02T07:31:56.587Z</time>
      </trkpt>
      <trkpt lat="45.800689" lon="8.991733">
        <ele>429.224088</ele>
        <time>2026-05-02T07:31:59.582Z</time>
      </trkpt>
      <trkpt lat="45.800707" lon="8.991888">
        <ele>429.546226</ele>
        <time>2026-05-02T07:32:02.598Z</time>
      </trkpt>
      <trkpt lat="45.800740" lon="8.992042">
        <ele>429.876513</ele>
        <time>2026-05-02T07:32:05.580Z</time>
      </trkpt>
      <trkpt lat="45.800790" lon="8.992178">
        <ele>430.191714</ele>
        <time>2026-05-02T07:32:08.585Z</time>
      </trkpt>
      <trkpt lat="45.800846" lon="8.992286">
        <ele>430.467646</ele>
        <time>2026-05-02T07:32:11.592Z</time>
      </trkpt>
      <trkpt lat="45.800907" lon="8.992398">
        <ele>430.759013</ele>
        <time>2026-05-02T07:32:14.586Z</time>
      </trkpt>
      <trkpt lat="45.800968" lon="8.992515">
        <ele>431.058525</ele>
        <time>2026-05-02T07:32:17.592Z</time>
      </trkpt>
      <trkpt lat="45.801032" lon="8.992635">
        <ele>431.368263</ele>
        <time>2026-05-02T07:32:20.589Z</time>
      </trkpt>
      <trkpt lat="45.801092" lon="8.992756">
        <ele>431.672667</ele>
        <time>2026-05-02T07:32:23.583Z</time>
      </trkpt>
      <trkpt lat="45.801151" lon="8.992866">
        <ele>431.957190</ele>
        <time>2026-05-02T07:32:26.584Z</time>
      </trkpt>
      <trkpt lat="45.801204" lon="8.992972">
        <ele>432.224606</ele>
        <time>2026-05-02T07:32:29.584Z</time>
      </trkpt>
      <trkpt lat="45.801261" lon="8.993082">
        <ele>432.505581</ele>
        <time>2026-05-02T07:32:32.583Z</time>
      </trkpt>
      <trkpt lat="45.801323" lon="8.993194">
        <ele>432.798767</ele>
        <time>2026-05-02T07:32:35.584Z</time>
      </trkpt>
      <trkpt lat="45.801383" lon="8.993310">
        <ele>433.094876</ele>
        <time>2026-05-02T07:32:38.585Z</time>
      </trkpt>
      <trkpt lat="45.801440" lon="8.993427">
        <ele>433.387493</ele>
        <time>2026-05-02T07:32:41.590Z</time>
      </trkpt>
      <trkpt lat="45.801505" lon="8.993543">
        <ele>433.692591</ele>
        <time>2026-05-02T07:32:44.581Z</time>
      </trkpt>
      <trkpt lat="45.801569" lon="8.993656">
        <ele>433.641946</ele>
        <time>2026-05-02T07:32:47.585Z</time>
      </trkpt>
      <trkpt lat="45.801628" lon="8.993772">
        <ele>433.590355</ele>
        <time>2026-05-02T07:32:50.587Z</time>
      </trkpt>
      <trkpt lat="45.801689" lon="8.993884">
        <ele>433.539290</ele>
        <time>2026-05-02T07:32:53.587Z</time>
      </trkpt>
      <trkpt lat="45.801749" lon="8.994000">
        <ele>433.487394</ele>
        <time>2026-05-02T07:32:56.580Z</time>
      </trkpt>
      <trkpt lat="45.801812" lon="8.994118">
        <ele>433.433994</ele>
        <time>2026-05-02T07:32:59.583Z</time>
      </trkpt>
      <trkpt lat="45.801869" lon="8.994226">
        <ele>433.385325</ele>
        <time>2026-05-02T07:33:02.584Z</time>
      </trkpt>
      <trkpt lat="45.801933" lon="8.994349">
        <ele>433.330180</ele>
        <time>2026-05-02T07:33:05.580Z</time>
      </trkpt>
      <trkpt lat="45.802001" lon="8.994480">
        <ele>433.271499</ele>
        <time>2026-05-02T07:33:08.593Z</time>
      </trkpt>
      <trkpt lat="45.802066" lon="8.994608">
        <ele>433.214603</ele>
        <time>2026-05-02T07:33:11.589Z</time>
      </trkpt>
      <trkpt lat="45.802131" lon="8.994731">
        <ele>433.159149</ele>
        <time>2026-05-02T07:33:14.584Z</time>
      </trkpt>
      <trkpt lat="45.802199" lon="8.994864">
        <ele>433.099890</ele>
        <time>2026-05-02T07:33:17.584Z</time>
      </trkpt>
      <trkpt lat="45.802276" lon="8.995005">
        <ele>433.035539</ele>
        <time>2026-05-02T07:33:20.585Z</time>
      </trkpt>
      <trkpt lat="45.802352" lon="8.995155">
        <ele>432.968916</ele>
        <time>2026-05-02T07:33:23.587Z</time>
      </trkpt>
      <trkpt lat="45.802409" lon="8.995261">
        <ele>432.920818</ele>
        <time>2026-05-02T07:33:25.581Z</time>
      </trkpt>
      <trkpt lat="45.802462" lon="8.995380">
        <ele>432.870083</ele>
        <time>2026-05-02T07:33:27.585Z</time>
      </trkpt>
      <trkpt lat="45.802518" lon="8.995508">
        <ele>432.815789</ele>
        <time>2026-05-02T07:33:29.583Z</time>
      </trkpt>
      <trkpt lat="45.802569" lon="8.995652">
        <ele>432.682493</ele>
        <time>2026-05-02T07:33:31.591Z</time>
      </trkpt>
      <trkpt lat="45.802623" lon="8.995805">
        <ele>432.120997</ele>
        <time>2026-05-02T07:33:33.589Z</time>
      </trkpt>
      <trkpt lat="45.802669" lon="8.995981">
        <ele>431.505569</ele>
        <time>2026-05-02T07:33:35.585Z</time>
      </trkpt>
      <trkpt lat="45.802694" lon="8.996154">
        <ele>430.927091</ele>
        <time>2026-05-02T07:33:37.586Z</time>
      </trkpt>
      <trkpt lat="45.802696" lon="8.996319">
        <ele>430.386766</ele>
        <time>2026-05-02T07:33:39.583Z</time>
      </trkpt>
      <trkpt lat="45.802709" lon="8.996478">
        <ele>429.862600</ele>
        <time>2026-05-02T07:33:41.583Z</time>
      </trkpt>
      <trkpt lat="45.802784" lon="8.996593">
        <ele>429.346986</ele>
        <time>2026-05-02T07:33:43.589Z</time>
      </trkpt>
      <trkpt lat="45.802900" lon="8.996640">
        <ele>428.780855</ele>
        <time>2026-05-02T07:33:45.596Z</time>
      </trkpt>
      <trkpt lat="45.802998" lon="8.996740">
        <ele>428.216005</ele>
        <time>2026-05-02T07:33:47.590Z</time>
      </trkpt>
      <trkpt lat="45.803078" lon="8.996894">
        <ele>427.587183</ele>
        <time>2026-05-02T07:33:49.582Z</time>
      </trkpt>
      <trkpt lat="45.803157" lon="8.997064">
        <ele>426.918241</ele>
        <time>2026-05-02T07:33:51.580Z</time>
      </trkpt>
      <trkpt lat="45.803235" lon="8.997248">
        <ele>426.213153</ele>
        <time>2026-05-02T07:33:53.580Z</time>
      </trkpt>
      <trkpt lat="45.803320" lon="8.997441">
        <ele>425.465697</ele>
        <time>2026-05-02T07:33:55.587Z</time>
      </trkpt>
      <trkpt lat="45.803408" lon="8.997643">
        <ele>424.685795</ele>
        <time>2026-05-02T07:33:57.587Z</time>
      </trkpt>
      <trkpt lat="45.803500" lon="8.997857">
        <ele>424.144800</ele>
        <time>2026-05-02T07:33:59.581Z</time>
      </trkpt>
      <trkpt lat="45.803597" lon="8.998077">
        <ele>423.819045</ele>
        <time>2026-05-02T07:34:01.587Z</time>
      </trkpt>
      <trkpt lat="45.803644" lon="8.998190">
        <ele>423.654377</ele>
        <time>2026-05-02T07:34:02.581Z</time>
      </trkpt>
      <trkpt lat="45.803691" lon="8.998305">
        <ele>423.487556</ele>
        <time>2026-05-02T07:34:03.581Z</time>
      </trkpt>
      <trkpt lat="45.803741" lon="8.998422">
        <ele>423.315819</ele>
        <time>2026-05-02T07:34:04.586Z</time>
      </trkpt>
      <trkpt lat="45.803792" lon="8.998540">
        <ele>423.142075</ele>
        <time>2026-05-02T07:34:05.587Z</time>
      </trkpt>
      <trkpt lat="45.803841" lon="8.998659">
        <ele>422.969119</ele>
        <time>2026-05-02T07:34:06.586Z</time>
      </trkpt>
      <trkpt lat="45.803888" lon="8.998782">
        <ele>422.793588</ele>
        <time>2026-05-02T07:34:07.582Z</time>
      </trkpt>
      <trkpt lat="45.803937" lon="8.998898">
        <ele>422.623854</ele>
        <time>2026-05-02T07:34:08.579Z</time>
      </trkpt>
      <trkpt lat="45.803984" lon="8.999011">
        <ele>422.459188</ele>
        <time>2026-05-02T07:34:09.585Z</time>
      </trkpt>
      <trkpt lat="45.804055" lon="8.999239">
        <ele>422.146694</ele>
        <time>2026-05-02T07:34:11.586Z</time>
      </trkpt>
      <trkpt lat="45.804102" lon="8.999458">
        <ele>421.859943</ele>
        <time>2026-05-02T07:34:13.594Z</time>
      </trkpt>
      <trkpt lat="45.804199" lon="8.999615">
        <ele>421.597415</ele>
        <time>2026-05-02T07:34:15.585Z</time>
      </trkpt>
      <trkpt lat="45.804296" lon="8.999740">
        <ele>421.363344</ele>
        <time>2026-05-02T07:34:17.585Z</time>
      </trkpt>
      <trkpt lat="45.804393" lon="8.999838">
        <ele>421.150365</ele>
        <time>2026-05-02T07:34:19.584Z</time>
      </trkpt>
      <trkpt lat="45.804491" lon="8.999921">
        <ele>421.285778</ele>
        <time>2026-05-02T07:34:21.584Z</time>
      </trkpt>
      <trkpt lat="45.804591" lon="8.999986">
        <ele>421.551918</ele>
        <time>2026-05-02T07:34:23.580Z</time>
      </trkpt>
      <trkpt lat="45.804685" lon="9.000047">
        <ele>421.802020</ele>
        <time>2026-05-02T07:34:25.583Z</time>
      </trkpt>
      <trkpt lat="45.804775" lon="9.000093">
        <ele>422.033628</ele>
        <time>2026-05-02T07:34:27.585Z</time>
      </trkpt>
      <trkpt lat="45.804864" lon="9.000136">
        <ele>422.261286</ele>
        <time>2026-05-02T07:34:29.590Z</time>
      </trkpt>
      <trkpt lat="45.804950" lon="9.000180">
        <ele>422.482626</ele>
        <time>2026-05-02T07:34:31.586Z</time>
      </trkpt>
      <trkpt lat="45.805070" lon="9.000240">
        <ele>422.790688</ele>
        <time>2026-05-02T07:34:34.584Z</time>
      </trkpt>
      <trkpt lat="45.805181" lon="9.000300">
        <ele>423.078238</ele>
        <time>2026-05-02T07:34:37.583Z</time>
      </trkpt>
      <trkpt lat="45.805288" lon="9.000355">
        <ele>423.353771</ele>
        <time>2026-05-02T07:34:40.582Z</time>
      </trkpt>
      <trkpt lat="45.805395" lon="9.000408">
        <ele>423.628183</ele>
        <time>2026-05-02T07:34:43.581Z</time>
      </trkpt>
      <trkpt lat="45.805500" lon="9.000460">
        <ele>423.897460</ele>
        <time>2026-05-02T07:34:46.587Z</time>
      </trkpt>
      <trkpt lat="45.805603" lon="9.000514">
        <ele>424.163300</ele>
        <time>2026-05-02T07:34:49.580Z</time>
      </trkpt>
      <trkpt lat="45.805705" lon="9.000565">
        <ele>424.425152</ele>
        <time>2026-05-02T07:34:52.582Z</time>
      </trkpt>
      <trkpt lat="45.805807" lon="9.000611">
        <ele>424.684347</ele>
        <time>2026-05-02T07:34:55.586Z</time>
      </trkpt>
      <trkpt lat="45.805907" lon="9.000656">
        <ele>424.938409</ele>
        <time>2026-05-02T07:34:58.584Z</time>
      </trkpt>
      <trkpt lat="45.805991" lon="9.000721">
        <ele>425.169774</ele>
        <time>2026-05-02T07:35:01.584Z</time>
      </trkpt>
      <trkpt lat="45.806186" lon="9.000799">
        <ele>425.674242</ele>
        <time>2026-05-02T07:35:38.583Z</time>
      </trkpt>
      <trkpt lat="45.806277" lon="9.000844">
        <ele>425.922851</ele>
        <time>2026-05-02T07:35:41.590Z</time>
      </trkpt>
      <trkpt lat="45.806374" lon="9.000890">
        <ele>426.186718</ele>
        <time>2026-05-02T07:35:44.588Z</time>
      </trkpt>
      <trkpt lat="45.806473" lon="9.000939">
        <ele>426.457207</ele>
        <time>2026-05-02T07:35:47.588Z</time>
      </trkpt>
      <trkpt lat="45.806573" lon="9.000991">
        <ele>426.731933</ele>
        <time>2026-05-02T07:35:50.587Z</time>
      </trkpt>
      <trkpt lat="45.806676" lon="9.001031">
        <ele>427.007538</ele>
        <time>2026-05-02T07:35:53.587Z</time>
      </trkpt>
      <trkpt lat="45.806776" lon="9.001077">
        <ele>427.278773</ele>
        <time>2026-05-02T07:35:56.586Z</time>
      </trkpt>
      <trkpt lat="45.806871" lon="9.001124">
        <ele>427.538322</ele>
        <time>2026-05-02T07:35:59.586Z</time>
      </trkpt>
      <trkpt lat="45.806966" lon="9.001173">
        <ele>427.799067</ele>
        <time>2026-05-02T07:36:02.584Z</time>
      </trkpt>
      <trkpt lat="45.807065" lon="9.001219">
        <ele>428.067843</ele>
        <time>2026-05-02T07:36:05.592Z</time>
      </trkpt>
      <trkpt lat="45.807166" lon="9.001269">
        <ele>428.343802</ele>
        <time>2026-05-02T07:36:08.586Z</time>
      </trkpt>
      <trkpt lat="45.807269" lon="9.001318">
        <ele>428.624078</ele>
        <time>2026-05-02T07:36:11.591Z</time>
      </trkpt>
      <trkpt lat="45.807371" lon="9.001368">
        <ele>428.902480</ele>
        <time>2026-05-02T07:36:14.585Z</time>
      </trkpt>
      <trkpt lat="45.807465" lon="9.001409">
        <ele>429.156238</ele>
        <time>2026-05-02T07:36:17.582Z</time>
      </trkpt>
      <trkpt lat="45.807560" lon="9.001456">
        <ele>429.415787</ele>
        <time>2026-05-02T07:36:20.583Z</time>
      </trkpt>
      <trkpt lat="45.807660" lon="9.001503">
        <ele>429.687576</ele>
        <time>2026-05-02T07:36:23.585Z</time>
      </trkpt>
      <trkpt lat="45.807758" lon="9.001548">
        <ele>429.953342</ele>
        <time>2026-05-02T07:36:26.584Z</time>
      </trkpt>
      <trkpt lat="45.807858" lon="9.001594">
        <ele>430.219962</ele>
        <time>2026-05-02T07:36:29.586Z</time>
      </trkpt>
      <trkpt lat="45.807961" lon="9.001647">
        <ele>430.492420</ele>
        <time>2026-05-02T07:36:32.589Z</time>
      </trkpt>
      <trkpt lat="45.808064" lon="9.001708">
        <ele>430.769873</ele>
        <time>2026-05-02T07:36:35.588Z</time>
      </trkpt>
      <trkpt lat="45.808167" lon="9.001776">
        <ele>431.052186</ele>
        <time>2026-05-02T07:36:38.589Z</time>
      </trkpt>
      <trkpt lat="45.808267" lon="9.001846">
        <ele>431.329235</ele>
        <time>2026-05-02T07:36:41.585Z</time>
      </trkpt>
      <trkpt lat="45.808365" lon="9.001917">
        <ele>431.602595</ele>
        <time>2026-05-02T07:36:44.588Z</time>
      </trkpt>
      <trkpt lat="45.808463" lon="9.001986">
        <ele>431.874408</ele>
        <time>2026-05-02T07:36:47.581Z</time>
      </trkpt>
      <trkpt lat="45.808560" lon="9.002056">
        <ele>432.144764</ele>
        <time>2026-05-02T07:36:50.588Z</time>
      </trkpt>
      <trkpt lat="45.808652" lon="9.002132">
        <ele>432.409097</ele>
        <time>2026-05-02T07:36:53.587Z</time>
      </trkpt>
      <trkpt lat="45.808736" lon="9.002222">
        <ele>432.670141</ele>
        <time>2026-05-02T07:36:56.594Z</time>
      </trkpt>
      <trkpt lat="45.808822" lon="9.002316">
        <ele>432.939341</ele>
        <time>2026-05-02T07:36:59.593Z</time>
      </trkpt>
      <trkpt lat="45.808904" lon="9.002421">
        <ele>433.213012</ele>
        <time>2026-05-02T07:37:02.585Z</time>
      </trkpt>
      <trkpt lat="45.808980" lon="9.002535">
        <ele>433.486794</ele>
        <time>2026-05-02T07:37:05.594Z</time>
      </trkpt>
      <trkpt lat="45.809052" lon="9.002651">
        <ele>433.756370</ele>
        <time>2026-05-02T07:37:08.586Z</time>
      </trkpt>
      <trkpt lat="45.809121" lon="9.002770">
        <ele>434.025020</ele>
        <time>2026-05-02T07:37:11.592Z</time>
      </trkpt>
      <trkpt lat="45.809183" lon="9.002901">
        <ele>434.299837</ele>
        <time>2026-05-02T07:37:14.591Z</time>
      </trkpt>
      <trkpt lat="45.809239" lon="9.003044">
        <ele>434.591304</ele>
        <time>2026-05-02T07:37:17.582Z</time>
      </trkpt>
      <trkpt lat="45.809289" lon="9.003183">
        <ele>435.052119</ele>
        <time>2026-05-02T07:37:20.583Z</time>
      </trkpt>
      <trkpt lat="45.809345" lon="9.003322">
        <ele>435.525100</ele>
        <time>2026-05-02T07:37:23.584Z</time>
      </trkpt>
      <trkpt lat="45.809389" lon="9.003471">
        <ele>436.001830</ele>
        <time>2026-05-02T07:37:26.588Z</time>
      </trkpt>
      <trkpt lat="45.809395" lon="9.003617">
        <ele>436.432701</ele>
        <time>2026-05-02T07:37:29.585Z</time>
      </trkpt>
      <trkpt lat="45.809411" lon="9.003767">
        <ele>436.879754</ele>
        <time>2026-05-02T07:37:32.589Z</time>
      </trkpt>
      <trkpt lat="45.809463" lon="9.003919">
        <ele>437.378580</ele>
        <time>2026-05-02T07:37:35.581Z</time>
      </trkpt>
      <trkpt lat="45.809564" lon="9.003990">
        <ele>437.853947</ele>
        <time>2026-05-02T07:37:38.584Z</time>
      </trkpt>
      <trkpt lat="45.809663" lon="9.004011">
        <ele>438.276917</ele>
        <time>2026-05-02T07:37:41.580Z</time>
      </trkpt>
      <trkpt lat="45.809757" lon="9.004105">
        <ele>438.761198</ele>
        <time>2026-05-02T07:37:45.581Z</time>
      </trkpt>
      <trkpt lat="45.809829" lon="9.004203">
        <ele>439.180670</ele>
        <time>2026-05-02T07:37:49.595Z</time>
      </trkpt>
      <trkpt lat="45.809898" lon="9.004296">
        <ele>439.580810</ele>
        <time>2026-05-02T07:37:53.587Z</time>
      </trkpt>
      <trkpt lat="45.809970" lon="9.004392">
        <ele>439.996248</ele>
        <time>2026-05-02T07:37:57.587Z</time>
      </trkpt>
      <trkpt lat="45.810045" lon="9.004482">
        <ele>440.409504</ele>
        <time>2026-05-02T07:38:01.584Z</time>
      </trkpt>
      <trkpt lat="45.810129" lon="9.004550">
        <ele>440.817149</ele>
        <time>2026-05-02T07:38:05.586Z</time>
      </trkpt>
      <trkpt lat="45.810225" lon="9.004570">
        <ele>441.227146</ele>
        <time>2026-05-02T07:38:09.587Z</time>
      </trkpt>
      <trkpt lat="45.810323" lon="9.004546">
        <ele>441.647333</ele>
        <time>2026-05-02T07:38:13.582Z</time>
      </trkpt>
      <trkpt lat="45.810416" lon="9.004534">
        <ele>442.041982</ele>
        <time>2026-05-02T07:38:17.583Z</time>
      </trkpt>
      <trkpt lat="45.810525" lon="9.004524">
        <ele>442.776404</ele>
        <time>2026-05-02T07:38:22.582Z</time>
      </trkpt>
      <trkpt lat="45.810634" lon="9.004520">
        <ele>443.621792</ele>
        <time>2026-05-02T07:38:27.588Z</time>
      </trkpt>
      <trkpt lat="45.810746" lon="9.004518">
        <ele>444.490231</ele>
        <time>2026-05-02T07:38:32.580Z</time>
      </trkpt>
      <trkpt lat="45.810850" lon="9.004516">
        <ele>445.296649</ele>
        <time>2026-05-02T07:38:37.586Z</time>
      </trkpt>
      <trkpt lat="45.810955" lon="9.004510">
        <ele>446.111393</ele>
        <time>2026-05-02T07:38:42.586Z</time>
      </trkpt>
      <trkpt lat="45.811059" lon="9.004509">
        <ele>446.917756</ele>
        <time>2026-05-02T07:38:47.586Z</time>
      </trkpt>
      <trkpt lat="45.811161" lon="9.004513">
        <ele>447.708890</ele>
        <time>2026-05-02T07:38:52.585Z</time>
      </trkpt>
      <trkpt lat="45.811232" lon="9.004604">
        <ele>448.447057</ele>
        <time>2026-05-02T07:38:58.583Z</time>
      </trkpt>
      <trkpt lat="45.811246" lon="9.004746">
        <ele>449.222099</ele>
        <time>2026-05-02T07:39:04.583Z</time>
      </trkpt>
      <trkpt lat="45.811236" lon="9.004877">
        <ele>449.934290</ele>
        <time>2026-05-02T07:39:09.582Z</time>
      </trkpt>
      <trkpt lat="45.811222" lon="9.005008">
        <ele>450.650520</ele>
        <time>2026-05-02T07:39:14.581Z</time>
      </trkpt>
      <trkpt lat="45.811206" lon="9.005135">
        <ele>451.347981</ele>
        <time>2026-05-02T07:39:19.583Z</time>
      </trkpt>
      <trkpt lat="45.811192" lon="9.005274">
        <ele>452.106975</ele>
        <time>2026-05-02T07:39:24.581Z</time>
      </trkpt>
      <trkpt lat="45.811153" lon="9.005401">
        <ele>452.856973</ele>
        <time>2026-05-02T07:39:29.581Z</time>
      </trkpt>
      <trkpt lat="45.811074" lon="9.005501">
        <ele>453.673816</ele>
        <time>2026-05-02T07:39:34.586Z</time>
      </trkpt>
      <trkpt lat="45.811000" lon="9.005601">
        <ele>454.462008</ele>
        <time>2026-05-02T07:39:39.580Z</time>
      </trkpt>
      <trkpt lat="45.810942" lon="9.005709">
        <ele>455.198815</ele>
        <time>2026-05-02T07:39:44.585Z</time>
      </trkpt>
      <trkpt lat="45.810894" lon="9.005820">
        <ele>455.904756</ele>
        <time>2026-05-02T07:39:49.591Z</time>
      </trkpt>
      <trkpt lat="45.810843" lon="9.005949">
        <ele>456.778921</ele>
        <time>2026-05-02T07:39:55.587Z</time>
      </trkpt>
      <trkpt lat="45.810797" lon="9.006083">
        <ele>457.686603</ele>
        <time>2026-05-02T07:40:01.584Z</time>
      </trkpt>
      <trkpt lat="45.810767" lon="9.006220">
        <ele>458.559236</ele>
        <time>2026-05-02T07:40:07.584Z</time>
      </trkpt>
      <trkpt lat="45.810734" lon="9.006347">
        <ele>459.382866</ele>
        <time>2026-05-02T07:40:13.597Z</time>
      </trkpt>
      <trkpt lat="45.810716" lon="9.006482">
        <ele>460.218104</ele>
        <time>2026-05-02T07:40:19.597Z</time>
      </trkpt>
      <trkpt lat="45.810734" lon="9.006619">
        <ele>461.065282</ele>
        <time>2026-05-02T07:40:26.588Z</time>
      </trkpt>
      <trkpt lat="45.810743" lon="9.006750">
        <ele>461.865196</ele>
        <time>2026-05-02T07:40:33.581Z</time>
      </trkpt>
      <trkpt lat="45.810799" lon="9.006857">
        <ele>462.678295</ele>
        <time>2026-05-02T07:40:40.578Z</time>
      </trkpt>
      <trkpt lat="45.810893" lon="9.006837">
        <ele>463.506757</ele>
        <time>2026-05-02T07:40:46.583Z</time>
      </trkpt>
      <trkpt lat="45.810984" lon="9.006829">
        <ele>464.301590</ele>
        <time>2026-05-02T07:40:53.594Z</time>
      </trkpt>
      <trkpt lat="45.811073" lon="9.006789">
        <ele>465.114682</ele>
        <time>2026-05-02T07:40:59.588Z</time>
      </trkpt>
      <trkpt lat="45.811170" lon="9.006741">
        <ele>466.009225</ele>
        <time>2026-05-02T07:41:06.583Z</time>
      </trkpt>
      <trkpt lat="45.811261" lon="9.006707">
        <ele>466.829032</ele>
        <time>2026-05-02T07:41:15.588Z</time>
      </trkpt>
      <trkpt lat="45.811354" lon="9.006719">
        <ele>467.643086</ele>
        <time>2026-05-02T07:41:23.586Z</time>
      </trkpt>
      <trkpt lat="45.811411" lon="9.006824">
        <ele>468.451821</ele>
        <time>2026-05-02T07:41:31.592Z</time>
      </trkpt>
      <trkpt lat="45.811414" lon="9.006968">
        <ele>469.327256</ele>
        <time>2026-05-02T07:41:39.584Z</time>
      </trkpt>
      <trkpt lat="45.811433" lon="9.007107">
        <ele>470.188005</ele>
        <time>2026-05-02T07:41:46.583Z</time>
      </trkpt>
      <trkpt lat="45.811444" lon="9.007246">
        <ele>471.038091</ele>
        <time>2026-05-02T07:41:52.588Z</time>
      </trkpt>
      <trkpt lat="45.811441" lon="9.007375">
        <ele>471.825147</ele>
        <time>2026-05-02T07:41:57.588Z</time>
      </trkpt>
      <trkpt lat="45.811460" lon="9.007520">
        <ele>472.846708</ele>
        <time>2026-05-02T07:42:03.585Z</time>
      </trkpt>
      <trkpt lat="45.811505" lon="9.007648">
        <ele>473.839326</ele>
        <time>2026-05-02T07:42:10.582Z</time>
      </trkpt>
      <trkpt lat="45.811563" lon="9.007757">
        <ele>474.788820</ele>
        <time>2026-05-02T07:42:16.580Z</time>
      </trkpt>
      <trkpt lat="45.811627" lon="9.007879">
        <ele>475.846051</ele>
        <time>2026-05-02T07:42:22.586Z</time>
      </trkpt>
      <trkpt lat="45.811682" lon="9.008011">
        <ele>476.910861</ele>
        <time>2026-05-02T07:42:28.588Z</time>
      </trkpt>
      <trkpt lat="45.811725" lon="9.008124">
        <ele>477.802270</ele>
        <time>2026-05-02T07:42:33.584Z</time>
      </trkpt>
      <trkpt lat="45.811779" lon="9.008251">
        <ele>478.832309</ele>
        <time>2026-05-02T07:42:39.583Z</time>
      </trkpt>
      <trkpt lat="45.811831" lon="9.008372">
        <ele>479.816546</ele>
        <time>2026-05-02T07:42:45.581Z</time>
      </trkpt>
      <trkpt lat="45.811892" lon="9.008490">
        <ele>480.833749</ele>
        <time>2026-05-02T07:42:51.582Z</time>
      </trkpt>
      <trkpt lat="45.811966" lon="9.008580">
        <ele>481.797426</ele>
        <time>2026-05-02T07:42:58.583Z</time>
      </trkpt>
      <trkpt lat="45.812039" lon="9.008668">
        <ele>482.744580</ele>
        <time>2026-05-02T07:43:07.594Z</time>
      </trkpt>
      <trkpt lat="45.812101" lon="9.008776">
        <ele>483.713337</ele>
        <time>2026-05-02T07:43:17.585Z</time>
      </trkpt>
      <trkpt lat="45.812173" lon="9.008868">
        <ele>484.671099</ele>
        <time>2026-05-02T07:43:26.582Z</time>
      </trkpt>
      <trkpt lat="45.812243" lon="9.008960">
        <ele>485.614116</ele>
        <time>2026-05-02T07:43:35.581Z</time>
      </trkpt>
      <trkpt lat="45.812320" lon="9.009038">
        <ele>486.550451</ele>
        <time>2026-05-02T07:43:43.582Z</time>
      </trkpt>
      <trkpt lat="45.812395" lon="9.009132">
        <ele>487.539721</ele>
        <time>2026-05-02T07:43:52.583Z</time>
      </trkpt>
      <trkpt lat="45.812462" lon="9.009240">
        <ele>488.540785</ele>
        <time>2026-05-02T07:44:00.585Z</time>
      </trkpt>
      <trkpt lat="45.812527" lon="9.009345">
        <ele>489.513124</ele>
        <time>2026-05-02T07:44:08.579Z</time>
      </trkpt>
      <trkpt lat="45.812596" lon="9.009439">
        <ele>490.397457</ele>
        <time>2026-05-02T07:44:16.577Z</time>
      </trkpt>
      <trkpt lat="45.812664" lon="9.009532">
        <ele>491.258637</ele>
        <time>2026-05-02T07:44:23.583Z</time>
      </trkpt>
      <trkpt lat="45.812740" lon="9.009618">
        <ele>492.145926</ele>
        <time>2026-05-02T07:44:30.581Z</time>
      </trkpt>
      <trkpt lat="45.812822" lon="9.009707">
        <ele>493.088461</ele>
        <time>2026-05-02T07:44:39.579Z</time>
      </trkpt>
      <trkpt lat="45.812894" lon="9.009807">
        <ele>494.007066</ele>
        <time>2026-05-02T07:44:45.589Z</time>
      </trkpt>
      <trkpt lat="45.812955" lon="9.009906">
        <ele>494.851328</ele>
        <time>2026-05-02T07:44:50.578Z</time>
      </trkpt>
      <trkpt lat="45.813040" lon="9.009993">
        <ele>495.808458</ele>
        <time>2026-05-02T07:44:56.581Z</time>
      </trkpt>
      <trkpt lat="45.813124" lon="9.010074">
        <ele>496.736223</ele>
        <time>2026-05-02T07:45:02.580Z</time>
      </trkpt>
      <trkpt lat="45.813208" lon="9.010171">
        <ele>497.724661</ele>
        <time>2026-05-02T07:45:08.580Z</time>
      </trkpt>
      <trkpt lat="45.813287" lon="9.010246">
        <ele>498.593023</ele>
        <time>2026-05-02T07:45:14.581Z</time>
      </trkpt>
      <trkpt lat="45.813371" lon="9.010308">
        <ele>499.458952</ele>
        <time>2026-05-02T07:45:21.589Z</time>
      </trkpt>
      <trkpt lat="45.813459" lon="9.010379">
        <ele>500.384429</ele>
        <time>2026-05-02T07:45:28.584Z</time>
      </trkpt>
      <trkpt lat="45.813543" lon="9.010463">
        <ele>501.323019</ele>
        <time>2026-05-02T07:45:35.586Z</time>
      </trkpt>
      <trkpt lat="45.813618" lon="9.010540">
        <ele>502.168417</ele>
        <time>2026-05-02T07:45:41.585Z</time>
      </trkpt>
      <trkpt lat="45.813703" lon="9.010617">
        <ele>503.089907</ele>
        <time>2026-05-02T07:45:48.585Z</time>
      </trkpt>
      <trkpt lat="45.813785" lon="9.010689">
        <ele>503.971175</ele>
        <time>2026-05-02T07:45:55.583Z</time>
      </trkpt>
      <trkpt lat="45.813866" lon="9.010755">
        <ele>504.825069</ele>
        <time>2026-05-02T07:46:03.582Z</time>
      </trkpt>
      <trkpt lat="45.813939" lon="9.010833">
        <ele>505.659425</ele>
        <time>2026-05-02T07:46:11.582Z</time>
      </trkpt>
      <trkpt lat="45.814022" lon="9.010904">
        <ele>506.555141</ele>
        <time>2026-05-02T07:46:19.589Z</time>
      </trkpt>
      <trkpt lat="45.814106" lon="9.010981">
        <ele>507.492248</ele>
        <time>2026-05-02T07:46:27.588Z</time>
      </trkpt>
      <trkpt lat="45.814196" lon="9.011030">
        <ele>508.397215</ele>
        <time>2026-05-02T07:46:34.587Z</time>
      </trkpt>
      <trkpt lat="45.814285" lon="9.011076">
        <ele>509.286546</ele>
        <time>2026-05-02T07:46:42.586Z</time>
      </trkpt>
      <trkpt lat="45.814376" lon="9.011133">
        <ele>510.220018</ele>
        <time>2026-05-02T07:46:50.585Z</time>
      </trkpt>
      <trkpt lat="45.814459" lon="9.011183">
        <ele>511.066295</ele>
        <time>2026-05-02T07:46:57.578Z</time>
      </trkpt>
      <trkpt lat="45.814546" lon="9.011240">
        <ele>511.965430</ele>
        <time>2026-05-02T07:47:05.583Z</time>
      </trkpt>
      <trkpt lat="45.814628" lon="9.011295">
        <ele>512.816396</ele>
        <time>2026-05-02T07:47:13.582Z</time>
      </trkpt>
      <trkpt lat="45.814708" lon="9.011366">
        <ele>513.700738</ele>
        <time>2026-05-02T07:47:22.580Z</time>
      </trkpt>
      <trkpt lat="45.814781" lon="9.011454">
        <ele>514.597095</ele>
        <time>2026-05-02T07:47:30.580Z</time>
      </trkpt>
      <trkpt lat="45.814839" lon="9.011559">
        <ele>515.474963</ele>
        <time>2026-05-02T07:47:38.579Z</time>
      </trkpt>
      <trkpt lat="45.814897" lon="9.011670">
        <ele>516.383969</ele>
        <time>2026-05-02T07:47:47.580Z</time>
      </trkpt>
      <trkpt lat="45.814971" lon="9.011761">
        <ele>517.300212</ele>
        <time>2026-05-02T07:47:56.592Z</time>
      </trkpt>
      <trkpt lat="45.815057" lon="9.011822">
        <ele>518.202106</ele>
        <time>2026-05-02T07:48:05.585Z</time>
      </trkpt>
      <trkpt lat="45.815138" lon="9.011911">
        <ele>519.161239</ele>
        <time>2026-05-02T07:48:14.582Z</time>
      </trkpt>
      <trkpt lat="45.815218" lon="9.011978">
        <ele>520.032077</ele>
        <time>2026-05-02T07:48:21.582Z</time>
      </trkpt>
      <trkpt lat="45.815288" lon="9.012079">
        <ele>520.965361</ele>
        <time>2026-05-02T07:48:28.583Z</time>
      </trkpt>
      <trkpt lat="45.815349" lon="9.012181">
        <ele>521.846005</ele>
        <time>2026-05-02T07:48:34.588Z</time>
      </trkpt>
      <trkpt lat="45.815411" lon="9.012283">
        <ele>522.732799</ele>
        <time>2026-05-02T07:48:40.588Z</time>
      </trkpt>
      <trkpt lat="45.815486" lon="9.012388">
        <ele>523.074242</ele>
        <time>2026-05-02T07:48:46.584Z</time>
      </trkpt>
      <trkpt lat="45.815563" lon="9.012460">
        <ele>523.084049</ele>
        <time>2026-05-02T07:48:51.585Z</time>
      </trkpt>
      <trkpt lat="45.815636" lon="9.012552">
        <ele>523.094417</ele>
        <time>2026-05-02T07:48:56.586Z</time>
      </trkpt>
      <trkpt lat="45.815701" lon="9.012663">
        <ele>523.105199</ele>
        <time>2026-05-02T07:49:01.594Z</time>
      </trkpt>
      <trkpt lat="45.815758" lon="9.012791">
        <ele>523.116496</ele>
        <time>2026-05-02T07:49:06.588Z</time>
      </trkpt>
      <trkpt lat="45.815785" lon="9.012929">
        <ele>523.127156</ele>
        <time>2026-05-02T07:49:11.586Z</time>
      </trkpt>
      <trkpt lat="45.815791" lon="9.013063">
        <ele>523.137143</ele>
        <time>2026-05-02T07:49:16.584Z</time>
      </trkpt>
      <trkpt lat="45.815811" lon="9.013221">
        <ele>523.149086</ele>
        <time>2026-05-02T07:49:21.585Z</time>
      </trkpt>
      <trkpt lat="45.815825" lon="9.013351">
        <ele>523.158869</ele>
        <time>2026-05-02T07:49:26.586Z</time>
      </trkpt>
      <trkpt lat="45.815819" lon="9.013488">
        <ele>523.169078</ele>
        <time>2026-05-02T07:49:31.591Z</time>
      </trkpt>
      <trkpt lat="45.815810" lon="9.013634">
        <ele>523.179979</ele>
        <time>2026-05-02T07:49:35.588Z</time>
      </trkpt>
      <trkpt lat="45.815823" lon="9.013783">
        <ele>523.191146</ele>
        <time>2026-05-02T07:49:40.590Z</time>
      </trkpt>
      <trkpt lat="45.815852" lon="9.013919">
        <ele>523.201724</ele>
        <time>2026-05-02T07:49:44.588Z</time>
      </trkpt>
      <trkpt lat="45.815900" lon="9.014049">
        <ele>523.212665</ele>
        <time>2026-05-02T07:49:48.585Z</time>
      </trkpt>
      <trkpt lat="45.815954" lon="9.014163">
        <ele>523.222916</ele>
        <time>2026-05-02T07:49:52.590Z</time>
      </trkpt>
      <trkpt lat="45.816014" lon="9.014276">
        <ele>523.233481</ele>
        <time>2026-05-02T07:49:57.587Z</time>
      </trkpt>
      <trkpt lat="45.816084" lon="9.014383">
        <ele>523.244396</ele>
        <time>2026-05-02T07:50:01.594Z</time>
      </trkpt>
      <trkpt lat="45.816151" lon="9.014506">
        <ele>523.256006</ele>
        <time>2026-05-02T07:50:05.592Z</time>
      </trkpt>
      <trkpt lat="45.816239" lon="9.014587">
        <ele>523.571393</ele>
        <time>2026-05-02T07:50:10.585Z</time>
      </trkpt>
      <trkpt lat="45.816340" lon="9.014668">
        <ele>524.031936</ele>
        <time>2026-05-02T07:50:15.587Z</time>
      </trkpt>
      <trkpt lat="45.816443" lon="9.014739">
        <ele>524.486762</ele>
        <time>2026-05-02T07:50:19.592Z</time>
      </trkpt>
      <trkpt lat="45.816526" lon="9.014805">
        <ele>524.864466</ele>
        <time>2026-05-02T07:50:23.585Z</time>
      </trkpt>
      <trkpt lat="45.816605" lon="9.014875">
        <ele>525.234035</ele>
        <time>2026-05-02T07:50:27.591Z</time>
      </trkpt>
      <trkpt lat="45.816686" lon="9.014948">
        <ele>525.614761</ele>
        <time>2026-05-02T07:50:31.589Z</time>
      </trkpt>
      <trkpt lat="45.816778" lon="9.015007">
        <ele>526.015858</ele>
        <time>2026-05-02T07:50:35.584Z</time>
      </trkpt>
      <trkpt lat="45.816869" lon="9.015082">
        <ele>526.433564</ele>
        <time>2026-05-02T07:50:40.589Z</time>
      </trkpt>
      <trkpt lat="45.816964" lon="9.015133">
        <ele>526.837289</ele>
        <time>2026-05-02T07:50:45.589Z</time>
      </trkpt>
      <trkpt lat="45.817038" lon="9.015208">
        <ele>527.197900</ele>
        <time>2026-05-02T07:50:49.588Z</time>
      </trkpt>
      <trkpt lat="45.817112" lon="9.015285">
        <ele>527.561740</ele>
        <time>2026-05-02T07:50:53.583Z</time>
      </trkpt>
      <trkpt lat="45.817193" lon="9.015357">
        <ele>527.940996</ele>
        <time>2026-05-02T07:50:58.581Z</time>
      </trkpt>
      <trkpt lat="45.817272" lon="9.015429">
        <ele>528.313509</ele>
        <time>2026-05-02T07:51:03.587Z</time>
      </trkpt>
      <trkpt lat="45.817368" lon="9.015482">
        <ele>528.722924</ele>
        <time>2026-05-02T07:51:08.593Z</time>
      </trkpt>
      <trkpt lat="45.817457" lon="9.015514">
        <ele>529.088120</ele>
        <time>2026-05-02T07:51:12.585Z</time>
      </trkpt>
      <trkpt lat="45.817524" lon="9.015638">
        <ele>529.523366</ele>
        <time>2026-05-02T07:51:17.588Z</time>
      </trkpt>
      <trkpt lat="45.817539" lon="9.015786">
        <ele>529.938241</ele>
        <time>2026-05-02T07:51:22.587Z</time>
      </trkpt>
      <trkpt lat="45.817555" lon="9.015922">
        <ele>530.320846</ele>
        <time>2026-05-02T07:51:27.584Z</time>
      </trkpt>
      <trkpt lat="45.817586" lon="9.016047">
        <ele>530.768946</ele>
        <time>2026-05-02T07:51:32.586Z</time>
      </trkpt>
      <trkpt lat="45.817637" lon="9.016176">
        <ele>531.301866</ele>
        <time>2026-05-02T07:51:38.585Z</time>
      </trkpt>
      <trkpt lat="45.817676" lon="9.016303">
        <ele>531.800548</ele>
        <time>2026-05-02T07:51:44.587Z</time>
      </trkpt>
      <trkpt lat="45.817714" lon="9.016423">
        <ele>532.274165</ele>
        <time>2026-05-02T07:51:51.588Z</time>
      </trkpt>
      <trkpt lat="45.817747" lon="9.016556">
        <ele>532.781454</ele>
        <time>2026-05-02T07:51:58.587Z</time>
      </trkpt>
      <trkpt lat="45.817748" lon="9.016694">
        <ele>533.277354</ele>
        <time>2026-05-02T07:52:06.593Z</time>
      </trkpt>
      <trkpt lat="45.817773" lon="9.016823">
        <ele>533.758474</ele>
        <time>2026-05-02T07:52:13.585Z</time>
      </trkpt>
      <trkpt lat="45.817789" lon="9.016951">
        <ele>534.225753</ele>
        <time>2026-05-02T07:52:20.591Z</time>
      </trkpt>
      <trkpt lat="45.817835" lon="9.017063">
        <ele>534.692884</ele>
        <time>2026-05-02T07:52:27.587Z</time>
      </trkpt>
      <trkpt lat="45.817872" lon="9.017202">
        <ele>535.227539</ele>
        <time>2026-05-02T07:52:35.598Z</time>
      </trkpt>
      <trkpt lat="45.817915" lon="9.017323">
        <ele>535.715585</ele>
        <time>2026-05-02T07:52:49.594Z</time>
      </trkpt>
      <trkpt lat="45.817932" lon="9.017517">
        <ele>536.418168</ele>
        <time>2026-05-02T07:53:28.582Z</time>
      </trkpt>
      <trkpt lat="45.817952" lon="9.017644">
        <ele>536.886018</ele>
        <time>2026-05-02T07:53:33.589Z</time>
      </trkpt>
      <trkpt lat="45.817993" lon="9.017788">
        <ele>537.444962</ele>
        <time>2026-05-02T07:53:38.584Z</time>
      </trkpt>
      <trkpt lat="45.818018" lon="9.017913">
        <ele>537.912248</ele>
        <time>2026-05-02T07:53:42.582Z</time>
      </trkpt>
      <trkpt lat="45.818044" lon="9.018042">
        <ele>538.394773</ele>
        <time>2026-05-02T07:53:50.582Z</time>
      </trkpt>
      <trkpt lat="45.818137" lon="9.018079">
        <ele>538.892351</ele>
        <time>2026-05-02T07:54:06.592Z</time>
      </trkpt>
      <trkpt lat="45.818076" lon="9.017952">
        <ele>539.446572</ele>
        <time>2026-05-02T07:54:24.576Z</time>
      </trkpt>
      <trkpt lat="45.818034" lon="9.017835">
        <ele>539.697841</ele>
        <time>2026-05-02T07:54:30.581Z</time>
      </trkpt>
      <trkpt lat="45.818015" lon="9.017705">
        <ele>539.711613</ele>
        <time>2026-05-02T07:54:35.583Z</time>
      </trkpt>
      <trkpt lat="45.817987" lon="9.017567">
        <ele>539.726516</ele>
        <time>2026-05-02T07:54:42.594Z</time>
      </trkpt>
      <trkpt lat="45.817979" lon="9.017420">
        <ele>539.741804</ele>
        <time>2026-05-02T07:54:49.577Z</time>
      </trkpt>
      <trkpt lat="45.818019" lon="9.017582">
        <ele>539.759624</ele>
        <time>2026-05-02T08:06:38.588Z</time>
      </trkpt>
      <trkpt lat="45.818024" lon="9.017723">
        <ele>539.774262</ele>
        <time>2026-05-02T08:06:44.575Z</time>
      </trkpt>
      <trkpt lat="45.818034" lon="9.017864">
        <ele>539.788958</ele>
        <time>2026-05-02T08:06:50.581Z</time>
      </trkpt>
      <trkpt lat="45.818104" lon="9.017987">
        <ele>539.805423</ele>
        <time>2026-05-02T08:06:55.583Z</time>
      </trkpt>
      <trkpt lat="45.818203" lon="9.018041">
        <ele>539.821179</ele>
        <time>2026-05-02T08:07:00.582Z</time>
      </trkpt>
      <trkpt lat="45.818111" lon="9.018081">
        <ele>539.835481</ele>
        <time>2026-05-02T08:07:14.587Z</time>
      </trkpt>
      <trkpt lat="45.818014" lon="9.018058">
        <ele>539.850108</ele>
        <time>2026-05-02T08:07:26.578Z</time>
      </trkpt>
      <trkpt lat="45.817926" lon="9.018116">
        <ele>539.864515</ele>
        <time>2026-05-02T08:07:36.583Z</time>
      </trkpt>
      <trkpt lat="45.817825" lon="9.018086">
        <ele>539.879859</ele>
        <time>2026-05-02T08:07:43.577Z</time>
      </trkpt>
      <trkpt lat="45.817732" lon="9.018035">
        <ele>539.894671</ele>
        <time>2026-05-02T08:07:50.590Z</time>
      </trkpt>
      <trkpt lat="45.817662" lon="9.017936">
        <ele>539.909294</ele>
        <time>2026-05-02T08:07:55.581Z</time>
      </trkpt>
      <trkpt lat="45.817603" lon="9.017812">
        <ele>539.924862</ele>
        <time>2026-05-02T08:08:01.583Z</time>
      </trkpt>
      <trkpt lat="45.817562" lon="9.017692">
        <ele>539.938719</ele>
        <time>2026-05-02T08:08:07.579Z</time>
      </trkpt>
      <trkpt lat="45.817492" lon="9.017587">
        <ele>539.953785</ele>
        <time>2026-05-02T08:08:14.595Z</time>
      </trkpt>
      <trkpt lat="45.817419" lon="9.017496">
        <ele>539.692361</ele>
        <time>2026-05-02T08:08:20.582Z</time>
      </trkpt>
      <trkpt lat="45.817345" lon="9.017417">
        <ele>539.300317</ele>
        <time>2026-05-02T08:08:26.583Z</time>
      </trkpt>
      <trkpt lat="45.817248" lon="9.017373">
        <ele>538.867911</ele>
        <time>2026-05-02T08:08:33.591Z</time>
      </trkpt>
      <trkpt lat="45.817092" lon="9.017325">
        <ele>538.189767</ele>
        <time>2026-05-02T08:08:56.582Z</time>
      </trkpt>
      <trkpt lat="45.817003" lon="9.017366">
        <ele>537.792458</ele>
        <time>2026-05-02T08:09:02.581Z</time>
      </trkpt>
      <trkpt lat="45.816909" lon="9.017366">
        <ele>537.392916</ele>
        <time>2026-05-02T08:09:08.584Z</time>
      </trkpt>
      <trkpt lat="45.817075" lon="9.017333">
        <ele>536.680602</ele>
        <time>2026-05-02T08:10:49.581Z</time>
      </trkpt>
      <trkpt lat="45.817178" lon="9.017321">
        <ele>536.241366</ele>
        <time>2026-05-02T08:10:55.585Z</time>
      </trkpt>
      <trkpt lat="45.817156" lon="9.017121">
        <ele>535.641562</ele>
        <time>2026-05-02T08:11:27.583Z</time>
      </trkpt>
      <trkpt lat="45.817060" lon="9.017059">
        <ele>535.194089</ele>
        <time>2026-05-02T08:11:32.588Z</time>
      </trkpt>
      <trkpt lat="45.816975" lon="9.016977">
        <ele>534.758733</ele>
        <time>2026-05-02T08:11:38.581Z</time>
      </trkpt>
      <trkpt lat="45.816904" lon="9.016884">
        <ele>534.350110</ele>
        <time>2026-05-02T08:11:45.588Z</time>
      </trkpt>
      <trkpt lat="45.816832" lon="9.016797">
        <ele>533.950013</ele>
        <time>2026-05-02T08:11:50.582Z</time>
      </trkpt>
      <trkpt lat="45.816756" lon="9.016712">
        <ele>533.540434</ele>
        <time>2026-05-02T08:11:56.582Z</time>
      </trkpt>
      <trkpt lat="45.816677" lon="9.016635">
        <ele>533.134500</ele>
        <time>2026-05-02T08:12:08.581Z</time>
      </trkpt>
      <trkpt lat="45.816604" lon="9.016540">
        <ele>532.715602</ele>
        <time>2026-05-02T08:12:26.581Z</time>
      </trkpt>
      <trkpt lat="45.816544" lon="9.016425">
        <ele>532.281478</ele>
        <time>2026-05-02T08:12:33.583Z</time>
      </trkpt>
      <trkpt lat="45.816486" lon="9.016307">
        <ele>531.699502</ele>
        <time>2026-05-02T08:12:40.588Z</time>
      </trkpt>
      <trkpt lat="45.816438" lon="9.016186">
        <ele>531.138347</ele>
        <time>2026-05-02T08:12:46.580Z</time>
      </trkpt>
      <trkpt lat="45.816396" lon="9.016053">
        <ele>530.549831</ele>
        <time>2026-05-02T08:12:53.591Z</time>
      </trkpt>
      <trkpt lat="45.816340" lon="9.015930">
        <ele>529.957675</ele>
        <time>2026-05-02T08:13:01.589Z</time>
      </trkpt>
      <trkpt lat="45.816277" lon="9.015813">
        <ele>529.361761</ele>
        <time>2026-05-02T08:13:08.584Z</time>
      </trkpt>
      <trkpt lat="45.816194" lon="9.015730">
        <ele>528.776697</ele>
        <time>2026-05-02T08:13:15.588Z</time>
      </trkpt>
      <trkpt lat="45.816141" lon="9.015616">
        <ele>528.224372</ele>
        <time>2026-05-02T08:13:23.586Z</time>
      </trkpt>
      <trkpt lat="45.816076" lon="9.015498">
        <ele>527.618159</ele>
        <time>2026-05-02T08:13:30.585Z</time>
      </trkpt>
      <trkpt lat="45.816017" lon="9.015400">
        <ele>527.096207</ele>
        <time>2026-05-02T08:13:36.591Z</time>
      </trkpt>
      <trkpt lat="45.815939" lon="9.015319">
        <ele>526.539384</ele>
        <time>2026-05-02T08:13:45.582Z</time>
      </trkpt>
      <trkpt lat="45.815790" lon="9.015107">
        <ele>525.325878</ele>
        <time>2026-05-02T08:14:14.590Z</time>
      </trkpt>
      <trkpt lat="45.815708" lon="9.015026">
        <ele>524.750156</ele>
        <time>2026-05-02T08:14:20.579Z</time>
      </trkpt>
      <trkpt lat="45.815638" lon="9.014935">
        <ele>524.203897</ele>
        <time>2026-05-02T08:14:26.585Z</time>
      </trkpt>
      <trkpt lat="45.815596" lon="9.014814">
        <ele>523.659064</ele>
        <time>2026-05-02T08:14:33.591Z</time>
      </trkpt>
      <trkpt lat="45.815542" lon="9.014700">
        <ele>523.103505</ele>
        <time>2026-05-02T08:14:41.582Z</time>
      </trkpt>
      <trkpt lat="45.815470" lon="9.014596">
        <ele>522.512675</ele>
        <time>2026-05-02T08:14:47.584Z</time>
      </trkpt>
      <trkpt lat="45.815401" lon="9.014502">
        <ele>521.962432</ele>
        <time>2026-05-02T08:14:52.581Z</time>
      </trkpt>
      <trkpt lat="45.815361" lon="9.014377">
        <ele>520.966425</ele>
        <time>2026-05-02T08:14:56.582Z</time>
      </trkpt>
      <trkpt lat="45.815306" lon="9.014269">
        <ele>519.955131</ele>
        <time>2026-05-02T08:15:00.596Z</time>
      </trkpt>
      <trkpt lat="45.815278" lon="9.014131">
        <ele>518.868453</ele>
        <time>2026-05-02T08:15:06.582Z</time>
      </trkpt>
      <trkpt lat="45.815225" lon="9.014019">
        <ele>517.844929</ele>
        <time>2026-05-02T08:15:16.581Z</time>
      </trkpt>
      <trkpt lat="45.815146" lon="9.013930">
        <ele>516.755343</ele>
        <time>2026-05-02T08:15:21.585Z</time>
      </trkpt>
      <trkpt lat="45.815083" lon="9.013829">
        <ele>515.730563</ele>
        <time>2026-05-02T08:15:29.595Z</time>
      </trkpt>
      <trkpt lat="45.815009" lon="9.013754">
        <ele>514.747745</ele>
        <time>2026-05-02T08:15:37.583Z</time>
      </trkpt>
      <trkpt lat="45.814927" lon="9.013668">
        <ele>513.645916</ele>
        <time>2026-05-02T08:15:44.584Z</time>
      </trkpt>
      <trkpt lat="45.814786" lon="9.013486">
        <ele>511.588494</ele>
        <time>2026-05-02T08:16:10.588Z</time>
      </trkpt>
      <trkpt lat="45.814693" lon="9.013410">
        <ele>510.427482</ele>
        <time>2026-05-02T08:16:18.585Z</time>
      </trkpt>
      <trkpt lat="45.814609" lon="9.013334">
        <ele>509.350220</ele>
        <time>2026-05-02T08:16:33.576Z</time>
      </trkpt>
      <trkpt lat="45.814539" lon="9.013233">
        <ele>508.273308</ele>
        <time>2026-05-02T08:16:40.583Z</time>
      </trkpt>
      <trkpt lat="45.814461" lon="9.013140">
        <ele>507.173149</ele>
        <time>2026-05-02T08:16:48.583Z</time>
      </trkpt>
      <trkpt lat="45.814387" lon="9.013043">
        <ele>506.085836</ele>
        <time>2026-05-02T08:16:54.581Z</time>
      </trkpt>
      <trkpt lat="45.814309" lon="9.012953">
        <ele>505.000033</ele>
        <time>2026-05-02T08:17:00.587Z</time>
      </trkpt>
      <trkpt lat="45.814246" lon="9.012859">
        <ele>504.014050</ele>
        <time>2026-05-02T08:17:07.587Z</time>
      </trkpt>
      <trkpt lat="45.814177" lon="9.012765">
        <ele>502.981887</ele>
        <time>2026-05-02T08:17:17.585Z</time>
      </trkpt>
      <trkpt lat="45.814114" lon="9.012655">
        <ele>501.883332</ele>
        <time>2026-05-02T08:17:26.583Z</time>
      </trkpt>
      <trkpt lat="45.814037" lon="9.012585">
        <ele>500.850389</ele>
        <time>2026-05-02T08:17:33.594Z</time>
      </trkpt>
      <trkpt lat="45.813861" lon="9.012497">
        <ele>498.738387</ele>
        <time>2026-05-02T08:18:06.592Z</time>
      </trkpt>
      <trkpt lat="45.813771" lon="9.012427">
        <ele>497.578325</ele>
        <time>2026-05-02T08:18:12.594Z</time>
      </trkpt>
      <trkpt lat="45.813693" lon="9.012359">
        <ele>496.544080</ele>
        <time>2026-05-02T08:18:17.597Z</time>
      </trkpt>
      <trkpt lat="45.813606" lon="9.012282">
        <ele>495.385741</ele>
        <time>2026-05-02T08:18:22.590Z</time>
      </trkpt>
      <trkpt lat="45.813529" lon="9.012215">
        <ele>494.365281</ele>
        <time>2026-05-02T08:18:31.587Z</time>
      </trkpt>
      <trkpt lat="45.813434" lon="9.012161">
        <ele>493.207369</ele>
        <time>2026-05-02T08:18:41.590Z</time>
      </trkpt>
      <trkpt lat="45.813344" lon="9.012107">
        <ele>492.101934</ele>
        <time>2026-05-02T08:18:48.586Z</time>
      </trkpt>
      <trkpt lat="45.813258" lon="9.012047">
        <ele>491.018303</ele>
        <time>2026-05-02T08:18:54.584Z</time>
      </trkpt>
      <trkpt lat="45.813163" lon="9.012005">
        <ele>489.891849</ele>
        <time>2026-05-02T08:19:01.588Z</time>
      </trkpt>
      <trkpt lat="45.813060" lon="9.011975">
        <ele>488.700884</ele>
        <time>2026-05-02T08:19:07.587Z</time>
      </trkpt>
      <trkpt lat="45.812967" lon="9.011938">
        <ele>487.607276</ele>
        <time>2026-05-02T08:19:13.587Z</time>
      </trkpt>
      <trkpt lat="45.812872" lon="9.011882">
        <ele>486.443451</ele>
        <time>2026-05-02T08:19:20.589Z</time>
      </trkpt>
      <trkpt lat="45.812767" lon="9.011868">
        <ele>485.248504</ele>
        <time>2026-05-02T08:19:24.586Z</time>
      </trkpt>
      <trkpt lat="45.812651" lon="9.011870">
        <ele>483.933942</ele>
        <time>2026-05-02T08:19:27.589Z</time>
      </trkpt>
      <trkpt lat="45.812567" lon="9.011923">
        <ele>482.894105</ele>
        <time>2026-05-02T08:19:30.593Z</time>
      </trkpt>
      <trkpt lat="45.812500" lon="9.012035">
        <ele>481.780517</ele>
        <time>2026-05-02T08:19:33.581Z</time>
      </trkpt>
      <trkpt lat="45.812442" lon="9.012159">
        <ele>480.812347</ele>
        <time>2026-05-02T08:19:36.581Z</time>
      </trkpt>
      <trkpt lat="45.812383" lon="9.012298">
        <ele>479.757217</ele>
        <time>2026-05-02T08:19:40.587Z</time>
      </trkpt>
      <trkpt lat="45.812302" lon="9.012407">
        <ele>478.724235</ele>
        <time>2026-05-02T08:19:45.584Z</time>
      </trkpt>
      <trkpt lat="45.812271" lon="9.012575">
        <ele>477.597516</ele>
        <time>2026-05-02T08:19:49.584Z</time>
      </trkpt>
      <trkpt lat="45.812250" lon="9.012735">
        <ele>476.541954</ele>
        <time>2026-05-02T08:19:52.586Z</time>
      </trkpt>
      <trkpt lat="45.812251" lon="9.012877">
        <ele>475.621276</ele>
        <time>2026-05-02T08:19:55.585Z</time>
      </trkpt>
      <trkpt lat="45.812240" lon="9.013051">
        <ele>474.488547</ele>
        <time>2026-05-02T08:19:58.586Z</time>
      </trkpt>
      <trkpt lat="45.812228" lon="9.013180">
        <ele>473.644783</ele>
        <time>2026-05-02T08:20:00.588Z</time>
      </trkpt>
      <trkpt lat="45.812232" lon="9.013327">
        <ele>472.691009</ele>
        <time>2026-05-02T08:20:02.586Z</time>
      </trkpt>
      <trkpt lat="45.812239" lon="9.013491">
        <ele>471.625753</ele>
        <time>2026-05-02T08:20:04.587Z</time>
      </trkpt>
      <trkpt lat="45.812237" lon="9.013630">
        <ele>470.724379</ele>
        <time>2026-05-02T08:20:06.591Z</time>
      </trkpt>
      <trkpt lat="45.812144" lon="9.013729">
        <ele>469.647217</ele>
        <time>2026-05-02T08:20:09.585Z</time>
      </trkpt>
      <trkpt lat="45.812054" lon="9.013761">
        <ele>468.784748</ele>
        <time>2026-05-02T08:20:11.591Z</time>
      </trkpt>
      <trkpt lat="45.811934" lon="9.013783">
        <ele>467.659481</ele>
        <time>2026-05-02T08:20:14.585Z</time>
      </trkpt>
      <trkpt lat="45.811831" lon="9.013821">
        <ele>466.670247</ele>
        <time>2026-05-02T08:20:18.589Z</time>
      </trkpt>
      <trkpt lat="45.811805" lon="9.013974">
        <ele>465.649236</ele>
        <time>2026-05-02T08:20:24.584Z</time>
      </trkpt>
      <trkpt lat="45.811828" lon="9.014121">
        <ele>465.373191</ele>
        <time>2026-05-02T08:20:28.593Z</time>
      </trkpt>
      <trkpt lat="45.811785" lon="9.014261">
        <ele>465.508282</ele>
        <time>2026-05-02T08:20:32.586Z</time>
      </trkpt>
      <trkpt lat="45.811796" lon="9.014411">
        <ele>465.641464</ele>
        <time>2026-05-02T08:20:35.588Z</time>
      </trkpt>
      <trkpt lat="45.811821" lon="9.014563">
        <ele>465.779367</ele>
        <time>2026-05-02T08:20:38.578Z</time>
      </trkpt>
      <trkpt lat="45.811843" lon="9.014706">
        <ele>465.908676</ele>
        <time>2026-05-02T08:20:41.579Z</time>
      </trkpt>
      <trkpt lat="45.811863" lon="9.014864">
        <ele>466.050472</ele>
        <time>2026-05-02T08:20:44.589Z</time>
      </trkpt>
      <trkpt lat="45.811885" lon="9.015009">
        <ele>466.181506</ele>
        <time>2026-05-02T08:20:47.581Z</time>
      </trkpt>
      <trkpt lat="45.811906" lon="9.015162">
        <ele>466.319200</ele>
        <time>2026-05-02T08:20:50.580Z</time>
      </trkpt>
      <trkpt lat="45.811927" lon="9.015322">
        <ele>466.462964</ele>
        <time>2026-05-02T08:20:53.584Z</time>
      </trkpt>
      <trkpt lat="45.811949" lon="9.015480">
        <ele>466.605235</ele>
        <time>2026-05-02T08:20:56.585Z</time>
      </trkpt>
      <trkpt lat="45.811973" lon="9.015634">
        <ele>466.744574</ele>
        <time>2026-05-02T08:20:59.585Z</time>
      </trkpt>
      <trkpt lat="45.811991" lon="9.015778">
        <ele>466.873755</ele>
        <time>2026-05-02T08:21:02.585Z</time>
      </trkpt>
      <trkpt lat="45.812010" lon="9.015922">
        <ele>467.003166</ele>
        <time>2026-05-02T08:21:05.584Z</time>
      </trkpt>
      <trkpt lat="45.812021" lon="9.016059">
        <ele>467.124937</ele>
        <time>2026-05-02T08:21:08.583Z</time>
      </trkpt>
      <trkpt lat="45.812040" lon="9.016229">
        <ele>467.276965</ele>
        <time>2026-05-02T08:21:12.584Z</time>
      </trkpt>
      <trkpt lat="45.812048" lon="9.016373">
        <ele>467.404520</ele>
        <time>2026-05-02T08:21:15.582Z</time>
      </trkpt>
      <trkpt lat="45.812053" lon="9.016526">
        <ele>467.539768</ele>
        <time>2026-05-02T08:21:18.582Z</time>
      </trkpt>
      <trkpt lat="45.812061" lon="9.016679">
        <ele>467.823220</ele>
        <time>2026-05-02T08:21:21.591Z</time>
      </trkpt>
      <trkpt lat="45.812069" lon="9.016823">
        <ele>468.126405</ele>
        <time>2026-05-02T08:21:24.579Z</time>
      </trkpt>
      <trkpt lat="45.812077" lon="9.016972">
        <ele>468.440052</ele>
        <time>2026-05-02T08:21:27.584Z</time>
      </trkpt>
      <trkpt lat="45.812085" lon="9.017118">
        <ele>468.747421</ele>
        <time>2026-05-02T08:21:30.579Z</time>
      </trkpt>
      <trkpt lat="45.812091" lon="9.017265">
        <ele>469.056472</ele>
        <time>2026-05-02T08:21:33.588Z</time>
      </trkpt>
      <trkpt lat="45.812098" lon="9.017413">
        <ele>469.367808</ele>
        <time>2026-05-02T08:21:36.580Z</time>
      </trkpt>
      <trkpt lat="45.812106" lon="9.017554">
        <ele>469.664717</ele>
        <time>2026-05-02T08:21:39.579Z</time>
      </trkpt>
      <trkpt lat="45.812114" lon="9.017697">
        <ele>469.965809</ele>
        <time>2026-05-02T08:21:42.585Z</time>
      </trkpt>
      <trkpt lat="45.812117" lon="9.017838">
        <ele>470.261877</ele>
        <time>2026-05-02T08:21:45.583Z</time>
      </trkpt>
      <trkpt lat="45.812127" lon="9.018007">
        <ele>470.617849</ele>
        <time>2026-05-02T08:21:49.577Z</time>
      </trkpt>
      <trkpt lat="45.812124" lon="9.018159">
        <ele>470.936993</ele>
        <time>2026-05-02T08:21:53.585Z</time>
      </trkpt>
      <trkpt lat="45.812148" lon="9.018306">
        <ele>471.253866</ele>
        <time>2026-05-02T08:21:58.584Z</time>
      </trkpt>
      <trkpt lat="45.812195" lon="9.018417">
        <ele>471.526450</ele>
        <time>2026-05-02T08:22:03.585Z</time>
      </trkpt>
      <trkpt lat="45.812186" lon="9.018548">
        <ele>471.802724</ele>
        <time>2026-05-02T08:22:08.582Z</time>
      </trkpt>
      <trkpt lat="45.812238" lon="9.018406">
        <ele>472.139380</ele>
        <time>2026-05-02T08:22:38.581Z</time>
      </trkpt>
      <trkpt lat="45.812175" lon="9.018630">
        <ele>472.646339</ele>
        <time>2026-05-02T08:23:12.582Z</time>
      </trkpt>
      <trkpt lat="45.812175" lon="9.018772">
        <ele>472.944368</ele>
        <time>2026-05-02T08:23:15.583Z</time>
      </trkpt>
      <trkpt lat="45.812185" lon="9.018917">
        <ele>473.259740</ele>
        <time>2026-05-02T08:23:18.596Z</time>
      </trkpt>
      <trkpt lat="45.812195" lon="9.019062">
        <ele>473.576524</ele>
        <time>2026-05-02T08:23:21.587Z</time>
      </trkpt>
      <trkpt lat="45.812204" lon="9.019205">
        <ele>473.888685</ele>
        <time>2026-05-02T08:23:24.587Z</time>
      </trkpt>
      <trkpt lat="45.812211" lon="9.019351">
        <ele>474.206853</ele>
        <time>2026-05-02T08:23:27.579Z</time>
      </trkpt>
      <trkpt lat="45.812216" lon="9.019499">
        <ele>474.528998</ele>
        <time>2026-05-02T08:23:30.580Z</time>
      </trkpt>
      <trkpt lat="45.812223" lon="9.019642">
        <ele>474.840660</ele>
        <time>2026-05-02T08:23:33.591Z</time>
      </trkpt>
      <trkpt lat="45.812231" lon="9.019790">
        <ele>475.163392</ele>
        <time>2026-05-02T08:23:36.581Z</time>
      </trkpt>
      <trkpt lat="45.812241" lon="9.019942">
        <ele>475.495324</ele>
        <time>2026-05-02T08:23:39.586Z</time>
      </trkpt>
      <trkpt lat="45.812251" lon="9.020099">
        <ele>475.838080</ele>
        <time>2026-05-02T08:23:42.587Z</time>
      </trkpt>
      <trkpt lat="45.812262" lon="9.020256">
        <ele>476.181133</ele>
        <time>2026-05-02T08:23:45.584Z</time>
      </trkpt>
      <trkpt lat="45.812272" lon="9.020414">
        <ele>476.526054</ele>
        <time>2026-05-02T08:23:48.585Z</time>
      </trkpt>
      <trkpt lat="45.812283" lon="9.020568">
        <ele>476.862618</ele>
        <time>2026-05-02T08:23:51.588Z</time>
      </trkpt>
      <trkpt lat="45.812291" lon="9.020706">
        <ele>477.163679</ele>
        <time>2026-05-02T08:23:54.585Z</time>
      </trkpt>
      <trkpt lat="45.812304" lon="9.020845">
        <ele>477.468587</ele>
        <time>2026-05-02T08:23:57.588Z</time>
      </trkpt>
      <trkpt lat="45.812310" lon="9.020990">
        <ele>477.784386</ele>
        <time>2026-05-02T08:24:00.585Z</time>
      </trkpt>
      <trkpt lat="45.812319" lon="9.021138">
        <ele>478.107374</ele>
        <time>2026-05-02T08:24:03.584Z</time>
      </trkpt>
      <trkpt lat="45.812328" lon="9.021288">
        <ele>478.434694</ele>
        <time>2026-05-02T08:24:06.583Z</time>
      </trkpt>
      <trkpt lat="45.812336" lon="9.021442">
        <ele>478.600635</ele>
        <time>2026-05-02T08:24:09.583Z</time>
      </trkpt>
      <trkpt lat="45.812348" lon="9.021588">
        <ele>478.612680</ele>
        <time>2026-05-02T08:24:12.582Z</time>
      </trkpt>
      <trkpt lat="45.812371" lon="9.021726">
        <ele>478.624307</ele>
        <time>2026-05-02T08:24:15.582Z</time>
      </trkpt>
      <trkpt lat="45.812404" lon="9.021870">
        <ele>478.636727</ele>
        <time>2026-05-02T08:24:18.587Z</time>
      </trkpt>
      <trkpt lat="45.812448" lon="9.022001">
        <ele>478.648642</ele>
        <time>2026-05-02T08:24:21.586Z</time>
      </trkpt>
      <trkpt lat="45.812481" lon="9.022127">
        <ele>478.659671</ele>
        <time>2026-05-02T08:24:24.583Z</time>
      </trkpt>
      <trkpt lat="45.812519" lon="9.022263">
        <ele>478.671676</ele>
        <time>2026-05-02T08:24:27.580Z</time>
      </trkpt>
      <trkpt lat="45.812572" lon="9.022423">
        <ele>478.686191</ele>
        <time>2026-05-02T08:24:30.586Z</time>
      </trkpt>
      <trkpt lat="45.812620" lon="9.022599">
        <ele>478.701677</ele>
        <time>2026-05-02T08:24:33.586Z</time>
      </trkpt>
      <trkpt lat="45.812666" lon="9.022781">
        <ele>478.717540</ele>
        <time>2026-05-02T08:24:36.583Z</time>
      </trkpt>
      <trkpt lat="45.812701" lon="9.022904">
        <ele>478.728425</ele>
        <time>2026-05-02T08:24:38.579Z</time>
      </trkpt>
      <trkpt lat="45.812738" lon="9.023027">
        <ele>478.739402</ele>
        <time>2026-05-02T08:24:40.585Z</time>
      </trkpt>
      <trkpt lat="45.812772" lon="9.023153">
        <ele>478.750473</ele>
        <time>2026-05-02T08:24:42.583Z</time>
      </trkpt>
      <trkpt lat="45.812808" lon="9.023276">
        <ele>478.761404</ele>
        <time>2026-05-02T08:24:44.587Z</time>
      </trkpt>
      <trkpt lat="45.812858" lon="9.023441">
        <ele>478.776146</ele>
        <time>2026-05-02T08:24:47.582Z</time>
      </trkpt>
      <trkpt lat="45.812904" lon="9.023607">
        <ele>478.790783</ele>
        <time>2026-05-02T08:24:50.582Z</time>
      </trkpt>
      <trkpt lat="45.812961" lon="9.023767">
        <ele>478.801617</ele>
        <time>2026-05-02T08:24:53.581Z</time>
      </trkpt>
      <trkpt lat="45.813008" lon="9.023883">
        <ele>478.282399</ele>
        <time>2026-05-02T08:24:55.581Z</time>
      </trkpt>
      <trkpt lat="45.813068" lon="9.024000">
        <ele>477.720302</ele>
        <time>2026-05-02T08:24:57.580Z</time>
      </trkpt>
      <trkpt lat="45.813148" lon="9.024108">
        <ele>477.110437</ele>
        <time>2026-05-02T08:24:59.581Z</time>
      </trkpt>
      <trkpt lat="45.813246" lon="9.024210">
        <ele>476.438257</ele>
        <time>2026-05-02T08:25:01.579Z</time>
      </trkpt>
      <trkpt lat="45.813363" lon="9.024308">
        <ele>475.686085</ele>
        <time>2026-05-02T08:25:03.580Z</time>
      </trkpt>
      <trkpt lat="45.813489" lon="9.024417">
        <ele>474.869220</ele>
        <time>2026-05-02T08:25:05.582Z</time>
      </trkpt>
      <trkpt lat="45.813629" lon="9.024536">
        <ele>473.965783</ele>
        <time>2026-05-02T08:25:07.578Z</time>
      </trkpt>
      <trkpt lat="45.813770" lon="9.024653">
        <ele>473.061466</ele>
        <time>2026-05-02T08:25:09.581Z</time>
      </trkpt>
      <trkpt lat="45.813909" lon="9.024778">
        <ele>472.150687</ele>
        <time>2026-05-02T08:25:11.579Z</time>
      </trkpt>
      <trkpt lat="45.814044" lon="9.024914">
        <ele>471.234868</ele>
        <time>2026-05-02T08:25:13.580Z</time>
      </trkpt>
      <trkpt lat="45.814149" lon="9.025090">
        <ele>470.338393</ele>
        <time>2026-05-02T08:25:15.580Z</time>
      </trkpt>
      <trkpt lat="45.814225" lon="9.025289">
        <ele>469.460314</ele>
        <time>2026-05-02T08:25:17.580Z</time>
      </trkpt>
      <trkpt lat="45.814289" lon="9.025488">
        <ele>468.669568</ele>
        <time>2026-05-02T08:25:19.578Z</time>
      </trkpt>
      <trkpt lat="45.814355" lon="9.025688">
        <ele>468.050141</ele>
        <time>2026-05-02T08:25:21.584Z</time>
      </trkpt>
      <trkpt lat="45.814421" lon="9.025879">
        <ele>467.453388</ele>
        <time>2026-05-02T08:25:23.585Z</time>
      </trkpt>
      <trkpt lat="45.814493" lon="9.026050">
        <ele>466.894156</ele>
        <time>2026-05-02T08:25:25.585Z</time>
      </trkpt>
      <trkpt lat="45.814577" lon="9.026200">
        <ele>466.355534</ele>
        <time>2026-05-02T08:25:27.584Z</time>
      </trkpt>
      <trkpt lat="45.814665" lon="9.026348">
        <ele>465.810978</ele>
        <time>2026-05-02T08:25:29.579Z</time>
      </trkpt>
      <trkpt lat="45.814751" lon="9.026511">
        <ele>465.238719</ele>
        <time>2026-05-02T08:25:31.577Z</time>
      </trkpt>
      <trkpt lat="45.814819" lon="9.026701">
        <ele>464.640849</ele>
        <time>2026-05-02T08:25:33.584Z</time>
      </trkpt>
      <trkpt lat="45.814845" lon="9.026909">
        <ele>464.049324</ele>
        <time>2026-05-02T08:25:35.584Z</time>
      </trkpt>
      <trkpt lat="45.814830" lon="9.027119">
        <ele>463.458412</ele>
        <time>2026-05-02T08:25:37.577Z</time>
      </trkpt>
      <trkpt lat="45.814779" lon="9.027322">
        <ele>462.854384</ele>
        <time>2026-05-02T08:25:39.581Z</time>
      </trkpt>
      <trkpt lat="45.814726" lon="9.027531">
        <ele>462.231829</ele>
        <time>2026-05-02T08:25:41.589Z</time>
      </trkpt>
      <trkpt lat="45.814673" lon="9.027739">
        <ele>461.611903</ele>
        <time>2026-05-02T08:25:43.581Z</time>
      </trkpt>
      <trkpt lat="45.814629" lon="9.027939">
        <ele>461.003708</ele>
        <time>2026-05-02T08:25:45.575Z</time>
      </trkpt>
      <trkpt lat="45.814586" lon="9.028125">
        <ele>460.434864</ele>
        <time>2026-05-02T08:25:47.580Z</time>
      </trkpt>
      <trkpt lat="45.814542" lon="9.028309">
        <ele>459.870189</ele>
        <time>2026-05-02T08:25:49.588Z</time>
      </trkpt>
      <trkpt lat="45.814495" lon="9.028497">
        <ele>459.290420</ele>
        <time>2026-05-02T08:25:51.581Z</time>
      </trkpt>
      <trkpt lat="45.814459" lon="9.028687">
        <ele>458.718873</ele>
        <time>2026-05-02T08:25:53.580Z</time>
      </trkpt>
      <trkpt lat="45.814443" lon="9.028886">
        <ele>458.137386</ele>
        <time>2026-05-02T08:25:55.580Z</time>
      </trkpt>
      <trkpt lat="45.814450" lon="9.029085">
        <ele>457.558995</ele>
        <time>2026-05-02T08:25:57.588Z</time>
      </trkpt>
      <trkpt lat="45.814470" lon="9.029280">
        <ele>456.986854</ele>
        <time>2026-05-02T08:25:59.583Z</time>
      </trkpt>
      <trkpt lat="45.814518" lon="9.029476">
        <ele>456.383807</ele>
        <time>2026-05-02T08:26:01.586Z</time>
      </trkpt>
      <trkpt lat="45.814579" lon="9.029669">
        <ele>455.768657</ele>
        <time>2026-05-02T08:26:03.587Z</time>
      </trkpt>
      <trkpt lat="45.814641" lon="9.029869">
        <ele>455.133265</ele>
        <time>2026-05-02T08:26:05.577Z</time>
      </trkpt>
      <trkpt lat="45.814704" lon="9.030078">
        <ele>454.472276</ele>
        <time>2026-05-02T08:26:07.585Z</time>
      </trkpt>
      <trkpt lat="45.814770" lon="9.030291">
        <ele>453.780200</ele>
        <time>2026-05-02T08:26:09.592Z</time>
      </trkpt>
      <trkpt lat="45.814839" lon="9.030500">
        <ele>453.075388</ele>
        <time>2026-05-02T08:26:11.577Z</time>
      </trkpt>
      <trkpt lat="45.814905" lon="9.030700">
        <ele>452.400981</ele>
        <time>2026-05-02T08:26:13.579Z</time>
      </trkpt>
      <trkpt lat="45.814967" lon="9.030893">
        <ele>451.753306</ele>
        <time>2026-05-02T08:26:15.584Z</time>
      </trkpt>
      <trkpt lat="45.815018" lon="9.031082">
        <ele>451.135631</ele>
        <time>2026-05-02T08:26:17.584Z</time>
      </trkpt>
      <trkpt lat="45.815039" lon="9.031277">
        <ele>450.534282</ele>
        <time>2026-05-02T08:26:19.576Z</time>
      </trkpt>
      <trkpt lat="45.815022" lon="9.031464">
        <ele>449.959538</ele>
        <time>2026-05-02T08:26:21.583Z</time>
      </trkpt>
      <trkpt lat="45.814970" lon="9.031633">
        <ele>449.396523</ele>
        <time>2026-05-02T08:26:23.587Z</time>
      </trkpt>
      <trkpt lat="45.814895" lon="9.031765">
        <ele>448.877491</ele>
        <time>2026-05-02T08:26:25.590Z</time>
      </trkpt>
      <trkpt lat="45.814803" lon="9.031857">
        <ele>448.387130</ele>
        <time>2026-05-02T08:26:27.581Z</time>
      </trkpt>
      <trkpt lat="45.814701" lon="9.031893">
        <ele>447.927817</ele>
        <time>2026-05-02T08:26:29.588Z</time>
      </trkpt>
      <trkpt lat="45.814599" lon="9.031880">
        <ele>447.480044</ele>
        <time>2026-05-02T08:26:31.587Z</time>
      </trkpt>
      <trkpt lat="45.814500" lon="9.031849">
        <ele>447.036956</ele>
        <time>2026-05-02T08:26:33.588Z</time>
      </trkpt>
      <trkpt lat="45.814405" lon="9.031877">
        <ele>446.612874</ele>
        <time>2026-05-02T08:26:35.580Z</time>
      </trkpt>
      <trkpt lat="45.814345" lon="9.031982">
        <ele>446.196711</ele>
        <time>2026-05-02T08:26:37.580Z</time>
      </trkpt>
      <trkpt lat="45.814302" lon="9.032099">
        <ele>445.770369</ele>
        <time>2026-05-02T08:26:39.581Z</time>
      </trkpt>
      <trkpt lat="45.814262" lon="9.032219">
        <ele>445.341617</ele>
        <time>2026-05-02T08:26:41.584Z</time>
      </trkpt>
      <trkpt lat="45.814231" lon="9.032349">
        <ele>444.898743</ele>
        <time>2026-05-02T08:26:43.580Z</time>
      </trkpt>
      <trkpt lat="45.814201" lon="9.032479">
        <ele>444.457345</ele>
        <time>2026-05-02T08:26:45.581Z</time>
      </trkpt>
      <trkpt lat="45.814163" lon="9.032611">
        <ele>443.997007</ele>
        <time>2026-05-02T08:26:47.589Z</time>
      </trkpt>
      <trkpt lat="45.814122" lon="9.032756">
        <ele>443.492633</ele>
        <time>2026-05-02T08:26:49.580Z</time>
      </trkpt>
      <trkpt lat="45.814071" lon="9.032898">
        <ele>442.977731</ele>
        <time>2026-05-02T08:26:51.576Z</time>
      </trkpt>
      <trkpt lat="45.814004" lon="9.033042">
        <ele>442.419657</ele>
        <time>2026-05-02T08:26:53.579Z</time>
      </trkpt>
      <trkpt lat="45.813934" lon="9.033196">
        <ele>441.827038</ele>
        <time>2026-05-02T08:26:55.578Z</time>
      </trkpt>
      <trkpt lat="45.813856" lon="9.033360">
        <ele>441.187069</ele>
        <time>2026-05-02T08:26:57.584Z</time>
      </trkpt>
      <trkpt lat="45.813771" lon="9.033527">
        <ele>440.520526</ele>
        <time>2026-05-02T08:26:59.585Z</time>
      </trkpt>
      <trkpt lat="45.813681" lon="9.033714">
        <ele>439.788027</ele>
        <time>2026-05-02T08:27:01.580Z</time>
      </trkpt>
      <trkpt lat="45.813578" lon="9.033903">
        <ele>439.014704</ele>
        <time>2026-05-02T08:27:03.587Z</time>
      </trkpt>
      <trkpt lat="45.813468" lon="9.034099">
        <ele>438.203582</ele>
        <time>2026-05-02T08:27:05.594Z</time>
      </trkpt>
      <trkpt lat="45.813358" lon="9.034301">
        <ele>437.796820</ele>
        <time>2026-05-02T08:27:07.581Z</time>
      </trkpt>
      <trkpt lat="45.813302" lon="9.034405">
        <ele>437.699548</ele>
        <time>2026-05-02T08:27:08.585Z</time>
      </trkpt>
      <trkpt lat="45.813249" lon="9.034510">
        <ele>437.603591</ele>
        <time>2026-05-02T08:27:09.582Z</time>
      </trkpt>
      <trkpt lat="45.813150" lon="9.034713">
        <ele>437.420210</ele>
        <time>2026-05-02T08:27:11.583Z</time>
      </trkpt>
      <trkpt lat="45.813056" lon="9.034911">
        <ele>437.242890</ele>
        <time>2026-05-02T08:27:13.577Z</time>
      </trkpt>
      <trkpt lat="45.812970" lon="9.035096">
        <ele>437.078298</ele>
        <time>2026-05-02T08:27:15.584Z</time>
      </trkpt>
      <trkpt lat="45.812889" lon="9.035271">
        <ele>436.922809</ele>
        <time>2026-05-02T08:27:17.584Z</time>
      </trkpt>
      <trkpt lat="45.812813" lon="9.035434">
        <ele>436.777656</ele>
        <time>2026-05-02T08:27:19.582Z</time>
      </trkpt>
      <trkpt lat="45.812743" lon="9.035581">
        <ele>436.645882</ele>
        <time>2026-05-02T08:27:21.581Z</time>
      </trkpt>
      <trkpt lat="45.812673" lon="9.035717">
        <ele>436.520747</ele>
        <time>2026-05-02T08:27:23.582Z</time>
      </trkpt>
      <trkpt lat="45.812609" lon="9.035838">
        <ele>436.408319</ele>
        <time>2026-05-02T08:27:25.589Z</time>
      </trkpt>
      <trkpt lat="45.812546" lon="9.035961">
        <ele>436.295339</ele>
        <time>2026-05-02T08:27:27.594Z</time>
      </trkpt>
      <trkpt lat="45.812479" lon="9.036080">
        <ele>436.182112</ele>
        <time>2026-05-02T08:27:29.581Z</time>
      </trkpt>
      <trkpt lat="45.812412" lon="9.036202">
        <ele>436.067148</ele>
        <time>2026-05-02T08:27:31.580Z</time>
      </trkpt>
      <trkpt lat="45.812341" lon="9.036316">
        <ele>436.006469</ele>
        <time>2026-05-02T08:27:33.588Z</time>
      </trkpt>
      <trkpt lat="45.812260" lon="9.036421">
        <ele>435.995723</ele>
        <time>2026-05-02T08:27:35.582Z</time>
      </trkpt>
      <trkpt lat="45.812181" lon="9.036517">
        <ele>435.985532</ele>
        <time>2026-05-02T08:27:37.587Z</time>
      </trkpt>
      <trkpt lat="45.812103" lon="9.036611">
        <ele>435.975504</ele>
        <time>2026-05-02T08:27:39.587Z</time>
      </trkpt>
      <trkpt lat="45.812028" lon="9.036703">
        <ele>435.965791</ele>
        <time>2026-05-02T08:27:41.580Z</time>
      </trkpt>
      <trkpt lat="45.811956" lon="9.036802">
        <ele>435.955974</ele>
        <time>2026-05-02T08:27:43.587Z</time>
      </trkpt>
      <trkpt lat="45.811880" lon="9.036898">
        <ele>435.946007</ele>
        <time>2026-05-02T08:27:45.585Z</time>
      </trkpt>
      <trkpt lat="45.811803" lon="9.037000">
        <ele>435.935690</ele>
        <time>2026-05-02T08:27:47.583Z</time>
      </trkpt>
      <trkpt lat="45.811735" lon="9.037112">
        <ele>435.925499</ele>
        <time>2026-05-02T08:27:49.581Z</time>
      </trkpt>
      <trkpt lat="45.811666" lon="9.037229">
        <ele>435.914984</ele>
        <time>2026-05-02T08:27:51.586Z</time>
      </trkpt>
      <trkpt lat="45.811589" lon="9.037345">
        <ele>435.903993</ele>
        <time>2026-05-02T08:27:53.587Z</time>
      </trkpt>
      <trkpt lat="45.811517" lon="9.037462">
        <ele>435.893285</ele>
        <time>2026-05-02T08:27:55.584Z</time>
      </trkpt>
      <trkpt lat="45.811450" lon="9.037576">
        <ele>435.883054</ele>
        <time>2026-05-02T08:27:57.578Z</time>
      </trkpt>
      <trkpt lat="45.811386" lon="9.037693">
        <ele>435.872849</ele>
        <time>2026-05-02T08:27:59.587Z</time>
      </trkpt>
      <trkpt lat="45.811324" lon="9.037809">
        <ele>435.862819</ele>
        <time>2026-05-02T08:28:01.581Z</time>
      </trkpt>
      <trkpt lat="45.811260" lon="9.037935">
        <ele>435.852122</ele>
        <time>2026-05-02T08:28:03.580Z</time>
      </trkpt>
      <trkpt lat="45.811199" lon="9.038068">
        <ele>435.841199</ele>
        <time>2026-05-02T08:28:05.584Z</time>
      </trkpt>
      <trkpt lat="45.811130" lon="9.038190">
        <ele>435.835360</ele>
        <time>2026-05-02T08:28:07.581Z</time>
      </trkpt>
      <trkpt lat="45.811068" lon="9.038312">
        <ele>435.836739</ele>
        <time>2026-05-02T08:28:09.584Z</time>
      </trkpt>
      <trkpt lat="45.811004" lon="9.038437">
        <ele>435.838157</ele>
        <time>2026-05-02T08:28:11.588Z</time>
      </trkpt>
      <trkpt lat="45.810946" lon="9.038556">
        <ele>435.839484</ele>
        <time>2026-05-02T08:28:13.584Z</time>
      </trkpt>
      <trkpt lat="45.810893" lon="9.038682">
        <ele>435.840829</ele>
        <time>2026-05-02T08:28:15.582Z</time>
      </trkpt>
      <trkpt lat="45.810837" lon="9.038801">
        <ele>435.842141</ele>
        <time>2026-05-02T08:28:17.589Z</time>
      </trkpt>
      <trkpt lat="45.810777" lon="9.038919">
        <ele>435.843475</ele>
        <time>2026-05-02T08:28:19.582Z</time>
      </trkpt>
      <trkpt lat="45.810727" lon="9.039047">
        <ele>435.844816</ele>
        <time>2026-05-02T08:28:21.585Z</time>
      </trkpt>
      <trkpt lat="45.810693" lon="9.039185">
        <ele>435.846154</ele>
        <time>2026-05-02T08:28:23.585Z</time>
      </trkpt>
      <trkpt lat="45.810675" lon="9.039328">
        <ele>435.847482</ele>
        <time>2026-05-02T08:28:25.583Z</time>
      </trkpt>
      <trkpt lat="45.810674" lon="9.039471">
        <ele>435.848789</ele>
        <time>2026-05-02T08:28:27.581Z</time>
      </trkpt>
      <trkpt lat="45.810697" lon="9.039608">
        <ele>435.850076</ele>
        <time>2026-05-02T08:28:29.583Z</time>
      </trkpt>
      <trkpt lat="45.810738" lon="9.039735">
        <ele>435.851355</ele>
        <time>2026-05-02T08:28:31.584Z</time>
      </trkpt>
      <trkpt lat="45.810784" lon="9.039857">
        <ele>435.852623</ele>
        <time>2026-05-02T08:28:33.580Z</time>
      </trkpt>
      <trkpt lat="45.810839" lon="9.040024">
        <ele>435.854311</ele>
        <time>2026-05-02T08:28:36.580Z</time>
      </trkpt>
      <trkpt lat="45.810898" lon="9.040171">
        <ele>435.855861</ele>
        <time>2026-05-02T08:28:39.581Z</time>
      </trkpt>
      <trkpt lat="45.810934" lon="9.040314">
        <ele>435.857250</ele>
        <time>2026-05-02T08:28:42.579Z</time>
      </trkpt>
      <trkpt lat="45.810944" lon="9.040457">
        <ele>435.913134</ele>
        <time>2026-05-02T08:28:45.593Z</time>
      </trkpt>
      <trkpt lat="45.810938" lon="9.040598">
        <ele>436.260247</ele>
        <time>2026-05-02T08:28:48.580Z</time>
      </trkpt>
      <trkpt lat="45.810913" lon="9.040722">
        <ele>436.577433</ele>
        <time>2026-05-02T08:28:51.584Z</time>
      </trkpt>
      <trkpt lat="45.810875" lon="9.040841">
        <ele>436.899069</ele>
        <time>2026-05-02T08:28:54.582Z</time>
      </trkpt>
      <trkpt lat="45.810827" lon="9.040992">
        <ele>437.306874</ele>
        <time>2026-05-02T08:28:58.579Z</time>
      </trkpt>
      <trkpt lat="45.810782" lon="9.041146">
        <ele>437.717194</ele>
        <time>2026-05-02T08:29:02.577Z</time>
      </trkpt>
      <trkpt lat="45.810734" lon="9.041292">
        <ele>438.113854</ele>
        <time>2026-05-02T08:29:06.587Z</time>
      </trkpt>
      <trkpt lat="45.810696" lon="9.041420">
        <ele>438.455720</ele>
        <time>2026-05-02T08:29:10.588Z</time>
      </trkpt>
      <trkpt lat="45.810654" lon="9.041551">
        <ele>438.810037</ele>
        <time>2026-05-02T08:29:14.576Z</time>
      </trkpt>
      <trkpt lat="45.810613" lon="9.041682">
        <ele>439.162896</ele>
        <time>2026-05-02T08:29:18.589Z</time>
      </trkpt>
      <trkpt lat="45.810569" lon="9.041815">
        <ele>439.524651</ele>
        <time>2026-05-02T08:29:22.588Z</time>
      </trkpt>
      <trkpt lat="45.810528" lon="9.041941">
        <ele>439.866339</ele>
        <time>2026-05-02T08:29:26.579Z</time>
      </trkpt>
      <trkpt lat="45.810498" lon="9.042069">
        <ele>440.198171</ele>
        <time>2026-05-02T08:29:30.582Z</time>
      </trkpt>
      <trkpt lat="45.810492" lon="9.042210">
        <ele>440.545288</ele>
        <time>2026-05-02T08:29:34.581Z</time>
      </trkpt>
      <trkpt lat="45.810518" lon="9.042369">
        <ele>440.946597</ele>
        <time>2026-05-02T08:29:38.584Z</time>
      </trkpt>
      <trkpt lat="45.810574" lon="9.042497">
        <ele>441.317946</ele>
        <time>2026-05-02T08:29:41.587Z</time>
      </trkpt>
      <trkpt lat="45.810653" lon="9.042623">
        <ele>441.734384</ele>
        <time>2026-05-02T08:29:44.586Z</time>
      </trkpt>
      <trkpt lat="45.810733" lon="9.042753">
        <ele>442.160506</ele>
        <time>2026-05-02T08:29:47.582Z</time>
      </trkpt>
      <trkpt lat="45.810816" lon="9.042892">
        <ele>441.613930</ele>
        <time>2026-05-02T08:29:50.578Z</time>
      </trkpt>
      <trkpt lat="45.810883" lon="9.042989">
        <ele>441.136361</ele>
        <time>2026-05-02T08:29:52.585Z</time>
      </trkpt>
      <trkpt lat="45.810941" lon="9.043088">
        <ele>440.684092</ele>
        <time>2026-05-02T08:29:54.580Z</time>
      </trkpt>
      <trkpt lat="45.811008" lon="9.043257">
        <ele>440.004165</ele>
        <time>2026-05-02T08:29:57.592Z</time>
      </trkpt>
      <trkpt lat="45.811039" lon="9.043388">
        <ele>439.520358</ele>
        <time>2026-05-02T08:29:59.583Z</time>
      </trkpt>
      <trkpt lat="45.811052" lon="9.043534">
        <ele>439.005627</ele>
        <time>2026-05-02T08:30:01.585Z</time>
      </trkpt>
      <trkpt lat="45.811046" lon="9.043690">
        <ele>438.459243</ele>
        <time>2026-05-02T08:30:03.583Z</time>
      </trkpt>
      <trkpt lat="45.811042" lon="9.043862">
        <ele>437.857401</ele>
        <time>2026-05-02T08:30:05.584Z</time>
      </trkpt>
      <trkpt lat="45.811036" lon="9.044043">
        <ele>437.223703</ele>
        <time>2026-05-02T08:30:07.585Z</time>
      </trkpt>
      <trkpt lat="45.811025" lon="9.044230">
        <ele>436.567414</ele>
        <time>2026-05-02T08:30:09.587Z</time>
      </trkpt>
      <trkpt lat="45.810995" lon="9.044419">
        <ele>435.889532</ele>
        <time>2026-05-02T08:30:11.585Z</time>
      </trkpt>
      <trkpt lat="45.810938" lon="9.044609">
        <ele>435.166145</ele>
        <time>2026-05-02T08:30:13.585Z</time>
      </trkpt>
      <trkpt lat="45.810857" lon="9.044790">
        <ele>434.413932</ele>
        <time>2026-05-02T08:30:15.579Z</time>
      </trkpt>
      <trkpt lat="45.810770" lon="9.044981">
        <ele>433.615999</ele>
        <time>2026-05-02T08:30:17.582Z</time>
      </trkpt>
      <trkpt lat="45.810672" lon="9.045170">
        <ele>433.135568</ele>
        <time>2026-05-02T08:30:19.590Z</time>
      </trkpt>
      <trkpt lat="45.810573" lon="9.045369">
        <ele>433.047685</ele>
        <time>2026-05-02T08:30:21.582Z</time>
      </trkpt>
      <trkpt lat="45.810470" lon="9.045567">
        <ele>432.958876</ele>
        <time>2026-05-02T08:30:23.583Z</time>
      </trkpt>
      <trkpt lat="45.810371" lon="9.045761">
        <ele>432.872449</ele>
        <time>2026-05-02T08:30:25.582Z</time>
      </trkpt>
      <trkpt lat="45.810279" lon="9.045943">
        <ele>432.791635</ele>
        <time>2026-05-02T08:30:27.577Z</time>
      </trkpt>
      <trkpt lat="45.810189" lon="9.046121">
        <ele>432.712589</ele>
        <time>2026-05-02T08:30:29.585Z</time>
      </trkpt>
      <trkpt lat="45.810103" lon="9.046282">
        <ele>432.639676</ele>
        <time>2026-05-02T08:30:31.581Z</time>
      </trkpt>
      <trkpt lat="45.810023" lon="9.046433">
        <ele>432.571498</ele>
        <time>2026-05-02T08:30:33.583Z</time>
      </trkpt>
      <trkpt lat="45.809940" lon="9.046569">
        <ele>432.506521</ele>
        <time>2026-05-02T08:30:35.584Z</time>
      </trkpt>
      <trkpt lat="45.809855" lon="9.046680">
        <ele>432.447246</ele>
        <time>2026-05-02T08:30:37.582Z</time>
      </trkpt>
      <trkpt lat="45.809754" lon="9.046746">
        <ele>432.390011</ele>
        <time>2026-05-02T08:30:39.578Z</time>
      </trkpt>
      <trkpt lat="45.809663" lon="9.046806">
        <ele>432.338364</ele>
        <time>2026-05-02T08:30:41.582Z</time>
      </trkpt>
      <trkpt lat="45.809621" lon="9.046930">
        <ele>432.288806</ele>
        <time>2026-05-02T08:30:43.586Z</time>
      </trkpt>
      <trkpt lat="45.809603" lon="9.047114">
        <ele>432.421600</ele>
        <time>2026-05-02T08:30:46.581Z</time>
      </trkpt>
      <trkpt lat="45.809544" lon="9.047254">
        <ele>432.826226</ele>
        <time>2026-05-02T08:30:49.581Z</time>
      </trkpt>
      <trkpt lat="45.809476" lon="9.047366">
        <ele>433.193581</ele>
        <time>2026-05-02T08:30:52.588Z</time>
      </trkpt>
      <trkpt lat="45.809415" lon="9.047470">
        <ele>433.529751</ele>
        <time>2026-05-02T08:30:55.586Z</time>
      </trkpt>
      <trkpt lat="45.809357" lon="9.047571">
        <ele>433.853408</ele>
        <time>2026-05-02T08:30:58.586Z</time>
      </trkpt>
      <trkpt lat="45.809282" lon="9.047687">
        <ele>434.244729</ele>
        <time>2026-05-02T08:31:02.591Z</time>
      </trkpt>
      <trkpt lat="45.809215" lon="9.047793">
        <ele>434.598635</ele>
        <time>2026-05-02T08:31:06.572Z</time>
      </trkpt>
      <trkpt lat="45.809143" lon="9.047901">
        <ele>434.968253</ele>
        <time>2026-05-02T08:31:10.582Z</time>
      </trkpt>
      <trkpt lat="45.809079" lon="9.048009">
        <ele>435.318853</ele>
        <time>2026-05-02T08:31:14.587Z</time>
      </trkpt>
      <trkpt lat="45.809015" lon="9.048108">
        <ele>435.652804</ele>
        <time>2026-05-02T08:31:18.588Z</time>
      </trkpt>
      <trkpt lat="45.808939" lon="9.048221">
        <ele>436.041174</ele>
        <time>2026-05-02T08:31:23.583Z</time>
      </trkpt>
      <trkpt lat="45.808870" lon="9.048334">
        <ele>436.412729</ele>
        <time>2026-05-02T08:31:28.583Z</time>
      </trkpt>
      <trkpt lat="45.808803" lon="9.048444">
        <ele>436.774026</ele>
        <time>2026-05-02T08:31:33.585Z</time>
      </trkpt>
      <trkpt lat="45.808749" lon="9.048554">
        <ele>437.106790</ele>
        <time>2026-05-02T08:31:38.577Z</time>
      </trkpt>
      <trkpt lat="45.808675" lon="9.048628">
        <ele>437.426854</ele>
        <time>2026-05-02T08:31:43.578Z</time>
      </trkpt>
      <trkpt lat="45.808600" lon="9.048551">
        <ele>437.754098</ele>
        <time>2026-05-02T08:31:48.584Z</time>
      </trkpt>
      <trkpt lat="45.808432" lon="9.048568">
        <ele>438.351683</ele>
        <time>2026-05-02T08:32:20.588Z</time>
      </trkpt>
      <trkpt lat="45.808327" lon="9.048573">
        <ele>438.529757</ele>
        <time>2026-05-02T08:32:25.580Z</time>
      </trkpt>
      <trkpt lat="45.808259" lon="9.048677">
        <ele>438.160362</ele>
        <time>2026-05-02T08:32:31.594Z</time>
      </trkpt>
      <trkpt lat="45.808243" lon="9.048831">
        <ele>437.757006</ele>
        <time>2026-05-02T08:32:36.587Z</time>
      </trkpt>
      <trkpt lat="45.808286" lon="9.048954">
        <ele>437.400538</ele>
        <time>2026-05-02T08:32:41.583Z</time>
      </trkpt>
      <trkpt lat="45.808189" lon="9.049031">
        <ele>436.988536</ele>
        <time>2026-05-02T08:32:45.581Z</time>
      </trkpt>
      <trkpt lat="45.808128" lon="9.049172">
        <ele>436.558633</ele>
        <time>2026-05-02T08:32:48.584Z</time>
      </trkpt>
      <trkpt lat="45.808088" lon="9.049288">
        <ele>436.223366</ele>
        <time>2026-05-02T08:32:50.581Z</time>
      </trkpt>
      <trkpt lat="45.808044" lon="9.049406">
        <ele>435.876688</ele>
        <time>2026-05-02T08:32:52.579Z</time>
      </trkpt>
      <trkpt lat="45.808001" lon="9.049533">
        <ele>435.510926</ele>
        <time>2026-05-02T08:32:54.583Z</time>
      </trkpt>
      <trkpt lat="45.807966" lon="9.049668">
        <ele>435.137791</ele>
        <time>2026-05-02T08:32:56.583Z</time>
      </trkpt>
      <trkpt lat="45.807939" lon="9.049802">
        <ele>434.776440</ele>
        <time>2026-05-02T08:32:58.582Z</time>
      </trkpt>
      <trkpt lat="45.807898" lon="9.049926">
        <ele>434.420900</ele>
        <time>2026-05-02T08:33:00.582Z</time>
      </trkpt>
      <trkpt lat="45.807830" lon="9.050077">
        <ele>433.955189</ele>
        <time>2026-05-02T08:33:03.582Z</time>
      </trkpt>
      <trkpt lat="45.807775" lon="9.050187">
        <ele>433.604495</ele>
        <time>2026-05-02T08:33:05.582Z</time>
      </trkpt>
      <trkpt lat="45.807707" lon="9.050284">
        <ele>433.248108</ele>
        <time>2026-05-02T08:33:07.577Z</time>
      </trkpt>
      <trkpt lat="45.807638" lon="9.050381">
        <ele>432.889077</ele>
        <time>2026-05-02T08:33:09.580Z</time>
      </trkpt>
      <trkpt lat="45.807548" lon="9.050481">
        <ele>432.466007</ele>
        <time>2026-05-02T08:33:12.580Z</time>
      </trkpt>
      <trkpt lat="45.807454" lon="9.050527">
        <ele>432.096897</ele>
        <time>2026-05-02T08:33:15.588Z</time>
      </trkpt>
      <trkpt lat="45.807399" lon="9.050662">
        <ele>432.120625</ele>
        <time>2026-05-02T08:33:18.580Z</time>
      </trkpt>
      <trkpt lat="45.807413" lon="9.050817">
        <ele>432.401914</ele>
        <time>2026-05-02T08:33:23.581Z</time>
      </trkpt>
      <trkpt lat="45.807492" lon="9.050896">
        <ele>432.650543</ele>
        <time>2026-05-02T08:33:26.586Z</time>
      </trkpt>
      <trkpt lat="45.807607" lon="9.050945">
        <ele>432.960273</ele>
        <time>2026-05-02T08:33:29.581Z</time>
      </trkpt>
      <trkpt lat="45.807706" lon="9.051043">
        <ele>433.270820</ele>
        <time>2026-05-02T08:33:32.580Z</time>
      </trkpt>
      <trkpt lat="45.807786" lon="9.051176">
        <ele>433.586978</ele>
        <time>2026-05-02T08:33:35.578Z</time>
      </trkpt>
      <trkpt lat="45.807864" lon="9.051298">
        <ele>433.884911</ele>
        <time>2026-05-02T08:33:38.579Z</time>
      </trkpt>
      <trkpt lat="45.807936" lon="9.051416">
        <ele>434.167143</ele>
        <time>2026-05-02T08:33:41.582Z</time>
      </trkpt>
      <trkpt lat="45.808011" lon="9.051521">
        <ele>434.437707</ele>
        <time>2026-05-02T08:33:44.579Z</time>
      </trkpt>
      <trkpt lat="45.808078" lon="9.051630">
        <ele>434.699251</ele>
        <time>2026-05-02T08:33:47.584Z</time>
      </trkpt>
      <trkpt lat="45.808146" lon="9.051733">
        <ele>434.954564</ele>
        <time>2026-05-02T08:33:50.580Z</time>
      </trkpt>
      <trkpt lat="45.808206" lon="9.051832">
        <ele>435.190661</ele>
        <time>2026-05-02T08:33:53.582Z</time>
      </trkpt>
      <trkpt lat="45.808276" lon="9.051921">
        <ele>435.432152</ele>
        <time>2026-05-02T08:33:56.583Z</time>
      </trkpt>
      <trkpt lat="45.808354" lon="9.051990">
        <ele>435.668744</ele>
        <time>2026-05-02T08:33:59.583Z</time>
      </trkpt>
      <trkpt lat="45.808443" lon="9.052037">
        <ele>435.913601</ele>
        <time>2026-05-02T08:34:02.581Z</time>
      </trkpt>
      <trkpt lat="45.808536" lon="9.052057">
        <ele>436.156395</ele>
        <time>2026-05-02T08:34:05.583Z</time>
      </trkpt>
      <trkpt lat="45.808629" lon="9.052048">
        <ele>436.397051</ele>
        <time>2026-05-02T08:34:08.579Z</time>
      </trkpt>
      <trkpt lat="45.808724" lon="9.052069">
        <ele>436.622943</ele>
        <time>2026-05-02T08:34:11.586Z</time>
      </trkpt>
      <trkpt lat="45.808814" lon="9.052121">
        <ele>436.774812</ele>
        <time>2026-05-02T08:34:14.580Z</time>
      </trkpt>
      <trkpt lat="45.808892" lon="9.052191">
        <ele>436.918823</ele>
        <time>2026-05-02T08:34:17.575Z</time>
      </trkpt>
      <trkpt lat="45.808985" lon="9.052285">
        <ele>437.096894</ele>
        <time>2026-05-02T08:34:21.582Z</time>
      </trkpt>
      <trkpt lat="45.809053" lon="9.052390">
        <ele>437.253270</ele>
        <time>2026-05-02T08:34:25.587Z</time>
      </trkpt>
      <trkpt lat="45.809127" lon="9.052506">
        <ele>437.424836</ele>
        <time>2026-05-02T08:34:29.585Z</time>
      </trkpt>
      <trkpt lat="45.809139" lon="9.052646">
        <ele>437.578736</ele>
        <time>2026-05-02T08:34:32.576Z</time>
      </trkpt>
      <trkpt lat="45.809141" lon="9.052796">
        <ele>437.742426</ele>
        <time>2026-05-02T08:34:35.583Z</time>
      </trkpt>
      <trkpt lat="45.809122" lon="9.052966">
        <ele>437.930276</ele>
        <time>2026-05-02T08:34:38.580Z</time>
      </trkpt>
      <trkpt lat="45.809090" lon="9.053141">
        <ele>438.127674</ele>
        <time>2026-05-02T08:34:41.584Z</time>
      </trkpt>
      <trkpt lat="45.809053" lon="9.053304">
        <ele>438.314710</ele>
        <time>2026-05-02T08:34:44.582Z</time>
      </trkpt>
      <trkpt lat="45.809014" lon="9.053458">
        <ele>438.493480</ele>
        <time>2026-05-02T08:34:47.578Z</time>
      </trkpt>
      <trkpt lat="45.808999" lon="9.053613">
        <ele>438.664218</ele>
        <time>2026-05-02T08:34:50.582Z</time>
      </trkpt>
      <trkpt lat="45.809060" lon="9.053756">
        <ele>438.847138</ele>
        <time>2026-05-02T08:34:53.581Z</time>
      </trkpt>
      <trkpt lat="45.809127" lon="9.053890">
        <ele>439.027065</ele>
        <time>2026-05-02T08:34:56.579Z</time>
      </trkpt>
      <trkpt lat="45.809184" lon="9.053996">
        <ele>439.173133</ele>
        <time>2026-05-02T08:34:59.575Z</time>
      </trkpt>
      <trkpt lat="45.809261" lon="9.054083">
        <ele>439.326549</ele>
        <time>2026-05-02T08:35:03.582Z</time>
      </trkpt>
      <trkpt lat="45.809350" lon="9.054120">
        <ele>439.333665</ele>
        <time>2026-05-02T08:35:06.581Z</time>
      </trkpt>
      <trkpt lat="45.809416" lon="9.054233">
        <ele>439.166332</ele>
        <time>2026-05-02T08:35:09.581Z</time>
      </trkpt>
      <trkpt lat="45.809482" lon="9.054354">
        <ele>438.991942</ele>
        <time>2026-05-02T08:35:12.579Z</time>
      </trkpt>
      <trkpt lat="45.809541" lon="9.054454">
        <ele>438.843239</ele>
        <time>2026-05-02T08:35:15.585Z</time>
      </trkpt>
      <trkpt lat="45.809611" lon="9.054539">
        <ele>438.693907</ele>
        <time>2026-05-02T08:35:18.584Z</time>
      </trkpt>
      <trkpt lat="45.809692" lon="9.054601">
        <ele>438.544412</ele>
        <time>2026-05-02T08:35:21.576Z</time>
      </trkpt>
      <trkpt lat="45.809782" lon="9.054635">
        <ele>438.392866</ele>
        <time>2026-05-02T08:35:24.576Z</time>
      </trkpt>
      <trkpt lat="45.809871" lon="9.054720">
        <ele>438.218767</ele>
        <time>2026-05-02T08:35:28.580Z</time>
      </trkpt>
      <trkpt lat="45.809911" lon="9.054858">
        <ele>438.049132</ele>
        <time>2026-05-02T08:35:31.590Z</time>
      </trkpt>
      <trkpt lat="45.809920" lon="9.055046">
        <ele>437.835245</ele>
        <time>2026-05-02T08:35:34.582Z</time>
      </trkpt>
      <trkpt lat="45.809895" lon="9.055178">
        <ele>437.679991</ele>
        <time>2026-05-02T08:35:36.583Z</time>
      </trkpt>
      <trkpt lat="45.809865" lon="9.055305">
        <ele>437.527791</ele>
        <time>2026-05-02T08:35:38.578Z</time>
      </trkpt>
      <trkpt lat="45.809841" lon="9.055436">
        <ele>437.374053</ele>
        <time>2026-05-02T08:35:40.580Z</time>
      </trkpt>
      <trkpt lat="45.809855" lon="9.055577">
        <ele>437.212399</ele>
        <time>2026-05-02T08:35:42.589Z</time>
      </trkpt>
      <trkpt lat="45.809903" lon="9.055719">
        <ele>437.033274</ele>
        <time>2026-05-02T08:35:44.580Z</time>
      </trkpt>
      <trkpt lat="45.809966" lon="9.055855">
        <ele>436.847932</ele>
        <time>2026-05-02T08:35:46.588Z</time>
      </trkpt>
      <trkpt lat="45.810016" lon="9.056005">
        <ele>436.659214</ele>
        <time>2026-05-02T08:35:48.581Z</time>
      </trkpt>
      <trkpt lat="45.810014" lon="9.056178">
        <ele>436.438080</ele>
        <time>2026-05-02T08:35:50.581Z</time>
      </trkpt>
      <trkpt lat="45.809957" lon="9.056341">
        <ele>435.816556</ele>
        <time>2026-05-02T08:35:52.581Z</time>
      </trkpt>
      <trkpt lat="45.809902" lon="9.056488">
        <ele>435.247941</ele>
        <time>2026-05-02T08:35:54.580Z</time>
      </trkpt>
      <trkpt lat="45.809875" lon="9.056638">
        <ele>434.719943</ele>
        <time>2026-05-02T08:35:56.575Z</time>
      </trkpt>
      <trkpt lat="45.809883" lon="9.056797">
        <ele>434.176631</ele>
        <time>2026-05-02T08:35:58.579Z</time>
      </trkpt>
      <trkpt lat="45.809929" lon="9.056948">
        <ele>433.614993</ele>
        <time>2026-05-02T08:36:00.578Z</time>
      </trkpt>
      <trkpt lat="45.809996" lon="9.057074">
        <ele>433.074872</ele>
        <time>2026-05-02T08:36:02.582Z</time>
      </trkpt>
      <trkpt lat="45.810064" lon="9.057213">
        <ele>432.496103</ele>
        <time>2026-05-02T08:36:04.582Z</time>
      </trkpt>
      <trkpt lat="45.810173" lon="9.057201">
        <ele>431.961580</ele>
        <time>2026-05-02T08:36:05.581Z</time>
      </trkpt>
      <trkpt lat="45.810327" lon="9.057261">
        <ele>431.181324</ele>
        <time>2026-05-02T08:36:07.588Z</time>
      </trkpt>
      <trkpt lat="45.810468" lon="9.057348">
        <ele>430.430846</ele>
        <time>2026-05-02T08:36:09.579Z</time>
      </trkpt>
      <trkpt lat="45.810552" lon="9.057505">
        <ele>429.756309</ele>
        <time>2026-05-02T08:36:11.579Z</time>
      </trkpt>
      <trkpt lat="45.810582" lon="9.057693">
        <ele>429.099002</ele>
        <time>2026-05-02T08:36:13.581Z</time>
      </trkpt>
      <trkpt lat="45.810601" lon="9.057870">
        <ele>428.488649</ele>
        <time>2026-05-02T08:36:15.586Z</time>
      </trkpt>
      <trkpt lat="45.810619" lon="9.058050">
        <ele>427.868903</ele>
        <time>2026-05-02T08:36:17.586Z</time>
      </trkpt>
      <trkpt lat="45.810640" lon="9.058239">
        <ele>427.123408</ele>
        <time>2026-05-02T08:36:19.587Z</time>
      </trkpt>
      <trkpt lat="45.810657" lon="9.058429">
        <ele>426.339403</ele>
        <time>2026-05-02T08:36:21.581Z</time>
      </trkpt>
      <trkpt lat="45.810687" lon="9.058596">
        <ele>425.633578</ele>
        <time>2026-05-02T08:36:23.585Z</time>
      </trkpt>
      <trkpt lat="45.810755" lon="9.058731">
        <ele>424.951888</ele>
        <time>2026-05-02T08:36:25.578Z</time>
      </trkpt>
      <trkpt lat="45.810833" lon="9.058834">
        <ele>424.329422</ele>
        <time>2026-05-02T08:36:27.577Z</time>
      </trkpt>
      <trkpt lat="45.810933" lon="9.058881">
        <ele>423.711547</ele>
        <time>2026-05-02T08:36:30.585Z</time>
      </trkpt>
      <trkpt lat="45.811088" lon="9.058900">
        <ele>422.798118</ele>
        <time>2026-05-02T08:36:33.583Z</time>
      </trkpt>
      <trkpt lat="45.811217" lon="9.058854">
        <ele>422.017623</ele>
        <time>2026-05-02T08:36:34.584Z</time>
      </trkpt>
      <trkpt lat="45.811366" lon="9.058852">
        <ele>421.142702</ele>
        <time>2026-05-02T08:36:36.582Z</time>
      </trkpt>
      <trkpt lat="45.811451" lon="9.058807">
        <ele>420.610711</ele>
        <time>2026-05-02T08:36:37.581Z</time>
      </trkpt>
      <trkpt lat="45.811551" lon="9.058776">
        <ele>420.009990</ele>
        <time>2026-05-02T08:36:39.576Z</time>
      </trkpt>
      <trkpt lat="45.811643" lon="9.058747">
        <ele>419.456909</ele>
        <time>2026-05-02T08:36:41.580Z</time>
      </trkpt>
      <trkpt lat="45.811740" lon="9.058733">
        <ele>418.884480</ele>
        <time>2026-05-02T08:36:43.583Z</time>
      </trkpt>
      <trkpt lat="45.811839" lon="9.058732">
        <ele>418.303168</ele>
        <time>2026-05-02T08:36:45.581Z</time>
      </trkpt>
      <trkpt lat="45.811938" lon="9.058731">
        <ele>417.721855</ele>
        <time>2026-05-02T08:36:47.583Z</time>
      </trkpt>
      <trkpt lat="45.812044" lon="9.058755">
        <ele>417.089663</ele>
        <time>2026-05-02T08:36:49.582Z</time>
      </trkpt>
      <trkpt lat="45.812142" lon="9.058830">
        <ele>416.388602</ele>
        <time>2026-05-02T08:36:51.579Z</time>
      </trkpt>
      <trkpt lat="45.812215" lon="9.058951">
        <ele>415.684557</ele>
        <time>2026-05-02T08:36:53.581Z</time>
      </trkpt>
      <trkpt lat="45.812246" lon="9.059096">
        <ele>415.017308</ele>
        <time>2026-05-02T08:36:55.580Z</time>
      </trkpt>
      <trkpt lat="45.812267" lon="9.059238">
        <ele>414.378684</ele>
        <time>2026-05-02T08:36:57.579Z</time>
      </trkpt>
      <trkpt lat="45.812295" lon="9.059366">
        <ele>413.788477</ele>
        <time>2026-05-02T08:36:59.578Z</time>
      </trkpt>
      <trkpt lat="45.812367" lon="9.059512">
        <ele>413.001652</ele>
        <time>2026-05-02T08:37:02.587Z</time>
      </trkpt>
      <trkpt lat="45.812485" lon="9.059596">
        <ele>412.170215</ele>
        <time>2026-05-02T08:37:05.585Z</time>
      </trkpt>
      <trkpt lat="45.812588" lon="9.059632">
        <ele>411.501083</ele>
        <time>2026-05-02T08:37:07.583Z</time>
      </trkpt>
      <trkpt lat="45.812695" lon="9.059637">
        <ele>410.825359</ele>
        <time>2026-05-02T08:37:09.590Z</time>
      </trkpt>
      <trkpt lat="45.812811" lon="9.059619">
        <ele>410.088917</ele>
        <time>2026-05-02T08:37:11.589Z</time>
      </trkpt>
      <trkpt lat="45.812932" lon="9.059598">
        <ele>409.319618</ele>
        <time>2026-05-02T08:37:13.580Z</time>
      </trkpt>
      <trkpt lat="45.813057" lon="9.059580">
        <ele>408.526676</ele>
        <time>2026-05-02T08:37:15.581Z</time>
      </trkpt>
      <trkpt lat="45.813187" lon="9.059575">
        <ele>407.705844</ele>
        <time>2026-05-02T08:37:17.589Z</time>
      </trkpt>
      <trkpt lat="45.813315" lon="9.059572">
        <ele>406.897822</ele>
        <time>2026-05-02T08:37:19.579Z</time>
      </trkpt>
      <trkpt lat="45.813440" lon="9.059623">
        <ele>406.077562</ele>
        <time>2026-05-02T08:37:21.580Z</time>
      </trkpt>
      <trkpt lat="45.813551" lon="9.059732">
        <ele>405.279437</ele>
        <time>2026-05-02T08:37:23.580Z</time>
      </trkpt>
      <trkpt lat="45.813641" lon="9.059896">
        <ele>404.447939</ele>
        <time>2026-05-02T08:37:25.582Z</time>
      </trkpt>
      <trkpt lat="45.813710" lon="9.060042">
        <ele>403.745249</ele>
        <time>2026-05-02T08:37:27.580Z</time>
      </trkpt>
      <trkpt lat="45.813787" lon="9.060188">
        <ele>403.015917</ele>
        <time>2026-05-02T08:37:29.588Z</time>
      </trkpt>
      <trkpt lat="45.813860" lon="9.060327">
        <ele>402.322615</ele>
        <time>2026-05-02T08:37:31.588Z</time>
      </trkpt>
      <trkpt lat="45.813928" lon="9.060446">
        <ele>401.709626</ele>
        <time>2026-05-02T08:37:33.587Z</time>
      </trkpt>
      <trkpt lat="45.814000" lon="9.060533">
        <ele>401.171627</ele>
        <time>2026-05-02T08:37:35.587Z</time>
      </trkpt>
      <trkpt lat="45.814113" lon="9.060608">
        <ele>400.460039</ele>
        <time>2026-05-02T08:37:38.593Z</time>
      </trkpt>
      <trkpt lat="45.814202" lon="9.060625">
        <ele>399.946887</ele>
        <time>2026-05-02T08:37:40.588Z</time>
      </trkpt>
      <trkpt lat="45.814298" lon="9.060617">
        <ele>399.397292</ele>
        <time>2026-05-02T08:37:42.593Z</time>
      </trkpt>
      <trkpt lat="45.814399" lon="9.060569">
        <ele>398.789200</ele>
        <time>2026-05-02T08:37:44.587Z</time>
      </trkpt>
      <trkpt lat="45.814486" lon="9.060470">
        <ele>398.154563</ele>
        <time>2026-05-02T08:37:46.586Z</time>
      </trkpt>
      <trkpt lat="45.814559" lon="9.060328">
        <ele>397.451686</ele>
        <time>2026-05-02T08:37:48.592Z</time>
      </trkpt>
      <trkpt lat="45.814607" lon="9.060148">
        <ele>396.683971</ele>
        <time>2026-05-02T08:37:50.579Z</time>
      </trkpt>
      <trkpt lat="45.814655" lon="9.059963">
        <ele>395.897622</ele>
        <time>2026-05-02T08:37:52.580Z</time>
      </trkpt>
      <trkpt lat="45.814702" lon="9.059772">
        <ele>395.027034</ele>
        <time>2026-05-02T08:37:54.581Z</time>
      </trkpt>
      <trkpt lat="45.814753" lon="9.059584">
        <ele>394.094221</ele>
        <time>2026-05-02T08:37:56.585Z</time>
      </trkpt>
      <trkpt lat="45.814809" lon="9.059404">
        <ele>393.182769</ele>
        <time>2026-05-02T08:37:58.582Z</time>
      </trkpt>
      <trkpt lat="45.814884" lon="9.059255">
        <ele>392.332928</ele>
        <time>2026-05-02T08:38:00.585Z</time>
      </trkpt>
      <trkpt lat="45.814970" lon="9.059133">
        <ele>391.530596</ele>
        <time>2026-05-02T08:38:02.583Z</time>
      </trkpt>
      <trkpt lat="45.815067" lon="9.059053">
        <ele>390.788340</ele>
        <time>2026-05-02T08:38:04.584Z</time>
      </trkpt>
      <trkpt lat="45.815180" lon="9.059006">
        <ele>390.007815</ele>
        <time>2026-05-02T08:38:06.579Z</time>
      </trkpt>
      <trkpt lat="45.815282" lon="9.058996">
        <ele>389.329552</ele>
        <time>2026-05-02T08:38:08.581Z</time>
      </trkpt>
      <trkpt lat="45.815386" lon="9.058997">
        <ele>388.639583</ele>
        <time>2026-05-02T08:38:11.583Z</time>
      </trkpt>
      <trkpt lat="45.815502" lon="9.058998">
        <ele>387.870006</ele>
        <time>2026-05-02T08:38:16.583Z</time>
      </trkpt>
      <trkpt lat="45.815635" lon="9.058992">
        <ele>386.987226</ele>
        <time>2026-05-02T08:38:19.579Z</time>
      </trkpt>
      <trkpt lat="45.815726" lon="9.058991">
        <ele>386.383499</ele>
        <time>2026-05-02T08:38:21.589Z</time>
      </trkpt>
      <trkpt lat="45.815818" lon="9.058989">
        <ele>385.773086</ele>
        <time>2026-05-02T08:38:23.580Z</time>
      </trkpt>
      <trkpt lat="45.815908" lon="9.058968">
        <ele>385.168167</ele>
        <time>2026-05-02T08:38:25.588Z</time>
      </trkpt>
      <trkpt lat="45.815995" lon="9.058933">
        <ele>384.568736</ele>
        <time>2026-05-02T08:38:27.589Z</time>
      </trkpt>
      <trkpt lat="45.816088" lon="9.058872">
        <ele>383.890346</ele>
        <time>2026-05-02T08:38:29.583Z</time>
      </trkpt>
      <trkpt lat="45.816196" lon="9.058813">
        <ele>383.179777</ele>
        <time>2026-05-02T08:38:31.579Z</time>
      </trkpt>
      <trkpt lat="45.816307" lon="9.058752">
        <ele>382.493879</ele>
        <time>2026-05-02T08:38:33.586Z</time>
      </trkpt>
      <trkpt lat="45.816426" lon="9.058708">
        <ele>381.784758</ele>
        <time>2026-05-02T08:38:35.582Z</time>
      </trkpt>
      <trkpt lat="45.816558" lon="9.058711">
        <ele>381.022960</ele>
        <time>2026-05-02T08:38:37.580Z</time>
      </trkpt>
      <trkpt lat="45.816683" lon="9.058748">
        <ele>380.286462</ele>
        <time>2026-05-02T08:38:39.580Z</time>
      </trkpt>
      <trkpt lat="45.816803" lon="9.058791">
        <ele>379.572737</ele>
        <time>2026-05-02T08:38:41.581Z</time>
      </trkpt>
      <trkpt lat="45.816916" lon="9.058837">
        <ele>378.894938</ele>
        <time>2026-05-02T08:38:43.583Z</time>
      </trkpt>
      <trkpt lat="45.817024" lon="9.058860">
        <ele>378.264900</ele>
        <time>2026-05-02T08:38:45.580Z</time>
      </trkpt>
      <trkpt lat="45.817119" lon="9.058863">
        <ele>377.716572</ele>
        <time>2026-05-02T08:38:47.585Z</time>
      </trkpt>
      <trkpt lat="45.817251" lon="9.058833">
        <ele>376.945373</ele>
        <time>2026-05-02T08:38:50.595Z</time>
      </trkpt>
      <trkpt lat="45.817343" lon="9.058757">
        <ele>376.332789</ele>
        <time>2026-05-02T08:38:52.581Z</time>
      </trkpt>
      <trkpt lat="45.817424" lon="9.058663">
        <ele>375.731635</ele>
        <time>2026-05-02T08:38:54.579Z</time>
      </trkpt>
      <trkpt lat="45.817499" lon="9.058566">
        <ele>375.148981</ele>
        <time>2026-05-02T08:38:56.576Z</time>
      </trkpt>
      <trkpt lat="45.817582" lon="9.058488">
        <ele>374.576446</ele>
        <time>2026-05-02T08:38:58.583Z</time>
      </trkpt>
      <trkpt lat="45.817674" lon="9.058440">
        <ele>374.011555</ele>
        <time>2026-05-02T08:39:00.583Z</time>
      </trkpt>
      <trkpt lat="45.817807" lon="9.058407">
        <ele>373.232691</ele>
        <time>2026-05-02T08:39:03.582Z</time>
      </trkpt>
      <trkpt lat="45.817901" lon="9.058368">
        <ele>372.661166</ele>
        <time>2026-05-02T08:39:05.589Z</time>
      </trkpt>
      <trkpt lat="45.818006" lon="9.058312">
        <ele>372.006002</ele>
        <time>2026-05-02T08:39:07.582Z</time>
      </trkpt>
      <trkpt lat="45.818108" lon="9.058242">
        <ele>371.344711</ele>
        <time>2026-05-02T08:39:09.582Z</time>
      </trkpt>
      <trkpt lat="45.818215" lon="9.058161">
        <ele>370.637144</ele>
        <time>2026-05-02T08:39:11.589Z</time>
      </trkpt>
      <trkpt lat="45.818313" lon="9.058090">
        <ele>369.995052</ele>
        <time>2026-05-02T08:39:13.589Z</time>
      </trkpt>
      <trkpt lat="45.818402" lon="9.058030">
        <ele>369.419926</ele>
        <time>2026-05-02T08:39:16.587Z</time>
      </trkpt>
      <trkpt lat="45.818515" lon="9.057954">
        <ele>368.690022</ele>
        <time>2026-05-02T08:41:03.586Z</time>
      </trkpt>
      <trkpt lat="45.818622" lon="9.057874">
        <ele>367.984350</ele>
        <time>2026-05-02T08:41:06.586Z</time>
      </trkpt>
      <trkpt lat="45.818707" lon="9.057808">
        <ele>367.419088</ele>
        <time>2026-05-02T08:41:08.585Z</time>
      </trkpt>
      <trkpt lat="45.818803" lon="9.057740">
        <ele>366.792924</ele>
        <time>2026-05-02T08:41:10.585Z</time>
      </trkpt>
      <trkpt lat="45.818905" lon="9.057664">
        <ele>366.120720</ele>
        <time>2026-05-02T08:41:12.576Z</time>
      </trkpt>
      <trkpt lat="45.819001" lon="9.057596">
        <ele>365.494557</ele>
        <time>2026-05-02T08:41:14.586Z</time>
      </trkpt>
      <trkpt lat="45.819103" lon="9.057530">
        <ele>364.840138</ele>
        <time>2026-05-02T08:41:16.590Z</time>
      </trkpt>
      <trkpt lat="45.819204" lon="9.057454">
        <ele>364.173119</ele>
        <time>2026-05-02T08:41:18.585Z</time>
      </trkpt>
      <trkpt lat="45.819298" lon="9.057355">
        <ele>363.491141</ele>
        <time>2026-05-02T08:41:20.584Z</time>
      </trkpt>
      <trkpt lat="45.819390" lon="9.057238">
        <ele>362.772138</ele>
        <time>2026-05-02T08:41:22.582Z</time>
      </trkpt>
      <trkpt lat="45.819475" lon="9.057111">
        <ele>362.045204</ele>
        <time>2026-05-02T08:41:24.582Z</time>
      </trkpt>
      <trkpt lat="45.819561" lon="9.056986">
        <ele>361.318277</ele>
        <time>2026-05-02T08:41:26.578Z</time>
      </trkpt>
      <trkpt lat="45.819644" lon="9.056869">
        <ele>360.627346</ele>
        <time>2026-05-02T08:41:28.578Z</time>
      </trkpt>
      <trkpt lat="45.819720" lon="9.056754">
        <ele>359.971457</ele>
        <time>2026-05-02T08:41:30.579Z</time>
      </trkpt>
      <trkpt lat="45.819797" lon="9.056648">
        <ele>359.337802</ele>
        <time>2026-05-02T08:41:32.581Z</time>
      </trkpt>
      <trkpt lat="45.819866" lon="9.056552">
        <ele>358.767072</ele>
        <time>2026-05-02T08:41:34.579Z</time>
      </trkpt>
      <trkpt lat="45.819951" lon="9.056436">
        <ele>358.070479</ele>
        <time>2026-05-02T08:41:37.590Z</time>
      </trkpt>
      <trkpt lat="45.820042" lon="9.056310">
        <ele>357.319529</ele>
        <time>2026-05-02T08:41:40.590Z</time>
      </trkpt>
      <trkpt lat="45.820113" lon="9.056209">
        <ele>356.725832</ele>
        <time>2026-05-02T08:41:42.580Z</time>
      </trkpt>
      <trkpt lat="45.820193" lon="9.056103">
        <ele>356.079207</ele>
        <time>2026-05-02T08:41:44.581Z</time>
      </trkpt>
      <trkpt lat="45.820277" lon="9.055986">
        <ele>355.384031</ele>
        <time>2026-05-02T08:41:46.583Z</time>
      </trkpt>
      <trkpt lat="45.820351" lon="9.055856">
        <ele>354.689375</ele>
        <time>2026-05-02T08:41:48.580Z</time>
      </trkpt>
      <trkpt lat="45.820415" lon="9.055714">
        <ele>353.989528</ele>
        <time>2026-05-02T08:41:50.581Z</time>
      </trkpt>
      <trkpt lat="45.820471" lon="9.055562">
        <ele>353.277992</ele>
        <time>2026-05-02T08:41:52.580Z</time>
      </trkpt>
      <trkpt lat="45.820527" lon="9.055400">
        <ele>352.529619</ele>
        <time>2026-05-02T08:41:54.579Z</time>
      </trkpt>
      <trkpt lat="45.820581" lon="9.055241">
        <ele>351.862617</ele>
        <time>2026-05-02T08:41:56.573Z</time>
      </trkpt>
      <trkpt lat="45.820645" lon="9.055094">
        <ele>351.408174</ele>
        <time>2026-05-02T08:41:58.581Z</time>
      </trkpt>
      <trkpt lat="45.820733" lon="9.054973">
        <ele>350.949642</ele>
        <time>2026-05-02T08:42:00.586Z</time>
      </trkpt>
      <trkpt lat="45.820841" lon="9.054889">
        <ele>350.487480</ele>
        <time>2026-05-02T08:42:02.579Z</time>
      </trkpt>
      <trkpt lat="45.820959" lon="9.054838">
        <ele>350.023845</ele>
        <time>2026-05-02T08:42:04.586Z</time>
      </trkpt>
      <trkpt lat="45.821079" lon="9.054802">
        <ele>349.562626</ele>
        <time>2026-05-02T08:42:06.573Z</time>
      </trkpt>
      <trkpt lat="45.821200" lon="9.054759">
        <ele>349.093653</ele>
        <time>2026-05-02T08:42:08.586Z</time>
      </trkpt>
      <trkpt lat="45.821327" lon="9.054727">
        <ele>348.608549</ele>
        <time>2026-05-02T08:42:10.584Z</time>
      </trkpt>
      <trkpt lat="45.821446" lon="9.054688">
        <ele>348.149325</ele>
        <time>2026-05-02T08:42:12.591Z</time>
      </trkpt>
      <trkpt lat="45.821571" lon="9.054698">
        <ele>347.678326</ele>
        <time>2026-05-02T08:42:14.580Z</time>
      </trkpt>
      <trkpt lat="45.821666" lon="9.054818">
        <ele>347.202172</ele>
        <time>2026-05-02T08:42:16.584Z</time>
      </trkpt>
      <trkpt lat="45.821763" lon="9.054907">
        <ele>346.769019</ele>
        <time>2026-05-02T08:42:18.584Z</time>
      </trkpt>
      <trkpt lat="45.821874" lon="9.054872">
        <ele>346.341457</ele>
        <time>2026-05-02T08:42:20.579Z</time>
      </trkpt>
      <trkpt lat="45.821967" lon="9.054792">
        <ele>345.933524</ele>
        <time>2026-05-02T08:42:22.584Z</time>
      </trkpt>
      <trkpt lat="45.822064" lon="9.054729">
        <ele>345.532956</ele>
        <time>2026-05-02T08:42:24.579Z</time>
      </trkpt>
      <trkpt lat="45.822169" lon="9.054675">
        <ele>345.120096</ele>
        <time>2026-05-02T08:42:26.579Z</time>
      </trkpt>
      <trkpt lat="45.822278" lon="9.054638">
        <ele>344.728774</ele>
        <time>2026-05-02T08:42:28.580Z</time>
      </trkpt>
      <trkpt lat="45.822390" lon="9.054604">
        <ele>344.328822</ele>
        <time>2026-05-02T08:42:30.582Z</time>
      </trkpt>
      <trkpt lat="45.822500" lon="9.054577">
        <ele>343.938935</ele>
        <time>2026-05-02T08:42:32.579Z</time>
      </trkpt>
      <trkpt lat="45.822609" lon="9.054551">
        <ele>343.552898</ele>
        <time>2026-05-02T08:42:34.575Z</time>
      </trkpt>
      <trkpt lat="45.822716" lon="9.054524">
        <ele>343.173338</ele>
        <time>2026-05-02T08:42:36.576Z</time>
      </trkpt>
      <trkpt lat="45.822817" lon="9.054518">
        <ele>342.820174</ele>
        <time>2026-05-02T08:42:38.581Z</time>
      </trkpt>
      <trkpt lat="45.822910" lon="9.054567">
        <ele>342.474052</ele>
        <time>2026-05-02T08:42:40.580Z</time>
      </trkpt>
      <trkpt lat="45.822992" lon="9.054633">
        <ele>342.145582</ele>
        <time>2026-05-02T08:42:42.580Z</time>
      </trkpt>
      <trkpt lat="45.823059" lon="9.054726">
        <ele>341.819914</ele>
        <time>2026-05-02T08:42:44.579Z</time>
      </trkpt>
      <trkpt lat="45.823055" lon="9.054857">
        <ele>341.500667</ele>
        <time>2026-05-02T08:42:46.581Z</time>
      </trkpt>
      <trkpt lat="45.822978" lon="9.054960">
        <ele>341.132897</ele>
        <time>2026-05-02T08:42:48.587Z</time>
      </trkpt>
      <trkpt lat="45.822898" lon="9.055070">
        <ele>340.745804</ele>
        <time>2026-05-02T08:42:50.581Z</time>
      </trkpt>
      <trkpt lat="45.822816" lon="9.055192">
        <ele>340.333131</ele>
        <time>2026-05-02T08:42:52.579Z</time>
      </trkpt>
      <trkpt lat="45.822732" lon="9.055313">
        <ele>339.917305</ele>
        <time>2026-05-02T08:42:54.581Z</time>
      </trkpt>
      <trkpt lat="45.822646" lon="9.055426">
        <ele>339.509918</ele>
        <time>2026-05-02T08:42:56.580Z</time>
      </trkpt>
      <trkpt lat="45.822564" lon="9.055539">
        <ele>339.112724</ele>
        <time>2026-05-02T08:42:58.580Z</time>
      </trkpt>
      <trkpt lat="45.822488" lon="9.055646">
        <ele>338.384519</ele>
        <time>2026-05-02T08:43:00.580Z</time>
      </trkpt>
      <trkpt lat="45.822418" lon="9.055738">
        <ele>337.409320</ele>
        <time>2026-05-02T08:43:02.587Z</time>
      </trkpt>
      <trkpt lat="45.822305" lon="9.055808">
        <ele>336.144857</ele>
        <time>2026-05-02T08:43:05.578Z</time>
      </trkpt>
      <trkpt lat="45.822206" lon="9.055890">
        <ele>334.970505</ele>
        <time>2026-05-02T08:43:08.580Z</time>
      </trkpt>
      <trkpt lat="45.822106" lon="9.056010">
        <ele>333.631264</ele>
        <time>2026-05-02T08:43:11.580Z</time>
      </trkpt>
      <trkpt lat="45.822037" lon="9.056102">
        <ele>332.663613</ele>
        <time>2026-05-02T08:43:13.580Z</time>
      </trkpt>
      <trkpt lat="45.821967" lon="9.056189">
        <ele>331.712222</ele>
        <time>2026-05-02T08:43:15.579Z</time>
      </trkpt>
      <trkpt lat="45.821902" lon="9.056281">
        <ele>330.774257</ele>
        <time>2026-05-02T08:43:17.583Z</time>
      </trkpt>
      <trkpt lat="45.821818" lon="9.056371">
        <ele>329.697261</ele>
        <time>2026-05-02T08:43:19.582Z</time>
      </trkpt>
      <trkpt lat="45.821707" lon="9.056449">
        <ele>328.427507</ele>
        <time>2026-05-02T08:43:21.584Z</time>
      </trkpt>
      <trkpt lat="45.821587" lon="9.056491">
        <ele>327.158544</ele>
        <time>2026-05-02T08:43:23.585Z</time>
      </trkpt>
      <trkpt lat="45.821474" lon="9.056521">
        <ele>325.977936</ele>
        <time>2026-05-02T08:43:25.589Z</time>
      </trkpt>
      <trkpt lat="45.821364" lon="9.056565">
        <ele>324.804765</ele>
        <time>2026-05-02T08:43:27.582Z</time>
      </trkpt>
      <trkpt lat="45.821257" lon="9.056623">
        <ele>323.629681</ele>
        <time>2026-05-02T08:43:29.580Z</time>
      </trkpt>
      <trkpt lat="45.821152" lon="9.056691">
        <ele>322.446188</ele>
        <time>2026-05-02T08:43:31.589Z</time>
      </trkpt>
      <trkpt lat="45.821058" lon="9.056769">
        <ele>321.330634</ele>
        <time>2026-05-02T08:43:33.587Z</time>
      </trkpt>
      <trkpt lat="45.820950" lon="9.056862">
        <ele>319.910774</ele>
        <time>2026-05-02T08:43:35.583Z</time>
      </trkpt>
      <trkpt lat="45.820856" lon="9.056980">
        <ele>318.233118</ele>
        <time>2026-05-02T08:43:37.588Z</time>
      </trkpt>
      <trkpt lat="45.820761" lon="9.057120">
        <ele>316.403899</ele>
        <time>2026-05-02T08:43:39.579Z</time>
      </trkpt>
      <trkpt lat="45.820673" lon="9.057274">
        <ele>314.539600</ele>
        <time>2026-05-02T08:43:41.587Z</time>
      </trkpt>
      <trkpt lat="45.820596" lon="9.057431">
        <ele>312.742411</ele>
        <time>2026-05-02T08:43:43.587Z</time>
      </trkpt>
      <trkpt lat="45.820524" lon="9.057582">
        <ele>311.029658</ele>
        <time>2026-05-02T08:43:45.587Z</time>
      </trkpt>
      <trkpt lat="45.820456" lon="9.057734">
        <ele>309.338790</ele>
        <time>2026-05-02T08:43:47.587Z</time>
      </trkpt>
      <trkpt lat="45.820388" lon="9.057882">
        <ele>307.679308</ele>
        <time>2026-05-02T08:43:49.585Z</time>
      </trkpt>
      <trkpt lat="45.820323" lon="9.058020">
        <ele>306.120060</ele>
        <time>2026-05-02T08:43:51.578Z</time>
      </trkpt>
      <trkpt lat="45.820240" lon="9.058142">
        <ele>304.524009</ele>
        <time>2026-05-02T08:43:53.585Z</time>
      </trkpt>
      <trkpt lat="45.820151" lon="9.058257">
        <ele>302.915219</ele>
        <time>2026-05-02T08:43:55.588Z</time>
      </trkpt>
      <trkpt lat="45.820060" lon="9.058339">
        <ele>301.471803</ele>
        <time>2026-05-02T08:43:57.579Z</time>
      </trkpt>
      <trkpt lat="45.819974" lon="9.058440">
        <ele>299.978996</ele>
        <time>2026-05-02T08:43:59.579Z</time>
      </trkpt>
      <trkpt lat="45.819880" lon="9.058550">
        <ele>298.349663</ele>
        <time>2026-05-02T08:44:01.580Z</time>
      </trkpt>
      <trkpt lat="45.819802" lon="9.058681">
        <ele>296.736686</ele>
        <time>2026-05-02T08:44:03.575Z</time>
      </trkpt>
      <trkpt lat="45.819737" lon="9.058809">
        <ele>295.305563</ele>
        <time>2026-05-02T08:44:05.584Z</time>
      </trkpt>
      <trkpt lat="45.819677" lon="9.058955">
        <ele>293.798092</ele>
        <time>2026-05-02T08:44:07.575Z</time>
      </trkpt>
      <trkpt lat="45.819617" lon="9.059113">
        <ele>292.197766</ele>
        <time>2026-05-02T08:44:09.578Z</time>
      </trkpt>
      <trkpt lat="45.819565" lon="9.059279">
        <ele>290.579077</ele>
        <time>2026-05-02T08:44:11.590Z</time>
      </trkpt>
      <trkpt lat="45.819543" lon="9.059450">
        <ele>289.032505</ele>
        <time>2026-05-02T08:44:13.588Z</time>
      </trkpt>
      <trkpt lat="45.819532" lon="9.059608">
        <ele>287.620258</ele>
        <time>2026-05-02T08:44:15.585Z</time>
      </trkpt>
      <trkpt lat="45.819508" lon="9.059750">
        <ele>286.320700</ele>
        <time>2026-05-02T08:44:17.588Z</time>
      </trkpt>
      <trkpt lat="45.819484" lon="9.059890">
        <ele>285.038421</ele>
        <time>2026-05-02T08:44:19.586Z</time>
      </trkpt>
      <trkpt lat="45.819474" lon="9.060089">
        <ele>283.263917</ele>
        <time>2026-05-02T08:44:22.589Z</time>
      </trkpt>
      <trkpt lat="45.819475" lon="9.060230">
        <ele>282.009796</ele>
        <time>2026-05-02T08:44:24.586Z</time>
      </trkpt>
      <trkpt lat="45.819482" lon="9.060378">
        <ele>280.690454</ele>
        <time>2026-05-02T08:44:26.579Z</time>
      </trkpt>
      <trkpt lat="45.819509" lon="9.060522">
        <ele>279.364175</ele>
        <time>2026-05-02T08:44:28.581Z</time>
      </trkpt>
      <trkpt lat="45.819549" lon="9.060653">
        <ele>278.092138</ele>
        <time>2026-05-02T08:44:30.583Z</time>
      </trkpt>
      <trkpt lat="45.819572" lon="9.060810">
        <ele>276.665263</ele>
        <time>2026-05-02T08:44:33.575Z</time>
      </trkpt>
      <trkpt lat="45.819532" lon="9.060942">
        <ele>275.385076</ele>
        <time>2026-05-02T08:44:38.589Z</time>
      </trkpt>
      <trkpt lat="45.819484" lon="9.061058">
        <ele>274.185219</ele>
        <time>2026-05-02T08:44:40.585Z</time>
      </trkpt>
      <trkpt lat="45.819433" lon="9.061200">
        <ele>272.984296</ele>
        <time>2026-05-02T08:44:42.588Z</time>
      </trkpt>
      <trkpt lat="45.819378" lon="9.061354">
        <ele>272.042081</ele>
        <time>2026-05-02T08:44:44.580Z</time>
      </trkpt>
      <trkpt lat="45.819321" lon="9.061516">
        <ele>271.053956</ele>
        <time>2026-05-02T08:44:46.583Z</time>
      </trkpt>
      <trkpt lat="45.819261" lon="9.061686">
        <ele>270.016380</ele>
        <time>2026-05-02T08:44:48.581Z</time>
      </trkpt>
      <trkpt lat="45.819205" lon="9.061850">
        <ele>269.021981</ele>
        <time>2026-05-02T08:44:50.582Z</time>
      </trkpt>
      <trkpt lat="45.819142" lon="9.062005">
        <ele>268.044967</ele>
        <time>2026-05-02T08:44:52.579Z</time>
      </trkpt>
      <trkpt lat="45.819087" lon="9.062168">
        <ele>267.058883</ele>
        <time>2026-05-02T08:44:54.576Z</time>
      </trkpt>
      <trkpt lat="45.819030" lon="9.062323">
        <ele>266.104623</ele>
        <time>2026-05-02T08:44:56.583Z</time>
      </trkpt>
      <trkpt lat="45.818979" lon="9.062468">
        <ele>265.220250</ele>
        <time>2026-05-02T08:44:58.582Z</time>
      </trkpt>
      <trkpt lat="45.818931" lon="9.062607">
        <ele>264.375581</ele>
        <time>2026-05-02T08:45:00.585Z</time>
      </trkpt>
      <trkpt lat="45.818884" lon="9.062731">
        <ele>263.607006</ele>
        <time>2026-05-02T08:45:02.586Z</time>
      </trkpt>
      <trkpt lat="45.818847" lon="9.062853">
        <ele>262.882543</ele>
        <time>2026-05-02T08:45:04.585Z</time>
      </trkpt>
      <trkpt lat="45.818824" lon="9.062988">
        <ele>262.125821</ele>
        <time>2026-05-02T08:45:07.579Z</time>
      </trkpt>
      <trkpt lat="45.818806" lon="9.063162">
        <ele>261.168009</ele>
        <time>2026-05-02T08:45:17.584Z</time>
      </trkpt>
      <trkpt lat="45.818871" lon="9.063293">
        <ele>260.292401</ele>
        <time>2026-05-02T08:45:20.582Z</time>
      </trkpt>
      <trkpt lat="45.819005" lon="9.063293">
        <ele>259.262782</ele>
        <time>2026-05-02T08:45:23.583Z</time>
      </trkpt>
      <trkpt lat="45.819101" lon="9.063291">
        <ele>258.901494</ele>
        <time>2026-05-02T08:45:25.583Z</time>
      </trkpt>
      <trkpt lat="45.819201" lon="9.063302">
        <ele>258.524089</ele>
        <time>2026-05-02T08:45:27.582Z</time>
      </trkpt>
      <trkpt lat="45.819310" lon="9.063321">
        <ele>258.110904</ele>
        <time>2026-05-02T08:45:29.582Z</time>
      </trkpt>
      <trkpt lat="45.819413" lon="9.063368">
        <ele>257.704186</ele>
        <time>2026-05-02T08:45:31.580Z</time>
      </trkpt>
      <trkpt lat="45.819513" lon="9.063440">
        <ele>257.283167</ele>
        <time>2026-05-02T08:45:33.579Z</time>
      </trkpt>
      <trkpt lat="45.819615" lon="9.063523">
        <ele>256.841915</ele>
        <time>2026-05-02T08:45:35.581Z</time>
      </trkpt>
      <trkpt lat="45.819703" lon="9.063632">
        <ele>256.404456</ele>
        <time>2026-05-02T08:45:37.580Z</time>
      </trkpt>
      <trkpt lat="45.819785" lon="9.063759">
        <ele>255.950427</ele>
        <time>2026-05-02T08:45:39.580Z</time>
      </trkpt>
      <trkpt lat="45.819848" lon="9.063907">
        <ele>255.495621</ele>
        <time>2026-05-02T08:45:41.591Z</time>
      </trkpt>
      <trkpt lat="45.819907" lon="9.064058">
        <ele>255.041631</ele>
        <time>2026-05-02T08:45:43.580Z</time>
      </trkpt>
      <trkpt lat="45.819962" lon="9.064215">
        <ele>254.580806</ele>
        <time>2026-05-02T08:45:45.580Z</time>
      </trkpt>
      <trkpt lat="45.820013" lon="9.064380">
        <ele>254.107444</ele>
        <time>2026-05-02T08:45:47.594Z</time>
      </trkpt>
      <trkpt lat="45.820071" lon="9.064551">
        <ele>253.608706</ele>
        <time>2026-05-02T08:45:49.580Z</time>
      </trkpt>
      <trkpt lat="45.820133" lon="9.064736">
        <ele>253.070361</ele>
        <time>2026-05-02T08:45:51.580Z</time>
      </trkpt>
      <trkpt lat="45.820199" lon="9.064924">
        <ele>252.518311</ele>
        <time>2026-05-02T08:45:53.575Z</time>
      </trkpt>
      <trkpt lat="45.820260" lon="9.065109">
        <ele>251.990114</ele>
        <time>2026-05-02T08:45:55.580Z</time>
      </trkpt>
      <trkpt lat="45.820320" lon="9.065292">
        <ele>251.468290</ele>
        <time>2026-05-02T08:45:57.580Z</time>
      </trkpt>
      <trkpt lat="45.820385" lon="9.065476">
        <ele>250.936020</ele>
        <time>2026-05-02T08:45:59.579Z</time>
      </trkpt>
      <trkpt lat="45.820445" lon="9.065662">
        <ele>250.407183</ele>
        <time>2026-05-02T08:46:01.576Z</time>
      </trkpt>
      <trkpt lat="45.820508" lon="9.065847">
        <ele>249.875904</ele>
        <time>2026-05-02T08:46:03.584Z</time>
      </trkpt>
      <trkpt lat="45.820573" lon="9.066038">
        <ele>249.327465</ele>
        <time>2026-05-02T08:46:05.588Z</time>
      </trkpt>
      <trkpt lat="45.820634" lon="9.066214">
        <ele>248.820290</ele>
        <time>2026-05-02T08:46:07.579Z</time>
      </trkpt>
      <trkpt lat="45.820692" lon="9.066364">
        <ele>248.377680</ele>
        <time>2026-05-02T08:46:09.584Z</time>
      </trkpt>
      <trkpt lat="45.820751" lon="9.066471">
        <ele>248.025634</ele>
        <time>2026-05-02T08:46:11.580Z</time>
      </trkpt>
      <trkpt lat="45.820756" lon="9.066602">
        <ele>247.687121</ele>
        <time>2026-05-02T08:46:17.583Z</time>
      </trkpt>
      <trkpt lat="45.820652" lon="9.066554">
        <ele>247.282648</ele>
        <time>2026-05-02T08:46:24.583Z</time>
      </trkpt>
      <trkpt lat="45.820585" lon="9.066446">
        <ele>246.909573</ele>
        <time>2026-05-02T08:46:28.576Z</time>
      </trkpt>
      <trkpt lat="45.820505" lon="9.066386">
        <ele>246.575365</ele>
        <time>2026-05-02T08:46:32.581Z</time>
      </trkpt>
      <trkpt lat="45.820394" lon="9.066372">
        <ele>246.162818</ele>
        <time>2026-05-02T08:46:36.581Z</time>
      </trkpt>
      <trkpt lat="45.820281" lon="9.066320">
        <ele>245.805463</ele>
        <time>2026-05-02T08:46:40.578Z</time>
      </trkpt>
      <trkpt lat="45.820193" lon="9.066276">
        <ele>245.681741</ele>
        <time>2026-05-02T08:46:43.586Z</time>
      </trkpt>
      <trkpt lat="45.820095" lon="9.066254">
        <ele>245.550049</ele>
        <time>2026-05-02T08:46:46.586Z</time>
      </trkpt>
      <trkpt lat="45.819997" lon="9.066265">
        <ele>245.419542</ele>
        <time>2026-05-02T08:46:49.580Z</time>
      </trkpt>
      <trkpt lat="45.819904" lon="9.066254">
        <ele>245.295652</ele>
        <time>2026-05-02T08:46:52.583Z</time>
      </trkpt>
      <trkpt lat="45.819797" lon="9.066216">
        <ele>245.149307</ele>
        <time>2026-05-02T08:46:56.576Z</time>
      </trkpt>
      <trkpt lat="45.819704" lon="9.066170">
        <ele>245.018706</ele>
        <time>2026-05-02T08:47:01.585Z</time>
      </trkpt>
      <trkpt lat="45.819616" lon="9.066242">
        <ele>244.884214</ele>
        <time>2026-05-02T08:47:09.579Z</time>
      </trkpt>
      <trkpt lat="45.819608" lon="9.066373">
        <ele>244.762540</ele>
        <time>2026-05-02T08:47:15.584Z</time>
      </trkpt>
      <trkpt lat="45.819609" lon="9.066514">
        <ele>244.632071</ele>
        <time>2026-05-02T08:47:22.582Z</time>
      </trkpt>
      <trkpt lat="45.819618" lon="9.066662">
        <ele>244.494612</ele>
        <time>2026-05-02T08:47:30.581Z</time>
      </trkpt>
      <trkpt lat="45.819647" lon="9.066806">
        <ele>244.355923</ele>
        <time>2026-05-02T08:47:37.595Z</time>
      </trkpt>
      <trkpt lat="45.819552" lon="9.066791">
        <ele>244.229035</ele>
        <time>2026-05-02T08:49:41.579Z</time>
      </trkpt>
      <trkpt lat="45.819457" lon="9.066783">
        <ele>244.102691</ele>
        <time>2026-05-02T08:49:47.587Z</time>
      </trkpt>
      <trkpt lat="45.819351" lon="9.066823">
        <ele>243.957175</ele>
        <time>2026-05-02T08:51:17.583Z</time>
      </trkpt>
      <trkpt lat="45.819265" lon="9.066778">
        <ele>243.835643</ele>
        <time>2026-05-02T08:51:25.583Z</time>
      </trkpt>
      <trkpt lat="45.819174" lon="9.066720">
        <ele>243.703444</ele>
        <time>2026-05-02T08:51:32.582Z</time>
      </trkpt>
      <trkpt lat="45.819120" lon="9.066604">
        <ele>243.574371</ele>
        <time>2026-05-02T08:51:43.584Z</time>
      </trkpt>
      <trkpt lat="45.819023" lon="9.066592">
        <ele>243.462400</ele>
        <time>2026-05-02T08:51:51.577Z</time>
      </trkpt>
      <trkpt lat="45.818988" lon="9.066711">
        <ele>243.456214</ele>
        <time>2026-05-02T08:52:01.589Z</time>
      </trkpt>
      <trkpt lat="45.818903" lon="9.066779">
        <ele>243.449527</ele>
        <time>2026-05-02T08:52:09.582Z</time>
      </trkpt>
      <trkpt lat="45.818872" lon="9.066903">
        <ele>243.443217</ele>
        <time>2026-05-02T08:52:18.588Z</time>
      </trkpt>
      <trkpt lat="45.818764" lon="9.066864">
        <ele>243.435564</ele>
        <time>2026-05-02T08:53:11.581Z</time>
      </trkpt>
      <trkpt lat="45.818667" lon="9.066860">
        <ele>243.428895</ele>
        <time>2026-05-02T08:53:19.586Z</time>
      </trkpt>
      <trkpt lat="45.818575" lon="9.066866">
        <ele>243.422566</ele>
        <time>2026-05-02T08:53:26.582Z</time>
      </trkpt>
      <trkpt lat="45.818483" lon="9.066862">
        <ele>243.416241</ele>
        <time>2026-05-02T08:53:33.579Z</time>
      </trkpt>
      <trkpt lat="45.818447" lon="9.066740">
        <ele>243.409896</ele>
        <time>2026-05-02T08:53:40.583Z</time>
      </trkpt>
      <trkpt lat="45.818359" lon="9.066694">
        <ele>243.403460</ele>
        <time>2026-05-02T08:53:49.580Z</time>
      </trkpt>
      <trkpt lat="45.818267" lon="9.066682">
        <ele>243.397111</ele>
        <time>2026-05-02T08:53:55.577Z</time>
      </trkpt>
      <trkpt lat="45.818166" lon="9.066706">
        <ele>243.390076</ele>
        <time>2026-05-02T08:54:04.579Z</time>
      </trkpt>
      <trkpt lat="45.818087" lon="9.066783">
        <ele>243.383513</ele>
        <time>2026-05-02T08:54:09.580Z</time>
      </trkpt>
      <trkpt lat="45.817997" lon="9.066807">
        <ele>243.377222</ele>
        <time>2026-05-02T08:54:14.585Z</time>
      </trkpt>
      <trkpt lat="45.817906" lon="9.066831">
        <ele>243.370864</ele>
        <time>2026-05-02T08:54:19.586Z</time>
      </trkpt>
      <trkpt lat="45.817813" lon="9.066868">
        <ele>243.364232</ele>
        <time>2026-05-02T08:54:24.573Z</time>
      </trkpt>
      <trkpt lat="45.817721" lon="9.066899">
        <ele>243.357737</ele>
        <time>2026-05-02T08:54:32.577Z</time>
      </trkpt>
      <trkpt lat="45.817628" lon="9.066926">
        <ele>243.351217</ele>
        <time>2026-05-02T08:54:40.592Z</time>
      </trkpt>
      <trkpt lat="45.817532" lon="9.066967">
        <ele>243.344333</ele>
        <time>2026-05-02T08:54:50.583Z</time>
      </trkpt>
      <trkpt lat="45.817435" lon="9.066985">
        <ele>243.350765</ele>
        <time>2026-05-02T08:54:57.579Z</time>
      </trkpt>
      <trkpt lat="45.817351" lon="9.067057">
        <ele>243.385605</ele>
        <time>2026-05-02T08:55:03.587Z</time>
      </trkpt>
      <trkpt lat="45.817255" lon="9.067098">
        <ele>243.421271</ele>
        <time>2026-05-02T08:55:09.581Z</time>
      </trkpt>
      <trkpt lat="45.817167" lon="9.067159">
        <ele>243.456070</ele>
        <time>2026-05-02T08:55:15.580Z</time>
      </trkpt>
      <trkpt lat="45.817096" lon="9.067239">
        <ele>243.488215</ele>
        <time>2026-05-02T08:55:20.579Z</time>
      </trkpt>
      <trkpt lat="45.817004" lon="9.067275">
        <ele>243.522170</ele>
        <time>2026-05-02T08:55:24.579Z</time>
      </trkpt>
      <trkpt lat="45.816910" lon="9.067232">
        <ele>243.557300</ele>
        <time>2026-05-02T08:55:30.579Z</time>
      </trkpt>
      <trkpt lat="45.816810" lon="9.067270">
        <ele>243.594135</ele>
        <time>2026-05-02T08:55:38.579Z</time>
      </trkpt>
      <trkpt lat="45.816733" lon="9.067355">
        <ele>243.628728</ele>
        <time>2026-05-02T08:55:43.580Z</time>
      </trkpt>
      <trkpt lat="45.816633" lon="9.067407">
        <ele>243.666602</ele>
        <time>2026-05-02T08:55:48.582Z</time>
      </trkpt>
      <trkpt lat="45.816543" lon="9.067425">
        <ele>243.698958</ele>
        <time>2026-05-02T08:55:52.574Z</time>
      </trkpt>
      <trkpt lat="45.816442" lon="9.067437">
        <ele>243.735044</ele>
        <time>2026-05-02T08:55:57.580Z</time>
      </trkpt>
      <trkpt lat="45.816356" lon="9.067392">
        <ele>243.767639</ele>
        <time>2026-05-02T08:56:02.578Z</time>
      </trkpt>
      <trkpt lat="45.816278" lon="9.067325">
        <ele>243.800009</ele>
        <time>2026-05-02T08:56:09.579Z</time>
      </trkpt>
      <trkpt lat="45.816176" lon="9.067369">
        <ele>243.837935</ele>
        <time>2026-05-02T08:56:16.588Z</time>
      </trkpt>
      <trkpt lat="45.816085" lon="9.067326">
        <ele>243.872049</ele>
        <time>2026-05-02T08:56:21.577Z</time>
      </trkpt>
      <trkpt lat="45.816005" lon="9.067264">
        <ele>243.904425</ele>
        <time>2026-05-02T08:56:30.580Z</time>
      </trkpt>
      <trkpt lat="45.815910" lon="9.067354">
        <ele>243.944960</ele>
        <time>2026-05-02T08:57:58.586Z</time>
      </trkpt>
      <trkpt lat="45.815804" lon="9.067499">
        <ele>243.985755</ele>
        <time>2026-05-02T08:59:52.574Z</time>
      </trkpt>
      <trkpt lat="45.815736" lon="9.067610">
        <ele>243.997826</ele>
        <time>2026-05-02T08:59:58.578Z</time>
      </trkpt>
      <trkpt lat="45.815662" lon="9.067709">
        <ele>244.009683</ele>
        <time>2026-05-02T09:00:05.577Z</time>
      </trkpt>
      <trkpt lat="45.815597" lon="9.067815">
        <ele>244.021215</ele>
        <time>2026-05-02T09:00:11.576Z</time>
      </trkpt>
      <trkpt lat="45.815514" lon="9.067900">
        <ele>244.033165</ele>
        <time>2026-05-02T09:00:17.578Z</time>
      </trkpt>
      <trkpt lat="45.815447" lon="9.067995">
        <ele>244.044204</ele>
        <time>2026-05-02T09:00:22.580Z</time>
      </trkpt>
      <trkpt lat="45.815379" lon="9.068081">
        <ele>244.054827</ele>
        <time>2026-05-02T09:00:27.581Z</time>
      </trkpt>
      <trkpt lat="45.815323" lon="9.068186">
        <ele>244.065626</ele>
        <time>2026-05-02T09:00:33.581Z</time>
      </trkpt>
      <trkpt lat="45.815301" lon="9.068325">
        <ele>244.077269</ele>
        <time>2026-05-02T09:00:39.580Z</time>
      </trkpt>
      <trkpt lat="45.815261" lon="9.068448">
        <ele>244.088355</ele>
        <time>2026-05-02T09:00:44.580Z</time>
      </trkpt>
      <trkpt lat="45.815202" lon="9.068551">
        <ele>244.099244</ele>
        <time>2026-05-02T09:00:50.578Z</time>
      </trkpt>
      <trkpt lat="45.815158" lon="9.068670">
        <ele>244.110247</ele>
        <time>2026-05-02T09:00:56.578Z</time>
      </trkpt>
      <trkpt lat="45.815095" lon="9.068764">
        <ele>244.120899</ele>
        <time>2026-05-02T09:01:02.578Z</time>
      </trkpt>
      <trkpt lat="45.815014" lon="9.068842">
        <ele>244.132331</ele>
        <time>2026-05-02T09:01:08.580Z</time>
      </trkpt>
      <trkpt lat="45.814934" lon="9.068911">
        <ele>244.143270</ele>
        <time>2026-05-02T09:01:13.582Z</time>
      </trkpt>
      <trkpt lat="45.814832" lon="9.069018">
        <ele>244.158077</ele>
        <time>2026-05-02T09:01:59.583Z</time>
      </trkpt>
      <trkpt lat="45.814746" lon="9.069098">
        <ele>244.170089</ele>
        <time>2026-05-02T09:02:07.581Z</time>
      </trkpt>
      <trkpt lat="45.814671" lon="9.069183">
        <ele>244.181289</ele>
        <time>2026-05-02T09:02:12.579Z</time>
      </trkpt>
      <trkpt lat="45.814594" lon="9.069260">
        <ele>244.187722</ele>
        <time>2026-05-02T09:02:17.579Z</time>
      </trkpt>
      <trkpt lat="45.814521" lon="9.069377">
        <ele>244.156158</ele>
        <time>2026-05-02T09:02:22.589Z</time>
      </trkpt>
      <trkpt lat="45.814453" lon="9.069469">
        <ele>244.129204</ele>
        <time>2026-05-02T09:02:27.578Z</time>
      </trkpt>
      <trkpt lat="45.814398" lon="9.069583">
        <ele>244.101335</ele>
        <time>2026-05-02T09:02:33.579Z</time>
      </trkpt>
      <trkpt lat="45.814355" lon="9.069709">
        <ele>244.073136</ele>
        <time>2026-05-02T09:02:38.579Z</time>
      </trkpt>
      <trkpt lat="45.814307" lon="9.069849">
        <ele>244.041775</ele>
        <time>2026-05-02T09:02:43.570Z</time>
      </trkpt>
      <trkpt lat="45.814270" lon="9.069985">
        <ele>244.012430</ele>
        <time>2026-05-02T09:02:48.577Z</time>
      </trkpt>
      <trkpt lat="45.814303" lon="9.070213">
        <ele>243.965623</ele>
        <time>2026-05-02T09:03:18.584Z</time>
      </trkpt>
      <trkpt lat="45.814309" lon="9.070359">
        <ele>243.936226</ele>
        <time>2026-05-02T09:03:28.587Z</time>
      </trkpt>
      <trkpt lat="45.814219" lon="9.070372">
        <ele>243.910139</ele>
        <time>2026-05-02T09:04:25.593Z</time>
      </trkpt>
      <trkpt lat="45.814119" lon="9.070392">
        <ele>243.881022</ele>
        <time>2026-05-02T09:04:31.577Z</time>
      </trkpt>
      <trkpt lat="45.814088" lon="9.070536">
        <ele>243.850728</ele>
        <time>2026-05-02T09:04:37.576Z</time>
      </trkpt>
      <trkpt lat="45.814110" lon="9.070677">
        <ele>243.821685</ele>
        <time>2026-05-02T09:04:42.582Z</time>
      </trkpt>
      <trkpt lat="45.814161" lon="9.070786">
        <ele>243.795296</ele>
        <time>2026-05-02T09:04:47.575Z</time>
      </trkpt>
      <trkpt lat="45.814248" lon="9.070836">
        <ele>243.768268</ele>
        <time>2026-05-02T09:04:51.575Z</time>
      </trkpt>
      <trkpt lat="45.814356" lon="9.070856">
        <ele>243.736864</ele>
        <time>2026-05-02T09:04:55.580Z</time>
      </trkpt>
      <trkpt lat="45.814400" lon="9.071027">
        <ele>243.700225</ele>
        <time>2026-05-02T09:06:21.576Z</time>
      </trkpt>
      <trkpt lat="45.814401" lon="9.071157">
        <ele>243.674093</ele>
        <time>2026-05-02T09:06:26.575Z</time>
      </trkpt>
      <trkpt lat="45.814397" lon="9.071307">
        <ele>243.709369</ele>
        <time>2026-05-02T09:06:31.569Z</time>
      </trkpt>
      <trkpt lat="45.814399" lon="9.071455">
        <ele>243.748333</ele>
        <time>2026-05-02T09:06:35.574Z</time>
      </trkpt>
      <trkpt lat="45.814411" lon="9.071586">
        <ele>243.783111</ele>
        <time>2026-05-02T09:06:39.573Z</time>
      </trkpt>
      <trkpt lat="45.814417" lon="9.071743">
        <ele>243.824499</ele>
        <time>2026-05-02T09:06:44.575Z</time>
      </trkpt>
      <trkpt lat="45.814420" lon="9.071899">
        <ele>243.865577</ele>
        <time>2026-05-02T09:06:48.570Z</time>
      </trkpt>
      <trkpt lat="45.814424" lon="9.072040">
        <ele>243.902722</ele>
        <time>2026-05-02T09:06:52.572Z</time>
      </trkpt>
      <trkpt lat="45.814450" lon="9.072362">
        <ele>243.988046</ele>
        <time>2026-05-02T09:07:21.581Z</time>
      </trkpt>
      <trkpt lat="45.814480" lon="9.072513">
        <ele>244.029376</ele>
        <time>2026-05-02T09:07:25.572Z</time>
      </trkpt>
      <trkpt lat="45.814506" lon="9.072644">
        <ele>244.065229</ele>
        <time>2026-05-02T09:07:29.575Z</time>
      </trkpt>
      <trkpt lat="45.814539" lon="9.072781">
        <ele>244.103383</ele>
        <time>2026-05-02T09:07:33.579Z</time>
      </trkpt>
      <trkpt lat="45.814578" lon="9.072900">
        <ele>244.137996</ele>
        <time>2026-05-02T09:07:39.585Z</time>
      </trkpt>
      <trkpt lat="45.814588" lon="9.073047">
        <ele>244.176873</ele>
        <time>2026-05-02T09:07:47.589Z</time>
      </trkpt>
      <trkpt lat="45.814595" lon="9.073187">
        <ele>244.213819</ele>
        <time>2026-05-02T09:07:51.576Z</time>
      </trkpt>
      <trkpt lat="45.814607" lon="9.073319">
        <ele>244.248858</ele>
        <time>2026-05-02T09:07:55.568Z</time>
      </trkpt>
      <trkpt lat="45.814603" lon="9.073476">
        <ele>244.290211</ele>
        <time>2026-05-02T09:08:00.574Z</time>
      </trkpt>
      <trkpt lat="45.814595" lon="9.073628">
        <ele>244.330335</ele>
        <time>2026-05-02T09:08:04.574Z</time>
      </trkpt>
      <trkpt lat="45.814623" lon="9.073765">
        <ele>244.307048</ele>
        <time>2026-05-02T09:08:08.575Z</time>
      </trkpt>
      <trkpt lat="45.814664" lon="9.073907">
        <ele>244.197220</ele>
        <time>2026-05-02T09:08:13.574Z</time>
      </trkpt>
      <trkpt lat="45.814692" lon="9.074053">
        <ele>244.089017</ele>
        <time>2026-05-02T09:08:18.578Z</time>
      </trkpt>
      <trkpt lat="45.814719" lon="9.074199">
        <ele>243.981083</ele>
        <time>2026-05-02T09:08:23.574Z</time>
      </trkpt>
      <trkpt lat="45.814753" lon="9.074337">
        <ele>243.876495</ele>
        <time>2026-05-02T09:08:30.575Z</time>
      </trkpt>
      <trkpt lat="45.814777" lon="9.074462">
        <ele>243.783848</ele>
        <time>2026-05-02T09:08:34.582Z</time>
      </trkpt>
      <trkpt lat="45.814811" lon="9.074594">
        <ele>243.683292</ele>
        <time>2026-05-02T09:08:38.576Z</time>
      </trkpt>
      <trkpt lat="45.814792" lon="9.074724">
        <ele>243.588380</ele>
        <time>2026-05-02T09:08:42.573Z</time>
      </trkpt>
      <trkpt lat="45.814753" lon="9.074850">
        <ele>243.489867</ele>
        <time>2026-05-02T09:08:46.573Z</time>
      </trkpt>
      <trkpt lat="45.814804" lon="9.074971">
        <ele>243.388826</ele>
        <time>2026-05-02T09:08:51.572Z</time>
      </trkpt>
      <trkpt lat="45.814904" lon="9.074974">
        <ele>243.286283</ele>
        <time>2026-05-02T09:08:55.571Z</time>
      </trkpt>
      <trkpt lat="45.814977" lon="9.075053">
        <ele>243.192540</ele>
        <time>2026-05-02T09:09:00.571Z</time>
      </trkpt>
      <trkpt lat="45.815036" lon="9.075172">
        <ele>243.088189</ele>
        <time>2026-05-02T09:09:06.578Z</time>
      </trkpt>
      <trkpt lat="45.815051" lon="9.075315">
        <ele>242.984858</ele>
        <time>2026-05-02T09:09:14.585Z</time>
      </trkpt>
      <trkpt lat="45.815012" lon="9.075453">
        <ele>242.878452</ele>
        <time>2026-05-02T09:09:20.578Z</time>
      </trkpt>
      <trkpt lat="45.814922" lon="9.075532">
        <ele>242.770285</ele>
        <time>2026-05-02T09:09:26.583Z</time>
      </trkpt>
      <trkpt lat="45.814885" lon="9.075662">
        <ele>242.669946</ele>
        <time>2026-05-02T09:09:32.574Z</time>
      </trkpt>
      <trkpt lat="45.814790" lon="9.075719">
        <ele>242.564378</ele>
        <time>2026-05-02T09:09:38.582Z</time>
      </trkpt>
      <trkpt lat="45.814695" lon="9.075735">
        <ele>242.487611</ele>
        <time>2026-05-02T09:09:43.578Z</time>
      </trkpt>
      <trkpt lat="45.814598" lon="9.075793">
        <ele>242.435538</ele>
        <time>2026-05-02T09:09:48.572Z</time>
      </trkpt>
      <trkpt lat="45.814507" lon="9.075835">
        <ele>242.388169</ele>
        <time>2026-05-02T09:09:53.571Z</time>
      </trkpt>
      <trkpt lat="45.814416" lon="9.075880">
        <ele>242.340472</ele>
        <time>2026-05-02T09:09:59.580Z</time>
      </trkpt>
      <trkpt lat="45.814329" lon="9.075943">
        <ele>242.292182</ele>
        <time>2026-05-02T09:10:05.574Z</time>
      </trkpt>
      <trkpt lat="45.814238" lon="9.076030">
        <ele>242.237994</ele>
        <time>2026-05-02T09:10:11.576Z</time>
      </trkpt>
      <trkpt lat="45.814144" lon="9.076076">
        <ele>242.188779</ele>
        <time>2026-05-02T09:10:16.593Z</time>
      </trkpt>
      <trkpt lat="45.814057" lon="9.076153">
        <ele>242.138126</ele>
        <time>2026-05-02T09:10:21.577Z</time>
      </trkpt>
      <trkpt lat="45.813973" lon="9.076198">
        <ele>242.093694</ele>
        <time>2026-05-02T09:10:26.576Z</time>
      </trkpt>
      <trkpt lat="45.813876" lon="9.076266">
        <ele>242.040197</ele>
        <time>2026-05-02T09:10:32.578Z</time>
      </trkpt>
      <trkpt lat="45.813802" lon="9.076345">
        <ele>241.994490</ele>
        <time>2026-05-02T09:10:37.585Z</time>
      </trkpt>
      <trkpt lat="45.813731" lon="9.076444">
        <ele>241.945429</ele>
        <time>2026-05-02T09:10:44.579Z</time>
      </trkpt>
      <trkpt lat="45.813774" lon="9.076562">
        <ele>241.899440</ele>
        <time>2026-05-02T09:10:49.580Z</time>
      </trkpt>
      <trkpt lat="45.813827" lon="9.076688">
        <ele>241.848611</ele>
        <time>2026-05-02T09:10:55.575Z</time>
      </trkpt>
      <trkpt lat="45.813884" lon="9.076805">
        <ele>241.799309</ele>
        <time>2026-05-02T09:11:02.578Z</time>
      </trkpt>
      <trkpt lat="45.813936" lon="9.076917">
        <ele>241.752830</ele>
        <time>2026-05-02T09:11:10.571Z</time>
      </trkpt>
      <trkpt lat="45.813983" lon="9.077044">
        <ele>241.703167</ele>
        <time>2026-05-02T09:11:16.579Z</time>
      </trkpt>
      <trkpt lat="45.814044" lon="9.077166">
        <ele>241.651310</ele>
        <time>2026-05-02T09:11:23.568Z</time>
      </trkpt>
      <trkpt lat="45.814089" lon="9.077284">
        <ele>241.620745</ele>
        <time>2026-05-02T09:11:29.574Z</time>
      </trkpt>
      <trkpt lat="45.814140" lon="9.077404">
        <ele>241.639869</ele>
        <time>2026-05-02T09:11:35.573Z</time>
      </trkpt>
      <trkpt lat="45.814195" lon="9.077535">
        <ele>241.660677</ele>
        <time>2026-05-02T09:11:41.581Z</time>
      </trkpt>
      <trkpt lat="45.814254" lon="9.077649">
        <ele>241.679997</ele>
        <time>2026-05-02T09:11:47.579Z</time>
      </trkpt>
      <trkpt lat="45.814309" lon="9.077767">
        <ele>241.699312</ele>
        <time>2026-05-02T09:11:53.580Z</time>
      </trkpt>
      <trkpt lat="45.814356" lon="9.077889">
        <ele>241.718279</ele>
        <time>2026-05-02T09:12:00.577Z</time>
      </trkpt>
      <trkpt lat="45.814403" lon="9.078010">
        <ele>241.737127</ele>
        <time>2026-05-02T09:12:10.584Z</time>
      </trkpt>
      <trkpt lat="45.814453" lon="9.078125">
        <ele>241.755569</ele>
        <time>2026-05-02T09:12:19.572Z</time>
      </trkpt>
      <trkpt lat="45.814504" lon="9.078243">
        <ele>241.774461</ele>
        <time>2026-05-02T09:12:29.572Z</time>
      </trkpt>
      <trkpt lat="45.814553" lon="9.078354">
        <ele>241.792338</ele>
        <time>2026-05-02T09:12:39.569Z</time>
      </trkpt>
      <trkpt lat="45.814619" lon="9.078469">
        <ele>241.812608</ele>
        <time>2026-05-02T09:12:47.587Z</time>
      </trkpt>
      <trkpt lat="45.814655" lon="9.078598">
        <ele>241.831514</ele>
        <time>2026-05-02T09:12:53.570Z</time>
      </trkpt>
      <trkpt lat="45.814709" lon="9.078704">
        <ele>241.849379</ele>
        <time>2026-05-02T09:12:58.578Z</time>
      </trkpt>
      <trkpt lat="45.814753" lon="9.078818">
        <ele>241.867110</ele>
        <time>2026-05-02T09:13:03.572Z</time>
      </trkpt>
      <trkpt lat="45.814801" lon="9.078937">
        <ele>241.885817</ele>
        <time>2026-05-02T09:13:09.575Z</time>
      </trkpt>
      <trkpt lat="45.814852" lon="9.079058">
        <ele>241.905057</ele>
        <time>2026-05-02T09:13:15.576Z</time>
      </trkpt>
      <trkpt lat="45.814906" lon="9.079172">
        <ele>241.923811</ele>
        <time>2026-05-02T09:13:21.575Z</time>
      </trkpt>
      <trkpt lat="45.814955" lon="9.079288">
        <ele>241.942267</ele>
        <time>2026-05-02T09:13:28.582Z</time>
      </trkpt>
      <trkpt lat="45.815007" lon="9.079401">
        <ele>241.960691</ele>
        <time>2026-05-02T09:13:41.575Z</time>
      </trkpt>
      <trkpt lat="45.815065" lon="9.079509">
        <ele>241.998690</ele>
        <time>2026-05-02T09:13:50.580Z</time>
      </trkpt>
      <trkpt lat="45.815110" lon="9.079644">
        <ele>242.052438</ele>
        <time>2026-05-02T09:13:56.573Z</time>
      </trkpt>
      <trkpt lat="45.815157" lon="9.079756">
        <ele>242.099392</ele>
        <time>2026-05-02T09:14:02.578Z</time>
      </trkpt>
      <trkpt lat="45.815205" lon="9.079869">
        <ele>242.146922</ele>
        <time>2026-05-02T09:14:09.578Z</time>
      </trkpt>
      <trkpt lat="45.815258" lon="9.079989">
        <ele>242.197946</ele>
        <time>2026-05-02T09:14:15.577Z</time>
      </trkpt>
      <trkpt lat="45.815310" lon="9.080115">
        <ele>242.250539</ele>
        <time>2026-05-02T09:14:23.574Z</time>
      </trkpt>
      <trkpt lat="45.815350" lon="9.080254">
        <ele>242.304551</ele>
        <time>2026-05-02T09:15:44.573Z</time>
      </trkpt>
      <trkpt lat="45.815390" lon="9.080373">
        <ele>242.352002</ele>
        <time>2026-05-02T09:15:56.578Z</time>
      </trkpt>
      <trkpt lat="45.815431" lon="9.080253">
        <ele>242.400001</ele>
        <time>2026-05-02T09:16:16.580Z</time>
      </trkpt>
      <trkpt lat="45.815350" lon="9.080182">
        <ele>242.448915</ele>
        <time>2026-05-02T09:16:29.576Z</time>
      </trkpt>
      <trkpt lat="45.815280" lon="9.080076">
        <ele>242.501362</ele>
        <time>2026-05-02T09:16:36.579Z</time>
      </trkpt>
      <trkpt lat="45.815246" lon="9.079943">
        <ele>242.552242</ele>
        <time>2026-05-02T09:16:44.570Z</time>
      </trkpt>
      <trkpt lat="45.815156" lon="9.079736">
        <ele>242.639869</ele>
        <time>2026-05-02T09:17:23.578Z</time>
      </trkpt>
      <trkpt lat="45.815106" lon="9.079619">
        <ele>242.689161</ele>
        <time>2026-05-02T09:17:28.579Z</time>
      </trkpt>
      <trkpt lat="45.815058" lon="9.079506">
        <ele>242.736690</ele>
        <time>2026-05-02T09:17:33.587Z</time>
      </trkpt>
      <trkpt lat="45.815011" lon="9.079396">
        <ele>242.783031</ele>
        <time>2026-05-02T09:17:39.580Z</time>
      </trkpt>
      <trkpt lat="45.814963" lon="9.079274">
        <ele>242.833349</ele>
        <time>2026-05-02T09:17:46.575Z</time>
      </trkpt>
      <trkpt lat="45.814912" lon="9.079163">
        <ele>242.881099</ele>
        <time>2026-05-02T09:17:52.577Z</time>
      </trkpt>
      <trkpt lat="45.814860" lon="9.079045">
        <ele>242.873183</ele>
        <time>2026-05-02T09:17:58.574Z</time>
      </trkpt>
      <trkpt lat="45.814806" lon="9.078932">
        <ele>242.845151</ele>
        <time>2026-05-02T09:18:04.576Z</time>
      </trkpt>
      <trkpt lat="45.814761" lon="9.078818">
        <ele>242.818346</ele>
        <time>2026-05-02T09:18:10.572Z</time>
      </trkpt>
      <trkpt lat="45.814716" lon="9.078704">
        <ele>242.791541</ele>
        <time>2026-05-02T09:18:19.582Z</time>
      </trkpt>
      <trkpt lat="45.814651" lon="9.078597">
        <ele>242.762500</ele>
        <time>2026-05-02T09:18:29.578Z</time>
      </trkpt>
      <trkpt lat="45.814603" lon="9.078476">
        <ele>242.734015</ele>
        <time>2026-05-02T09:18:36.581Z</time>
      </trkpt>
      <trkpt lat="45.814563" lon="9.078357">
        <ele>242.706984</ele>
        <time>2026-05-02T09:18:42.577Z</time>
      </trkpt>
      <trkpt lat="45.814517" lon="9.078244">
        <ele>242.680210</ele>
        <time>2026-05-02T09:18:48.576Z</time>
      </trkpt>
      <trkpt lat="45.814464" lon="9.078121">
        <ele>242.650624</ele>
        <time>2026-05-02T09:18:57.576Z</time>
      </trkpt>
      <trkpt lat="45.814409" lon="9.078018">
        <ele>242.624076</ele>
        <time>2026-05-02T09:19:08.567Z</time>
      </trkpt>
      <trkpt lat="45.814359" lon="9.077909">
        <ele>242.597378</ele>
        <time>2026-05-02T09:19:15.576Z</time>
      </trkpt>
      <trkpt lat="45.814301" lon="9.077782">
        <ele>242.566313</ele>
        <time>2026-05-02T09:19:22.573Z</time>
      </trkpt>
      <trkpt lat="45.814258" lon="9.077658">
        <ele>242.537976</ele>
        <time>2026-05-02T09:19:28.572Z</time>
      </trkpt>
      <trkpt lat="45.814210" lon="9.077545">
        <ele>242.510901</ele>
        <time>2026-05-02T09:19:35.578Z</time>
      </trkpt>
      <trkpt lat="45.814164" lon="9.077433">
        <ele>242.484303</ele>
        <time>2026-05-02T09:19:40.579Z</time>
      </trkpt>
      <trkpt lat="45.814108" lon="9.077312">
        <ele>242.454586</ele>
        <time>2026-05-02T09:19:46.586Z</time>
      </trkpt>
      <trkpt lat="45.814058" lon="9.077189">
        <ele>242.425452</ele>
        <time>2026-05-02T09:19:53.576Z</time>
      </trkpt>
      <trkpt lat="45.814013" lon="9.077067">
        <ele>242.397211</ele>
        <time>2026-05-02T09:19:58.577Z</time>
      </trkpt>
      <trkpt lat="45.813959" lon="9.076949">
        <ele>242.368329</ele>
        <time>2026-05-02T09:20:03.575Z</time>
      </trkpt>
      <trkpt lat="45.813909" lon="9.076834">
        <ele>242.408124</ele>
        <time>2026-05-02T09:20:10.572Z</time>
      </trkpt>
      <trkpt lat="45.813850" lon="9.076723">
        <ele>242.454708</ele>
        <time>2026-05-02T09:20:20.572Z</time>
      </trkpt>
      <trkpt lat="45.813806" lon="9.076603">
        <ele>242.499956</ele>
        <time>2026-05-02T09:20:32.569Z</time>
      </trkpt>
      <trkpt lat="45.813749" lon="9.076496">
        <ele>242.544898</ele>
        <time>2026-05-02T09:20:43.569Z</time>
      </trkpt>
      <trkpt lat="45.813654" lon="9.076441">
        <ele>242.593946</ele>
        <time>2026-05-02T09:20:50.583Z</time>
      </trkpt>
      <trkpt lat="45.813570" lon="9.076527">
        <ele>242.643354</ele>
        <time>2026-05-02T09:20:55.578Z</time>
      </trkpt>
      <trkpt lat="45.813499" lon="9.076609">
        <ele>242.686993</ele>
        <time>2026-05-02T09:21:00.569Z</time>
      </trkpt>
      <trkpt lat="45.813421" lon="9.076674">
        <ele>242.730180</ele>
        <time>2026-05-02T09:21:05.574Z</time>
      </trkpt>
      <trkpt lat="45.813340" lon="9.076747">
        <ele>242.775979</ele>
        <time>2026-05-02T09:21:10.569Z</time>
      </trkpt>
      <trkpt lat="45.813258" lon="9.076817">
        <ele>242.821663</ele>
        <time>2026-05-02T09:21:18.572Z</time>
      </trkpt>
      <trkpt lat="45.813207" lon="9.076941">
        <ele>242.869710</ele>
        <time>2026-05-02T09:21:27.572Z</time>
      </trkpt>
      <trkpt lat="45.813185" lon="9.077076">
        <ele>242.915977</ele>
        <time>2026-05-02T09:21:33.576Z</time>
      </trkpt>
      <trkpt lat="45.813146" lon="9.077192">
        <ele>242.958956</ele>
        <time>2026-05-02T09:21:39.575Z</time>
      </trkpt>
      <trkpt lat="45.813145" lon="9.077334">
        <ele>243.006345</ele>
        <time>2026-05-02T09:21:45.573Z</time>
      </trkpt>
      <trkpt lat="45.813090" lon="9.077455">
        <ele>243.054552</ele>
        <time>2026-05-02T09:21:50.568Z</time>
      </trkpt>
      <trkpt lat="45.813062" lon="9.077580">
        <ele>243.098368</ele>
        <time>2026-05-02T09:21:56.572Z</time>
      </trkpt>
      <trkpt lat="45.813050" lon="9.077727">
        <ele>243.147759</ele>
        <time>2026-05-02T09:22:06.571Z</time>
      </trkpt>
      <trkpt lat="45.813048" lon="9.077878">
        <ele>243.198159</ele>
        <time>2026-05-02T09:22:11.566Z</time>
      </trkpt>
      <trkpt lat="45.813053" lon="9.078029">
        <ele>243.216418</ele>
        <time>2026-05-02T09:22:16.573Z</time>
      </trkpt>
      <trkpt lat="45.813079" lon="9.078155">
        <ele>243.193627</ele>
        <time>2026-05-02T09:22:21.571Z</time>
      </trkpt>
      <trkpt lat="45.813083" lon="9.078293">
        <ele>243.169672</ele>
        <time>2026-05-02T09:22:28.577Z</time>
      </trkpt>
      <trkpt lat="45.813103" lon="9.078429">
        <ele>243.145566</ele>
        <time>2026-05-02T09:22:35.572Z</time>
      </trkpt>
      <trkpt lat="45.813148" lon="9.078567">
        <ele>243.119142</ele>
        <time>2026-05-02T09:22:43.574Z</time>
      </trkpt>
      <trkpt lat="45.813129" lon="9.078704">
        <ele>243.094915</ele>
        <time>2026-05-02T09:22:49.575Z</time>
      </trkpt>
      <trkpt lat="45.813140" lon="9.078856">
        <ele>243.068411</ele>
        <time>2026-05-02T09:22:55.579Z</time>
      </trkpt>
      <trkpt lat="45.813138" lon="9.079010">
        <ele>243.041698</ele>
        <time>2026-05-02T09:23:00.580Z</time>
      </trkpt>
      <trkpt lat="45.813127" lon="9.079151">
        <ele>243.017090</ele>
        <time>2026-05-02T09:23:06.579Z</time>
      </trkpt>
      <trkpt lat="45.813187" lon="9.079254">
        <ele>242.993809</ele>
        <time>2026-05-02T09:23:12.578Z</time>
      </trkpt>
      <trkpt lat="45.813242" lon="9.079361">
        <ele>242.970751</ele>
        <time>2026-05-02T09:23:19.577Z</time>
      </trkpt>
      <trkpt lat="45.813277" lon="9.079485">
        <ele>242.947548</ele>
        <time>2026-05-02T09:23:31.575Z</time>
      </trkpt>
      <trkpt lat="45.813350" lon="9.079590">
        <ele>242.921827</ele>
        <time>2026-05-02T09:23:39.584Z</time>
      </trkpt>
      <trkpt lat="45.813359" lon="9.079731">
        <ele>242.897270</ele>
        <time>2026-05-02T09:23:44.573Z</time>
      </trkpt>
      <trkpt lat="45.813297" lon="9.079848">
        <ele>242.871780</ele>
        <time>2026-05-02T09:23:51.574Z</time>
      </trkpt>
      <trkpt lat="45.813348" lon="9.079968">
        <ele>242.847404</ele>
        <time>2026-05-02T09:24:04.578Z</time>
      </trkpt>
      <trkpt lat="45.813290" lon="9.080078">
        <ele>242.823482</ele>
        <time>2026-05-02T09:24:14.578Z</time>
      </trkpt>
      <trkpt lat="45.813132" lon="9.080190">
        <ele>242.782674</ele>
        <time>2026-05-02T09:24:50.566Z</time>
      </trkpt>
      <trkpt lat="45.813121" lon="9.080327">
        <ele>243.066082</ele>
        <time>2026-05-02T09:25:00.575Z</time>
      </trkpt>
      <trkpt lat="45.813141" lon="9.080454">
        <ele>243.333657</ele>
        <time>2026-05-02T09:25:07.577Z</time>
      </trkpt>
      <trkpt lat="45.813161" lon="9.080593">
        <ele>243.625336</ele>
        <time>2026-05-02T09:25:13.579Z</time>
      </trkpt>
      <trkpt lat="45.813161" lon="9.080723">
        <ele>243.892497</ele>
        <time>2026-05-02T09:25:18.578Z</time>
      </trkpt>
      <trkpt lat="45.813177" lon="9.080858">
        <ele>244.173915</ele>
        <time>2026-05-02T09:25:23.571Z</time>
      </trkpt>
      <trkpt lat="45.813192" lon="9.080992">
        <ele>244.452825</ele>
        <time>2026-05-02T09:25:28.576Z</time>
      </trkpt>
      <trkpt lat="45.813205" lon="9.081126">
        <ele>244.730861</ele>
        <time>2026-05-02T09:25:33.571Z</time>
      </trkpt>
      <trkpt lat="45.813229" lon="9.081259">
        <ele>245.013198</ele>
        <time>2026-05-02T09:25:39.573Z</time>
      </trkpt>
      <trkpt lat="45.813207" lon="9.081385">
        <ele>245.280139</ele>
        <time>2026-05-02T09:25:48.567Z</time>
      </trkpt>
      <trkpt lat="45.813131" lon="9.081464">
        <ele>245.556854</ele>
        <time>2026-05-02T09:26:01.579Z</time>
      </trkpt>
      <trkpt lat="45.813142" lon="9.081639">
        <ele>245.917953</ele>
        <time>2026-05-02T09:27:17.569Z</time>
      </trkpt>
      <trkpt lat="45.813122" lon="9.081485">
        <ele>246.239883</ele>
        <time>2026-05-02T09:33:29.572Z</time>
      </trkpt>
      <trkpt lat="45.812986" lon="9.081576">
        <ele>246.682340</ele>
        <time>2026-05-02T09:57:32.577Z</time>
      </trkpt>
      <trkpt lat="45.812914" lon="9.081688">
        <ele>246.995461</ele>
        <time>2026-05-02T09:58:02.569Z</time>
      </trkpt>
      <trkpt lat="45.812834" lon="9.081770">
        <ele>247.285352</ele>
        <time>2026-05-02T09:58:09.573Z</time>
      </trkpt>
      <trkpt lat="45.812763" lon="9.081857">
        <ele>247.560653</ele>
        <time>2026-05-02T09:58:16.571Z</time>
      </trkpt>
      <trkpt lat="45.812695" lon="9.081942">
        <ele>247.826572</ele>
        <time>2026-05-02T09:58:23.575Z</time>
      </trkpt>
      <trkpt lat="45.812610" lon="9.082019">
        <ele>248.063567</ele>
        <time>2026-05-02T09:58:31.581Z</time>
      </trkpt>
      <trkpt lat="45.812524" lon="9.082088">
        <ele>247.921169</ele>
        <time>2026-05-02T09:58:38.571Z</time>
      </trkpt>
      <trkpt lat="45.812464" lon="9.082190">
        <ele>247.786726</ele>
        <time>2026-05-02T09:58:46.573Z</time>
      </trkpt>
      <trkpt lat="45.812397" lon="9.082299">
        <ele>247.640335</ele>
        <time>2026-05-02T09:58:53.572Z</time>
      </trkpt>
      <trkpt lat="45.812323" lon="9.082378">
        <ele>247.507035</ele>
        <time>2026-05-02T09:58:59.578Z</time>
      </trkpt>
      <trkpt lat="45.812254" lon="9.082465">
        <ele>247.374282</ele>
        <time>2026-05-02T09:59:05.578Z</time>
      </trkpt>
      <trkpt lat="45.812183" lon="9.082556">
        <ele>247.236695</ele>
        <time>2026-05-02T09:59:12.580Z</time>
      </trkpt>
      <trkpt lat="45.812112" lon="9.082655">
        <ele>247.093612</ele>
        <time>2026-05-02T09:59:19.576Z</time>
      </trkpt>
      <trkpt lat="45.812035" lon="9.082739">
        <ele>246.953819</ele>
        <time>2026-05-02T09:59:27.574Z</time>
      </trkpt>
      <trkpt lat="45.811948" lon="9.082789">
        <ele>246.818377</ele>
        <time>2026-05-02T09:59:34.575Z</time>
      </trkpt>
      <trkpt lat="45.811876" lon="9.082872">
        <ele>246.684897</ele>
        <time>2026-05-02T09:59:42.572Z</time>
      </trkpt>
      <trkpt lat="45.811798" lon="9.082959">
        <ele>246.542116</ele>
        <time>2026-05-02T09:59:50.573Z</time>
      </trkpt>
      <trkpt lat="45.811713" lon="9.083041">
        <ele>246.394089</ele>
        <time>2026-05-02T09:59:57.576Z</time>
      </trkpt>
      <trkpt lat="45.811628" lon="9.083111">
        <ele>246.252451</ele>
        <time>2026-05-02T10:00:04.578Z</time>
      </trkpt>
      <trkpt lat="45.811537" lon="9.083174">
        <ele>246.106430</ele>
        <time>2026-05-02T10:00:11.576Z</time>
      </trkpt>
      <trkpt lat="45.811473" lon="9.083277">
        <ele>245.967437</ele>
        <time>2026-05-02T10:00:18.571Z</time>
      </trkpt>
      <trkpt lat="45.811413" lon="9.083373">
        <ele>245.837553</ele>
        <time>2026-05-02T10:00:34.579Z</time>
      </trkpt>
      <trkpt lat="45.811348" lon="9.083463">
        <ele>245.707005</ele>
        <time>2026-05-02T10:00:50.570Z</time>
      </trkpt>
      <trkpt lat="45.811270" lon="9.083528">
        <ele>245.576646</ele>
        <time>2026-05-02T10:01:00.577Z</time>
      </trkpt>
      <trkpt lat="45.811189" lon="9.083603">
        <ele>245.525381</ele>
        <time>2026-05-02T10:01:12.575Z</time>
      </trkpt>
      <trkpt lat="45.811109" lon="9.083677">
        <ele>245.648624</ele>
        <time>2026-05-02T10:01:24.581Z</time>
      </trkpt>
      <trkpt lat="45.811030" lon="9.083764">
        <ele>245.777570</ele>
        <time>2026-05-02T10:01:34.572Z</time>
      </trkpt>
      <trkpt lat="45.810954" lon="9.083843">
        <ele>245.899085</ele>
        <time>2026-05-02T10:01:43.573Z</time>
      </trkpt>
      <trkpt lat="45.810871" lon="9.083894">
        <ele>246.015991</ele>
        <time>2026-05-02T10:01:52.573Z</time>
      </trkpt>
      <trkpt lat="45.810801" lon="9.083977">
        <ele>246.133571</ele>
        <time>2026-05-02T10:02:03.571Z</time>
      </trkpt>
      <trkpt lat="45.810728" lon="9.084078">
        <ele>246.264880</ele>
        <time>2026-05-02T10:02:14.575Z</time>
      </trkpt>
      <trkpt lat="45.810653" lon="9.084154">
        <ele>246.383767</ele>
        <time>2026-05-02T10:02:24.575Z</time>
      </trkpt>
      <trkpt lat="45.810574" lon="9.084232">
        <ele>246.507934</ele>
        <time>2026-05-02T10:02:36.575Z</time>
      </trkpt>
      <trkpt lat="45.810503" lon="9.084312">
        <ele>246.624824</ele>
        <time>2026-05-02T10:02:48.576Z</time>
      </trkpt>
      <trkpt lat="45.810429" lon="9.084389">
        <ele>246.743184</ele>
        <time>2026-05-02T10:02:58.571Z</time>
      </trkpt>
      <trkpt lat="45.810349" lon="9.084453">
        <ele>246.861779</ele>
        <time>2026-05-02T10:03:10.574Z</time>
      </trkpt>
      <trkpt lat="45.810268" lon="9.084512">
        <ele>246.979397</ele>
        <time>2026-05-02T10:03:24.574Z</time>
      </trkpt>
      <trkpt lat="45.810190" lon="9.084431">
        <ele>247.104069</ele>
        <time>2026-05-02T10:03:42.579Z</time>
      </trkpt>
      <trkpt lat="45.810138" lon="9.084322">
        <ele>247.223274</ele>
        <time>2026-05-02T10:03:53.572Z</time>
      </trkpt>
      <trkpt lat="45.810088" lon="9.084206">
        <ele>247.346362</ele>
        <time>2026-05-02T10:04:04.573Z</time>
      </trkpt>
      <trkpt lat="45.810027" lon="9.084106">
        <ele>247.466291</ele>
        <time>2026-05-02T10:04:14.575Z</time>
      </trkpt>
      <trkpt lat="45.809982" lon="9.083991">
        <ele>247.585313</ele>
        <time>2026-05-02T10:04:24.575Z</time>
      </trkpt>
      <trkpt lat="45.809904" lon="9.083921">
        <ele>247.704436</ele>
        <time>2026-05-02T10:04:35.574Z</time>
      </trkpt>
      <trkpt lat="45.809833" lon="9.084008">
        <ele>247.826904</ele>
        <time>2026-05-02T10:04:46.579Z</time>
      </trkpt>
      <trkpt lat="45.809747" lon="9.084078">
        <ele>247.970712</ele>
        <time>2026-05-02T10:05:00.577Z</time>
      </trkpt>
      <trkpt lat="45.809653" lon="9.084077">
        <ele>248.107430</ele>
        <time>2026-05-02T10:05:11.570Z</time>
      </trkpt>
      <trkpt lat="45.809574" lon="9.084148">
        <ele>248.243011</ele>
        <time>2026-05-02T10:05:22.582Z</time>
      </trkpt>
      <trkpt lat="45.809480" lon="9.084175">
        <ele>248.382438</ele>
        <time>2026-05-02T10:05:33.573Z</time>
      </trkpt>
      <trkpt lat="45.809374" lon="9.084113">
        <ele>248.548926</ele>
        <time>2026-05-02T10:06:11.571Z</time>
      </trkpt>
      <trkpt lat="45.809279" lon="9.084115">
        <ele>248.687109</ele>
        <time>2026-05-02T10:06:44.573Z</time>
      </trkpt>
      <trkpt lat="45.809194" lon="9.084052">
        <ele>248.826257</ele>
        <time>2026-05-02T10:06:57.574Z</time>
      </trkpt>
      <trkpt lat="45.809107" lon="9.083997">
        <ele>248.964531</ele>
        <time>2026-05-02T10:07:06.577Z</time>
      </trkpt>
      <trkpt lat="45.809024" lon="9.083925">
        <ele>249.105599</ele>
        <time>2026-05-02T10:07:18.575Z</time>
      </trkpt>
      <trkpt lat="45.808934" lon="9.083921">
        <ele>249.236558</ele>
        <time>2026-05-02T10:07:32.579Z</time>
      </trkpt>
      <trkpt lat="45.808849" lon="9.083968">
        <ele>249.369047</ele>
        <time>2026-05-02T10:07:44.571Z</time>
      </trkpt>
      <trkpt lat="45.808762" lon="9.084052">
        <ele>249.521568</ele>
        <time>2026-05-02T10:08:00.576Z</time>
      </trkpt>
      <trkpt lat="45.808682" lon="9.084114">
        <ele>249.653813</ele>
        <time>2026-05-02T10:08:08.573Z</time>
      </trkpt>
      <trkpt lat="45.808602" lon="9.084185">
        <ele>249.790630</ele>
        <time>2026-05-02T10:08:17.574Z</time>
      </trkpt>
      <trkpt lat="45.808517" lon="9.084139">
        <ele>249.922758</ele>
        <time>2026-05-02T10:08:34.572Z</time>
      </trkpt>
      <trkpt lat="45.808443" lon="9.084051">
        <ele>250.062552</ele>
        <time>2026-05-02T10:08:44.569Z</time>
      </trkpt>
      <trkpt lat="45.808355" lon="9.084007">
        <ele>250.198091</ele>
        <time>2026-05-02T10:08:55.572Z</time>
      </trkpt>
      <trkpt lat="45.808273" lon="9.083939">
        <ele>250.335843</ele>
        <time>2026-05-02T10:09:04.574Z</time>
      </trkpt>
      <trkpt lat="45.808183" lon="9.083997">
        <ele>250.476222</ele>
        <time>2026-05-02T10:09:14.572Z</time>
      </trkpt>
      <trkpt lat="45.808121" lon="9.084098">
        <ele>250.604292</ele>
        <time>2026-05-02T10:09:22.573Z</time>
      </trkpt>
      <trkpt lat="45.808047" lon="9.084173">
        <ele>250.727983</ele>
        <time>2026-05-02T10:09:31.574Z</time>
      </trkpt>
      <trkpt lat="45.807970" lon="9.084239">
        <ele>250.850436</ele>
        <time>2026-05-02T10:09:40.576Z</time>
      </trkpt>
      <trkpt lat="45.807887" lon="9.084305">
        <ele>250.979988</ele>
        <time>2026-05-02T10:09:51.575Z</time>
      </trkpt>
      <trkpt lat="45.807814" lon="9.084380">
        <ele>251.102567</ele>
        <time>2026-05-02T10:10:07.574Z</time>
      </trkpt>
      <trkpt lat="45.807731" lon="9.084437">
        <ele>251.228191</ele>
        <time>2026-05-02T10:10:20.581Z</time>
      </trkpt>
      <trkpt lat="45.807652" lon="9.084514">
        <ele>251.358578</ele>
        <time>2026-05-02T10:10:38.575Z</time>
      </trkpt>
      <trkpt lat="45.807569" lon="9.084568">
        <ele>251.482996</ele>
        <time>2026-05-02T10:10:49.576Z</time>
      </trkpt>
      <trkpt lat="45.807487" lon="9.084625">
        <ele>251.607390</ele>
        <time>2026-05-02T10:11:02.582Z</time>
      </trkpt>
      <trkpt lat="45.807409" lon="9.084693">
        <ele>251.731994</ele>
        <time>2026-05-02T10:11:11.577Z</time>
      </trkpt>
      <trkpt lat="45.807365" lon="9.084836">
        <ele>251.880744</ele>
        <time>2026-05-02T10:11:20.576Z</time>
      </trkpt>
      <trkpt lat="45.807301" lon="9.084938">
        <ele>252.011342</ele>
        <time>2026-05-02T10:11:29.574Z</time>
      </trkpt>
      <trkpt lat="45.807201" lon="9.084964">
        <ele>252.150083</ele>
        <time>2026-05-02T10:11:40.579Z</time>
      </trkpt>
      <trkpt lat="45.807106" lon="9.084903">
        <ele>252.292174</ele>
        <time>2026-05-02T10:11:44.577Z</time>
      </trkpt>
      <trkpt lat="45.807012" lon="9.084920">
        <ele>252.421517</ele>
        <time>2026-05-02T10:11:48.586Z</time>
      </trkpt>
      <trkpt lat="45.806921" lon="9.084993">
        <ele>252.563852</ele>
        <time>2026-05-02T10:11:53.578Z</time>
      </trkpt>
      <trkpt lat="45.806831" lon="9.085039">
        <ele>252.694283</ele>
        <time>2026-05-02T10:11:58.570Z</time>
      </trkpt>
      <trkpt lat="45.806738" lon="9.085079">
        <ele>252.826829</ele>
        <time>2026-05-02T10:12:04.568Z</time>
      </trkpt>
      <trkpt lat="45.806646" lon="9.085113">
        <ele>253.069120</ele>
        <time>2026-05-02T10:12:14.581Z</time>
      </trkpt>
      <trkpt lat="45.806554" lon="9.085149">
        <ele>253.401377</ele>
        <time>2026-05-02T10:12:31.579Z</time>
      </trkpt>
      <trkpt lat="45.806498" lon="9.085048">
        <ele>253.714817</ele>
        <time>2026-05-02T10:12:46.581Z</time>
      </trkpt>
      <trkpt lat="45.806407" lon="9.085060">
        <ele>254.033216</ele>
        <time>2026-05-02T10:13:08.574Z</time>
      </trkpt>
      <trkpt lat="45.806301" lon="9.085115">
        <ele>254.425956</ele>
        <time>2026-05-02T10:13:36.579Z</time>
      </trkpt>
      <trkpt lat="45.806247" lon="9.085239">
        <ele>254.781064</ele>
        <time>2026-05-02T10:13:44.575Z</time>
      </trkpt>
      <trkpt lat="45.806261" lon="9.085382">
        <ele>255.131789</ele>
        <time>2026-05-02T10:13:53.575Z</time>
      </trkpt>
      <trkpt lat="45.806301" lon="9.085504">
        <ele>255.459240</ele>
        <time>2026-05-02T10:13:59.580Z</time>
      </trkpt>
      <trkpt lat="45.806396" lon="9.085548">
        <ele>255.807062</ele>
        <time>2026-05-02T10:15:16.572Z</time>
      </trkpt>
      <trkpt lat="45.806299" lon="9.085533">
        <ele>256.146987</ele>
        <time>2026-05-02T10:20:00.573Z</time>
      </trkpt>
      <trkpt lat="45.806208" lon="9.085581">
        <ele>256.484803</ele>
        <time>2026-05-02T10:20:07.578Z</time>
      </trkpt>
      <trkpt lat="45.806133" lon="9.085477">
        <ele>256.848243</ele>
        <time>2026-05-02T10:20:12.571Z</time>
      </trkpt>
      <trkpt lat="45.806044" lon="9.085515">
        <ele>257.171780</ele>
        <time>2026-05-02T10:20:20.577Z</time>
      </trkpt>
      <trkpt lat="45.805941" lon="9.085506">
        <ele>257.531317</ele>
        <time>2026-05-02T10:20:29.569Z</time>
      </trkpt>
      <trkpt lat="45.805851" lon="9.085448">
        <ele>257.875083</ele>
        <time>2026-05-02T10:20:36.589Z</time>
      </trkpt>
      <trkpt lat="45.805754" lon="9.085424">
        <ele>258.218040</ele>
        <time>2026-05-02T10:20:48.570Z</time>
      </trkpt>
      <trkpt lat="45.805665" lon="9.085437">
        <ele>258.529737</ele>
        <time>2026-05-02T10:20:58.569Z</time>
      </trkpt>
      <trkpt lat="45.805568" lon="9.085448">
        <ele>258.868758</ele>
        <time>2026-05-02T10:21:07.574Z</time>
      </trkpt>
      <trkpt lat="45.805475" lon="9.085468">
        <ele>259.153419</ele>
        <time>2026-05-02T10:21:17.573Z</time>
      </trkpt>
      <trkpt lat="45.805381" lon="9.085394">
        <ele>259.174806</ele>
        <time>2026-05-02T10:21:26.576Z</time>
      </trkpt>
      <trkpt lat="45.805294" lon="9.085442">
        <ele>259.193398</ele>
        <time>2026-05-02T10:21:29.575Z</time>
      </trkpt>
      <trkpt lat="45.805184" lon="9.085498">
        <ele>259.216679</ele>
        <time>2026-05-02T10:21:33.575Z</time>
      </trkpt>
      <trkpt lat="45.805104" lon="9.085569">
        <ele>259.235443</ele>
        <time>2026-05-02T10:21:36.569Z</time>
      </trkpt>
      <trkpt lat="45.805028" lon="9.085638">
        <ele>259.253383</ele>
        <time>2026-05-02T10:21:39.569Z</time>
      </trkpt>
      <trkpt lat="45.804941" lon="9.085689">
        <ele>259.272129</ele>
        <time>2026-05-02T10:21:42.572Z</time>
      </trkpt>
      <trkpt lat="45.804853" lon="9.085722">
        <ele>259.290272</ele>
        <time>2026-05-02T10:21:45.572Z</time>
      </trkpt>
      <trkpt lat="45.804749" lon="9.085761">
        <ele>259.311712</ele>
        <time>2026-05-02T10:21:48.572Z</time>
      </trkpt>
      <trkpt lat="45.804639" lon="9.085807">
        <ele>259.334566</ele>
        <time>2026-05-02T10:21:51.572Z</time>
      </trkpt>
      <trkpt lat="45.804529" lon="9.085855">
        <ele>259.357500</ele>
        <time>2026-05-02T10:21:54.571Z</time>
      </trkpt>
      <trkpt lat="45.804414" lon="9.085900">
        <ele>259.381276</ele>
        <time>2026-05-02T10:21:57.578Z</time>
      </trkpt>
      <trkpt lat="45.804299" lon="9.085948">
        <ele>259.405165</ele>
        <time>2026-05-02T10:22:00.568Z</time>
      </trkpt>
      <trkpt lat="45.804180" lon="9.085998">
        <ele>259.429898</ele>
        <time>2026-05-02T10:22:03.570Z</time>
      </trkpt>
      <trkpt lat="45.804071" lon="9.086045">
        <ele>259.452600</ele>
        <time>2026-05-02T10:22:06.570Z</time>
      </trkpt>
      <trkpt lat="45.803959" lon="9.086097">
        <ele>259.476081</ele>
        <time>2026-05-02T10:22:09.569Z</time>
      </trkpt>
      <trkpt lat="45.803851" lon="9.086138">
        <ele>259.498364</ele>
        <time>2026-05-02T10:22:12.572Z</time>
      </trkpt>
      <trkpt lat="45.803745" lon="9.086181">
        <ele>259.511775</ele>
        <time>2026-05-02T10:22:15.570Z</time>
      </trkpt>
      <trkpt lat="45.803634" lon="9.086224">
        <ele>259.516478</ele>
        <time>2026-05-02T10:22:18.566Z</time>
      </trkpt>
      <trkpt lat="45.803520" lon="9.086273">
        <ele>259.521345</ele>
        <time>2026-05-02T10:22:21.569Z</time>
      </trkpt>
      <trkpt lat="45.803405" lon="9.086305">
        <ele>259.526137</ele>
        <time>2026-05-02T10:22:24.574Z</time>
      </trkpt>
      <trkpt lat="45.803295" lon="9.086317">
        <ele>259.530649</ele>
        <time>2026-05-02T10:22:27.573Z</time>
      </trkpt>
      <trkpt lat="45.803190" lon="9.086328">
        <ele>259.534955</ele>
        <time>2026-05-02T10:22:30.572Z</time>
      </trkpt>
      <trkpt lat="45.803087" lon="9.086315">
        <ele>259.539184</ele>
        <time>2026-05-02T10:22:33.571Z</time>
      </trkpt>
      <trkpt lat="45.802987" lon="9.086312">
        <ele>259.543275</ele>
        <time>2026-05-02T10:22:36.580Z</time>
      </trkpt>
      <trkpt lat="45.802888" lon="9.086314">
        <ele>259.547324</ele>
        <time>2026-05-02T10:22:39.571Z</time>
      </trkpt>
      <trkpt lat="45.802790" lon="9.086292">
        <ele>259.551381</ele>
        <time>2026-05-02T10:22:42.571Z</time>
      </trkpt>
      <trkpt lat="45.802694" lon="9.086251">
        <ele>259.555478</ele>
        <time>2026-05-02T10:22:45.573Z</time>
      </trkpt>
      <trkpt lat="45.802600" lon="9.086268">
        <ele>259.559353</ele>
        <time>2026-05-02T10:22:48.572Z</time>
      </trkpt>
      <trkpt lat="45.802508" lon="9.086276">
        <ele>259.563123</ele>
        <time>2026-05-02T10:22:51.572Z</time>
      </trkpt>
      <trkpt lat="45.802416" lon="9.086280">
        <ele>259.566888</ele>
        <time>2026-05-02T10:22:54.577Z</time>
      </trkpt>
      <trkpt lat="45.802321" lon="9.086295">
        <ele>259.570797</ele>
        <time>2026-05-02T10:22:57.569Z</time>
      </trkpt>
      <trkpt lat="45.802224" lon="9.086294">
        <ele>259.574764</ele>
        <time>2026-05-02T10:23:02.568Z</time>
      </trkpt>
      <trkpt lat="45.802107" lon="9.086321">
        <ele>259.579611</ele>
        <time>2026-05-02T10:23:07.568Z</time>
      </trkpt>
      <trkpt lat="45.802008" lon="9.086343">
        <ele>259.645044</ele>
        <time>2026-05-02T10:23:10.566Z</time>
      </trkpt>
      <trkpt lat="45.801898" lon="9.086341">
        <ele>260.128788</ele>
        <time>2026-05-02T10:23:13.569Z</time>
      </trkpt>
      <trkpt lat="45.801790" lon="9.086348">
        <ele>260.604183</ele>
        <time>2026-05-02T10:23:16.569Z</time>
      </trkpt>
      <trkpt lat="45.801673" lon="9.086355">
        <ele>261.119117</ele>
        <time>2026-05-02T10:23:19.566Z</time>
      </trkpt>
      <trkpt lat="45.801561" lon="9.086367">
        <ele>261.612989</ele>
        <time>2026-05-02T10:23:22.575Z</time>
      </trkpt>
      <trkpt lat="45.801452" lon="9.086367">
        <ele>262.092297</ele>
        <time>2026-05-02T10:23:25.570Z</time>
      </trkpt>
      <trkpt lat="45.801332" lon="9.086377">
        <ele>262.620866</ele>
        <time>2026-05-02T10:23:28.575Z</time>
      </trkpt>
      <trkpt lat="45.801218" lon="9.086382">
        <ele>263.122395</ele>
        <time>2026-05-02T10:23:31.575Z</time>
      </trkpt>
      <trkpt lat="45.801097" lon="9.086383">
        <ele>263.654479</ele>
        <time>2026-05-02T10:23:34.565Z</time>
      </trkpt>
      <trkpt lat="45.800983" lon="9.086396">
        <ele>264.157356</ele>
        <time>2026-05-02T10:23:37.571Z</time>
      </trkpt>
      <trkpt lat="45.800866" lon="9.086415">
        <ele>264.675129</ele>
        <time>2026-05-02T10:23:40.570Z</time>
      </trkpt>
      <trkpt lat="45.800758" lon="9.086431">
        <ele>265.152566</ele>
        <time>2026-05-02T10:23:43.570Z</time>
      </trkpt>
      <trkpt lat="45.800647" lon="9.086443">
        <ele>265.642053</ele>
        <time>2026-05-02T10:23:46.565Z</time>
      </trkpt>
      <trkpt lat="45.800522" lon="9.086457">
        <ele>266.193392</ele>
        <time>2026-05-02T10:23:49.570Z</time>
      </trkpt>
      <trkpt lat="45.800406" lon="9.086470">
        <ele>266.705035</ele>
        <time>2026-05-02T10:23:52.573Z</time>
      </trkpt>
      <trkpt lat="45.800306" lon="9.086485">
        <ele>267.147165</ele>
        <time>2026-05-02T10:23:55.566Z</time>
      </trkpt>
      <trkpt lat="45.800205" lon="9.086505">
        <ele>267.489903</ele>
        <time>2026-05-02T10:23:58.568Z</time>
      </trkpt>
      <trkpt lat="45.800094" lon="9.086530">
        <ele>267.478199</ele>
        <time>2026-05-02T10:24:01.572Z</time>
      </trkpt>
      <trkpt lat="45.799980" lon="9.086552">
        <ele>267.466218</ele>
        <time>2026-05-02T10:24:04.575Z</time>
      </trkpt>
      <trkpt lat="45.799871" lon="9.086574">
        <ele>267.454752</ele>
        <time>2026-05-02T10:24:07.570Z</time>
      </trkpt>
      <trkpt lat="45.799761" lon="9.086607">
        <ele>267.443047</ele>
        <time>2026-05-02T10:24:10.568Z</time>
      </trkpt>
      <trkpt lat="45.799648" lon="9.086621">
        <ele>267.431232</ele>
        <time>2026-05-02T10:24:13.578Z</time>
      </trkpt>
      <trkpt lat="45.799535" lon="9.086637">
        <ele>267.419405</ele>
        <time>2026-05-02T10:24:16.573Z</time>
      </trkpt>
      <trkpt lat="45.799424" lon="9.086648">
        <ele>267.407816</ele>
        <time>2026-05-02T10:24:19.575Z</time>
      </trkpt>
      <trkpt lat="45.799318" lon="9.086661">
        <ele>267.396734</ele>
        <time>2026-05-02T10:24:22.572Z</time>
      </trkpt>
      <trkpt lat="45.799216" lon="9.086671">
        <ele>267.386085</ele>
        <time>2026-05-02T10:24:25.568Z</time>
      </trkpt>
      <trkpt lat="45.799116" lon="9.086684">
        <ele>267.375626</ele>
        <time>2026-05-02T10:24:28.573Z</time>
      </trkpt>
      <trkpt lat="45.799010" lon="9.086649">
        <ele>267.364296</ele>
        <time>2026-05-02T10:24:32.571Z</time>
      </trkpt>
      <trkpt lat="45.798935" lon="9.086549">
        <ele>267.353630</ele>
        <time>2026-05-02T10:24:38.565Z</time>
      </trkpt>
      <trkpt lat="45.798835" lon="9.086601">
        <ele>267.342551</ele>
        <time>2026-05-02T10:24:42.562Z</time>
      </trkpt>
      <trkpt lat="45.798769" lon="9.086709">
        <ele>267.332121</ele>
        <time>2026-05-02T10:24:45.568Z</time>
      </trkpt>
      <trkpt lat="45.798687" lon="9.086779">
        <ele>267.322182</ele>
        <time>2026-05-02T10:24:48.571Z</time>
      </trkpt>
      <trkpt lat="45.798593" lon="9.086825">
        <ele>267.311837</ele>
        <time>2026-05-02T10:24:51.577Z</time>
      </trkpt>
      <trkpt lat="45.798502" lon="9.086874">
        <ele>267.444867</ele>
        <time>2026-05-02T10:24:54.568Z</time>
      </trkpt>
      <trkpt lat="45.798414" lon="9.086926">
        <ele>267.866950</ele>
        <time>2026-05-02T10:24:57.574Z</time>
      </trkpt>
      <trkpt lat="45.798322" lon="9.086976">
        <ele>268.303257</ele>
        <time>2026-05-02T10:25:00.575Z</time>
      </trkpt>
      <trkpt lat="45.798231" lon="9.087008">
        <ele>268.718775</ele>
        <time>2026-05-02T10:25:03.571Z</time>
      </trkpt>
      <trkpt lat="45.798125" lon="9.087052">
        <ele>269.208153</ele>
        <time>2026-05-02T10:25:07.574Z</time>
      </trkpt>
      <trkpt lat="45.798020" lon="9.087091">
        <ele>269.689167</ele>
        <time>2026-05-02T10:25:12.569Z</time>
      </trkpt>
      <trkpt lat="45.797917" lon="9.087132">
        <ele>270.163215</ele>
        <time>2026-05-02T10:25:17.565Z</time>
      </trkpt>
      <trkpt lat="45.797811" lon="9.087165">
        <ele>270.644249</ele>
        <time>2026-05-02T10:25:22.571Z</time>
      </trkpt>
      <trkpt lat="45.797720" lon="9.087186">
        <ele>271.053006</ele>
        <time>2026-05-02T10:25:26.580Z</time>
      </trkpt>
      <trkpt lat="45.797632" lon="9.087214">
        <ele>271.452755</ele>
        <time>2026-05-02T10:25:30.570Z</time>
      </trkpt>
      <trkpt lat="45.797528" lon="9.087264">
        <ele>271.939194</ele>
        <time>2026-05-02T10:25:35.569Z</time>
      </trkpt>
      <trkpt lat="45.797440" lon="9.087332">
        <ele>272.382489</ele>
        <time>2026-05-02T10:25:40.570Z</time>
      </trkpt>
      <trkpt lat="45.797355" lon="9.087394">
        <ele>272.805391</ele>
        <time>2026-05-02T10:25:45.568Z</time>
      </trkpt>
      <trkpt lat="45.797277" lon="9.087467">
        <ele>273.218431</ele>
        <time>2026-05-02T10:25:50.577Z</time>
      </trkpt>
      <trkpt lat="45.797177" lon="9.087512">
        <ele>273.683225</ele>
        <time>2026-05-02T10:25:56.578Z</time>
      </trkpt>
      <trkpt lat="45.797087" lon="9.087533">
        <ele>274.087604</ele>
        <time>2026-05-02T10:26:01.566Z</time>
      </trkpt>
      <trkpt lat="45.797003" lon="9.087593">
        <ele>274.503765</ele>
        <time>2026-05-02T10:26:07.573Z</time>
      </trkpt>
      <trkpt lat="45.796936" lon="9.087685">
        <ele>274.915109</ele>
        <time>2026-05-02T10:26:12.566Z</time>
      </trkpt>
      <trkpt lat="45.796868" lon="9.087782">
        <ele>275.408909</ele>
        <time>2026-05-02T10:26:17.568Z</time>
      </trkpt>
      <trkpt lat="45.796798" lon="9.087877">
        <ele>276.333955</ele>
        <time>2026-05-02T10:26:22.572Z</time>
      </trkpt>
      <trkpt lat="45.796728" lon="9.087960">
        <ele>277.205759</ele>
        <time>2026-05-02T10:26:27.566Z</time>
      </trkpt>
      <trkpt lat="45.796659" lon="9.088069">
        <ele>278.191063</ele>
        <time>2026-05-02T10:26:33.570Z</time>
      </trkpt>
      <trkpt lat="45.796591" lon="9.088173">
        <ele>279.145265</ele>
        <time>2026-05-02T10:26:39.571Z</time>
      </trkpt>
      <trkpt lat="45.796528" lon="9.088271">
        <ele>280.037377</ele>
        <time>2026-05-02T10:26:45.569Z</time>
      </trkpt>
      <trkpt lat="45.796468" lon="9.088373">
        <ele>280.930517</ele>
        <time>2026-05-02T10:26:51.567Z</time>
      </trkpt>
      <trkpt lat="45.796403" lon="9.088471">
        <ele>281.835754</ele>
        <time>2026-05-02T10:26:57.575Z</time>
      </trkpt>
      <trkpt lat="45.796341" lon="9.088575">
        <ele>282.751525</ele>
        <time>2026-05-02T10:27:03.572Z</time>
      </trkpt>
      <trkpt lat="45.796276" lon="9.088678">
        <ele>283.681294</ele>
        <time>2026-05-02T10:27:09.567Z</time>
      </trkpt>
      <trkpt lat="45.796211" lon="9.088776">
        <ele>284.586533</ele>
        <time>2026-05-02T10:27:15.574Z</time>
      </trkpt>
      <trkpt lat="45.796142" lon="9.088878">
        <ele>285.537679</ele>
        <time>2026-05-02T10:27:21.564Z</time>
      </trkpt>
      <trkpt lat="45.796074" lon="9.088973">
        <ele>286.448882</ele>
        <time>2026-05-02T10:27:27.573Z</time>
      </trkpt>
      <trkpt lat="45.796006" lon="9.089084">
        <ele>287.437781</ele>
        <time>2026-05-02T10:27:34.570Z</time>
      </trkpt>
      <trkpt lat="45.795936" lon="9.089194">
        <ele>288.434503</ele>
        <time>2026-05-02T10:27:41.568Z</time>
      </trkpt>
      <trkpt lat="45.795867" lon="9.089308">
        <ele>289.444839</ele>
        <time>2026-05-02T10:27:48.568Z</time>
      </trkpt>
      <trkpt lat="45.795809" lon="9.089429">
        <ele>290.427561</ele>
        <time>2026-05-02T10:27:55.568Z</time>
      </trkpt>
      <trkpt lat="45.795785" lon="9.089558">
        <ele>291.321113</ele>
        <time>2026-05-02T10:28:01.579Z</time>
      </trkpt>
      <trkpt lat="45.795745" lon="9.089677">
        <ele>292.205256</ele>
        <time>2026-05-02T10:28:07.567Z</time>
      </trkpt>
      <trkpt lat="45.795703" lon="9.089800">
        <ele>293.092548</ele>
        <time>2026-05-02T10:28:13.576Z</time>
      </trkpt>
      <trkpt lat="45.795652" lon="9.089932">
        <ele>294.051054</ele>
        <time>2026-05-02T10:28:20.577Z</time>
      </trkpt>
      <trkpt lat="45.795592" lon="9.090054">
        <ele>294.999301</ele>
        <time>2026-05-02T10:28:27.570Z</time>
      </trkpt>
      <trkpt lat="45.795521" lon="9.090139">
        <ele>295.841790</ele>
        <time>2026-05-02T10:28:33.567Z</time>
      </trkpt>
      <trkpt lat="45.795442" lon="9.090215">
        <ele>296.708344</ele>
        <time>2026-05-02T10:28:39.574Z</time>
      </trkpt>
      <trkpt lat="45.795360" lon="9.090294">
        <ele>297.608210</ele>
        <time>2026-05-02T10:28:45.567Z</time>
      </trkpt>
      <trkpt lat="45.795285" lon="9.090375">
        <ele>298.463468</ele>
        <time>2026-05-02T10:28:51.572Z</time>
      </trkpt>
      <trkpt lat="45.795212" lon="9.090453">
        <ele>299.292722</ele>
        <time>2026-05-02T10:28:57.574Z</time>
      </trkpt>
      <trkpt lat="45.795141" lon="9.090539">
        <ele>300.139297</ele>
        <time>2026-05-02T10:29:03.572Z</time>
      </trkpt>
      <trkpt lat="45.795064" lon="9.090610">
        <ele>300.973191</ele>
        <time>2026-05-02T10:29:09.573Z</time>
      </trkpt>
      <trkpt lat="45.794986" lon="9.090684">
        <ele>301.825124</ele>
        <time>2026-05-02T10:29:15.568Z</time>
      </trkpt>
      <trkpt lat="45.794910" lon="9.090757">
        <ele>302.658371</ele>
        <time>2026-05-02T10:29:21.578Z</time>
      </trkpt>
      <trkpt lat="45.794828" lon="9.090817">
        <ele>303.496954</ele>
        <time>2026-05-02T10:29:27.573Z</time>
      </trkpt>
      <trkpt lat="45.794744" lon="9.090900">
        <ele>304.426177</ele>
        <time>2026-05-02T10:29:34.566Z</time>
      </trkpt>
      <trkpt lat="45.794659" lon="9.090961">
        <ele>305.292017</ele>
        <time>2026-05-02T10:29:40.562Z</time>
      </trkpt>
      <trkpt lat="45.794578" lon="9.091033">
        <ele>306.160117</ele>
        <time>2026-05-02T10:29:46.579Z</time>
      </trkpt>
      <trkpt lat="45.794497" lon="9.091111">
        <ele>307.048883</ele>
        <time>2026-05-02T10:29:52.571Z</time>
      </trkpt>
      <trkpt lat="45.794418" lon="9.091195">
        <ele>307.944742</ele>
        <time>2026-05-02T10:29:58.560Z</time>
      </trkpt>
      <trkpt lat="45.794341" lon="9.091286">
        <ele>308.853638</ele>
        <time>2026-05-02T10:30:04.569Z</time>
      </trkpt>
      <trkpt lat="45.794243" lon="9.091348">
        <ele>309.295303</ele>
        <time>2026-05-02T10:30:10.576Z</time>
      </trkpt>
      <trkpt lat="45.794143" lon="9.091395">
        <ele>309.683574</ele>
        <time>2026-05-02T10:30:16.576Z</time>
      </trkpt>
      <trkpt lat="45.794044" lon="9.091401">
        <ele>310.049175</ele>
        <time>2026-05-02T10:30:22.567Z</time>
      </trkpt>
      <trkpt lat="45.793944" lon="9.091375">
        <ele>310.424153</ele>
        <time>2026-05-02T10:30:28.565Z</time>
      </trkpt>
      <trkpt lat="45.793850" lon="9.091318">
        <ele>310.800705</ele>
        <time>2026-05-02T10:30:34.572Z</time>
      </trkpt>
      <trkpt lat="45.793765" lon="9.091226">
        <ele>311.193609</ele>
        <time>2026-05-02T10:30:40.565Z</time>
      </trkpt>
      <trkpt lat="45.793673" lon="9.091190">
        <ele>311.545464</ele>
        <time>2026-05-02T10:30:46.571Z</time>
      </trkpt>
      <trkpt lat="45.793566" lon="9.091201">
        <ele>311.941269</ele>
        <time>2026-05-02T10:30:52.570Z</time>
      </trkpt>
      <trkpt lat="45.793466" lon="9.091239">
        <ele>312.322965</ele>
        <time>2026-05-02T10:30:57.578Z</time>
      </trkpt>
      <trkpt lat="45.793366" lon="9.091288">
        <ele>312.712869</ele>
        <time>2026-05-02T10:31:01.563Z</time>
      </trkpt>
      <trkpt lat="45.793279" lon="9.091329">
        <ele>313.050754</ele>
        <time>2026-05-02T10:31:04.577Z</time>
      </trkpt>
      <trkpt lat="45.793192" lon="9.091374">
        <ele>313.391991</ele>
        <time>2026-05-02T10:31:07.568Z</time>
      </trkpt>
      <trkpt lat="45.793099" lon="9.091408">
        <ele>313.746101</ele>
        <time>2026-05-02T10:31:10.565Z</time>
      </trkpt>
      <trkpt lat="45.793010" lon="9.091442">
        <ele>314.085929</ele>
        <time>2026-05-02T10:31:13.577Z</time>
      </trkpt>
      <trkpt lat="45.792918" lon="9.091490">
        <ele>314.447140</ele>
        <time>2026-05-02T10:31:16.567Z</time>
      </trkpt>
      <trkpt lat="45.792817" lon="9.091536">
        <ele>314.838134</ele>
        <time>2026-05-02T10:31:19.569Z</time>
      </trkpt>
      <trkpt lat="45.792710" lon="9.091579">
        <ele>315.248132</ele>
        <time>2026-05-02T10:31:22.566Z</time>
      </trkpt>
      <trkpt lat="45.792597" lon="9.091612">
        <ele>315.545221</ele>
        <time>2026-05-02T10:31:25.568Z</time>
      </trkpt>
      <trkpt lat="45.792474" lon="9.091628">
        <ele>315.446460</ele>
        <time>2026-05-02T10:31:28.566Z</time>
      </trkpt>
      <trkpt lat="45.792349" lon="9.091624">
        <ele>315.346479</ele>
        <time>2026-05-02T10:31:31.561Z</time>
      </trkpt>
      <trkpt lat="45.792228" lon="9.091585">
        <ele>315.247308</ele>
        <time>2026-05-02T10:31:34.566Z</time>
      </trkpt>
      <trkpt lat="45.792108" lon="9.091529">
        <ele>315.146398</ele>
        <time>2026-05-02T10:31:37.565Z</time>
      </trkpt>
      <trkpt lat="45.791991" lon="9.091471">
        <ele>315.047408</ele>
        <time>2026-05-02T10:31:40.565Z</time>
      </trkpt>
      <trkpt lat="45.791876" lon="9.091413">
        <ele>314.949928</ele>
        <time>2026-05-02T10:31:43.571Z</time>
      </trkpt>
      <trkpt lat="45.791757" lon="9.091362">
        <ele>314.850611</ele>
        <time>2026-05-02T10:31:46.563Z</time>
      </trkpt>
      <trkpt lat="45.791637" lon="9.091300">
        <ele>314.748616</ele>
        <time>2026-05-02T10:31:49.565Z</time>
      </trkpt>
      <trkpt lat="45.791514" lon="9.091252">
        <ele>314.646683</ele>
        <time>2026-05-02T10:31:52.578Z</time>
      </trkpt>
      <trkpt lat="45.791396" lon="9.091189">
        <ele>314.545998</ele>
        <time>2026-05-02T10:31:55.564Z</time>
      </trkpt>
      <trkpt lat="45.791282" lon="9.091099">
        <ele>314.441939</ele>
        <time>2026-05-02T10:31:58.568Z</time>
      </trkpt>
      <trkpt lat="45.791175" lon="9.091009">
        <ele>314.342746</ele>
        <time>2026-05-02T10:32:01.572Z</time>
      </trkpt>
      <trkpt lat="45.791046" lon="9.091043">
        <ele>314.237864</ele>
        <time>2026-05-02T10:32:04.564Z</time>
      </trkpt>
      <trkpt lat="45.790933" lon="9.091041">
        <ele>314.147497</ele>
        <time>2026-05-02T10:32:07.567Z</time>
      </trkpt>
      <trkpt lat="45.790824" lon="9.090987">
        <ele>314.430374</ele>
        <time>2026-05-02T10:32:11.561Z</time>
      </trkpt>
      <trkpt lat="45.790727" lon="9.090917">
        <ele>314.780573</ele>
        <time>2026-05-02T10:32:15.568Z</time>
      </trkpt>
      <trkpt lat="45.790634" lon="9.090820">
        <ele>315.151432</ele>
        <time>2026-05-02T10:32:19.561Z</time>
      </trkpt>
      <trkpt lat="45.790544" lon="9.090711">
        <ele>315.531336</ele>
        <time>2026-05-02T10:32:23.570Z</time>
      </trkpt>
      <trkpt lat="45.790456" lon="9.090597">
        <ele>315.913780</ele>
        <time>2026-05-02T10:32:27.566Z</time>
      </trkpt>
      <trkpt lat="45.790391" lon="9.090498">
        <ele>316.219567</ele>
        <time>2026-05-02T10:32:30.572Z</time>
      </trkpt>
      <trkpt lat="45.790330" lon="9.090390">
        <ele>316.532114</ele>
        <time>2026-05-02T10:32:33.563Z</time>
      </trkpt>
      <trkpt lat="45.790259" lon="9.090254">
        <ele>316.914165</ele>
        <time>2026-05-02T10:32:37.571Z</time>
      </trkpt>
      <trkpt lat="45.790198" lon="9.090116">
        <ele>317.281597</ele>
        <time>2026-05-02T10:32:41.567Z</time>
      </trkpt>
      <trkpt lat="45.790138" lon="9.089985">
        <ele>317.634053</ele>
        <time>2026-05-02T10:32:45.571Z</time>
      </trkpt>
      <trkpt lat="45.790078" lon="9.089839">
        <ele>318.015153</ele>
        <time>2026-05-02T10:32:49.570Z</time>
      </trkpt>
      <trkpt lat="45.790022" lon="9.089733">
        <ele>318.314213</ele>
        <time>2026-05-02T10:32:52.569Z</time>
      </trkpt>
      <trkpt lat="45.789953" lon="9.089635">
        <ele>318.627399</ele>
        <time>2026-05-02T10:32:55.566Z</time>
      </trkpt>
      <trkpt lat="45.789902" lon="9.089519">
        <ele>318.935781</ele>
        <time>2026-05-02T10:32:58.570Z</time>
      </trkpt>
      <trkpt lat="45.789847" lon="9.089408">
        <ele>319.241999</ele>
        <time>2026-05-02T10:33:02.567Z</time>
      </trkpt>
      <trkpt lat="45.789687" lon="9.089276">
        <ele>319.837292</ele>
        <time>2026-05-02T10:33:56.565Z</time>
      </trkpt>
      <trkpt lat="45.789647" lon="9.089087">
        <ele>320.030219</ele>
        <time>2026-05-02T10:33:59.570Z</time>
      </trkpt>
      <trkpt lat="45.789617" lon="9.088932">
        <ele>320.133023</ele>
        <time>2026-05-02T10:34:01.569Z</time>
      </trkpt>
      <trkpt lat="45.789580" lon="9.088761">
        <ele>320.247448</ele>
        <time>2026-05-02T10:34:03.562Z</time>
      </trkpt>
      <trkpt lat="45.789527" lon="9.088597">
        <ele>320.362969</ele>
        <time>2026-05-02T10:34:05.563Z</time>
      </trkpt>
      <trkpt lat="45.789470" lon="9.088450">
        <ele>320.470464</ele>
        <time>2026-05-02T10:34:07.566Z</time>
      </trkpt>
      <trkpt lat="45.789421" lon="9.088321">
        <ele>320.564345</ele>
        <time>2026-05-02T10:34:09.567Z</time>
      </trkpt>
      <trkpt lat="45.789370" lon="9.088206">
        <ele>320.651446</ele>
        <time>2026-05-02T10:34:11.567Z</time>
      </trkpt>
      <trkpt lat="45.789320" lon="9.088091">
        <ele>320.738058</ele>
        <time>2026-05-02T10:34:13.567Z</time>
      </trkpt>
      <trkpt lat="45.789246" lon="9.087933">
        <ele>320.859698</ele>
        <time>2026-05-02T10:34:16.566Z</time>
      </trkpt>
      <trkpt lat="45.789176" lon="9.087780">
        <ele>320.976648</ele>
        <time>2026-05-02T10:34:19.569Z</time>
      </trkpt>
      <trkpt lat="45.789109" lon="9.087631">
        <ele>321.089956</ele>
        <time>2026-05-02T10:34:22.567Z</time>
      </trkpt>
      <trkpt lat="45.789044" lon="9.087478">
        <ele>321.204457</ele>
        <time>2026-05-02T10:34:25.565Z</time>
      </trkpt>
      <trkpt lat="45.788980" lon="9.087326">
        <ele>321.317936</ele>
        <time>2026-05-02T10:34:28.566Z</time>
      </trkpt>
      <trkpt lat="45.788914" lon="9.087176">
        <ele>321.431290</ele>
        <time>2026-05-02T10:34:31.567Z</time>
      </trkpt>
      <trkpt lat="45.788849" lon="9.087023">
        <ele>321.545791</ele>
        <time>2026-05-02T10:34:34.573Z</time>
      </trkpt>
      <trkpt lat="45.788780" lon="9.086863">
        <ele>321.663499</ele>
        <time>2026-05-02T10:34:37.574Z</time>
      </trkpt>
      <trkpt lat="45.788729" lon="9.086753">
        <ele>321.745473</ele>
        <time>2026-05-02T10:34:39.572Z</time>
      </trkpt>
      <trkpt lat="45.788659" lon="9.086590">
        <ele>321.864270</ele>
        <time>2026-05-02T10:34:42.570Z</time>
      </trkpt>
      <trkpt lat="45.788610" lon="9.086481">
        <ele>321.944751</ele>
        <time>2026-05-02T10:34:44.569Z</time>
      </trkpt>
      <trkpt lat="45.788540" lon="9.086325">
        <ele>322.059872</ele>
        <time>2026-05-02T10:34:47.571Z</time>
      </trkpt>
      <trkpt lat="45.788475" lon="9.086166">
        <ele>322.174250</ele>
        <time>2026-05-02T10:34:50.576Z</time>
      </trkpt>
      <trkpt lat="45.788424" lon="9.086056">
        <ele>322.256224</ele>
        <time>2026-05-02T10:34:52.576Z</time>
      </trkpt>
      <trkpt lat="45.788371" lon="9.085938">
        <ele>322.343328</ele>
        <time>2026-05-02T10:34:54.567Z</time>
      </trkpt>
      <trkpt lat="45.788323" lon="9.085821">
        <ele>322.427570</ele>
        <time>2026-05-02T10:34:56.570Z</time>
      </trkpt>
      <trkpt lat="45.788275" lon="9.085709">
        <ele>322.509152</ele>
        <time>2026-05-02T10:34:58.570Z</time>
      </trkpt>
      <trkpt lat="45.788204" lon="9.085555">
        <ele>322.623720</ele>
        <time>2026-05-02T10:35:01.567Z</time>
      </trkpt>
      <trkpt lat="45.788134" lon="9.085398">
        <ele>322.739364</ele>
        <time>2026-05-02T10:35:04.566Z</time>
      </trkpt>
      <trkpt lat="45.788083" lon="9.085284">
        <ele>322.823418</ele>
        <time>2026-05-02T10:35:06.575Z</time>
      </trkpt>
      <trkpt lat="45.788035" lon="9.085168">
        <ele>322.907125</ele>
        <time>2026-05-02T10:35:08.566Z</time>
      </trkpt>
      <trkpt lat="45.787971" lon="9.085011">
        <ele>323.019983</ele>
        <time>2026-05-02T10:35:11.567Z</time>
      </trkpt>
      <trkpt lat="45.787909" lon="9.084869">
        <ele>323.123954</ele>
        <time>2026-05-02T10:35:14.567Z</time>
      </trkpt>
      <trkpt lat="45.787847" lon="9.084720">
        <ele>323.174881</ele>
        <time>2026-05-02T10:35:17.565Z</time>
      </trkpt>
      <trkpt lat="45.787786" lon="9.084574">
        <ele>323.165113</ele>
        <time>2026-05-02T10:35:20.567Z</time>
      </trkpt>
      <trkpt lat="45.787730" lon="9.084432">
        <ele>323.155749</ele>
        <time>2026-05-02T10:35:23.564Z</time>
      </trkpt>
      <trkpt lat="45.787681" lon="9.084295">
        <ele>323.146912</ele>
        <time>2026-05-02T10:35:26.566Z</time>
      </trkpt>
      <trkpt lat="45.787637" lon="9.084178">
        <ele>323.139283</ele>
        <time>2026-05-02T10:35:29.571Z</time>
      </trkpt>
      <trkpt lat="45.787597" lon="9.084045">
        <ele>323.130970</ele>
        <time>2026-05-02T10:35:33.561Z</time>
      </trkpt>
      <trkpt lat="45.787581" lon="9.083889">
        <ele>323.121920</ele>
        <time>2026-05-02T10:35:39.567Z</time>
      </trkpt>
      <trkpt lat="45.787515" lon="9.083758">
        <ele>323.112644</ele>
        <time>2026-05-02T10:35:43.562Z</time>
      </trkpt>
      <trkpt lat="45.787398" lon="9.083746">
        <ele>323.102990</ele>
        <time>2026-05-02T10:35:46.564Z</time>
      </trkpt>
      <trkpt lat="45.787288" lon="9.083731">
        <ele>323.093895</ele>
        <time>2026-05-02T10:35:49.568Z</time>
      </trkpt>
      <trkpt lat="45.787176" lon="9.083712">
        <ele>323.084612</ele>
        <time>2026-05-02T10:35:52.577Z</time>
      </trkpt>
      <trkpt lat="45.787048" lon="9.083699">
        <ele>323.074051</ele>
        <time>2026-05-02T10:35:55.569Z</time>
      </trkpt>
      <trkpt lat="45.786953" lon="9.083707">
        <ele>323.066218</ele>
        <time>2026-05-02T10:35:57.568Z</time>
      </trkpt>
      <trkpt lat="45.786856" lon="9.083679">
        <ele>323.058074</ele>
        <time>2026-05-02T10:35:59.571Z</time>
      </trkpt>
      <trkpt lat="45.786757" lon="9.083693">
        <ele>323.049886</ele>
        <time>2026-05-02T10:36:01.566Z</time>
      </trkpt>
      <trkpt lat="45.786664" lon="9.083775">
        <ele>323.040900</ele>
        <time>2026-05-02T10:36:03.568Z</time>
      </trkpt>
      <trkpt lat="45.786587" lon="9.083895">
        <ele>323.031504</ele>
        <time>2026-05-02T10:36:05.568Z</time>
      </trkpt>
      <trkpt lat="45.786501" lon="9.083997">
        <ele>323.019056</ele>
        <time>2026-05-02T10:36:07.567Z</time>
      </trkpt>
      <trkpt lat="45.786413" lon="9.084098">
        <ele>323.006485</ele>
        <time>2026-05-02T10:36:09.566Z</time>
      </trkpt>
      <trkpt lat="45.786335" lon="9.084202">
        <ele>322.994605</ele>
        <time>2026-05-02T10:36:11.565Z</time>
      </trkpt>
      <trkpt lat="45.786255" lon="9.084302">
        <ele>322.982769</ele>
        <time>2026-05-02T10:36:13.574Z</time>
      </trkpt>
      <trkpt lat="45.786185" lon="9.084403">
        <ele>322.971693</ele>
        <time>2026-05-02T10:36:15.573Z</time>
      </trkpt>
      <trkpt lat="45.786115" lon="9.084497">
        <ele>322.960997</ele>
        <time>2026-05-02T10:36:17.568Z</time>
      </trkpt>
      <trkpt lat="45.786041" lon="9.084591">
        <ele>322.949971</ele>
        <time>2026-05-02T10:36:19.568Z</time>
      </trkpt>
      <trkpt lat="45.785973" lon="9.084688">
        <ele>322.939273</ele>
        <time>2026-05-02T10:36:21.564Z</time>
      </trkpt>
      <trkpt lat="45.785906" lon="9.084774">
        <ele>322.929244</ele>
        <time>2026-05-02T10:36:23.573Z</time>
      </trkpt>
      <trkpt lat="45.785794" lon="9.084878">
        <ele>322.914361</ele>
        <time>2026-05-02T10:36:26.566Z</time>
      </trkpt>
      <trkpt lat="45.785694" lon="9.085000">
        <ele>322.899717</ele>
        <time>2026-05-02T10:36:29.569Z</time>
      </trkpt>
      <trkpt lat="45.785598" lon="9.085135">
        <ele>322.884721</ele>
        <time>2026-05-02T10:36:32.572Z</time>
      </trkpt>
      <trkpt lat="45.785490" lon="9.085232">
        <ele>322.870507</ele>
        <time>2026-05-02T10:36:35.571Z</time>
      </trkpt>
      <trkpt lat="45.785366" lon="9.085225">
        <ele>322.856666</ele>
        <time>2026-05-02T10:36:38.565Z</time>
      </trkpt>
      <trkpt lat="45.785243" lon="9.085188">
        <ele>322.842649</ele>
        <time>2026-05-02T10:36:41.565Z</time>
      </trkpt>
      <trkpt lat="45.785118" lon="9.085164">
        <ele>322.851992</ele>
        <time>2026-05-02T10:36:44.570Z</time>
      </trkpt>
      <trkpt lat="45.784991" lon="9.085146">
        <ele>322.973826</ele>
        <time>2026-05-02T10:36:47.570Z</time>
      </trkpt>
      <trkpt lat="45.784901" lon="9.085127">
        <ele>323.060672</ele>
        <time>2026-05-02T10:36:49.572Z</time>
      </trkpt>
      <trkpt lat="45.784806" lon="9.085106">
        <ele>323.152437</ele>
        <time>2026-05-02T10:36:51.577Z</time>
      </trkpt>
      <trkpt lat="45.784714" lon="9.085089">
        <ele>323.240993</ele>
        <time>2026-05-02T10:36:53.577Z</time>
      </trkpt>
      <trkpt lat="45.784623" lon="9.085070">
        <ele>323.328784</ele>
        <time>2026-05-02T10:36:55.572Z</time>
      </trkpt>
      <trkpt lat="45.784502" lon="9.085041">
        <ele>323.445901</ele>
        <time>2026-05-02T10:36:58.573Z</time>
      </trkpt>
      <trkpt lat="45.784380" lon="9.085010">
        <ele>323.564186</ele>
        <time>2026-05-02T10:37:01.567Z</time>
      </trkpt>
      <trkpt lat="45.784256" lon="9.084959">
        <ele>323.687338</ele>
        <time>2026-05-02T10:37:04.571Z</time>
      </trkpt>
      <trkpt lat="45.784131" lon="9.084923">
        <ele>323.809054</ele>
        <time>2026-05-02T10:37:07.570Z</time>
      </trkpt>
      <trkpt lat="45.784004" lon="9.084881">
        <ele>323.933480</ele>
        <time>2026-05-02T10:37:10.572Z</time>
      </trkpt>
      <trkpt lat="45.783884" lon="9.084841">
        <ele>324.051095</ele>
        <time>2026-05-02T10:37:13.573Z</time>
      </trkpt>
      <trkpt lat="45.783759" lon="9.084802">
        <ele>324.173221</ele>
        <time>2026-05-02T10:37:16.565Z</time>
      </trkpt>
      <trkpt lat="45.783669" lon="9.084769">
        <ele>324.261905</ele>
        <time>2026-05-02T10:37:18.578Z</time>
      </trkpt>
      <trkpt lat="45.783546" lon="9.084718">
        <ele>324.384140</ele>
        <time>2026-05-02T10:37:21.573Z</time>
      </trkpt>
      <trkpt lat="45.783426" lon="9.084664">
        <ele>324.504209</ele>
        <time>2026-05-02T10:37:24.573Z</time>
      </trkpt>
      <trkpt lat="45.783309" lon="9.084602">
        <ele>324.651653</ele>
        <time>2026-05-02T10:37:27.571Z</time>
      </trkpt>
      <trkpt lat="45.783187" lon="9.084545">
        <ele>324.820386</ele>
        <time>2026-05-02T10:37:30.565Z</time>
      </trkpt>
      <trkpt lat="45.783069" lon="9.084491">
        <ele>324.983268</ele>
        <time>2026-05-02T10:37:33.571Z</time>
      </trkpt>
      <trkpt lat="45.782959" lon="9.084440">
        <ele>325.135293</ele>
        <time>2026-05-02T10:37:36.568Z</time>
      </trkpt>
      <trkpt lat="45.782846" lon="9.084387">
        <ele>325.291636</ele>
        <time>2026-05-02T10:37:39.577Z</time>
      </trkpt>
      <trkpt lat="45.782729" lon="9.084332">
        <ele>325.453550</ele>
        <time>2026-05-02T10:37:42.566Z</time>
      </trkpt>
      <trkpt lat="45.782620" lon="9.084279">
        <ele>325.604903</ele>
        <time>2026-05-02T10:37:45.577Z</time>
      </trkpt>
      <trkpt lat="45.782509" lon="9.084231">
        <ele>325.757363</ele>
        <time>2026-05-02T10:37:48.570Z</time>
      </trkpt>
      <trkpt lat="45.782393" lon="9.084163">
        <ele>325.922159</ele>
        <time>2026-05-02T10:37:51.566Z</time>
      </trkpt>
      <trkpt lat="45.782309" lon="9.084117">
        <ele>326.040402</ele>
        <time>2026-05-02T10:37:53.562Z</time>
      </trkpt>
      <trkpt lat="45.782189" lon="9.084063">
        <ele>326.205791</ele>
        <time>2026-05-02T10:37:56.566Z</time>
      </trkpt>
      <trkpt lat="45.782074" lon="9.084005">
        <ele>326.366100</ele>
        <time>2026-05-02T10:37:59.569Z</time>
      </trkpt>
      <trkpt lat="45.781955" lon="9.083949">
        <ele>326.530798</ele>
        <time>2026-05-02T10:38:02.565Z</time>
      </trkpt>
      <trkpt lat="45.781836" lon="9.083894">
        <ele>326.695213</ele>
        <time>2026-05-02T10:38:05.568Z</time>
      </trkpt>
      <trkpt lat="45.781715" lon="9.083838">
        <ele>326.862412</ele>
        <time>2026-05-02T10:38:08.566Z</time>
      </trkpt>
      <trkpt lat="45.781594" lon="9.083774">
        <ele>327.136262</ele>
        <time>2026-05-02T10:38:11.570Z</time>
      </trkpt>
      <trkpt lat="45.781473" lon="9.083695">
        <ele>327.464749</ele>
        <time>2026-05-02T10:38:14.573Z</time>
      </trkpt>
      <trkpt lat="45.781360" lon="9.083599">
        <ele>327.789263</ele>
        <time>2026-05-02T10:38:17.567Z</time>
      </trkpt>
      <trkpt lat="45.781252" lon="9.083500">
        <ele>328.105965</ele>
        <time>2026-05-02T10:38:20.575Z</time>
      </trkpt>
      <trkpt lat="45.781153" lon="9.083389">
        <ele>328.416465</ele>
        <time>2026-05-02T10:38:23.573Z</time>
      </trkpt>
      <trkpt lat="45.781056" lon="9.083283">
        <ele>328.717788</ele>
        <time>2026-05-02T10:38:26.566Z</time>
      </trkpt>
      <trkpt lat="45.780956" lon="9.083187">
        <ele>329.015120</ele>
        <time>2026-05-02T10:38:29.571Z</time>
      </trkpt>
      <trkpt lat="45.780857" lon="9.083093">
        <ele>329.308486</ele>
        <time>2026-05-02T10:38:32.570Z</time>
      </trkpt>
      <trkpt lat="45.780762" lon="9.083003">
        <ele>329.589806</ele>
        <time>2026-05-02T10:38:35.565Z</time>
      </trkpt>
      <trkpt lat="45.780680" lon="9.082879">
        <ele>329.884251</ele>
        <time>2026-05-02T10:38:38.568Z</time>
      </trkpt>
      <trkpt lat="45.780572" lon="9.082811">
        <ele>330.175680</ele>
        <time>2026-05-02T10:38:41.570Z</time>
      </trkpt>
      <trkpt lat="45.780472" lon="9.082866">
        <ele>330.440303</ele>
        <time>2026-05-02T10:38:44.577Z</time>
      </trkpt>
      <trkpt lat="45.780367" lon="9.082870">
        <ele>330.699819</ele>
        <time>2026-05-02T10:38:47.563Z</time>
      </trkpt>
      <trkpt lat="45.780261" lon="9.082792">
        <ele>330.994187</ele>
        <time>2026-05-02T10:38:51.570Z</time>
      </trkpt>
      <trkpt lat="45.780179" lon="9.082731">
        <ele>331.222428</ele>
        <time>2026-05-02T10:38:54.568Z</time>
      </trkpt>
      <trkpt lat="45.780086" lon="9.082729">
        <ele>331.602350</ele>
        <time>2026-05-02T10:38:57.566Z</time>
      </trkpt>
      <trkpt lat="45.779996" lon="9.082740">
        <ele>332.178458</ele>
        <time>2026-05-02T10:39:00.567Z</time>
      </trkpt>
      <trkpt lat="45.779883" lon="9.082700">
        <ele>332.920819</ele>
        <time>2026-05-02T10:39:04.568Z</time>
      </trkpt>
      <trkpt lat="45.779772" lon="9.082646">
        <ele>333.668425</ele>
        <time>2026-05-02T10:39:08.566Z</time>
      </trkpt>
      <trkpt lat="45.779665" lon="9.082587">
        <ele>334.399603</ele>
        <time>2026-05-02T10:39:12.567Z</time>
      </trkpt>
      <trkpt lat="45.779568" lon="9.082524">
        <ele>335.078786</ele>
        <time>2026-05-02T10:39:16.568Z</time>
      </trkpt>
      <trkpt lat="45.779474" lon="9.082449">
        <ele>335.764896</ele>
        <time>2026-05-02T10:39:21.568Z</time>
      </trkpt>
      <trkpt lat="45.779376" lon="9.082372">
        <ele>336.477641</ele>
        <time>2026-05-02T10:39:26.565Z</time>
      </trkpt>
      <trkpt lat="45.779280" lon="9.082290">
        <ele>337.190348</ele>
        <time>2026-05-02T10:39:31.567Z</time>
      </trkpt>
      <trkpt lat="45.779196" lon="9.082211">
        <ele>337.831072</ele>
        <time>2026-05-02T10:39:36.566Z</time>
      </trkpt>
      <trkpt lat="45.779112" lon="9.082142">
        <ele>338.448520</ele>
        <time>2026-05-02T10:39:42.566Z</time>
      </trkpt>
      <trkpt lat="45.779024" lon="9.082076">
        <ele>339.081937</ele>
        <time>2026-05-02T10:39:48.563Z</time>
      </trkpt>
      <trkpt lat="45.778941" lon="9.082009">
        <ele>339.689446</ele>
        <time>2026-05-02T10:39:54.568Z</time>
      </trkpt>
      <trkpt lat="45.778847" lon="9.081957">
        <ele>340.332060</ele>
        <time>2026-05-02T10:40:00.559Z</time>
      </trkpt>
      <trkpt lat="45.778765" lon="9.081889">
        <ele>340.936234</ele>
        <time>2026-05-02T10:40:06.566Z</time>
      </trkpt>
      <trkpt lat="45.778668" lon="9.081846">
        <ele>341.583802</ele>
        <time>2026-05-02T10:40:13.570Z</time>
      </trkpt>
      <trkpt lat="45.778578" lon="9.081803">
        <ele>342.188859</ele>
        <time>2026-05-02T10:40:18.569Z</time>
      </trkpt>
      <trkpt lat="45.778490" lon="9.081753">
        <ele>342.792592</ele>
        <time>2026-05-02T10:40:23.570Z</time>
      </trkpt>
      <trkpt lat="45.778406" lon="9.081703">
        <ele>342.928096</ele>
        <time>2026-05-02T10:40:28.571Z</time>
      </trkpt>
      <trkpt lat="45.778316" lon="9.081635">
        <ele>343.046167</ele>
        <time>2026-05-02T10:40:34.568Z</time>
      </trkpt>
      <trkpt lat="45.778229" lon="9.081592">
        <ele>343.152972</ele>
        <time>2026-05-02T10:40:39.572Z</time>
      </trkpt>
      <trkpt lat="45.778145" lon="9.081545">
        <ele>343.257624</ele>
        <time>2026-05-02T10:40:44.568Z</time>
      </trkpt>
      <trkpt lat="45.778052" lon="9.081481">
        <ele>343.377351</ele>
        <time>2026-05-02T10:40:50.566Z</time>
      </trkpt>
      <trkpt lat="45.777959" lon="9.081422">
        <ele>343.495382</ele>
        <time>2026-05-02T10:40:55.568Z</time>
      </trkpt>
      <trkpt lat="45.777877" lon="9.081344">
        <ele>343.609592</ele>
        <time>2026-05-02T10:40:59.567Z</time>
      </trkpt>
      <trkpt lat="45.777784" lon="9.081257">
        <ele>343.738472</ele>
        <time>2026-05-02T10:41:03.567Z</time>
      </trkpt>
      <trkpt lat="45.777704" lon="9.081183">
        <ele>343.848967</ele>
        <time>2026-05-02T10:41:06.569Z</time>
      </trkpt>
      <trkpt lat="45.777615" lon="9.081115">
        <ele>343.966013</ele>
        <time>2026-05-02T10:41:09.564Z</time>
      </trkpt>
      <trkpt lat="45.777529" lon="9.081032">
        <ele>344.086332</ele>
        <time>2026-05-02T10:41:12.568Z</time>
      </trkpt>
      <trkpt lat="45.777426" lon="9.080975">
        <ele>344.214471</ele>
        <time>2026-05-02T10:41:15.566Z</time>
      </trkpt>
      <trkpt lat="45.777318" lon="9.080952">
        <ele>344.341194</ele>
        <time>2026-05-02T10:41:18.565Z</time>
      </trkpt>
      <trkpt lat="45.777215" lon="9.080931">
        <ele>344.461940</ele>
        <time>2026-05-02T10:41:21.578Z</time>
      </trkpt>
      <trkpt lat="45.777117" lon="9.080915">
        <ele>344.576416</ele>
        <time>2026-05-02T10:41:24.570Z</time>
      </trkpt>
      <trkpt lat="45.777023" lon="9.080931">
        <ele>344.686281</ele>
        <time>2026-05-02T10:41:27.568Z</time>
      </trkpt>
      <trkpt lat="45.776927" lon="9.080979">
        <ele>344.804281</ele>
        <time>2026-05-02T10:41:30.570Z</time>
      </trkpt>
      <trkpt lat="45.776816" lon="9.080999">
        <ele>344.863238</ele>
        <time>2026-05-02T10:41:34.559Z</time>
      </trkpt>
      <trkpt lat="45.776718" lon="9.081007">
        <ele>344.512555</ele>
        <time>2026-05-02T10:41:37.562Z</time>
      </trkpt>
      <trkpt lat="45.776593" lon="9.080964">
        <ele>344.053306</ele>
        <time>2026-05-02T10:41:40.567Z</time>
      </trkpt>
      <trkpt lat="45.776497" lon="9.080926">
        <ele>343.697505</ele>
        <time>2026-05-02T10:41:42.569Z</time>
      </trkpt>
      <trkpt lat="45.776397" lon="9.080883">
        <ele>343.324523</ele>
        <time>2026-05-02T10:41:44.571Z</time>
      </trkpt>
      <trkpt lat="45.776297" lon="9.080815">
        <ele>342.929118</ele>
        <time>2026-05-02T10:41:46.569Z</time>
      </trkpt>
      <trkpt lat="45.776196" lon="9.080738">
        <ele>342.520446</ele>
        <time>2026-05-02T10:41:48.566Z</time>
      </trkpt>
      <trkpt lat="45.776093" lon="9.080659">
        <ele>342.103124</ele>
        <time>2026-05-02T10:41:50.566Z</time>
      </trkpt>
      <trkpt lat="45.775993" lon="9.080574">
        <ele>341.687799</ele>
        <time>2026-05-02T10:41:52.566Z</time>
      </trkpt>
      <trkpt lat="45.775888" lon="9.080479">
        <ele>341.244230</ele>
        <time>2026-05-02T10:41:54.573Z</time>
      </trkpt>
      <trkpt lat="45.775785" lon="9.080379">
        <ele>340.799823</ele>
        <time>2026-05-02T10:41:56.574Z</time>
      </trkpt>
      <trkpt lat="45.775683" lon="9.080278">
        <ele>340.356958</ele>
        <time>2026-05-02T10:41:58.572Z</time>
      </trkpt>
      <trkpt lat="45.775580" lon="9.080174">
        <ele>339.906886</ele>
        <time>2026-05-02T10:42:00.565Z</time>
      </trkpt>
      <trkpt lat="45.775484" lon="9.080063">
        <ele>339.466284</ele>
        <time>2026-05-02T10:42:02.568Z</time>
      </trkpt>
      <trkpt lat="45.775385" lon="9.079957">
        <ele>339.024855</ele>
        <time>2026-05-02T10:42:04.567Z</time>
      </trkpt>
      <trkpt lat="45.775289" lon="9.079854">
        <ele>338.596485</ele>
        <time>2026-05-02T10:42:06.566Z</time>
      </trkpt>
      <trkpt lat="45.775200" lon="9.079739">
        <ele>338.266322</ele>
        <time>2026-05-02T10:42:08.566Z</time>
      </trkpt>
      <trkpt lat="45.775125" lon="9.079605">
        <ele>337.968151</ele>
        <time>2026-05-02T10:42:10.567Z</time>
      </trkpt>
      <trkpt lat="45.775044" lon="9.079477">
        <ele>337.668207</ele>
        <time>2026-05-02T10:42:12.563Z</time>
      </trkpt>
      <trkpt lat="45.774958" lon="9.079367">
        <ele>337.381444</ele>
        <time>2026-05-02T10:42:14.567Z</time>
      </trkpt>
      <trkpt lat="45.774867" lon="9.079274">
        <ele>337.103381</ele>
        <time>2026-05-02T10:42:16.564Z</time>
      </trkpt>
      <trkpt lat="45.774765" lon="9.079205">
        <ele>336.822753</ele>
        <time>2026-05-02T10:42:18.570Z</time>
      </trkpt>
      <trkpt lat="45.774652" lon="9.079168">
        <ele>336.534346</ele>
        <time>2026-05-02T10:42:20.569Z</time>
      </trkpt>
      <trkpt lat="45.774537" lon="9.079147">
        <ele>336.245891</ele>
        <time>2026-05-02T10:42:22.569Z</time>
      </trkpt>
      <trkpt lat="45.774423" lon="9.079130">
        <ele>335.960705</ele>
        <time>2026-05-02T10:42:24.568Z</time>
      </trkpt>
      <trkpt lat="45.774310" lon="9.079094">
        <ele>335.672680</ele>
        <time>2026-05-02T10:42:26.563Z</time>
      </trkpt>
      <trkpt lat="45.774196" lon="9.079065">
        <ele>335.384594</ele>
        <time>2026-05-02T10:42:28.565Z</time>
      </trkpt>
      <trkpt lat="45.774085" lon="9.079024">
        <ele>335.099384</ele>
        <time>2026-05-02T10:42:30.570Z</time>
      </trkpt>
      <trkpt lat="45.773976" lon="9.078990">
        <ele>334.821825</ele>
        <time>2026-05-02T10:42:32.576Z</time>
      </trkpt>
      <trkpt lat="45.773869" lon="9.078952">
        <ele>334.547541</ele>
        <time>2026-05-02T10:42:34.567Z</time>
      </trkpt>
      <trkpt lat="45.773763" lon="9.078914">
        <ele>334.275671</ele>
        <time>2026-05-02T10:42:36.568Z</time>
      </trkpt>
      <trkpt lat="45.773660" lon="9.078869">
        <ele>334.017651</ele>
        <time>2026-05-02T10:42:38.568Z</time>
      </trkpt>
      <trkpt lat="45.773559" lon="9.078826">
        <ele>334.090406</ele>
        <time>2026-05-02T10:42:40.569Z</time>
      </trkpt>
      <trkpt lat="45.773457" lon="9.078793">
        <ele>334.162613</ele>
        <time>2026-05-02T10:42:42.567Z</time>
      </trkpt>
      <trkpt lat="45.773353" lon="9.078756">
        <ele>334.236608</ele>
        <time>2026-05-02T10:42:44.567Z</time>
      </trkpt>
      <trkpt lat="45.773255" lon="9.078711">
        <ele>334.307667</ele>
        <time>2026-05-02T10:42:46.567Z</time>
      </trkpt>
      <trkpt lat="45.773160" lon="9.078673">
        <ele>334.375774</ele>
        <time>2026-05-02T10:42:48.568Z</time>
      </trkpt>
      <trkpt lat="45.773062" lon="9.078629">
        <ele>334.446688</ele>
        <time>2026-05-02T10:42:50.576Z</time>
      </trkpt>
      <trkpt lat="45.772965" lon="9.078577">
        <ele>334.518201</ele>
        <time>2026-05-02T10:42:52.565Z</time>
      </trkpt>
      <trkpt lat="45.772877" lon="9.078522">
        <ele>334.584492</ele>
        <time>2026-05-02T10:42:54.568Z</time>
      </trkpt>
      <trkpt lat="45.772790" lon="9.078467">
        <ele>334.650151</ele>
        <time>2026-05-02T10:42:56.567Z</time>
      </trkpt>
      <trkpt lat="45.772704" lon="9.078408">
        <ele>334.715986</ele>
        <time>2026-05-02T10:42:58.565Z</time>
      </trkpt>
      <trkpt lat="45.772626" lon="9.078332">
        <ele>334.781111</ele>
        <time>2026-05-02T10:43:00.566Z</time>
      </trkpt>
      <trkpt lat="45.772581" lon="9.078155">
        <ele>334.871851</ele>
        <time>2026-05-02T10:43:03.571Z</time>
      </trkpt>
      <trkpt lat="45.772605" lon="9.077973">
        <ele>334.961066</ele>
        <time>2026-05-02T10:43:06.572Z</time>
      </trkpt>
      <trkpt lat="45.772647" lon="9.077834">
        <ele>335.034029</ele>
        <time>2026-05-02T10:43:09.570Z</time>
      </trkpt>
      <trkpt lat="45.772723" lon="9.077743">
        <ele>335.102406</ele>
        <time>2026-05-02T10:43:12.569Z</time>
      </trkpt>
      <trkpt lat="45.772777" lon="9.077600">
        <ele>335.180730</ele>
        <time>2026-05-02T10:43:15.571Z</time>
      </trkpt>
      <trkpt lat="45.772742" lon="9.077452">
        <ele>335.256001</ele>
        <time>2026-05-02T10:43:18.568Z</time>
      </trkpt>
      <trkpt lat="45.772638" lon="9.077382">
        <ele>335.189808</ele>
        <time>2026-05-02T10:43:21.564Z</time>
      </trkpt>
      <trkpt lat="45.772521" lon="9.077393">
        <ele>335.119312</ele>
        <time>2026-05-02T10:43:24.569Z</time>
      </trkpt>
      <trkpt lat="45.772411" lon="9.077348">
        <ele>335.050535</ele>
        <time>2026-05-02T10:43:27.569Z</time>
      </trkpt>
      <trkpt lat="45.772362" lon="9.077230">
        <ele>334.992943</ele>
        <time>2026-05-02T10:43:30.567Z</time>
      </trkpt>
      <trkpt lat="45.772352" lon="9.077088">
        <ele>334.933090</ele>
        <time>2026-05-02T10:43:34.564Z</time>
      </trkpt>
      <trkpt lat="45.772342" lon="9.076937">
        <ele>334.869479</ele>
        <time>2026-05-02T10:43:38.570Z</time>
      </trkpt>
      <trkpt lat="45.772309" lon="9.076777">
        <ele>334.799508</ele>
        <time>2026-05-02T10:43:42.573Z</time>
      </trkpt>
      <trkpt lat="45.772252" lon="9.076649">
        <ele>334.735821</ele>
        <time>2026-05-02T10:43:45.572Z</time>
      </trkpt>
      <trkpt lat="45.772181" lon="9.076519">
        <ele>334.666578</ele>
        <time>2026-05-02T10:43:48.572Z</time>
      </trkpt>
      <trkpt lat="45.772082" lon="9.076397">
        <ele>334.588088</ele>
        <time>2026-05-02T10:43:51.588Z</time>
      </trkpt>
      <trkpt lat="45.772004" lon="9.076289">
        <ele>334.522890</ele>
        <time>2026-05-02T10:43:53.557Z</time>
      </trkpt>
      <trkpt lat="45.771940" lon="9.076129">
        <ele>334.445540</ele>
        <time>2026-05-02T10:43:55.567Z</time>
      </trkpt>
      <trkpt lat="45.771911" lon="9.075928">
        <ele>334.359461</ele>
        <time>2026-05-02T10:43:57.574Z</time>
      </trkpt>
      <trkpt lat="45.771911" lon="9.075712">
        <ele>334.268875</ele>
        <time>2026-05-02T10:43:59.572Z</time>
      </trkpt>
      <trkpt lat="45.771932" lon="9.075490">
        <ele>334.172055</ele>
        <time>2026-05-02T10:44:01.562Z</time>
      </trkpt>
      <trkpt lat="45.771946" lon="9.075262">
        <ele>333.846880</ele>
        <time>2026-05-02T10:44:03.565Z</time>
      </trkpt>
      <trkpt lat="45.771950" lon="9.075035">
        <ele>333.524277</ele>
        <time>2026-05-02T10:44:05.563Z</time>
      </trkpt>
      <trkpt lat="45.771940" lon="9.074820">
        <ele>333.218146</ele>
        <time>2026-05-02T10:44:07.563Z</time>
      </trkpt>
      <trkpt lat="45.771909" lon="9.074618">
        <ele>332.924299</ele>
        <time>2026-05-02T10:44:09.561Z</time>
      </trkpt>
      <trkpt lat="45.771860" lon="9.074433">
        <ele>332.643157</ele>
        <time>2026-05-02T10:44:11.565Z</time>
      </trkpt>
      <trkpt lat="45.771809" lon="9.074249">
        <ele>332.361864</ele>
        <time>2026-05-02T10:44:13.570Z</time>
      </trkpt>
      <trkpt lat="45.771753" lon="9.074064">
        <ele>332.075349</ele>
        <time>2026-05-02T10:44:15.565Z</time>
      </trkpt>
      <trkpt lat="45.771696" lon="9.073890">
        <ele>331.802240</ele>
        <time>2026-05-02T10:44:17.570Z</time>
      </trkpt>
      <trkpt lat="45.771645" lon="9.073723">
        <ele>331.543237</ele>
        <time>2026-05-02T10:44:19.564Z</time>
      </trkpt>
      <trkpt lat="45.771595" lon="9.073567">
        <ele>331.299327</ele>
        <time>2026-05-02T10:44:21.569Z</time>
      </trkpt>
      <trkpt lat="45.771535" lon="9.073430">
        <ele>331.069503</ele>
        <time>2026-05-02T10:44:23.569Z</time>
      </trkpt>
      <trkpt lat="45.771455" lon="9.073320">
        <ele>330.843729</ele>
        <time>2026-05-02T10:44:25.566Z</time>
      </trkpt>
      <trkpt lat="45.771364" lon="9.073239">
        <ele>330.625560</ele>
        <time>2026-05-02T10:44:27.567Z</time>
      </trkpt>
      <trkpt lat="45.771261" lon="9.073187">
        <ele>330.651638</ele>
        <time>2026-05-02T10:44:29.563Z</time>
      </trkpt>
      <trkpt lat="45.771151" lon="9.073173">
        <ele>330.937222</ele>
        <time>2026-05-02T10:44:31.563Z</time>
      </trkpt>
      <trkpt lat="45.771049" lon="9.073185">
        <ele>331.201886</ele>
        <time>2026-05-02T10:44:33.566Z</time>
      </trkpt>
      <trkpt lat="45.770950" lon="9.073224">
        <ele>331.467394</ele>
        <time>2026-05-02T10:44:35.567Z</time>
      </trkpt>
      <trkpt lat="45.770858" lon="9.073291">
        <ele>331.734248</ele>
        <time>2026-05-02T10:44:37.566Z</time>
      </trkpt>
      <trkpt lat="45.770769" lon="9.073360">
        <ele>331.995905</ele>
        <time>2026-05-02T10:44:39.566Z</time>
      </trkpt>
      <trkpt lat="45.770679" lon="9.073428">
        <ele>332.258994</ele>
        <time>2026-05-02T10:44:41.566Z</time>
      </trkpt>
      <trkpt lat="45.770591" lon="9.073492">
        <ele>332.514174</ele>
        <time>2026-05-02T10:44:43.565Z</time>
      </trkpt>
      <trkpt lat="45.770506" lon="9.073557">
        <ele>332.763305</ele>
        <time>2026-05-02T10:44:45.565Z</time>
      </trkpt>
      <trkpt lat="45.770422" lon="9.073612">
        <ele>333.002116</ele>
        <time>2026-05-02T10:44:47.567Z</time>
      </trkpt>
      <trkpt lat="45.770314" lon="9.073685">
        <ele>333.310896</ele>
        <time>2026-05-02T10:44:50.565Z</time>
      </trkpt>
      <trkpt lat="45.770218" lon="9.073760">
        <ele>333.593627</ele>
        <time>2026-05-02T10:44:53.580Z</time>
      </trkpt>
      <trkpt lat="45.770123" lon="9.073828">
        <ele>333.868221</ele>
        <time>2026-05-02T10:44:56.565Z</time>
      </trkpt>
      <trkpt lat="45.770035" lon="9.073894">
        <ele>334.125055</ele>
        <time>2026-05-02T10:44:59.571Z</time>
      </trkpt>
      <trkpt lat="45.769930" lon="9.073963">
        <ele>334.423757</ele>
        <time>2026-05-02T10:45:03.570Z</time>
      </trkpt>
      <trkpt lat="45.769847" lon="9.074027">
        <ele>334.667477</ele>
        <time>2026-05-02T10:45:07.565Z</time>
      </trkpt>
      <trkpt lat="45.769761" lon="9.074096">
        <ele>334.922338</ele>
        <time>2026-05-02T10:45:12.564Z</time>
      </trkpt>
      <trkpt lat="45.769685" lon="9.074171">
        <ele>335.160941</ele>
        <time>2026-05-02T10:45:17.568Z</time>
      </trkpt>
      <trkpt lat="45.769609" lon="9.074261">
        <ele>336.220610</ele>
        <time>2026-05-02T10:45:23.567Z</time>
      </trkpt>
      <trkpt lat="45.769539" lon="9.074359">
        <ele>337.282104</ele>
        <time>2026-05-02T10:45:29.560Z</time>
      </trkpt>
      <trkpt lat="45.769467" lon="9.074449">
        <ele>338.318475</ele>
        <time>2026-05-02T10:45:35.564Z</time>
      </trkpt>
      <trkpt lat="45.769385" lon="9.074539">
        <ele>339.438888</ele>
        <time>2026-05-02T10:45:42.567Z</time>
      </trkpt>
      <trkpt lat="45.769306" lon="9.074612">
        <ele>340.458584</ele>
        <time>2026-05-02T10:45:49.571Z</time>
      </trkpt>
      <trkpt lat="45.769217" lon="9.074676">
        <ele>341.538818</ele>
        <time>2026-05-02T10:45:57.566Z</time>
      </trkpt>
      <trkpt lat="45.769131" lon="9.074727">
        <ele>342.548517</ele>
        <time>2026-05-02T10:46:04.564Z</time>
      </trkpt>
      <trkpt lat="45.769043" lon="9.074771">
        <ele>343.559639</ele>
        <time>2026-05-02T10:46:11.568Z</time>
      </trkpt>
      <trkpt lat="45.768952" lon="9.074813">
        <ele>344.596809</ele>
        <time>2026-05-02T10:46:18.562Z</time>
      </trkpt>
      <trkpt lat="45.768876" lon="9.074883">
        <ele>345.576851</ele>
        <time>2026-05-02T10:46:24.566Z</time>
      </trkpt>
      <trkpt lat="45.768804" lon="9.074961">
        <ele>346.555940</ele>
        <time>2026-05-02T10:46:30.565Z</time>
      </trkpt>
      <trkpt lat="45.768725" lon="9.075059">
        <ele>347.689353</ele>
        <time>2026-05-02T10:46:37.558Z</time>
      </trkpt>
      <trkpt lat="45.768648" lon="9.075161">
        <ele>348.826771</ele>
        <time>2026-05-02T10:46:44.564Z</time>
      </trkpt>
      <trkpt lat="45.768584" lon="9.075258">
        <ele>349.837210</ele>
        <time>2026-05-02T10:46:50.571Z</time>
      </trkpt>
      <trkpt lat="45.768516" lon="9.075343">
        <ele>350.816012</ele>
        <time>2026-05-02T10:46:56.564Z</time>
      </trkpt>
      <trkpt lat="45.768439" lon="9.075437">
        <ele>351.913245</ele>
        <time>2026-05-02T10:47:03.565Z</time>
      </trkpt>
      <trkpt lat="45.768358" lon="9.075519">
        <ele>352.989048</ele>
        <time>2026-05-02T10:47:10.561Z</time>
      </trkpt>
      <trkpt lat="45.768271" lon="9.075599">
        <ele>354.110404</ele>
        <time>2026-05-02T10:47:17.561Z</time>
      </trkpt>
      <trkpt lat="45.768184" lon="9.075671">
        <ele>354.905931</ele>
        <time>2026-05-02T10:47:24.571Z</time>
      </trkpt>
      <trkpt lat="45.768100" lon="9.075727">
        <ele>355.344953</ele>
        <time>2026-05-02T10:47:31.564Z</time>
      </trkpt>
      <trkpt lat="45.768000" lon="9.075774">
        <ele>355.843681</ele>
        <time>2026-05-02T10:47:38.564Z</time>
      </trkpt>
      <trkpt lat="45.767903" lon="9.075798">
        <ele>356.310168</ele>
        <time>2026-05-02T10:47:44.563Z</time>
      </trkpt>
      <trkpt lat="45.767800" lon="9.075796">
        <ele>356.798337</ele>
        <time>2026-05-02T10:47:50.570Z</time>
      </trkpt>
      <trkpt lat="45.767699" lon="9.075758">
        <ele>357.293194</ele>
        <time>2026-05-02T10:47:56.564Z</time>
      </trkpt>
      <trkpt lat="45.767619" lon="9.075686">
        <ele>357.740844</ele>
        <time>2026-05-02T10:48:01.569Z</time>
      </trkpt>
      <trkpt lat="45.767567" lon="9.075552">
        <ele>358.247758</ele>
        <time>2026-05-02T10:48:06.570Z</time>
      </trkpt>
      <trkpt lat="45.767594" lon="9.075398">
        <ele>358.772691</ele>
        <time>2026-05-02T10:48:11.562Z</time>
      </trkpt>
      <trkpt lat="45.767635" lon="9.075271">
        <ele>359.235314</ele>
        <time>2026-05-02T10:48:15.565Z</time>
      </trkpt>
      <trkpt lat="45.767624" lon="9.075121">
        <ele>359.733922</ele>
        <time>2026-05-02T10:48:19.564Z</time>
      </trkpt>
      <trkpt lat="45.767560" lon="9.074999">
        <ele>360.238553</ele>
        <time>2026-05-02T10:48:23.565Z</time>
      </trkpt>
      <trkpt lat="45.767459" lon="9.074959">
        <ele>360.735130</ele>
        <time>2026-05-02T10:48:27.564Z</time>
      </trkpt>
      <trkpt lat="45.767371" lon="9.074987">
        <ele>361.162317</ele>
        <time>2026-05-02T10:48:30.565Z</time>
      </trkpt>
      <trkpt lat="45.767292" lon="9.075061">
        <ele>361.609543</ele>
        <time>2026-05-02T10:48:33.563Z</time>
      </trkpt>
      <trkpt lat="45.767214" lon="9.075147">
        <ele>362.075878</ele>
        <time>2026-05-02T10:48:36.563Z</time>
      </trkpt>
      <trkpt lat="45.767119" lon="9.075147">
        <ele>362.526090</ele>
        <time>2026-05-02T10:48:39.568Z</time>
      </trkpt>
      <trkpt lat="45.767028" lon="9.075146">
        <ele>362.957359</ele>
        <time>2026-05-02T10:48:42.565Z</time>
      </trkpt>
      <trkpt lat="45.766937" lon="9.075140">
        <ele>363.375693</ele>
        <time>2026-05-02T10:48:45.574Z</time>
      </trkpt>
      <trkpt lat="45.766824" lon="9.075119">
        <ele>363.877169</ele>
        <time>2026-05-02T10:48:49.568Z</time>
      </trkpt>
      <trkpt lat="45.766719" lon="9.075075">
        <ele>364.358614</ele>
        <time>2026-05-02T10:48:53.568Z</time>
      </trkpt>
      <trkpt lat="45.766626" lon="9.075018">
        <ele>364.803748</ele>
        <time>2026-05-02T10:48:57.567Z</time>
      </trkpt>
      <trkpt lat="45.766546" lon="9.074954">
        <ele>365.206943</ele>
        <time>2026-05-02T10:49:01.567Z</time>
      </trkpt>
      <trkpt lat="45.766462" lon="9.074879">
        <ele>365.642471</ele>
        <time>2026-05-02T10:49:05.565Z</time>
      </trkpt>
      <trkpt lat="45.766380" lon="9.074810">
        <ele>366.060933</ele>
        <time>2026-05-02T10:49:09.565Z</time>
      </trkpt>
      <trkpt lat="45.766294" lon="9.074734">
        <ele>366.505561</ele>
        <time>2026-05-02T10:49:13.565Z</time>
      </trkpt>
      <trkpt lat="45.766209" lon="9.074664">
        <ele>366.936983</ele>
        <time>2026-05-02T10:49:17.564Z</time>
      </trkpt>
      <trkpt lat="45.766127" lon="9.074606">
        <ele>367.339405</ele>
        <time>2026-05-02T10:49:21.564Z</time>
      </trkpt>
      <trkpt lat="45.766025" lon="9.074543">
        <ele>367.828203</ele>
        <time>2026-05-02T10:49:26.566Z</time>
      </trkpt>
      <trkpt lat="45.765925" lon="9.074502">
        <ele>368.285951</ele>
        <time>2026-05-02T10:49:31.563Z</time>
      </trkpt>
      <trkpt lat="45.765816" lon="9.074468">
        <ele>368.776886</ele>
        <time>2026-05-02T10:49:36.571Z</time>
      </trkpt>
      <trkpt lat="45.765712" lon="9.074441">
        <ele>369.242037</ele>
        <time>2026-05-02T10:49:41.572Z</time>
      </trkpt>
      <trkpt lat="45.765608" lon="9.074414">
        <ele>369.707187</ele>
        <time>2026-05-02T10:49:46.567Z</time>
      </trkpt>
      <trkpt lat="45.765506" lon="9.074378">
        <ele>370.169496</ele>
        <time>2026-05-02T10:49:51.566Z</time>
      </trkpt>
      <trkpt lat="45.765405" lon="9.074351">
        <ele>370.621662</ele>
        <time>2026-05-02T10:49:56.567Z</time>
      </trkpt>
      <trkpt lat="45.765312" lon="9.074329">
        <ele>371.036491</ele>
        <time>2026-05-02T10:50:01.564Z</time>
      </trkpt>
      <trkpt lat="45.765206" lon="9.074307">
        <ele>371.736044</ele>
        <time>2026-05-02T10:50:07.567Z</time>
      </trkpt>
      <trkpt lat="45.765112" lon="9.074298">
        <ele>372.392952</ele>
        <time>2026-05-02T10:50:12.570Z</time>
      </trkpt>
      <trkpt lat="45.765020" lon="9.074290">
        <ele>373.035632</ele>
        <time>2026-05-02T10:50:17.562Z</time>
      </trkpt>
      <trkpt lat="45.764924" lon="9.074294">
        <ele>373.705308</ele>
        <time>2026-05-02T10:50:22.562Z</time>
      </trkpt>
      <trkpt lat="45.764831" lon="9.074298">
        <ele>374.354074</ele>
        <time>2026-05-02T10:50:27.564Z</time>
      </trkpt>
      <trkpt lat="45.764735" lon="9.074308">
        <ele>375.025232</ele>
        <time>2026-05-02T10:50:32.571Z</time>
      </trkpt>
      <trkpt lat="45.764641" lon="9.074318">
        <ele>375.682481</ele>
        <time>2026-05-02T10:50:37.569Z</time>
      </trkpt>
      <trkpt lat="45.764535" lon="9.074322">
        <ele>376.421858</ele>
        <time>2026-05-02T10:50:43.564Z</time>
      </trkpt>
      <trkpt lat="45.764442" lon="9.074337">
        <ele>377.074425</ele>
        <time>2026-05-02T10:50:48.568Z</time>
      </trkpt>
      <trkpt lat="45.764352" lon="9.074340">
        <ele>377.702150</ele>
        <time>2026-05-02T10:50:53.572Z</time>
      </trkpt>
      <trkpt lat="45.764260" lon="9.074358">
        <ele>378.349599</ele>
        <time>2026-05-02T10:50:58.566Z</time>
      </trkpt>
      <trkpt lat="45.764165" lon="9.074369">
        <ele>379.014177</ele>
        <time>2026-05-02T10:51:03.565Z</time>
      </trkpt>
      <trkpt lat="45.764058" lon="9.074388">
        <ele>379.765973</ele>
        <time>2026-05-02T10:51:09.565Z</time>
      </trkpt>
      <trkpt lat="45.763953" lon="9.074420">
        <ele>380.514486</ele>
        <time>2026-05-02T10:51:15.572Z</time>
      </trkpt>
      <trkpt lat="45.763863" lon="9.074451">
        <ele>381.159905</ele>
        <time>2026-05-02T10:51:20.563Z</time>
      </trkpt>
      <trkpt lat="45.763767" lon="9.074470">
        <ele>381.835648</ele>
        <time>2026-05-02T10:51:25.571Z</time>
      </trkpt>
      <trkpt lat="45.763661" lon="9.074498">
        <ele>382.587214</ele>
        <time>2026-05-02T10:51:31.568Z</time>
      </trkpt>
      <trkpt lat="45.763560" lon="9.074513">
        <ele>383.295240</ele>
        <time>2026-05-02T10:51:36.576Z</time>
      </trkpt>
      <trkpt lat="45.763453" lon="9.074563">
        <ele>383.626855</ele>
        <time>2026-05-02T10:51:41.563Z</time>
      </trkpt>
      <trkpt lat="45.763355" lon="9.074604">
        <ele>383.572424</ele>
        <time>2026-05-02T10:51:45.564Z</time>
      </trkpt>
      <trkpt lat="45.763254" lon="9.074663">
        <ele>383.514274</ele>
        <time>2026-05-02T10:51:49.576Z</time>
      </trkpt>
      <trkpt lat="45.763158" lon="9.074723">
        <ele>383.458436</ele>
        <time>2026-05-02T10:51:53.563Z</time>
      </trkpt>
      <trkpt lat="45.763066" lon="9.074779">
        <ele>383.405145</ele>
        <time>2026-05-02T10:51:57.566Z</time>
      </trkpt>
      <trkpt lat="45.762974" lon="9.074858">
        <ele>383.347965</ele>
        <time>2026-05-02T10:52:01.566Z</time>
      </trkpt>
      <trkpt lat="45.762880" lon="9.074953">
        <ele>383.286642</ele>
        <time>2026-05-02T10:52:05.564Z</time>
      </trkpt>
      <trkpt lat="45.762800" lon="9.075028">
        <ele>383.235676</ele>
        <time>2026-05-02T10:52:08.573Z</time>
      </trkpt>
      <trkpt lat="45.762710" lon="9.075123">
        <ele>383.176084</ele>
        <time>2026-05-02T10:52:11.563Z</time>
      </trkpt>
      <trkpt lat="45.762601" lon="9.075224">
        <ele>383.106883</ele>
        <time>2026-05-02T10:52:14.570Z</time>
      </trkpt>
      <trkpt lat="45.762515" lon="9.075287">
        <ele>383.055389</ele>
        <time>2026-05-02T10:52:16.572Z</time>
      </trkpt>
      <trkpt lat="45.762428" lon="9.075357">
        <ele>383.002195</ele>
        <time>2026-05-02T10:52:18.563Z</time>
      </trkpt>
      <trkpt lat="45.762328" lon="9.075418">
        <ele>382.944251</ele>
        <time>2026-05-02T10:52:20.566Z</time>
      </trkpt>
      <trkpt lat="45.762231" lon="9.075482">
        <ele>382.887317</ele>
        <time>2026-05-02T10:52:22.567Z</time>
      </trkpt>
      <trkpt lat="45.762133" lon="9.075528">
        <ele>382.832336</ele>
        <time>2026-05-02T10:52:24.568Z</time>
      </trkpt>
      <trkpt lat="45.762030" lon="9.075549">
        <ele>382.776867</ele>
        <time>2026-05-02T10:52:26.575Z</time>
      </trkpt>
      <trkpt lat="45.761924" lon="9.075555">
        <ele>382.720307</ele>
        <time>2026-05-02T10:52:28.563Z</time>
      </trkpt>
      <trkpt lat="45.761814" lon="9.075561">
        <ele>382.794599</ele>
        <time>2026-05-02T10:52:30.568Z</time>
      </trkpt>
      <trkpt lat="45.761709" lon="9.075570">
        <ele>382.932534</ele>
        <time>2026-05-02T10:52:32.575Z</time>
      </trkpt>
      <trkpt lat="45.761603" lon="9.075576">
        <ele>383.071644</ele>
        <time>2026-05-02T10:52:34.566Z</time>
      </trkpt>
      <trkpt lat="45.761500" lon="9.075582">
        <ele>383.206822</ele>
        <time>2026-05-02T10:52:36.563Z</time>
      </trkpt>
      <trkpt lat="45.761400" lon="9.075593">
        <ele>383.338341</ele>
        <time>2026-05-02T10:52:38.566Z</time>
      </trkpt>
      <trkpt lat="45.761303" lon="9.075604">
        <ele>383.465937</ele>
        <time>2026-05-02T10:52:40.565Z</time>
      </trkpt>
      <trkpt lat="45.761200" lon="9.075607">
        <ele>383.601032</ele>
        <time>2026-05-02T10:52:43.572Z</time>
      </trkpt>
      <trkpt lat="45.761076" lon="9.075606">
        <ele>383.763639</ele>
        <time>2026-05-02T10:52:47.565Z</time>
      </trkpt>
      <trkpt lat="45.760963" lon="9.075571">
        <ele>383.915240</ele>
        <time>2026-05-02T10:52:50.567Z</time>
      </trkpt>
      <trkpt lat="45.760854" lon="9.075554">
        <ele>384.059018</ele>
        <time>2026-05-02T10:52:53.571Z</time>
      </trkpt>
      <trkpt lat="45.760758" lon="9.075514">
        <ele>384.190117</ele>
        <time>2026-05-02T10:52:56.564Z</time>
      </trkpt>
      <trkpt lat="45.760666" lon="9.075478">
        <ele>384.315174</ele>
        <time>2026-05-02T10:52:59.564Z</time>
      </trkpt>
      <trkpt lat="45.760560" lon="9.075436">
        <ele>384.459388</ele>
        <time>2026-05-02T10:53:03.562Z</time>
      </trkpt>
      <trkpt lat="45.760473" lon="9.075391">
        <ele>384.580674</ele>
        <time>2026-05-02T10:53:07.565Z</time>
      </trkpt>
      <trkpt lat="45.760373" lon="9.075328">
        <ele>384.723914</ele>
        <time>2026-05-02T10:53:12.577Z</time>
      </trkpt>
      <trkpt lat="45.760280" lon="9.075287">
        <ele>384.851506</ele>
        <time>2026-05-02T10:53:16.563Z</time>
      </trkpt>
      <trkpt lat="45.760187" lon="9.075245">
        <ele>384.979370</ele>
        <time>2026-05-02T10:53:20.568Z</time>
      </trkpt>
      <trkpt lat="45.760089" lon="9.075208">
        <ele>385.179913</ele>
        <time>2026-05-02T10:53:25.567Z</time>
      </trkpt>
      <trkpt lat="45.759995" lon="9.075167">
        <ele>385.471396</ele>
        <time>2026-05-02T10:53:30.564Z</time>
      </trkpt>
      <trkpt lat="45.759896" lon="9.075119">
        <ele>385.781434</ele>
        <time>2026-05-02T10:53:36.563Z</time>
      </trkpt>
      <trkpt lat="45.759808" lon="9.075073">
        <ele>386.059311</ele>
        <time>2026-05-02T10:53:42.560Z</time>
      </trkpt>
      <trkpt lat="45.759716" lon="9.075019">
        <ele>386.354232</ele>
        <time>2026-05-02T10:53:48.564Z</time>
      </trkpt>
      <trkpt lat="45.759634" lon="9.074966">
        <ele>386.621079</ele>
        <time>2026-05-02T10:53:53.570Z</time>
      </trkpt>
      <trkpt lat="45.759539" lon="9.074921">
        <ele>386.917894</ele>
        <time>2026-05-02T10:53:59.557Z</time>
      </trkpt>
      <trkpt lat="45.759454" lon="9.074870">
        <ele>387.191254</ele>
        <time>2026-05-02T10:54:05.569Z</time>
      </trkpt>
      <trkpt lat="45.759366" lon="9.074816">
        <ele>387.475231</ele>
        <time>2026-05-02T10:54:10.563Z</time>
      </trkpt>
      <trkpt lat="45.759266" lon="9.074754">
        <ele>387.798451</ele>
        <time>2026-05-02T10:54:15.567Z</time>
      </trkpt>
      <trkpt lat="45.759178" lon="9.074697">
        <ele>388.084928</ele>
        <time>2026-05-02T10:54:19.563Z</time>
      </trkpt>
      <trkpt lat="45.759080" lon="9.074640">
        <ele>388.398677</ele>
        <time>2026-05-02T10:54:24.565Z</time>
      </trkpt>
      <trkpt lat="45.758991" lon="9.074592">
        <ele>388.680774</ele>
        <time>2026-05-02T10:54:28.565Z</time>
      </trkpt>
      <trkpt lat="45.758904" lon="9.074548">
        <ele>388.954461</ele>
        <time>2026-05-02T10:54:32.572Z</time>
      </trkpt>
      <trkpt lat="45.758814" lon="9.074481">
        <ele>389.255316</ele>
        <time>2026-05-02T10:54:36.565Z</time>
      </trkpt>
      <trkpt lat="45.758677" lon="9.074409">
        <ele>389.688195</ele>
        <time>2026-05-02T10:55:10.567Z</time>
      </trkpt>
      <trkpt lat="45.758588" lon="9.074344">
        <ele>389.984519</ele>
        <time>2026-05-02T10:55:13.565Z</time>
      </trkpt>
      <trkpt lat="45.758486" lon="9.074278">
        <ele>390.316515</ele>
        <time>2026-05-02T10:55:16.562Z</time>
      </trkpt>
      <trkpt lat="45.758378" lon="9.074210">
        <ele>390.235034</ele>
        <time>2026-05-02T10:55:19.564Z</time>
      </trkpt>
      <trkpt lat="45.758263" lon="9.074146">
        <ele>390.020502</ele>
        <time>2026-05-02T10:55:22.572Z</time>
      </trkpt>
      <trkpt lat="45.758145" lon="9.074071">
        <ele>389.796027</ele>
        <time>2026-05-02T10:55:25.572Z</time>
      </trkpt>
      <trkpt lat="45.758031" lon="9.073994">
        <ele>389.576870</ele>
        <time>2026-05-02T10:55:28.565Z</time>
      </trkpt>
      <trkpt lat="45.757907" lon="9.073921">
        <ele>389.343751</ele>
        <time>2026-05-02T10:55:31.559Z</time>
      </trkpt>
      <trkpt lat="45.757784" lon="9.073850">
        <ele>389.113158</ele>
        <time>2026-05-02T10:55:34.565Z</time>
      </trkpt>
      <trkpt lat="45.757666" lon="9.073792">
        <ele>388.896223</ele>
        <time>2026-05-02T10:55:37.572Z</time>
      </trkpt>
      <trkpt lat="45.757542" lon="9.073750">
        <ele>388.674646</ele>
        <time>2026-05-02T10:55:40.564Z</time>
      </trkpt>
      <trkpt lat="45.757411" lon="9.073702">
        <ele>388.439510</ele>
        <time>2026-05-02T10:55:43.564Z</time>
      </trkpt>
      <trkpt lat="45.757281" lon="9.073671">
        <ele>388.210330</ele>
        <time>2026-05-02T10:55:46.565Z</time>
      </trkpt>
      <trkpt lat="45.757157" lon="9.073670">
        <ele>387.994690</ele>
        <time>2026-05-02T10:55:49.574Z</time>
      </trkpt>
      <trkpt lat="45.757036" lon="9.073717">
        <ele>387.776679</ele>
        <time>2026-05-02T10:55:52.569Z</time>
      </trkpt>
      <trkpt lat="45.756936" lon="9.073763">
        <ele>387.594041</ele>
        <time>2026-05-02T10:55:55.560Z</time>
      </trkpt>
      <trkpt lat="45.756847" lon="9.073799">
        <ele>387.433223</ele>
        <time>2026-05-02T10:55:58.562Z</time>
      </trkpt>
      <trkpt lat="45.756752" lon="9.073844">
        <ele>387.262367</ele>
        <time>2026-05-02T10:56:01.565Z</time>
      </trkpt>
      <trkpt lat="45.756640" lon="9.073854">
        <ele>387.150218</ele>
        <time>2026-05-02T10:56:04.565Z</time>
      </trkpt>
      <trkpt lat="45.756516" lon="9.073838">
        <ele>387.025791</ele>
        <time>2026-05-02T10:56:07.564Z</time>
      </trkpt>
      <trkpt lat="45.756426" lon="9.073812">
        <ele>386.934036</ele>
        <time>2026-05-02T10:56:09.567Z</time>
      </trkpt>
      <trkpt lat="45.756329" lon="9.073794">
        <ele>386.836285</ele>
        <time>2026-05-02T10:56:11.571Z</time>
      </trkpt>
      <trkpt lat="45.756220" lon="9.073816">
        <ele>386.726275</ele>
        <time>2026-05-02T10:56:13.568Z</time>
      </trkpt>
      <trkpt lat="45.756112" lon="9.073841">
        <ele>386.616941</ele>
        <time>2026-05-02T10:56:15.570Z</time>
      </trkpt>
      <trkpt lat="45.756011" lon="9.073828">
        <ele>386.515596</ele>
        <time>2026-05-02T10:56:17.569Z</time>
      </trkpt>
      <trkpt lat="45.755917" lon="9.073820">
        <ele>386.421487</ele>
        <time>2026-05-02T10:56:19.574Z</time>
      </trkpt>
      <trkpt lat="45.755811" lon="9.073743">
        <ele>386.302721</ele>
        <time>2026-05-02T10:56:22.566Z</time>
      </trkpt>
      <trkpt lat="45.755726" lon="9.073688">
        <ele>386.209516</ele>
        <time>2026-05-02T10:56:26.567Z</time>
      </trkpt>
      <trkpt lat="45.755648" lon="9.073624">
        <ele>386.119692</ele>
        <time>2026-05-02T10:56:31.573Z</time>
      </trkpt>
      <trkpt lat="45.755563" lon="9.073542">
        <ele>386.017292</ele>
        <time>2026-05-02T10:56:36.566Z</time>
      </trkpt>
      <trkpt lat="45.755484" lon="9.073444">
        <ele>385.912873</ele>
        <time>2026-05-02T10:56:41.565Z</time>
      </trkpt>
      <trkpt lat="45.755380" lon="9.073490">
        <ele>385.804099</ele>
        <time>2026-05-02T10:56:46.571Z</time>
      </trkpt>
      <trkpt lat="45.755291" lon="9.073466">
        <ele>385.713591</ele>
        <time>2026-05-02T10:56:50.564Z</time>
      </trkpt>
      <trkpt lat="45.755197" lon="9.073433">
        <ele>385.616870</ele>
        <time>2026-05-02T10:56:54.569Z</time>
      </trkpt>
      <trkpt lat="45.755101" lon="9.073401">
        <ele>385.518367</ele>
        <time>2026-05-02T10:56:58.568Z</time>
      </trkpt>
      <trkpt lat="45.755003" lon="9.073360">
        <ele>385.440216</ele>
        <time>2026-05-02T10:57:02.565Z</time>
      </trkpt>
      <trkpt lat="45.754920" lon="9.073253">
        <ele>385.379193</ele>
        <time>2026-05-02T10:57:06.562Z</time>
      </trkpt>
      <trkpt lat="45.754866" lon="9.073129">
        <ele>385.323443</ele>
        <time>2026-05-02T10:57:09.563Z</time>
      </trkpt>
      <trkpt lat="45.754801" lon="9.072989">
        <ele>385.259306</ele>
        <time>2026-05-02T10:57:12.566Z</time>
      </trkpt>
      <trkpt lat="45.754716" lon="9.072856">
        <ele>385.190517</ele>
        <time>2026-05-02T10:57:15.567Z</time>
      </trkpt>
      <trkpt lat="45.754611" lon="9.072740">
        <ele>385.118048</ele>
        <time>2026-05-02T10:57:18.566Z</time>
      </trkpt>
      <trkpt lat="45.754533" lon="9.072672">
        <ele>385.068142</ele>
        <time>2026-05-02T10:57:20.564Z</time>
      </trkpt>
      <trkpt lat="45.754422" lon="9.072584">
        <ele>384.998802</ele>
        <time>2026-05-02T10:57:23.565Z</time>
      </trkpt>
      <trkpt lat="45.754317" lon="9.072501">
        <ele>384.933255</ele>
        <time>2026-05-02T10:57:26.564Z</time>
      </trkpt>
      <trkpt lat="45.754217" lon="9.072413">
        <ele>384.869110</ele>
        <time>2026-05-02T10:57:29.567Z</time>
      </trkpt>
      <trkpt lat="45.754121" lon="9.072313">
        <ele>384.804237</ele>
        <time>2026-05-02T10:57:32.565Z</time>
      </trkpt>
      <trkpt lat="45.754007" lon="9.072260">
        <ele>384.738725</ele>
        <time>2026-05-02T10:57:35.563Z</time>
      </trkpt>
      <trkpt lat="45.753891" lon="9.072202">
        <ele>384.671568</ele>
        <time>2026-05-02T10:57:38.565Z</time>
      </trkpt>
      <trkpt lat="45.753781" lon="9.072104">
        <ele>384.600768</ele>
        <time>2026-05-02T10:57:41.570Z</time>
      </trkpt>
      <trkpt lat="45.753674" lon="9.072009">
        <ele>384.531965</ele>
        <time>2026-05-02T10:57:44.571Z</time>
      </trkpt>
      <trkpt lat="45.753573" lon="9.071905">
        <ele>384.365468</ele>
        <time>2026-05-02T10:57:47.565Z</time>
      </trkpt>
      <trkpt lat="45.753477" lon="9.071802">
        <ele>384.004628</ele>
        <time>2026-05-02T10:57:50.564Z</time>
      </trkpt>
      <trkpt lat="45.753383" lon="9.071695">
        <ele>383.643424</ele>
        <time>2026-05-02T10:57:53.569Z</time>
      </trkpt>
      <trkpt lat="45.753277" lon="9.071586">
        <ele>383.250865</ele>
        <time>2026-05-02T10:57:56.568Z</time>
      </trkpt>
      <trkpt lat="45.753170" lon="9.071486">
        <ele>382.866496</ele>
        <time>2026-05-02T10:57:59.568Z</time>
      </trkpt>
      <trkpt lat="45.753066" lon="9.071388">
        <ele>382.491979</ele>
        <time>2026-05-02T10:58:02.567Z</time>
      </trkpt>
      <trkpt lat="45.752949" lon="9.071340">
        <ele>382.125786</ele>
        <time>2026-05-02T10:58:05.564Z</time>
      </trkpt>
      <trkpt lat="45.752830" lon="9.071303">
        <ele>381.759386</ele>
        <time>2026-05-02T10:58:08.568Z</time>
      </trkpt>
      <trkpt lat="45.752694" lon="9.071270">
        <ele>381.344340</ele>
        <time>2026-05-02T10:58:11.566Z</time>
      </trkpt>
      <trkpt lat="45.752592" lon="9.071248">
        <ele>381.033966</ele>
        <time>2026-05-02T10:58:13.568Z</time>
      </trkpt>
      <trkpt lat="45.752480" lon="9.071234">
        <ele>380.695680</ele>
        <time>2026-05-02T10:58:15.573Z</time>
      </trkpt>
      <trkpt lat="45.752361" lon="9.071258">
        <ele>380.334081</ele>
        <time>2026-05-02T10:58:17.566Z</time>
      </trkpt>
      <trkpt lat="45.752238" lon="9.071296">
        <ele>379.955474</ele>
        <time>2026-05-02T10:58:19.574Z</time>
      </trkpt>
      <trkpt lat="45.752106" lon="9.071316">
        <ele>379.556073</ele>
        <time>2026-05-02T10:58:21.566Z</time>
      </trkpt>
      <trkpt lat="45.751965" lon="9.071317">
        <ele>379.131800</ele>
        <time>2026-05-02T10:58:23.566Z</time>
      </trkpt>
      <trkpt lat="45.751827" lon="9.071297">
        <ele>379.127135</ele>
        <time>2026-05-02T10:58:25.567Z</time>
      </trkpt>
      <trkpt lat="45.751692" lon="9.071270">
        <ele>379.188075</ele>
        <time>2026-05-02T10:58:27.566Z</time>
      </trkpt>
      <trkpt lat="45.751563" lon="9.071215">
        <ele>379.248245</ele>
        <time>2026-05-02T10:58:29.572Z</time>
      </trkpt>
      <trkpt lat="45.751437" lon="9.071153">
        <ele>379.307805</ele>
        <time>2026-05-02T10:58:31.574Z</time>
      </trkpt>
      <trkpt lat="45.751323" lon="9.071085">
        <ele>379.363009</ele>
        <time>2026-05-02T10:58:33.558Z</time>
      </trkpt>
      <trkpt lat="45.751215" lon="9.071026">
        <ele>379.414682</ele>
        <time>2026-05-02T10:58:35.566Z</time>
      </trkpt>
      <trkpt lat="45.751116" lon="9.070964">
        <ele>379.462984</ele>
        <time>2026-05-02T10:58:37.567Z</time>
      </trkpt>
      <trkpt lat="45.751019" lon="9.070912">
        <ele>379.509285</ele>
        <time>2026-05-02T10:58:39.565Z</time>
      </trkpt>
      <trkpt lat="45.750923" lon="9.070860">
        <ele>379.555168</ele>
        <time>2026-05-02T10:58:41.566Z</time>
      </trkpt>
      <trkpt lat="45.750832" lon="9.070819">
        <ele>379.597815</ele>
        <time>2026-05-02T10:58:43.570Z</time>
      </trkpt>
      <trkpt lat="45.750744" lon="9.070783">
        <ele>379.638729</ele>
        <time>2026-05-02T10:58:45.567Z</time>
      </trkpt>
      <trkpt lat="45.750616" lon="9.070748">
        <ele>379.696986</ele>
        <time>2026-05-02T10:58:48.567Z</time>
      </trkpt>
      <trkpt lat="45.750499" lon="9.070725">
        <ele>379.749784</ele>
        <time>2026-05-02T10:58:51.570Z</time>
      </trkpt>
      <trkpt lat="45.750393" lon="9.070710">
        <ele>379.797404</ele>
        <time>2026-05-02T10:58:54.568Z</time>
      </trkpt>
      <trkpt lat="45.750298" lon="9.070694">
        <ele>379.840169</ele>
        <time>2026-05-02T10:58:57.564Z</time>
      </trkpt>
      <trkpt lat="45.750182" lon="9.070682">
        <ele>379.891260</ele>
        <time>2026-05-02T10:59:01.574Z</time>
      </trkpt>
      <trkpt lat="45.750075" lon="9.070657">
        <ele>379.936660</ele>
        <time>2026-05-02T10:59:05.568Z</time>
      </trkpt>
      <trkpt lat="45.749970" lon="9.070617">
        <ele>379.982159</ele>
        <time>2026-05-02T10:59:09.567Z</time>
      </trkpt>
      <trkpt lat="45.749872" lon="9.070549">
        <ele>380.027756</ele>
        <time>2026-05-02T10:59:13.563Z</time>
      </trkpt>
      <trkpt lat="45.749771" lon="9.070465">
        <ele>380.076659</ele>
        <time>2026-05-02T10:59:17.563Z</time>
      </trkpt>
      <trkpt lat="45.749665" lon="9.070383">
        <ele>380.127104</ele>
        <time>2026-05-02T10:59:21.567Z</time>
      </trkpt>
      <trkpt lat="45.749575" lon="9.070311">
        <ele>380.170268</ele>
        <time>2026-05-02T10:59:24.566Z</time>
      </trkpt>
      <trkpt lat="45.749483" lon="9.070241">
        <ele>380.213889</ele>
        <time>2026-05-02T10:59:27.566Z</time>
      </trkpt>
      <trkpt lat="45.749388" lon="9.070186">
        <ele>380.256796</ele>
        <time>2026-05-02T10:59:30.573Z</time>
      </trkpt>
      <trkpt lat="45.749294" lon="9.070135">
        <ele>380.298888</ele>
        <time>2026-05-02T10:59:33.572Z</time>
      </trkpt>
      <trkpt lat="45.749180" lon="9.070105">
        <ele>380.347426</ele>
        <time>2026-05-02T10:59:36.571Z</time>
      </trkpt>
      <trkpt lat="45.749054" lon="9.070098">
        <ele>380.400232</ele>
        <time>2026-05-02T10:59:39.566Z</time>
      </trkpt>
      <trkpt lat="45.748933" lon="9.070108">
        <ele>380.450988</ele>
        <time>2026-05-02T10:59:42.564Z</time>
      </trkpt>
      <trkpt lat="45.748821" lon="9.070124">
        <ele>380.498123</ele>
        <time>2026-05-02T10:59:45.569Z</time>
      </trkpt>
      <trkpt lat="45.748707" lon="9.070133">
        <ele>380.545936</ele>
        <time>2026-05-02T10:59:48.563Z</time>
      </trkpt>
      <trkpt lat="45.748582" lon="9.070158">
        <ele>380.598790</ele>
        <time>2026-05-02T10:59:51.567Z</time>
      </trkpt>
      <trkpt lat="45.748455" lon="9.070189">
        <ele>380.358704</ele>
        <time>2026-05-02T10:59:54.564Z</time>
      </trkpt>
      <trkpt lat="45.748365" lon="9.070210">
        <ele>379.877981</ele>
        <time>2026-05-02T10:59:56.565Z</time>
      </trkpt>
      <trkpt lat="45.748275" lon="9.070242">
        <ele>379.389121</ele>
        <time>2026-05-02T10:59:58.568Z</time>
      </trkpt>
      <trkpt lat="45.748184" lon="9.070263">
        <ele>378.903193</ele>
        <time>2026-05-02T11:00:00.567Z</time>
      </trkpt>
      <trkpt lat="45.748091" lon="9.070283">
        <ele>378.407413</ele>
        <time>2026-05-02T11:00:02.568Z</time>
      </trkpt>
      <trkpt lat="45.747996" lon="9.070299">
        <ele>377.903131</ele>
        <time>2026-05-02T11:00:04.569Z</time>
      </trkpt>
      <trkpt lat="45.747906" lon="9.070315">
        <ele>377.425020</ele>
        <time>2026-05-02T11:00:06.567Z</time>
      </trkpt>
      <trkpt lat="45.747781" lon="9.070326">
        <ele>376.764786</ele>
        <time>2026-05-02T11:00:09.562Z</time>
      </trkpt>
      <trkpt lat="45.747642" lon="9.070359">
        <ele>376.021998</ele>
        <time>2026-05-02T11:00:12.562Z</time>
      </trkpt>
      <trkpt lat="45.747536" lon="9.070373">
        <ele>375.460803</ele>
        <time>2026-05-02T11:00:14.569Z</time>
      </trkpt>
      <trkpt lat="45.747422" lon="9.070358">
        <ele>374.857274</ele>
        <time>2026-05-02T11:00:16.569Z</time>
      </trkpt>
      <trkpt lat="45.747327" lon="9.070310">
        <ele>374.326220</ele>
        <time>2026-05-02T11:00:18.575Z</time>
      </trkpt>
      <trkpt lat="45.747244" lon="9.070259">
        <ele>373.850121</ele>
        <time>2026-05-02T11:00:20.566Z</time>
      </trkpt>
      <trkpt lat="45.747156" lon="9.070209">
        <ele>373.351054</ele>
        <time>2026-05-02T11:00:22.566Z</time>
      </trkpt>
      <trkpt lat="45.747042" lon="9.070121">
        <ele>372.668403</ele>
        <time>2026-05-02T11:00:25.565Z</time>
      </trkpt>
      <trkpt lat="45.746987" lon="9.070017">
        <ele>372.188338</ele>
        <time>2026-05-02T11:00:27.566Z</time>
      </trkpt>
      <trkpt lat="45.746957" lon="9.069881">
        <ele>371.663604</ele>
        <time>2026-05-02T11:00:29.567Z</time>
      </trkpt>
      <trkpt lat="45.746922" lon="9.069724">
        <ele>370.998419</ele>
        <time>2026-05-02T11:00:31.572Z</time>
      </trkpt>
      <trkpt lat="45.746851" lon="9.069550">
        <ele>369.780061</ele>
        <time>2026-05-02T11:00:33.573Z</time>
      </trkpt>
      <trkpt lat="45.746744" lon="9.069401">
        <ele>368.487718</ele>
        <time>2026-05-02T11:00:35.564Z</time>
      </trkpt>
      <trkpt lat="45.746650" lon="9.069304">
        <ele>367.484360</ele>
        <time>2026-05-02T11:00:37.572Z</time>
      </trkpt>
      <trkpt lat="45.746572" lon="9.069225">
        <ele>366.657015</ele>
        <time>2026-05-02T11:00:45.565Z</time>
      </trkpt>
      <trkpt lat="45.746464" lon="9.069262">
        <ele>365.695166</ele>
        <time>2026-05-02T11:03:21.563Z</time>
      </trkpt>
      <trkpt lat="45.746375" lon="9.069284">
        <ele>364.912870</ele>
        <time>2026-05-02T11:03:23.564Z</time>
      </trkpt>
      <trkpt lat="45.746281" lon="9.069321">
        <ele>364.068493</ele>
        <time>2026-05-02T11:03:25.564Z</time>
      </trkpt>
      <trkpt lat="45.746188" lon="9.069365">
        <ele>363.220166</ele>
        <time>2026-05-02T11:03:27.565Z</time>
      </trkpt>
      <trkpt lat="45.746099" lon="9.069422">
        <ele>362.375765</ele>
        <time>2026-05-02T11:03:29.572Z</time>
      </trkpt>
      <trkpt lat="45.746007" lon="9.069485">
        <ele>361.492555</ele>
        <time>2026-05-02T11:03:31.566Z</time>
      </trkpt>
      <trkpt lat="45.745910" lon="9.069528">
        <ele>360.613065</ele>
        <time>2026-05-02T11:03:33.571Z</time>
      </trkpt>
      <trkpt lat="45.745806" lon="9.069573">
        <ele>359.672055</ele>
        <time>2026-05-02T11:03:35.563Z</time>
      </trkpt>
      <trkpt lat="45.745697" lon="9.069582">
        <ele>358.726341</ele>
        <time>2026-05-02T11:03:37.567Z</time>
      </trkpt>
      <trkpt lat="45.745586" lon="9.069564">
        <ele>357.758733</ele>
        <time>2026-05-02T11:03:39.567Z</time>
      </trkpt>
      <trkpt lat="45.745491" lon="9.069538">
        <ele>356.920977</ele>
        <time>2026-05-02T11:03:41.568Z</time>
      </trkpt>
      <trkpt lat="45.745398" lon="9.069519">
        <ele>356.107274</ele>
        <time>2026-05-02T11:03:43.563Z</time>
      </trkpt>
      <trkpt lat="45.745298" lon="9.069511">
        <ele>355.330995</ele>
        <time>2026-05-02T11:03:45.563Z</time>
      </trkpt>
      <trkpt lat="45.745198" lon="9.069496">
        <ele>354.701403</ele>
        <time>2026-05-02T11:03:47.567Z</time>
      </trkpt>
      <trkpt lat="45.745105" lon="9.069459">
        <ele>354.097037</ele>
        <time>2026-05-02T11:03:49.566Z</time>
      </trkpt>
      <trkpt lat="45.745026" lon="9.069368">
        <ele>353.462352</ele>
        <time>2026-05-02T11:03:51.563Z</time>
      </trkpt>
      <trkpt lat="45.744949" lon="9.069231">
        <ele>352.693679</ele>
        <time>2026-05-02T11:03:53.568Z</time>
      </trkpt>
      <trkpt lat="45.744855" lon="9.069085">
        <ele>351.825650</ele>
        <time>2026-05-02T11:03:55.566Z</time>
      </trkpt>
      <trkpt lat="45.744750" lon="9.068942">
        <ele>350.918595</ele>
        <time>2026-05-02T11:03:57.564Z</time>
      </trkpt>
      <trkpt lat="45.744638" lon="9.068787">
        <ele>349.943612</ele>
        <time>2026-05-02T11:03:59.568Z</time>
      </trkpt>
      <trkpt lat="45.744524" lon="9.068601">
        <ele>348.861869</ele>
        <time>2026-05-02T11:04:01.566Z</time>
      </trkpt>
      <trkpt lat="45.744429" lon="9.068399">
        <ele>347.797437</ele>
        <time>2026-05-02T11:04:03.557Z</time>
      </trkpt>
      <trkpt lat="45.744348" lon="9.068193">
        <ele>346.764204</ele>
        <time>2026-05-02T11:04:05.565Z</time>
      </trkpt>
      <trkpt lat="45.744275" lon="9.067998">
        <ele>345.797231</ele>
        <time>2026-05-02T11:04:07.565Z</time>
      </trkpt>
      <trkpt lat="45.744203" lon="9.067805">
        <ele>344.840917</ele>
        <time>2026-05-02T11:04:09.565Z</time>
      </trkpt>
      <trkpt lat="45.744122" lon="9.067616">
        <ele>343.802421</ele>
        <time>2026-05-02T11:04:11.572Z</time>
      </trkpt>
      <trkpt lat="45.744034" lon="9.067429">
        <ele>342.659762</ele>
        <time>2026-05-02T11:04:13.565Z</time>
      </trkpt>
      <trkpt lat="45.743945" lon="9.067239">
        <ele>341.500438</ele>
        <time>2026-05-02T11:04:15.572Z</time>
      </trkpt>
      <trkpt lat="45.743845" lon="9.067060">
        <ele>340.338792</ele>
        <time>2026-05-02T11:04:17.564Z</time>
      </trkpt>
      <trkpt lat="45.743741" lon="9.066898">
        <ele>339.223608</ele>
        <time>2026-05-02T11:04:19.571Z</time>
      </trkpt>
      <trkpt lat="45.743641" lon="9.066734">
        <ele>338.120263</ele>
        <time>2026-05-02T11:04:21.562Z</time>
      </trkpt>
      <trkpt lat="45.743530" lon="9.066579">
        <ele>336.995095</ele>
        <time>2026-05-02T11:04:23.570Z</time>
      </trkpt>
      <trkpt lat="45.743416" lon="9.066447">
        <ele>335.931070</ele>
        <time>2026-05-02T11:04:25.567Z</time>
      </trkpt>
      <trkpt lat="45.743313" lon="9.066321">
        <ele>334.947904</ele>
        <time>2026-05-02T11:04:27.565Z</time>
      </trkpt>
      <trkpt lat="45.743206" lon="9.066256">
        <ele>334.104200</ele>
        <time>2026-05-02T11:04:29.565Z</time>
      </trkpt>
      <trkpt lat="45.743109" lon="9.066203">
        <ele>333.350558</ele>
        <time>2026-05-02T11:04:31.568Z</time>
      </trkpt>
      <trkpt lat="45.743032" lon="9.066108">
        <ele>332.612910</ele>
        <time>2026-05-02T11:04:33.564Z</time>
      </trkpt>
      <trkpt lat="45.742964" lon="9.066004">
        <ele>331.890886</ele>
        <time>2026-05-02T11:04:35.562Z</time>
      </trkpt>
      <trkpt lat="45.742895" lon="9.065904">
        <ele>331.289020</ele>
        <time>2026-05-02T11:04:37.567Z</time>
      </trkpt>
      <trkpt lat="45.742819" lon="9.065806">
        <ele>331.709860</ele>
        <time>2026-05-02T11:04:39.574Z</time>
      </trkpt>
      <trkpt lat="45.742744" lon="9.065705">
        <ele>332.133505</ele>
        <time>2026-05-02T11:04:41.568Z</time>
      </trkpt>
      <trkpt lat="45.742651" lon="9.065667">
        <ele>332.531562</ele>
        <time>2026-05-02T11:04:43.567Z</time>
      </trkpt>
      <trkpt lat="45.742516" lon="9.065701">
        <ele>333.095754</ele>
        <time>2026-05-02T11:04:46.567Z</time>
      </trkpt>
      <trkpt lat="45.742426" lon="9.065718">
        <ele>333.469408</ele>
        <time>2026-05-02T11:04:48.567Z</time>
      </trkpt>
      <trkpt lat="45.742310" lon="9.065775">
        <ele>333.974171</ele>
        <time>2026-05-02T11:04:51.573Z</time>
      </trkpt>
      <trkpt lat="45.742201" lon="9.065839">
        <ele>334.459033</ele>
        <time>2026-05-02T11:04:54.557Z</time>
      </trkpt>
      <trkpt lat="45.742101" lon="9.065895">
        <ele>334.900961</ele>
        <time>2026-05-02T11:04:57.572Z</time>
      </trkpt>
      <trkpt lat="45.742012" lon="9.065947">
        <ele>335.296579</ele>
        <time>2026-05-02T11:05:00.571Z</time>
      </trkpt>
      <trkpt lat="45.741909" lon="9.066000">
        <ele>335.747046</ele>
        <time>2026-05-02T11:05:04.566Z</time>
      </trkpt>
      <trkpt lat="45.741816" lon="9.066028">
        <ele>336.138202</ele>
        <time>2026-05-02T11:05:08.566Z</time>
      </trkpt>
      <trkpt lat="45.741719" lon="9.066029">
        <ele>336.537475</ele>
        <time>2026-05-02T11:05:13.573Z</time>
      </trkpt>
      <trkpt lat="45.741629" lon="9.066004">
        <ele>336.914821</ele>
        <time>2026-05-02T11:05:18.563Z</time>
      </trkpt>
      <trkpt lat="45.741542" lon="9.065964">
        <ele>337.290906</ele>
        <time>2026-05-02T11:05:23.568Z</time>
      </trkpt>
      <trkpt lat="45.741448" lon="9.065929">
        <ele>337.690670</ele>
        <time>2026-05-02T11:05:29.569Z</time>
      </trkpt>
      <trkpt lat="45.741359" lon="9.065896">
        <ele>338.069070</ele>
        <time>2026-05-02T11:05:34.567Z</time>
      </trkpt>
      <trkpt lat="45.741261" lon="9.065856">
        <ele>338.488495</ele>
        <time>2026-05-02T11:05:40.565Z</time>
      </trkpt>
      <trkpt lat="45.741172" lon="9.065832">
        <ele>339.239115</ele>
        <time>2026-05-02T11:05:46.564Z</time>
      </trkpt>
      <trkpt lat="45.741078" lon="9.065810">
        <ele>340.340453</ele>
        <time>2026-05-02T11:05:52.564Z</time>
      </trkpt>
      <trkpt lat="45.740987" lon="9.065793">
        <ele>341.401602</ele>
        <time>2026-05-02T11:05:58.571Z</time>
      </trkpt>
      <trkpt lat="45.740886" lon="9.065793">
        <ele>342.569478</ele>
        <time>2026-05-02T11:06:05.571Z</time>
      </trkpt>
      <trkpt lat="45.740794" lon="9.065830">
        <ele>343.674394</ele>
        <time>2026-05-02T11:06:12.565Z</time>
      </trkpt>
      <trkpt lat="45.740706" lon="9.065871">
        <ele>344.744390</ele>
        <time>2026-05-02T11:06:19.569Z</time>
      </trkpt>
      <trkpt lat="45.740621" lon="9.065923">
        <ele>345.813091</ele>
        <time>2026-05-02T11:06:26.565Z</time>
      </trkpt>
      <trkpt lat="45.740531" lon="9.065986">
        <ele>346.971322</ele>
        <time>2026-05-02T11:06:34.564Z</time>
      </trkpt>
      <trkpt lat="45.740452" lon="9.066050">
        <ele>348.020707</ele>
        <time>2026-05-02T11:06:41.566Z</time>
      </trkpt>
      <trkpt lat="45.740378" lon="9.066127">
        <ele>349.078204</ele>
        <time>2026-05-02T11:06:48.565Z</time>
      </trkpt>
      <trkpt lat="45.740303" lon="9.066205">
        <ele>350.149801</ele>
        <time>2026-05-02T11:06:55.565Z</time>
      </trkpt>
      <trkpt lat="45.740227" lon="9.066275">
        <ele>351.194501</ele>
        <time>2026-05-02T11:07:02.564Z</time>
      </trkpt>
      <trkpt lat="45.740144" lon="9.066362">
        <ele>352.383634</ele>
        <time>2026-05-02T11:07:10.567Z</time>
      </trkpt>
      <trkpt lat="45.740067" lon="9.066440">
        <ele>353.474032</ele>
        <time>2026-05-02T11:07:17.565Z</time>
      </trkpt>
      <trkpt lat="45.739987" lon="9.066519">
        <ele>354.597495</ele>
        <time>2026-05-02T11:07:24.565Z</time>
      </trkpt>
      <trkpt lat="45.739906" lon="9.066597">
        <ele>355.725978</ele>
        <time>2026-05-02T11:07:31.564Z</time>
      </trkpt>
      <trkpt lat="45.739827" lon="9.066688">
        <ele>356.898057</ele>
        <time>2026-05-02T11:07:39.568Z</time>
      </trkpt>
      <trkpt lat="45.739741" lon="9.066764">
        <ele>358.066415</ele>
        <time>2026-05-02T11:07:47.571Z</time>
      </trkpt>
      <trkpt lat="45.739655" lon="9.066837">
        <ele>359.222248</ele>
        <time>2026-05-02T11:07:54.565Z</time>
      </trkpt>
      <trkpt lat="45.739561" lon="9.066903">
        <ele>359.880510</ele>
        <time>2026-05-02T11:08:01.568Z</time>
      </trkpt>
      <trkpt lat="45.739478" lon="9.066955">
        <ele>360.339208</ele>
        <time>2026-05-02T11:08:07.567Z</time>
      </trkpt>
      <trkpt lat="45.739390" lon="9.067015">
        <ele>360.832681</ele>
        <time>2026-05-02T11:08:13.566Z</time>
      </trkpt>
      <trkpt lat="45.739289" lon="9.067066">
        <ele>361.374932</ele>
        <time>2026-05-02T11:08:19.568Z</time>
      </trkpt>
      <trkpt lat="45.739187" lon="9.067101">
        <ele>361.906021</ele>
        <time>2026-05-02T11:08:25.573Z</time>
      </trkpt>
      <trkpt lat="45.739092" lon="9.067127">
        <ele>362.395759</ele>
        <time>2026-05-02T11:08:30.566Z</time>
      </trkpt>
      <trkpt lat="45.738993" lon="9.067131">
        <ele>362.897252</ele>
        <time>2026-05-02T11:08:35.564Z</time>
      </trkpt>
      <trkpt lat="45.738886" lon="9.067110">
        <ele>363.444115</ele>
        <time>2026-05-02T11:08:40.566Z</time>
      </trkpt>
      <trkpt lat="45.738779" lon="9.067083">
        <ele>363.994256</ele>
        <time>2026-05-02T11:08:45.566Z</time>
      </trkpt>
      <trkpt lat="45.738689" lon="9.067058">
        <ele>364.458464</ele>
        <time>2026-05-02T11:08:49.570Z</time>
      </trkpt>
      <trkpt lat="45.738598" lon="9.067055">
        <ele>364.919372</ele>
        <time>2026-05-02T11:08:53.564Z</time>
      </trkpt>
      <trkpt lat="45.738509" lon="9.067082">
        <ele>365.380021</ele>
        <time>2026-05-02T11:08:57.562Z</time>
      </trkpt>
      <trkpt lat="45.738402" lon="9.067123">
        <ele>365.940865</ele>
        <time>2026-05-02T11:09:02.568Z</time>
      </trkpt>
      <trkpt lat="45.738292" lon="9.067156">
        <ele>366.509937</ele>
        <time>2026-05-02T11:09:07.566Z</time>
      </trkpt>
      <trkpt lat="45.738204" lon="9.067185">
        <ele>366.967167</ele>
        <time>2026-05-02T11:09:11.566Z</time>
      </trkpt>
      <trkpt lat="45.738099" lon="9.067220">
        <ele>367.513041</ele>
        <time>2026-05-02T11:09:16.566Z</time>
      </trkpt>
      <trkpt lat="45.737988" lon="9.067248">
        <ele>368.083743</ele>
        <time>2026-05-02T11:09:21.571Z</time>
      </trkpt>
      <trkpt lat="45.737876" lon="9.067251">
        <ele>368.625743</ele>
        <time>2026-05-02T11:09:26.564Z</time>
      </trkpt>
      <trkpt lat="45.737766" lon="9.067247">
        <ele>369.031891</ele>
        <time>2026-05-02T11:09:31.567Z</time>
      </trkpt>
      <trkpt lat="45.737659" lon="9.067233">
        <ele>369.428478</ele>
        <time>2026-05-02T11:09:36.564Z</time>
      </trkpt>
      <trkpt lat="45.737570" lon="9.067222">
        <ele>369.758202</ele>
        <time>2026-05-02T11:09:40.572Z</time>
      </trkpt>
      <trkpt lat="45.737459" lon="9.067208">
        <ele>370.169495</ele>
        <time>2026-05-02T11:09:45.565Z</time>
      </trkpt>
      <trkpt lat="45.737351" lon="9.067189">
        <ele>370.571123</ele>
        <time>2026-05-02T11:09:50.568Z</time>
      </trkpt>
      <trkpt lat="45.737242" lon="9.067174">
        <ele>370.975301</ele>
        <time>2026-05-02T11:09:55.574Z</time>
      </trkpt>
      <trkpt lat="45.737137" lon="9.067157">
        <ele>371.365329</ele>
        <time>2026-05-02T11:10:00.567Z</time>
      </trkpt>
      <trkpt lat="45.737032" lon="9.067148">
        <ele>371.753584</ele>
        <time>2026-05-02T11:10:05.566Z</time>
      </trkpt>
      <trkpt lat="45.736931" lon="9.067123">
        <ele>372.131904</ele>
        <time>2026-05-02T11:10:10.564Z</time>
      </trkpt>
      <trkpt lat="45.736830" lon="9.067098">
        <ele>372.510223</ele>
        <time>2026-05-02T11:10:15.571Z</time>
      </trkpt>
      <trkpt lat="45.736738" lon="9.067044">
        <ele>372.877192</ele>
        <time>2026-05-02T11:10:20.564Z</time>
      </trkpt>
      <trkpt lat="45.736672" lon="9.066926">
        <ele>373.266752</ele>
        <time>2026-05-02T11:10:25.564Z</time>
      </trkpt>
      <trkpt lat="45.736622" lon="9.066792">
        <ele>373.658199</ele>
        <time>2026-05-02T11:10:30.565Z</time>
      </trkpt>
      <trkpt lat="45.736568" lon="9.066678">
        <ele>374.013136</ele>
        <time>2026-05-02T11:10:34.565Z</time>
      </trkpt>
      <trkpt lat="45.736515" lon="9.066549">
        <ele>374.398770</ele>
        <time>2026-05-02T11:10:38.569Z</time>
      </trkpt>
      <trkpt lat="45.736465" lon="9.066435">
        <ele>374.745631</ele>
        <time>2026-05-02T11:10:41.565Z</time>
      </trkpt>
      <trkpt lat="45.736418" lon="9.066323">
        <ele>375.082303</ele>
        <time>2026-05-02T11:10:44.566Z</time>
      </trkpt>
      <trkpt lat="45.736368" lon="9.066200">
        <ele>375.281864</ele>
        <time>2026-05-02T11:10:47.564Z</time>
      </trkpt>
      <trkpt lat="45.736316" lon="9.066073">
        <ele>375.409780</ele>
        <time>2026-05-02T11:10:50.568Z</time>
      </trkpt>
      <trkpt lat="45.736267" lon="9.065955">
        <ele>375.529064</ele>
        <time>2026-05-02T11:10:53.566Z</time>
      </trkpt>
      <trkpt lat="45.736215" lon="9.065838">
        <ele>375.649566</ele>
        <time>2026-05-02T11:10:56.565Z</time>
      </trkpt>
      <trkpt lat="45.736163" lon="9.065718">
        <ele>375.772275</ele>
        <time>2026-05-02T11:10:59.563Z</time>
      </trkpt>
      <trkpt lat="45.736115" lon="9.065597">
        <ele>375.893187</ele>
        <time>2026-05-02T11:11:02.567Z</time>
      </trkpt>
      <trkpt lat="45.736067" lon="9.065481">
        <ele>376.010342</ele>
        <time>2026-05-02T11:11:05.562Z</time>
      </trkpt>
      <trkpt lat="45.736000" lon="9.065338">
        <ele>376.159970</ele>
        <time>2026-05-02T11:11:09.566Z</time>
      </trkpt>
      <trkpt lat="45.735952" lon="9.065222">
        <ele>376.277125</ele>
        <time>2026-05-02T11:11:12.564Z</time>
      </trkpt>
      <trkpt lat="45.735904" lon="9.065104">
        <ele>376.395778</ele>
        <time>2026-05-02T11:11:15.565Z</time>
      </trkpt>
      <trkpt lat="45.735857" lon="9.064990">
        <ele>376.510804</ele>
        <time>2026-05-02T11:11:18.565Z</time>
      </trkpt>
      <trkpt lat="45.735807" lon="9.064881">
        <ele>376.624119</ele>
        <time>2026-05-02T11:11:21.566Z</time>
      </trkpt>
      <trkpt lat="45.735755" lon="9.064756">
        <ele>376.750540</ele>
        <time>2026-05-02T11:11:24.570Z</time>
      </trkpt>
      <trkpt lat="45.735699" lon="9.064619">
        <ele>376.888469</ele>
        <time>2026-05-02T11:11:27.565Z</time>
      </trkpt>
      <trkpt lat="45.735639" lon="9.064470">
        <ele>377.037913</ele>
        <time>2026-05-02T11:11:30.571Z</time>
      </trkpt>
      <trkpt lat="45.735575" lon="9.064317">
        <ele>377.192877</ele>
        <time>2026-05-02T11:11:33.571Z</time>
      </trkpt>
      <trkpt lat="45.735512" lon="9.064167">
        <ele>377.344966</ele>
        <time>2026-05-02T11:11:36.565Z</time>
      </trkpt>
      <trkpt lat="45.735456" lon="9.064032">
        <ele>377.391089</ele>
        <time>2026-05-02T11:11:39.565Z</time>
      </trkpt>
      <trkpt lat="45.735397" lon="9.063881">
        <ele>377.244993</ele>
        <time>2026-05-02T11:11:42.560Z</time>
      </trkpt>
      <trkpt lat="45.735325" lon="9.063716">
        <ele>377.080710</ele>
        <time>2026-05-02T11:11:45.565Z</time>
      </trkpt>
      <trkpt lat="45.735278" lon="9.063604">
        <ele>376.970380</ele>
        <time>2026-05-02T11:11:47.568Z</time>
      </trkpt>
      <trkpt lat="45.735210" lon="9.063441">
        <ele>376.810062</ele>
        <time>2026-05-02T11:11:50.566Z</time>
      </trkpt>
      <trkpt lat="45.735147" lon="9.063280">
        <ele>376.654235</ele>
        <time>2026-05-02T11:11:53.566Z</time>
      </trkpt>
      <trkpt lat="45.735082" lon="9.063128">
        <ele>376.503740</ele>
        <time>2026-05-02T11:11:56.569Z</time>
      </trkpt>
      <trkpt lat="45.735023" lon="9.062982">
        <ele>376.361311</ele>
        <time>2026-05-02T11:11:59.564Z</time>
      </trkpt>
      <trkpt lat="45.734965" lon="9.062839">
        <ele>376.221680</ele>
        <time>2026-05-02T11:12:02.573Z</time>
      </trkpt>
      <trkpt lat="45.734907" lon="9.062697">
        <ele>376.082779</ele>
        <time>2026-05-02T11:12:05.567Z</time>
      </trkpt>
      <trkpt lat="45.734838" lon="9.062538">
        <ele>375.924713</ele>
        <time>2026-05-02T11:12:08.564Z</time>
      </trkpt>
      <trkpt lat="45.734773" lon="9.062382">
        <ele>375.771328</ele>
        <time>2026-05-02T11:12:11.566Z</time>
      </trkpt>
      <trkpt lat="45.734706" lon="9.062233">
        <ele>375.621690</ele>
        <time>2026-05-02T11:12:14.571Z</time>
      </trkpt>
      <trkpt lat="45.734644" lon="9.062073">
        <ele>375.467188</ele>
        <time>2026-05-02T11:12:17.565Z</time>
      </trkpt>
      <trkpt lat="45.734579" lon="9.061919">
        <ele>375.315250</ele>
        <time>2026-05-02T11:12:20.564Z</time>
      </trkpt>
      <trkpt lat="45.734520" lon="9.061769">
        <ele>375.238097</ele>
        <time>2026-05-02T11:12:23.565Z</time>
      </trkpt>
      <trkpt lat="45.734446" lon="9.061610">
        <ele>375.198845</ele>
        <time>2026-05-02T11:12:26.566Z</time>
      </trkpt>
      <trkpt lat="45.734399" lon="9.061500">
        <ele>375.172354</ele>
        <time>2026-05-02T11:12:28.569Z</time>
      </trkpt>
      <trkpt lat="45.734333" lon="9.061341">
        <ele>375.134357</ele>
        <time>2026-05-02T11:12:31.564Z</time>
      </trkpt>
      <trkpt lat="45.734268" lon="9.061181">
        <ele>375.096332</ele>
        <time>2026-05-02T11:12:34.572Z</time>
      </trkpt>
      <trkpt lat="45.734199" lon="9.061019">
        <ele>375.057351</ele>
        <time>2026-05-02T11:12:37.569Z</time>
      </trkpt>
      <trkpt lat="45.734134" lon="9.060864">
        <ele>375.020210</ele>
        <time>2026-05-02T11:12:40.569Z</time>
      </trkpt>
      <trkpt lat="45.734067" lon="9.060704">
        <ele>374.981886</ele>
        <time>2026-05-02T11:12:43.567Z</time>
      </trkpt>
      <trkpt lat="45.734018" lon="9.060586">
        <ele>374.953684</ele>
        <time>2026-05-02T11:12:45.566Z</time>
      </trkpt>
      <trkpt lat="45.733974" lon="9.060471">
        <ele>374.926747</ele>
        <time>2026-05-02T11:12:47.569Z</time>
      </trkpt>
      <trkpt lat="45.733922" lon="9.060351">
        <ele>374.897735</ele>
        <time>2026-05-02T11:12:49.566Z</time>
      </trkpt>
      <trkpt lat="45.733878" lon="9.060227">
        <ele>374.869163</ele>
        <time>2026-05-02T11:12:51.567Z</time>
      </trkpt>
      <trkpt lat="45.733846" lon="9.060100">
        <ele>374.841430</ele>
        <time>2026-05-02T11:12:53.574Z</time>
      </trkpt>
      <trkpt lat="45.733834" lon="9.059968">
        <ele>374.814088</ele>
        <time>2026-05-02T11:12:55.572Z</time>
      </trkpt>
      <trkpt lat="45.733796" lon="9.059798">
        <ele>374.777423</ele>
        <time>2026-05-02T11:12:58.572Z</time>
      </trkpt>
      <trkpt lat="45.733680" lon="9.059698">
        <ele>374.737584</ele>
        <time>2026-05-02T11:13:01.574Z</time>
      </trkpt>
      <trkpt lat="45.733614" lon="9.059608">
        <ele>374.895590</ele>
        <time>2026-05-02T11:13:03.572Z</time>
      </trkpt>
      <trkpt lat="45.733553" lon="9.059454">
        <ele>375.195912</ele>
        <time>2026-05-02T11:13:06.565Z</time>
      </trkpt>
      <trkpt lat="45.733488" lon="9.059321">
        <ele>375.471287</ele>
        <time>2026-05-02T11:13:09.564Z</time>
      </trkpt>
      <trkpt lat="45.733436" lon="9.059181">
        <ele>375.740264</ele>
        <time>2026-05-02T11:13:12.563Z</time>
      </trkpt>
      <trkpt lat="45.733378" lon="9.059042">
        <ele>376.014932</ele>
        <time>2026-05-02T11:13:15.564Z</time>
      </trkpt>
      <trkpt lat="45.733323" lon="9.058900">
        <ele>376.290371</ele>
        <time>2026-05-02T11:13:18.566Z</time>
      </trkpt>
      <trkpt lat="45.733260" lon="9.058764">
        <ele>376.567214</ele>
        <time>2026-05-02T11:13:21.565Z</time>
      </trkpt>
      <trkpt lat="45.733205" lon="9.058620">
        <ele>376.845624</ele>
        <time>2026-05-02T11:13:24.565Z</time>
      </trkpt>
      <trkpt lat="45.733152" lon="9.058479">
        <ele>377.117243</ele>
        <time>2026-05-02T11:13:27.571Z</time>
      </trkpt>
      <trkpt lat="45.733090" lon="9.058346">
        <ele>377.388505</ele>
        <time>2026-05-02T11:13:30.565Z</time>
      </trkpt>
      <trkpt lat="45.733037" lon="9.058217">
        <ele>377.642388</ele>
        <time>2026-05-02T11:13:33.569Z</time>
      </trkpt>
      <trkpt lat="45.732980" lon="9.058091">
        <ele>377.897054</ele>
        <time>2026-05-02T11:13:36.568Z</time>
      </trkpt>
      <trkpt lat="45.732924" lon="9.057966">
        <ele>378.148976</ele>
        <time>2026-05-02T11:13:39.562Z</time>
      </trkpt>
      <trkpt lat="45.732879" lon="9.057849">
        <ele>378.375551</ele>
        <time>2026-05-02T11:13:42.565Z</time>
      </trkpt>
      <trkpt lat="45.732829" lon="9.057726">
        <ele>378.616970</ele>
        <time>2026-05-02T11:13:45.571Z</time>
      </trkpt>
      <trkpt lat="45.732773" lon="9.057595">
        <ele>378.877516</ele>
        <time>2026-05-02T11:13:48.566Z</time>
      </trkpt>
      <trkpt lat="45.732718" lon="9.057470">
        <ele>379.078460</ele>
        <time>2026-05-02T11:13:51.568Z</time>
      </trkpt>
      <trkpt lat="45.732670" lon="9.057355">
        <ele>378.885276</ele>
        <time>2026-05-02T11:13:54.564Z</time>
      </trkpt>
      <trkpt lat="45.732627" lon="9.057204">
        <ele>378.650151</ele>
        <time>2026-05-02T11:13:59.566Z</time>
      </trkpt>
      <trkpt lat="45.732545" lon="9.057094">
        <ele>378.418120</ele>
        <time>2026-05-02T11:14:03.566Z</time>
      </trkpt>
      <trkpt lat="45.732455" lon="9.057061">
        <ele>378.226231</ele>
        <time>2026-05-02T11:14:06.572Z</time>
      </trkpt>
      <trkpt lat="45.732355" lon="9.057068">
        <ele>378.019432</ele>
        <time>2026-05-02T11:14:09.564Z</time>
      </trkpt>
      <trkpt lat="45.732248" lon="9.057102">
        <ele>377.793050</ele>
        <time>2026-05-02T11:14:12.564Z</time>
      </trkpt>
      <trkpt lat="45.732143" lon="9.057174">
        <ele>377.552607</ele>
        <time>2026-05-02T11:14:15.564Z</time>
      </trkpt>
      <trkpt lat="45.732033" lon="9.057253">
        <ele>377.298449</ele>
        <time>2026-05-02T11:14:18.571Z</time>
      </trkpt>
      <trkpt lat="45.731908" lon="9.057321">
        <ele>377.022271</ele>
        <time>2026-05-02T11:14:21.571Z</time>
      </trkpt>
      <trkpt lat="45.731820" lon="9.057358">
        <ele>376.832839</ele>
        <time>2026-05-02T11:14:23.561Z</time>
      </trkpt>
      <trkpt lat="45.731728" lon="9.057378">
        <ele>376.640635</ele>
        <time>2026-05-02T11:14:25.565Z</time>
      </trkpt>
      <trkpt lat="45.731630" lon="9.057402">
        <ele>376.435278</ele>
        <time>2026-05-02T11:14:27.569Z</time>
      </trkpt>
      <trkpt lat="45.731527" lon="9.057430">
        <ele>376.218733</ele>
        <time>2026-05-02T11:14:29.571Z</time>
      </trkpt>
      <trkpt lat="45.731417" lon="9.057451">
        <ele>375.989517</ele>
        <time>2026-05-02T11:14:31.565Z</time>
      </trkpt>
      <trkpt lat="45.731303" lon="9.057482">
        <ele>375.749843</ele>
        <time>2026-05-02T11:14:33.563Z</time>
      </trkpt>
      <trkpt lat="45.731189" lon="9.057506">
        <ele>375.511844</ele>
        <time>2026-05-02T11:14:35.562Z</time>
      </trkpt>
      <trkpt lat="45.731067" lon="9.057503">
        <ele>375.354898</ele>
        <time>2026-05-02T11:14:37.565Z</time>
      </trkpt>
      <trkpt lat="45.730940" lon="9.057460">
        <ele>375.288228</ele>
        <time>2026-05-02T11:14:39.568Z</time>
      </trkpt>
      <trkpt lat="45.730819" lon="9.057402">
        <ele>375.223043</ele>
        <time>2026-05-02T11:14:41.565Z</time>
      </trkpt>
      <trkpt lat="45.730691" lon="9.057342">
        <ele>375.154238</ele>
        <time>2026-05-02T11:14:43.566Z</time>
      </trkpt>
      <trkpt lat="45.730562" lon="9.057279">
        <ele>375.084609</ele>
        <time>2026-05-02T11:14:45.569Z</time>
      </trkpt>
      <trkpt lat="45.730434" lon="9.057219">
        <ele>375.015804</ele>
        <time>2026-05-02T11:14:47.566Z</time>
      </trkpt>
      <trkpt lat="45.730310" lon="9.057155">
        <ele>374.948468</ele>
        <time>2026-05-02T11:14:49.565Z</time>
      </trkpt>
      <trkpt lat="45.730190" lon="9.057102">
        <ele>374.884314</ele>
        <time>2026-05-02T11:14:51.565Z</time>
      </trkpt>
      <trkpt lat="45.730082" lon="9.057043">
        <ele>374.825263</ele>
        <time>2026-05-02T11:14:53.563Z</time>
      </trkpt>
      <trkpt lat="45.729984" lon="9.056998">
        <ele>374.772687</ele>
        <time>2026-05-02T11:14:55.567Z</time>
      </trkpt>
      <trkpt lat="45.729899" lon="9.056954">
        <ele>374.726514</ele>
        <time>2026-05-02T11:14:57.566Z</time>
      </trkpt>
      <trkpt lat="45.729775" lon="9.056900">
        <ele>374.660302</ele>
        <time>2026-05-02T11:15:00.564Z</time>
      </trkpt>
      <trkpt lat="45.729665" lon="9.056852">
        <ele>374.601555</ele>
        <time>2026-05-02T11:15:03.567Z</time>
      </trkpt>
      <trkpt lat="45.729552" lon="9.056795">
        <ele>374.540350</ele>
        <time>2026-05-02T11:15:06.562Z</time>
      </trkpt>
      <trkpt lat="45.729435" lon="9.056739">
        <ele>374.477329</ele>
        <time>2026-05-02T11:15:09.571Z</time>
      </trkpt>
      <trkpt lat="45.729313" lon="9.056677">
        <ele>374.263863</ele>
        <time>2026-05-02T11:15:12.564Z</time>
      </trkpt>
      <trkpt lat="45.729200" lon="9.056619">
        <ele>374.041340</ele>
        <time>2026-05-02T11:15:15.564Z</time>
      </trkpt>
      <trkpt lat="45.729089" lon="9.056559">
        <ele>373.821403</ele>
        <time>2026-05-02T11:15:18.564Z</time>
      </trkpt>
      <trkpt lat="45.728986" lon="9.056473">
        <ele>373.600393</ele>
        <time>2026-05-02T11:15:21.567Z</time>
      </trkpt>
      <trkpt lat="45.728889" lon="9.056382">
        <ele>373.385443</ele>
        <time>2026-05-02T11:15:24.559Z</time>
      </trkpt>
      <trkpt lat="45.728779" lon="9.056311">
        <ele>373.161778</ele>
        <time>2026-05-02T11:15:27.563Z</time>
      </trkpt>
      <trkpt lat="45.728651" lon="9.056295">
        <ele>372.923586</ele>
        <time>2026-05-02T11:15:30.567Z</time>
      </trkpt>
      <trkpt lat="45.728551" lon="9.056292">
        <ele>372.738162</ele>
        <time>2026-05-02T11:15:32.567Z</time>
      </trkpt>
      <trkpt lat="45.728444" lon="9.056287">
        <ele>372.539696</ele>
        <time>2026-05-02T11:15:34.566Z</time>
      </trkpt>
      <trkpt lat="45.728330" lon="9.056260">
        <ele>372.325490</ele>
        <time>2026-05-02T11:15:36.566Z</time>
      </trkpt>
      <trkpt lat="45.728210" lon="9.056230">
        <ele>372.099668</ele>
        <time>2026-05-02T11:15:38.563Z</time>
      </trkpt>
      <trkpt lat="45.728091" lon="9.056195">
        <ele>371.874460</ele>
        <time>2026-05-02T11:15:40.565Z</time>
      </trkpt>
      <trkpt lat="45.727964" lon="9.056160">
        <ele>371.634706</ele>
        <time>2026-05-02T11:15:42.564Z</time>
      </trkpt>
      <trkpt lat="45.727834" lon="9.056122">
        <ele>371.388741</ele>
        <time>2026-05-02T11:15:44.565Z</time>
      </trkpt>
      <trkpt lat="45.727706" lon="9.056088">
        <ele>371.147406</ele>
        <time>2026-05-02T11:15:46.568Z</time>
      </trkpt>
      <trkpt lat="45.727581" lon="9.056047">
        <ele>371.097338</ele>
        <time>2026-05-02T11:15:48.573Z</time>
      </trkpt>
      <trkpt lat="45.727457" lon="9.056009">
        <ele>371.059925</ele>
        <time>2026-05-02T11:15:50.565Z</time>
      </trkpt>
      <trkpt lat="45.727336" lon="9.055973">
        <ele>371.023463</ele>
        <time>2026-05-02T11:15:52.567Z</time>
      </trkpt>
      <trkpt lat="45.727221" lon="9.055931">
        <ele>370.988448</ele>
        <time>2026-05-02T11:15:54.565Z</time>
      </trkpt>
      <trkpt lat="45.727112" lon="9.055890">
        <ele>370.955199</ele>
        <time>2026-05-02T11:15:56.564Z</time>
      </trkpt>
      <trkpt lat="45.727014" lon="9.055825">
        <ele>370.923336</ele>
        <time>2026-05-02T11:15:58.566Z</time>
      </trkpt>
      <trkpt lat="45.726940" lon="9.055723">
        <ele>370.893037</ele>
        <time>2026-05-02T11:16:00.571Z</time>
      </trkpt>
      <trkpt lat="45.726908" lon="9.055588">
        <ele>370.863673</ele>
        <time>2026-05-02T11:16:02.565Z</time>
      </trkpt>
      <trkpt lat="45.726898" lon="9.055453">
        <ele>370.835712</ele>
        <time>2026-05-02T11:16:04.562Z</time>
      </trkpt>
      <trkpt lat="45.726891" lon="9.055265">
        <ele>370.796936</ele>
        <time>2026-05-02T11:16:07.563Z</time>
      </trkpt>
      <trkpt lat="45.726887" lon="9.055082">
        <ele>370.759227</ele>
        <time>2026-05-02T11:16:10.570Z</time>
      </trkpt>
      <trkpt lat="45.726855" lon="9.054914">
        <ele>370.723361</ele>
        <time>2026-05-02T11:16:13.565Z</time>
      </trkpt>
      <trkpt lat="45.726786" lon="9.054777">
        <ele>370.688566</ele>
        <time>2026-05-02T11:16:16.569Z</time>
      </trkpt>
      <trkpt lat="45.726693" lon="9.054695">
        <ele>370.656347</ele>
        <time>2026-05-02T11:16:19.566Z</time>
      </trkpt>
      <trkpt lat="45.726597" lon="9.054646">
        <ele>370.626278</ele>
        <time>2026-05-02T11:16:22.561Z</time>
      </trkpt>
      <trkpt lat="45.726496" lon="9.054597">
        <ele>370.482901</ele>
        <time>2026-05-02T11:16:25.567Z</time>
      </trkpt>
      <trkpt lat="45.726384" lon="9.054546">
        <ele>369.921531</ele>
        <time>2026-05-02T11:16:28.568Z</time>
      </trkpt>
      <trkpt lat="45.726298" lon="9.054503">
        <ele>369.486430</ele>
        <time>2026-05-02T11:16:30.563Z</time>
      </trkpt>
      <trkpt lat="45.726201" lon="9.054454">
        <ele>368.995125</ele>
        <time>2026-05-02T11:16:32.566Z</time>
      </trkpt>
      <trkpt lat="45.726098" lon="9.054404">
        <ele>368.475642</ele>
        <time>2026-05-02T11:16:34.568Z</time>
      </trkpt>
      <trkpt lat="45.725995" lon="9.054357">
        <ele>367.959283</ele>
        <time>2026-05-02T11:16:36.565Z</time>
      </trkpt>
      <trkpt lat="45.725889" lon="9.054310">
        <ele>367.429252</ele>
        <time>2026-05-02T11:16:38.565Z</time>
      </trkpt>
      <trkpt lat="45.725771" lon="9.054275">
        <ele>366.853646</ele>
        <time>2026-05-02T11:16:40.564Z</time>
      </trkpt>
      <trkpt lat="45.725635" lon="9.054279">
        <ele>366.203878</ele>
        <time>2026-05-02T11:16:42.556Z</time>
      </trkpt>
      <trkpt lat="45.725488" lon="9.054310">
        <ele>365.494135</ele>
        <time>2026-05-02T11:16:44.571Z</time>
      </trkpt>
      <trkpt lat="45.725330" lon="9.054353">
        <ele>364.725916</ele>
        <time>2026-05-02T11:16:46.564Z</time>
      </trkpt>
      <trkpt lat="45.725181" lon="9.054399">
        <ele>363.997846</ele>
        <time>2026-05-02T11:16:48.571Z</time>
      </trkpt>
      <trkpt lat="45.725034" lon="9.054435">
        <ele>363.285483</ele>
        <time>2026-05-02T11:16:50.564Z</time>
      </trkpt>
      <trkpt lat="45.724887" lon="9.054475">
        <ele>362.570752</ele>
        <time>2026-05-02T11:16:52.565Z</time>
      </trkpt>
      <trkpt lat="45.724746" lon="9.054505">
        <ele>361.991744</ele>
        <time>2026-05-02T11:16:54.563Z</time>
      </trkpt>
      <trkpt lat="45.724607" lon="9.054523">
        <ele>361.887609</ele>
        <time>2026-05-02T11:16:56.570Z</time>
      </trkpt>
      <trkpt lat="45.724489" lon="9.054496">
        <ele>361.798450</ele>
        <time>2026-05-02T11:16:58.571Z</time>
      </trkpt>
      <trkpt lat="45.724416" lon="9.054402">
        <ele>361.725210</ele>
        <time>2026-05-02T11:17:00.568Z</time>
      </trkpt>
      <trkpt lat="45.724356" lon="9.054296">
        <ele>361.654128</ele>
        <time>2026-05-02T11:17:02.579Z</time>
      </trkpt>
      <trkpt lat="45.724259" lon="9.054255">
        <ele>361.578668</ele>
        <time>2026-05-02T11:17:04.564Z</time>
      </trkpt>
      <trkpt lat="45.724156" lon="9.054224">
        <ele>361.500139</ele>
        <time>2026-05-02T11:17:06.561Z</time>
      </trkpt>
      <trkpt lat="45.724059" lon="9.054175">
        <ele>361.423396</ele>
        <time>2026-05-02T11:17:08.564Z</time>
      </trkpt>
      <trkpt lat="45.723977" lon="9.054098">
        <ele>361.350239</ele>
        <time>2026-05-02T11:17:10.564Z</time>
      </trkpt>
      <trkpt lat="45.723873" lon="9.053993">
        <ele>361.255303</ele>
        <time>2026-05-02T11:17:13.567Z</time>
      </trkpt>
      <trkpt lat="45.723778" lon="9.053920">
        <ele>361.174866</ele>
        <time>2026-05-02T11:17:16.566Z</time>
      </trkpt>
      <trkpt lat="45.723669" lon="9.053882">
        <ele>361.091164</ele>
        <time>2026-05-02T11:17:19.557Z</time>
      </trkpt>
      <trkpt lat="45.723555" lon="9.053854">
        <ele>361.004864</ele>
        <time>2026-05-02T11:17:22.560Z</time>
      </trkpt>
      <trkpt lat="45.723451" lon="9.053842">
        <ele>360.927015</ele>
        <time>2026-05-02T11:17:25.564Z</time>
      </trkpt>
      <trkpt lat="45.723349" lon="9.053841">
        <ele>360.850908</ele>
        <time>2026-05-02T11:17:28.562Z</time>
      </trkpt>
      <trkpt lat="45.723251" lon="9.053854">
        <ele>360.777474</ele>
        <time>2026-05-02T11:17:31.567Z</time>
      </trkpt>
      <trkpt lat="45.723157" lon="9.053871">
        <ele>360.706781</ele>
        <time>2026-05-02T11:17:34.562Z</time>
      </trkpt>
      <trkpt lat="45.723066" lon="9.053881">
        <ele>360.733415</ele>
        <time>2026-05-02T11:17:37.570Z</time>
      </trkpt>
      <trkpt lat="45.722962" lon="9.053896">
        <ele>360.902499</ele>
        <time>2026-05-02T11:17:40.569Z</time>
      </trkpt>
      <trkpt lat="45.722856" lon="9.053899">
        <ele>361.074001</ele>
        <time>2026-05-02T11:17:43.570Z</time>
      </trkpt>
      <trkpt lat="45.722758" lon="9.053887">
        <ele>361.233107</ele>
        <time>2026-05-02T11:17:46.563Z</time>
      </trkpt>
      <trkpt lat="45.722665" lon="9.053826">
        <ele>361.398569</ele>
        <time>2026-05-02T11:17:49.562Z</time>
      </trkpt>
      <trkpt lat="45.722549" lon="9.053791">
        <ele>361.590332</ele>
        <time>2026-05-02T11:17:52.560Z</time>
      </trkpt>
      <trkpt lat="45.722437" lon="9.053737">
        <ele>361.781495</ele>
        <time>2026-05-02T11:17:55.561Z</time>
      </trkpt>
      <trkpt lat="45.722323" lon="9.053681">
        <ele>361.976447</ele>
        <time>2026-05-02T11:17:58.566Z</time>
      </trkpt>
      <trkpt lat="45.722212" lon="9.053742">
        <ele>362.168766</ele>
        <time>2026-05-02T11:18:01.566Z</time>
      </trkpt>
      <trkpt lat="45.722083" lon="9.053749">
        <ele>362.377590</ele>
        <time>2026-05-02T11:18:04.563Z</time>
      </trkpt>
      <trkpt lat="45.721952" lon="9.053720">
        <ele>362.592015</ele>
        <time>2026-05-02T11:18:07.566Z</time>
      </trkpt>
      <trkpt lat="45.721832" lon="9.053680">
        <ele>362.791317</ele>
        <time>2026-05-02T11:18:10.561Z</time>
      </trkpt>
      <trkpt lat="45.721711" lon="9.053639">
        <ele>362.992453</ele>
        <time>2026-05-02T11:18:13.563Z</time>
      </trkpt>
      <trkpt lat="45.721592" lon="9.053602">
        <ele>363.189434</ele>
        <time>2026-05-02T11:18:16.563Z</time>
      </trkpt>
      <trkpt lat="45.721472" lon="9.053554">
        <ele>363.390976</ele>
        <time>2026-05-02T11:18:19.563Z</time>
      </trkpt>
      <trkpt lat="45.721356" lon="9.053492">
        <ele>363.604845</ele>
        <time>2026-05-02T11:18:22.566Z</time>
      </trkpt>
      <trkpt lat="45.721259" lon="9.053409">
        <ele>363.976671</ele>
        <time>2026-05-02T11:18:25.564Z</time>
      </trkpt>
      <trkpt lat="45.721171" lon="9.053325">
        <ele>364.324672</ele>
        <time>2026-05-02T11:18:28.565Z</time>
      </trkpt>
      <trkpt lat="45.721083" lon="9.053244">
        <ele>364.668900</ele>
        <time>2026-05-02T11:18:31.561Z</time>
      </trkpt>
      <trkpt lat="45.720997" lon="9.053167">
        <ele>365.002649</ele>
        <time>2026-05-02T11:18:34.575Z</time>
      </trkpt>
      <trkpt lat="45.720913" lon="9.053092">
        <ele>365.328381</ele>
        <time>2026-05-02T11:18:37.561Z</time>
      </trkpt>
      <trkpt lat="45.720829" lon="9.053013">
        <ele>365.659067</ele>
        <time>2026-05-02T11:18:40.564Z</time>
      </trkpt>
      <trkpt lat="45.720740" lon="9.052935">
        <ele>366.002421</ele>
        <time>2026-05-02T11:18:43.563Z</time>
      </trkpt>
      <trkpt lat="45.720657" lon="9.052867">
        <ele>366.317080</ele>
        <time>2026-05-02T11:18:46.562Z</time>
      </trkpt>
      <trkpt lat="45.720572" lon="9.052796">
        <ele>366.640885</ele>
        <time>2026-05-02T11:18:49.568Z</time>
      </trkpt>
      <trkpt lat="45.720490" lon="9.052740">
        <ele>366.939831</ele>
        <time>2026-05-02T11:18:52.564Z</time>
      </trkpt>
      <trkpt lat="45.720401" lon="9.052717">
        <ele>367.237439</ele>
        <time>2026-05-02T11:18:55.563Z</time>
      </trkpt>
      <trkpt lat="45.720308" lon="9.052716">
        <ele>367.543490</ele>
        <time>2026-05-02T11:18:58.568Z</time>
      </trkpt>
      <trkpt lat="45.720212" lon="9.052722">
        <ele>367.859705</ele>
        <time>2026-05-02T11:19:01.567Z</time>
      </trkpt>
      <trkpt lat="45.720110" lon="9.052722">
        <ele>368.195364</ele>
        <time>2026-05-02T11:19:04.564Z</time>
      </trkpt>
      <trkpt lat="45.720015" lon="9.052727">
        <ele>368.508199</ele>
        <time>2026-05-02T11:19:07.563Z</time>
      </trkpt>
      <trkpt lat="45.719925" lon="9.052735">
        <ele>368.804939</ele>
        <time>2026-05-02T11:19:10.565Z</time>
      </trkpt>
      <trkpt lat="45.719804" lon="9.052731">
        <ele>369.203229</ele>
        <time>2026-05-02T11:19:14.565Z</time>
      </trkpt>
      <trkpt lat="45.719711" lon="9.052718">
        <ele>369.497621</ele>
        <time>2026-05-02T11:19:17.561Z</time>
      </trkpt>
      <trkpt lat="45.719616" lon="9.052726">
        <ele>369.510493</ele>
        <time>2026-05-02T11:19:20.564Z</time>
      </trkpt>
      <trkpt lat="45.719521" lon="9.052746">
        <ele>369.523481</ele>
        <time>2026-05-02T11:19:23.564Z</time>
      </trkpt>
      <trkpt lat="45.719427" lon="9.052783">
        <ele>369.536667</ele>
        <time>2026-05-02T11:19:26.562Z</time>
      </trkpt>
      <trkpt lat="45.719337" lon="9.052820">
        <ele>369.549332</ele>
        <time>2026-05-02T11:19:29.564Z</time>
      </trkpt>
      <trkpt lat="45.719250" lon="9.052864">
        <ele>369.561812</ele>
        <time>2026-05-02T11:19:32.566Z</time>
      </trkpt>
      <trkpt lat="45.719150" lon="9.052904">
        <ele>369.575855</ele>
        <time>2026-05-02T11:19:35.571Z</time>
      </trkpt>
      <trkpt lat="45.719044" lon="9.052951">
        <ele>369.590864</ele>
        <time>2026-05-02T11:19:38.565Z</time>
      </trkpt>
      <trkpt lat="45.718939" lon="9.052996">
        <ele>369.605689</ele>
        <time>2026-05-02T11:19:41.564Z</time>
      </trkpt>
      <trkpt lat="45.718836" lon="9.053047">
        <ele>369.620430</ele>
        <time>2026-05-02T11:19:44.566Z</time>
      </trkpt>
      <trkpt lat="45.718725" lon="9.053091">
        <ele>369.636008</ele>
        <time>2026-05-02T11:19:47.571Z</time>
      </trkpt>
      <trkpt lat="45.718607" lon="9.053144">
        <ele>369.652735</ele>
        <time>2026-05-02T11:19:50.565Z</time>
      </trkpt>
      <trkpt lat="45.718488" lon="9.053194">
        <ele>369.669509</ele>
        <time>2026-05-02T11:19:53.570Z</time>
      </trkpt>
      <trkpt lat="45.718373" lon="9.053247">
        <ele>369.685850</ele>
        <time>2026-05-02T11:19:56.571Z</time>
      </trkpt>
      <trkpt lat="45.718255" lon="9.053296">
        <ele>369.702468</ele>
        <time>2026-05-02T11:19:59.561Z</time>
      </trkpt>
      <trkpt lat="45.718143" lon="9.053347">
        <ele>369.718364</ele>
        <time>2026-05-02T11:20:02.569Z</time>
      </trkpt>
      <trkpt lat="45.718033" lon="9.053394">
        <ele>369.733891</ele>
        <time>2026-05-02T11:20:05.569Z</time>
      </trkpt>
      <trkpt lat="45.717919" lon="9.053437">
        <ele>369.725809</ele>
        <time>2026-05-02T11:20:08.564Z</time>
      </trkpt>
      <trkpt lat="45.717798" lon="9.053486">
        <ele>369.699761</ele>
        <time>2026-05-02T11:20:11.563Z</time>
      </trkpt>
      <trkpt lat="45.717669" lon="9.053527">
        <ele>369.672387</ele>
        <time>2026-05-02T11:20:14.564Z</time>
      </trkpt>
      <trkpt lat="45.717543" lon="9.053557">
        <ele>369.645927</ele>
        <time>2026-05-02T11:20:17.567Z</time>
      </trkpt>
      <trkpt lat="45.717417" lon="9.053588">
        <ele>369.619443</ele>
        <time>2026-05-02T11:20:20.564Z</time>
      </trkpt>
      <trkpt lat="45.717288" lon="9.053613">
        <ele>369.592476</ele>
        <time>2026-05-02T11:20:23.565Z</time>
      </trkpt>
      <trkpt lat="45.717162" lon="9.053645">
        <ele>369.565966</ele>
        <time>2026-05-02T11:20:26.565Z</time>
      </trkpt>
      <trkpt lat="45.717036" lon="9.053670">
        <ele>369.539615</ele>
        <time>2026-05-02T11:20:29.565Z</time>
      </trkpt>
      <trkpt lat="45.716922" lon="9.053693">
        <ele>369.515766</ele>
        <time>2026-05-02T11:20:32.564Z</time>
      </trkpt>
      <trkpt lat="45.716808" lon="9.053728">
        <ele>369.491613</ele>
        <time>2026-05-02T11:20:35.564Z</time>
      </trkpt>
      <trkpt lat="45.716690" lon="9.053771">
        <ele>369.466390</ele>
        <time>2026-05-02T11:20:38.565Z</time>
      </trkpt>
      <trkpt lat="45.716575" lon="9.053814">
        <ele>369.441768</ele>
        <time>2026-05-02T11:20:41.570Z</time>
      </trkpt>
      <trkpt lat="45.716464" lon="9.053869">
        <ele>369.417436</ele>
        <time>2026-05-02T11:20:44.563Z</time>
      </trkpt>
      <trkpt lat="45.716353" lon="9.053934">
        <ele>369.392594</ele>
        <time>2026-05-02T11:20:47.566Z</time>
      </trkpt>
      <trkpt lat="45.716232" lon="9.054000">
        <ele>369.332950</ele>
        <time>2026-05-02T11:20:50.562Z</time>
      </trkpt>
      <trkpt lat="45.716141" lon="9.054047">
        <ele>368.978945</ele>
        <time>2026-05-02T11:20:52.562Z</time>
      </trkpt>
      <trkpt lat="45.716050" lon="9.054095">
        <ele>368.624065</ele>
        <time>2026-05-02T11:20:54.569Z</time>
      </trkpt>
      <trkpt lat="45.715948" lon="9.054146">
        <ele>368.228705</ele>
        <time>2026-05-02T11:20:56.570Z</time>
      </trkpt>
      <trkpt lat="45.715841" lon="9.054213">
        <ele>367.801353</ele>
        <time>2026-05-02T11:20:58.563Z</time>
      </trkpt>
      <trkpt lat="45.715718" lon="9.054280">
        <ele>367.319780</ele>
        <time>2026-05-02T11:21:00.570Z</time>
      </trkpt>
      <trkpt lat="45.715585" lon="9.054351">
        <ele>366.800358</ele>
        <time>2026-05-02T11:21:02.560Z</time>
      </trkpt>
      <trkpt lat="45.715438" lon="9.054428">
        <ele>366.227564</ele>
        <time>2026-05-02T11:21:04.567Z</time>
      </trkpt>
      <trkpt lat="45.715284" lon="9.054513">
        <ele>365.623602</ele>
        <time>2026-05-02T11:21:06.558Z</time>
      </trkpt>
      <trkpt lat="45.715125" lon="9.054601">
        <ele>364.999809</ele>
        <time>2026-05-02T11:21:08.570Z</time>
      </trkpt>
      <trkpt lat="45.714960" lon="9.054685">
        <ele>364.358981</ele>
        <time>2026-05-02T11:21:10.565Z</time>
      </trkpt>
      <trkpt lat="45.714792" lon="9.054772">
        <ele>363.705232</ele>
        <time>2026-05-02T11:21:12.567Z</time>
      </trkpt>
      <trkpt lat="45.714631" lon="9.054863">
        <ele>363.071832</ele>
        <time>2026-05-02T11:21:14.563Z</time>
      </trkpt>
      <trkpt lat="45.714477" lon="9.054952">
        <ele>362.774348</ele>
        <time>2026-05-02T11:21:16.563Z</time>
      </trkpt>
      <trkpt lat="45.714337" lon="9.055023">
        <ele>362.755274</ele>
        <time>2026-05-02T11:21:18.565Z</time>
      </trkpt>
      <trkpt lat="45.714217" lon="9.055091">
        <ele>362.738701</ele>
        <time>2026-05-02T11:21:20.559Z</time>
      </trkpt>
      <trkpt lat="45.714106" lon="9.055146">
        <ele>362.723616</ele>
        <time>2026-05-02T11:21:22.565Z</time>
      </trkpt>
      <trkpt lat="45.714004" lon="9.055200">
        <ele>362.709651</ele>
        <time>2026-05-02T11:21:24.559Z</time>
      </trkpt>
      <trkpt lat="45.713915" lon="9.055232">
        <ele>362.697866</ele>
        <time>2026-05-02T11:21:26.559Z</time>
      </trkpt>
      <trkpt lat="45.713796" lon="9.055234">
        <ele>362.682582</ele>
        <time>2026-05-02T11:21:29.567Z</time>
      </trkpt>
      <trkpt lat="45.713687" lon="9.055208">
        <ele>362.668391</ele>
        <time>2026-05-02T11:21:32.565Z</time>
      </trkpt>
      <trkpt lat="45.713573" lon="9.055180">
        <ele>362.653536</ele>
        <time>2026-05-02T11:21:35.567Z</time>
      </trkpt>
      <trkpt lat="45.713446" lon="9.055155">
        <ele>362.637073</ele>
        <time>2026-05-02T11:21:38.563Z</time>
      </trkpt>
      <trkpt lat="45.713350" lon="9.055150">
        <ele>362.624736</ele>
        <time>2026-05-02T11:21:40.569Z</time>
      </trkpt>
      <trkpt lat="45.713256" lon="9.055125">
        <ele>362.612457</ele>
        <time>2026-05-02T11:21:42.572Z</time>
      </trkpt>
      <trkpt lat="45.713164" lon="9.055073">
        <ele>362.599755</ele>
        <time>2026-05-02T11:21:44.565Z</time>
      </trkpt>
      <trkpt lat="45.713077" lon="9.055005">
        <ele>362.587026</ele>
        <time>2026-05-02T11:21:46.568Z</time>
      </trkpt>
      <trkpt lat="45.712987" lon="9.054945">
        <ele>362.574277</ele>
        <time>2026-05-02T11:21:48.562Z</time>
      </trkpt>
      <trkpt lat="45.712893" lon="9.054891">
        <ele>362.561270</ele>
        <time>2026-05-02T11:21:50.559Z</time>
      </trkpt>
      <trkpt lat="45.712790" lon="9.054825">
        <ele>362.211281</ele>
        <time>2026-05-02T11:21:52.563Z</time>
      </trkpt>
      <trkpt lat="45.712683" lon="9.054745">
        <ele>361.534071</ele>
        <time>2026-05-02T11:21:54.568Z</time>
      </trkpt>
      <trkpt lat="45.712570" lon="9.054657">
        <ele>360.812413</ele>
        <time>2026-05-02T11:21:56.568Z</time>
      </trkpt>
      <trkpt lat="45.712447" lon="9.054555">
        <ele>360.014977</ele>
        <time>2026-05-02T11:21:58.569Z</time>
      </trkpt>
      <trkpt lat="45.712320" lon="9.054445">
        <ele>359.182263</ele>
        <time>2026-05-02T11:22:00.568Z</time>
      </trkpt>
      <trkpt lat="45.712186" lon="9.054329">
        <ele>358.303780</ele>
        <time>2026-05-02T11:22:02.568Z</time>
      </trkpt>
      <trkpt lat="45.712050" lon="9.054211">
        <ele>357.411638</ele>
        <time>2026-05-02T11:22:04.563Z</time>
      </trkpt>
      <trkpt lat="45.711915" lon="9.054090">
        <ele>356.518111</ele>
        <time>2026-05-02T11:22:06.565Z</time>
      </trkpt>
      <trkpt lat="45.711773" lon="9.053983">
        <ele>355.617869</ele>
        <time>2026-05-02T11:22:08.566Z</time>
      </trkpt>
      <trkpt lat="45.711621" lon="9.053903">
        <ele>354.709303</ele>
        <time>2026-05-02T11:22:10.567Z</time>
      </trkpt>
      <trkpt lat="45.711461" lon="9.053844">
        <ele>353.782341</ele>
        <time>2026-05-02T11:22:12.565Z</time>
      </trkpt>
      <trkpt lat="45.711315" lon="9.053801">
        <ele>352.946063</ele>
        <time>2026-05-02T11:22:14.565Z</time>
      </trkpt>
      <trkpt lat="45.711160" lon="9.053795">
        <ele>352.206877</ele>
        <time>2026-05-02T11:22:16.565Z</time>
      </trkpt>
      <trkpt lat="45.711015" lon="9.053882">
        <ele>351.622700</ele>
        <time>2026-05-02T11:22:18.564Z</time>
      </trkpt>
      <trkpt lat="45.710924" lon="9.054069">
        <ele>351.031286</ele>
        <time>2026-05-02T11:22:20.564Z</time>
      </trkpt>
      <trkpt lat="45.710871" lon="9.054278">
        <ele>350.454339</ele>
        <time>2026-05-02T11:22:22.570Z</time>
      </trkpt>
      <trkpt lat="45.710824" lon="9.054477">
        <ele>349.909255</ele>
        <time>2026-05-02T11:22:24.564Z</time>
      </trkpt>
      <trkpt lat="45.710793" lon="9.054672">
        <ele>349.390339</ele>
        <time>2026-05-02T11:22:26.563Z</time>
      </trkpt>
      <trkpt lat="45.710750" lon="9.054855">
        <ele>348.889344</ele>
        <time>2026-05-02T11:22:28.570Z</time>
      </trkpt>
      <trkpt lat="45.710652" lon="9.054998">
        <ele>348.369457</ele>
        <time>2026-05-02T11:22:30.564Z</time>
      </trkpt>
      <trkpt lat="45.710508" lon="9.055043">
        <ele>347.821781</ele>
        <time>2026-05-02T11:22:32.565Z</time>
      </trkpt>
      <trkpt lat="45.710355" lon="9.055074">
        <ele>347.247592</ele>
        <time>2026-05-02T11:22:34.571Z</time>
      </trkpt>
      <trkpt lat="45.710203" lon="9.055147">
        <ele>346.651866</ele>
        <time>2026-05-02T11:22:36.565Z</time>
      </trkpt>
      <trkpt lat="45.710086" lon="9.055309">
        <ele>346.047130</ele>
        <time>2026-05-02T11:22:38.567Z</time>
      </trkpt>
      <trkpt lat="45.710027" lon="9.055517">
        <ele>345.629642</ele>
        <time>2026-05-02T11:22:40.563Z</time>
      </trkpt>
      <trkpt lat="45.709961" lon="9.055706">
        <ele>345.368419</ele>
        <time>2026-05-02T11:22:42.568Z</time>
      </trkpt>
      <trkpt lat="45.709861" lon="9.055856">
        <ele>345.112057</ele>
        <time>2026-05-02T11:22:44.563Z</time>
      </trkpt>
      <trkpt lat="45.709731" lon="9.055933">
        <ele>344.863012</ele>
        <time>2026-05-02T11:22:46.566Z</time>
      </trkpt>
      <trkpt lat="45.709593" lon="9.055983">
        <ele>344.611015</ele>
        <time>2026-05-02T11:22:48.567Z</time>
      </trkpt>
      <trkpt lat="45.709464" lon="9.056042">
        <ele>344.371285</ele>
        <time>2026-05-02T11:22:50.568Z</time>
      </trkpt>
      <trkpt lat="45.709364" lon="9.056164">
        <ele>344.138725</ele>
        <time>2026-05-02T11:22:52.573Z</time>
      </trkpt>
      <trkpt lat="45.709308" lon="9.056331">
        <ele>343.909712</ele>
        <time>2026-05-02T11:22:54.575Z</time>
      </trkpt>
      <trkpt lat="45.709227" lon="9.056470">
        <ele>343.685911</ele>
        <time>2026-05-02T11:22:56.562Z</time>
      </trkpt>
      <trkpt lat="45.709120" lon="9.056564">
        <ele>343.463688</ele>
        <time>2026-05-02T11:22:58.565Z</time>
      </trkpt>
      <trkpt lat="45.708999" lon="9.056591">
        <ele>343.246899</ele>
        <time>2026-05-02T11:23:00.566Z</time>
      </trkpt>
      <trkpt lat="45.708880" lon="9.056621">
        <ele>343.032996</ele>
        <time>2026-05-02T11:23:02.564Z</time>
      </trkpt>
      <trkpt lat="45.708767" lon="9.056671">
        <ele>342.823622</ele>
        <time>2026-05-02T11:23:04.566Z</time>
      </trkpt>
      <trkpt lat="45.708659" lon="9.056726">
        <ele>342.620702</ele>
        <time>2026-05-02T11:23:06.566Z</time>
      </trkpt>
      <trkpt lat="45.708548" lon="9.056734">
        <ele>342.451575</ele>
        <time>2026-05-02T11:23:08.566Z</time>
      </trkpt>
      <trkpt lat="45.708439" lon="9.056755">
        <ele>342.288188</ele>
        <time>2026-05-02T11:23:10.560Z</time>
      </trkpt>
      <trkpt lat="45.708331" lon="9.056769">
        <ele>342.127090</ele>
        <time>2026-05-02T11:23:12.563Z</time>
      </trkpt>
      <trkpt lat="45.708224" lon="9.056785">
        <ele>341.967269</ele>
        <time>2026-05-02T11:23:14.560Z</time>
      </trkpt>
      <trkpt lat="45.708118" lon="9.056797">
        <ele>341.809306</ele>
        <time>2026-05-02T11:23:16.564Z</time>
      </trkpt>
      <trkpt lat="45.708014" lon="9.056809">
        <ele>341.654305</ele>
        <time>2026-05-02T11:23:18.563Z</time>
      </trkpt>
      <trkpt lat="45.707904" lon="9.056827">
        <ele>341.489828</ele>
        <time>2026-05-02T11:23:20.563Z</time>
      </trkpt>
      <trkpt lat="45.707793" lon="9.056844">
        <ele>341.323989</ele>
        <time>2026-05-02T11:23:22.564Z</time>
      </trkpt>
      <trkpt lat="45.707684" lon="9.056858">
        <ele>341.161411</ele>
        <time>2026-05-02T11:23:24.565Z</time>
      </trkpt>
      <trkpt lat="45.707576" lon="9.056876">
        <ele>340.999885</ele>
        <time>2026-05-02T11:23:26.567Z</time>
      </trkpt>
      <trkpt lat="45.707468" lon="9.056894">
        <ele>340.838360</ele>
        <time>2026-05-02T11:23:28.565Z</time>
      </trkpt>
      <trkpt lat="45.707359" lon="9.056910">
        <ele>340.675583</ele>
        <time>2026-05-02T11:23:30.562Z</time>
      </trkpt>
      <trkpt lat="45.707251" lon="9.056926">
        <ele>340.514285</ele>
        <time>2026-05-02T11:23:32.564Z</time>
      </trkpt>
      <trkpt lat="45.707146" lon="9.056946">
        <ele>340.356925</ele>
        <time>2026-05-02T11:23:34.565Z</time>
      </trkpt>
      <trkpt lat="45.707040" lon="9.056961">
        <ele>340.198687</ele>
        <time>2026-05-02T11:23:36.567Z</time>
      </trkpt>
      <trkpt lat="45.706936" lon="9.056971">
        <ele>340.043839</ele>
        <time>2026-05-02T11:23:38.561Z</time>
      </trkpt>
      <trkpt lat="45.706832" lon="9.056988">
        <ele>339.909732</ele>
        <time>2026-05-02T11:23:40.558Z</time>
      </trkpt>
      <trkpt lat="45.706727" lon="9.057006">
        <ele>339.847718</ele>
        <time>2026-05-02T11:23:42.567Z</time>
      </trkpt>
      <trkpt lat="45.706618" lon="9.057022">
        <ele>339.783463</ele>
        <time>2026-05-02T11:23:44.567Z</time>
      </trkpt>
      <trkpt lat="45.706508" lon="9.057042">
        <ele>339.718439</ele>
        <time>2026-05-02T11:23:46.568Z</time>
      </trkpt>
      <trkpt lat="45.706404" lon="9.057055">
        <ele>339.657219</ele>
        <time>2026-05-02T11:23:48.568Z</time>
      </trkpt>
      <trkpt lat="45.706303" lon="9.057067">
        <ele>339.597787</ele>
        <time>2026-05-02T11:23:50.562Z</time>
      </trkpt>
      <trkpt lat="45.706210" lon="9.057076">
        <ele>339.543125</ele>
        <time>2026-05-02T11:23:52.566Z</time>
      </trkpt>
      <trkpt lat="45.706119" lon="9.057090">
        <ele>339.489453</ele>
        <time>2026-05-02T11:23:54.568Z</time>
      </trkpt>
      <trkpt lat="45.706022" lon="9.057103">
        <ele>339.432322</ele>
        <time>2026-05-02T11:23:56.568Z</time>
      </trkpt>
      <trkpt lat="45.705920" lon="9.057120">
        <ele>339.372103</ele>
        <time>2026-05-02T11:23:58.562Z</time>
      </trkpt>
      <trkpt lat="45.705821" lon="9.057136">
        <ele>339.313678</ele>
        <time>2026-05-02T11:24:00.563Z</time>
      </trkpt>
      <trkpt lat="45.705727" lon="9.057149">
        <ele>339.258298</ele>
        <time>2026-05-02T11:24:02.567Z</time>
      </trkpt>
      <trkpt lat="45.705633" lon="9.057161">
        <ele>339.202956</ele>
        <time>2026-05-02T11:24:04.561Z</time>
      </trkpt>
      <trkpt lat="45.705534" lon="9.057173">
        <ele>339.144692</ele>
        <time>2026-05-02T11:24:06.564Z</time>
      </trkpt>
      <trkpt lat="45.705434" lon="9.057186">
        <ele>339.085809</ele>
        <time>2026-05-02T11:24:08.563Z</time>
      </trkpt>
      <trkpt lat="45.705337" lon="9.057200">
        <ele>339.028638</ele>
        <time>2026-05-02T11:24:10.564Z</time>
      </trkpt>
      <trkpt lat="45.705237" lon="9.057221">
        <ele>338.969368</ele>
        <time>2026-05-02T11:24:12.563Z</time>
      </trkpt>
      <trkpt lat="45.705141" lon="9.057242">
        <ele>338.912419</ele>
        <time>2026-05-02T11:24:14.564Z</time>
      </trkpt>
      <trkpt lat="45.705042" lon="9.057256">
        <ele>338.871678</ele>
        <time>2026-05-02T11:24:16.562Z</time>
      </trkpt>
      <trkpt lat="45.704950" lon="9.057237">
        <ele>338.881798</ele>
        <time>2026-05-02T11:24:18.565Z</time>
      </trkpt>
      <trkpt lat="45.704859" lon="9.057221">
        <ele>338.891781</ele>
        <time>2026-05-02T11:24:20.569Z</time>
      </trkpt>
      <trkpt lat="45.704758" lon="9.057217">
        <ele>338.902782</ele>
        <time>2026-05-02T11:24:22.566Z</time>
      </trkpt>
      <trkpt lat="45.704651" lon="9.057228">
        <ele>338.914463</ele>
        <time>2026-05-02T11:24:24.568Z</time>
      </trkpt>
      <trkpt lat="45.704543" lon="9.057247">
        <ele>338.926310</ele>
        <time>2026-05-02T11:24:26.563Z</time>
      </trkpt>
      <trkpt lat="45.704442" lon="9.057251">
        <ele>338.937312</ele>
        <time>2026-05-02T11:24:28.559Z</time>
      </trkpt>
      <trkpt lat="45.704345" lon="9.057273">
        <ele>338.948005</ele>
        <time>2026-05-02T11:24:30.561Z</time>
      </trkpt>
      <trkpt lat="45.704242" lon="9.057294">
        <ele>338.959333</ele>
        <time>2026-05-02T11:24:32.562Z</time>
      </trkpt>
      <trkpt lat="45.704135" lon="9.057311">
        <ele>338.971055</ele>
        <time>2026-05-02T11:24:34.569Z</time>
      </trkpt>
      <trkpt lat="45.704035" lon="9.057326">
        <ele>338.982003</ele>
        <time>2026-05-02T11:24:36.562Z</time>
      </trkpt>
      <trkpt lat="45.703930" lon="9.057341">
        <ele>338.993492</ele>
        <time>2026-05-02T11:24:38.567Z</time>
      </trkpt>
      <trkpt lat="45.703825" lon="9.057353">
        <ele>339.004961</ele>
        <time>2026-05-02T11:24:40.563Z</time>
      </trkpt>
      <trkpt lat="45.703725" lon="9.057364">
        <ele>339.015881</ele>
        <time>2026-05-02T11:24:42.560Z</time>
      </trkpt>
      <trkpt lat="45.703620" lon="9.057382">
        <ele>339.027395</ele>
        <time>2026-05-02T11:24:44.562Z</time>
      </trkpt>
      <trkpt lat="45.703518" lon="9.057398">
        <ele>339.038568</ele>
        <time>2026-05-02T11:24:46.568Z</time>
      </trkpt>
      <trkpt lat="45.703413" lon="9.057387">
        <ele>339.050031</ele>
        <time>2026-05-02T11:24:48.566Z</time>
      </trkpt>
      <trkpt lat="45.703311" lon="9.057403">
        <ele>339.061203</ele>
        <time>2026-05-02T11:24:50.564Z</time>
      </trkpt>
      <trkpt lat="45.703214" lon="9.057438">
        <ele>339.120835</ele>
        <time>2026-05-02T11:24:52.565Z</time>
      </trkpt>
      <trkpt lat="45.703119" lon="9.057459">
        <ele>339.200864</ele>
        <time>2026-05-02T11:24:54.565Z</time>
      </trkpt>
      <trkpt lat="45.703021" lon="9.057474">
        <ele>339.282920</ele>
        <time>2026-05-02T11:24:56.560Z</time>
      </trkpt>
      <trkpt lat="45.702923" lon="9.057484">
        <ele>339.364717</ele>
        <time>2026-05-02T11:24:58.570Z</time>
      </trkpt>
      <trkpt lat="45.702823" lon="9.057501">
        <ele>339.448557</ele>
        <time>2026-05-02T11:25:00.572Z</time>
      </trkpt>
      <trkpt lat="45.702724" lon="9.057510">
        <ele>339.531146</ele>
        <time>2026-05-02T11:25:02.563Z</time>
      </trkpt>
      <trkpt lat="45.702631" lon="9.057523">
        <ele>339.608942</ele>
        <time>2026-05-02T11:25:04.570Z</time>
      </trkpt>
      <trkpt lat="45.702540" lon="9.057542">
        <ele>339.685506</ele>
        <time>2026-05-02T11:25:06.564Z</time>
      </trkpt>
      <trkpt lat="45.702448" lon="9.057555">
        <ele>339.762473</ele>
        <time>2026-05-02T11:25:08.566Z</time>
      </trkpt>
      <trkpt lat="45.702358" lon="9.057562">
        <ele>339.837513</ele>
        <time>2026-05-02T11:25:10.570Z</time>
      </trkpt>
      <trkpt lat="45.702269" lon="9.057580">
        <ele>339.912346</ele>
        <time>2026-05-02T11:25:12.562Z</time>
      </trkpt>
      <trkpt lat="45.702179" lon="9.057596">
        <ele>339.987852</ele>
        <time>2026-05-02T11:25:14.563Z</time>
      </trkpt>
      <trkpt lat="45.702046" lon="9.057614">
        <ele>340.099075</ele>
        <time>2026-05-02T11:25:17.570Z</time>
      </trkpt>
      <trkpt lat="45.701957" lon="9.057626">
        <ele>340.173500</ele>
        <time>2026-05-02T11:25:19.562Z</time>
      </trkpt>
      <trkpt lat="45.701866" lon="9.057641">
        <ele>340.249763</ele>
        <time>2026-05-02T11:25:21.568Z</time>
      </trkpt>
      <trkpt lat="45.701773" lon="9.057657">
        <ele>340.327748</ele>
        <time>2026-05-02T11:25:23.564Z</time>
      </trkpt>
      <trkpt lat="45.701641" lon="9.057676">
        <ele>340.438199</ele>
        <time>2026-05-02T11:25:26.564Z</time>
      </trkpt>
      <trkpt lat="45.701511" lon="9.057701">
        <ele>340.547403</ele>
        <time>2026-05-02T11:25:29.568Z</time>
      </trkpt>
      <trkpt lat="45.701420" lon="9.057715">
        <ele>340.612573</ele>
        <time>2026-05-02T11:25:31.566Z</time>
      </trkpt>
      <trkpt lat="45.701287" lon="9.057732">
        <ele>340.703764</ele>
        <time>2026-05-02T11:25:34.566Z</time>
      </trkpt>
      <trkpt lat="45.701197" lon="9.057741">
        <ele>340.765378</ele>
        <time>2026-05-02T11:25:36.563Z</time>
      </trkpt>
      <trkpt lat="45.701072" lon="9.057759">
        <ele>340.851175</ele>
        <time>2026-05-02T11:25:39.568Z</time>
      </trkpt>
      <trkpt lat="45.700945" lon="9.057778">
        <ele>340.938379</ele>
        <time>2026-05-02T11:25:42.565Z</time>
      </trkpt>
      <trkpt lat="45.700816" lon="9.057802">
        <ele>341.027218</ele>
        <time>2026-05-02T11:25:45.565Z</time>
      </trkpt>
      <trkpt lat="45.700689" lon="9.057827">
        <ele>341.114766</ele>
        <time>2026-05-02T11:25:48.559Z</time>
      </trkpt>
      <trkpt lat="45.700568" lon="9.057843">
        <ele>341.197753</ele>
        <time>2026-05-02T11:25:51.572Z</time>
      </trkpt>
      <trkpt lat="45.700444" lon="9.057852">
        <ele>341.282545</ele>
        <time>2026-05-02T11:25:54.564Z</time>
      </trkpt>
      <trkpt lat="45.700320" lon="9.057875">
        <ele>341.367936</ele>
        <time>2026-05-02T11:25:57.561Z</time>
      </trkpt>
      <trkpt lat="45.700188" lon="9.057882">
        <ele>341.458145</ele>
        <time>2026-05-02T11:26:00.567Z</time>
      </trkpt>
      <trkpt lat="45.700097" lon="9.057889">
        <ele>341.520382</ele>
        <time>2026-05-02T11:26:02.565Z</time>
      </trkpt>
      <trkpt lat="45.700006" lon="9.057904">
        <ele>341.582939</ele>
        <time>2026-05-02T11:26:04.570Z</time>
      </trkpt>
      <trkpt lat="45.699879" lon="9.057915">
        <ele>341.669830</ele>
        <time>2026-05-02T11:26:07.563Z</time>
      </trkpt>
      <trkpt lat="45.699754" lon="9.057935">
        <ele>341.755728</ele>
        <time>2026-05-02T11:26:10.570Z</time>
      </trkpt>
      <trkpt lat="45.699626" lon="9.057956">
        <ele>341.771520</ele>
        <time>2026-05-02T11:26:13.568Z</time>
      </trkpt>
      <trkpt lat="45.699500" lon="9.057974">
        <ele>341.740493</ele>
        <time>2026-05-02T11:26:16.564Z</time>
      </trkpt>
      <trkpt lat="45.699371" lon="9.057997">
        <ele>341.708639</ele>
        <time>2026-05-02T11:26:19.568Z</time>
      </trkpt>
      <trkpt lat="45.699244" lon="9.058019">
        <ele>341.677293</ele>
        <time>2026-05-02T11:26:22.575Z</time>
      </trkpt>
      <trkpt lat="45.699113" lon="9.058036">
        <ele>341.645061</ele>
        <time>2026-05-02T11:26:25.568Z</time>
      </trkpt>
      <trkpt lat="45.698980" lon="9.058059">
        <ele>341.612235</ele>
        <time>2026-05-02T11:26:28.561Z</time>
      </trkpt>
      <trkpt lat="45.698850" lon="9.058089">
        <ele>341.579969</ele>
        <time>2026-05-02T11:26:31.566Z</time>
      </trkpt>
      <trkpt lat="45.698721" lon="9.058119">
        <ele>341.547945</ele>
        <time>2026-05-02T11:26:34.562Z</time>
      </trkpt>
      <trkpt lat="45.698597" lon="9.058121">
        <ele>341.517559</ele>
        <time>2026-05-02T11:26:37.566Z</time>
      </trkpt>
      <trkpt lat="45.698500" lon="9.058175">
        <ele>341.492057</ele>
        <time>2026-05-02T11:26:40.560Z</time>
      </trkpt>
      <trkpt lat="45.698493" lon="9.058320">
        <ele>341.467182</ele>
        <time>2026-05-02T11:26:43.565Z</time>
      </trkpt>
      <trkpt lat="45.698530" lon="9.058504">
        <ele>341.434413</ele>
        <time>2026-05-02T11:26:46.563Z</time>
      </trkpt>
      <trkpt lat="45.698546" lon="9.058640">
        <ele>341.410810</ele>
        <time>2026-05-02T11:26:48.564Z</time>
      </trkpt>
      <trkpt lat="45.698556" lon="9.058786">
        <ele>341.385704</ele>
        <time>2026-05-02T11:26:50.566Z</time>
      </trkpt>
      <trkpt lat="45.698572" lon="9.058932">
        <ele>341.360411</ele>
        <time>2026-05-02T11:26:52.571Z</time>
      </trkpt>
      <trkpt lat="45.698578" lon="9.059076">
        <ele>341.074643</ele>
        <time>2026-05-02T11:26:54.565Z</time>
      </trkpt>
      <trkpt lat="45.698589" lon="9.059226">
        <ele>340.571873</ele>
        <time>2026-05-02T11:26:56.564Z</time>
      </trkpt>
      <trkpt lat="45.698607" lon="9.059372">
        <ele>340.077661</ele>
        <time>2026-05-02T11:26:58.571Z</time>
      </trkpt>
      <trkpt lat="45.698622" lon="9.059514">
        <ele>339.598923</ele>
        <time>2026-05-02T11:27:00.566Z</time>
      </trkpt>
      <trkpt lat="45.698640" lon="9.059648">
        <ele>339.144051</ele>
        <time>2026-05-02T11:27:02.571Z</time>
      </trkpt>
      <trkpt lat="45.698651" lon="9.059779">
        <ele>338.704221</ele>
        <time>2026-05-02T11:27:04.569Z</time>
      </trkpt>
      <trkpt lat="45.698660" lon="9.059915">
        <ele>338.248838</ele>
        <time>2026-05-02T11:27:06.565Z</time>
      </trkpt>
      <trkpt lat="45.698658" lon="9.060054">
        <ele>337.785387</ele>
        <time>2026-05-02T11:27:08.566Z</time>
      </trkpt>
      <trkpt lat="45.698652" lon="9.060189">
        <ele>337.334457</ele>
        <time>2026-05-02T11:27:10.561Z</time>
      </trkpt>
      <trkpt lat="45.698629" lon="9.060321">
        <ele>336.880952</ele>
        <time>2026-05-02T11:27:12.564Z</time>
      </trkpt>
      <trkpt lat="45.698564" lon="9.060467">
        <ele>336.303796</ele>
        <time>2026-05-02T11:27:15.564Z</time>
      </trkpt>
      <trkpt lat="45.698460" lon="9.060484">
        <ele>335.804201</ele>
        <time>2026-05-02T11:27:18.568Z</time>
      </trkpt>
      <trkpt lat="45.698340" lon="9.060497">
        <ele>335.229828</ele>
        <time>2026-05-02T11:27:21.569Z</time>
      </trkpt>
      <trkpt lat="45.698248" lon="9.060547">
        <ele>334.760161</ele>
        <time>2026-05-02T11:27:25.568Z</time>
      </trkpt>
      <trkpt lat="45.698037" lon="9.060476">
        <ele>333.725662</ele>
        <time>2026-05-02T11:27:47.570Z</time>
      </trkpt>
      <trkpt lat="45.697920" lon="9.060425">
        <ele>333.141939</ele>
        <time>2026-05-02T11:27:50.563Z</time>
      </trkpt>
      <trkpt lat="45.697837" lon="9.060374">
        <ele>332.737989</ele>
        <time>2026-05-02T11:27:52.571Z</time>
      </trkpt>
      <trkpt lat="45.697741" lon="9.060344">
        <ele>332.502767</ele>
        <time>2026-05-02T11:27:54.559Z</time>
      </trkpt>
      <trkpt lat="45.697641" lon="9.060321">
        <ele>332.260311</ele>
        <time>2026-05-02T11:27:56.569Z</time>
      </trkpt>
      <trkpt lat="45.697533" lon="9.060305">
        <ele>332.000393</ele>
        <time>2026-05-02T11:27:58.570Z</time>
      </trkpt>
      <trkpt lat="45.697416" lon="9.060308">
        <ele>331.720266</ele>
        <time>2026-05-02T11:28:00.568Z</time>
      </trkpt>
      <trkpt lat="45.697298" lon="9.060307">
        <ele>331.437784</ele>
        <time>2026-05-02T11:28:02.570Z</time>
      </trkpt>
      <trkpt lat="45.697175" lon="9.060313">
        <ele>331.143168</ele>
        <time>2026-05-02T11:28:04.569Z</time>
      </trkpt>
      <trkpt lat="45.697048" lon="9.060320">
        <ele>330.838921</ele>
        <time>2026-05-02T11:28:06.563Z</time>
      </trkpt>
      <trkpt lat="45.696925" lon="9.060328">
        <ele>330.544172</ele>
        <time>2026-05-02T11:28:08.564Z</time>
      </trkpt>
      <trkpt lat="45.696815" lon="9.060326">
        <ele>330.280825</ele>
        <time>2026-05-02T11:28:10.567Z</time>
      </trkpt>
      <trkpt lat="45.696715" lon="9.060326">
        <ele>330.041438</ele>
        <time>2026-05-02T11:28:12.562Z</time>
      </trkpt>
      <trkpt lat="45.696596" lon="9.060328">
        <ele>329.756548</ele>
        <time>2026-05-02T11:28:15.561Z</time>
      </trkpt>
      <trkpt lat="45.696486" lon="9.060326">
        <ele>329.493202</ele>
        <time>2026-05-02T11:28:19.566Z</time>
      </trkpt>
      <trkpt lat="45.696394" lon="9.060336">
        <ele>329.272332</ele>
        <time>2026-05-02T11:28:22.567Z</time>
      </trkpt>
      <trkpt lat="45.696296" lon="9.060333">
        <ele>329.037679</ele>
        <time>2026-05-02T11:28:26.566Z</time>
      </trkpt>
      <trkpt lat="45.696201" lon="9.060339">
        <ele>328.810041</ele>
        <time>2026-05-02T11:28:30.562Z</time>
      </trkpt>
      <trkpt lat="45.696082" lon="9.060371">
        <ele>328.520189</ele>
        <time>2026-05-02T11:28:33.566Z</time>
      </trkpt>
      <trkpt lat="45.695989" lon="9.060380">
        <ele>328.378024</ele>
        <time>2026-05-02T11:28:35.570Z</time>
      </trkpt>
      <trkpt lat="45.695896" lon="9.060390">
        <ele>328.265996</ele>
        <time>2026-05-02T11:28:37.572Z</time>
      </trkpt>
      <trkpt lat="45.695792" lon="9.060410">
        <ele>328.139947</ele>
        <time>2026-05-02T11:28:39.563Z</time>
      </trkpt>
      <trkpt lat="45.695689" lon="9.060425">
        <ele>328.015584</ele>
        <time>2026-05-02T11:28:41.557Z</time>
      </trkpt>
      <trkpt lat="45.695583" lon="9.060434">
        <ele>327.888031</ele>
        <time>2026-05-02T11:28:43.563Z</time>
      </trkpt>
      <trkpt lat="45.695478" lon="9.060448">
        <ele>327.761358</ele>
        <time>2026-05-02T11:28:45.570Z</time>
      </trkpt>
      <trkpt lat="45.695376" lon="9.060460">
        <ele>327.638420</ele>
        <time>2026-05-02T11:28:47.562Z</time>
      </trkpt>
      <trkpt lat="45.695274" lon="9.060470">
        <ele>327.515609</ele>
        <time>2026-05-02T11:28:49.564Z</time>
      </trkpt>
      <trkpt lat="45.695173" lon="9.060482">
        <ele>327.393870</ele>
        <time>2026-05-02T11:28:51.565Z</time>
      </trkpt>
      <trkpt lat="45.695073" lon="9.060495">
        <ele>327.273254</ele>
        <time>2026-05-02T11:28:53.568Z</time>
      </trkpt>
      <trkpt lat="45.694977" lon="9.060508">
        <ele>327.157422</ele>
        <time>2026-05-02T11:28:55.564Z</time>
      </trkpt>
      <trkpt lat="45.694880" lon="9.060512">
        <ele>327.040856</ele>
        <time>2026-05-02T11:28:57.565Z</time>
      </trkpt>
      <trkpt lat="45.694790" lon="9.060522">
        <ele>326.932421</ele>
        <time>2026-05-02T11:28:59.565Z</time>
      </trkpt>
      <trkpt lat="45.694658" lon="9.060540">
        <ele>326.773143</ele>
        <time>2026-05-02T11:29:02.564Z</time>
      </trkpt>
      <trkpt lat="45.694524" lon="9.060560">
        <ele>326.611308</ele>
        <time>2026-05-02T11:29:05.562Z</time>
      </trkpt>
      <trkpt lat="45.694395" lon="9.060577">
        <ele>326.455696</ele>
        <time>2026-05-02T11:29:08.566Z</time>
      </trkpt>
      <trkpt lat="45.694303" lon="9.060592">
        <ele>326.344469</ele>
        <time>2026-05-02T11:29:10.566Z</time>
      </trkpt>
      <trkpt lat="45.694212" lon="9.060602">
        <ele>326.250481</ele>
        <time>2026-05-02T11:29:12.567Z</time>
      </trkpt>
      <trkpt lat="45.694121" lon="9.060610">
        <ele>326.167659</ele>
        <time>2026-05-02T11:29:14.569Z</time>
      </trkpt>
      <trkpt lat="45.693985" lon="9.060613">
        <ele>326.044098</ele>
        <time>2026-05-02T11:29:17.564Z</time>
      </trkpt>
      <trkpt lat="45.693889" lon="9.060609">
        <ele>325.956853</ele>
        <time>2026-05-02T11:29:19.567Z</time>
      </trkpt>
      <trkpt lat="45.693792" lon="9.060592">
        <ele>325.868078</ele>
        <time>2026-05-02T11:29:21.558Z</time>
      </trkpt>
      <trkpt lat="45.693700" lon="9.060572">
        <ele>325.783545</ele>
        <time>2026-05-02T11:29:23.567Z</time>
      </trkpt>
      <trkpt lat="45.693610" lon="9.060538">
        <ele>325.698988</ele>
        <time>2026-05-02T11:29:25.567Z</time>
      </trkpt>
      <trkpt lat="45.693519" lon="9.060507">
        <ele>325.614013</ele>
        <time>2026-05-02T11:29:27.563Z</time>
      </trkpt>
      <trkpt lat="45.693429" lon="9.060463">
        <ele>325.527620</ele>
        <time>2026-05-02T11:29:29.563Z</time>
      </trkpt>
      <trkpt lat="45.693342" lon="9.060417">
        <ele>325.443369</ele>
        <time>2026-05-02T11:29:31.561Z</time>
      </trkpt>
      <trkpt lat="45.693259" lon="9.060359">
        <ele>325.359467</ele>
        <time>2026-05-02T11:29:33.561Z</time>
      </trkpt>
      <trkpt lat="45.693175" lon="9.060291">
        <ele>325.271805</ele>
        <time>2026-05-02T11:29:35.568Z</time>
      </trkpt>
      <trkpt lat="45.693097" lon="9.060220">
        <ele>325.187839</ele>
        <time>2026-05-02T11:29:37.570Z</time>
      </trkpt>
      <trkpt lat="45.693015" lon="9.060143">
        <ele>325.098754</ele>
        <time>2026-05-02T11:29:39.570Z</time>
      </trkpt>
      <trkpt lat="45.692937" lon="9.060065">
        <ele>325.012323</ele>
        <time>2026-05-02T11:29:41.564Z</time>
      </trkpt>
      <trkpt lat="45.692862" lon="9.059983">
        <ele>324.926595</ele>
        <time>2026-05-02T11:29:43.568Z</time>
      </trkpt>
      <trkpt lat="45.692782" lon="9.059901">
        <ele>324.837214</ele>
        <time>2026-05-02T11:29:45.568Z</time>
      </trkpt>
      <trkpt lat="45.692709" lon="9.059811">
        <ele>324.749698</ele>
        <time>2026-05-02T11:29:47.556Z</time>
      </trkpt>
      <trkpt lat="45.692636" lon="9.059727">
        <ele>324.664478</ele>
        <time>2026-05-02T11:29:49.568Z</time>
      </trkpt>
      <trkpt lat="45.692566" lon="9.059644">
        <ele>324.557245</ele>
        <time>2026-05-02T11:29:51.561Z</time>
      </trkpt>
      <trkpt lat="45.692494" lon="9.059556">
        <ele>324.445553</ele>
        <time>2026-05-02T11:29:53.566Z</time>
      </trkpt>
      <trkpt lat="45.692425" lon="9.059472">
        <ele>324.338694</ele>
        <time>2026-05-02T11:29:55.559Z</time>
      </trkpt>
      <trkpt lat="45.692349" lon="9.059387">
        <ele>324.224911</ele>
        <time>2026-05-02T11:29:57.567Z</time>
      </trkpt>
      <trkpt lat="45.692274" lon="9.059302">
        <ele>324.112056</ele>
        <time>2026-05-02T11:29:59.560Z</time>
      </trkpt>
      <trkpt lat="45.692201" lon="9.059219">
        <ele>324.002074</ele>
        <time>2026-05-02T11:30:01.564Z</time>
      </trkpt>
      <trkpt lat="45.692130" lon="9.059132">
        <ele>323.891814</ele>
        <time>2026-05-02T11:30:03.567Z</time>
      </trkpt>
      <trkpt lat="45.692056" lon="9.059045">
        <ele>323.778843</ele>
        <time>2026-05-02T11:30:05.568Z</time>
      </trkpt>
      <trkpt lat="45.691984" lon="9.058958">
        <ele>323.667684</ele>
        <time>2026-05-02T11:30:07.566Z</time>
      </trkpt>
      <trkpt lat="45.691909" lon="9.058877">
        <ele>323.556845</ele>
        <time>2026-05-02T11:30:09.563Z</time>
      </trkpt>
      <trkpt lat="45.691840" lon="9.058793">
        <ele>323.449985</ele>
        <time>2026-05-02T11:30:11.559Z</time>
      </trkpt>
      <trkpt lat="45.691767" lon="9.058707">
        <ele>323.338448</ele>
        <time>2026-05-02T11:30:13.567Z</time>
      </trkpt>
      <trkpt lat="45.691690" lon="9.058621">
        <ele>323.223227</ele>
        <time>2026-05-02T11:30:15.573Z</time>
      </trkpt>
      <trkpt lat="45.691613" lon="9.058528">
        <ele>323.104372</ele>
        <time>2026-05-02T11:30:17.565Z</time>
      </trkpt>
      <trkpt lat="45.691538" lon="9.058443">
        <ele>322.991516</ele>
        <time>2026-05-02T11:30:19.556Z</time>
      </trkpt>
      <trkpt lat="45.691462" lon="9.058354">
        <ele>322.875674</ele>
        <time>2026-05-02T11:30:21.562Z</time>
      </trkpt>
      <trkpt lat="45.691387" lon="9.058264">
        <ele>322.760215</ele>
        <time>2026-05-02T11:30:23.565Z</time>
      </trkpt>
      <trkpt lat="45.691310" lon="9.058178">
        <ele>322.644994</ele>
        <time>2026-05-02T11:30:25.571Z</time>
      </trkpt>
      <trkpt lat="45.691239" lon="9.058090">
        <ele>322.531573</ele>
        <time>2026-05-02T11:30:27.563Z</time>
      </trkpt>
      <trkpt lat="45.691170" lon="9.058004">
        <ele>322.391675</ele>
        <time>2026-05-02T11:30:29.566Z</time>
      </trkpt>
      <trkpt lat="45.691107" lon="9.057903">
        <ele>322.247038</ele>
        <time>2026-05-02T11:30:31.572Z</time>
      </trkpt>
      <trkpt lat="45.691065" lon="9.057775">
        <ele>322.095979</ele>
        <time>2026-05-02T11:30:33.563Z</time>
      </trkpt>
      <trkpt lat="45.691024" lon="9.057643">
        <ele>321.941671</ele>
        <time>2026-05-02T11:30:35.565Z</time>
      </trkpt>
      <trkpt lat="45.690954" lon="9.057535">
        <ele>321.784298</ele>
        <time>2026-05-02T11:30:37.561Z</time>
      </trkpt>
      <trkpt lat="45.690867" lon="9.057474">
        <ele>321.636161</ele>
        <time>2026-05-02T11:30:39.563Z</time>
      </trkpt>
      <trkpt lat="45.690780" lon="9.057413">
        <ele>321.488024</ele>
        <time>2026-05-02T11:30:41.561Z</time>
      </trkpt>
      <trkpt lat="45.690685" lon="9.057354">
        <ele>321.329671</ele>
        <time>2026-05-02T11:30:43.571Z</time>
      </trkpt>
      <trkpt lat="45.690590" lon="9.057284">
        <ele>321.166287</ele>
        <time>2026-05-02T11:30:45.562Z</time>
      </trkpt>
      <trkpt lat="45.690495" lon="9.057213">
        <ele>321.002411</ele>
        <time>2026-05-02T11:30:47.564Z</time>
      </trkpt>
      <trkpt lat="45.690405" lon="9.057131">
        <ele>320.839277</ele>
        <time>2026-05-02T11:30:49.568Z</time>
      </trkpt>
      <trkpt lat="45.690322" lon="9.057039">
        <ele>320.678758</ele>
        <time>2026-05-02T11:30:51.569Z</time>
      </trkpt>
      <trkpt lat="45.690240" lon="9.056946">
        <ele>320.518784</ele>
        <time>2026-05-02T11:30:53.569Z</time>
      </trkpt>
      <trkpt lat="45.690159" lon="9.056850">
        <ele>320.357981</ele>
        <time>2026-05-02T11:30:55.562Z</time>
      </trkpt>
      <trkpt lat="45.690079" lon="9.056758">
        <ele>320.201064</ele>
        <time>2026-05-02T11:30:57.567Z</time>
      </trkpt>
      <trkpt lat="45.690001" lon="9.056674">
        <ele>320.051807</ele>
        <time>2026-05-02T11:30:59.562Z</time>
      </trkpt>
      <trkpt lat="45.689924" lon="9.056584">
        <ele>319.899800</ele>
        <time>2026-05-02T11:31:01.561Z</time>
      </trkpt>
      <trkpt lat="45.689848" lon="9.056489">
        <ele>319.748102</ele>
        <time>2026-05-02T11:31:03.565Z</time>
      </trkpt>
      <trkpt lat="45.689769" lon="9.056396">
        <ele>319.600287</ele>
        <time>2026-05-02T11:31:05.567Z</time>
      </trkpt>
      <trkpt lat="45.689686" lon="9.056300">
        <ele>319.446078</ele>
        <time>2026-05-02T11:31:07.561Z</time>
      </trkpt>
      <trkpt lat="45.689603" lon="9.056212">
        <ele>319.296812</ele>
        <time>2026-05-02T11:31:09.565Z</time>
      </trkpt>
      <trkpt lat="45.689524" lon="9.056118">
        <ele>319.148353</ele>
        <time>2026-05-02T11:31:11.567Z</time>
      </trkpt>
      <trkpt lat="45.689446" lon="9.056022">
        <ele>318.999695</ele>
        <time>2026-05-02T11:31:13.563Z</time>
      </trkpt>
      <trkpt lat="45.689367" lon="9.055929">
        <ele>318.851880</ele>
        <time>2026-05-02T11:31:15.564Z</time>
      </trkpt>
      <trkpt lat="45.689285" lon="9.055830">
        <ele>318.696857</ele>
        <time>2026-05-02T11:31:17.561Z</time>
      </trkpt>
      <trkpt lat="45.689205" lon="9.055736">
        <ele>318.547284</ele>
        <time>2026-05-02T11:31:19.564Z</time>
      </trkpt>
      <trkpt lat="45.689129" lon="9.055649">
        <ele>318.406652</ele>
        <time>2026-05-02T11:31:21.564Z</time>
      </trkpt>
      <trkpt lat="45.689056" lon="9.055563">
        <ele>318.270022</ele>
        <time>2026-05-02T11:31:23.558Z</time>
      </trkpt>
      <trkpt lat="45.688980" lon="9.055479">
        <ele>318.131261</ele>
        <time>2026-05-02T11:31:25.562Z</time>
      </trkpt>
      <trkpt lat="45.688901" lon="9.055390">
        <ele>317.985976</ele>
        <time>2026-05-02T11:31:27.565Z</time>
      </trkpt>
      <trkpt lat="45.688828" lon="9.055297">
        <ele>317.844750</ele>
        <time>2026-05-02T11:31:29.563Z</time>
      </trkpt>
      <trkpt lat="45.688750" lon="9.055203">
        <ele>317.697400</ele>
        <time>2026-05-02T11:31:31.569Z</time>
      </trkpt>
      <trkpt lat="45.688674" lon="9.055118">
        <ele>317.558019</ele>
        <time>2026-05-02T11:31:33.564Z</time>
      </trkpt>
      <trkpt lat="45.688595" lon="9.055039">
        <ele>317.418752</ele>
        <time>2026-05-02T11:31:35.561Z</time>
      </trkpt>
      <trkpt lat="45.688521" lon="9.054953">
        <ele>317.281002</ele>
        <time>2026-05-02T11:31:37.563Z</time>
      </trkpt>
      <trkpt lat="45.688438" lon="9.054868">
        <ele>317.125512</ele>
        <time>2026-05-02T11:31:39.570Z</time>
      </trkpt>
      <trkpt lat="45.688351" lon="9.054795">
        <ele>316.960244</ele>
        <time>2026-05-02T11:31:41.564Z</time>
      </trkpt>
      <trkpt lat="45.688264" lon="9.054735">
        <ele>316.801980</ele>
        <time>2026-05-02T11:31:43.570Z</time>
      </trkpt>
      <trkpt lat="45.688174" lon="9.054686">
        <ele>316.644176</ele>
        <time>2026-05-02T11:31:45.560Z</time>
      </trkpt>
      <trkpt lat="45.688078" lon="9.054649">
        <ele>316.481244</ele>
        <time>2026-05-02T11:31:47.562Z</time>
      </trkpt>
      <trkpt lat="45.687971" lon="9.054633">
        <ele>316.304933</ele>
        <time>2026-05-02T11:31:49.567Z</time>
      </trkpt>
      <trkpt lat="45.687865" lon="9.054626">
        <ele>316.131030</ele>
        <time>2026-05-02T11:31:51.560Z</time>
      </trkpt>
      <trkpt lat="45.687757" lon="9.054621">
        <ele>315.953942</ele>
        <time>2026-05-02T11:31:53.566Z</time>
      </trkpt>
      <trkpt lat="45.687649" lon="9.054616">
        <ele>315.776853</ele>
        <time>2026-05-02T11:31:55.567Z</time>
      </trkpt>
      <trkpt lat="45.687540" lon="9.054606">
        <ele>315.597852</ele>
        <time>2026-05-02T11:31:57.556Z</time>
      </trkpt>
      <trkpt lat="45.687433" lon="9.054600">
        <ele>315.422360</ele>
        <time>2026-05-02T11:31:59.561Z</time>
      </trkpt>
      <trkpt lat="45.687329" lon="9.054595">
        <ele>315.251824</ele>
        <time>2026-05-02T11:32:01.567Z</time>
      </trkpt>
      <trkpt lat="45.687227" lon="9.054589">
        <ele>315.084520</ele>
        <time>2026-05-02T11:32:03.565Z</time>
      </trkpt>
      <trkpt lat="45.687122" lon="9.054580">
        <ele>314.912132</ele>
        <time>2026-05-02T11:32:05.567Z</time>
      </trkpt>
      <trkpt lat="45.687022" lon="9.054574">
        <ele>314.748104</ele>
        <time>2026-05-02T11:32:07.560Z</time>
      </trkpt>
      <trkpt lat="45.686917" lon="9.054567">
        <ele>314.575838</ele>
        <time>2026-05-02T11:32:09.566Z</time>
      </trkpt>
      <trkpt lat="45.686804" lon="9.054561">
        <ele>314.390520</ele>
        <time>2026-05-02T11:32:11.560Z</time>
      </trkpt>
      <trkpt lat="45.686693" lon="9.054557">
        <ele>314.210400</ele>
        <time>2026-05-02T11:32:13.563Z</time>
      </trkpt>
      <trkpt lat="45.686585" lon="9.054548">
        <ele>314.041971</ele>
        <time>2026-05-02T11:32:15.564Z</time>
      </trkpt>
      <trkpt lat="45.686472" lon="9.054546">
        <ele>313.866029</ele>
        <time>2026-05-02T11:32:17.563Z</time>
      </trkpt>
      <trkpt lat="45.686357" lon="9.054537">
        <ele>313.686718</ele>
        <time>2026-05-02T11:32:19.565Z</time>
      </trkpt>
      <trkpt lat="45.686238" lon="9.054527">
        <ele>313.501129</ele>
        <time>2026-05-02T11:32:21.564Z</time>
      </trkpt>
      <trkpt lat="45.686122" lon="9.054523">
        <ele>313.320477</ele>
        <time>2026-05-02T11:32:23.564Z</time>
      </trkpt>
      <trkpt lat="45.686006" lon="9.054517">
        <ele>313.139759</ele>
        <time>2026-05-02T11:32:25.563Z</time>
      </trkpt>
      <trkpt lat="45.685894" lon="9.054508">
        <ele>312.965112</ele>
        <time>2026-05-02T11:32:27.566Z</time>
      </trkpt>
      <trkpt lat="45.685786" lon="9.054502">
        <ele>312.796841</ele>
        <time>2026-05-02T11:32:29.561Z</time>
      </trkpt>
      <trkpt lat="45.685681" lon="9.054495">
        <ele>312.633190</ele>
        <time>2026-05-02T11:32:31.564Z</time>
      </trkpt>
      <trkpt lat="45.685578" lon="9.054490">
        <ele>312.472737</ele>
        <time>2026-05-02T11:32:33.557Z</time>
      </trkpt>
      <trkpt lat="45.685482" lon="9.054489">
        <ele>312.323272</ele>
        <time>2026-05-02T11:32:35.563Z</time>
      </trkpt>
      <trkpt lat="45.685387" lon="9.054479">
        <ele>312.174967</ele>
        <time>2026-05-02T11:32:37.558Z</time>
      </trkpt>
      <trkpt lat="45.685295" lon="9.054469">
        <ele>312.031321</ele>
        <time>2026-05-02T11:32:39.559Z</time>
      </trkpt>
      <trkpt lat="45.685198" lon="9.054461">
        <ele>311.880051</ele>
        <time>2026-05-02T11:32:41.563Z</time>
      </trkpt>
      <trkpt lat="45.685102" lon="9.054457">
        <ele>311.730526</ele>
        <time>2026-05-02T11:32:43.564Z</time>
      </trkpt>
      <trkpt lat="45.685006" lon="9.054448">
        <ele>311.580744</ele>
        <time>2026-05-02T11:32:45.565Z</time>
      </trkpt>
      <trkpt lat="45.684902" lon="9.054439">
        <ele>311.425933</ele>
        <time>2026-05-02T11:32:47.564Z</time>
      </trkpt>
      <trkpt lat="45.684790" lon="9.054437">
        <ele>311.299849</ele>
        <time>2026-05-02T11:32:49.564Z</time>
      </trkpt>
      <trkpt lat="45.684675" lon="9.054430">
        <ele>311.170281</ele>
        <time>2026-05-02T11:32:51.564Z</time>
      </trkpt>
      <trkpt lat="45.684560" lon="9.054420">
        <ele>311.040592</ele>
        <time>2026-05-02T11:32:53.566Z</time>
      </trkpt>
      <trkpt lat="45.684443" lon="9.054410">
        <ele>310.908655</ele>
        <time>2026-05-02T11:32:55.565Z</time>
      </trkpt>
      <trkpt lat="45.684326" lon="9.054400">
        <ele>310.776718</ele>
        <time>2026-05-02T11:32:57.564Z</time>
      </trkpt>
      <trkpt lat="45.684215" lon="9.054394">
        <ele>310.651681</ele>
        <time>2026-05-02T11:32:59.564Z</time>
      </trkpt>
      <trkpt lat="45.684111" lon="9.054393">
        <ele>310.534609</ele>
        <time>2026-05-02T11:33:01.557Z</time>
      </trkpt>
      <trkpt lat="45.684005" lon="9.054388">
        <ele>310.415225</ele>
        <time>2026-05-02T11:33:03.565Z</time>
      </trkpt>
      <trkpt lat="45.683893" lon="9.054393">
        <ele>310.289089</ele>
        <time>2026-05-02T11:33:05.564Z</time>
      </trkpt>
      <trkpt lat="45.683779" lon="9.054418">
        <ele>310.159267</ele>
        <time>2026-05-02T11:33:07.566Z</time>
      </trkpt>
      <trkpt lat="45.683667" lon="9.054448">
        <ele>310.031004</ele>
        <time>2026-05-02T11:33:09.562Z</time>
      </trkpt>
      <trkpt lat="45.683560" lon="9.054489">
        <ele>309.906318</ele>
        <time>2026-05-02T11:33:11.563Z</time>
      </trkpt>
      <trkpt lat="45.683453" lon="9.054528">
        <ele>309.782029</ele>
        <time>2026-05-02T11:33:13.566Z</time>
      </trkpt>
      <trkpt lat="45.683349" lon="9.054574">
        <ele>309.659498</ele>
        <time>2026-05-02T11:33:15.564Z</time>
      </trkpt>
      <trkpt lat="45.683241" lon="9.054608">
        <ele>309.535021</ele>
        <time>2026-05-02T11:33:17.560Z</time>
      </trkpt>
      <trkpt lat="45.683129" lon="9.054652">
        <ele>309.408710</ele>
        <time>2026-05-02T11:33:19.571Z</time>
      </trkpt>
      <trkpt lat="45.683013" lon="9.054692">
        <ele>309.310846</ele>
        <time>2026-05-02T11:33:21.567Z</time>
      </trkpt>
      <trkpt lat="45.682896" lon="9.054725">
        <ele>309.213038</ele>
        <time>2026-05-02T11:33:23.560Z</time>
      </trkpt>
      <trkpt lat="45.682774" lon="9.054741">
        <ele>309.112556</ele>
        <time>2026-05-02T11:33:25.564Z</time>
      </trkpt>
      <trkpt lat="45.682656" lon="9.054745">
        <ele>309.015746</ele>
        <time>2026-05-02T11:33:27.570Z</time>
      </trkpt>
      <trkpt lat="45.682540" lon="9.054745">
        <ele>308.920604</ele>
        <time>2026-05-02T11:33:29.564Z</time>
      </trkpt>
      <trkpt lat="45.682429" lon="9.054748">
        <ele>308.829546</ele>
        <time>2026-05-02T11:33:31.563Z</time>
      </trkpt>
      <trkpt lat="45.682318" lon="9.054744">
        <ele>308.738476</ele>
        <time>2026-05-02T11:33:33.570Z</time>
      </trkpt>
      <trkpt lat="45.682205" lon="9.054746">
        <ele>308.645787</ele>
        <time>2026-05-02T11:33:35.564Z</time>
      </trkpt>
      <trkpt lat="45.682092" lon="9.054751">
        <ele>308.553061</ele>
        <time>2026-05-02T11:33:37.564Z</time>
      </trkpt>
      <trkpt lat="45.681975" lon="9.054753">
        <ele>308.457092</ele>
        <time>2026-05-02T11:33:39.566Z</time>
      </trkpt>
      <trkpt lat="45.681859" lon="9.054752">
        <ele>308.361948</ele>
        <time>2026-05-02T11:33:41.562Z</time>
      </trkpt>
      <trkpt lat="45.681744" lon="9.054748">
        <ele>308.267598</ele>
        <time>2026-05-02T11:33:43.559Z</time>
      </trkpt>
      <trkpt lat="45.681633" lon="9.054753">
        <ele>308.176512</ele>
        <time>2026-05-02T11:33:45.567Z</time>
      </trkpt>
      <trkpt lat="45.681525" lon="9.054750">
        <ele>308.087914</ele>
        <time>2026-05-02T11:33:47.567Z</time>
      </trkpt>
      <trkpt lat="45.681418" lon="9.054749">
        <ele>308.000152</ele>
        <time>2026-05-02T11:33:49.571Z</time>
      </trkpt>
      <trkpt lat="45.681309" lon="9.054754">
        <ele>307.928440</ele>
        <time>2026-05-02T11:33:51.562Z</time>
      </trkpt>
      <trkpt lat="45.681201" lon="9.054759">
        <ele>307.885170</ele>
        <time>2026-05-02T11:33:53.570Z</time>
      </trkpt>
      <trkpt lat="45.681097" lon="9.054759">
        <ele>307.843524</ele>
        <time>2026-05-02T11:33:55.562Z</time>
      </trkpt>
      <trkpt lat="45.680992" lon="9.054762">
        <ele>307.801470</ele>
        <time>2026-05-02T11:33:57.564Z</time>
      </trkpt>
      <trkpt lat="45.680883" lon="9.054762">
        <ele>307.757822</ele>
        <time>2026-05-02T11:33:59.571Z</time>
      </trkpt>
      <trkpt lat="45.680777" lon="9.054757">
        <ele>307.715352</ele>
        <time>2026-05-02T11:34:01.562Z</time>
      </trkpt>
      <trkpt lat="45.680670" lon="9.054750">
        <ele>307.672460</ele>
        <time>2026-05-02T11:34:03.568Z</time>
      </trkpt>
      <trkpt lat="45.680566" lon="9.054735">
        <ele>307.630603</ele>
        <time>2026-05-02T11:34:05.559Z</time>
      </trkpt>
      <trkpt lat="45.680459" lon="9.054709">
        <ele>307.587143</ele>
        <time>2026-05-02T11:34:07.560Z</time>
      </trkpt>
      <trkpt lat="45.680354" lon="9.054668">
        <ele>307.543560</ele>
        <time>2026-05-02T11:34:09.564Z</time>
      </trkpt>
      <trkpt lat="45.680252" lon="9.054602">
        <ele>307.498736</ele>
        <time>2026-05-02T11:34:11.563Z</time>
      </trkpt>
      <trkpt lat="45.680165" lon="9.054502">
        <ele>307.454054</ele>
        <time>2026-05-02T11:34:13.570Z</time>
      </trkpt>
      <trkpt lat="45.680114" lon="9.054367">
        <ele>307.411117</ele>
        <time>2026-05-02T11:34:15.564Z</time>
      </trkpt>
      <trkpt lat="45.680058" lon="9.054255">
        <ele>307.372585</ele>
        <time>2026-05-02T11:34:17.561Z</time>
      </trkpt>
      <trkpt lat="45.679969" lon="9.054200">
        <ele>307.333766</ele>
        <time>2026-05-02T11:34:19.561Z</time>
      </trkpt>
      <trkpt lat="45.679868" lon="9.054233">
        <ele>307.292281</ele>
        <time>2026-05-02T11:34:21.571Z</time>
      </trkpt>
      <trkpt lat="45.679778" lon="9.054304">
        <ele>307.251129</ele>
        <time>2026-05-02T11:34:23.562Z</time>
      </trkpt>
      <trkpt lat="45.679689" lon="9.054374">
        <ele>307.171851</ele>
        <time>2026-05-02T11:34:25.563Z</time>
      </trkpt>
      <trkpt lat="45.679595" lon="9.054450">
        <ele>307.014645</ele>
        <time>2026-05-02T11:34:27.564Z</time>
      </trkpt>
      <trkpt lat="45.679508" lon="9.054539">
        <ele>306.858930</ele>
        <time>2026-05-02T11:34:29.566Z</time>
      </trkpt>
      <trkpt lat="45.679425" lon="9.054628">
        <ele>306.707915</ele>
        <time>2026-05-02T11:34:31.562Z</time>
      </trkpt>
      <trkpt lat="45.679337" lon="9.054703">
        <ele>306.558778</ele>
        <time>2026-05-02T11:34:33.564Z</time>
      </trkpt>
      <trkpt lat="45.679246" lon="9.054750">
        <ele>306.417906</ele>
        <time>2026-05-02T11:34:35.571Z</time>
      </trkpt>
      <trkpt lat="45.679152" lon="9.054788">
        <ele>306.275674</ele>
        <time>2026-05-02T11:34:37.562Z</time>
      </trkpt>
      <trkpt lat="45.679056" lon="9.054809">
        <ele>306.134261</ele>
        <time>2026-05-02T11:34:39.559Z</time>
      </trkpt>
      <trkpt lat="45.678956" lon="9.054825">
        <ele>305.987740</ele>
        <time>2026-05-02T11:34:41.569Z</time>
      </trkpt>
      <trkpt lat="45.678853" lon="9.054838">
        <ele>305.837176</ele>
        <time>2026-05-02T11:34:43.563Z</time>
      </trkpt>
      <trkpt lat="45.678753" lon="9.054851">
        <ele>305.690963</ele>
        <time>2026-05-02T11:34:45.560Z</time>
      </trkpt>
      <trkpt lat="45.678643" lon="9.054867">
        <ele>305.529962</ele>
        <time>2026-05-02T11:34:47.558Z</time>
      </trkpt>
      <trkpt lat="45.678534" lon="9.054875">
        <ele>305.371035</ele>
        <time>2026-05-02T11:34:49.565Z</time>
      </trkpt>
      <trkpt lat="45.678423" lon="9.054884">
        <ele>305.209144</ele>
        <time>2026-05-02T11:34:51.562Z</time>
      </trkpt>
      <trkpt lat="45.678313" lon="9.054882">
        <ele>305.048956</ele>
        <time>2026-05-02T11:34:53.566Z</time>
      </trkpt>
      <trkpt lat="45.678200" lon="9.054854">
        <ele>304.881964</ele>
        <time>2026-05-02T11:34:55.564Z</time>
      </trkpt>
      <trkpt lat="45.678081" lon="9.054814">
        <ele>304.703969</ele>
        <time>2026-05-02T11:34:57.560Z</time>
      </trkpt>
      <trkpt lat="45.677958" lon="9.054763">
        <ele>304.447257</ele>
        <time>2026-05-02T11:34:59.565Z</time>
      </trkpt>
      <trkpt lat="45.677830" lon="9.054711">
        <ele>304.099792</ele>
        <time>2026-05-02T11:35:01.562Z</time>
      </trkpt>
      <trkpt lat="45.677700" lon="9.054659">
        <ele>303.747299</ele>
        <time>2026-05-02T11:35:03.564Z</time>
      </trkpt>
      <trkpt lat="45.677566" lon="9.054617">
        <ele>303.389077</ele>
        <time>2026-05-02T11:35:05.564Z</time>
      </trkpt>
      <trkpt lat="45.677436" lon="9.054578">
        <ele>303.042216</ele>
        <time>2026-05-02T11:35:07.564Z</time>
      </trkpt>
      <trkpt lat="45.677307" lon="9.054543">
        <ele>302.699344</ele>
        <time>2026-05-02T11:35:09.564Z</time>
      </trkpt>
      <trkpt lat="45.677180" lon="9.054506">
        <ele>302.360894</ele>
        <time>2026-05-02T11:35:11.563Z</time>
      </trkpt>
      <trkpt lat="45.677055" lon="9.054470">
        <ele>302.027924</ele>
        <time>2026-05-02T11:35:13.560Z</time>
      </trkpt>
      <trkpt lat="45.676933" lon="9.054438">
        <ele>301.704026</ele>
        <time>2026-05-02T11:35:15.563Z</time>
      </trkpt>
      <trkpt lat="45.676814" lon="9.054404">
        <ele>301.387136</ele>
        <time>2026-05-02T11:35:17.559Z</time>
      </trkpt>
      <trkpt lat="45.676695" lon="9.054365">
        <ele>301.068334</ele>
        <time>2026-05-02T11:35:19.563Z</time>
      </trkpt>
      <trkpt lat="45.676577" lon="9.054328">
        <ele>300.752879</ele>
        <time>2026-05-02T11:35:21.558Z</time>
      </trkpt>
      <trkpt lat="45.676458" lon="9.054293">
        <ele>300.435627</ele>
        <time>2026-05-02T11:35:23.574Z</time>
      </trkpt>
      <trkpt lat="45.676340" lon="9.054262">
        <ele>300.122332</ele>
        <time>2026-05-02T11:35:25.561Z</time>
      </trkpt>
      <trkpt lat="45.676225" lon="9.054236">
        <ele>299.860463</ele>
        <time>2026-05-02T11:35:27.562Z</time>
      </trkpt>
      <trkpt lat="45.676108" lon="9.054219">
        <ele>299.696072</ele>
        <time>2026-05-02T11:35:29.557Z</time>
      </trkpt>
      <trkpt lat="45.675990" lon="9.054192">
        <ele>299.529029</ele>
        <time>2026-05-02T11:35:31.561Z</time>
      </trkpt>
      <trkpt lat="45.675874" lon="9.054164">
        <ele>299.364587</ele>
        <time>2026-05-02T11:35:33.563Z</time>
      </trkpt>
      <trkpt lat="45.675756" lon="9.054149">
        <ele>299.198989</ele>
        <time>2026-05-02T11:35:35.560Z</time>
      </trkpt>
      <trkpt lat="45.675637" lon="9.054137">
        <ele>299.032231</ele>
        <time>2026-05-02T11:35:37.559Z</time>
      </trkpt>
      <trkpt lat="45.675519" lon="9.054127">
        <ele>298.866994</ele>
        <time>2026-05-02T11:35:39.561Z</time>
      </trkpt>
      <trkpt lat="45.675404" lon="9.054110">
        <ele>298.705384</ele>
        <time>2026-05-02T11:35:41.562Z</time>
      </trkpt>
      <trkpt lat="45.675287" lon="9.054101">
        <ele>298.541598</ele>
        <time>2026-05-02T11:35:43.560Z</time>
      </trkpt>
      <trkpt lat="45.675174" lon="9.054091">
        <ele>298.383337</ele>
        <time>2026-05-02T11:35:45.566Z</time>
      </trkpt>
      <trkpt lat="45.675061" lon="9.054074">
        <ele>298.224508</ele>
        <time>2026-05-02T11:35:47.560Z</time>
      </trkpt>
      <trkpt lat="45.674951" lon="9.054065">
        <ele>298.070491</ele>
        <time>2026-05-02T11:35:49.566Z</time>
      </trkpt>
      <trkpt lat="45.674840" lon="9.054051">
        <ele>297.914727</ele>
        <time>2026-05-02T11:35:51.565Z</time>
      </trkpt>
      <trkpt lat="45.674728" lon="9.054040">
        <ele>297.757798</ele>
        <time>2026-05-02T11:35:53.560Z</time>
      </trkpt>
      <trkpt lat="45.674615" lon="9.054029">
        <ele>297.599474</ele>
        <time>2026-05-02T11:35:55.562Z</time>
      </trkpt>
      <trkpt lat="45.674502" lon="9.054019">
        <ele>297.441213</ele>
        <time>2026-05-02T11:35:57.563Z</time>
      </trkpt>
      <trkpt lat="45.674391" lon="9.054007">
        <ele>297.342233</ele>
        <time>2026-05-02T11:35:59.560Z</time>
      </trkpt>
      <trkpt lat="45.674285" lon="9.053999">
        <ele>297.270818</ele>
        <time>2026-05-02T11:36:01.562Z</time>
      </trkpt>
      <trkpt lat="45.674185" lon="9.053990">
        <ele>297.203406</ele>
        <time>2026-05-02T11:36:03.561Z</time>
      </trkpt>
      <trkpt lat="45.674082" lon="9.053980">
        <ele>297.133950</ele>
        <time>2026-05-02T11:36:05.564Z</time>
      </trkpt>
      <trkpt lat="45.673980" lon="9.053972">
        <ele>297.065223</ele>
        <time>2026-05-02T11:36:07.561Z</time>
      </trkpt>
      <trkpt lat="45.673876" lon="9.053956">
        <ele>296.994849</ele>
        <time>2026-05-02T11:36:09.562Z</time>
      </trkpt>
      <trkpt lat="45.673775" lon="9.053950">
        <ele>296.926839</ele>
        <time>2026-05-02T11:36:11.563Z</time>
      </trkpt>
      <trkpt lat="45.673670" lon="9.053938">
        <ele>296.855972</ele>
        <time>2026-05-02T11:36:13.568Z</time>
      </trkpt>
      <trkpt lat="45.673567" lon="9.053928">
        <ele>296.786515</ele>
        <time>2026-05-02T11:36:15.559Z</time>
      </trkpt>
      <trkpt lat="45.673464" lon="9.053911">
        <ele>296.716759</ele>
        <time>2026-05-02T11:36:17.561Z</time>
      </trkpt>
      <trkpt lat="45.673360" lon="9.053897">
        <ele>296.646480</ele>
        <time>2026-05-02T11:36:19.562Z</time>
      </trkpt>
      <trkpt lat="45.673258" lon="9.053862">
        <ele>296.575911</ele>
        <time>2026-05-02T11:36:21.563Z</time>
      </trkpt>
      <trkpt lat="45.673163" lon="9.053820">
        <ele>296.509016</ele>
        <time>2026-05-02T11:36:23.562Z</time>
      </trkpt>
      <trkpt lat="45.673090" lon="9.053732">
        <ele>296.444800</ele>
        <time>2026-05-02T11:36:25.567Z</time>
      </trkpt>
      <trkpt lat="45.672959" lon="9.053716">
        <ele>296.356345</ele>
        <time>2026-05-02T11:36:28.555Z</time>
      </trkpt>
      <trkpt lat="45.672876" lon="9.053776">
        <ele>296.293784</ele>
        <time>2026-05-02T11:36:30.566Z</time>
      </trkpt>
      <trkpt lat="45.672779" lon="9.053809">
        <ele>296.226705</ele>
        <time>2026-05-02T11:36:32.571Z</time>
      </trkpt>
      <trkpt lat="45.672676" lon="9.053822">
        <ele>296.157818</ele>
        <time>2026-05-02T11:36:34.563Z</time>
      </trkpt>
      <trkpt lat="45.672576" lon="9.053831">
        <ele>296.092070</ele>
        <time>2026-05-02T11:36:36.559Z</time>
      </trkpt>
      <trkpt lat="45.672472" lon="9.053824">
        <ele>296.023751</ele>
        <time>2026-05-02T11:36:38.567Z</time>
      </trkpt>
      <trkpt lat="45.672367" lon="9.053809">
        <ele>295.954510</ele>
        <time>2026-05-02T11:36:40.561Z</time>
      </trkpt>
      <trkpt lat="45.672265" lon="9.053797">
        <ele>295.887353</ele>
        <time>2026-05-02T11:36:42.566Z</time>
      </trkpt>
      <trkpt lat="45.672159" lon="9.053783">
        <ele>295.817502</ele>
        <time>2026-05-02T11:36:44.567Z</time>
      </trkpt>
      <trkpt lat="45.672047" lon="9.053770">
        <ele>295.743768</ele>
        <time>2026-05-02T11:36:46.561Z</time>
      </trkpt>
      <trkpt lat="45.671934" lon="9.053761">
        <ele>295.669504</ele>
        <time>2026-05-02T11:36:48.561Z</time>
      </trkpt>
      <trkpt lat="45.671824" lon="9.053752">
        <ele>295.597206</ele>
        <time>2026-05-02T11:36:50.565Z</time>
      </trkpt>
      <trkpt lat="45.671719" lon="9.053737">
        <ele>295.527964</ele>
        <time>2026-05-02T11:36:52.564Z</time>
      </trkpt>
      <trkpt lat="45.671616" lon="9.053721">
        <ele>295.459980</ele>
        <time>2026-05-02T11:36:54.564Z</time>
      </trkpt>
      <trkpt lat="45.671509" lon="9.053708">
        <ele>295.389516</ele>
        <time>2026-05-02T11:36:56.563Z</time>
      </trkpt>
      <trkpt lat="45.671399" lon="9.053694">
        <ele>295.317051</ele>
        <time>2026-05-02T11:36:58.562Z</time>
      </trkpt>
      <trkpt lat="45.671295" lon="9.053681">
        <ele>295.248548</ele>
        <time>2026-05-02T11:37:00.562Z</time>
      </trkpt>
      <trkpt lat="45.671191" lon="9.053673">
        <ele>295.180206</ele>
        <time>2026-05-02T11:37:02.563Z</time>
      </trkpt>
      <trkpt lat="45.671085" lon="9.053664">
        <ele>295.110528</ele>
        <time>2026-05-02T11:37:04.562Z</time>
      </trkpt>
      <trkpt lat="45.670977" lon="9.053653">
        <ele>295.039481</ele>
        <time>2026-05-02T11:37:06.560Z</time>
      </trkpt>
      <trkpt lat="45.670872" lon="9.053647">
        <ele>294.927799</ele>
        <time>2026-05-02T11:37:08.569Z</time>
      </trkpt>
      <trkpt lat="45.670772" lon="9.053636">
        <ele>294.779036</ele>
        <time>2026-05-02T11:37:10.561Z</time>
      </trkpt>
      <trkpt lat="45.670666" lon="9.053623">
        <ele>294.621235</ele>
        <time>2026-05-02T11:37:12.564Z</time>
      </trkpt>
      <trkpt lat="45.670558" lon="9.053608">
        <ele>294.460292</ele>
        <time>2026-05-02T11:37:14.561Z</time>
      </trkpt>
      <trkpt lat="45.670447" lon="9.053595">
        <ele>294.295100</ele>
        <time>2026-05-02T11:37:16.563Z</time>
      </trkpt>
      <trkpt lat="45.670336" lon="9.053581">
        <ele>294.129821</ele>
        <time>2026-05-02T11:37:18.556Z</time>
      </trkpt>
      <trkpt lat="45.670228" lon="9.053574">
        <ele>293.969466</ele>
        <time>2026-05-02T11:37:20.564Z</time>
      </trkpt>
      <trkpt lat="45.670119" lon="9.053567">
        <ele>293.807629</ele>
        <time>2026-05-02T11:37:22.560Z</time>
      </trkpt>
      <trkpt lat="45.670015" lon="9.053566">
        <ele>293.653367</ele>
        <time>2026-05-02T11:37:24.567Z</time>
      </trkpt>
      <trkpt lat="45.669915" lon="9.053575">
        <ele>293.504749</ele>
        <time>2026-05-02T11:37:26.565Z</time>
      </trkpt>
      <trkpt lat="45.669816" lon="9.053583">
        <ele>293.357673</ele>
        <time>2026-05-02T11:37:28.565Z</time>
      </trkpt>
      <trkpt lat="45.669717" lon="9.053589">
        <ele>293.210700</ele>
        <time>2026-05-02T11:37:30.558Z</time>
      </trkpt>
      <trkpt lat="45.669615" lon="9.053593">
        <ele>293.059351</ele>
        <time>2026-05-02T11:37:32.562Z</time>
      </trkpt>
      <trkpt lat="45.669519" lon="9.053599">
        <ele>292.916823</ele>
        <time>2026-05-02T11:37:34.564Z</time>
      </trkpt>
      <trkpt lat="45.669423" lon="9.053612">
        <ele>292.773795</ele>
        <time>2026-05-02T11:37:36.564Z</time>
      </trkpt>
      <trkpt lat="45.669328" lon="9.053642">
        <ele>292.629496</ele>
        <time>2026-05-02T11:37:38.561Z</time>
      </trkpt>
      <trkpt lat="45.669242" lon="9.053681">
        <ele>292.495685</ele>
        <time>2026-05-02T11:37:40.564Z</time>
      </trkpt>
      <trkpt lat="45.669115" lon="9.053744">
        <ele>292.375101</ele>
        <time>2026-05-02T11:37:43.568Z</time>
      </trkpt>
      <trkpt lat="45.669027" lon="9.053792">
        <ele>292.508689</ele>
        <time>2026-05-02T11:37:45.565Z</time>
      </trkpt>
      <trkpt lat="45.668944" lon="9.053845">
        <ele>292.637615</ele>
        <time>2026-05-02T11:37:47.569Z</time>
      </trkpt>
      <trkpt lat="45.668856" lon="9.053893">
        <ele>292.771203</ele>
        <time>2026-05-02T11:37:49.564Z</time>
      </trkpt>
      <trkpt lat="45.668732" lon="9.053965">
        <ele>292.961025</ele>
        <time>2026-05-02T11:37:52.564Z</time>
      </trkpt>
      <trkpt lat="45.668648" lon="9.054017">
        <ele>293.090851</ele>
        <time>2026-05-02T11:37:54.571Z</time>
      </trkpt>
      <trkpt lat="45.668563" lon="9.054062">
        <ele>293.219410</ele>
        <time>2026-05-02T11:37:56.569Z</time>
      </trkpt>
      <trkpt lat="45.668477" lon="9.054107">
        <ele>293.349301</ele>
        <time>2026-05-02T11:37:58.569Z</time>
      </trkpt>
      <trkpt lat="45.668385" lon="9.054077">
        <ele>293.483148</ele>
        <time>2026-05-02T11:38:01.561Z</time>
      </trkpt>
      <trkpt lat="45.668370" lon="9.053931">
        <ele>293.629428</ele>
        <time>2026-05-02T11:38:05.564Z</time>
      </trkpt>
      <trkpt lat="45.668351" lon="9.053800">
        <ele>293.762051</ele>
        <time>2026-05-02T11:38:09.562Z</time>
      </trkpt>
      <trkpt lat="45.668402" lon="9.053690">
        <ele>293.892906</ele>
        <time>2026-05-02T11:38:14.567Z</time>
      </trkpt>
      <trkpt lat="45.668457" lon="9.053586">
        <ele>294.022191</ele>
        <time>2026-05-02T11:38:19.557Z</time>
      </trkpt>
      <trkpt lat="45.668514" lon="9.053484">
        <ele>294.151652</ele>
        <time>2026-05-02T11:38:23.561Z</time>
      </trkpt>
      <trkpt lat="45.668573" lon="9.053369">
        <ele>294.293071</ele>
        <time>2026-05-02T11:38:27.565Z</time>
      </trkpt>
      <trkpt lat="45.668623" lon="9.053253">
        <ele>294.428171</ele>
        <time>2026-05-02T11:38:32.567Z</time>
      </trkpt>
      <trkpt lat="45.668565" lon="9.053140">
        <ele>294.567152</ele>
        <time>2026-05-02T11:38:37.560Z</time>
      </trkpt>
      <trkpt lat="45.668524" lon="9.052955">
        <ele>294.759536</ele>
        <time>2026-05-02T11:40:36.563Z</time>
      </trkpt>
      <trkpt lat="45.668557" lon="9.052807">
        <ele>294.844137</ele>
        <time>2026-05-02T11:40:41.565Z</time>
      </trkpt>
      <trkpt lat="45.668620" lon="9.052711">
        <ele>294.620363</ele>
        <time>2026-05-02T11:40:45.572Z</time>
      </trkpt>
      <trkpt lat="45.668636" lon="9.052561">
        <ele>294.362534</ele>
        <time>2026-05-02T11:40:51.564Z</time>
      </trkpt>
      <trkpt lat="45.668538" lon="9.052512">
        <ele>294.110115</ele>
        <time>2026-05-02T11:40:57.558Z</time>
      </trkpt>
      <trkpt lat="45.668438" lon="9.052515">
        <ele>293.866907</ele>
        <time>2026-05-02T11:41:01.562Z</time>
      </trkpt>
      <trkpt lat="45.668330" lon="9.052534">
        <ele>293.602323</ele>
        <time>2026-05-02T11:41:05.561Z</time>
      </trkpt>
      <trkpt lat="45.668211" lon="9.052567">
        <ele>293.307587</ele>
        <time>2026-05-02T11:41:09.562Z</time>
      </trkpt>
      <trkpt lat="45.668123" lon="9.052600">
        <ele>293.086385</ele>
        <time>2026-05-02T11:41:12.562Z</time>
      </trkpt>
      <trkpt lat="45.668005" lon="9.052635">
        <ele>292.793364</ele>
        <time>2026-05-02T11:41:16.564Z</time>
      </trkpt>
      <trkpt lat="45.667916" lon="9.052612">
        <ele>292.573456</ele>
        <time>2026-05-02T11:41:20.561Z</time>
      </trkpt>
      <trkpt lat="45.667902" lon="9.052472">
        <ele>292.333144</ele>
        <time>2026-05-02T11:41:25.570Z</time>
      </trkpt>
      <trkpt lat="45.667901" lon="9.052342">
        <ele>292.112235</ele>
        <time>2026-05-02T11:41:28.562Z</time>
      </trkpt>
      <trkpt lat="45.667911" lon="9.052213">
        <ele>291.891693</ele>
        <time>2026-05-02T11:41:31.563Z</time>
      </trkpt>
      <trkpt lat="45.667897" lon="9.052053">
        <ele>291.617698</ele>
        <time>2026-05-02T11:41:35.557Z</time>
      </trkpt>
      <trkpt lat="45.667887" lon="9.051915">
        <ele>291.381950</ele>
        <time>2026-05-02T11:41:38.562Z</time>
      </trkpt>
      <trkpt lat="45.667891" lon="9.051771">
        <ele>291.137072</ele>
        <time>2026-05-02T11:41:42.564Z</time>
      </trkpt>
      <trkpt lat="45.667863" lon="9.051585">
        <ele>290.813770</ele>
        <time>2026-05-02T11:58:46.560Z</time>
      </trkpt>
      <trkpt lat="45.667872" lon="9.051452">
        <ele>290.586719</ele>
        <time>2026-05-02T11:58:51.565Z</time>
      </trkpt>
      <trkpt lat="45.667848" lon="9.051287">
        <ele>290.367630</ele>
        <time>2026-05-02T11:58:55.560Z</time>
      </trkpt>
      <trkpt lat="45.667842" lon="9.051156">
        <ele>290.214653</ele>
        <time>2026-05-02T11:58:58.564Z</time>
      </trkpt>
      <trkpt lat="45.667856" lon="9.050992">
        <ele>290.022129</ele>
        <time>2026-05-02T11:59:03.560Z</time>
      </trkpt>
      <trkpt lat="45.667848" lon="9.050838">
        <ele>289.842184</ele>
        <time>2026-05-02T11:59:07.556Z</time>
      </trkpt>
      <trkpt lat="45.667833" lon="9.050702">
        <ele>289.681746</ele>
        <time>2026-05-02T11:59:11.556Z</time>
      </trkpt>
      <trkpt lat="45.667827" lon="9.050571">
        <ele>289.528769</ele>
        <time>2026-05-02T11:59:15.568Z</time>
      </trkpt>
      <trkpt lat="45.667767" lon="9.050467">
        <ele>289.371619</ele>
        <time>2026-05-02T11:59:22.560Z</time>
      </trkpt>
      <trkpt lat="45.667667" lon="9.050419">
        <ele>289.195740</ele>
        <time>2026-05-02T11:59:26.564Z</time>
      </trkpt>
      <trkpt lat="45.667565" lon="9.050446">
        <ele>289.022771</ele>
        <time>2026-05-02T11:59:29.560Z</time>
      </trkpt>
      <trkpt lat="45.667462" lon="9.050484">
        <ele>288.845405</ele>
        <time>2026-05-02T11:59:32.560Z</time>
      </trkpt>
      <trkpt lat="45.667345" lon="9.050520">
        <ele>288.645850</ele>
        <time>2026-05-02T11:59:35.561Z</time>
      </trkpt>
      <trkpt lat="45.667218" lon="9.050545">
        <ele>288.432086</ele>
        <time>2026-05-02T11:59:38.558Z</time>
      </trkpt>
      <trkpt lat="45.667093" lon="9.050574">
        <ele>288.220929</ele>
        <time>2026-05-02T11:59:41.567Z</time>
      </trkpt>
      <trkpt lat="45.666978" lon="9.050610">
        <ele>288.024634</ele>
        <time>2026-05-02T11:59:44.563Z</time>
      </trkpt>
      <trkpt lat="45.666869" lon="9.050648">
        <ele>287.837562</ele>
        <time>2026-05-02T11:59:47.559Z</time>
      </trkpt>
      <trkpt lat="45.666763" lon="9.050686">
        <ele>287.655347</ele>
        <time>2026-05-02T11:59:50.558Z</time>
      </trkpt>
      <trkpt lat="45.666665" lon="9.050713">
        <ele>287.507220</ele>
        <time>2026-05-02T11:59:53.564Z</time>
      </trkpt>
      <trkpt lat="45.666568" lon="9.050745">
        <ele>287.456453</ele>
        <time>2026-05-02T11:59:56.558Z</time>
      </trkpt>
      <trkpt lat="45.666470" lon="9.050768">
        <ele>287.405806</ele>
        <time>2026-05-02T11:59:59.555Z</time>
      </trkpt>
      <trkpt lat="45.666398" lon="9.050875">
        <ele>287.352866</ele>
        <time>2026-05-02T12:00:02.562Z</time>
      </trkpt>
      <trkpt lat="45.666377" lon="9.051021">
        <ele>287.299740</ele>
        <time>2026-05-02T12:00:05.556Z</time>
      </trkpt>
      <trkpt lat="45.666273" lon="9.051071">
        <ele>287.243787</ele>
        <time>2026-05-02T12:00:09.555Z</time>
      </trkpt>
      <trkpt lat="45.666156" lon="9.051041">
        <ele>287.183167</ele>
        <time>2026-05-02T12:00:12.560Z</time>
      </trkpt>
      <trkpt lat="45.666028" lon="9.051032">
        <ele>287.117809</ele>
        <time>2026-05-02T12:00:15.562Z</time>
      </trkpt>
      <trkpt lat="45.665897" lon="9.051020">
        <ele>287.050863</ele>
        <time>2026-05-02T12:00:18.561Z</time>
      </trkpt>
      <trkpt lat="45.665804" lon="9.051011">
        <ele>287.003325</ele>
        <time>2026-05-02T12:00:20.560Z</time>
      </trkpt>
      <trkpt lat="45.665709" lon="9.050998">
        <ele>286.954654</ele>
        <time>2026-05-02T12:00:22.563Z</time>
      </trkpt>
      <trkpt lat="45.665614" lon="9.050987">
        <ele>286.906046</ele>
        <time>2026-05-02T12:00:24.562Z</time>
      </trkpt>
      <trkpt lat="45.665520" lon="9.050972">
        <ele>286.857809</ele>
        <time>2026-05-02T12:00:26.562Z</time>
      </trkpt>
      <trkpt lat="45.665386" lon="9.050967">
        <ele>286.789447</ele>
        <time>2026-05-02T12:00:29.563Z</time>
      </trkpt>
      <trkpt lat="45.665294" lon="9.050970">
        <ele>286.742515</ele>
        <time>2026-05-02T12:00:31.574Z</time>
      </trkpt>
      <trkpt lat="45.665199" lon="9.050964">
        <ele>286.694018</ele>
        <time>2026-05-02T12:00:33.564Z</time>
      </trkpt>
      <trkpt lat="45.665063" lon="9.050954">
        <ele>286.624567</ele>
        <time>2026-05-02T12:00:36.554Z</time>
      </trkpt>
      <trkpt lat="45.664965" lon="9.050945">
        <ele>286.583601</ele>
        <time>2026-05-02T12:00:38.559Z</time>
      </trkpt>
      <trkpt lat="45.664867" lon="9.050934">
        <ele>286.552921</ele>
        <time>2026-05-02T12:00:40.559Z</time>
      </trkpt>
      <trkpt lat="45.664768" lon="9.050925">
        <ele>286.521961</ele>
        <time>2026-05-02T12:00:42.567Z</time>
      </trkpt>
      <trkpt lat="45.664672" lon="9.050913">
        <ele>286.491885</ele>
        <time>2026-05-02T12:00:44.564Z</time>
      </trkpt>
      <trkpt lat="45.664578" lon="9.050900">
        <ele>286.462411</ele>
        <time>2026-05-02T12:00:46.561Z</time>
      </trkpt>
      <trkpt lat="45.664485" lon="9.050903">
        <ele>286.433379</ele>
        <time>2026-05-02T12:00:48.561Z</time>
      </trkpt>
      <trkpt lat="45.664390" lon="9.050906">
        <ele>286.403722</ele>
        <time>2026-05-02T12:00:50.562Z</time>
      </trkpt>
      <trkpt lat="45.664297" lon="9.050902">
        <ele>286.374684</ele>
        <time>2026-05-02T12:00:52.562Z</time>
      </trkpt>
      <trkpt lat="45.664204" lon="9.050904">
        <ele>286.345655</ele>
        <time>2026-05-02T12:00:54.561Z</time>
      </trkpt>
      <trkpt lat="45.664074" lon="9.050896">
        <ele>286.305045</ele>
        <time>2026-05-02T12:00:57.560Z</time>
      </trkpt>
      <trkpt lat="45.663982" lon="9.050886">
        <ele>286.276249</ele>
        <time>2026-05-02T12:00:59.564Z</time>
      </trkpt>
      <trkpt lat="45.663888" lon="9.050882">
        <ele>286.246899</ele>
        <time>2026-05-02T12:01:01.563Z</time>
      </trkpt>
      <trkpt lat="45.663790" lon="9.050873">
        <ele>286.216250</ele>
        <time>2026-05-02T12:01:03.563Z</time>
      </trkpt>
      <trkpt lat="45.663690" lon="9.050859">
        <ele>286.184891</ele>
        <time>2026-05-02T12:01:05.568Z</time>
      </trkpt>
      <trkpt lat="45.663593" lon="9.050853">
        <ele>286.154589</ele>
        <time>2026-05-02T12:01:07.562Z</time>
      </trkpt>
      <trkpt lat="45.663498" lon="9.050850">
        <ele>286.124932</ele>
        <time>2026-05-02T12:01:09.556Z</time>
      </trkpt>
      <trkpt lat="45.663404" lon="9.050848">
        <ele>286.095592</ele>
        <time>2026-05-02T12:01:11.562Z</time>
      </trkpt>
      <trkpt lat="45.663312" lon="9.050847">
        <ele>286.066878</ele>
        <time>2026-05-02T12:01:13.560Z</time>
      </trkpt>
      <trkpt lat="45.663218" lon="9.050846">
        <ele>286.037540</ele>
        <time>2026-05-02T12:01:15.568Z</time>
      </trkpt>
      <trkpt lat="45.663120" lon="9.050849">
        <ele>285.990632</ele>
        <time>2026-05-02T12:01:17.563Z</time>
      </trkpt>
      <trkpt lat="45.663026" lon="9.050857">
        <ele>285.945084</ele>
        <time>2026-05-02T12:01:19.559Z</time>
      </trkpt>
      <trkpt lat="45.662927" lon="9.050870">
        <ele>285.896997</ele>
        <time>2026-05-02T12:01:21.566Z</time>
      </trkpt>
      <trkpt lat="45.662830" lon="9.050876">
        <ele>285.850035</ele>
        <time>2026-05-02T12:01:23.558Z</time>
      </trkpt>
      <trkpt lat="45.662736" lon="9.050866">
        <ele>285.804443</ele>
        <time>2026-05-02T12:01:25.563Z</time>
      </trkpt>
      <trkpt lat="45.662637" lon="9.050868">
        <ele>285.756552</ele>
        <time>2026-05-02T12:01:27.558Z</time>
      </trkpt>
      <trkpt lat="45.662536" lon="9.050866">
        <ele>285.707694</ele>
        <time>2026-05-02T12:01:29.558Z</time>
      </trkpt>
      <trkpt lat="45.662442" lon="9.050855">
        <ele>285.662075</ele>
        <time>2026-05-02T12:01:31.557Z</time>
      </trkpt>
      <trkpt lat="45.662351" lon="9.050860">
        <ele>285.618027</ele>
        <time>2026-05-02T12:01:33.559Z</time>
      </trkpt>
      <trkpt lat="45.662215" lon="9.050868">
        <ele>285.552189</ele>
        <time>2026-05-02T12:01:36.558Z</time>
      </trkpt>
      <trkpt lat="45.662117" lon="9.050869">
        <ele>285.504786</ele>
        <time>2026-05-02T12:01:38.560Z</time>
      </trkpt>
      <trkpt lat="45.662020" lon="9.050871">
        <ele>285.457863</ele>
        <time>2026-05-02T12:01:40.556Z</time>
      </trkpt>
      <trkpt lat="45.661919" lon="9.050873">
        <ele>285.409005</ele>
        <time>2026-05-02T12:01:42.558Z</time>
      </trkpt>
      <trkpt lat="45.661824" lon="9.050882">
        <ele>285.362954</ele>
        <time>2026-05-02T12:01:44.557Z</time>
      </trkpt>
      <trkpt lat="45.661729" lon="9.050878">
        <ele>285.316983</ele>
        <time>2026-05-02T12:01:46.556Z</time>
      </trkpt>
      <trkpt lat="45.661633" lon="9.050874">
        <ele>285.270529</ele>
        <time>2026-05-02T12:01:48.562Z</time>
      </trkpt>
      <trkpt lat="45.661541" lon="9.050869">
        <ele>285.225997</ele>
        <time>2026-05-02T12:01:50.559Z</time>
      </trkpt>
      <trkpt lat="45.661407" lon="9.050865">
        <ele>285.156713</ele>
        <time>2026-05-02T12:01:53.556Z</time>
      </trkpt>
      <trkpt lat="45.661316" lon="9.050860">
        <ele>285.076746</ele>
        <time>2026-05-02T12:01:55.560Z</time>
      </trkpt>
      <trkpt lat="45.661224" lon="9.050861">
        <ele>284.995956</ele>
        <time>2026-05-02T12:01:57.562Z</time>
      </trkpt>
      <trkpt lat="45.661099" lon="9.050835">
        <ele>284.885038</ele>
        <time>2026-05-02T12:02:00.558Z</time>
      </trkpt>
      <trkpt lat="45.661014" lon="9.050781">
        <ele>284.803371</ele>
        <time>2026-05-02T12:02:02.569Z</time>
      </trkpt>
      <trkpt lat="45.660960" lon="9.050674">
        <ele>284.722372</ele>
        <time>2026-05-02T12:02:04.567Z</time>
      </trkpt>
      <trkpt lat="45.660942" lon="9.050539">
        <ele>284.638026</ele>
        <time>2026-05-02T12:02:06.561Z</time>
      </trkpt>
      <trkpt lat="45.660956" lon="9.050406">
        <ele>284.555481</ele>
        <time>2026-05-02T12:02:08.555Z</time>
      </trkpt>
      <trkpt lat="45.660973" lon="9.050274">
        <ele>284.473106</ele>
        <time>2026-05-02T12:02:10.559Z</time>
      </trkpt>
      <trkpt lat="45.660980" lon="9.050141">
        <ele>284.391250</ele>
        <time>2026-05-02T12:02:12.559Z</time>
      </trkpt>
      <trkpt lat="45.660942" lon="9.049978">
        <ele>284.285795</ele>
        <time>2026-05-02T12:02:15.554Z</time>
      </trkpt>
      <trkpt lat="45.660827" lon="9.049933">
        <ele>284.181103</ele>
        <time>2026-05-02T12:02:18.557Z</time>
      </trkpt>
      <trkpt lat="45.660731" lon="9.049919">
        <ele>284.096367</ele>
        <time>2026-05-02T12:02:20.561Z</time>
      </trkpt>
      <trkpt lat="45.660632" lon="9.049905">
        <ele>284.009010</ele>
        <time>2026-05-02T12:02:22.560Z</time>
      </trkpt>
      <trkpt lat="45.660532" lon="9.049890">
        <ele>283.920717</ele>
        <time>2026-05-02T12:02:24.565Z</time>
      </trkpt>
      <trkpt lat="45.660432" lon="9.049876">
        <ele>283.832486</ele>
        <time>2026-05-02T12:02:26.565Z</time>
      </trkpt>
      <trkpt lat="45.660332" lon="9.049866">
        <ele>283.744459</ele>
        <time>2026-05-02T12:02:28.561Z</time>
      </trkpt>
      <trkpt lat="45.660235" lon="9.049851">
        <ele>283.658786</ele>
        <time>2026-05-02T12:02:30.558Z</time>
      </trkpt>
      <trkpt lat="45.660144" lon="9.049833">
        <ele>283.582408</ele>
        <time>2026-05-02T12:02:32.567Z</time>
      </trkpt>
      <trkpt lat="45.660052" lon="9.049815">
        <ele>283.539356</ele>
        <time>2026-05-02T12:02:34.573Z</time>
      </trkpt>
      <trkpt lat="45.659956" lon="9.049791">
        <ele>283.494171</ele>
        <time>2026-05-02T12:02:36.563Z</time>
      </trkpt>
      <trkpt lat="45.659859" lon="9.049786">
        <ele>283.449167</ele>
        <time>2026-05-02T12:02:38.563Z</time>
      </trkpt>
      <trkpt lat="45.659760" lon="9.049772">
        <ele>283.403042</ele>
        <time>2026-05-02T12:02:40.563Z</time>
      </trkpt>
      <trkpt lat="45.659665" lon="9.049755">
        <ele>283.358652</ele>
        <time>2026-05-02T12:02:42.562Z</time>
      </trkpt>
      <trkpt lat="45.659570" lon="9.049739">
        <ele>283.314301</ele>
        <time>2026-05-02T12:02:44.557Z</time>
      </trkpt>
      <trkpt lat="45.659475" lon="9.049723">
        <ele>283.269951</ele>
        <time>2026-05-02T12:02:46.555Z</time>
      </trkpt>
      <trkpt lat="45.659378" lon="9.049707">
        <ele>283.224679</ele>
        <time>2026-05-02T12:02:48.556Z</time>
      </trkpt>
      <trkpt lat="45.659284" lon="9.049691">
        <ele>283.180788</ele>
        <time>2026-05-02T12:02:50.562Z</time>
      </trkpt>
      <trkpt lat="45.659192" lon="9.049675">
        <ele>283.137818</ele>
        <time>2026-05-02T12:02:52.558Z</time>
      </trkpt>
      <trkpt lat="45.659097" lon="9.049655">
        <ele>283.093297</ele>
        <time>2026-05-02T12:02:54.557Z</time>
      </trkpt>
      <trkpt lat="45.659002" lon="9.049641">
        <ele>283.049017</ele>
        <time>2026-05-02T12:02:56.559Z</time>
      </trkpt>
      <trkpt lat="45.658905" lon="9.049626">
        <ele>283.003781</ele>
        <time>2026-05-02T12:02:58.561Z</time>
      </trkpt>
      <trkpt lat="45.658807" lon="9.049614">
        <ele>282.958177</ele>
        <time>2026-05-02T12:03:00.559Z</time>
      </trkpt>
      <trkpt lat="45.658715" lon="9.049597">
        <ele>282.915167</ele>
        <time>2026-05-02T12:03:02.560Z</time>
      </trkpt>
      <trkpt lat="45.658622" lon="9.049581">
        <ele>282.871737</ele>
        <time>2026-05-02T12:03:04.559Z</time>
      </trkpt>
      <trkpt lat="45.658527" lon="9.049565">
        <ele>282.827386</ele>
        <time>2026-05-02T12:03:06.558Z</time>
      </trkpt>
      <trkpt lat="45.658431" lon="9.049546">
        <ele>282.782452</ele>
        <time>2026-05-02T12:03:08.557Z</time>
      </trkpt>
      <trkpt lat="45.658338" lon="9.049530">
        <ele>282.733411</ele>
        <time>2026-05-02T12:03:10.559Z</time>
      </trkpt>
      <trkpt lat="45.658246" lon="9.049518">
        <ele>282.673706</ele>
        <time>2026-05-02T12:03:12.566Z</time>
      </trkpt>
      <trkpt lat="45.658151" lon="9.049507">
        <ele>282.612109</ele>
        <time>2026-05-02T12:03:14.565Z</time>
      </trkpt>
      <trkpt lat="45.658056" lon="9.049486">
        <ele>282.549984</ele>
        <time>2026-05-02T12:03:16.560Z</time>
      </trkpt>
      <trkpt lat="45.657961" lon="9.049469">
        <ele>282.488109</ele>
        <time>2026-05-02T12:03:18.565Z</time>
      </trkpt>
      <trkpt lat="45.657867" lon="9.049453">
        <ele>282.426931</ele>
        <time>2026-05-02T12:03:20.566Z</time>
      </trkpt>
      <trkpt lat="45.657777" lon="9.049437">
        <ele>282.368319</ele>
        <time>2026-05-02T12:03:22.566Z</time>
      </trkpt>
      <trkpt lat="45.657681" lon="9.049426">
        <ele>282.306077</ele>
        <time>2026-05-02T12:03:24.564Z</time>
      </trkpt>
      <trkpt lat="45.657584" lon="9.049412">
        <ele>282.243070</ele>
        <time>2026-05-02T12:03:26.558Z</time>
      </trkpt>
      <trkpt lat="45.657488" lon="9.049395">
        <ele>282.180554</ele>
        <time>2026-05-02T12:03:28.561Z</time>
      </trkpt>
      <trkpt lat="45.657388" lon="9.049379">
        <ele>282.115523</ele>
        <time>2026-05-02T12:03:30.564Z</time>
      </trkpt>
      <trkpt lat="45.657293" lon="9.049364">
        <ele>282.053754</ele>
        <time>2026-05-02T12:03:32.567Z</time>
      </trkpt>
      <trkpt lat="45.657202" lon="9.049355">
        <ele>281.994802</ele>
        <time>2026-05-02T12:03:34.559Z</time>
      </trkpt>
      <trkpt lat="45.657081" lon="9.049359">
        <ele>281.916581</ele>
        <time>2026-05-02T12:03:37.565Z</time>
      </trkpt>
      <trkpt lat="45.656961" lon="9.049420">
        <ele>281.834278</ele>
        <time>2026-05-02T12:03:40.561Z</time>
      </trkpt>
      <trkpt lat="45.656864" lon="9.049431">
        <ele>281.771393</ele>
        <time>2026-05-02T12:03:42.557Z</time>
      </trkpt>
      <trkpt lat="45.656767" lon="9.049410">
        <ele>281.707990</ele>
        <time>2026-05-02T12:03:44.564Z</time>
      </trkpt>
      <trkpt lat="45.656669" lon="9.049384">
        <ele>281.643575</ele>
        <time>2026-05-02T12:03:46.562Z</time>
      </trkpt>
      <trkpt lat="45.656566" lon="9.049362">
        <ele>281.579242</ele>
        <time>2026-05-02T12:03:48.570Z</time>
      </trkpt>
      <trkpt lat="45.656466" lon="9.049342">
        <ele>281.527294</ele>
        <time>2026-05-02T12:03:50.562Z</time>
      </trkpt>
      <trkpt lat="45.656369" lon="9.049321">
        <ele>281.476822</ele>
        <time>2026-05-02T12:03:52.560Z</time>
      </trkpt>
      <trkpt lat="45.656273" lon="9.049304">
        <ele>281.427056</ele>
        <time>2026-05-02T12:03:54.563Z</time>
      </trkpt>
      <trkpt lat="45.656175" lon="9.049286">
        <ele>281.376223</ele>
        <time>2026-05-02T12:03:56.562Z</time>
      </trkpt>
      <trkpt lat="45.656076" lon="9.049266">
        <ele>281.324785</ele>
        <time>2026-05-02T12:03:58.560Z</time>
      </trkpt>
      <trkpt lat="45.655975" lon="9.049254">
        <ele>281.272644</ele>
        <time>2026-05-02T12:04:00.560Z</time>
      </trkpt>
      <trkpt lat="45.655874" lon="9.049238">
        <ele>281.220364</ele>
        <time>2026-05-02T12:04:02.562Z</time>
      </trkpt>
      <trkpt lat="45.655772" lon="9.049226">
        <ele>281.167711</ele>
        <time>2026-05-02T12:04:04.559Z</time>
      </trkpt>
      <trkpt lat="45.655669" lon="9.049209">
        <ele>281.114368</ele>
        <time>2026-05-02T12:04:06.556Z</time>
      </trkpt>
      <trkpt lat="45.655568" lon="9.049183">
        <ele>281.061572</ele>
        <time>2026-05-02T12:04:08.560Z</time>
      </trkpt>
      <trkpt lat="45.655468" lon="9.049167">
        <ele>281.009804</ele>
        <time>2026-05-02T12:04:10.566Z</time>
      </trkpt>
      <trkpt lat="45.655370" lon="9.049159">
        <ele>280.959303</ele>
        <time>2026-05-02T12:04:12.559Z</time>
      </trkpt>
      <trkpt lat="45.655268" lon="9.049149">
        <ele>280.906704</ele>
        <time>2026-05-02T12:04:14.568Z</time>
      </trkpt>
      <trkpt lat="45.655164" lon="9.049142">
        <ele>280.853139</ele>
        <time>2026-05-02T12:04:16.561Z</time>
      </trkpt>
      <trkpt lat="45.655062" lon="9.049111">
        <ele>280.799491</ele>
        <time>2026-05-02T12:04:18.557Z</time>
      </trkpt>
      <trkpt lat="45.654959" lon="9.049085">
        <ele>280.745682</ele>
        <time>2026-05-02T12:04:20.565Z</time>
      </trkpt>
      <trkpt lat="45.654857" lon="9.049078">
        <ele>280.693145</ele>
        <time>2026-05-02T12:04:22.561Z</time>
      </trkpt>
      <trkpt lat="45.654751" lon="9.049086">
        <ele>280.632989</ele>
        <time>2026-05-02T12:04:24.560Z</time>
      </trkpt>
      <trkpt lat="45.654642" lon="9.049086">
        <ele>280.565370</ele>
        <time>2026-05-02T12:04:26.560Z</time>
      </trkpt>
      <trkpt lat="45.654533" lon="9.049069">
        <ele>280.497350</ele>
        <time>2026-05-02T12:04:28.559Z</time>
      </trkpt>
      <trkpt lat="45.654429" lon="9.049050">
        <ele>280.432309</ele>
        <time>2026-05-02T12:04:30.564Z</time>
      </trkpt>
      <trkpt lat="45.654322" lon="9.049043">
        <ele>280.365861</ele>
        <time>2026-05-02T12:04:32.564Z</time>
      </trkpt>
      <trkpt lat="45.654214" lon="9.049030">
        <ele>280.298626</ele>
        <time>2026-05-02T12:04:34.560Z</time>
      </trkpt>
      <trkpt lat="45.654103" lon="9.049013">
        <ele>280.229373</ele>
        <time>2026-05-02T12:04:36.564Z</time>
      </trkpt>
      <trkpt lat="45.653995" lon="9.049001">
        <ele>280.162172</ele>
        <time>2026-05-02T12:04:38.559Z</time>
      </trkpt>
      <trkpt lat="45.653890" lon="9.048984">
        <ele>280.096619</ele>
        <time>2026-05-02T12:04:40.558Z</time>
      </trkpt>
      <trkpt lat="45.653782" lon="9.048970">
        <ele>280.029346</ele>
        <time>2026-05-02T12:04:42.558Z</time>
      </trkpt>
      <trkpt lat="45.653674" lon="9.048957">
        <ele>279.962110</ele>
        <time>2026-05-02T12:04:44.561Z</time>
      </trkpt>
      <trkpt lat="45.653571" lon="9.048943">
        <ele>279.897926</ele>
        <time>2026-05-02T12:04:46.557Z</time>
      </trkpt>
      <trkpt lat="45.653467" lon="9.048929">
        <ele>279.833123</ele>
        <time>2026-05-02T12:04:48.562Z</time>
      </trkpt>
      <trkpt lat="45.653362" lon="9.048918">
        <ele>279.767812</ele>
        <time>2026-05-02T12:04:50.564Z</time>
      </trkpt>
      <trkpt lat="45.653258" lon="9.048902">
        <ele>279.702922</ele>
        <time>2026-05-02T12:04:52.568Z</time>
      </trkpt>
      <trkpt lat="45.653156" lon="9.048887">
        <ele>279.639312</ele>
        <time>2026-05-02T12:04:54.561Z</time>
      </trkpt>
      <trkpt lat="45.653056" lon="9.048877">
        <ele>279.577125</ele>
        <time>2026-05-02T12:04:56.561Z</time>
      </trkpt>
      <trkpt lat="45.652955" lon="9.048867">
        <ele>279.507106</ele>
        <time>2026-05-02T12:04:58.559Z</time>
      </trkpt>
      <trkpt lat="45.652850" lon="9.048856">
        <ele>279.428470</ele>
        <time>2026-05-02T12:05:00.563Z</time>
      </trkpt>
      <trkpt lat="45.652741" lon="9.048844">
        <ele>279.346817</ele>
        <time>2026-05-02T12:05:02.556Z</time>
      </trkpt>
      <trkpt lat="45.652640" lon="9.048829">
        <ele>279.270974</ele>
        <time>2026-05-02T12:05:04.556Z</time>
      </trkpt>
      <trkpt lat="45.652538" lon="9.048812">
        <ele>279.194274</ele>
        <time>2026-05-02T12:05:06.560Z</time>
      </trkpt>
      <trkpt lat="45.652436" lon="9.048799">
        <ele>279.117788</ele>
        <time>2026-05-02T12:05:08.558Z</time>
      </trkpt>
      <trkpt lat="45.652329" lon="9.048785">
        <ele>279.037535</ele>
        <time>2026-05-02T12:05:10.561Z</time>
      </trkpt>
      <trkpt lat="45.652221" lon="9.048770">
        <ele>278.956490</ele>
        <time>2026-05-02T12:05:12.562Z</time>
      </trkpt>
      <trkpt lat="45.652119" lon="9.048754">
        <ele>278.879849</ele>
        <time>2026-05-02T12:05:14.560Z</time>
      </trkpt>
      <trkpt lat="45.652017" lon="9.048745">
        <ele>278.803520</ele>
        <time>2026-05-02T12:05:16.561Z</time>
      </trkpt>
      <trkpt lat="45.651913" lon="9.048730">
        <ele>278.725448</ele>
        <time>2026-05-02T12:05:18.558Z</time>
      </trkpt>
      <trkpt lat="45.651805" lon="9.048717">
        <ele>278.644497</ele>
        <time>2026-05-02T12:05:20.567Z</time>
      </trkpt>
      <trkpt lat="45.651703" lon="9.048704">
        <ele>278.568011</ele>
        <time>2026-05-02T12:05:22.562Z</time>
      </trkpt>
      <trkpt lat="45.651593" lon="9.048693">
        <ele>278.485650</ele>
        <time>2026-05-02T12:05:24.557Z</time>
      </trkpt>
      <trkpt lat="45.651482" lon="9.048684">
        <ele>278.402611</ele>
        <time>2026-05-02T12:05:26.565Z</time>
      </trkpt>
      <trkpt lat="45.651367" lon="9.048671">
        <ele>278.316449</ele>
        <time>2026-05-02T12:05:28.557Z</time>
      </trkpt>
      <trkpt lat="45.651256" lon="9.048658">
        <ele>278.233265</ele>
        <time>2026-05-02T12:05:30.566Z</time>
      </trkpt>
      <trkpt lat="45.651145" lon="9.048650">
        <ele>278.152831</ele>
        <time>2026-05-02T12:05:32.560Z</time>
      </trkpt>
      <trkpt lat="45.651030" lon="9.048636">
        <ele>278.070594</ele>
        <time>2026-05-02T12:05:34.560Z</time>
      </trkpt>
      <trkpt lat="45.650915" lon="9.048627">
        <ele>277.988530</ele>
        <time>2026-05-02T12:05:36.562Z</time>
      </trkpt>
      <trkpt lat="45.650805" lon="9.048630">
        <ele>277.910138</ele>
        <time>2026-05-02T12:05:38.564Z</time>
      </trkpt>
      <trkpt lat="45.650695" lon="9.048629">
        <ele>277.831758</ele>
        <time>2026-05-02T12:05:40.566Z</time>
      </trkpt>
      <trkpt lat="45.650592" lon="9.048644">
        <ele>277.757988</ele>
        <time>2026-05-02T12:05:42.563Z</time>
      </trkpt>
      <trkpt lat="45.650491" lon="9.048653">
        <ele>277.685883</ele>
        <time>2026-05-02T12:05:44.563Z</time>
      </trkpt>
      <trkpt lat="45.650391" lon="9.048659">
        <ele>277.614567</ele>
        <time>2026-05-02T12:05:46.564Z</time>
      </trkpt>
      <trkpt lat="45.650289" lon="9.048666">
        <ele>277.541806</ele>
        <time>2026-05-02T12:05:48.561Z</time>
      </trkpt>
      <trkpt lat="45.650186" lon="9.048670">
        <ele>277.468388</ele>
        <time>2026-05-02T12:05:50.577Z</time>
      </trkpt>
      <trkpt lat="45.650080" lon="9.048651">
        <ele>277.392269</ele>
        <time>2026-05-02T12:05:52.557Z</time>
      </trkpt>
      <trkpt lat="45.649975" lon="9.048625">
        <ele>277.316341</ele>
        <time>2026-05-02T12:05:54.557Z</time>
      </trkpt>
      <trkpt lat="45.649871" lon="9.048611">
        <ele>277.241911</ele>
        <time>2026-05-02T12:05:56.556Z</time>
      </trkpt>
      <trkpt lat="45.649773" lon="9.048594">
        <ele>277.171571</ele>
        <time>2026-05-02T12:05:58.557Z</time>
      </trkpt>
      <trkpt lat="45.649677" lon="9.048575">
        <ele>277.102517</ele>
        <time>2026-05-02T12:06:00.560Z</time>
      </trkpt>
      <trkpt lat="45.649571" lon="9.048558">
        <ele>277.026516</ele>
        <time>2026-05-02T12:06:02.559Z</time>
      </trkpt>
      <trkpt lat="45.649464" lon="9.048524">
        <ele>276.948417</ele>
        <time>2026-05-02T12:06:04.563Z</time>
      </trkpt>
      <trkpt lat="45.649363" lon="9.048490">
        <ele>276.863002</ele>
        <time>2026-05-02T12:06:06.560Z</time>
      </trkpt>
      <trkpt lat="45.649257" lon="9.048460">
        <ele>276.768395</ele>
        <time>2026-05-02T12:06:08.562Z</time>
      </trkpt>
      <trkpt lat="45.649154" lon="9.048423">
        <ele>276.675414</ele>
        <time>2026-05-02T12:06:10.557Z</time>
      </trkpt>
      <trkpt lat="45.649056" lon="9.048397">
        <ele>276.588147</ele>
        <time>2026-05-02T12:06:12.552Z</time>
      </trkpt>
      <trkpt lat="45.648961" lon="9.048366">
        <ele>276.502834</ele>
        <time>2026-05-02T12:06:14.565Z</time>
      </trkpt>
      <trkpt lat="45.648868" lon="9.048321">
        <ele>276.416876</ele>
        <time>2026-05-02T12:06:16.560Z</time>
      </trkpt>
      <trkpt lat="45.648776" lon="9.048267">
        <ele>276.329809</ele>
        <time>2026-05-02T12:06:18.565Z</time>
      </trkpt>
      <trkpt lat="45.648689" lon="9.048220">
        <ele>276.248385</ele>
        <time>2026-05-02T12:06:20.564Z</time>
      </trkpt>
      <trkpt lat="45.648569" lon="9.048151">
        <ele>276.135149</ele>
        <time>2026-05-02T12:06:23.559Z</time>
      </trkpt>
      <trkpt lat="45.648455" lon="9.048188">
        <ele>276.032800</ele>
        <time>2026-05-02T12:06:26.568Z</time>
      </trkpt>
      <trkpt lat="45.648399" lon="9.048296">
        <ele>275.950499</ele>
        <time>2026-05-02T12:06:28.571Z</time>
      </trkpt>
      <trkpt lat="45.648344" lon="9.048416">
        <ele>275.862673</ele>
        <time>2026-05-02T12:06:30.561Z</time>
      </trkpt>
      <trkpt lat="45.648293" lon="9.048549">
        <ele>275.769826</ele>
        <time>2026-05-02T12:06:32.559Z</time>
      </trkpt>
      <trkpt lat="45.648244" lon="9.048676">
        <ele>275.681041</ele>
        <time>2026-05-02T12:06:34.564Z</time>
      </trkpt>
      <trkpt lat="45.648191" lon="9.048802">
        <ele>275.591036</ele>
        <time>2026-05-02T12:06:36.557Z</time>
      </trkpt>
      <trkpt lat="45.648141" lon="9.048927">
        <ele>275.502889</ele>
        <time>2026-05-02T12:06:38.555Z</time>
      </trkpt>
      <trkpt lat="45.648084" lon="9.049041">
        <ele>275.417104</ele>
        <time>2026-05-02T12:06:40.559Z</time>
      </trkpt>
      <trkpt lat="45.648028" lon="9.049165">
        <ele>275.333972</ele>
        <time>2026-05-02T12:06:42.559Z</time>
      </trkpt>
      <trkpt lat="45.647972" lon="9.049296">
        <ele>275.269341</ele>
        <time>2026-05-02T12:06:44.556Z</time>
      </trkpt>
      <trkpt lat="45.647921" lon="9.049422">
        <ele>275.208058</ele>
        <time>2026-05-02T12:06:46.558Z</time>
      </trkpt>
      <trkpt lat="45.647872" lon="9.049543">
        <ele>275.149200</ele>
        <time>2026-05-02T12:06:48.560Z</time>
      </trkpt>
      <trkpt lat="45.647822" lon="9.049665">
        <ele>275.089675</ele>
        <time>2026-05-02T12:06:50.563Z</time>
      </trkpt>
      <trkpt lat="45.647770" lon="9.049790">
        <ele>275.028450</ele>
        <time>2026-05-02T12:06:52.561Z</time>
      </trkpt>
      <trkpt lat="45.647714" lon="9.049914">
        <ele>274.966313</ele>
        <time>2026-05-02T12:06:54.561Z</time>
      </trkpt>
      <trkpt lat="45.647660" lon="9.050039">
        <ele>274.904464</ele>
        <time>2026-05-02T12:06:56.555Z</time>
      </trkpt>
      <trkpt lat="45.647611" lon="9.050158">
        <ele>274.846332</ele>
        <time>2026-05-02T12:06:58.559Z</time>
      </trkpt>
      <trkpt lat="45.647563" lon="9.050275">
        <ele>274.789232</ele>
        <time>2026-05-02T12:07:00.559Z</time>
      </trkpt>
      <trkpt lat="45.647511" lon="9.050391">
        <ele>274.731230</ele>
        <time>2026-05-02T12:07:02.557Z</time>
      </trkpt>
      <trkpt lat="45.647460" lon="9.050512">
        <ele>274.671759</ele>
        <time>2026-05-02T12:07:04.561Z</time>
      </trkpt>
      <trkpt lat="45.647406" lon="9.050636">
        <ele>274.610267</ele>
        <time>2026-05-02T12:07:06.560Z</time>
      </trkpt>
      <trkpt lat="45.647353" lon="9.050760">
        <ele>274.549091</ele>
        <time>2026-05-02T12:07:08.558Z</time>
      </trkpt>
      <trkpt lat="45.647303" lon="9.050878">
        <ele>274.491012</ele>
        <time>2026-05-02T12:07:10.557Z</time>
      </trkpt>
      <trkpt lat="45.647253" lon="9.050989">
        <ele>274.435431</ele>
        <time>2026-05-02T12:07:12.555Z</time>
      </trkpt>
      <trkpt lat="45.647202" lon="9.051099">
        <ele>274.379873</ele>
        <time>2026-05-02T12:07:14.571Z</time>
      </trkpt>
      <trkpt lat="45.647082" lon="9.051168">
        <ele>274.302002</ele>
        <time>2026-05-02T12:07:17.571Z</time>
      </trkpt>
      <trkpt lat="45.646984" lon="9.051156">
        <ele>274.229789</ele>
        <time>2026-05-02T12:07:19.556Z</time>
      </trkpt>
      <trkpt lat="45.646877" lon="9.051145">
        <ele>274.130425</ele>
        <time>2026-05-02T12:07:21.557Z</time>
      </trkpt>
      <trkpt lat="45.646775" lon="9.051084">
        <ele>274.028024</ele>
        <time>2026-05-02T12:07:23.559Z</time>
      </trkpt>
      <trkpt lat="45.646682" lon="9.051012">
        <ele>273.930076</ele>
        <time>2026-05-02T12:07:25.560Z</time>
      </trkpt>
      <trkpt lat="45.646585" lon="9.050941">
        <ele>273.829151</ele>
        <time>2026-05-02T12:07:27.558Z</time>
      </trkpt>
      <trkpt lat="45.646482" lon="9.050872">
        <ele>273.723804</ele>
        <time>2026-05-02T12:07:29.565Z</time>
      </trkpt>
      <trkpt lat="45.646385" lon="9.050795">
        <ele>273.621051</ele>
        <time>2026-05-02T12:07:31.565Z</time>
      </trkpt>
      <trkpt lat="45.646291" lon="9.050715">
        <ele>273.519739</ele>
        <time>2026-05-02T12:07:33.554Z</time>
      </trkpt>
      <trkpt lat="45.646197" lon="9.050632">
        <ele>273.417420</ele>
        <time>2026-05-02T12:07:35.555Z</time>
      </trkpt>
      <trkpt lat="45.646102" lon="9.050551">
        <ele>273.314981</ele>
        <time>2026-05-02T12:07:37.558Z</time>
      </trkpt>
      <trkpt lat="45.646010" lon="9.050472">
        <ele>273.215592</ele>
        <time>2026-05-02T12:07:39.554Z</time>
      </trkpt>
      <trkpt lat="45.645914" lon="9.050391">
        <ele>273.112356</ele>
        <time>2026-05-02T12:07:41.557Z</time>
      </trkpt>
      <trkpt lat="45.645817" lon="9.050302">
        <ele>273.005615</ele>
        <time>2026-05-02T12:07:43.560Z</time>
      </trkpt>
      <trkpt lat="45.645722" lon="9.050220">
        <ele>272.902843</ele>
        <time>2026-05-02T12:07:45.563Z</time>
      </trkpt>
      <trkpt lat="45.645631" lon="9.050140">
        <ele>272.803909</ele>
        <time>2026-05-02T12:07:47.561Z</time>
      </trkpt>
      <trkpt lat="45.645538" lon="9.050062">
        <ele>272.704053</ele>
        <time>2026-05-02T12:07:49.561Z</time>
      </trkpt>
      <trkpt lat="45.645447" lon="9.049979">
        <ele>272.604087</ele>
        <time>2026-05-02T12:07:51.561Z</time>
      </trkpt>
      <trkpt lat="45.645351" lon="9.049901">
        <ele>272.517309</ele>
        <time>2026-05-02T12:07:53.556Z</time>
      </trkpt>
      <trkpt lat="45.645256" lon="9.049818">
        <ele>272.430310</ele>
        <time>2026-05-02T12:07:55.560Z</time>
      </trkpt>
      <trkpt lat="45.645161" lon="9.049736">
        <ele>272.343595</ele>
        <time>2026-05-02T12:07:57.557Z</time>
      </trkpt>
      <trkpt lat="45.645068" lon="9.049656">
        <ele>272.258782</ele>
        <time>2026-05-02T12:07:59.560Z</time>
      </trkpt>
      <trkpt lat="45.644970" lon="9.049572">
        <ele>272.169494</ele>
        <time>2026-05-02T12:08:01.560Z</time>
      </trkpt>
      <trkpt lat="45.644873" lon="9.049488">
        <ele>272.080876</ele>
        <time>2026-05-02T12:08:03.556Z</time>
      </trkpt>
      <trkpt lat="45.644775" lon="9.049408">
        <ele>271.992691</ele>
        <time>2026-05-02T12:08:05.558Z</time>
      </trkpt>
      <trkpt lat="45.644675" lon="9.049328">
        <ele>271.903146</ele>
        <time>2026-05-02T12:08:07.567Z</time>
      </trkpt>
      <trkpt lat="45.644582" lon="9.049243">
        <ele>271.816893</ele>
        <time>2026-05-02T12:08:09.558Z</time>
      </trkpt>
      <trkpt lat="45.644488" lon="9.049160">
        <ele>271.730560</ele>
        <time>2026-05-02T12:08:11.555Z</time>
      </trkpt>
      <trkpt lat="45.644386" lon="9.049079">
        <ele>271.639383</ele>
        <time>2026-05-02T12:08:13.566Z</time>
      </trkpt>
      <trkpt lat="45.644285" lon="9.048990">
        <ele>271.546673</ele>
        <time>2026-05-02T12:08:15.558Z</time>
      </trkpt>
      <trkpt lat="45.644182" lon="9.048898">
        <ele>271.451770</ele>
        <time>2026-05-02T12:08:17.559Z</time>
      </trkpt>
      <trkpt lat="45.644080" lon="9.048810">
        <ele>271.358677</ele>
        <time>2026-05-02T12:08:19.560Z</time>
      </trkpt>
      <trkpt lat="45.643984" lon="9.048727">
        <ele>271.271009</ele>
        <time>2026-05-02T12:08:21.561Z</time>
      </trkpt>
      <trkpt lat="45.643881" lon="9.048641">
        <ele>271.179947</ele>
        <time>2026-05-02T12:08:23.563Z</time>
      </trkpt>
      <trkpt lat="45.643778" lon="9.048550">
        <ele>271.096975</ele>
        <time>2026-05-02T12:08:25.556Z</time>
      </trkpt>
      <trkpt lat="45.643675" lon="9.048462">
        <ele>271.014749</ele>
        <time>2026-05-02T12:08:27.564Z</time>
      </trkpt>
      <trkpt lat="45.643575" lon="9.048376">
        <ele>270.934779</ele>
        <time>2026-05-02T12:08:29.558Z</time>
      </trkpt>
      <trkpt lat="45.643471" lon="9.048285">
        <ele>270.851223</ele>
        <time>2026-05-02T12:08:31.564Z</time>
      </trkpt>
      <trkpt lat="45.643367" lon="9.048195">
        <ele>270.767916</ele>
        <time>2026-05-02T12:08:33.557Z</time>
      </trkpt>
      <trkpt lat="45.643262" lon="9.048102">
        <ele>270.683274</ele>
        <time>2026-05-02T12:08:35.558Z</time>
      </trkpt>
      <trkpt lat="45.643162" lon="9.048019">
        <ele>270.604035</ele>
        <time>2026-05-02T12:08:37.560Z</time>
      </trkpt>
      <trkpt lat="45.643062" lon="9.047941">
        <ele>270.525971</ele>
        <time>2026-05-02T12:08:39.563Z</time>
      </trkpt>
      <trkpt lat="45.642957" lon="9.047867">
        <ele>270.445747</ele>
        <time>2026-05-02T12:08:41.556Z</time>
      </trkpt>
      <trkpt lat="45.642853" lon="9.047807">
        <ele>270.368891</ele>
        <time>2026-05-02T12:08:43.562Z</time>
      </trkpt>
      <trkpt lat="45.642747" lon="9.047754">
        <ele>270.291932</ele>
        <time>2026-05-02T12:08:45.560Z</time>
      </trkpt>
      <trkpt lat="45.642644" lon="9.047691">
        <ele>270.215156</ele>
        <time>2026-05-02T12:08:47.563Z</time>
      </trkpt>
      <trkpt lat="45.642533" lon="9.047650">
        <ele>270.136586</ele>
        <time>2026-05-02T12:08:49.569Z</time>
      </trkpt>
      <trkpt lat="45.642426" lon="9.047592">
        <ele>270.058163</ele>
        <time>2026-05-02T12:08:51.560Z</time>
      </trkpt>
      <trkpt lat="45.642314" lon="9.047540">
        <ele>269.977460</ele>
        <time>2026-05-02T12:08:53.555Z</time>
      </trkpt>
      <trkpt lat="45.642196" lon="9.047496">
        <ele>269.878874</ele>
        <time>2026-05-02T12:08:55.562Z</time>
      </trkpt>
      <trkpt lat="45.642074" lon="9.047457">
        <ele>269.774461</ele>
        <time>2026-05-02T12:08:57.560Z</time>
      </trkpt>
      <trkpt lat="45.641958" lon="9.047420">
        <ele>269.675193</ele>
        <time>2026-05-02T12:08:59.558Z</time>
      </trkpt>
      <trkpt lat="45.641839" lon="9.047396">
        <ele>269.574817</ele>
        <time>2026-05-02T12:09:01.560Z</time>
      </trkpt>
      <trkpt lat="45.641720" lon="9.047378">
        <ele>269.474869</ele>
        <time>2026-05-02T12:09:03.562Z</time>
      </trkpt>
      <trkpt lat="45.641603" lon="9.047358">
        <ele>269.376450</ele>
        <time>2026-05-02T12:09:05.561Z</time>
      </trkpt>
      <trkpt lat="45.641489" lon="9.047341">
        <ele>269.280717</ele>
        <time>2026-05-02T12:09:07.561Z</time>
      </trkpt>
      <trkpt lat="45.641376" lon="9.047322">
        <ele>269.185685</ele>
        <time>2026-05-02T12:09:09.560Z</time>
      </trkpt>
      <trkpt lat="45.641263" lon="9.047309">
        <ele>269.090998</ele>
        <time>2026-05-02T12:09:11.560Z</time>
      </trkpt>
      <trkpt lat="45.641149" lon="9.047293">
        <ele>268.995324</ele>
        <time>2026-05-02T12:09:13.566Z</time>
      </trkpt>
      <trkpt lat="45.641034" lon="9.047278">
        <ele>268.898873</ele>
        <time>2026-05-02T12:09:15.559Z</time>
      </trkpt>
      <trkpt lat="45.640915" lon="9.047263">
        <ele>268.799094</ele>
        <time>2026-05-02T12:09:17.561Z</time>
      </trkpt>
      <trkpt lat="45.640794" lon="9.047241">
        <ele>268.697217</ele>
        <time>2026-05-02T12:09:19.556Z</time>
      </trkpt>
      <trkpt lat="45.640676" lon="9.047222">
        <ele>268.598036</ele>
        <time>2026-05-02T12:09:21.565Z</time>
      </trkpt>
      <trkpt lat="45.640561" lon="9.047214">
        <ele>268.501870</ele>
        <time>2026-05-02T12:09:23.566Z</time>
      </trkpt>
      <trkpt lat="45.640445" lon="9.047197">
        <ele>268.395744</ele>
        <time>2026-05-02T12:09:25.553Z</time>
      </trkpt>
      <trkpt lat="45.640323" lon="9.047180">
        <ele>268.277329</ele>
        <time>2026-05-02T12:09:27.558Z</time>
      </trkpt>
      <trkpt lat="45.640199" lon="9.047159">
        <ele>268.156704</ele>
        <time>2026-05-02T12:09:29.566Z</time>
      </trkpt>
      <trkpt lat="45.640076" lon="9.047141">
        <ele>268.037261</ele>
        <time>2026-05-02T12:09:31.556Z</time>
      </trkpt>
      <trkpt lat="45.639954" lon="9.047129">
        <ele>267.919126</ele>
        <time>2026-05-02T12:09:33.558Z</time>
      </trkpt>
      <trkpt lat="45.639835" lon="9.047115">
        <ele>267.803780</ele>
        <time>2026-05-02T12:09:35.565Z</time>
      </trkpt>
      <trkpt lat="45.639719" lon="9.047111">
        <ele>267.691687</ele>
        <time>2026-05-02T12:09:37.564Z</time>
      </trkpt>
      <trkpt lat="45.639609" lon="9.047105">
        <ele>267.585345</ele>
        <time>2026-05-02T12:09:39.559Z</time>
      </trkpt>
      <trkpt lat="45.639490" lon="9.047098">
        <ele>267.470290</ele>
        <time>2026-05-02T12:09:41.557Z</time>
      </trkpt>
      <trkpt lat="45.639365" lon="9.047078">
        <ele>267.348782</ele>
        <time>2026-05-02T12:09:43.557Z</time>
      </trkpt>
      <trkpt lat="45.639239" lon="9.047056">
        <ele>267.226158</ele>
        <time>2026-05-02T12:09:45.565Z</time>
      </trkpt>
      <trkpt lat="45.639123" lon="9.047038">
        <ele>267.113440</ele>
        <time>2026-05-02T12:09:47.559Z</time>
      </trkpt>
      <trkpt lat="45.639013" lon="9.047029">
        <ele>267.007002</ele>
        <time>2026-05-02T12:09:49.557Z</time>
      </trkpt>
      <trkpt lat="45.638902" lon="9.047013">
        <ele>266.899229</ele>
        <time>2026-05-02T12:09:51.558Z</time>
      </trkpt>
      <trkpt lat="45.638792" lon="9.046995">
        <ele>266.792271</ele>
        <time>2026-05-02T12:09:53.558Z</time>
      </trkpt>
      <trkpt lat="45.638685" lon="9.046982">
        <ele>266.707077</ele>
        <time>2026-05-02T12:09:55.561Z</time>
      </trkpt>
      <trkpt lat="45.638580" lon="9.046964">
        <ele>266.660412</ele>
        <time>2026-05-02T12:09:57.562Z</time>
      </trkpt>
      <trkpt lat="45.638483" lon="9.046942">
        <ele>266.617074</ele>
        <time>2026-05-02T12:09:59.554Z</time>
      </trkpt>
      <trkpt lat="45.638386" lon="9.046930">
        <ele>266.574111</ele>
        <time>2026-05-02T12:10:01.559Z</time>
      </trkpt>
      <trkpt lat="45.638292" lon="9.046921">
        <ele>266.532539</ele>
        <time>2026-05-02T12:10:03.557Z</time>
      </trkpt>
      <trkpt lat="45.638203" lon="9.046909">
        <ele>266.493092</ele>
        <time>2026-05-02T12:10:05.562Z</time>
      </trkpt>
      <trkpt lat="45.638073" lon="9.046887">
        <ele>266.435326</ele>
        <time>2026-05-02T12:10:08.564Z</time>
      </trkpt>
      <trkpt lat="45.637980" lon="9.046886">
        <ele>266.394287</ele>
        <time>2026-05-02T12:10:10.561Z</time>
      </trkpt>
      <trkpt lat="45.637878" lon="9.046875">
        <ele>266.349150</ele>
        <time>2026-05-02T12:10:12.560Z</time>
      </trkpt>
      <trkpt lat="45.637777" lon="9.046863">
        <ele>266.304428</ele>
        <time>2026-05-02T12:10:14.566Z</time>
      </trkpt>
      <trkpt lat="45.637677" lon="9.046857">
        <ele>266.260262</ele>
        <time>2026-05-02T12:10:16.557Z</time>
      </trkpt>
      <trkpt lat="45.637574" lon="9.046852">
        <ele>266.214785</ele>
        <time>2026-05-02T12:10:18.557Z</time>
      </trkpt>
      <trkpt lat="45.637465" lon="9.046847">
        <ele>266.166662</ele>
        <time>2026-05-02T12:10:20.559Z</time>
      </trkpt>
      <trkpt lat="45.637358" lon="9.046842">
        <ele>266.119421</ele>
        <time>2026-05-02T12:10:22.573Z</time>
      </trkpt>
      <trkpt lat="45.637255" lon="9.046838">
        <ele>266.073953</ele>
        <time>2026-05-02T12:10:24.560Z</time>
      </trkpt>
      <trkpt lat="45.637159" lon="9.046833">
        <ele>266.031563</ele>
        <time>2026-05-02T12:10:26.564Z</time>
      </trkpt>
      <trkpt lat="45.637060" lon="9.046826">
        <ele>265.987824</ele>
        <time>2026-05-02T12:10:28.558Z</time>
      </trkpt>
      <trkpt lat="45.636958" lon="9.046814">
        <ele>265.942662</ele>
        <time>2026-05-02T12:10:30.560Z</time>
      </trkpt>
      <trkpt lat="45.636853" lon="9.046802">
        <ele>265.898187</ele>
        <time>2026-05-02T12:10:32.566Z</time>
      </trkpt>
      <trkpt lat="45.636758" lon="9.046788">
        <ele>265.858621</ele>
        <time>2026-05-02T12:10:34.559Z</time>
      </trkpt>
      <trkpt lat="45.636657" lon="9.046771">
        <ele>265.816489</ele>
        <time>2026-05-02T12:10:36.565Z</time>
      </trkpt>
      <trkpt lat="45.636553" lon="9.046754">
        <ele>265.773122</ele>
        <time>2026-05-02T12:10:38.560Z</time>
      </trkpt>
      <trkpt lat="45.636444" lon="9.046737">
        <ele>265.727696</ele>
        <time>2026-05-02T12:10:40.563Z</time>
      </trkpt>
      <trkpt lat="45.636338" lon="9.046716">
        <ele>265.683362</ele>
        <time>2026-05-02T12:10:42.560Z</time>
      </trkpt>
      <trkpt lat="45.636235" lon="9.046703">
        <ele>265.640524</ele>
        <time>2026-05-02T12:10:44.559Z</time>
      </trkpt>
      <trkpt lat="45.636136" lon="9.046688">
        <ele>265.599280</ele>
        <time>2026-05-02T12:10:46.556Z</time>
      </trkpt>
      <trkpt lat="45.636031" lon="9.046675">
        <ele>265.555616</ele>
        <time>2026-05-02T12:10:48.562Z</time>
      </trkpt>
      <trkpt lat="45.635931" lon="9.046656">
        <ele>265.513823</ele>
        <time>2026-05-02T12:10:50.570Z</time>
      </trkpt>
      <trkpt lat="45.635829" lon="9.046640">
        <ele>265.471312</ele>
        <time>2026-05-02T12:10:52.563Z</time>
      </trkpt>
      <trkpt lat="45.635720" lon="9.046626">
        <ele>265.425972</ele>
        <time>2026-05-02T12:10:54.557Z</time>
      </trkpt>
      <trkpt lat="45.635613" lon="9.046618">
        <ele>265.381583</ele>
        <time>2026-05-02T12:10:56.559Z</time>
      </trkpt>
      <trkpt lat="45.635508" lon="9.046610">
        <ele>265.338020</ele>
        <time>2026-05-02T12:10:58.555Z</time>
      </trkpt>
      <trkpt lat="45.635402" lon="9.046582">
        <ele>265.293363</ele>
        <time>2026-05-02T12:11:00.568Z</time>
      </trkpt>
      <trkpt lat="45.635302" lon="9.046567">
        <ele>265.251706</ele>
        <time>2026-05-02T12:11:02.561Z</time>
      </trkpt>
      <trkpt lat="45.635205" lon="9.046562">
        <ele>265.211494</ele>
        <time>2026-05-02T12:11:04.558Z</time>
      </trkpt>
      <trkpt lat="45.635111" lon="9.046568">
        <ele>265.168440</ele>
        <time>2026-05-02T12:11:06.553Z</time>
      </trkpt>
      <trkpt lat="45.635013" lon="9.046563">
        <ele>265.113186</ele>
        <time>2026-05-02T12:11:08.560Z</time>
      </trkpt>
      <trkpt lat="45.634916" lon="9.046561">
        <ele>265.058524</ele>
        <time>2026-05-02T12:11:10.566Z</time>
      </trkpt>
      <trkpt lat="45.634818" lon="9.046559">
        <ele>265.003299</ele>
        <time>2026-05-02T12:11:12.557Z</time>
      </trkpt>
      <trkpt lat="45.634741" lon="9.046483">
        <ele>264.950583</ele>
        <time>2026-05-02T12:11:14.566Z</time>
      </trkpt>
      <trkpt lat="45.634705" lon="9.046348">
        <ele>264.893658</ele>
        <time>2026-05-02T12:11:16.560Z</time>
      </trkpt>
      <trkpt lat="45.634657" lon="9.046219">
        <ele>264.836085</ele>
        <time>2026-05-02T12:11:18.559Z</time>
      </trkpt>
      <trkpt lat="45.634583" lon="9.046114">
        <ele>264.777349</ele>
        <time>2026-05-02T12:11:20.556Z</time>
      </trkpt>
      <trkpt lat="45.634500" lon="9.046025">
        <ele>264.718896</ele>
        <time>2026-05-02T12:11:22.556Z</time>
      </trkpt>
      <trkpt lat="45.634417" lon="9.045924">
        <ele>264.657491</ele>
        <time>2026-05-02T12:11:24.563Z</time>
      </trkpt>
      <trkpt lat="45.634339" lon="9.045831">
        <ele>264.600270</ele>
        <time>2026-05-02T12:11:26.558Z</time>
      </trkpt>
      <trkpt lat="45.634260" lon="9.045738">
        <ele>264.542616</ele>
        <time>2026-05-02T12:11:28.565Z</time>
      </trkpt>
      <trkpt lat="45.634185" lon="9.045645">
        <ele>264.486683</ele>
        <time>2026-05-02T12:11:30.563Z</time>
      </trkpt>
      <trkpt lat="45.634105" lon="9.045547">
        <ele>264.427331</ele>
        <time>2026-05-02T12:11:32.557Z</time>
      </trkpt>
      <trkpt lat="45.634026" lon="9.045448">
        <ele>264.368146</ele>
        <time>2026-05-02T12:11:34.562Z</time>
      </trkpt>
      <trkpt lat="45.633948" lon="9.045353">
        <ele>264.310417</ele>
        <time>2026-05-02T12:11:36.557Z</time>
      </trkpt>
      <trkpt lat="45.633876" lon="9.045265">
        <ele>264.257051</ele>
        <time>2026-05-02T12:11:38.560Z</time>
      </trkpt>
      <trkpt lat="45.633804" lon="9.045170">
        <ele>264.201853</ele>
        <time>2026-05-02T12:11:40.561Z</time>
      </trkpt>
      <trkpt lat="45.633749" lon="9.045059">
        <ele>264.176355</ele>
        <time>2026-05-02T12:11:42.559Z</time>
      </trkpt>
      <trkpt lat="45.633747" lon="9.044921">
        <ele>264.191117</ele>
        <time>2026-05-02T12:11:44.569Z</time>
      </trkpt>
      <trkpt lat="45.633759" lon="9.044780">
        <ele>264.206308</ele>
        <time>2026-05-02T12:11:46.559Z</time>
      </trkpt>
      <trkpt lat="45.633768" lon="9.044632">
        <ele>264.222196</ele>
        <time>2026-05-02T12:11:48.560Z</time>
      </trkpt>
      <trkpt lat="45.633782" lon="9.044483">
        <ele>264.238274</ele>
        <time>2026-05-02T12:11:50.563Z</time>
      </trkpt>
      <trkpt lat="45.633794" lon="9.044340">
        <ele>264.253677</ele>
        <time>2026-05-02T12:11:52.561Z</time>
      </trkpt>
      <trkpt lat="45.633802" lon="9.044196">
        <ele>264.269126</ele>
        <time>2026-05-02T12:11:54.557Z</time>
      </trkpt>
      <trkpt lat="45.633810" lon="9.044051">
        <ele>264.284681</ele>
        <time>2026-05-02T12:11:56.560Z</time>
      </trkpt>
      <trkpt lat="45.633818" lon="9.043913">
        <ele>264.299491</ele>
        <time>2026-05-02T12:11:58.558Z</time>
      </trkpt>
      <trkpt lat="45.633825" lon="9.043771">
        <ele>264.314715</ele>
        <time>2026-05-02T12:12:00.564Z</time>
      </trkpt>
      <trkpt lat="45.633837" lon="9.043629">
        <ele>264.330012</ele>
        <time>2026-05-02T12:12:02.565Z</time>
      </trkpt>
      <trkpt lat="45.633845" lon="9.043489">
        <ele>264.345034</ele>
        <time>2026-05-02T12:12:04.557Z</time>
      </trkpt>
      <trkpt lat="45.633859" lon="9.043350">
        <ele>264.360053</ele>
        <time>2026-05-02T12:12:06.559Z</time>
      </trkpt>
      <trkpt lat="45.633866" lon="9.043211">
        <ele>264.374957</ele>
        <time>2026-05-02T12:12:08.563Z</time>
      </trkpt>
      <trkpt lat="45.633872" lon="9.043071">
        <ele>264.389958</ele>
        <time>2026-05-02T12:12:10.562Z</time>
      </trkpt>
      <trkpt lat="45.633878" lon="9.042935">
        <ele>264.404531</ele>
        <time>2026-05-02T12:12:12.565Z</time>
      </trkpt>
      <trkpt lat="45.633889" lon="9.042800">
        <ele>264.419067</ele>
        <time>2026-05-02T12:12:14.556Z</time>
      </trkpt>
      <trkpt lat="45.633865" lon="9.042627">
        <ele>264.437929</ele>
        <time>2026-05-02T12:12:17.562Z</time>
      </trkpt>
      <trkpt lat="45.633742" lon="9.042570">
        <ele>264.370591</ele>
        <time>2026-05-02T12:12:20.564Z</time>
      </trkpt>
      <trkpt lat="45.633647" lon="9.042552">
        <ele>264.281042</ele>
        <time>2026-05-02T12:12:22.558Z</time>
      </trkpt>
      <trkpt lat="45.633548" lon="9.042532">
        <ele>264.187612</ele>
        <time>2026-05-02T12:12:24.559Z</time>
      </trkpt>
      <trkpt lat="45.633450" lon="9.042500">
        <ele>264.093679</ele>
        <time>2026-05-02T12:12:26.562Z</time>
      </trkpt>
      <trkpt lat="45.633352" lon="9.042482">
        <ele>264.001350</ele>
        <time>2026-05-02T12:12:28.560Z</time>
      </trkpt>
      <trkpt lat="45.633248" lon="9.042463">
        <ele>263.903377</ele>
        <time>2026-05-02T12:12:30.560Z</time>
      </trkpt>
      <trkpt lat="45.633142" lon="9.042433">
        <ele>263.802404</ele>
        <time>2026-05-02T12:12:32.563Z</time>
      </trkpt>
      <trkpt lat="45.633040" lon="9.042400">
        <ele>263.704681</ele>
        <time>2026-05-02T12:12:34.561Z</time>
      </trkpt>
      <trkpt lat="45.632940" lon="9.042388">
        <ele>263.610907</ele>
        <time>2026-05-02T12:12:36.562Z</time>
      </trkpt>
      <trkpt lat="45.632841" lon="9.042370">
        <ele>263.517651</ele>
        <time>2026-05-02T12:12:38.559Z</time>
      </trkpt>
      <trkpt lat="45.632737" lon="9.042349">
        <ele>263.419504</ele>
        <time>2026-05-02T12:12:40.559Z</time>
      </trkpt>
      <trkpt lat="45.632639" lon="9.042330">
        <ele>263.327089</ele>
        <time>2026-05-02T12:12:42.560Z</time>
      </trkpt>
      <trkpt lat="45.632538" lon="9.042294">
        <ele>263.229822</ele>
        <time>2026-05-02T12:12:44.561Z</time>
      </trkpt>
      <trkpt lat="45.632441" lon="9.042270">
        <ele>263.137833</ele>
        <time>2026-05-02T12:12:46.556Z</time>
      </trkpt>
      <trkpt lat="45.632341" lon="9.042259">
        <ele>263.044112</ele>
        <time>2026-05-02T12:12:48.559Z</time>
      </trkpt>
      <trkpt lat="45.632243" lon="9.042243">
        <ele>262.951940</ele>
        <time>2026-05-02T12:12:50.557Z</time>
      </trkpt>
      <trkpt lat="45.632148" lon="9.042217">
        <ele>262.861556</ele>
        <time>2026-05-02T12:12:52.561Z</time>
      </trkpt>
      <trkpt lat="45.632054" lon="9.042197">
        <ele>262.772750</ele>
        <time>2026-05-02T12:12:54.559Z</time>
      </trkpt>
      <trkpt lat="45.631965" lon="9.042173">
        <ele>262.661321</ele>
        <time>2026-05-02T12:12:56.558Z</time>
      </trkpt>
      <trkpt lat="45.631837" lon="9.042154">
        <ele>262.498989</ele>
        <time>2026-05-02T12:12:59.558Z</time>
      </trkpt>
      <trkpt lat="45.631745" lon="9.042132">
        <ele>262.381326</ele>
        <time>2026-05-02T12:13:03.559Z</time>
      </trkpt>
      <trkpt lat="45.631694" lon="9.042378">
        <ele>262.154998</ele>
        <time>2026-05-02T12:13:19.559Z</time>
      </trkpt>
      <trkpt lat="45.631627" lon="9.042526">
        <ele>261.999480</ele>
        <time>2026-05-02T12:13:22.562Z</time>
      </trkpt>
      <trkpt lat="45.631532" lon="9.042530">
        <ele>261.879591</ele>
        <time>2026-05-02T12:13:24.562Z</time>
      </trkpt>
      <trkpt lat="45.631451" lon="9.042454">
        <ele>261.757386</ele>
        <time>2026-05-02T12:13:26.560Z</time>
      </trkpt>
      <trkpt lat="45.631365" lon="9.042377">
        <ele>261.629394</ele>
        <time>2026-05-02T12:13:28.555Z</time>
      </trkpt>
      <trkpt lat="45.631287" lon="9.042299">
        <ele>261.509332</ele>
        <time>2026-05-02T12:13:30.560Z</time>
      </trkpt>
      <trkpt lat="45.631206" lon="9.042223">
        <ele>261.387126</ele>
        <time>2026-05-02T12:13:32.567Z</time>
      </trkpt>
      <trkpt lat="45.631122" lon="9.042147">
        <ele>261.261739</ele>
        <time>2026-05-02T12:13:34.559Z</time>
      </trkpt>
      <trkpt lat="45.631035" lon="9.042066">
        <ele>261.130785</ele>
        <time>2026-05-02T12:13:36.558Z</time>
      </trkpt>
      <trkpt lat="45.630945" lon="9.041990">
        <ele>260.998940</ele>
        <time>2026-05-02T12:13:38.556Z</time>
      </trkpt>
      <trkpt lat="45.630859" lon="9.041922">
        <ele>260.874978</ele>
        <time>2026-05-02T12:13:40.555Z</time>
      </trkpt>
      <trkpt lat="45.630774" lon="9.041849">
        <ele>260.749905</ele>
        <time>2026-05-02T12:13:42.559Z</time>
      </trkpt>
      <trkpt lat="45.630689" lon="9.041780">
        <ele>260.626613</ele>
        <time>2026-05-02T12:13:44.558Z</time>
      </trkpt>
      <trkpt lat="45.630601" lon="9.041709">
        <ele>260.499157</ele>
        <time>2026-05-02T12:13:46.555Z</time>
      </trkpt>
      <trkpt lat="45.630509" lon="9.041642">
        <ele>260.376239</ele>
        <time>2026-05-02T12:13:48.557Z</time>
      </trkpt>
      <trkpt lat="45.630420" lon="9.041572">
        <ele>260.255498</ele>
        <time>2026-05-02T12:13:50.564Z</time>
      </trkpt>
      <trkpt lat="45.630332" lon="9.041502">
        <ele>260.135797</ele>
        <time>2026-05-02T12:13:52.556Z</time>
      </trkpt>
      <trkpt lat="45.630242" lon="9.041439">
        <ele>260.016684</ele>
        <time>2026-05-02T12:13:54.557Z</time>
      </trkpt>
      <trkpt lat="45.630155" lon="9.041373">
        <ele>259.899615</ele>
        <time>2026-05-02T12:13:56.555Z</time>
      </trkpt>
      <trkpt lat="45.630067" lon="9.041310">
        <ele>259.782632</ele>
        <time>2026-05-02T12:13:58.558Z</time>
      </trkpt>
      <trkpt lat="45.629980" lon="9.041246">
        <ele>259.666332</ele>
        <time>2026-05-02T12:14:00.557Z</time>
      </trkpt>
      <trkpt lat="45.629890" lon="9.041181">
        <ele>259.546478</ele>
        <time>2026-05-02T12:14:02.557Z</time>
      </trkpt>
      <trkpt lat="45.629803" lon="9.041119">
        <ele>259.430930</ele>
        <time>2026-05-02T12:14:04.558Z</time>
      </trkpt>
      <trkpt lat="45.629717" lon="9.041050">
        <ele>259.313710</ele>
        <time>2026-05-02T12:14:06.563Z</time>
      </trkpt>
      <trkpt lat="45.629626" lon="9.040982">
        <ele>259.191659</ele>
        <time>2026-05-02T12:14:08.558Z</time>
      </trkpt>
      <trkpt lat="45.629533" lon="9.040916">
        <ele>259.068244</ele>
        <time>2026-05-02T12:14:10.562Z</time>
      </trkpt>
      <trkpt lat="45.629449" lon="9.040853">
        <ele>258.955492</ele>
        <time>2026-05-02T12:14:12.562Z</time>
      </trkpt>
      <trkpt lat="45.629358" lon="9.040789">
        <ele>258.834945</ele>
        <time>2026-05-02T12:14:14.560Z</time>
      </trkpt>
      <trkpt lat="45.629267" lon="9.040721">
        <ele>258.712893</ele>
        <time>2026-05-02T12:14:16.560Z</time>
      </trkpt>
      <trkpt lat="45.629177" lon="9.040667">
        <ele>258.596874</ele>
        <time>2026-05-02T12:14:18.560Z</time>
      </trkpt>
      <trkpt lat="45.629084" lon="9.040652">
        <ele>258.485623</ele>
        <time>2026-05-02T12:14:20.557Z</time>
      </trkpt>
      <trkpt lat="45.629003" lon="9.040596">
        <ele>258.378675</ele>
        <time>2026-05-02T12:14:22.561Z</time>
      </trkpt>
      <trkpt lat="45.628952" lon="9.040483">
        <ele>258.227142</ele>
        <time>2026-05-02T12:14:24.563Z</time>
      </trkpt>
      <trkpt lat="45.628875" lon="9.040404">
        <ele>258.065236</ele>
        <time>2026-05-02T12:14:26.562Z</time>
      </trkpt>
      <trkpt lat="45.628774" lon="9.040389">
        <ele>257.891756</ele>
        <time>2026-05-02T12:14:28.562Z</time>
      </trkpt>
      <trkpt lat="45.628680" lon="9.040447">
        <ele>257.716850</ele>
        <time>2026-05-02T12:14:30.560Z</time>
      </trkpt>
      <trkpt lat="45.628605" lon="9.040540">
        <ele>257.547253</ele>
        <time>2026-05-02T12:14:32.560Z</time>
      </trkpt>
      <trkpt lat="45.628536" lon="9.040648">
        <ele>257.372481</ele>
        <time>2026-05-02T12:14:34.561Z</time>
      </trkpt>
      <trkpt lat="45.628470" lon="9.040766">
        <ele>257.191957</ele>
        <time>2026-05-02T12:14:36.561Z</time>
      </trkpt>
      <trkpt lat="45.628410" lon="9.040890">
        <ele>257.011805</ele>
        <time>2026-05-02T12:14:38.562Z</time>
      </trkpt>
      <trkpt lat="45.628331" lon="9.040985">
        <ele>256.835458</ele>
        <time>2026-05-02T12:14:40.560Z</time>
      </trkpt>
      <trkpt lat="45.628226" lon="9.040983">
        <ele>256.656056</ele>
        <time>2026-05-02T12:14:42.553Z</time>
      </trkpt>
      <trkpt lat="45.628124" lon="9.040967">
        <ele>256.480750</ele>
        <time>2026-05-02T12:14:44.559Z</time>
      </trkpt>
      <trkpt lat="45.628020" lon="9.040946">
        <ele>256.301309</ele>
        <time>2026-05-02T12:14:46.557Z</time>
      </trkpt>
      <trkpt lat="45.627917" lon="9.040912">
        <ele>256.120712</ele>
        <time>2026-05-02T12:14:48.560Z</time>
      </trkpt>
      <trkpt lat="45.627813" lon="9.040893">
        <ele>255.941590</ele>
        <time>2026-05-02T12:14:50.556Z</time>
      </trkpt>
      <trkpt lat="45.627715" lon="9.040866">
        <ele>255.771083</ele>
        <time>2026-05-02T12:14:52.553Z</time>
      </trkpt>
      <trkpt lat="45.627611" lon="9.040846">
        <ele>255.591806</ele>
        <time>2026-05-02T12:14:54.559Z</time>
      </trkpt>
      <trkpt lat="45.627518" lon="9.040835">
        <ele>255.432378</ele>
        <time>2026-05-02T12:14:56.558Z</time>
      </trkpt>
      <trkpt lat="45.627405" lon="9.040812">
        <ele>255.279559</ele>
        <time>2026-05-02T12:14:58.566Z</time>
      </trkpt>
      <trkpt lat="45.627301" lon="9.040795">
        <ele>255.259522</ele>
        <time>2026-05-02T12:15:00.559Z</time>
      </trkpt>
      <trkpt lat="45.627170" lon="9.040781">
        <ele>255.234377</ele>
        <time>2026-05-02T12:15:03.559Z</time>
      </trkpt>
      <trkpt lat="45.627068" lon="9.040776">
        <ele>255.214842</ele>
        <time>2026-05-02T12:15:05.558Z</time>
      </trkpt>
      <trkpt lat="45.626962" lon="9.040750">
        <ele>255.194256</ele>
        <time>2026-05-02T12:15:07.555Z</time>
      </trkpt>
      <trkpt lat="45.626862" lon="9.040728">
        <ele>255.174889</ele>
        <time>2026-05-02T12:15:09.563Z</time>
      </trkpt>
      <trkpt lat="45.626762" lon="9.040706">
        <ele>255.155523</ele>
        <time>2026-05-02T12:15:11.561Z</time>
      </trkpt>
      <trkpt lat="45.626670" lon="9.040702">
        <ele>255.137905</ele>
        <time>2026-05-02T12:15:13.556Z</time>
      </trkpt>
      <trkpt lat="45.626564" lon="9.040687">
        <ele>255.117516</ele>
        <time>2026-05-02T12:15:15.563Z</time>
      </trkpt>
      <trkpt lat="45.626462" lon="9.040682">
        <ele>255.097981</ele>
        <time>2026-05-02T12:15:17.563Z</time>
      </trkpt>
      <trkpt lat="45.626360" lon="9.040668">
        <ele>255.078367</ele>
        <time>2026-05-02T12:15:19.555Z</time>
      </trkpt>
      <trkpt lat="45.626258" lon="9.040642">
        <ele>255.058535</ele>
        <time>2026-05-02T12:15:21.555Z</time>
      </trkpt>
      <trkpt lat="45.626159" lon="9.040627">
        <ele>255.039479</ele>
        <time>2026-05-02T12:15:23.555Z</time>
      </trkpt>
      <trkpt lat="45.626065" lon="9.040622">
        <ele>255.021474</ele>
        <time>2026-05-02T12:15:25.558Z</time>
      </trkpt>
      <trkpt lat="45.625935" lon="9.040574">
        <ele>254.995774</ele>
        <time>2026-05-02T12:15:28.556Z</time>
      </trkpt>
      <trkpt lat="45.625838" lon="9.040546">
        <ele>254.976833</ele>
        <time>2026-05-02T12:15:30.560Z</time>
      </trkpt>
      <trkpt lat="45.625741" lon="9.040535">
        <ele>254.958207</ele>
        <time>2026-05-02T12:15:32.563Z</time>
      </trkpt>
      <trkpt lat="45.625646" lon="9.040516">
        <ele>254.942461</ele>
        <time>2026-05-02T12:15:34.557Z</time>
      </trkpt>
      <trkpt lat="45.625542" lon="9.040510">
        <ele>254.991780</ele>
        <time>2026-05-02T12:15:36.557Z</time>
      </trkpt>
      <trkpt lat="45.625450" lon="9.040486">
        <ele>255.036092</ele>
        <time>2026-05-02T12:15:38.554Z</time>
      </trkpt>
      <trkpt lat="45.625351" lon="9.040462">
        <ele>255.083670</ele>
        <time>2026-05-02T12:15:40.558Z</time>
      </trkpt>
      <trkpt lat="45.625255" lon="9.040439">
        <ele>255.129792</ele>
        <time>2026-05-02T12:15:43.560Z</time>
      </trkpt>
      <trkpt lat="45.625163" lon="9.040433">
        <ele>255.173429</ele>
        <time>2026-05-02T12:15:46.567Z</time>
      </trkpt>
      <trkpt lat="45.625036" lon="9.040419">
        <ele>255.233784</ele>
        <time>2026-05-02T12:15:49.558Z</time>
      </trkpt>
      <trkpt lat="45.624937" lon="9.040396">
        <ele>255.281309</ele>
        <time>2026-05-02T12:15:51.558Z</time>
      </trkpt>
      <trkpt lat="45.624836" lon="9.040377">
        <ele>255.329578</ele>
        <time>2026-05-02T12:15:53.563Z</time>
      </trkpt>
      <trkpt lat="45.624735" lon="9.040358">
        <ele>255.377847</ele>
        <time>2026-05-02T12:15:55.556Z</time>
      </trkpt>
      <trkpt lat="45.624639" lon="9.040345">
        <ele>255.423538</ele>
        <time>2026-05-02T12:15:57.555Z</time>
      </trkpt>
      <trkpt lat="45.624540" lon="9.040332">
        <ele>255.470644</ele>
        <time>2026-05-02T12:15:59.559Z</time>
      </trkpt>
      <trkpt lat="45.624444" lon="9.040310">
        <ele>255.516713</ele>
        <time>2026-05-02T12:16:01.569Z</time>
      </trkpt>
      <trkpt lat="45.624351" lon="9.040287">
        <ele>255.561433</ele>
        <time>2026-05-02T12:16:03.555Z</time>
      </trkpt>
      <trkpt lat="45.624260" lon="9.040262">
        <ele>255.605340</ele>
        <time>2026-05-02T12:16:05.552Z</time>
      </trkpt>
      <trkpt lat="45.624162" lon="9.040235">
        <ele>255.652629</ele>
        <time>2026-05-02T12:16:07.560Z</time>
      </trkpt>
      <trkpt lat="45.624038" lon="9.040194">
        <ele>255.712935</ele>
        <time>2026-05-02T12:16:10.557Z</time>
      </trkpt>
      <trkpt lat="45.623984" lon="9.040087">
        <ele>255.756660</ele>
        <time>2026-05-02T12:16:14.559Z</time>
      </trkpt>
      <trkpt lat="45.623991" lon="9.039934">
        <ele>255.809813</ele>
        <time>2026-05-02T12:16:17.559Z</time>
      </trkpt>
      <trkpt lat="45.623991" lon="9.039753">
        <ele>255.879405</ele>
        <time>2026-05-02T12:16:20.551Z</time>
      </trkpt>
      <trkpt lat="45.623995" lon="9.039622">
        <ele>255.929821</ele>
        <time>2026-05-02T12:16:22.561Z</time>
      </trkpt>
      <trkpt lat="45.624006" lon="9.039492">
        <ele>255.980168</ele>
        <time>2026-05-02T12:16:24.561Z</time>
      </trkpt>
      <trkpt lat="45.624020" lon="9.039304">
        <ele>256.052860</ele>
        <time>2026-05-02T12:16:27.561Z</time>
      </trkpt>
      <trkpt lat="45.624035" lon="9.039111">
        <ele>256.127523</ele>
        <time>2026-05-02T12:16:30.567Z</time>
      </trkpt>
      <trkpt lat="45.624039" lon="9.038968">
        <ele>256.182548</ele>
        <time>2026-05-02T12:16:32.560Z</time>
      </trkpt>
      <trkpt lat="45.624045" lon="9.038824">
        <ele>256.238012</ele>
        <time>2026-05-02T12:16:34.557Z</time>
      </trkpt>
      <trkpt lat="45.624045" lon="9.038682">
        <ele>256.292609</ele>
        <time>2026-05-02T12:16:36.558Z</time>
      </trkpt>
      <trkpt lat="45.624055" lon="9.038544">
        <ele>256.345953</ele>
        <time>2026-05-02T12:16:38.557Z</time>
      </trkpt>
      <trkpt lat="45.624065" lon="9.038405">
        <ele>256.399678</ele>
        <time>2026-05-02T12:16:40.558Z</time>
      </trkpt>
      <trkpt lat="45.624071" lon="9.038272">
        <ele>256.450921</ele>
        <time>2026-05-02T12:16:42.565Z</time>
      </trkpt>
      <trkpt lat="45.624073" lon="9.038133">
        <ele>256.504376</ele>
        <time>2026-05-02T12:16:44.559Z</time>
      </trkpt>
      <trkpt lat="45.624074" lon="9.037993">
        <ele>256.558207</ele>
        <time>2026-05-02T12:16:46.557Z</time>
      </trkpt>
      <trkpt lat="45.624078" lon="9.037849">
        <ele>256.613616</ele>
        <time>2026-05-02T12:16:48.556Z</time>
      </trkpt>
      <trkpt lat="45.624078" lon="9.037705">
        <ele>256.668982</ele>
        <time>2026-05-02T12:16:50.557Z</time>
      </trkpt>
      <trkpt lat="45.624077" lon="9.037559">
        <ele>256.725120</ele>
        <time>2026-05-02T12:16:52.555Z</time>
      </trkpt>
      <trkpt lat="45.624078" lon="9.037412">
        <ele>256.781642</ele>
        <time>2026-05-02T12:16:54.563Z</time>
      </trkpt>
      <trkpt lat="45.624085" lon="9.037274">
        <ele>256.621659</ele>
        <time>2026-05-02T12:16:56.573Z</time>
      </trkpt>
      <trkpt lat="45.624091" lon="9.037138">
        <ele>256.463942</ele>
        <time>2026-05-02T12:16:58.563Z</time>
      </trkpt>
      <trkpt lat="45.624107" lon="9.037011">
        <ele>256.314588</ele>
        <time>2026-05-02T12:17:00.559Z</time>
      </trkpt>
      <trkpt lat="45.624110" lon="9.036876">
        <ele>256.158263</ele>
        <time>2026-05-02T12:17:02.565Z</time>
      </trkpt>
      <trkpt lat="45.624113" lon="9.036688">
        <ele>255.940619</ele>
        <time>2026-05-02T12:17:05.563Z</time>
      </trkpt>
      <trkpt lat="45.624120" lon="9.036519">
        <ele>255.744679</ele>
        <time>2026-05-02T12:17:08.563Z</time>
      </trkpt>
      <trkpt lat="45.624129" lon="9.036356">
        <ele>255.555438</ele>
        <time>2026-05-02T12:17:11.562Z</time>
      </trkpt>
      <trkpt lat="45.624149" lon="9.036204">
        <ele>255.376430</ele>
        <time>2026-05-02T12:17:14.555Z</time>
      </trkpt>
      <trkpt lat="45.624155" lon="9.036046">
        <ele>255.193295</ele>
        <time>2026-05-02T12:17:17.563Z</time>
      </trkpt>
      <trkpt lat="45.624178" lon="9.035880">
        <ele>254.997435</ele>
        <time>2026-05-02T12:17:20.569Z</time>
      </trkpt>
      <trkpt lat="45.624147" lon="9.035707">
        <ele>254.790741</ele>
        <time>2026-05-02T12:17:23.558Z</time>
      </trkpt>
      <trkpt lat="45.624045" lon="9.035622">
        <ele>254.595365</ele>
        <time>2026-05-02T12:17:26.562Z</time>
      </trkpt>
      <trkpt lat="45.623921" lon="9.035596">
        <ele>254.387961</ele>
        <time>2026-05-02T12:17:28.560Z</time>
      </trkpt>
      <trkpt lat="45.623820" lon="9.035566">
        <ele>254.217247</ele>
        <time>2026-05-02T12:17:30.568Z</time>
      </trkpt>
      <trkpt lat="45.623726" lon="9.035540">
        <ele>254.058802</ele>
        <time>2026-05-02T12:17:32.577Z</time>
      </trkpt>
      <trkpt lat="45.623635" lon="9.035511">
        <ele>253.904510</ele>
        <time>2026-05-02T12:17:34.561Z</time>
      </trkpt>
      <trkpt lat="45.623504" lon="9.035474">
        <ele>253.484865</ele>
        <time>2026-05-02T12:17:37.559Z</time>
      </trkpt>
      <trkpt lat="45.623415" lon="9.035440">
        <ele>253.083264</ele>
        <time>2026-05-02T12:17:39.566Z</time>
      </trkpt>
      <trkpt lat="45.623313" lon="9.035404">
        <ele>252.625254</ele>
        <time>2026-05-02T12:17:41.560Z</time>
      </trkpt>
      <trkpt lat="45.623212" lon="9.035373">
        <ele>252.174919</ele>
        <time>2026-05-02T12:17:43.567Z</time>
      </trkpt>
      <trkpt lat="45.623079" lon="9.035335">
        <ele>251.583649</ele>
        <time>2026-05-02T12:17:46.560Z</time>
      </trkpt>
      <trkpt lat="45.622944" lon="9.035289">
        <ele>250.978642</ele>
        <time>2026-05-02T12:17:49.560Z</time>
      </trkpt>
      <trkpt lat="45.622854" lon="9.035266">
        <ele>250.580074</ele>
        <time>2026-05-02T12:17:51.565Z</time>
      </trkpt>
      <trkpt lat="45.622749" lon="9.035230">
        <ele>250.109355</ele>
        <time>2026-05-02T12:17:53.557Z</time>
      </trkpt>
      <trkpt lat="45.622621" lon="9.035184">
        <ele>249.533990</ele>
        <time>2026-05-02T12:17:55.560Z</time>
      </trkpt>
      <trkpt lat="45.622473" lon="9.035136">
        <ele>248.872401</ele>
        <time>2026-05-02T12:17:57.564Z</time>
      </trkpt>
      <trkpt lat="45.622315" lon="9.035093">
        <ele>248.171241</ele>
        <time>2026-05-02T12:17:59.562Z</time>
      </trkpt>
      <trkpt lat="45.622170" lon="9.035025">
        <ele>247.505988</ele>
        <time>2026-05-02T12:18:01.563Z</time>
      </trkpt>
      <trkpt lat="45.622032" lon="9.034982">
        <ele>246.890263</ele>
        <time>2026-05-02T12:18:03.570Z</time>
      </trkpt>
      <trkpt lat="45.621901" lon="9.034940">
        <ele>246.304994</ele>
        <time>2026-05-02T12:18:05.557Z</time>
      </trkpt>
      <trkpt lat="45.621789" lon="9.034903">
        <ele>245.988318</ele>
        <time>2026-05-02T12:18:07.557Z</time>
      </trkpt>
      <trkpt lat="45.621679" lon="9.034881">
        <ele>246.061900</ele>
        <time>2026-05-02T12:18:09.560Z</time>
      </trkpt>
      <trkpt lat="45.621552" lon="9.034855">
        <ele>246.146893</ele>
        <time>2026-05-02T12:18:12.561Z</time>
      </trkpt>
      <trkpt lat="45.621463" lon="9.034815">
        <ele>246.208698</ele>
        <time>2026-05-02T12:18:14.562Z</time>
      </trkpt>
      <trkpt lat="45.621374" lon="9.034783">
        <ele>246.269494</ele>
        <time>2026-05-02T12:18:16.559Z</time>
      </trkpt>
      <trkpt lat="45.621273" lon="9.034744">
        <ele>246.338801</ele>
        <time>2026-05-02T12:18:18.554Z</time>
      </trkpt>
      <trkpt lat="45.621178" lon="9.034710">
        <ele>246.403678</ele>
        <time>2026-05-02T12:18:20.561Z</time>
      </trkpt>
      <trkpt lat="45.621082" lon="9.034680">
        <ele>246.468777</ele>
        <time>2026-05-02T12:18:22.559Z</time>
      </trkpt>
      <trkpt lat="45.620986" lon="9.034644">
        <ele>246.534526</ele>
        <time>2026-05-02T12:18:24.560Z</time>
      </trkpt>
      <trkpt lat="45.620885" lon="9.034606">
        <ele>246.603714</ele>
        <time>2026-05-02T12:18:26.559Z</time>
      </trkpt>
      <trkpt lat="45.620781" lon="9.034569">
        <ele>246.674713</ele>
        <time>2026-05-02T12:18:28.560Z</time>
      </trkpt>
      <trkpt lat="45.620675" lon="9.034558">
        <ele>246.745120</ele>
        <time>2026-05-02T12:18:30.566Z</time>
      </trkpt>
      <trkpt lat="45.620570" lon="9.034532">
        <ele>246.815716</ele>
        <time>2026-05-02T12:18:32.559Z</time>
      </trkpt>
      <trkpt lat="45.620468" lon="9.034521">
        <ele>246.883480</ele>
        <time>2026-05-02T12:18:34.566Z</time>
      </trkpt>
      <trkpt lat="45.620369" lon="9.034512">
        <ele>246.949198</ele>
        <time>2026-05-02T12:18:36.558Z</time>
      </trkpt>
      <trkpt lat="45.620274" lon="9.034505">
        <ele>247.012217</ele>
        <time>2026-05-02T12:18:38.561Z</time>
      </trkpt>
      <trkpt lat="45.620178" lon="9.034464">
        <ele>247.078591</ele>
        <time>2026-05-02T12:18:40.555Z</time>
      </trkpt>
      <trkpt lat="45.620082" lon="9.034433">
        <ele>247.143791</ele>
        <time>2026-05-02T12:18:42.565Z</time>
      </trkpt>
      <trkpt lat="45.619992" lon="9.034406">
        <ele>247.193338</ele>
        <time>2026-05-02T12:18:44.549Z</time>
      </trkpt>
      <trkpt lat="45.619897" lon="9.034392">
        <ele>247.241969</ele>
        <time>2026-05-02T12:18:46.559Z</time>
      </trkpt>
      <trkpt lat="45.619797" lon="9.034362">
        <ele>247.293999</ele>
        <time>2026-05-02T12:18:48.565Z</time>
      </trkpt>
      <trkpt lat="45.619686" lon="9.034314">
        <ele>247.353050</ele>
        <time>2026-05-02T12:18:50.565Z</time>
      </trkpt>
      <trkpt lat="45.619560" lon="9.034278">
        <ele>247.418479</ele>
        <time>2026-05-02T12:18:53.563Z</time>
      </trkpt>
      <trkpt lat="45.619447" lon="9.034229">
        <ele>247.478608</ele>
        <time>2026-05-02T12:18:55.564Z</time>
      </trkpt>
      <trkpt lat="45.619356" lon="9.034213">
        <ele>247.525295</ele>
        <time>2026-05-02T12:18:57.566Z</time>
      </trkpt>
      <trkpt lat="45.619259" lon="9.034186">
        <ele>247.575616</ele>
        <time>2026-05-02T12:18:59.564Z</time>
      </trkpt>
      <trkpt lat="45.619148" lon="9.034146">
        <ele>247.633906</ele>
        <time>2026-05-02T12:19:01.562Z</time>
      </trkpt>
      <trkpt lat="45.619048" lon="9.034109">
        <ele>247.686505</ele>
        <time>2026-05-02T12:19:03.569Z</time>
      </trkpt>
      <trkpt lat="45.618948" lon="9.034081">
        <ele>247.738393</ele>
        <time>2026-05-02T12:19:05.561Z</time>
      </trkpt>
      <trkpt lat="45.618847" lon="9.034060">
        <ele>247.790364</ele>
        <time>2026-05-02T12:19:07.560Z</time>
      </trkpt>
      <trkpt lat="45.618724" lon="9.033998">
        <ele>247.856776</ele>
        <time>2026-05-02T12:19:10.558Z</time>
      </trkpt>
      <trkpt lat="45.618598" lon="9.033952">
        <ele>247.922995</ele>
        <time>2026-05-02T12:19:13.560Z</time>
      </trkpt>
      <trkpt lat="45.618494" lon="9.033916">
        <ele>247.977483</ele>
        <time>2026-05-02T12:19:15.562Z</time>
      </trkpt>
      <trkpt lat="45.618397" lon="9.033894">
        <ele>248.027494</ele>
        <time>2026-05-02T12:19:17.556Z</time>
      </trkpt>
      <trkpt lat="45.618302" lon="9.033856">
        <ele>248.072673</ele>
        <time>2026-05-02T12:19:19.559Z</time>
      </trkpt>
      <trkpt lat="45.618155" lon="9.033813">
        <ele>248.087712</ele>
        <time>2026-05-02T12:19:22.567Z</time>
      </trkpt>
      <trkpt lat="45.618055" lon="9.033776">
        <ele>248.098064</ele>
        <time>2026-05-02T12:19:24.559Z</time>
      </trkpt>
      <trkpt lat="45.617925" lon="9.033736">
        <ele>248.111392</ele>
        <time>2026-05-02T12:19:27.559Z</time>
      </trkpt>
      <trkpt lat="45.617835" lon="9.033709">
        <ele>248.120609</ele>
        <time>2026-05-02T12:19:29.566Z</time>
      </trkpt>
      <trkpt lat="45.617745" lon="9.033681">
        <ele>248.129840</ele>
        <time>2026-05-02T12:19:31.559Z</time>
      </trkpt>
      <trkpt lat="45.617654" lon="9.033656">
        <ele>248.139127</ele>
        <time>2026-05-02T12:19:33.565Z</time>
      </trkpt>
      <trkpt lat="45.617531" lon="9.033625">
        <ele>248.151645</ele>
        <time>2026-05-02T12:19:36.565Z</time>
      </trkpt>
      <trkpt lat="45.617415" lon="9.033598">
        <ele>248.163424</ele>
        <time>2026-05-02T12:19:39.560Z</time>
      </trkpt>
      <trkpt lat="45.617289" lon="9.033541">
        <ele>248.176669</ele>
        <time>2026-05-02T12:19:42.561Z</time>
      </trkpt>
      <trkpt lat="45.617184" lon="9.033511">
        <ele>248.187401</ele>
        <time>2026-05-02T12:19:44.573Z</time>
      </trkpt>
      <trkpt lat="45.617083" lon="9.033474">
        <ele>248.197851</ele>
        <time>2026-05-02T12:19:46.561Z</time>
      </trkpt>
      <trkpt lat="45.616984" lon="9.033442">
        <ele>248.208024</ele>
        <time>2026-05-02T12:19:48.560Z</time>
      </trkpt>
      <trkpt lat="45.616885" lon="9.033408">
        <ele>248.218228</ele>
        <time>2026-05-02T12:19:50.558Z</time>
      </trkpt>
      <trkpt lat="45.616755" lon="9.033362">
        <ele>248.231650</ele>
        <time>2026-05-02T12:19:53.556Z</time>
      </trkpt>
      <trkpt lat="45.616624" lon="9.033320">
        <ele>248.245106</ele>
        <time>2026-05-02T12:19:56.563Z</time>
      </trkpt>
      <trkpt lat="45.616522" lon="9.033277">
        <ele>248.270026</ele>
        <time>2026-05-02T12:19:58.555Z</time>
      </trkpt>
      <trkpt lat="45.616423" lon="9.033250">
        <ele>248.315608</ele>
        <time>2026-05-02T12:20:00.564Z</time>
      </trkpt>
      <trkpt lat="45.616316" lon="9.033215">
        <ele>248.365251</ele>
        <time>2026-05-02T12:20:02.563Z</time>
      </trkpt>
      <trkpt lat="45.616213" lon="9.033177">
        <ele>248.413361</ele>
        <time>2026-05-02T12:20:04.559Z</time>
      </trkpt>
      <trkpt lat="45.616126" lon="9.033143">
        <ele>248.454152</ele>
        <time>2026-05-02T12:20:06.561Z</time>
      </trkpt>
      <trkpt lat="45.616008" lon="9.033133">
        <ele>248.507614</ele>
        <time>2026-05-02T12:20:09.557Z</time>
      </trkpt>
      <trkpt lat="45.615895" lon="9.033091">
        <ele>248.560419</ele>
        <time>2026-05-02T12:20:12.563Z</time>
      </trkpt>
      <trkpt lat="45.615776" lon="9.033047">
        <ele>248.616010</ele>
        <time>2026-05-02T12:20:15.554Z</time>
      </trkpt>
      <trkpt lat="45.615678" lon="9.033099">
        <ele>248.663287</ele>
        <time>2026-05-02T12:20:18.562Z</time>
      </trkpt>
      <trkpt lat="45.615605" lon="9.033173">
        <ele>248.703760</ele>
        <time>2026-05-02T12:20:22.555Z</time>
      </trkpt>
      <trkpt lat="45.615513" lon="9.033135">
        <ele>248.747070</ele>
        <time>2026-05-02T12:20:25.559Z</time>
      </trkpt>
      <trkpt lat="45.615404" lon="9.033125">
        <ele>248.796469</ele>
        <time>2026-05-02T12:20:28.560Z</time>
      </trkpt>
      <trkpt lat="45.615297" lon="9.033166">
        <ele>248.846570</ele>
        <time>2026-05-02T12:20:31.558Z</time>
      </trkpt>
      <trkpt lat="45.615188" lon="9.033247">
        <ele>248.902129</ele>
        <time>2026-05-02T12:20:34.563Z</time>
      </trkpt>
      <trkpt lat="45.615072" lon="9.033331">
        <ele>248.960939</ele>
        <time>2026-05-02T12:20:37.560Z</time>
      </trkpt>
      <trkpt lat="45.614953" lon="9.033412">
        <ele>249.020547</ele>
        <time>2026-05-02T12:20:40.560Z</time>
      </trkpt>
      <trkpt lat="45.614842" lon="9.033493">
        <ele>249.029053</ele>
        <time>2026-05-02T12:20:43.565Z</time>
      </trkpt>
      <trkpt lat="45.614731" lon="9.033583">
        <ele>248.851404</ele>
        <time>2026-05-02T12:20:46.561Z</time>
      </trkpt>
      <trkpt lat="45.614632" lon="9.033669">
        <ele>248.690134</ele>
        <time>2026-05-02T12:20:49.564Z</time>
      </trkpt>
      <trkpt lat="45.614521" lon="9.033725">
        <ele>248.526267</ele>
        <time>2026-05-02T12:20:52.555Z</time>
      </trkpt>
      <trkpt lat="45.614426" lon="9.033812">
        <ele>248.369206</ele>
        <time>2026-05-02T12:20:55.561Z</time>
      </trkpt>
      <trkpt lat="45.614317" lon="9.033899">
        <ele>248.195415</ele>
        <time>2026-05-02T12:20:58.563Z</time>
      </trkpt>
      <trkpt lat="45.614209" lon="9.033985">
        <ele>248.023315</ele>
        <time>2026-05-02T12:21:01.562Z</time>
      </trkpt>
      <trkpt lat="45.614088" lon="9.034063">
        <ele>247.838533</ele>
        <time>2026-05-02T12:21:04.565Z</time>
      </trkpt>
      <trkpt lat="45.613977" lon="9.034144">
        <ele>247.665039</ele>
        <time>2026-05-02T12:21:07.567Z</time>
      </trkpt>
      <trkpt lat="45.613868" lon="9.034226">
        <ele>247.493569</ele>
        <time>2026-05-02T12:21:10.560Z</time>
      </trkpt>
      <trkpt lat="45.613763" lon="9.034298">
        <ele>247.331449</ele>
        <time>2026-05-02T12:21:13.559Z</time>
      </trkpt>
      <trkpt lat="45.613671" lon="9.034369">
        <ele>247.185903</ele>
        <time>2026-05-02T12:21:16.560Z</time>
      </trkpt>
      <trkpt lat="45.613603" lon="9.034241">
        <ele>247.029384</ele>
        <time>2026-05-02T12:21:25.560Z</time>
      </trkpt>
      <trkpt lat="45.613530" lon="9.034129">
        <ele>246.880311</ele>
        <time>2026-05-02T12:21:29.561Z</time>
      </trkpt>
      <trkpt lat="45.613409" lon="9.034211">
        <ele>246.693894</ele>
        <time>2026-05-02T12:21:32.567Z</time>
      </trkpt>
      <trkpt lat="45.613301" lon="9.034284">
        <ele>246.522674</ele>
        <time>2026-05-02T12:21:35.559Z</time>
      </trkpt>
      <trkpt lat="45.613205" lon="9.034342">
        <ele>246.356397</ele>
        <time>2026-05-02T12:21:38.560Z</time>
      </trkpt>
      <trkpt lat="45.613114" lon="9.034317">
        <ele>246.208558</ele>
        <time>2026-05-02T12:21:41.565Z</time>
      </trkpt>
      <trkpt lat="45.613002" lon="9.034274">
        <ele>246.023539</ele>
        <time>2026-05-02T12:21:44.563Z</time>
      </trkpt>
      <trkpt lat="45.612900" lon="9.034191">
        <ele>245.836290</ele>
        <time>2026-05-02T12:21:47.560Z</time>
      </trkpt>
      <trkpt lat="45.612781" lon="9.034225">
        <ele>245.642680</ele>
        <time>2026-05-02T12:21:51.563Z</time>
      </trkpt>
      <trkpt lat="45.612691" lon="9.034257">
        <ele>245.494718</ele>
        <time>2026-05-02T12:21:54.561Z</time>
      </trkpt>
      <trkpt lat="45.612662" lon="9.034385">
        <ele>245.344563</ele>
        <time>2026-05-02T12:21:57.565Z</time>
      </trkpt>
      <trkpt lat="45.612563" lon="9.034448">
        <ele>245.171675</ele>
        <time>2026-05-02T12:22:25.567Z</time>
      </trkpt>
      <trkpt lat="45.612657" lon="9.034403">
        <ele>245.013520</ele>
        <time>2026-05-02T12:22:29.555Z</time>
      </trkpt>
      <trkpt lat="45.612694" lon="9.034246">
        <ele>244.828630</ele>
        <time>2026-05-02T12:22:33.558Z</time>
      </trkpt>
      <trkpt lat="45.612708" lon="9.034404">
        <ele>244.650892</ele>
        <time>2026-05-02T12:22:39.554Z</time>
      </trkpt>
      <trkpt lat="45.612657" lon="9.034547">
        <ele>244.471758</ele>
        <time>2026-05-02T12:22:42.564Z</time>
      </trkpt>
      <trkpt lat="45.612638" lon="9.034708">
        <ele>244.289542</ele>
        <time>2026-05-02T12:22:45.561Z</time>
      </trkpt>
      <trkpt lat="45.612606" lon="9.034885">
        <ele>244.085517</ele>
        <time>2026-05-02T12:22:48.559Z</time>
      </trkpt>
      <trkpt lat="45.612541" lon="9.034983">
        <ele>243.934800</ele>
        <time>2026-05-02T12:22:50.561Z</time>
      </trkpt>
      <trkpt lat="45.612462" lon="9.035045">
        <ele>243.791018</ele>
        <time>2026-05-02T12:22:52.564Z</time>
      </trkpt>
      <trkpt lat="45.612341" lon="9.035138">
        <ele>243.629979</ele>
        <time>2026-05-02T12:22:55.561Z</time>
      </trkpt>
      <trkpt lat="45.612226" lon="9.035238">
        <ele>243.519465</ele>
        <time>2026-05-02T12:22:58.576Z</time>
      </trkpt>
      <trkpt lat="45.612135" lon="9.035300">
        <ele>243.436700</ele>
        <time>2026-05-02T12:23:00.559Z</time>
      </trkpt>
      <trkpt lat="45.612051" lon="9.035370">
        <ele>243.356871</ele>
        <time>2026-05-02T12:23:02.568Z</time>
      </trkpt>
      <trkpt lat="45.611953" lon="9.035472">
        <ele>243.257343</ele>
        <time>2026-05-02T12:23:05.562Z</time>
      </trkpt>
      <trkpt lat="45.611871" lon="9.035532">
        <ele>243.181712</ele>
        <time>2026-05-02T12:23:07.561Z</time>
      </trkpt>
      <trkpt lat="45.611783" lon="9.035588">
        <ele>243.102626</ele>
        <time>2026-05-02T12:23:09.559Z</time>
      </trkpt>
      <trkpt lat="45.611692" lon="9.035649">
        <ele>243.020106</ele>
        <time>2026-05-02T12:23:11.560Z</time>
      </trkpt>
      <trkpt lat="45.611601" lon="9.035714">
        <ele>242.936584</ele>
        <time>2026-05-02T12:23:13.557Z</time>
      </trkpt>
      <trkpt lat="45.611518" lon="9.035786">
        <ele>242.856874</ele>
        <time>2026-05-02T12:23:15.556Z</time>
      </trkpt>
      <trkpt lat="45.611436" lon="9.035848">
        <ele>242.780712</ele>
        <time>2026-05-02T12:23:17.562Z</time>
      </trkpt>
      <trkpt lat="45.611351" lon="9.035919">
        <ele>242.699884</ele>
        <time>2026-05-02T12:23:19.561Z</time>
      </trkpt>
      <trkpt lat="45.611259" lon="9.035987">
        <ele>242.614850</ele>
        <time>2026-05-02T12:23:21.560Z</time>
      </trkpt>
      <trkpt lat="45.611162" lon="9.036056">
        <ele>242.525895</ele>
        <time>2026-05-02T12:23:23.559Z</time>
      </trkpt>
      <trkpt lat="45.611068" lon="9.036122">
        <ele>242.439911</ele>
        <time>2026-05-02T12:23:25.561Z</time>
      </trkpt>
      <trkpt lat="45.610983" lon="9.036180">
        <ele>242.362581</ele>
        <time>2026-05-02T12:23:27.564Z</time>
      </trkpt>
      <trkpt lat="45.610889" lon="9.036241">
        <ele>242.277824</ele>
        <time>2026-05-02T12:23:29.568Z</time>
      </trkpt>
      <trkpt lat="45.610803" lon="9.036315">
        <ele>242.203915</ele>
        <time>2026-05-02T12:23:31.564Z</time>
      </trkpt>
      <trkpt lat="45.610713" lon="9.036377">
        <ele>242.157727</ele>
        <time>2026-05-02T12:23:33.568Z</time>
      </trkpt>
      <trkpt lat="45.610624" lon="9.036440">
        <ele>242.111812</ele>
        <time>2026-05-02T12:23:35.570Z</time>
      </trkpt>
      <trkpt lat="45.610536" lon="9.036515">
        <ele>242.064446</ele>
        <time>2026-05-02T12:23:37.564Z</time>
      </trkpt>
      <trkpt lat="45.610442" lon="9.036574">
        <ele>242.016984</ele>
        <time>2026-05-02T12:23:39.562Z</time>
      </trkpt>
      <trkpt lat="45.610358" lon="9.036641">
        <ele>241.972513</ele>
        <time>2026-05-02T12:23:41.561Z</time>
      </trkpt>
      <trkpt lat="45.610279" lon="9.036706">
        <ele>241.930372</ele>
        <time>2026-05-02T12:23:43.562Z</time>
      </trkpt>
      <trkpt lat="45.610188" lon="9.036766">
        <ele>241.884041</ele>
        <time>2026-05-02T12:23:45.563Z</time>
      </trkpt>
      <trkpt lat="45.610097" lon="9.036833">
        <ele>241.836718</ele>
        <time>2026-05-02T12:23:47.563Z</time>
      </trkpt>
      <trkpt lat="45.610003" lon="9.036896">
        <ele>241.788721</ele>
        <time>2026-05-02T12:23:49.570Z</time>
      </trkpt>
      <trkpt lat="45.609920" lon="9.036960">
        <ele>241.745122</ele>
        <time>2026-05-02T12:23:51.564Z</time>
      </trkpt>
      <trkpt lat="45.609804" lon="9.037056">
        <ele>241.683154</ele>
        <time>2026-05-02T12:23:54.568Z</time>
      </trkpt>
      <trkpt lat="45.609721" lon="9.037109">
        <ele>241.641127</ele>
        <time>2026-05-02T12:23:56.563Z</time>
      </trkpt>
      <trkpt lat="45.609595" lon="9.037195">
        <ele>241.576576</ele>
        <time>2026-05-02T12:23:59.567Z</time>
      </trkpt>
      <trkpt lat="45.609495" lon="9.037238">
        <ele>241.528297</ele>
        <time>2026-05-02T12:24:01.563Z</time>
      </trkpt>
      <trkpt lat="45.609406" lon="9.037253">
        <ele>241.486866</ele>
        <time>2026-05-02T12:24:03.555Z</time>
      </trkpt>
      <trkpt lat="45.609304" lon="9.037257">
        <ele>241.439692</ele>
        <time>2026-05-02T12:24:05.569Z</time>
      </trkpt>
      <trkpt lat="45.609204" lon="9.037256">
        <ele>241.393459</ele>
        <time>2026-05-02T12:24:07.559Z</time>
      </trkpt>
      <trkpt lat="45.609109" lon="9.037250">
        <ele>241.288770</ele>
        <time>2026-05-02T12:24:09.557Z</time>
      </trkpt>
      <trkpt lat="45.609013" lon="9.037274">
        <ele>241.162842</ele>
        <time>2026-05-02T12:24:11.555Z</time>
      </trkpt>
      <trkpt lat="45.608903" lon="9.037315">
        <ele>241.015953</ele>
        <time>2026-05-02T12:24:13.565Z</time>
      </trkpt>
      <trkpt lat="45.608798" lon="9.037348">
        <ele>240.877037</ele>
        <time>2026-05-02T12:24:15.559Z</time>
      </trkpt>
      <trkpt lat="45.608692" lon="9.037371">
        <ele>240.738501</ele>
        <time>2026-05-02T12:24:17.559Z</time>
      </trkpt>
      <trkpt lat="45.608604" lon="9.037448">
        <ele>240.605181</ele>
        <time>2026-05-02T12:24:19.560Z</time>
      </trkpt>
      <trkpt lat="45.608554" lon="9.037570">
        <ele>240.477370</ele>
        <time>2026-05-02T12:24:21.565Z</time>
      </trkpt>
      <trkpt lat="45.608539" lon="9.037710">
        <ele>240.349344</ele>
        <time>2026-05-02T12:24:23.557Z</time>
      </trkpt>
      <trkpt lat="45.608522" lon="9.037865">
        <ele>240.207523</ele>
        <time>2026-05-02T12:24:25.561Z</time>
      </trkpt>
      <trkpt lat="45.608471" lon="9.038006">
        <ele>240.064040</ele>
        <time>2026-05-02T12:24:27.564Z</time>
      </trkpt>
      <trkpt lat="45.608387" lon="9.038098">
        <ele>239.927303</ele>
        <time>2026-05-02T12:24:29.564Z</time>
      </trkpt>
      <trkpt lat="45.608287" lon="9.038170">
        <ele>239.782624</ele>
        <time>2026-05-02T12:24:31.559Z</time>
      </trkpt>
      <trkpt lat="45.608184" lon="9.038246">
        <ele>239.632848</ele>
        <time>2026-05-02T12:24:33.563Z</time>
      </trkpt>
      <trkpt lat="45.608078" lon="9.038322">
        <ele>239.479617</ele>
        <time>2026-05-02T12:24:35.561Z</time>
      </trkpt>
      <trkpt lat="45.607970" lon="9.038407">
        <ele>239.320311</ele>
        <time>2026-05-02T12:24:37.560Z</time>
      </trkpt>
      <trkpt lat="45.607862" lon="9.038483">
        <ele>239.164766</ele>
        <time>2026-05-02T12:24:39.563Z</time>
      </trkpt>
      <trkpt lat="45.607759" lon="9.038556">
        <ele>239.048576</ele>
        <time>2026-05-02T12:24:41.570Z</time>
      </trkpt>
      <trkpt lat="45.607647" lon="9.038635">
        <ele>239.008650</ele>
        <time>2026-05-02T12:24:43.565Z</time>
      </trkpt>
      <trkpt lat="45.607532" lon="9.038717">
        <ele>238.967567</ele>
        <time>2026-05-02T12:24:45.570Z</time>
      </trkpt>
      <trkpt lat="45.607425" lon="9.038801">
        <ele>238.928542</ele>
        <time>2026-05-02T12:24:47.562Z</time>
      </trkpt>
      <trkpt lat="45.607319" lon="9.038872">
        <ele>238.891120</ele>
        <time>2026-05-02T12:24:49.570Z</time>
      </trkpt>
      <trkpt lat="45.607230" lon="9.038943">
        <ele>238.858537</ele>
        <time>2026-05-02T12:24:51.563Z</time>
      </trkpt>
      <trkpt lat="45.607120" lon="9.039032">
        <ele>238.818130</ele>
        <time>2026-05-02T12:24:53.563Z</time>
      </trkpt>
      <trkpt lat="45.607010" lon="9.039104">
        <ele>238.779453</ele>
        <time>2026-05-02T12:24:55.556Z</time>
      </trkpt>
      <trkpt lat="45.606910" lon="9.039182">
        <ele>238.743035</ele>
        <time>2026-05-02T12:24:57.563Z</time>
      </trkpt>
      <trkpt lat="45.606820" lon="9.039246">
        <ele>238.710900</ele>
        <time>2026-05-02T12:24:59.560Z</time>
      </trkpt>
      <trkpt lat="45.606712" lon="9.039324">
        <ele>238.672218</ele>
        <time>2026-05-02T12:25:01.548Z</time>
      </trkpt>
      <trkpt lat="45.606600" lon="9.039389">
        <ele>238.633575</ele>
        <time>2026-05-02T12:25:03.560Z</time>
      </trkpt>
      <trkpt lat="45.606500" lon="9.039471">
        <ele>238.596720</ele>
        <time>2026-05-02T12:25:05.560Z</time>
      </trkpt>
      <trkpt lat="45.606415" lon="9.039548">
        <ele>238.564550</ele>
        <time>2026-05-02T12:25:07.560Z</time>
      </trkpt>
      <trkpt lat="45.606311" lon="9.039630">
        <ele>238.526580</ele>
        <time>2026-05-02T12:25:09.572Z</time>
      </trkpt>
      <trkpt lat="45.606198" lon="9.039709">
        <ele>238.486367</ele>
        <time>2026-05-02T12:25:11.567Z</time>
      </trkpt>
      <trkpt lat="45.606086" lon="9.039788">
        <ele>238.379405</ele>
        <time>2026-05-02T12:25:13.562Z</time>
      </trkpt>
      <trkpt lat="45.605985" lon="9.039863">
        <ele>238.278458</ele>
        <time>2026-05-02T12:25:15.559Z</time>
      </trkpt>
      <trkpt lat="45.605872" lon="9.039943">
        <ele>238.166617</ele>
        <time>2026-05-02T12:25:17.560Z</time>
      </trkpt>
      <trkpt lat="45.605764" lon="9.040024">
        <ele>238.058444</ele>
        <time>2026-05-02T12:25:19.561Z</time>
      </trkpt>
      <trkpt lat="45.605658" lon="9.040103">
        <ele>237.952418</ele>
        <time>2026-05-02T12:25:21.563Z</time>
      </trkpt>
      <trkpt lat="45.605552" lon="9.040172">
        <ele>237.849115</ele>
        <time>2026-05-02T12:25:23.564Z</time>
      </trkpt>
      <trkpt lat="45.605447" lon="9.040250">
        <ele>237.744162</ele>
        <time>2026-05-02T12:25:25.563Z</time>
      </trkpt>
      <trkpt lat="45.605346" lon="9.040331">
        <ele>237.641446</ele>
        <time>2026-05-02T12:25:27.566Z</time>
      </trkpt>
      <trkpt lat="45.605235" lon="9.040414">
        <ele>237.530341</ele>
        <time>2026-05-02T12:25:29.564Z</time>
      </trkpt>
      <trkpt lat="45.605127" lon="9.040488">
        <ele>237.424116</ele>
        <time>2026-05-02T12:25:31.563Z</time>
      </trkpt>
      <trkpt lat="45.605034" lon="9.040554">
        <ele>237.332025</ele>
        <time>2026-05-02T12:25:33.565Z</time>
      </trkpt>
      <trkpt lat="45.604933" lon="9.040631">
        <ele>237.230501</ele>
        <time>2026-05-02T12:25:35.558Z</time>
      </trkpt>
      <trkpt lat="45.604835" lon="9.040709">
        <ele>237.131015</ele>
        <time>2026-05-02T12:25:37.562Z</time>
      </trkpt>
      <trkpt lat="45.604724" lon="9.040793">
        <ele>237.019620</ele>
        <time>2026-05-02T12:25:39.562Z</time>
      </trkpt>
      <trkpt lat="45.604625" lon="9.040872">
        <ele>236.919058</ele>
        <time>2026-05-02T12:25:41.562Z</time>
      </trkpt>
      <trkpt lat="45.604538" lon="9.040929">
        <ele>236.867511</ele>
        <time>2026-05-02T12:25:43.571Z</time>
      </trkpt>
      <trkpt lat="45.604446" lon="9.041002">
        <ele>236.830974</ele>
        <time>2026-05-02T12:25:45.572Z</time>
      </trkpt>
      <trkpt lat="45.604341" lon="9.041071">
        <ele>236.790847</ele>
        <time>2026-05-02T12:25:47.565Z</time>
      </trkpt>
      <trkpt lat="45.604245" lon="9.041139">
        <ele>236.753645</ele>
        <time>2026-05-02T12:25:49.564Z</time>
      </trkpt>
      <trkpt lat="45.604148" lon="9.041196">
        <ele>236.717229</ele>
        <time>2026-05-02T12:25:51.560Z</time>
      </trkpt>
      <trkpt lat="45.604053" lon="9.041266">
        <ele>236.680117</ele>
        <time>2026-05-02T12:25:53.562Z</time>
      </trkpt>
      <trkpt lat="45.603956" lon="9.041333">
        <ele>236.642710</ele>
        <time>2026-05-02T12:25:55.578Z</time>
      </trkpt>
      <trkpt lat="45.603866" lon="9.041413">
        <ele>236.605909</ele>
        <time>2026-05-02T12:25:57.562Z</time>
      </trkpt>
      <trkpt lat="45.603767" lon="9.041484">
        <ele>236.567450</ele>
        <time>2026-05-02T12:25:59.559Z</time>
      </trkpt>
      <trkpt lat="45.603678" lon="9.041552">
        <ele>236.532409</ele>
        <time>2026-05-02T12:26:01.560Z</time>
      </trkpt>
      <trkpt lat="45.603594" lon="9.041612">
        <ele>236.499803</ele>
        <time>2026-05-02T12:26:03.562Z</time>
      </trkpt>
      <trkpt lat="45.603503" lon="9.041687">
        <ele>236.463329</ele>
        <time>2026-05-02T12:26:05.561Z</time>
      </trkpt>
      <trkpt lat="45.603415" lon="9.041759">
        <ele>236.428121</ele>
        <time>2026-05-02T12:26:07.563Z</time>
      </trkpt>
      <trkpt lat="45.603315" lon="9.041823">
        <ele>236.390076</ele>
        <time>2026-05-02T12:26:09.567Z</time>
      </trkpt>
      <trkpt lat="45.603215" lon="9.041897">
        <ele>236.350976</ele>
        <time>2026-05-02T12:26:11.568Z</time>
      </trkpt>
      <trkpt lat="45.603112" lon="9.041969">
        <ele>236.311164</ele>
        <time>2026-05-02T12:26:13.562Z</time>
      </trkpt>
      <trkpt lat="45.603019" lon="9.042037">
        <ele>236.274892</ele>
        <time>2026-05-02T12:26:15.558Z</time>
      </trkpt>
      <trkpt lat="45.602908" lon="9.042111">
        <ele>236.275068</ele>
        <time>2026-05-02T12:26:17.560Z</time>
      </trkpt>
      <trkpt lat="45.602802" lon="9.042192">
        <ele>236.288928</ele>
        <time>2026-05-02T12:26:19.558Z</time>
      </trkpt>
      <trkpt lat="45.602690" lon="9.042272">
        <ele>236.303365</ele>
        <time>2026-05-02T12:26:21.561Z</time>
      </trkpt>
      <trkpt lat="45.602583" lon="9.042352">
        <ele>236.317289</ele>
        <time>2026-05-02T12:26:23.559Z</time>
      </trkpt>
      <trkpt lat="45.602475" lon="9.042437">
        <ele>236.331506</ele>
        <time>2026-05-02T12:26:25.559Z</time>
      </trkpt>
      <trkpt lat="45.602374" lon="9.042513">
        <ele>236.344667</ele>
        <time>2026-05-02T12:26:27.567Z</time>
      </trkpt>
      <trkpt lat="45.602261" lon="9.042596">
        <ele>236.359317</ele>
        <time>2026-05-02T12:26:29.564Z</time>
      </trkpt>
      <trkpt lat="45.602165" lon="9.042685">
        <ele>236.372511</ele>
        <time>2026-05-02T12:26:31.562Z</time>
      </trkpt>
      <trkpt lat="45.602060" lon="9.042762">
        <ele>236.386119</ele>
        <time>2026-05-02T12:26:33.556Z</time>
      </trkpt>
      <trkpt lat="45.601959" lon="9.042845">
        <ele>236.399553</ele>
        <time>2026-05-02T12:26:35.563Z</time>
      </trkpt>
      <trkpt lat="45.601857" lon="9.042923">
        <ele>236.412892</ele>
        <time>2026-05-02T12:26:37.557Z</time>
      </trkpt>
      <trkpt lat="45.601747" lon="9.042991">
        <ele>236.426712</ele>
        <time>2026-05-02T12:26:39.558Z</time>
      </trkpt>
      <trkpt lat="45.601637" lon="9.043048">
        <ele>236.440204</ele>
        <time>2026-05-02T12:26:41.563Z</time>
      </trkpt>
      <trkpt lat="45.601545" lon="9.043125">
        <ele>236.452497</ele>
        <time>2026-05-02T12:26:43.561Z</time>
      </trkpt>
      <trkpt lat="45.601440" lon="9.043191">
        <ele>236.465724</ele>
        <time>2026-05-02T12:26:45.561Z</time>
      </trkpt>
      <trkpt lat="45.601340" lon="9.043267">
        <ele>236.558297</ele>
        <time>2026-05-02T12:26:47.561Z</time>
      </trkpt>
      <trkpt lat="45.601234" lon="9.043333">
        <ele>236.723905</ele>
        <time>2026-05-02T12:26:49.561Z</time>
      </trkpt>
      <trkpt lat="45.601139" lon="9.043403">
        <ele>236.876994</ele>
        <time>2026-05-02T12:26:51.558Z</time>
      </trkpt>
      <trkpt lat="45.601045" lon="9.043482">
        <ele>237.033183</ele>
        <time>2026-05-02T12:26:53.567Z</time>
      </trkpt>
      <trkpt lat="45.600952" lon="9.043550">
        <ele>237.182809</ele>
        <time>2026-05-02T12:26:55.558Z</time>
      </trkpt>
      <trkpt lat="45.600861" lon="9.043621">
        <ele>237.331306</ele>
        <time>2026-05-02T12:26:57.567Z</time>
      </trkpt>
      <trkpt lat="45.600763" lon="9.043693">
        <ele>237.489133</ele>
        <time>2026-05-02T12:26:59.558Z</time>
      </trkpt>
      <trkpt lat="45.600670" lon="9.043769">
        <ele>237.642576</ele>
        <time>2026-05-02T12:27:01.567Z</time>
      </trkpt>
      <trkpt lat="45.600575" lon="9.043842">
        <ele>237.797066</ele>
        <time>2026-05-02T12:27:03.561Z</time>
      </trkpt>
      <trkpt lat="45.600486" lon="9.043901">
        <ele>237.937587</ele>
        <time>2026-05-02T12:27:05.560Z</time>
      </trkpt>
      <trkpt lat="45.600377" lon="9.043974">
        <ele>238.110001</ele>
        <time>2026-05-02T12:27:08.565Z</time>
      </trkpt>
      <trkpt lat="45.600284" lon="9.044012">
        <ele>238.248544</ele>
        <time>2026-05-02T12:27:11.566Z</time>
      </trkpt>
      <trkpt lat="45.600206" lon="9.044089">
        <ele>238.384324</ele>
        <time>2026-05-02T12:27:27.559Z</time>
      </trkpt>
      <trkpt lat="45.600109" lon="9.044186">
        <ele>238.553889</ele>
        <time>2026-05-02T12:27:31.559Z</time>
      </trkpt>
      <trkpt lat="45.600007" lon="9.044257">
        <ele>238.716392</ele>
        <time>2026-05-02T12:27:34.558Z</time>
      </trkpt>
      <trkpt lat="45.599892" lon="9.044345">
        <ele>238.903232</ele>
        <time>2026-05-02T12:27:37.554Z</time>
      </trkpt>
      <trkpt lat="45.599769" lon="9.044438">
        <ele>239.017674</ele>
        <time>2026-05-02T12:27:40.569Z</time>
      </trkpt>
      <trkpt lat="45.599677" lon="9.044516">
        <ele>238.932183</ele>
        <time>2026-05-02T12:27:42.564Z</time>
      </trkpt>
      <trkpt lat="45.599591" lon="9.044592">
        <ele>238.851373</ele>
        <time>2026-05-02T12:27:44.561Z</time>
      </trkpt>
      <trkpt lat="45.599477" lon="9.044687">
        <ele>238.745907</ele>
        <time>2026-05-02T12:27:47.564Z</time>
      </trkpt>
      <trkpt lat="45.599396" lon="9.044770">
        <ele>238.666252</ele>
        <time>2026-05-02T12:27:49.555Z</time>
      </trkpt>
      <trkpt lat="45.599310" lon="9.044834">
        <ele>238.588761</ele>
        <time>2026-05-02T12:27:51.558Z</time>
      </trkpt>
      <trkpt lat="45.599189" lon="9.044900">
        <ele>238.485253</ele>
        <time>2026-05-02T12:27:54.561Z</time>
      </trkpt>
      <trkpt lat="45.599075" lon="9.044963">
        <ele>238.387569</ele>
        <time>2026-05-02T12:27:57.556Z</time>
      </trkpt>
      <trkpt lat="45.598941" lon="9.044949">
        <ele>238.280188</ele>
        <time>2026-05-02T12:28:00.559Z</time>
      </trkpt>
      <trkpt lat="45.598849" lon="9.044936">
        <ele>238.206302</ele>
        <time>2026-05-02T12:28:02.560Z</time>
      </trkpt>
      <trkpt lat="45.598758" lon="9.044924">
        <ele>238.133265</ele>
        <time>2026-05-02T12:28:04.560Z</time>
      </trkpt>
      <trkpt lat="45.598660" lon="9.044917">
        <ele>238.054844</ele>
        <time>2026-05-02T12:28:06.560Z</time>
      </trkpt>
      <trkpt lat="45.598555" lon="9.044922">
        <ele>237.970880</ele>
        <time>2026-05-02T12:28:08.579Z</time>
      </trkpt>
      <trkpt lat="45.598463" lon="9.044954">
        <ele>237.895206</ele>
        <time>2026-05-02T12:28:10.561Z</time>
      </trkpt>
      <trkpt lat="45.598377" lon="9.044990">
        <ele>237.823587</ele>
        <time>2026-05-02T12:28:12.559Z</time>
      </trkpt>
      <trkpt lat="45.598242" lon="9.045010">
        <ele>237.715115</ele>
        <time>2026-05-02T12:28:15.555Z</time>
      </trkpt>
      <trkpt lat="45.598146" lon="9.045042">
        <ele>237.636331</ele>
        <time>2026-05-02T12:28:17.563Z</time>
      </trkpt>
      <trkpt lat="45.598046" lon="9.045055">
        <ele>237.581235</ele>
        <time>2026-05-02T12:28:19.572Z</time>
      </trkpt>
      <trkpt lat="45.597943" lon="9.045064">
        <ele>237.536837</ele>
        <time>2026-05-02T12:28:21.555Z</time>
      </trkpt>
      <trkpt lat="45.597846" lon="9.045081">
        <ele>237.494790</ele>
        <time>2026-05-02T12:28:23.557Z</time>
      </trkpt>
      <trkpt lat="45.597714" lon="9.045094">
        <ele>237.437862</ele>
        <time>2026-05-02T12:28:26.561Z</time>
      </trkpt>
      <trkpt lat="45.597589" lon="9.045115">
        <ele>237.383711</ele>
        <time>2026-05-02T12:28:29.563Z</time>
      </trkpt>
      <trkpt lat="45.597450" lon="9.045125">
        <ele>237.323831</ele>
        <time>2026-05-02T12:28:32.569Z</time>
      </trkpt>
      <trkpt lat="45.597346" lon="9.045135">
        <ele>237.278983</ele>
        <time>2026-05-02T12:28:34.560Z</time>
      </trkpt>
      <trkpt lat="45.597254" lon="9.045156">
        <ele>237.238899</ele>
        <time>2026-05-02T12:28:36.569Z</time>
      </trkpt>
      <trkpt lat="45.597164" lon="9.045175">
        <ele>237.199756</ele>
        <time>2026-05-02T12:28:38.562Z</time>
      </trkpt>
      <trkpt lat="45.597072" lon="9.045207">
        <ele>237.159018</ele>
        <time>2026-05-02T12:28:40.561Z</time>
      </trkpt>
      <trkpt lat="45.596977" lon="9.045240">
        <ele>237.116954</ele>
        <time>2026-05-02T12:28:42.568Z</time>
      </trkpt>
      <trkpt lat="45.596888" lon="9.045277">
        <ele>237.077075</ele>
        <time>2026-05-02T12:28:44.563Z</time>
      </trkpt>
      <trkpt lat="45.596765" lon="9.045330">
        <ele>237.021801</ele>
        <time>2026-05-02T12:28:47.560Z</time>
      </trkpt>
      <trkpt lat="45.596673" lon="9.045402">
        <ele>236.976672</ele>
        <time>2026-05-02T12:28:49.569Z</time>
      </trkpt>
      <trkpt lat="45.596583" lon="9.045467">
        <ele>236.933286</ele>
        <time>2026-05-02T12:28:51.559Z</time>
      </trkpt>
      <trkpt lat="45.596504" lon="9.045533">
        <ele>236.893915</ele>
        <time>2026-05-02T12:28:53.560Z</time>
      </trkpt>
      <trkpt lat="45.596430" lon="9.045610">
        <ele>236.854532</ele>
        <time>2026-05-02T12:28:55.564Z</time>
      </trkpt>
      <trkpt lat="45.596351" lon="9.045692">
        <ele>236.699308</ele>
        <time>2026-05-02T12:28:57.560Z</time>
      </trkpt>
      <trkpt lat="45.596269" lon="9.045785">
        <ele>236.443386</ele>
        <time>2026-05-02T12:28:59.558Z</time>
      </trkpt>
      <trkpt lat="45.596188" lon="9.045852">
        <ele>236.214587</ele>
        <time>2026-05-02T12:29:01.559Z</time>
      </trkpt>
      <trkpt lat="45.596104" lon="9.045955">
        <ele>235.944003</ele>
        <time>2026-05-02T12:29:03.565Z</time>
      </trkpt>
      <trkpt lat="45.596021" lon="9.046051">
        <ele>235.682963</ele>
        <time>2026-05-02T12:29:05.561Z</time>
      </trkpt>
      <trkpt lat="45.595937" lon="9.046127">
        <ele>235.439912</ele>
        <time>2026-05-02T12:29:07.558Z</time>
      </trkpt>
      <trkpt lat="45.595859" lon="9.046211">
        <ele>235.201145</ele>
        <time>2026-05-02T12:29:09.559Z</time>
      </trkpt>
      <trkpt lat="45.595774" lon="9.046279">
        <ele>234.963000</ele>
        <time>2026-05-02T12:29:11.556Z</time>
      </trkpt>
      <trkpt lat="45.595698" lon="9.046357">
        <ele>234.734254</ele>
        <time>2026-05-02T12:29:13.558Z</time>
      </trkpt>
      <trkpt lat="45.595609" lon="9.046425">
        <ele>234.487530</ele>
        <time>2026-05-02T12:29:15.558Z</time>
      </trkpt>
      <trkpt lat="45.595492" lon="9.046528">
        <ele>234.151583</ele>
        <time>2026-05-02T12:29:18.566Z</time>
      </trkpt>
      <trkpt lat="45.595369" lon="9.046636">
        <ele>233.798661</ele>
        <time>2026-05-02T12:29:21.559Z</time>
      </trkpt>
      <trkpt lat="45.595266" lon="9.046751">
        <ele>233.479119</ele>
        <time>2026-05-02T12:29:24.562Z</time>
      </trkpt>
      <trkpt lat="45.595161" lon="9.046854">
        <ele>233.167769</ele>
        <time>2026-05-02T12:29:27.559Z</time>
      </trkpt>
      <trkpt lat="45.595074" lon="9.046938">
        <ele>232.911087</ele>
        <time>2026-05-02T12:29:29.562Z</time>
      </trkpt>
      <trkpt lat="45.594989" lon="9.047035">
        <ele>232.645162</ele>
        <time>2026-05-02T12:29:31.561Z</time>
      </trkpt>
      <trkpt lat="45.594907" lon="9.047122">
        <ele>232.434332</ele>
        <time>2026-05-02T12:29:33.561Z</time>
      </trkpt>
      <trkpt lat="45.594825" lon="9.047205">
        <ele>232.405522</ele>
        <time>2026-05-02T12:29:35.559Z</time>
      </trkpt>
      <trkpt lat="45.594739" lon="9.047286">
        <ele>232.375992</ele>
        <time>2026-05-02T12:29:37.563Z</time>
      </trkpt>
      <trkpt lat="45.594647" lon="9.047373">
        <ele>232.344362</ele>
        <time>2026-05-02T12:29:39.560Z</time>
      </trkpt>
      <trkpt lat="45.594559" lon="9.047457">
        <ele>232.314021</ele>
        <time>2026-05-02T12:29:41.563Z</time>
      </trkpt>
      <trkpt lat="45.594475" lon="9.047528">
        <ele>232.286041</ele>
        <time>2026-05-02T12:29:43.567Z</time>
      </trkpt>
      <trkpt lat="45.594395" lon="9.047621">
        <ele>232.256474</ele>
        <time>2026-05-02T12:29:45.557Z</time>
      </trkpt>
      <trkpt lat="45.594299" lon="9.047714">
        <ele>232.223222</ele>
        <time>2026-05-02T12:29:47.560Z</time>
      </trkpt>
      <trkpt lat="45.594221" lon="9.047789">
        <ele>232.196268</ele>
        <time>2026-05-02T12:29:49.564Z</time>
      </trkpt>
      <trkpt lat="45.594131" lon="9.047889">
        <ele>232.163582</ele>
        <time>2026-05-02T12:29:51.559Z</time>
      </trkpt>
      <trkpt lat="45.594052" lon="9.047961">
        <ele>232.136718</ele>
        <time>2026-05-02T12:29:53.565Z</time>
      </trkpt>
      <trkpt lat="45.593974" lon="9.048041">
        <ele>232.109192</ele>
        <time>2026-05-02T12:29:55.560Z</time>
      </trkpt>
      <trkpt lat="45.593871" lon="9.048132">
        <ele>232.074473</ele>
        <time>2026-05-02T12:29:58.565Z</time>
      </trkpt>
      <trkpt lat="45.593794" lon="9.048197">
        <ele>232.048832</ele>
        <time>2026-05-02T12:30:00.565Z</time>
      </trkpt>
      <trkpt lat="45.593689" lon="9.048314">
        <ele>232.010658</ele>
        <time>2026-05-02T12:30:03.564Z</time>
      </trkpt>
      <trkpt lat="45.593594" lon="9.048418">
        <ele>231.976347</ele>
        <time>2026-05-02T12:30:06.559Z</time>
      </trkpt>
      <trkpt lat="45.593489" lon="9.048517">
        <ele>231.940281</ele>
        <time>2026-05-02T12:30:09.559Z</time>
      </trkpt>
      <trkpt lat="45.593406" lon="9.048599">
        <ele>231.933988</ele>
        <time>2026-05-02T12:30:11.562Z</time>
      </trkpt>
      <trkpt lat="45.593329" lon="9.048681">
        <ele>231.956511</ele>
        <time>2026-05-02T12:30:13.556Z</time>
      </trkpt>
      <trkpt lat="45.593241" lon="9.048758">
        <ele>231.980713</ele>
        <time>2026-05-02T12:30:15.562Z</time>
      </trkpt>
      <trkpt lat="45.593169" lon="9.048846">
        <ele>232.002934</ele>
        <time>2026-05-02T12:30:17.562Z</time>
      </trkpt>
      <trkpt lat="45.593078" lon="9.048928">
        <ele>232.028166</ele>
        <time>2026-05-02T12:30:19.574Z</time>
      </trkpt>
      <trkpt lat="45.592994" lon="9.049014">
        <ele>232.052402</ele>
        <time>2026-05-02T12:30:21.564Z</time>
      </trkpt>
      <trkpt lat="45.592905" lon="9.049102">
        <ele>232.077786</ele>
        <time>2026-05-02T12:30:23.562Z</time>
      </trkpt>
      <trkpt lat="45.592795" lon="9.049213">
        <ele>232.109370</ele>
        <time>2026-05-02T12:30:26.558Z</time>
      </trkpt>
      <trkpt lat="45.592708" lon="9.049303">
        <ele>232.134561</ele>
        <time>2026-05-02T12:30:28.560Z</time>
      </trkpt>
      <trkpt lat="45.592630" lon="9.049380">
        <ele>232.156796</ele>
        <time>2026-05-02T12:30:30.570Z</time>
      </trkpt>
      <trkpt lat="45.592544" lon="9.049462">
        <ele>232.181045</ele>
        <time>2026-05-02T12:30:32.560Z</time>
      </trkpt>
      <trkpt lat="45.592467" lon="9.049538">
        <ele>232.202994</ele>
        <time>2026-05-02T12:30:34.567Z</time>
      </trkpt>
      <trkpt lat="45.592385" lon="9.049618">
        <ele>232.226281</ele>
        <time>2026-05-02T12:30:36.567Z</time>
      </trkpt>
      <trkpt lat="45.592300" lon="9.049692">
        <ele>232.249626</ele>
        <time>2026-05-02T12:30:38.567Z</time>
      </trkpt>
      <trkpt lat="45.592223" lon="9.049773">
        <ele>232.272051</ele>
        <time>2026-05-02T12:30:40.560Z</time>
      </trkpt>
      <trkpt lat="45.592116" lon="9.049893">
        <ele>232.303953</ele>
        <time>2026-05-02T12:30:43.560Z</time>
      </trkpt>
      <trkpt lat="45.592033" lon="9.049969">
        <ele>232.327074</ele>
        <time>2026-05-02T12:30:45.567Z</time>
      </trkpt>
      <trkpt lat="45.591943" lon="9.050059">
        <ele>232.317464</ele>
        <time>2026-05-02T12:30:47.561Z</time>
      </trkpt>
      <trkpt lat="45.591865" lon="9.050136">
        <ele>232.230000</ele>
        <time>2026-05-02T12:30:49.560Z</time>
      </trkpt>
      <trkpt lat="45.591785" lon="9.050207">
        <ele>232.143117</ele>
        <time>2026-05-02T12:30:51.556Z</time>
      </trkpt>
      <trkpt lat="45.591712" lon="9.050281">
        <ele>232.060543</ele>
        <time>2026-05-02T12:30:53.566Z</time>
      </trkpt>
      <trkpt lat="45.591585" lon="9.050309">
        <ele>231.941987</ele>
        <time>2026-05-02T12:30:56.556Z</time>
      </trkpt>
      <trkpt lat="45.591498" lon="9.050250">
        <ele>231.853141</ele>
        <time>2026-05-02T12:30:58.564Z</time>
      </trkpt>
      <trkpt lat="45.591429" lon="9.050143">
        <ele>231.759202</ele>
        <time>2026-05-02T12:31:00.557Z</time>
      </trkpt>
      <trkpt lat="45.591350" lon="9.050054">
        <ele>231.666391</ele>
        <time>2026-05-02T12:31:02.557Z</time>
      </trkpt>
      <trkpt lat="45.591254" lon="9.050029">
        <ele>231.576363</ele>
        <time>2026-05-02T12:31:04.558Z</time>
      </trkpt>
      <trkpt lat="45.591154" lon="9.050072">
        <ele>231.480017</ele>
        <time>2026-05-02T12:31:06.563Z</time>
      </trkpt>
      <trkpt lat="45.591078" lon="9.050170">
        <ele>231.385573</ele>
        <time>2026-05-02T12:31:08.556Z</time>
      </trkpt>
      <trkpt lat="45.591027" lon="9.050284">
        <ele>231.298218</ele>
        <time>2026-05-02T12:31:10.556Z</time>
      </trkpt>
      <trkpt lat="45.591005" lon="9.050419">
        <ele>231.208728</ele>
        <time>2026-05-02T12:31:12.566Z</time>
      </trkpt>
      <trkpt lat="45.590997" lon="9.050568">
        <ele>231.112249</ele>
        <time>2026-05-02T12:31:14.560Z</time>
      </trkpt>
      <trkpt lat="45.590961" lon="9.050698">
        <ele>231.021987</ele>
        <time>2026-05-02T12:31:16.562Z</time>
      </trkpt>
      <trkpt lat="45.590917" lon="9.050821">
        <ele>230.932802</ele>
        <time>2026-05-02T12:31:18.558Z</time>
      </trkpt>
      <trkpt lat="45.590925" lon="9.050987">
        <ele>230.825376</ele>
        <time>2026-05-02T12:31:21.559Z</time>
      </trkpt>
      <trkpt lat="45.591002" lon="9.051148">
        <ele>230.699476</ele>
        <time>2026-05-02T12:32:26.561Z</time>
      </trkpt>
      <trkpt lat="45.590894" lon="9.051242">
        <ele>230.680065</ele>
        <time>2026-05-02T12:32:30.557Z</time>
      </trkpt>
      <trkpt lat="45.590817" lon="9.051323">
        <ele>230.674798</ele>
        <time>2026-05-02T12:32:33.563Z</time>
      </trkpt>
      <trkpt lat="45.590726" lon="9.051428">
        <ele>230.668356</ele>
        <time>2026-05-02T12:32:37.556Z</time>
      </trkpt>
      <trkpt lat="45.590634" lon="9.051504">
        <ele>230.662502</ele>
        <time>2026-05-02T12:32:41.560Z</time>
      </trkpt>
      <trkpt lat="45.590433" lon="9.051495">
        <ele>230.651425</ele>
        <time>2026-05-02T12:33:15.553Z</time>
      </trkpt>
      <trkpt lat="45.590343" lon="9.051588">
        <ele>230.645307</ele>
        <time>2026-05-02T12:33:18.556Z</time>
      </trkpt>
      <trkpt lat="45.590245" lon="9.051700">
        <ele>230.638395</ele>
        <time>2026-05-02T12:33:21.561Z</time>
      </trkpt>
      <trkpt lat="45.590149" lon="9.051809">
        <ele>230.631641</ele>
        <time>2026-05-02T12:33:24.564Z</time>
      </trkpt>
      <trkpt lat="45.590040" lon="9.051918">
        <ele>230.624312</ele>
        <time>2026-05-02T12:33:27.557Z</time>
      </trkpt>
      <trkpt lat="45.589936" lon="9.052037">
        <ele>230.616974</ele>
        <time>2026-05-02T12:33:30.555Z</time>
      </trkpt>
      <trkpt lat="45.589829" lon="9.052143">
        <ele>230.609802</ele>
        <time>2026-05-02T12:33:33.555Z</time>
      </trkpt>
      <trkpt lat="45.589724" lon="9.052238">
        <ele>230.602956</ele>
        <time>2026-05-02T12:33:36.565Z</time>
      </trkpt>
      <trkpt lat="45.589645" lon="9.052308">
        <ele>230.597836</ele>
        <time>2026-05-02T12:33:38.565Z</time>
      </trkpt>
      <trkpt lat="45.589565" lon="9.052385">
        <ele>230.592523</ele>
        <time>2026-05-02T12:33:40.566Z</time>
      </trkpt>
      <trkpt lat="45.589485" lon="9.052467">
        <ele>230.585717</ele>
        <time>2026-05-02T12:33:42.563Z</time>
      </trkpt>
      <trkpt lat="45.589403" lon="9.052551">
        <ele>230.461325</ele>
        <time>2026-05-02T12:33:44.558Z</time>
      </trkpt>
      <trkpt lat="45.589290" lon="9.052665">
        <ele>230.290786</ele>
        <time>2026-05-02T12:33:47.559Z</time>
      </trkpt>
      <trkpt lat="45.589177" lon="9.052778">
        <ele>230.120743</ele>
        <time>2026-05-02T12:33:50.548Z</time>
      </trkpt>
      <trkpt lat="45.589087" lon="9.052861">
        <ele>229.988680</ele>
        <time>2026-05-02T12:33:52.554Z</time>
      </trkpt>
      <trkpt lat="45.589007" lon="9.052943">
        <ele>229.867297</ele>
        <time>2026-05-02T12:33:54.565Z</time>
      </trkpt>
      <trkpt lat="45.588929" lon="9.053018">
        <ele>229.751387</ele>
        <time>2026-05-02T12:33:56.558Z</time>
      </trkpt>
      <trkpt lat="45.588847" lon="9.053099">
        <ele>229.628485</ele>
        <time>2026-05-02T12:33:58.560Z</time>
      </trkpt>
      <trkpt lat="45.588768" lon="9.053183">
        <ele>229.507080</ele>
        <time>2026-05-02T12:34:00.558Z</time>
      </trkpt>
      <trkpt lat="45.588662" lon="9.053309">
        <ele>229.337087</ele>
        <time>2026-05-02T12:34:03.564Z</time>
      </trkpt>
      <trkpt lat="45.588569" lon="9.053392">
        <ele>229.201901</ele>
        <time>2026-05-02T12:34:05.561Z</time>
      </trkpt>
      <trkpt lat="45.588486" lon="9.053465">
        <ele>229.081740</ele>
        <time>2026-05-02T12:34:07.566Z</time>
      </trkpt>
      <trkpt lat="45.588401" lon="9.053551">
        <ele>228.953334</ele>
        <time>2026-05-02T12:34:09.565Z</time>
      </trkpt>
      <trkpt lat="45.588323" lon="9.053630">
        <ele>228.835462</ele>
        <time>2026-05-02T12:34:11.564Z</time>
      </trkpt>
      <trkpt lat="45.588249" lon="9.053716">
        <ele>228.717863</ele>
        <time>2026-05-02T12:34:13.577Z</time>
      </trkpt>
      <trkpt lat="45.588134" lon="9.053822">
        <ele>228.549141</ele>
        <time>2026-05-02T12:34:16.565Z</time>
      </trkpt>
      <trkpt lat="45.588052" lon="9.053901">
        <ele>228.427212</ele>
        <time>2026-05-02T12:34:18.557Z</time>
      </trkpt>
      <trkpt lat="45.587965" lon="9.053969">
        <ele>228.337390</ele>
        <time>2026-05-02T12:34:20.557Z</time>
      </trkpt>
      <trkpt lat="45.587885" lon="9.054041">
        <ele>228.279306</ele>
        <time>2026-05-02T12:34:22.560Z</time>
      </trkpt>
      <trkpt lat="45.587799" lon="9.054112">
        <ele>228.218287</ele>
        <time>2026-05-02T12:34:24.576Z</time>
      </trkpt>
      <trkpt lat="45.587707" lon="9.054189">
        <ele>228.152785</ele>
        <time>2026-05-02T12:34:26.562Z</time>
      </trkpt>
      <trkpt lat="45.587626" lon="9.054277">
        <ele>228.090272</ele>
        <time>2026-05-02T12:34:28.558Z</time>
      </trkpt>
      <trkpt lat="45.587547" lon="9.054361">
        <ele>228.029776</ele>
        <time>2026-05-02T12:34:30.556Z</time>
      </trkpt>
      <trkpt lat="45.587466" lon="9.054444">
        <ele>227.968541</ele>
        <time>2026-05-02T12:34:32.570Z</time>
      </trkpt>
      <trkpt lat="45.587382" lon="9.054536">
        <ele>227.903520</ele>
        <time>2026-05-02T12:34:34.568Z</time>
      </trkpt>
      <trkpt lat="45.587290" lon="9.054615">
        <ele>227.837578</ele>
        <time>2026-05-02T12:34:36.562Z</time>
      </trkpt>
      <trkpt lat="45.587194" lon="9.054681">
        <ele>227.772129</ele>
        <time>2026-05-02T12:34:38.570Z</time>
      </trkpt>
      <trkpt lat="45.587111" lon="9.054767">
        <ele>227.709143</ele>
        <time>2026-05-02T12:34:40.562Z</time>
      </trkpt>
      <trkpt lat="45.587005" lon="9.054883">
        <ele>227.627117</ele>
        <time>2026-05-02T12:34:43.558Z</time>
      </trkpt>
      <trkpt lat="45.586919" lon="9.054967">
        <ele>227.563119</ele>
        <time>2026-05-02T12:34:45.565Z</time>
      </trkpt>
      <trkpt lat="45.586827" lon="9.055059">
        <ele>227.494132</ele>
        <time>2026-05-02T12:34:47.570Z</time>
      </trkpt>
      <trkpt lat="45.586750" lon="9.055144">
        <ele>227.434354</ele>
        <time>2026-05-02T12:34:49.558Z</time>
      </trkpt>
      <trkpt lat="45.586671" lon="9.055235">
        <ele>227.372014</ele>
        <time>2026-05-02T12:34:51.556Z</time>
      </trkpt>
      <trkpt lat="45.586591" lon="9.055315">
        <ele>227.312025</ele>
        <time>2026-05-02T12:34:53.565Z</time>
      </trkpt>
      <trkpt lat="45.586518" lon="9.055396">
        <ele>227.267804</ele>
        <time>2026-05-02T12:34:55.557Z</time>
      </trkpt>
      <trkpt lat="45.586433" lon="9.055481">
        <ele>227.289621</ele>
        <time>2026-05-02T12:34:57.564Z</time>
      </trkpt>
      <trkpt lat="45.586351" lon="9.055583">
        <ele>227.312483</ele>
        <time>2026-05-02T12:34:59.564Z</time>
      </trkpt>
      <trkpt lat="45.586271" lon="9.055666">
        <ele>227.333273</ele>
        <time>2026-05-02T12:35:01.557Z</time>
      </trkpt>
      <trkpt lat="45.586186" lon="9.055751">
        <ele>227.355090</ele>
        <time>2026-05-02T12:35:03.563Z</time>
      </trkpt>
      <trkpt lat="45.586108" lon="9.055825">
        <ele>227.374778</ele>
        <time>2026-05-02T12:35:05.564Z</time>
      </trkpt>
      <trkpt lat="45.585999" lon="9.055939">
        <ele>227.403183</ele>
        <time>2026-05-02T12:35:08.558Z</time>
      </trkpt>
      <trkpt lat="45.585894" lon="9.056055">
        <ele>227.431093</ele>
        <time>2026-05-02T12:35:11.562Z</time>
      </trkpt>
      <trkpt lat="45.585804" lon="9.056124">
        <ele>227.452571</ele>
        <time>2026-05-02T12:35:13.561Z</time>
      </trkpt>
      <trkpt lat="45.585716" lon="9.056208">
        <ele>227.474826</ele>
        <time>2026-05-02T12:35:15.562Z</time>
      </trkpt>
      <trkpt lat="45.585633" lon="9.056284">
        <ele>227.495556</ele>
        <time>2026-05-02T12:35:17.562Z</time>
      </trkpt>
      <trkpt lat="45.585556" lon="9.056367">
        <ele>227.515839</ele>
        <time>2026-05-02T12:35:19.560Z</time>
      </trkpt>
      <trkpt lat="45.585473" lon="9.056465">
        <ele>227.538480</ele>
        <time>2026-05-02T12:35:21.564Z</time>
      </trkpt>
      <trkpt lat="45.585358" lon="9.056572">
        <ele>227.567338</ele>
        <time>2026-05-02T12:35:24.558Z</time>
      </trkpt>
      <trkpt lat="45.585279" lon="9.056635">
        <ele>227.586363</ele>
        <time>2026-05-02T12:35:26.556Z</time>
      </trkpt>
      <trkpt lat="45.585207" lon="9.056732">
        <ele>227.607173</ele>
        <time>2026-05-02T12:35:28.567Z</time>
      </trkpt>
      <trkpt lat="45.585117" lon="9.056800">
        <ele>227.628581</ele>
        <time>2026-05-02T12:35:30.558Z</time>
      </trkpt>
      <trkpt lat="45.585026" lon="9.056880">
        <ele>227.677642</ele>
        <time>2026-05-02T12:35:32.566Z</time>
      </trkpt>
      <trkpt lat="45.584942" lon="9.056949">
        <ele>227.763961</ele>
        <time>2026-05-02T12:35:34.563Z</time>
      </trkpt>
      <trkpt lat="45.584858" lon="9.057024">
        <ele>227.852204</ele>
        <time>2026-05-02T12:35:36.560Z</time>
      </trkpt>
      <trkpt lat="45.584776" lon="9.057109">
        <ele>227.942456</ele>
        <time>2026-05-02T12:35:38.560Z</time>
      </trkpt>
      <trkpt lat="45.584702" lon="9.057200">
        <ele>228.029435</ele>
        <time>2026-05-02T12:35:40.562Z</time>
      </trkpt>
      <trkpt lat="45.584622" lon="9.057287">
        <ele>228.119000</ele>
        <time>2026-05-02T12:35:42.557Z</time>
      </trkpt>
      <trkpt lat="45.584540" lon="9.057367">
        <ele>228.207457</ele>
        <time>2026-05-02T12:35:44.566Z</time>
      </trkpt>
      <trkpt lat="45.584458" lon="9.057443">
        <ele>228.294532</ele>
        <time>2026-05-02T12:35:46.554Z</time>
      </trkpt>
      <trkpt lat="45.584377" lon="9.057522">
        <ele>228.381902</ele>
        <time>2026-05-02T12:35:48.557Z</time>
      </trkpt>
      <trkpt lat="45.584294" lon="9.057597">
        <ele>228.469392</ele>
        <time>2026-05-02T12:35:50.556Z</time>
      </trkpt>
      <trkpt lat="45.584211" lon="9.057671">
        <ele>228.556549</ele>
        <time>2026-05-02T12:35:52.572Z</time>
      </trkpt>
      <trkpt lat="45.584130" lon="9.057760">
        <ele>228.647580</ele>
        <time>2026-05-02T12:35:54.563Z</time>
      </trkpt>
      <trkpt lat="45.584054" lon="9.057861">
        <ele>228.740046</ele>
        <time>2026-05-02T12:35:56.559Z</time>
      </trkpt>
      <trkpt lat="45.583968" lon="9.057944">
        <ele>228.832502</ele>
        <time>2026-05-02T12:35:58.560Z</time>
      </trkpt>
      <trkpt lat="45.583886" lon="9.058029">
        <ele>228.922754</ele>
        <time>2026-05-02T12:36:00.561Z</time>
      </trkpt>
      <trkpt lat="45.583798" lon="9.058115">
        <ele>229.017736</ele>
        <time>2026-05-02T12:36:02.559Z</time>
      </trkpt>
      <trkpt lat="45.583710" lon="9.058196">
        <ele>229.110993</ele>
        <time>2026-05-02T12:36:04.557Z</time>
      </trkpt>
      <trkpt lat="45.583624" lon="9.058283">
        <ele>229.204868</ele>
        <time>2026-05-02T12:36:06.562Z</time>
      </trkpt>
      <trkpt lat="45.583540" lon="9.058367">
        <ele>229.286735</ele>
        <time>2026-05-02T12:36:08.563Z</time>
      </trkpt>
      <trkpt lat="45.583452" lon="9.058453">
        <ele>229.364066</ele>
        <time>2026-05-02T12:36:10.558Z</time>
      </trkpt>
      <trkpt lat="45.583364" lon="9.058544">
        <ele>229.442859</ele>
        <time>2026-05-02T12:36:12.559Z</time>
      </trkpt>
      <trkpt lat="45.583277" lon="9.058627">
        <ele>229.518737</ele>
        <time>2026-05-02T12:36:14.561Z</time>
      </trkpt>
      <trkpt lat="45.583188" lon="9.058714">
        <ele>229.596954</ele>
        <time>2026-05-02T12:36:16.563Z</time>
      </trkpt>
      <trkpt lat="45.583094" lon="9.058801">
        <ele>229.678190</ele>
        <time>2026-05-02T12:36:18.556Z</time>
      </trkpt>
      <trkpt lat="45.583006" lon="9.058890">
        <ele>229.756391</ele>
        <time>2026-05-02T12:36:20.563Z</time>
      </trkpt>
      <trkpt lat="45.582919" lon="9.058977">
        <ele>229.833415</ele>
        <time>2026-05-02T12:36:22.563Z</time>
      </trkpt>
      <trkpt lat="45.582834" lon="9.059059">
        <ele>229.907806</ele>
        <time>2026-05-02T12:36:24.564Z</time>
      </trkpt>
      <trkpt lat="45.582754" lon="9.059144">
        <ele>229.980118</ele>
        <time>2026-05-02T12:36:26.557Z</time>
      </trkpt>
      <trkpt lat="45.582664" lon="9.059224">
        <ele>230.057000</ele>
        <time>2026-05-02T12:36:28.561Z</time>
      </trkpt>
      <trkpt lat="45.582579" lon="9.059314">
        <ele>230.133737</ele>
        <time>2026-05-02T12:36:30.570Z</time>
      </trkpt>
      <trkpt lat="45.582490" lon="9.059402">
        <ele>230.212242</ele>
        <time>2026-05-02T12:36:32.562Z</time>
      </trkpt>
      <trkpt lat="45.582403" lon="9.059487">
        <ele>230.288689</ele>
        <time>2026-05-02T12:36:34.558Z</time>
      </trkpt>
      <trkpt lat="45.582323" lon="9.059585">
        <ele>230.365123</ele>
        <time>2026-05-02T12:36:36.555Z</time>
      </trkpt>
      <trkpt lat="45.582240" lon="9.059672">
        <ele>230.439789</ele>
        <time>2026-05-02T12:36:38.570Z</time>
      </trkpt>
      <trkpt lat="45.582153" lon="9.059760">
        <ele>230.517106</ele>
        <time>2026-05-02T12:36:40.567Z</time>
      </trkpt>
      <trkpt lat="45.582074" lon="9.059848">
        <ele>230.499780</ele>
        <time>2026-05-02T12:36:42.561Z</time>
      </trkpt>
      <trkpt lat="45.581992" lon="9.059933">
        <ele>230.407625</ele>
        <time>2026-05-02T12:36:44.552Z</time>
      </trkpt>
      <trkpt lat="45.581909" lon="9.059992">
        <ele>230.323295</ele>
        <time>2026-05-02T12:36:46.557Z</time>
      </trkpt>
      <trkpt lat="45.581818" lon="9.060062">
        <ele>230.229281</ele>
        <time>2026-05-02T12:36:48.557Z</time>
      </trkpt>
      <trkpt lat="45.581745" lon="9.060150">
        <ele>230.142398</ele>
        <time>2026-05-02T12:36:50.561Z</time>
      </trkpt>
      <trkpt lat="45.581660" lon="9.060222">
        <ele>230.052510</ele>
        <time>2026-05-02T12:36:52.556Z</time>
      </trkpt>
      <trkpt lat="45.581575" lon="9.060301">
        <ele>229.960269</ele>
        <time>2026-05-02T12:36:54.564Z</time>
      </trkpt>
      <trkpt lat="45.581491" lon="9.060386">
        <ele>229.866635</ele>
        <time>2026-05-02T12:36:56.552Z</time>
      </trkpt>
      <trkpt lat="45.581411" lon="9.060471">
        <ele>229.775946</ele>
        <time>2026-05-02T12:36:58.560Z</time>
      </trkpt>
      <trkpt lat="45.581322" lon="9.060548">
        <ele>229.681300</ele>
        <time>2026-05-02T12:37:00.564Z</time>
      </trkpt>
      <trkpt lat="45.581245" lon="9.060626">
        <ele>229.595438</ele>
        <time>2026-05-02T12:37:02.564Z</time>
      </trkpt>
      <trkpt lat="45.581151" lon="9.060707">
        <ele>229.495582</ele>
        <time>2026-05-02T12:37:04.572Z</time>
      </trkpt>
      <trkpt lat="45.581070" lon="9.060798">
        <ele>229.401849</ele>
        <time>2026-05-02T12:37:06.565Z</time>
      </trkpt>
      <trkpt lat="45.580987" lon="9.060891">
        <ele>229.305899</ele>
        <time>2026-05-02T12:37:08.562Z</time>
      </trkpt>
      <trkpt lat="45.580902" lon="9.060978">
        <ele>229.210785</ele>
        <time>2026-05-02T12:37:10.563Z</time>
      </trkpt>
      <trkpt lat="45.580813" lon="9.061062">
        <ele>229.113755</ele>
        <time>2026-05-02T12:37:12.556Z</time>
      </trkpt>
      <trkpt lat="45.580723" lon="9.061144">
        <ele>229.016656</ele>
        <time>2026-05-02T12:37:14.554Z</time>
      </trkpt>
      <trkpt lat="45.580645" lon="9.061227">
        <ele>228.928186</ele>
        <time>2026-05-02T12:37:16.563Z</time>
      </trkpt>
      <trkpt lat="45.580558" lon="9.061318">
        <ele>228.790429</ele>
        <time>2026-05-02T12:37:18.562Z</time>
      </trkpt>
      <trkpt lat="45.580470" lon="9.061396">
        <ele>228.651507</ele>
        <time>2026-05-02T12:37:20.559Z</time>
      </trkpt>
      <trkpt lat="45.580382" lon="9.061462">
        <ele>228.518181</ele>
        <time>2026-05-02T12:37:22.562Z</time>
      </trkpt>
      <trkpt lat="45.580288" lon="9.061485">
        <ele>228.390247</ele>
        <time>2026-05-02T12:37:24.568Z</time>
      </trkpt>
      <trkpt lat="45.580196" lon="9.061448">
        <ele>228.262034</ele>
        <time>2026-05-02T12:37:26.557Z</time>
      </trkpt>
      <trkpt lat="45.580086" lon="9.061417">
        <ele>228.111629</ele>
        <time>2026-05-02T12:37:28.561Z</time>
      </trkpt>
      <trkpt lat="45.579993" lon="9.061461">
        <ele>227.980209</ele>
        <time>2026-05-02T12:37:30.557Z</time>
      </trkpt>
      <trkpt lat="45.579905" lon="9.061550">
        <ele>227.835576</ele>
        <time>2026-05-02T12:37:32.575Z</time>
      </trkpt>
      <trkpt lat="45.579846" lon="9.061660">
        <ele>227.705456</ele>
        <time>2026-05-02T12:37:34.560Z</time>
      </trkpt>
      <trkpt lat="45.579820" lon="9.061795">
        <ele>227.573990</ele>
        <time>2026-05-02T12:37:36.557Z</time>
      </trkpt>
      <trkpt lat="45.579803" lon="9.061943">
        <ele>227.433171</ele>
        <time>2026-05-02T12:37:38.575Z</time>
      </trkpt>
      <trkpt lat="45.579761" lon="9.062076">
        <ele>227.296173</ele>
        <time>2026-05-02T12:37:40.567Z</time>
      </trkpt>
      <trkpt lat="45.579689" lon="9.062193">
        <ele>227.149896</ele>
        <time>2026-05-02T12:37:42.557Z</time>
      </trkpt>
      <trkpt lat="45.579600" lon="9.062281">
        <ele>227.004702</ele>
        <time>2026-05-02T12:37:44.559Z</time>
      </trkpt>
      <trkpt lat="45.579507" lon="9.062362">
        <ele>226.858591</ele>
        <time>2026-05-02T12:37:46.565Z</time>
      </trkpt>
      <trkpt lat="45.579416" lon="9.062452">
        <ele>226.710122</ele>
        <time>2026-05-02T12:37:48.559Z</time>
      </trkpt>
      <trkpt lat="45.579322" lon="9.062537">
        <ele>226.560889</ele>
        <time>2026-05-02T12:37:50.556Z</time>
      </trkpt>
      <trkpt lat="45.579232" lon="9.062617">
        <ele>226.460186</ele>
        <time>2026-05-02T12:37:52.564Z</time>
      </trkpt>
      <trkpt lat="45.579140" lon="9.062699">
        <ele>226.388190</ele>
        <time>2026-05-02T12:37:54.559Z</time>
      </trkpt>
      <trkpt lat="45.579048" lon="9.062787">
        <ele>226.314680</ele>
        <time>2026-05-02T12:37:56.555Z</time>
      </trkpt>
      <trkpt lat="45.578954" lon="9.062868">
        <ele>226.241795</ele>
        <time>2026-05-02T12:37:58.563Z</time>
      </trkpt>
      <trkpt lat="45.578853" lon="9.062927">
        <ele>226.169347</ele>
        <time>2026-05-02T12:38:00.563Z</time>
      </trkpt>
      <trkpt lat="45.578756" lon="9.062985">
        <ele>226.099530</ele>
        <time>2026-05-02T12:38:02.558Z</time>
      </trkpt>
      <trkpt lat="45.578656" lon="9.063038">
        <ele>226.028713</ele>
        <time>2026-05-02T12:38:04.559Z</time>
      </trkpt>
      <trkpt lat="45.578559" lon="9.063086">
        <ele>225.960555</ele>
        <time>2026-05-02T12:38:06.561Z</time>
      </trkpt>
      <trkpt lat="45.578468" lon="9.063130">
        <ele>225.896769</ele>
        <time>2026-05-02T12:38:08.555Z</time>
      </trkpt>
      <trkpt lat="45.578369" lon="9.063148">
        <ele>225.830507</ele>
        <time>2026-05-02T12:38:10.557Z</time>
      </trkpt>
      <trkpt lat="45.578272" lon="9.063148">
        <ele>225.766103</ele>
        <time>2026-05-02T12:38:12.555Z</time>
      </trkpt>
      <trkpt lat="45.578184" lon="9.063120">
        <ele>225.706243</ele>
        <time>2026-05-02T12:38:14.562Z</time>
      </trkpt>
      <trkpt lat="45.578105" lon="9.063030">
        <ele>225.639156</ele>
        <time>2026-05-02T12:38:16.569Z</time>
      </trkpt>
      <trkpt lat="45.578059" lon="9.062889">
        <ele>225.566861</ele>
        <time>2026-05-02T12:38:18.561Z</time>
      </trkpt>
      <trkpt lat="45.578040" lon="9.062734">
        <ele>225.493731</ele>
        <time>2026-05-02T12:38:20.554Z</time>
      </trkpt>
      <trkpt lat="45.578020" lon="9.062581">
        <ele>225.421398</ele>
        <time>2026-05-02T12:38:22.562Z</time>
      </trkpt>
      <trkpt lat="45.578007" lon="9.062427">
        <ele>225.349311</ele>
        <time>2026-05-02T12:38:24.553Z</time>
      </trkpt>
      <trkpt lat="45.577980" lon="9.062276">
        <ele>225.295870</ele>
        <time>2026-05-02T12:38:26.558Z</time>
      </trkpt>
      <trkpt lat="45.577922" lon="9.062145">
        <ele>225.269828</ele>
        <time>2026-05-02T12:38:28.562Z</time>
      </trkpt>
      <trkpt lat="45.577838" lon="9.062083">
        <ele>225.247133</ele>
        <time>2026-05-02T12:38:30.555Z</time>
      </trkpt>
      <trkpt lat="45.577738" lon="9.062070">
        <ele>225.223031</ele>
        <time>2026-05-02T12:38:32.560Z</time>
      </trkpt>
      <trkpt lat="45.577638" lon="9.062088">
        <ele>225.198838</ele>
        <time>2026-05-02T12:38:34.560Z</time>
      </trkpt>
      <trkpt lat="45.577532" lon="9.062101">
        <ele>225.173301</ele>
        <time>2026-05-02T12:38:36.557Z</time>
      </trkpt>
      <trkpt lat="45.577439" lon="9.062114">
        <ele>225.150872</ele>
        <time>2026-05-02T12:38:38.565Z</time>
      </trkpt>
      <trkpt lat="45.577350" lon="9.062146">
        <ele>225.128843</ele>
        <time>2026-05-02T12:38:40.565Z</time>
      </trkpt>
      <trkpt lat="45.577254" lon="9.062200">
        <ele>225.104079</ele>
        <time>2026-05-02T12:38:42.559Z</time>
      </trkpt>
      <trkpt lat="45.577184" lon="9.062295">
        <ele>225.080904</ele>
        <time>2026-05-02T12:38:44.556Z</time>
      </trkpt>
      <trkpt lat="45.577111" lon="9.062396">
        <ele>225.056512</ele>
        <time>2026-05-02T12:38:46.558Z</time>
      </trkpt>
      <trkpt lat="45.577044" lon="9.062496">
        <ele>225.033255</ele>
        <time>2026-05-02T12:38:48.556Z</time>
      </trkpt>
      <trkpt lat="45.576980" lon="9.062593">
        <ele>225.010859</ele>
        <time>2026-05-02T12:38:50.563Z</time>
      </trkpt>
      <trkpt lat="45.576919" lon="9.062697">
        <ele>224.988062</ele>
        <time>2026-05-02T12:38:52.560Z</time>
      </trkpt>
      <trkpt lat="45.576856" lon="9.062804">
        <ele>224.964571</ele>
        <time>2026-05-02T12:38:54.553Z</time>
      </trkpt>
      <trkpt lat="45.576757" lon="9.062924">
        <ele>224.933407</ele>
        <time>2026-05-02T12:38:57.560Z</time>
      </trkpt>
      <trkpt lat="45.576675" lon="9.062986">
        <ele>224.911138</ele>
        <time>2026-05-02T12:38:59.579Z</time>
      </trkpt>
      <trkpt lat="45.576585" lon="9.063024">
        <ele>224.888612</ele>
        <time>2026-05-02T12:39:01.559Z</time>
      </trkpt>
      <trkpt lat="45.576492" lon="9.063052">
        <ele>224.820390</ele>
        <time>2026-05-02T12:39:03.558Z</time>
      </trkpt>
      <trkpt lat="45.576388" lon="9.063069">
        <ele>224.669779</ele>
        <time>2026-05-02T12:39:05.556Z</time>
      </trkpt>
      <trkpt lat="45.576289" lon="9.063087">
        <ele>224.526188</ele>
        <time>2026-05-02T12:39:07.560Z</time>
      </trkpt>
      <trkpt lat="45.576193" lon="9.063105">
        <ele>224.386879</ele>
        <time>2026-05-02T12:39:09.558Z</time>
      </trkpt>
      <trkpt lat="45.576089" lon="9.063130">
        <ele>224.235140</ele>
        <time>2026-05-02T12:39:11.560Z</time>
      </trkpt>
      <trkpt lat="45.575984" lon="9.063159">
        <ele>224.081269</ele>
        <time>2026-05-02T12:39:13.559Z</time>
      </trkpt>
      <trkpt lat="45.575880" lon="9.063183">
        <ele>223.929694</ele>
        <time>2026-05-02T12:39:15.561Z</time>
      </trkpt>
      <trkpt lat="45.575780" lon="9.063213">
        <ele>223.782676</ele>
        <time>2026-05-02T12:39:17.567Z</time>
      </trkpt>
      <trkpt lat="45.575676" lon="9.063232">
        <ele>223.631822</ele>
        <time>2026-05-02T12:39:19.554Z</time>
      </trkpt>
      <trkpt lat="45.575579" lon="9.063258">
        <ele>223.489823</ele>
        <time>2026-05-02T12:39:21.561Z</time>
      </trkpt>
      <trkpt lat="45.575481" lon="9.063279">
        <ele>223.347243</ele>
        <time>2026-05-02T12:39:23.558Z</time>
      </trkpt>
      <trkpt lat="45.575382" lon="9.063310">
        <ele>223.201421</ele>
        <time>2026-05-02T12:39:25.558Z</time>
      </trkpt>
      <trkpt lat="45.575277" lon="9.063336">
        <ele>223.048094</ele>
        <time>2026-05-02T12:39:27.567Z</time>
      </trkpt>
      <trkpt lat="45.575170" lon="9.063367">
        <ele>222.891008</ele>
        <time>2026-05-02T12:39:29.551Z</time>
      </trkpt>
      <trkpt lat="45.575061" lon="9.063392">
        <ele>222.732171</ele>
        <time>2026-05-02T12:39:31.558Z</time>
      </trkpt>
      <trkpt lat="45.574948" lon="9.063406">
        <ele>222.568976</ele>
        <time>2026-05-02T12:39:33.568Z</time>
      </trkpt>
      <trkpt lat="45.574843" lon="9.063415">
        <ele>222.417630</ele>
        <time>2026-05-02T12:39:35.556Z</time>
      </trkpt>
      <trkpt lat="45.574738" lon="9.063404">
        <ele>222.278288</ele>
        <time>2026-05-02T12:39:37.554Z</time>
      </trkpt>
      <trkpt lat="45.574641" lon="9.063375">
        <ele>222.218704</ele>
        <time>2026-05-02T12:39:39.565Z</time>
      </trkpt>
      <trkpt lat="45.574544" lon="9.063345">
        <ele>222.159033</ele>
        <time>2026-05-02T12:39:41.557Z</time>
      </trkpt>
      <trkpt lat="45.574447" lon="9.063324">
        <ele>222.100047</ele>
        <time>2026-05-02T12:39:43.575Z</time>
      </trkpt>
      <trkpt lat="45.574347" lon="9.063285">
        <ele>222.037723</ele>
        <time>2026-05-02T12:39:45.564Z</time>
      </trkpt>
      <trkpt lat="45.574246" lon="9.063256">
        <ele>221.975783</ele>
        <time>2026-05-02T12:39:47.556Z</time>
      </trkpt>
      <trkpt lat="45.574145" lon="9.063224">
        <ele>221.913582</ele>
        <time>2026-05-02T12:39:49.555Z</time>
      </trkpt>
      <trkpt lat="45.574047" lon="9.063196">
        <ele>221.853494</ele>
        <time>2026-05-02T12:39:51.562Z</time>
      </trkpt>
      <trkpt lat="45.573955" lon="9.063152">
        <ele>221.795162</ele>
        <time>2026-05-02T12:39:53.554Z</time>
      </trkpt>
      <trkpt lat="45.573867" lon="9.063092">
        <ele>221.736536</ele>
        <time>2026-05-02T12:39:55.562Z</time>
      </trkpt>
      <trkpt lat="45.573789" lon="9.063013">
        <ele>221.679049</ele>
        <time>2026-05-02T12:39:57.558Z</time>
      </trkpt>
      <trkpt lat="45.573662" lon="9.062939">
        <ele>221.596585</ele>
        <time>2026-05-02T12:40:00.558Z</time>
      </trkpt>
      <trkpt lat="45.573523" lon="9.062961">
        <ele>221.512501</ele>
        <time>2026-05-02T12:40:03.556Z</time>
      </trkpt>
      <trkpt lat="45.573418" lon="9.062977">
        <ele>221.449013</ele>
        <time>2026-05-02T12:40:05.561Z</time>
      </trkpt>
      <trkpt lat="45.573308" lon="9.062967">
        <ele>221.382742</ele>
        <time>2026-05-02T12:40:07.593Z</time>
      </trkpt>
      <trkpt lat="45.573203" lon="9.062954">
        <ele>221.319376</ele>
        <time>2026-05-02T12:40:09.557Z</time>
      </trkpt>
      <trkpt lat="45.573097" lon="9.062951">
        <ele>221.255632</ele>
        <time>2026-05-02T12:40:11.562Z</time>
      </trkpt>
      <trkpt lat="45.572994" lon="9.062945">
        <ele>221.237901</ele>
        <time>2026-05-02T12:40:13.558Z</time>
      </trkpt>
      <trkpt lat="45.572894" lon="9.062936">
        <ele>221.401073</ele>
        <time>2026-05-02T12:40:15.561Z</time>
      </trkpt>
      <trkpt lat="45.572793" lon="9.062942">
        <ele>221.565692</ele>
        <time>2026-05-02T12:40:17.556Z</time>
      </trkpt>
      <trkpt lat="45.572686" lon="9.062945">
        <ele>221.739974</ele>
        <time>2026-05-02T12:40:19.559Z</time>
      </trkpt>
      <trkpt lat="45.572592" lon="9.062964">
        <ele>221.894576</ele>
        <time>2026-05-02T12:40:21.566Z</time>
      </trkpt>
      <trkpt lat="45.572483" lon="9.062989">
        <ele>222.074355</ele>
        <time>2026-05-02T12:40:23.559Z</time>
      </trkpt>
      <trkpt lat="45.572385" lon="9.063012">
        <ele>222.236086</ele>
        <time>2026-05-02T12:40:25.559Z</time>
      </trkpt>
      <trkpt lat="45.572290" lon="9.063031">
        <ele>222.392301</ele>
        <time>2026-05-02T12:40:27.564Z</time>
      </trkpt>
      <trkpt lat="45.572195" lon="9.063049">
        <ele>222.548362</ele>
        <time>2026-05-02T12:40:29.568Z</time>
      </trkpt>
      <trkpt lat="45.572102" lon="9.063074">
        <ele>222.702469</ele>
        <time>2026-05-02T12:40:31.556Z</time>
      </trkpt>
      <trkpt lat="45.571985" lon="9.063093">
        <ele>222.894229</ele>
        <time>2026-05-02T12:40:34.558Z</time>
      </trkpt>
      <trkpt lat="45.571872" lon="9.063124">
        <ele>223.081611</ele>
        <time>2026-05-02T12:40:37.560Z</time>
      </trkpt>
      <trkpt lat="45.571758" lon="9.063145">
        <ele>223.268795</ele>
        <time>2026-05-02T12:40:40.556Z</time>
      </trkpt>
      <trkpt lat="45.571633" lon="9.063170">
        <ele>223.474341</ele>
        <time>2026-05-02T12:40:43.564Z</time>
      </trkpt>
      <trkpt lat="45.571500" lon="9.063207">
        <ele>223.694999</ele>
        <time>2026-05-02T12:40:46.564Z</time>
      </trkpt>
      <trkpt lat="45.571370" lon="9.063241">
        <ele>223.910221</ele>
        <time>2026-05-02T12:40:49.564Z</time>
      </trkpt>
      <trkpt lat="45.571240" lon="9.063286">
        <ele>224.128051</ele>
        <time>2026-05-02T12:40:52.558Z</time>
      </trkpt>
      <trkpt lat="45.571152" lon="9.063311">
        <ele>224.023900</ele>
        <time>2026-05-02T12:40:54.558Z</time>
      </trkpt>
      <trkpt lat="45.571050" lon="9.063325">
        <ele>223.891432</ele>
        <time>2026-05-02T12:40:56.562Z</time>
      </trkpt>
      <trkpt lat="45.570957" lon="9.063346">
        <ele>223.769713</ele>
        <time>2026-05-02T12:40:58.561Z</time>
      </trkpt>
      <trkpt lat="45.570820" lon="9.063382">
        <ele>223.589635</ele>
        <time>2026-05-02T12:41:01.557Z</time>
      </trkpt>
      <trkpt lat="45.570687" lon="9.063403">
        <ele>223.416652</ele>
        <time>2026-05-02T12:41:04.555Z</time>
      </trkpt>
      <trkpt lat="45.570598" lon="9.063423">
        <ele>223.300182</ele>
        <time>2026-05-02T12:41:06.560Z</time>
      </trkpt>
      <trkpt lat="45.570479" lon="9.063447">
        <ele>223.144819</ele>
        <time>2026-05-02T12:41:09.554Z</time>
      </trkpt>
      <trkpt lat="45.570389" lon="9.063465">
        <ele>223.027337</ele>
        <time>2026-05-02T12:41:11.560Z</time>
      </trkpt>
      <trkpt lat="45.570294" lon="9.063473">
        <ele>222.904312</ele>
        <time>2026-05-02T12:41:13.561Z</time>
      </trkpt>
      <trkpt lat="45.570175" lon="9.063508">
        <ele>222.747248</ele>
        <time>2026-05-02T12:41:16.557Z</time>
      </trkpt>
      <trkpt lat="45.570083" lon="9.063522">
        <ele>222.627642</ele>
        <time>2026-05-02T12:41:19.559Z</time>
      </trkpt>
      <trkpt lat="45.570073" lon="9.063366">
        <ele>222.485876</ele>
        <time>2026-05-02T12:41:23.559Z</time>
      </trkpt>
      <trkpt lat="45.570076" lon="9.063201">
        <ele>222.336505</ele>
        <time>2026-05-02T12:41:26.559Z</time>
      </trkpt>
      <trkpt lat="45.569986" lon="9.063234">
        <ele>222.216385</ele>
        <time>2026-05-02T12:41:36.563Z</time>
      </trkpt>
      <trkpt lat="45.569801" lon="9.063391">
        <ele>221.938205</ele>
        <time>2026-05-02T12:46:24.559Z</time>
      </trkpt>
      <trkpt lat="45.569701" lon="9.063434">
        <ele>221.796925</ele>
        <time>2026-05-02T12:46:27.561Z</time>
      </trkpt>
      <trkpt lat="45.569597" lon="9.063474">
        <ele>221.517928</ele>
        <time>2026-05-02T12:46:30.561Z</time>
      </trkpt>
      <trkpt lat="45.569485" lon="9.063522">
        <ele>221.215026</ele>
        <time>2026-05-02T12:46:33.561Z</time>
      </trkpt>
      <trkpt lat="45.569370" lon="9.063554">
        <ele>220.911530</ele>
        <time>2026-05-02T12:46:36.560Z</time>
      </trkpt>
      <trkpt lat="45.569250" lon="9.063594">
        <ele>220.592330</ele>
        <time>2026-05-02T12:46:39.561Z</time>
      </trkpt>
      <trkpt lat="45.569138" lon="9.063631">
        <ele>220.294546</ele>
        <time>2026-05-02T12:46:42.561Z</time>
      </trkpt>
      <trkpt lat="45.569027" lon="9.063660">
        <ele>220.002241</ele>
        <time>2026-05-02T12:46:45.559Z</time>
      </trkpt>
      <trkpt lat="45.568926" lon="9.063691">
        <ele>219.734639</ele>
        <time>2026-05-02T12:46:48.556Z</time>
      </trkpt>
      <trkpt lat="45.568819" lon="9.063734">
        <ele>219.446705</ele>
        <time>2026-05-02T12:46:51.559Z</time>
      </trkpt>
      <trkpt lat="45.568693" lon="9.063767">
        <ele>219.114873</ele>
        <time>2026-05-02T12:46:54.555Z</time>
      </trkpt>
      <trkpt lat="45.568570" lon="9.063792">
        <ele>218.793043</ele>
        <time>2026-05-02T12:46:57.559Z</time>
      </trkpt>
      <trkpt lat="45.568443" lon="9.063825">
        <ele>218.458663</ele>
        <time>2026-05-02T12:47:00.558Z</time>
      </trkpt>
      <trkpt lat="45.568330" lon="9.063845">
        <ele>218.163708</ele>
        <time>2026-05-02T12:47:03.564Z</time>
      </trkpt>
      <trkpt lat="45.568219" lon="9.063866">
        <ele>217.873662</ele>
        <time>2026-05-02T12:47:06.557Z</time>
      </trkpt>
      <trkpt lat="45.568100" lon="9.063889">
        <ele>217.562594</ele>
        <time>2026-05-02T12:47:09.572Z</time>
      </trkpt>
      <trkpt lat="45.567984" lon="9.063879">
        <ele>217.261560</ele>
        <time>2026-05-02T12:47:12.556Z</time>
      </trkpt>
      <trkpt lat="45.567851" lon="9.063891">
        <ele>217.232935</ele>
        <time>2026-05-02T12:47:15.556Z</time>
      </trkpt>
      <trkpt lat="45.567760" lon="9.063897">
        <ele>217.316381</ele>
        <time>2026-05-02T12:47:17.557Z</time>
      </trkpt>
      <trkpt lat="45.567668" lon="9.063904">
        <ele>217.400775</ele>
        <time>2026-05-02T12:47:19.555Z</time>
      </trkpt>
      <trkpt lat="45.567535" lon="9.063916">
        <ele>217.522848</ele>
        <time>2026-05-02T12:47:22.556Z</time>
      </trkpt>
      <trkpt lat="45.567443" lon="9.063922">
        <ele>217.607210</ele>
        <time>2026-05-02T12:47:24.553Z</time>
      </trkpt>
      <trkpt lat="45.567351" lon="9.063930">
        <ele>217.691639</ele>
        <time>2026-05-02T12:47:26.567Z</time>
      </trkpt>
      <trkpt lat="45.567257" lon="9.063945">
        <ele>217.778281</ele>
        <time>2026-05-02T12:47:28.558Z</time>
      </trkpt>
      <trkpt lat="45.567166" lon="9.063947">
        <ele>217.861648</ele>
        <time>2026-05-02T12:47:30.560Z</time>
      </trkpt>
      <trkpt lat="45.567076" lon="9.063959">
        <ele>217.944448</ele>
        <time>2026-05-02T12:47:32.562Z</time>
      </trkpt>
      <trkpt lat="45.566954" lon="9.063972">
        <ele>218.056513</ele>
        <time>2026-05-02T12:47:35.555Z</time>
      </trkpt>
      <trkpt lat="45.566845" lon="9.063957">
        <ele>218.156822</ele>
        <time>2026-05-02T12:47:38.560Z</time>
      </trkpt>
      <trkpt lat="45.566738" lon="9.063945">
        <ele>218.255137</ele>
        <time>2026-05-02T12:47:41.557Z</time>
      </trkpt>
      <trkpt lat="45.566615" lon="9.063917">
        <ele>218.369230</ele>
        <time>2026-05-02T12:47:44.558Z</time>
      </trkpt>
      <trkpt lat="45.566537" lon="9.063851">
        <ele>218.452274</ele>
        <time>2026-05-02T12:47:46.559Z</time>
      </trkpt>
      <trkpt lat="45.566412" lon="9.063812">
        <ele>218.569476</ele>
        <time>2026-05-02T12:47:49.555Z</time>
      </trkpt>
      <trkpt lat="45.566301" lon="9.063868">
        <ele>218.677310</ele>
        <time>2026-05-02T12:47:52.559Z</time>
      </trkpt>
      <trkpt lat="45.566212" lon="9.063960">
        <ele>218.777945</ele>
        <time>2026-05-02T12:47:55.557Z</time>
      </trkpt>
      <trkpt lat="45.566217" lon="9.064102">
        <ele>218.776726</ele>
        <time>2026-05-02T12:48:02.558Z</time>
      </trkpt>
      <trkpt lat="45.566217" lon="9.064247">
        <ele>218.749213</ele>
        <time>2026-05-02T12:48:06.557Z</time>
      </trkpt>
      <trkpt lat="45.566126" lon="9.064329">
        <ele>218.720052</ele>
        <time>2026-05-02T12:48:11.551Z</time>
      </trkpt>
      <trkpt lat="45.566026" lon="9.064335">
        <ele>218.692926</ele>
        <time>2026-05-02T12:48:14.561Z</time>
      </trkpt>
      <trkpt lat="45.565923" lon="9.064340">
        <ele>218.664994</ele>
        <time>2026-05-02T12:48:17.563Z</time>
      </trkpt>
      <trkpt lat="45.565796" lon="9.064347">
        <ele>218.630548</ele>
        <time>2026-05-02T12:48:20.560Z</time>
      </trkpt>
      <trkpt lat="45.565664" lon="9.064363">
        <ele>218.594644</ele>
        <time>2026-05-02T12:48:23.555Z</time>
      </trkpt>
      <trkpt lat="45.565532" lon="9.064375">
        <ele>218.558796</ele>
        <time>2026-05-02T12:48:26.555Z</time>
      </trkpt>
      <trkpt lat="45.565407" lon="9.064384">
        <ele>218.524875</ele>
        <time>2026-05-02T12:48:29.556Z</time>
      </trkpt>
      <trkpt lat="45.565290" lon="9.064398">
        <ele>218.493054</ele>
        <time>2026-05-02T12:48:32.556Z</time>
      </trkpt>
      <trkpt lat="45.565164" lon="9.064412">
        <ele>218.458801</ele>
        <time>2026-05-02T12:48:35.558Z</time>
      </trkpt>
      <trkpt lat="45.565030" lon="9.064422">
        <ele>218.422434</ele>
        <time>2026-05-02T12:48:38.559Z</time>
      </trkpt>
      <trkpt lat="45.564905" lon="9.064427">
        <ele>218.388543</ele>
        <time>2026-05-02T12:48:41.553Z</time>
      </trkpt>
      <trkpt lat="45.564777" lon="9.064436">
        <ele>218.353810</ele>
        <time>2026-05-02T12:48:44.561Z</time>
      </trkpt>
      <trkpt lat="45.564648" lon="9.064444">
        <ele>218.318814</ele>
        <time>2026-05-02T12:48:47.557Z</time>
      </trkpt>
      <trkpt lat="45.564524" lon="9.064455">
        <ele>218.455308</ele>
        <time>2026-05-02T12:48:50.559Z</time>
      </trkpt>
      <trkpt lat="45.564410" lon="9.064464">
        <ele>218.633313</ele>
        <time>2026-05-02T12:48:53.553Z</time>
      </trkpt>
      <trkpt lat="45.564301" lon="9.064471">
        <ele>218.803423</ele>
        <time>2026-05-02T12:48:56.558Z</time>
      </trkpt>
      <trkpt lat="45.564195" lon="9.064480">
        <ele>218.968977</ele>
        <time>2026-05-02T12:48:59.556Z</time>
      </trkpt>
      <trkpt lat="45.564096" lon="9.064493">
        <ele>219.123975</ele>
        <time>2026-05-02T12:49:02.557Z</time>
      </trkpt>
      <trkpt lat="45.563993" lon="9.064498">
        <ele>219.284652</ele>
        <time>2026-05-02T12:49:05.563Z</time>
      </trkpt>
      <trkpt lat="45.563886" lon="9.064518">
        <ele>219.452895</ele>
        <time>2026-05-02T12:49:08.557Z</time>
      </trkpt>
      <trkpt lat="45.563774" lon="9.064556">
        <ele>219.632370</ele>
        <time>2026-05-02T12:49:11.554Z</time>
      </trkpt>
      <trkpt lat="45.563663" lon="9.064592">
        <ele>219.809832</ele>
        <time>2026-05-02T12:49:14.562Z</time>
      </trkpt>
      <trkpt lat="45.563556" lon="9.064612">
        <ele>219.978075</ele>
        <time>2026-05-02T12:49:17.556Z</time>
      </trkpt>
      <trkpt lat="45.563442" lon="9.064622">
        <ele>220.156144</ele>
        <time>2026-05-02T12:49:20.553Z</time>
      </trkpt>
      <trkpt lat="45.563330" lon="9.064607">
        <ele>220.331525</ele>
        <time>2026-05-02T12:49:23.559Z</time>
      </trkpt>
      <trkpt lat="45.563234" lon="9.064555">
        <ele>220.491597</ele>
        <time>2026-05-02T12:49:26.556Z</time>
      </trkpt>
      <trkpt lat="45.563146" lon="9.064505">
        <ele>220.639252</ele>
        <time>2026-05-02T12:49:29.563Z</time>
      </trkpt>
      <trkpt lat="45.563045" lon="9.064446">
        <ele>220.809379</ele>
        <time>2026-05-02T12:49:32.557Z</time>
      </trkpt>
      <trkpt lat="45.562941" lon="9.064381">
        <ele>220.986366</ele>
        <time>2026-05-02T12:49:35.557Z</time>
      </trkpt>
      <trkpt lat="45.562829" lon="9.064319">
        <ele>221.004173</ele>
        <time>2026-05-02T12:49:38.561Z</time>
      </trkpt>
      <trkpt lat="45.562719" lon="9.064262">
        <ele>220.663345</ele>
        <time>2026-05-02T12:49:41.558Z</time>
      </trkpt>
      <trkpt lat="45.562614" lon="9.064204">
        <ele>220.335440</ele>
        <time>2026-05-02T12:49:44.556Z</time>
      </trkpt>
      <trkpt lat="45.562491" lon="9.064148">
        <ele>219.959420</ele>
        <time>2026-05-02T12:49:47.554Z</time>
      </trkpt>
      <trkpt lat="45.562398" lon="9.064134">
        <ele>219.687041</ele>
        <time>2026-05-02T12:49:49.558Z</time>
      </trkpt>
      <trkpt lat="45.562302" lon="9.064126">
        <ele>219.406948</ele>
        <time>2026-05-02T12:49:51.557Z</time>
      </trkpt>
      <trkpt lat="45.562199" lon="9.064127">
        <ele>219.106936</ele>
        <time>2026-05-02T12:49:53.557Z</time>
      </trkpt>
      <trkpt lat="45.562081" lon="9.064130">
        <ele>218.763185</ele>
        <time>2026-05-02T12:49:55.556Z</time>
      </trkpt>
      <trkpt lat="45.561951" lon="9.064127">
        <ele>218.384488</ele>
        <time>2026-05-02T12:49:57.556Z</time>
      </trkpt>
      <trkpt lat="45.561817" lon="9.064112">
        <ele>217.992993</ele>
        <time>2026-05-02T12:49:59.559Z</time>
      </trkpt>
      <trkpt lat="45.561670" lon="9.064093">
        <ele>217.563080</ele>
        <time>2026-05-02T12:50:01.556Z</time>
      </trkpt>
      <trkpt lat="45.561521" lon="9.064067">
        <ele>217.125864</ele>
        <time>2026-05-02T12:50:03.563Z</time>
      </trkpt>
      <trkpt lat="45.561362" lon="9.064035">
        <ele>216.658173</ele>
        <time>2026-05-02T12:50:05.555Z</time>
      </trkpt>
      <trkpt lat="45.561203" lon="9.064004">
        <ele>216.190763</ele>
        <time>2026-05-02T12:50:07.556Z</time>
      </trkpt>
      <trkpt lat="45.561050" lon="9.063994">
        <ele>215.811247</ele>
        <time>2026-05-02T12:50:09.563Z</time>
      </trkpt>
      <trkpt lat="45.560896" lon="9.064000">
        <ele>215.590569</ele>
        <time>2026-05-02T12:50:11.561Z</time>
      </trkpt>
      <trkpt lat="45.560751" lon="9.064007">
        <ele>215.382745</ele>
        <time>2026-05-02T12:50:13.558Z</time>
      </trkpt>
      <trkpt lat="45.560613" lon="9.064020">
        <ele>215.184638</ele>
        <time>2026-05-02T12:50:15.562Z</time>
      </trkpt>
      <trkpt lat="45.560494" lon="9.064028">
        <ele>215.013988</ele>
        <time>2026-05-02T12:50:17.562Z</time>
      </trkpt>
      <trkpt lat="45.560382" lon="9.064031">
        <ele>214.853526</ele>
        <time>2026-05-02T12:50:20.562Z</time>
      </trkpt>
      <trkpt lat="45.560115" lon="9.064069">
        <ele>214.469168</ele>
        <time>2026-05-02T12:51:01.556Z</time>
      </trkpt>
      <trkpt lat="45.559986" lon="9.064105">
        <ele>214.280888</ele>
        <time>2026-05-02T12:51:04.563Z</time>
      </trkpt>
      <trkpt lat="45.559857" lon="9.064134">
        <ele>214.093828</ele>
        <time>2026-05-02T12:51:07.557Z</time>
      </trkpt>
      <trkpt lat="45.559726" lon="9.064167">
        <ele>213.903281</ele>
        <time>2026-05-02T12:51:10.553Z</time>
      </trkpt>
      <trkpt lat="45.559593" lon="9.064204">
        <ele>213.709185</ele>
        <time>2026-05-02T12:51:13.557Z</time>
      </trkpt>
      <trkpt lat="45.559501" lon="9.064226">
        <ele>213.575565</ele>
        <time>2026-05-02T12:51:15.564Z</time>
      </trkpt>
      <trkpt lat="45.559411" lon="9.064248">
        <ele>213.444770</ele>
        <time>2026-05-02T12:51:17.556Z</time>
      </trkpt>
      <trkpt lat="45.559322" lon="9.064270">
        <ele>213.315387</ele>
        <time>2026-05-02T12:51:19.561Z</time>
      </trkpt>
      <trkpt lat="45.559231" lon="9.064295">
        <ele>213.212353</ele>
        <time>2026-05-02T12:51:21.556Z</time>
      </trkpt>
      <trkpt lat="45.559105" lon="9.064353">
        <ele>213.071045</ele>
        <time>2026-05-02T12:51:24.556Z</time>
      </trkpt>
      <trkpt lat="45.559005" lon="9.064387">
        <ele>212.961319</ele>
        <time>2026-05-02T12:51:27.561Z</time>
      </trkpt>
      <trkpt lat="45.558962" lon="9.064266">
        <ele>212.859905</ele>
        <time>2026-05-02T12:51:30.550Z</time>
      </trkpt>
      <trkpt lat="45.558865" lon="9.064213">
        <ele>212.749046</ele>
        <time>2026-05-02T12:51:33.558Z</time>
      </trkpt>
      <trkpt lat="45.558747" lon="9.064259">
        <ele>212.618483</ele>
        <time>2026-05-02T12:51:36.557Z</time>
      </trkpt>
      <trkpt lat="45.558657" lon="9.064276">
        <ele>212.521578</ele>
        <time>2026-05-02T12:51:38.555Z</time>
      </trkpt>
      <trkpt lat="45.558557" lon="9.064298">
        <ele>212.413576</ele>
        <time>2026-05-02T12:51:40.558Z</time>
      </trkpt>
      <trkpt lat="45.558455" lon="9.064314">
        <ele>212.304045</ele>
        <time>2026-05-02T12:51:42.556Z</time>
      </trkpt>
      <trkpt lat="45.558352" lon="9.064327">
        <ele>212.193671</ele>
        <time>2026-05-02T12:51:44.556Z</time>
      </trkpt>
      <trkpt lat="45.558250" lon="9.064345">
        <ele>212.083966</ele>
        <time>2026-05-02T12:51:46.556Z</time>
      </trkpt>
      <trkpt lat="45.558150" lon="9.064371">
        <ele>211.975469</ele>
        <time>2026-05-02T12:51:48.556Z</time>
      </trkpt>
      <trkpt lat="45.558052" lon="9.064384">
        <ele>211.870412</ele>
        <time>2026-05-02T12:51:50.554Z</time>
      </trkpt>
      <trkpt lat="45.557957" lon="9.064410">
        <ele>211.767161</ele>
        <time>2026-05-02T12:51:52.555Z</time>
      </trkpt>
      <trkpt lat="45.557864" lon="9.064429">
        <ele>211.666880</ele>
        <time>2026-05-02T12:51:54.557Z</time>
      </trkpt>
      <trkpt lat="45.557768" lon="9.064455">
        <ele>211.562581</ele>
        <time>2026-05-02T12:51:56.554Z</time>
      </trkpt>
      <trkpt lat="45.557671" lon="9.064487">
        <ele>211.456315</ele>
        <time>2026-05-02T12:51:58.556Z</time>
      </trkpt>
      <trkpt lat="45.557578" lon="9.064523">
        <ele>211.374195</ele>
        <time>2026-05-02T12:52:00.556Z</time>
      </trkpt>
      <trkpt lat="45.557489" lon="9.064558">
        <ele>211.354688</ele>
        <time>2026-05-02T12:52:02.555Z</time>
      </trkpt>
      <trkpt lat="45.557407" lon="9.064614">
        <ele>211.335481</ele>
        <time>2026-05-02T12:52:04.556Z</time>
      </trkpt>
      <trkpt lat="45.557323" lon="9.064669">
        <ele>211.315953</ele>
        <time>2026-05-02T12:52:06.556Z</time>
      </trkpt>
      <trkpt lat="45.557237" lon="9.064731">
        <ele>211.295596</ele>
        <time>2026-05-02T12:52:08.561Z</time>
      </trkpt>
      <trkpt lat="45.557159" lon="9.064809">
        <ele>211.275474</ele>
        <time>2026-05-02T12:52:10.562Z</time>
      </trkpt>
      <trkpt lat="45.557084" lon="9.064890">
        <ele>211.255604</ele>
        <time>2026-05-02T12:52:12.555Z</time>
      </trkpt>
      <trkpt lat="45.557011" lon="9.064975">
        <ele>211.235700</ele>
        <time>2026-05-02T12:52:14.556Z</time>
      </trkpt>
      <trkpt lat="45.556936" lon="9.065055">
        <ele>211.215919</ele>
        <time>2026-05-02T12:52:16.554Z</time>
      </trkpt>
      <trkpt lat="45.556833" lon="9.065166">
        <ele>211.188651</ele>
        <time>2026-05-02T12:52:19.559Z</time>
      </trkpt>
      <trkpt lat="45.556745" lon="9.065273">
        <ele>211.164228</ele>
        <time>2026-05-02T12:52:22.559Z</time>
      </trkpt>
      <trkpt lat="45.556638" lon="9.065317">
        <ele>211.140699</ele>
        <time>2026-05-02T12:52:25.559Z</time>
      </trkpt>
      <trkpt lat="45.556507" lon="9.065307">
        <ele>211.112976</ele>
        <time>2026-05-02T12:52:28.579Z</time>
      </trkpt>
      <trkpt lat="45.556421" lon="9.065362">
        <ele>211.093064</ele>
        <time>2026-05-02T12:52:30.556Z</time>
      </trkpt>
      <trkpt lat="45.556339" lon="9.065444">
        <ele>211.071910</ele>
        <time>2026-05-02T12:52:32.553Z</time>
      </trkpt>
      <trkpt lat="45.556260" lon="9.065524">
        <ele>211.051445</ele>
        <time>2026-05-02T12:52:34.551Z</time>
      </trkpt>
      <trkpt lat="45.556185" lon="9.065612">
        <ele>211.030933</ele>
        <time>2026-05-02T12:52:36.555Z</time>
      </trkpt>
      <trkpt lat="45.556126" lon="9.065714">
        <ele>211.011357</ele>
        <time>2026-05-02T12:52:38.558Z</time>
      </trkpt>
      <trkpt lat="45.556107" lon="9.065846">
        <ele>210.966030</ele>
        <time>2026-05-02T12:52:40.559Z</time>
      </trkpt>
      <trkpt lat="45.556081" lon="9.065972">
        <ele>210.883409</ele>
        <time>2026-05-02T12:52:42.559Z</time>
      </trkpt>
      <trkpt lat="45.555985" lon="9.066101">
        <ele>210.765003</ele>
        <time>2026-05-02T12:52:45.558Z</time>
      </trkpt>
      <trkpt lat="45.555896" lon="9.066131">
        <ele>210.682859</ele>
        <time>2026-05-02T12:52:47.566Z</time>
      </trkpt>
      <trkpt lat="45.555798" lon="9.066154">
        <ele>210.593647</ele>
        <time>2026-05-02T12:52:49.557Z</time>
      </trkpt>
      <trkpt lat="45.555701" lon="9.066176">
        <ele>210.505422</ele>
        <time>2026-05-02T12:52:51.555Z</time>
      </trkpt>
      <trkpt lat="45.555605" lon="9.066198">
        <ele>210.418084</ele>
        <time>2026-05-02T12:52:53.555Z</time>
      </trkpt>
      <trkpt lat="45.555510" lon="9.066223">
        <ele>210.331311</ele>
        <time>2026-05-02T12:52:55.553Z</time>
      </trkpt>
      <trkpt lat="45.555418" lon="9.066245">
        <ele>210.247519</ele>
        <time>2026-05-02T12:52:57.552Z</time>
      </trkpt>
      <trkpt lat="45.555323" lon="9.066262">
        <ele>210.161515</ele>
        <time>2026-05-02T12:52:59.549Z</time>
      </trkpt>
      <trkpt lat="45.555234" lon="9.066280">
        <ele>210.080770</ele>
        <time>2026-05-02T12:53:01.557Z</time>
      </trkpt>
      <trkpt lat="45.555139" lon="9.066290">
        <ele>209.995202</ele>
        <time>2026-05-02T12:53:03.555Z</time>
      </trkpt>
      <trkpt lat="45.555046" lon="9.066276">
        <ele>209.911199</ele>
        <time>2026-05-02T12:53:05.555Z</time>
      </trkpt>
      <trkpt lat="45.554952" lon="9.066305">
        <ele>209.824813</ele>
        <time>2026-05-02T12:53:07.547Z</time>
      </trkpt>
      <trkpt lat="45.554868" lon="9.066379">
        <ele>209.736156</ele>
        <time>2026-05-02T12:53:09.556Z</time>
      </trkpt>
      <trkpt lat="45.554771" lon="9.066436">
        <ele>209.641935</ele>
        <time>2026-05-02T12:53:11.553Z</time>
      </trkpt>
      <trkpt lat="45.554669" lon="9.066475">
        <ele>209.547084</ele>
        <time>2026-05-02T12:53:13.554Z</time>
      </trkpt>
      <trkpt lat="45.554568" lon="9.066513">
        <ele>209.453262</ele>
        <time>2026-05-02T12:53:15.555Z</time>
      </trkpt>
      <trkpt lat="45.554470" lon="9.066552">
        <ele>209.379842</ele>
        <time>2026-05-02T12:53:17.554Z</time>
      </trkpt>
      <trkpt lat="45.554371" lon="9.066592">
        <ele>209.364057</ele>
        <time>2026-05-02T12:53:19.558Z</time>
      </trkpt>
      <trkpt lat="45.554274" lon="9.066628">
        <ele>209.348681</ele>
        <time>2026-05-02T12:53:21.556Z</time>
      </trkpt>
      <trkpt lat="45.554175" lon="9.066666">
        <ele>209.332954</ele>
        <time>2026-05-02T12:53:23.558Z</time>
      </trkpt>
      <trkpt lat="45.554079" lon="9.066700">
        <ele>209.317779</ele>
        <time>2026-05-02T12:53:25.558Z</time>
      </trkpt>
      <trkpt lat="45.553985" lon="9.066733">
        <ele>209.302929</ele>
        <time>2026-05-02T12:53:27.558Z</time>
      </trkpt>
      <trkpt lat="45.553892" lon="9.066764">
        <ele>209.288277</ele>
        <time>2026-05-02T12:53:29.557Z</time>
      </trkpt>
      <trkpt lat="45.553797" lon="9.066784">
        <ele>209.273545</ele>
        <time>2026-05-02T12:53:31.556Z</time>
      </trkpt>
      <trkpt lat="45.553699" lon="9.066829">
        <ele>209.257752</ele>
        <time>2026-05-02T12:53:33.557Z</time>
      </trkpt>
      <trkpt lat="45.553600" lon="9.066875">
        <ele>209.241779</ele>
        <time>2026-05-02T12:53:35.556Z</time>
      </trkpt>
      <trkpt lat="45.553496" lon="9.066918">
        <ele>209.225169</ele>
        <time>2026-05-02T12:53:37.558Z</time>
      </trkpt>
      <trkpt lat="45.553389" lon="9.066956">
        <ele>209.208253</ele>
        <time>2026-05-02T12:53:39.554Z</time>
      </trkpt>
      <trkpt lat="45.553281" lon="9.066999">
        <ele>209.191051</ele>
        <time>2026-05-02T12:53:41.558Z</time>
      </trkpt>
      <trkpt lat="45.553178" lon="9.067038">
        <ele>209.174703</ele>
        <time>2026-05-02T12:53:43.556Z</time>
      </trkpt>
      <trkpt lat="45.553077" lon="9.067070">
        <ele>209.158831</ele>
        <time>2026-05-02T12:53:45.564Z</time>
      </trkpt>
      <trkpt lat="45.552981" lon="9.067111">
        <ele>209.143458</ele>
        <time>2026-05-02T12:53:47.555Z</time>
      </trkpt>
      <trkpt lat="45.552883" lon="9.067147">
        <ele>209.127934</ele>
        <time>2026-05-02T12:53:49.555Z</time>
      </trkpt>
      <trkpt lat="45.552786" lon="9.067183">
        <ele>209.112558</ele>
        <time>2026-05-02T12:53:51.555Z</time>
      </trkpt>
      <trkpt lat="45.552698" lon="9.067222">
        <ele>209.116490</ele>
        <time>2026-05-02T12:53:53.556Z</time>
      </trkpt>
      <trkpt lat="45.552611" lon="9.067256">
        <ele>209.129907</ele>
        <time>2026-05-02T12:53:55.563Z</time>
      </trkpt>
      <trkpt lat="45.552483" lon="9.067304">
        <ele>209.149591</ele>
        <time>2026-05-02T12:53:58.547Z</time>
      </trkpt>
      <trkpt lat="45.552359" lon="9.067347">
        <ele>209.168571</ele>
        <time>2026-05-02T12:54:01.554Z</time>
      </trkpt>
      <trkpt lat="45.552233" lon="9.067397">
        <ele>209.188022</ele>
        <time>2026-05-02T12:54:04.555Z</time>
      </trkpt>
      <trkpt lat="45.552137" lon="9.067431">
        <ele>209.202734</ele>
        <time>2026-05-02T12:54:06.553Z</time>
      </trkpt>
      <trkpt lat="45.552038" lon="9.067471">
        <ele>209.218037</ele>
        <time>2026-05-02T12:54:08.548Z</time>
      </trkpt>
      <trkpt lat="45.551942" lon="9.067507">
        <ele>209.232800</ele>
        <time>2026-05-02T12:54:10.564Z</time>
      </trkpt>
      <trkpt lat="45.551853" lon="9.067561">
        <ele>209.247184</ele>
        <time>2026-05-02T12:54:12.561Z</time>
      </trkpt>
      <trkpt lat="45.551772" lon="9.067620">
        <ele>209.260708</ele>
        <time>2026-05-02T12:54:14.560Z</time>
      </trkpt>
      <trkpt lat="45.551690" lon="9.067687">
        <ele>209.274760</ele>
        <time>2026-05-02T12:54:17.559Z</time>
      </trkpt>
      <trkpt lat="45.551567" lon="9.067701">
        <ele>209.293114</ele>
        <time>2026-05-02T12:54:22.557Z</time>
      </trkpt>
      <trkpt lat="45.551444" lon="9.067706">
        <ele>209.311416</ele>
        <time>2026-05-02T12:54:25.554Z</time>
      </trkpt>
      <trkpt lat="45.551333" lon="9.067772">
        <ele>209.329300</ele>
        <time>2026-05-02T12:54:28.559Z</time>
      </trkpt>
      <trkpt lat="45.551314" lon="9.067900">
        <ele>209.342929</ele>
        <time>2026-05-02T12:54:30.550Z</time>
      </trkpt>
      <trkpt lat="45.551355" lon="9.068075">
        <ele>209.362150</ele>
        <time>2026-05-02T12:54:33.556Z</time>
      </trkpt>
      <trkpt lat="45.551373" lon="9.068252">
        <ele>209.368460</ele>
        <time>2026-05-02T12:54:36.564Z</time>
      </trkpt>
      <trkpt lat="45.551368" lon="9.068443">
        <ele>209.344978</ele>
        <time>2026-05-02T12:54:39.549Z</time>
      </trkpt>
      <trkpt lat="45.551373" lon="9.068584">
        <ele>209.327633</ele>
        <time>2026-05-02T12:54:41.556Z</time>
      </trkpt>
      <trkpt lat="45.551387" lon="9.068725">
        <ele>209.310137</ele>
        <time>2026-05-02T12:54:43.554Z</time>
      </trkpt>
      <trkpt lat="45.551397" lon="9.068865">
        <ele>209.292847</ele>
        <time>2026-05-02T12:54:45.556Z</time>
      </trkpt>
      <trkpt lat="45.551407" lon="9.069008">
        <ele>209.275191</ele>
        <time>2026-05-02T12:54:47.556Z</time>
      </trkpt>
      <trkpt lat="45.551418" lon="9.069142">
        <ele>209.258616</ele>
        <time>2026-05-02T12:54:49.555Z</time>
      </trkpt>
      <trkpt lat="45.551428" lon="9.069274">
        <ele>209.242304</ele>
        <time>2026-05-02T12:54:51.556Z</time>
      </trkpt>
      <trkpt lat="45.551438" lon="9.069469">
        <ele>209.218282</ele>
        <time>2026-05-02T12:54:54.564Z</time>
      </trkpt>
      <trkpt lat="45.551412" lon="9.069648">
        <ele>209.195823</ele>
        <time>2026-05-02T12:54:57.555Z</time>
      </trkpt>
      <trkpt lat="45.551422" lon="9.069822">
        <ele>209.174373</ele>
        <time>2026-05-02T12:55:00.555Z</time>
      </trkpt>
      <trkpt lat="45.551440" lon="9.069997">
        <ele>209.152643</ele>
        <time>2026-05-02T12:55:03.554Z</time>
      </trkpt>
      <trkpt lat="45.551445" lon="9.070179">
        <ele>209.130265</ele>
        <time>2026-05-02T12:55:06.551Z</time>
      </trkpt>
      <trkpt lat="45.551429" lon="9.070365">
        <ele>209.107242</ele>
        <time>2026-05-02T12:55:09.560Z</time>
      </trkpt>
      <trkpt lat="45.551388" lon="9.070485">
        <ele>209.090838</ele>
        <time>2026-05-02T12:55:11.557Z</time>
      </trkpt>
      <trkpt lat="45.551325" lon="9.070576">
        <ele>209.075116</ele>
        <time>2026-05-02T12:55:13.557Z</time>
      </trkpt>
      <trkpt lat="45.551215" lon="9.070676">
        <ele>209.020109</ele>
        <time>2026-05-02T12:55:16.552Z</time>
      </trkpt>
      <trkpt lat="45.551105" lon="9.070780">
        <ele>208.895475</ele>
        <time>2026-05-02T12:55:19.559Z</time>
      </trkpt>
      <trkpt lat="45.550997" lon="9.070880">
        <ele>208.773872</ele>
        <time>2026-05-02T12:55:22.558Z</time>
      </trkpt>
      <trkpt lat="45.550918" lon="9.070948">
        <ele>208.686728</ele>
        <time>2026-05-02T12:55:24.551Z</time>
      </trkpt>
      <trkpt lat="45.550829" lon="9.070998">
        <ele>208.596373</ele>
        <time>2026-05-02T12:55:26.556Z</time>
      </trkpt>
      <trkpt lat="45.550729" lon="9.071016">
        <ele>208.501151</ele>
        <time>2026-05-02T12:55:28.557Z</time>
      </trkpt>
      <trkpt lat="45.550624" lon="9.071019">
        <ele>208.401934</ele>
        <time>2026-05-02T12:55:33.556Z</time>
      </trkpt>
      <trkpt lat="45.550521" lon="9.071018">
        <ele>208.304623</ele>
        <time>2026-05-02T12:55:37.556Z</time>
      </trkpt>
      <trkpt lat="45.550423" lon="9.071061">
        <ele>208.207767</ele>
        <time>2026-05-02T12:55:41.554Z</time>
      </trkpt>
      <trkpt lat="45.550334" lon="9.071093">
        <ele>208.121060</ele>
        <time>2026-05-02T12:55:44.559Z</time>
      </trkpt>
      <trkpt lat="45.550203" lon="9.071098">
        <ele>207.997255</ele>
        <time>2026-05-02T12:55:47.553Z</time>
      </trkpt>
      <trkpt lat="45.550102" lon="9.071113">
        <ele>207.901322</ele>
        <time>2026-05-02T12:55:49.553Z</time>
      </trkpt>
      <trkpt lat="45.549998" lon="9.071119">
        <ele>207.802989</ele>
        <time>2026-05-02T12:55:51.557Z</time>
      </trkpt>
      <trkpt lat="45.549901" lon="9.071127">
        <ele>207.711196</ele>
        <time>2026-05-02T12:55:53.552Z</time>
      </trkpt>
      <trkpt lat="45.549806" lon="9.071132">
        <ele>207.621385</ele>
        <time>2026-05-02T12:55:55.561Z</time>
      </trkpt>
      <trkpt lat="45.549707" lon="9.071140">
        <ele>207.527706</ele>
        <time>2026-05-02T12:55:57.561Z</time>
      </trkpt>
      <trkpt lat="45.549606" lon="9.071151">
        <ele>207.432010</ele>
        <time>2026-05-02T12:55:59.560Z</time>
      </trkpt>
      <trkpt lat="45.549507" lon="9.071152">
        <ele>207.340267</ele>
        <time>2026-05-02T12:56:01.559Z</time>
      </trkpt>
      <trkpt lat="45.549413" lon="9.071157">
        <ele>207.258679</ele>
        <time>2026-05-02T12:56:03.560Z</time>
      </trkpt>
      <trkpt lat="45.549285" lon="9.071148">
        <ele>207.147523</ele>
        <time>2026-05-02T12:56:06.558Z</time>
      </trkpt>
      <trkpt lat="45.549198" lon="9.071115">
        <ele>207.069446</ele>
        <time>2026-05-02T12:56:08.562Z</time>
      </trkpt>
      <trkpt lat="45.549106" lon="9.071116">
        <ele>206.989647</ele>
        <time>2026-05-02T12:56:10.549Z</time>
      </trkpt>
      <trkpt lat="45.548988" lon="9.071210">
        <ele>206.872450</ele>
        <time>2026-05-02T12:56:13.559Z</time>
      </trkpt>
      <trkpt lat="45.548900" lon="9.071263">
        <ele>206.789611</ele>
        <time>2026-05-02T12:56:15.551Z</time>
      </trkpt>
      <trkpt lat="45.548807" lon="9.071275">
        <ele>206.708619</ele>
        <time>2026-05-02T12:56:17.557Z</time>
      </trkpt>
      <trkpt lat="45.548704" lon="9.071292">
        <ele>206.618686</ele>
        <time>2026-05-02T12:56:19.558Z</time>
      </trkpt>
      <trkpt lat="45.548604" lon="9.071312">
        <ele>206.531104</ele>
        <time>2026-05-02T12:56:21.563Z</time>
      </trkpt>
      <trkpt lat="45.548509" lon="9.071328">
        <ele>206.448134</ele>
        <time>2026-05-02T12:56:23.557Z</time>
      </trkpt>
      <trkpt lat="45.548411" lon="9.071348">
        <ele>206.362269</ele>
        <time>2026-05-02T12:56:25.563Z</time>
      </trkpt>
      <trkpt lat="45.548306" lon="9.071373">
        <ele>206.269940</ele>
        <time>2026-05-02T12:56:27.555Z</time>
      </trkpt>
      <trkpt lat="45.548204" lon="9.071392">
        <ele>206.180720</ele>
        <time>2026-05-02T12:56:29.556Z</time>
      </trkpt>
      <trkpt lat="45.548098" lon="9.071406">
        <ele>206.088388</ele>
        <time>2026-05-02T12:56:31.554Z</time>
      </trkpt>
      <trkpt lat="45.547989" lon="9.071433">
        <ele>205.992434</ele>
        <time>2026-05-02T12:56:33.557Z</time>
      </trkpt>
      <trkpt lat="45.547884" lon="9.071458">
        <ele>205.900104</ele>
        <time>2026-05-02T12:56:35.555Z</time>
      </trkpt>
      <trkpt lat="45.547783" lon="9.071475">
        <ele>205.811895</ele>
        <time>2026-05-02T12:56:37.557Z</time>
      </trkpt>
      <trkpt lat="45.547684" lon="9.071497">
        <ele>205.733185</ele>
        <time>2026-05-02T12:56:39.554Z</time>
      </trkpt>
      <trkpt lat="45.547581" lon="9.071515">
        <ele>205.652978</ele>
        <time>2026-05-02T12:56:41.547Z</time>
      </trkpt>
      <trkpt lat="45.547484" lon="9.071536">
        <ele>205.577145</ele>
        <time>2026-05-02T12:56:43.548Z</time>
      </trkpt>
      <trkpt lat="45.547387" lon="9.071556">
        <ele>205.501392</ele>
        <time>2026-05-02T12:56:45.552Z</time>
      </trkpt>
      <trkpt lat="45.547291" lon="9.071574">
        <ele>205.426553</ele>
        <time>2026-05-02T12:56:47.561Z</time>
      </trkpt>
      <trkpt lat="45.547198" lon="9.071584">
        <ele>205.354465</ele>
        <time>2026-05-02T12:56:49.552Z</time>
      </trkpt>
      <trkpt lat="45.547106" lon="9.071604">
        <ele>205.282535</ele>
        <time>2026-05-02T12:56:51.556Z</time>
      </trkpt>
      <trkpt lat="45.547007" lon="9.071618">
        <ele>205.205640</ele>
        <time>2026-05-02T12:56:53.552Z</time>
      </trkpt>
      <trkpt lat="45.546902" lon="9.071632">
        <ele>205.124127</ele>
        <time>2026-05-02T12:56:55.547Z</time>
      </trkpt>
      <trkpt lat="45.546801" lon="9.071643">
        <ele>205.045833</ele>
        <time>2026-05-02T12:56:57.547Z</time>
      </trkpt>
      <trkpt lat="45.546704" lon="9.071658">
        <ele>204.970420</ele>
        <time>2026-05-02T12:56:59.553Z</time>
      </trkpt>
      <trkpt lat="45.546603" lon="9.071667">
        <ele>204.892200</ele>
        <time>2026-05-02T12:57:01.559Z</time>
      </trkpt>
      <trkpt lat="45.546506" lon="9.071681">
        <ele>204.816843</ele>
        <time>2026-05-02T12:57:03.555Z</time>
      </trkpt>
      <trkpt lat="45.546406" lon="9.071692">
        <ele>204.739320</ele>
        <time>2026-05-02T12:57:05.553Z</time>
      </trkpt>
      <trkpt lat="45.546310" lon="9.071707">
        <ele>204.664674</ele>
        <time>2026-05-02T12:57:07.558Z</time>
      </trkpt>
      <trkpt lat="45.546216" lon="9.071722">
        <ele>204.591565</ele>
        <time>2026-05-02T12:57:09.554Z</time>
      </trkpt>
      <trkpt lat="45.546115" lon="9.071739">
        <ele>204.512957</ele>
        <time>2026-05-02T12:57:11.560Z</time>
      </trkpt>
      <trkpt lat="45.546021" lon="9.071764">
        <ele>204.439051</ele>
        <time>2026-05-02T12:57:13.554Z</time>
      </trkpt>
      <trkpt lat="45.545892" lon="9.071792">
        <ele>204.433152</ele>
        <time>2026-05-02T12:57:16.551Z</time>
      </trkpt>
      <trkpt lat="45.545798" lon="9.071775">
        <ele>204.456764</ele>
        <time>2026-05-02T12:57:18.553Z</time>
      </trkpt>
      <trkpt lat="45.545699" lon="9.071772">
        <ele>204.481440</ele>
        <time>2026-05-02T12:57:20.557Z</time>
      </trkpt>
      <trkpt lat="45.545599" lon="9.071769">
        <ele>204.506365</ele>
        <time>2026-05-02T12:57:22.557Z</time>
      </trkpt>
      <trkpt lat="45.545495" lon="9.071747">
        <ele>204.532564</ele>
        <time>2026-05-02T12:57:24.556Z</time>
      </trkpt>
      <trkpt lat="45.545397" lon="9.071711">
        <ele>204.557781</ele>
        <time>2026-05-02T12:57:26.556Z</time>
      </trkpt>
      <trkpt lat="45.545303" lon="9.071661">
        <ele>204.582778</ele>
        <time>2026-05-02T12:57:28.546Z</time>
      </trkpt>
      <trkpt lat="45.545210" lon="9.071596">
        <ele>204.608581</ele>
        <time>2026-05-02T12:57:30.554Z</time>
      </trkpt>
      <trkpt lat="45.545123" lon="9.071514">
        <ele>204.634558</ele>
        <time>2026-05-02T12:57:32.547Z</time>
      </trkpt>
      <trkpt lat="45.545051" lon="9.071415">
        <ele>204.659467</ele>
        <time>2026-05-02T12:57:34.552Z</time>
      </trkpt>
      <trkpt lat="45.544991" lon="9.071292">
        <ele>204.685628</ele>
        <time>2026-05-02T12:57:36.553Z</time>
      </trkpt>
      <trkpt lat="45.544951" lon="9.071151">
        <ele>204.712178</ele>
        <time>2026-05-02T12:57:38.554Z</time>
      </trkpt>
      <trkpt lat="45.544937" lon="9.070998">
        <ele>204.739107</ele>
        <time>2026-05-02T12:57:40.554Z</time>
      </trkpt>
      <trkpt lat="45.544938" lon="9.070851">
        <ele>204.764763</ele>
        <time>2026-05-02T12:57:42.561Z</time>
      </trkpt>
      <trkpt lat="45.544939" lon="9.070702">
        <ele>204.790769</ele>
        <time>2026-05-02T12:57:44.556Z</time>
      </trkpt>
      <trkpt lat="45.544934" lon="9.070555">
        <ele>204.816454</ele>
        <time>2026-05-02T12:57:46.557Z</time>
      </trkpt>
      <trkpt lat="45.544916" lon="9.070416">
        <ele>204.841124</ele>
        <time>2026-05-02T12:57:48.561Z</time>
      </trkpt>
      <trkpt lat="45.544883" lon="9.070285">
        <ele>204.925463</ele>
        <time>2026-05-02T12:57:50.552Z</time>
      </trkpt>
      <trkpt lat="45.544831" lon="9.070177">
        <ele>205.139006</ele>
        <time>2026-05-02T12:57:52.556Z</time>
      </trkpt>
      <trkpt lat="45.544762" lon="9.070093">
        <ele>205.349959</ele>
        <time>2026-05-02T12:57:54.552Z</time>
      </trkpt>
      <trkpt lat="45.544663" lon="9.069985">
        <ele>205.639808</ele>
        <time>2026-05-02T12:57:57.552Z</time>
      </trkpt>
      <trkpt lat="45.544563" lon="9.069883">
        <ele>205.925720</ele>
        <time>2026-05-02T12:58:00.553Z</time>
      </trkpt>
      <trkpt lat="45.544464" lon="9.069778">
        <ele>206.212629</ele>
        <time>2026-05-02T12:58:03.555Z</time>
      </trkpt>
      <trkpt lat="45.544364" lon="9.069673">
        <ele>206.501409</ele>
        <time>2026-05-02T12:58:06.555Z</time>
      </trkpt>
      <trkpt lat="45.544267" lon="9.069570">
        <ele>206.782640</ele>
        <time>2026-05-02T12:58:09.558Z</time>
      </trkpt>
      <trkpt lat="45.544177" lon="9.069468">
        <ele>207.049963</ele>
        <time>2026-05-02T12:58:12.553Z</time>
      </trkpt>
      <trkpt lat="45.544084" lon="9.069365">
        <ele>207.323784</ele>
        <time>2026-05-02T12:58:15.555Z</time>
      </trkpt>
      <trkpt lat="45.543990" lon="9.069264">
        <ele>207.597475</ele>
        <time>2026-05-02T12:58:18.563Z</time>
      </trkpt>
      <trkpt lat="45.543895" lon="9.069161">
        <ele>207.874987</ele>
        <time>2026-05-02T12:58:21.562Z</time>
      </trkpt>
      <trkpt lat="45.543800" lon="9.069057">
        <ele>208.153487</ele>
        <time>2026-05-02T12:58:24.556Z</time>
      </trkpt>
      <trkpt lat="45.543703" lon="9.068947">
        <ele>208.441671</ele>
        <time>2026-05-02T12:58:27.556Z</time>
      </trkpt>
      <trkpt lat="45.543606" lon="9.068829">
        <ele>208.738138</ele>
        <time>2026-05-02T12:58:30.559Z</time>
      </trkpt>
      <trkpt lat="45.543497" lon="9.068711">
        <ele>209.021258</ele>
        <time>2026-05-02T12:58:33.553Z</time>
      </trkpt>
      <trkpt lat="45.543391" lon="9.068600">
        <ele>208.540944</ele>
        <time>2026-05-02T12:58:36.554Z</time>
      </trkpt>
      <trkpt lat="45.543282" lon="9.068513">
        <ele>208.084664</ele>
        <time>2026-05-02T12:58:39.561Z</time>
      </trkpt>
      <trkpt lat="45.543192" lon="9.068476">
        <ele>207.742452</ele>
        <time>2026-05-02T12:58:41.555Z</time>
      </trkpt>
      <trkpt lat="45.543090" lon="9.068447">
        <ele>207.362437</ele>
        <time>2026-05-02T12:58:43.558Z</time>
      </trkpt>
      <trkpt lat="45.542975" lon="9.068427">
        <ele>206.939133</ele>
        <time>2026-05-02T12:58:45.558Z</time>
      </trkpt>
      <trkpt lat="45.542847" lon="9.068412">
        <ele>206.469861</ele>
        <time>2026-05-02T12:58:47.553Z</time>
      </trkpt>
      <trkpt lat="45.542708" lon="9.068381">
        <ele>205.955810</ele>
        <time>2026-05-02T12:58:49.555Z</time>
      </trkpt>
      <trkpt lat="45.542567" lon="9.068337">
        <ele>205.428448</ele>
        <time>2026-05-02T12:58:51.557Z</time>
      </trkpt>
      <trkpt lat="45.542421" lon="9.068290">
        <ele>204.881587</ele>
        <time>2026-05-02T12:58:53.557Z</time>
      </trkpt>
      <trkpt lat="45.542271" lon="9.068232">
        <ele>204.313758</ele>
        <time>2026-05-02T12:58:55.556Z</time>
      </trkpt>
      <trkpt lat="45.542121" lon="9.068156">
        <ele>203.732187</ele>
        <time>2026-05-02T12:58:57.554Z</time>
      </trkpt>
      <trkpt lat="45.541970" lon="9.068070">
        <ele>203.138171</ele>
        <time>2026-05-02T12:58:59.554Z</time>
      </trkpt>
      <trkpt lat="45.541816" lon="9.068021">
        <ele>202.561667</ele>
        <time>2026-05-02T12:59:01.554Z</time>
      </trkpt>
      <trkpt lat="45.541683" lon="9.067995">
        <ele>202.373888</ele>
        <time>2026-05-02T12:59:03.554Z</time>
      </trkpt>
      <trkpt lat="45.541559" lon="9.067981">
        <ele>202.263807</ele>
        <time>2026-05-02T12:59:05.556Z</time>
      </trkpt>
      <trkpt lat="45.541434" lon="9.067988">
        <ele>202.153099</ele>
        <time>2026-05-02T12:59:07.553Z</time>
      </trkpt>
      <trkpt lat="45.541336" lon="9.067995">
        <ele>202.066262</ele>
        <time>2026-05-02T12:59:09.556Z</time>
      </trkpt>
      <trkpt lat="45.541240" lon="9.068014">
        <ele>201.980490</ele>
        <time>2026-05-02T12:59:11.559Z</time>
      </trkpt>
      <trkpt lat="45.541146" lon="9.068026">
        <ele>201.896970</ele>
        <time>2026-05-02T12:59:13.560Z</time>
      </trkpt>
      <trkpt lat="45.541047" lon="9.068048">
        <ele>201.808301</ele>
        <time>2026-05-02T12:59:15.554Z</time>
      </trkpt>
      <trkpt lat="45.540951" lon="9.068091">
        <ele>201.719260</ele>
        <time>2026-05-02T12:59:17.556Z</time>
      </trkpt>
      <trkpt lat="45.540860" lon="9.068140">
        <ele>201.633189</ele>
        <time>2026-05-02T12:59:19.555Z</time>
      </trkpt>
      <trkpt lat="45.540760" lon="9.068190">
        <ele>201.539421</ele>
        <time>2026-05-02T12:59:21.559Z</time>
      </trkpt>
      <trkpt lat="45.540666" lon="9.068245">
        <ele>201.449517</ele>
        <time>2026-05-02T12:59:23.554Z</time>
      </trkpt>
      <trkpt lat="45.540585" lon="9.068328">
        <ele>201.361282</ele>
        <time>2026-05-02T12:59:25.559Z</time>
      </trkpt>
      <trkpt lat="45.540517" lon="9.068431">
        <ele>201.273546</ele>
        <time>2026-05-02T12:59:27.553Z</time>
      </trkpt>
      <trkpt lat="45.540443" lon="9.068523">
        <ele>201.186708</ele>
        <time>2026-05-02T12:59:29.551Z</time>
      </trkpt>
      <trkpt lat="45.540367" lon="9.068620">
        <ele>201.096493</ele>
        <time>2026-05-02T12:59:31.558Z</time>
      </trkpt>
      <trkpt lat="45.540292" lon="9.068719">
        <ele>201.006098</ele>
        <time>2026-05-02T12:59:33.557Z</time>
      </trkpt>
      <trkpt lat="45.540224" lon="9.068819">
        <ele>200.919706</ele>
        <time>2026-05-02T12:59:35.557Z</time>
      </trkpt>
      <trkpt lat="45.540148" lon="9.068905">
        <ele>200.852573</ele>
        <time>2026-05-02T12:59:37.557Z</time>
      </trkpt>
      <trkpt lat="45.540071" lon="9.068990">
        <ele>200.802223</ele>
        <time>2026-05-02T12:59:39.552Z</time>
      </trkpt>
      <trkpt lat="45.539991" lon="9.069053">
        <ele>200.754961</ele>
        <time>2026-05-02T12:59:41.549Z</time>
      </trkpt>
      <trkpt lat="45.539902" lon="9.069104">
        <ele>200.705351</ele>
        <time>2026-05-02T12:59:43.555Z</time>
      </trkpt>
      <trkpt lat="45.539801" lon="9.069125">
        <ele>200.652552</ele>
        <time>2026-05-02T12:59:45.558Z</time>
      </trkpt>
      <trkpt lat="45.539698" lon="9.069119">
        <ele>200.599226</ele>
        <time>2026-05-02T12:59:47.547Z</time>
      </trkpt>
      <trkpt lat="45.539595" lon="9.069111">
        <ele>200.545864</ele>
        <time>2026-05-02T12:59:49.552Z</time>
      </trkpt>
      <trkpt lat="45.539491" lon="9.069112">
        <ele>200.492064</ele>
        <time>2026-05-02T12:59:51.554Z</time>
      </trkpt>
      <trkpt lat="45.539384" lon="9.069100">
        <ele>200.436542</ele>
        <time>2026-05-02T12:59:53.545Z</time>
      </trkpt>
      <trkpt lat="45.539288" lon="9.069076">
        <ele>200.386125</ele>
        <time>2026-05-02T12:59:55.551Z</time>
      </trkpt>
      <trkpt lat="45.539187" lon="9.069061">
        <ele>200.333595</ele>
        <time>2026-05-02T12:59:57.550Z</time>
      </trkpt>
      <trkpt lat="45.539089" lon="9.069046">
        <ele>200.282609</ele>
        <time>2026-05-02T12:59:59.553Z</time>
      </trkpt>
      <trkpt lat="45.538997" lon="9.069028">
        <ele>200.234572</ele>
        <time>2026-05-02T13:00:01.550Z</time>
      </trkpt>
      <trkpt lat="45.538901" lon="9.069018">
        <ele>200.184779</ele>
        <time>2026-05-02T13:00:03.553Z</time>
      </trkpt>
      <trkpt lat="45.538800" lon="9.069016">
        <ele>200.132526</ele>
        <time>2026-05-02T13:00:05.552Z</time>
      </trkpt>
      <trkpt lat="45.538698" lon="9.069014">
        <ele>200.079756</ele>
        <time>2026-05-02T13:00:07.544Z</time>
      </trkpt>
      <trkpt lat="45.538594" lon="9.069018">
        <ele>200.025937</ele>
        <time>2026-05-02T13:00:09.555Z</time>
      </trkpt>
      <trkpt lat="45.538498" lon="9.069015">
        <ele>199.976264</ele>
        <time>2026-05-02T13:00:11.552Z</time>
      </trkpt>
      <trkpt lat="45.538398" lon="9.069011">
        <ele>199.924794</ele>
        <time>2026-05-02T13:00:13.559Z</time>
      </trkpt>
      <trkpt lat="45.538304" lon="9.069006">
        <ele>199.876706</ele>
        <time>2026-05-02T13:00:15.559Z</time>
      </trkpt>
      <trkpt lat="45.538206" lon="9.069019">
        <ele>199.826391</ele>
        <time>2026-05-02T13:00:17.559Z</time>
      </trkpt>
      <trkpt lat="45.538101" lon="9.069026">
        <ele>199.772655</ele>
        <time>2026-05-02T13:00:19.551Z</time>
      </trkpt>
      <trkpt lat="45.538001" lon="9.069035">
        <ele>199.721431</ele>
        <time>2026-05-02T13:00:21.558Z</time>
      </trkpt>
      <trkpt lat="45.537899" lon="9.069042">
        <ele>199.669227</ele>
        <time>2026-05-02T13:00:23.551Z</time>
      </trkpt>
      <trkpt lat="45.537795" lon="9.069049">
        <ele>199.616001</ele>
        <time>2026-05-02T13:00:25.554Z</time>
      </trkpt>
      <trkpt lat="45.537698" lon="9.069055">
        <ele>199.566366</ele>
        <time>2026-05-02T13:00:27.558Z</time>
      </trkpt>
      <trkpt lat="45.537598" lon="9.069052">
        <ele>199.515233</ele>
        <time>2026-05-02T13:00:29.557Z</time>
      </trkpt>
      <trkpt lat="45.537496" lon="9.069060">
        <ele>199.463010</ele>
        <time>2026-05-02T13:00:31.549Z</time>
      </trkpt>
      <trkpt lat="45.537397" lon="9.069068">
        <ele>199.412318</ele>
        <time>2026-05-02T13:00:33.557Z</time>
      </trkpt>
      <trkpt lat="45.537297" lon="9.069069">
        <ele>199.361195</ele>
        <time>2026-05-02T13:00:35.556Z</time>
      </trkpt>
      <trkpt lat="45.537193" lon="9.069063">
        <ele>199.307985</ele>
        <time>2026-05-02T13:00:37.563Z</time>
      </trkpt>
      <trkpt lat="45.537093" lon="9.069056">
        <ele>199.256801</ele>
        <time>2026-05-02T13:00:39.552Z</time>
      </trkpt>
      <trkpt lat="45.536999" lon="9.069049">
        <ele>199.208681</ele>
        <time>2026-05-02T13:00:41.556Z</time>
      </trkpt>
      <trkpt lat="45.536909" lon="9.069047">
        <ele>199.162666</ele>
        <time>2026-05-02T13:00:43.555Z</time>
      </trkpt>
      <trkpt lat="45.536817" lon="9.069038">
        <ele>199.115524</ele>
        <time>2026-05-02T13:00:45.555Z</time>
      </trkpt>
      <trkpt lat="45.536686" lon="9.069028">
        <ele>199.048458</ele>
        <time>2026-05-02T13:00:48.552Z</time>
      </trkpt>
      <trkpt lat="45.536557" lon="9.069021">
        <ele>198.970868</ele>
        <time>2026-05-02T13:00:51.552Z</time>
      </trkpt>
      <trkpt lat="45.536466" lon="9.069013">
        <ele>198.912625</ele>
        <time>2026-05-02T13:00:53.552Z</time>
      </trkpt>
      <trkpt lat="45.536372" lon="9.069004">
        <ele>198.852442</ele>
        <time>2026-05-02T13:00:55.552Z</time>
      </trkpt>
      <trkpt lat="45.536282" lon="9.068999">
        <ele>198.794905</ele>
        <time>2026-05-02T13:00:57.553Z</time>
      </trkpt>
      <trkpt lat="45.536191" lon="9.068983">
        <ele>198.736333</ele>
        <time>2026-05-02T13:00:59.563Z</time>
      </trkpt>
      <trkpt lat="45.536098" lon="9.068972">
        <ele>198.676720</ele>
        <time>2026-05-02T13:01:01.550Z</time>
      </trkpt>
      <trkpt lat="45.535973" lon="9.068955">
        <ele>198.596507</ele>
        <time>2026-05-02T13:01:04.549Z</time>
      </trkpt>
      <trkpt lat="45.535836" lon="9.068944">
        <ele>198.508850</ele>
        <time>2026-05-02T13:01:07.554Z</time>
      </trkpt>
      <trkpt lat="45.535734" lon="9.068930">
        <ele>198.443391</ele>
        <time>2026-05-02T13:01:09.557Z</time>
      </trkpt>
      <trkpt lat="45.535634" lon="9.068915">
        <ele>198.379158</ele>
        <time>2026-05-02T13:01:11.550Z</time>
      </trkpt>
      <trkpt lat="45.535540" lon="9.068908">
        <ele>198.319027</ele>
        <time>2026-05-02T13:01:13.551Z</time>
      </trkpt>
      <trkpt lat="45.535447" lon="9.068897">
        <ele>198.259414</ele>
        <time>2026-05-02T13:01:15.554Z</time>
      </trkpt>
      <trkpt lat="45.535356" lon="9.068891">
        <ele>198.201220</ele>
        <time>2026-05-02T13:01:17.557Z</time>
      </trkpt>
      <trkpt lat="45.535259" lon="9.068883">
        <ele>198.139151</ele>
        <time>2026-05-02T13:01:19.555Z</time>
      </trkpt>
      <trkpt lat="45.535158" lon="9.068884">
        <ele>198.074629</ele>
        <time>2026-05-02T13:01:21.564Z</time>
      </trkpt>
      <trkpt lat="45.535055" lon="9.068890">
        <ele>198.008776</ele>
        <time>2026-05-02T13:01:23.550Z</time>
      </trkpt>
      <trkpt lat="45.534955" lon="9.068895">
        <ele>197.944856</ele>
        <time>2026-05-02T13:01:25.557Z</time>
      </trkpt>
      <trkpt lat="45.534856" lon="9.068900">
        <ele>197.881573</ele>
        <time>2026-05-02T13:01:27.550Z</time>
      </trkpt>
      <trkpt lat="45.534759" lon="9.068892">
        <ele>197.892376</ele>
        <time>2026-05-02T13:01:29.556Z</time>
      </trkpt>
      <trkpt lat="45.534657" lon="9.068897">
        <ele>197.905818</ele>
        <time>2026-05-02T13:01:31.552Z</time>
      </trkpt>
      <trkpt lat="45.534553" lon="9.068905">
        <ele>197.919536</ele>
        <time>2026-05-02T13:01:33.554Z</time>
      </trkpt>
      <trkpt lat="45.534447" lon="9.068908">
        <ele>197.933500</ele>
        <time>2026-05-02T13:01:35.554Z</time>
      </trkpt>
      <trkpt lat="45.534348" lon="9.068910">
        <ele>197.946540</ele>
        <time>2026-05-02T13:01:37.554Z</time>
      </trkpt>
      <trkpt lat="45.534251" lon="9.068911">
        <ele>197.959316</ele>
        <time>2026-05-02T13:01:39.553Z</time>
      </trkpt>
      <trkpt lat="45.534155" lon="9.068910">
        <ele>197.971961</ele>
        <time>2026-05-02T13:01:41.556Z</time>
      </trkpt>
      <trkpt lat="45.534057" lon="9.068914">
        <ele>197.984874</ele>
        <time>2026-05-02T13:01:43.552Z</time>
      </trkpt>
      <trkpt lat="45.533962" lon="9.068915">
        <ele>197.997386</ele>
        <time>2026-05-02T13:01:45.559Z</time>
      </trkpt>
      <trkpt lat="45.533868" lon="9.068915">
        <ele>198.009767</ele>
        <time>2026-05-02T13:01:47.554Z</time>
      </trkpt>
      <trkpt lat="45.533743" lon="9.068896">
        <ele>198.026324</ele>
        <time>2026-05-02T13:01:50.556Z</time>
      </trkpt>
      <trkpt lat="45.533655" lon="9.068808">
        <ele>198.040475</ele>
        <time>2026-05-02T13:01:56.556Z</time>
      </trkpt>
      <trkpt lat="45.533538" lon="9.068794">
        <ele>198.055939</ele>
        <time>2026-05-02T13:02:00.560Z</time>
      </trkpt>
      <trkpt lat="45.533441" lon="9.068895">
        <ele>198.071752</ele>
        <time>2026-05-02T13:02:03.560Z</time>
      </trkpt>
      <trkpt lat="45.533315" lon="9.068929">
        <ele>198.088642</ele>
        <time>2026-05-02T13:02:06.558Z</time>
      </trkpt>
      <trkpt lat="45.533181" lon="9.068936">
        <ele>198.106303</ele>
        <time>2026-05-02T13:02:09.565Z</time>
      </trkpt>
      <trkpt lat="45.533083" lon="9.068942">
        <ele>198.117031</ele>
        <time>2026-05-02T13:02:11.559Z</time>
      </trkpt>
      <trkpt lat="45.532984" lon="9.068952">
        <ele>198.118189</ele>
        <time>2026-05-02T13:02:13.552Z</time>
      </trkpt>
      <trkpt lat="45.532884" lon="9.068965">
        <ele>198.119361</ele>
        <time>2026-05-02T13:02:15.559Z</time>
      </trkpt>
      <trkpt lat="45.532790" lon="9.068973">
        <ele>198.120460</ele>
        <time>2026-05-02T13:02:17.565Z</time>
      </trkpt>
      <trkpt lat="45.532654" lon="9.068966">
        <ele>198.122047</ele>
        <time>2026-05-02T13:02:20.556Z</time>
      </trkpt>
      <trkpt lat="45.532559" lon="9.068959">
        <ele>198.123157</ele>
        <time>2026-05-02T13:02:22.551Z</time>
      </trkpt>
      <trkpt lat="45.532460" lon="9.068943">
        <ele>198.124320</ele>
        <time>2026-05-02T13:02:24.554Z</time>
      </trkpt>
      <trkpt lat="45.532362" lon="9.068921">
        <ele>198.125477</ele>
        <time>2026-05-02T13:02:26.555Z</time>
      </trkpt>
      <trkpt lat="45.532261" lon="9.068900">
        <ele>198.126668</ele>
        <time>2026-05-02T13:02:28.551Z</time>
      </trkpt>
      <trkpt lat="45.532157" lon="9.068881">
        <ele>198.127891</ele>
        <time>2026-05-02T13:02:30.555Z</time>
      </trkpt>
      <trkpt lat="45.532050" lon="9.068855">
        <ele>198.129158</ele>
        <time>2026-05-02T13:02:32.556Z</time>
      </trkpt>
      <trkpt lat="45.531948" lon="9.068829">
        <ele>198.130366</ele>
        <time>2026-05-02T13:02:34.555Z</time>
      </trkpt>
      <trkpt lat="45.531847" lon="9.068802">
        <ele>198.131565</ele>
        <time>2026-05-02T13:02:36.557Z</time>
      </trkpt>
      <trkpt lat="45.531745" lon="9.068781">
        <ele>198.132768</ele>
        <time>2026-05-02T13:02:38.556Z</time>
      </trkpt>
      <trkpt lat="45.531640" lon="9.068753">
        <ele>198.134014</ele>
        <time>2026-05-02T13:02:40.549Z</time>
      </trkpt>
      <trkpt lat="45.531532" lon="9.068731">
        <ele>198.135287</ele>
        <time>2026-05-02T13:02:42.561Z</time>
      </trkpt>
      <trkpt lat="45.531430" lon="9.068708">
        <ele>198.136492</ele>
        <time>2026-05-02T13:02:44.562Z</time>
      </trkpt>
      <trkpt lat="45.531329" lon="9.068700">
        <ele>198.137672</ele>
        <time>2026-05-02T13:02:46.554Z</time>
      </trkpt>
      <trkpt lat="45.531220" lon="9.068696">
        <ele>198.153112</ele>
        <time>2026-05-02T13:02:48.561Z</time>
      </trkpt>
      <trkpt lat="45.531112" lon="9.068687">
        <ele>198.170057</ele>
        <time>2026-05-02T13:02:50.562Z</time>
      </trkpt>
      <trkpt lat="45.531007" lon="9.068686">
        <ele>198.186505</ele>
        <time>2026-05-02T13:02:52.554Z</time>
      </trkpt>
      <trkpt lat="45.530904" lon="9.068680">
        <ele>198.202651</ele>
        <time>2026-05-02T13:02:54.551Z</time>
      </trkpt>
      <trkpt lat="45.530806" lon="9.068670">
        <ele>198.218041</ele>
        <time>2026-05-02T13:02:56.558Z</time>
      </trkpt>
      <trkpt lat="45.530712" lon="9.068668">
        <ele>198.232766</ele>
        <time>2026-05-02T13:02:58.551Z</time>
      </trkpt>
      <trkpt lat="45.530576" lon="9.068661">
        <ele>198.254083</ele>
        <time>2026-05-02T13:03:01.566Z</time>
      </trkpt>
      <trkpt lat="45.530475" lon="9.068658">
        <ele>198.269907</ele>
        <time>2026-05-02T13:03:03.555Z</time>
      </trkpt>
      <trkpt lat="45.530376" lon="9.068653">
        <ele>198.285423</ele>
        <time>2026-05-02T13:03:05.558Z</time>
      </trkpt>
      <trkpt lat="45.530278" lon="9.068651">
        <ele>198.300775</ele>
        <time>2026-05-02T13:03:07.552Z</time>
      </trkpt>
      <trkpt lat="45.530180" lon="9.068653">
        <ele>198.316127</ele>
        <time>2026-05-02T13:03:09.555Z</time>
      </trkpt>
      <trkpt lat="45.530089" lon="9.068649">
        <ele>198.330388</ele>
        <time>2026-05-02T13:03:11.556Z</time>
      </trkpt>
      <trkpt lat="45.530000" lon="9.068642">
        <ele>198.344349</ele>
        <time>2026-05-02T13:03:13.557Z</time>
      </trkpt>
      <trkpt lat="45.529909" lon="9.068637">
        <ele>198.358614</ele>
        <time>2026-05-02T13:03:15.553Z</time>
      </trkpt>
      <trkpt lat="45.529785" lon="9.068632">
        <ele>198.378045</ele>
        <time>2026-05-02T13:03:18.554Z</time>
      </trkpt>
      <trkpt lat="45.529677" lon="9.068596">
        <ele>198.395416</ele>
        <time>2026-05-02T13:03:21.557Z</time>
      </trkpt>
      <trkpt lat="45.529561" lon="9.068584">
        <ele>198.413634</ele>
        <time>2026-05-02T13:03:24.555Z</time>
      </trkpt>
      <trkpt lat="45.529449" lon="9.068577">
        <ele>198.606646</ele>
        <time>2026-05-02T13:03:27.560Z</time>
      </trkpt>
      <trkpt lat="45.529539" lon="9.068547">
        <ele>198.839004</ele>
        <time>2026-05-02T13:03:40.553Z</time>
      </trkpt>
      <trkpt lat="45.529578" lon="9.068388">
        <ele>199.135712</ele>
        <time>2026-05-02T13:03:44.551Z</time>
      </trkpt>
      <trkpt lat="45.529624" lon="9.068252">
        <ele>199.401698</ele>
        <time>2026-05-02T13:03:48.559Z</time>
      </trkpt>
      <trkpt lat="45.529599" lon="9.068111">
        <ele>199.657864</ele>
        <time>2026-05-02T13:03:53.558Z</time>
      </trkpt>
      <trkpt lat="45.529548" lon="9.067996">
        <ele>199.897581</ele>
        <time>2026-05-02T13:03:58.559Z</time>
      </trkpt>
      <trkpt lat="45.529480" lon="9.067897">
        <ele>200.141774</ele>
        <time>2026-05-02T13:04:03.556Z</time>
      </trkpt>
      <trkpt lat="45.529421" lon="9.067789">
        <ele>200.382988</ele>
        <time>2026-05-02T13:04:08.556Z</time>
      </trkpt>
      <trkpt lat="45.529355" lon="9.067685">
        <ele>200.630141</ele>
        <time>2026-05-02T13:04:13.567Z</time>
      </trkpt>
      <trkpt lat="45.529279" lon="9.067576">
        <ele>200.900999</ele>
        <time>2026-05-02T13:04:19.555Z</time>
      </trkpt>
      <trkpt lat="45.529220" lon="9.067475">
        <ele>201.132616</ele>
        <time>2026-05-02T13:04:24.556Z</time>
      </trkpt>
      <trkpt lat="45.529150" lon="9.067361">
        <ele>201.399610</ele>
        <time>2026-05-02T13:04:30.556Z</time>
      </trkpt>
      <trkpt lat="45.529073" lon="9.067238">
        <ele>201.690138</ele>
        <time>2026-05-02T13:04:34.556Z</time>
      </trkpt>
      <trkpt lat="45.529000" lon="9.067122">
        <ele>201.964774</ele>
        <time>2026-05-02T13:04:37.554Z</time>
      </trkpt>
      <trkpt lat="45.528904" lon="9.066995">
        <ele>202.293841</ele>
        <time>2026-05-02T13:04:40.560Z</time>
      </trkpt>
      <trkpt lat="45.528809" lon="9.066920">
        <ele>202.566778</ele>
        <time>2026-05-02T13:04:42.555Z</time>
      </trkpt>
      <trkpt lat="45.528704" lon="9.066877">
        <ele>202.841409</ele>
        <time>2026-05-02T13:04:44.559Z</time>
      </trkpt>
      <trkpt lat="45.528594" lon="9.066858">
        <ele>202.993723</ele>
        <time>2026-05-02T13:04:47.552Z</time>
      </trkpt>
      <trkpt lat="45.528490" lon="9.066834">
        <ele>203.071177</ele>
        <time>2026-05-02T13:04:52.551Z</time>
      </trkpt>
      <trkpt lat="45.528398" lon="9.066793">
        <ele>203.142036</ele>
        <time>2026-05-02T13:04:57.552Z</time>
      </trkpt>
      <trkpt lat="45.528304" lon="9.066852">
        <ele>203.217531</ele>
        <time>2026-05-02T13:05:05.550Z</time>
      </trkpt>
      <trkpt lat="45.528222" lon="9.066911">
        <ele>203.285044</ele>
        <time>2026-05-02T13:05:10.553Z</time>
      </trkpt>
      <trkpt lat="45.528132" lon="9.066888">
        <ele>203.352265</ele>
        <time>2026-05-02T13:05:15.554Z</time>
      </trkpt>
      <trkpt lat="45.528042" lon="9.066867">
        <ele>203.419311</ele>
        <time>2026-05-02T13:05:20.554Z</time>
      </trkpt>
      <trkpt lat="45.527948" lon="9.066839">
        <ele>203.489910</ele>
        <time>2026-05-02T13:05:25.549Z</time>
      </trkpt>
      <trkpt lat="45.527847" lon="9.066812">
        <ele>203.565456</ele>
        <time>2026-05-02T13:05:30.555Z</time>
      </trkpt>
      <trkpt lat="45.527749" lon="9.066788">
        <ele>203.638559</ele>
        <time>2026-05-02T13:05:35.555Z</time>
      </trkpt>
      <trkpt lat="45.527644" lon="9.066770">
        <ele>203.716311</ele>
        <time>2026-05-02T13:05:40.553Z</time>
      </trkpt>
      <trkpt lat="45.527540" lon="9.066744">
        <ele>203.793936</ele>
        <time>2026-05-02T13:05:45.558Z</time>
      </trkpt>
      <trkpt lat="45.527441" lon="9.066711">
        <ele>203.868680</ele>
        <time>2026-05-02T13:05:50.552Z</time>
      </trkpt>
      <trkpt lat="45.527349" lon="9.066678">
        <ele>203.938422</ele>
        <time>2026-05-02T13:05:54.549Z</time>
      </trkpt>
      <trkpt lat="45.527256" lon="9.066648">
        <ele>204.008520</ele>
        <time>2026-05-02T13:05:57.558Z</time>
      </trkpt>
      <trkpt lat="45.527163" lon="9.066713">
        <ele>204.084651</ele>
        <time>2026-05-02T13:06:01.557Z</time>
      </trkpt>
      <trkpt lat="45.527209" lon="9.066863">
        <ele>204.168989</ele>
        <time>2026-05-02T13:06:05.551Z</time>
      </trkpt>
      <trkpt lat="45.527194" lon="9.067011">
        <ele>204.246012</ele>
        <time>2026-05-02T13:06:08.548Z</time>
      </trkpt>
      <trkpt lat="45.527081" lon="9.066997">
        <ele>203.897805</ele>
        <time>2026-05-02T13:06:11.550Z</time>
      </trkpt>
      <trkpt lat="45.526996" lon="9.066908">
        <ele>203.464507</ele>
        <time>2026-05-02T13:06:13.556Z</time>
      </trkpt>
      <trkpt lat="45.526901" lon="9.066814">
        <ele>202.989381</ele>
        <time>2026-05-02T13:06:15.553Z</time>
      </trkpt>
      <trkpt lat="45.526804" lon="9.066725">
        <ele>202.515414</ele>
        <time>2026-05-02T13:06:17.549Z</time>
      </trkpt>
      <trkpt lat="45.526713" lon="9.066643">
        <ele>202.073076</ele>
        <time>2026-05-02T13:06:19.548Z</time>
      </trkpt>
      <trkpt lat="45.526610" lon="9.066627">
        <ele>201.647212</ele>
        <time>2026-05-02T13:06:21.561Z</time>
      </trkpt>
      <trkpt lat="45.526530" lon="9.066722">
        <ele>201.219469</ele>
        <time>2026-05-02T13:06:23.554Z</time>
      </trkpt>
      <trkpt lat="45.526500" lon="9.066870">
        <ele>200.775805</ele>
        <time>2026-05-02T13:06:25.555Z</time>
      </trkpt>
      <trkpt lat="45.526495" lon="9.067007">
        <ele>200.380763</ele>
        <time>2026-05-02T13:06:27.554Z</time>
      </trkpt>
      <trkpt lat="45.526470" lon="9.067192">
        <ele>199.838213</ele>
        <time>2026-05-02T13:06:30.559Z</time>
      </trkpt>
      <trkpt lat="45.526425" lon="9.067370">
        <ele>199.293289</ele>
        <time>2026-05-02T13:06:33.552Z</time>
      </trkpt>
      <trkpt lat="45.526386" lon="9.067525">
        <ele>198.819034</ele>
        <time>2026-05-02T13:06:36.552Z</time>
      </trkpt>
      <trkpt lat="45.526345" lon="9.067672">
        <ele>198.363417</ele>
        <time>2026-05-02T13:06:39.554Z</time>
      </trkpt>
      <trkpt lat="45.526305" lon="9.067816">
        <ele>197.917345</ele>
        <time>2026-05-02T13:06:42.555Z</time>
      </trkpt>
      <trkpt lat="45.526210" lon="9.067957">
        <ele>197.354021</ele>
        <time>2026-05-02T13:07:24.554Z</time>
      </trkpt>
      <trkpt lat="45.526060" lon="9.068086">
        <ele>196.749854</ele>
        <time>2026-05-02T13:08:04.552Z</time>
      </trkpt>
      <trkpt lat="45.525965" lon="9.068129">
        <ele>196.540368</ele>
        <time>2026-05-02T13:08:07.553Z</time>
      </trkpt>
      <trkpt lat="45.525844" lon="9.068149">
        <ele>196.284330</ele>
        <time>2026-05-02T13:08:10.549Z</time>
      </trkpt>
      <trkpt lat="45.525712" lon="9.068134">
        <ele>196.005992</ele>
        <time>2026-05-02T13:08:13.552Z</time>
      </trkpt>
      <trkpt lat="45.525616" lon="9.068130">
        <ele>195.804117</ele>
        <time>2026-05-02T13:08:15.557Z</time>
      </trkpt>
      <trkpt lat="45.525521" lon="9.068158">
        <ele>195.600217</ele>
        <time>2026-05-02T13:08:17.551Z</time>
      </trkpt>
      <trkpt lat="45.525424" lon="9.068201">
        <ele>195.386719</ele>
        <time>2026-05-02T13:08:19.555Z</time>
      </trkpt>
      <trkpt lat="45.525323" lon="9.068254">
        <ele>195.160528</ele>
        <time>2026-05-02T13:08:21.557Z</time>
      </trkpt>
      <trkpt lat="45.525216" lon="9.068292">
        <ele>194.928760</ele>
        <time>2026-05-02T13:08:23.551Z</time>
      </trkpt>
      <trkpt lat="45.525103" lon="9.068314">
        <ele>194.689038</ele>
        <time>2026-05-02T13:08:25.552Z</time>
      </trkpt>
      <trkpt lat="45.524987" lon="9.068320">
        <ele>194.445050</ele>
        <time>2026-05-02T13:08:27.556Z</time>
      </trkpt>
      <trkpt lat="45.524871" lon="9.068310">
        <ele>194.200777</ele>
        <time>2026-05-02T13:08:29.556Z</time>
      </trkpt>
      <trkpt lat="45.524759" lon="9.068282">
        <ele>193.961773</ele>
        <time>2026-05-02T13:08:31.555Z</time>
      </trkpt>
      <trkpt lat="45.524650" lon="9.068233">
        <ele>193.721563</ele>
        <time>2026-05-02T13:08:33.554Z</time>
      </trkpt>
      <trkpt lat="45.524541" lon="9.068196">
        <ele>193.486059</ele>
        <time>2026-05-02T13:08:35.552Z</time>
      </trkpt>
      <trkpt lat="45.524430" lon="9.068205">
        <ele>193.252364</ele>
        <time>2026-05-02T13:08:37.553Z</time>
      </trkpt>
      <trkpt lat="45.524333" lon="9.068224">
        <ele>193.069521</ele>
        <time>2026-05-02T13:08:39.554Z</time>
      </trkpt>
      <trkpt lat="45.524231" lon="9.068266">
        <ele>192.963790</ele>
        <time>2026-05-02T13:08:41.553Z</time>
      </trkpt>
      <trkpt lat="45.524135" lon="9.068321">
        <ele>192.860763</ele>
        <time>2026-05-02T13:08:43.553Z</time>
      </trkpt>
      <trkpt lat="45.524037" lon="9.068370">
        <ele>192.757344</ele>
        <time>2026-05-02T13:08:45.553Z</time>
      </trkpt>
      <trkpt lat="45.523942" lon="9.068419">
        <ele>192.656739</ele>
        <time>2026-05-02T13:08:47.551Z</time>
      </trkpt>
      <trkpt lat="45.523853" lon="9.068467">
        <ele>192.561982</ele>
        <time>2026-05-02T13:08:49.559Z</time>
      </trkpt>
      <trkpt lat="45.523762" lon="9.068516">
        <ele>192.465115</ele>
        <time>2026-05-02T13:08:51.551Z</time>
      </trkpt>
      <trkpt lat="45.523676" lon="9.068571">
        <ele>192.371258</ele>
        <time>2026-05-02T13:08:53.555Z</time>
      </trkpt>
      <trkpt lat="45.523592" lon="9.068628">
        <ele>192.278624</ele>
        <time>2026-05-02T13:08:55.551Z</time>
      </trkpt>
      <trkpt lat="45.523476" lon="9.068715">
        <ele>192.148114</ele>
        <time>2026-05-02T13:08:58.547Z</time>
      </trkpt>
      <trkpt lat="45.523363" lon="9.068789">
        <ele>192.024290</ele>
        <time>2026-05-02T13:09:01.549Z</time>
      </trkpt>
      <trkpt lat="45.523257" lon="9.068858">
        <ele>191.908258</ele>
        <time>2026-05-02T13:09:04.548Z</time>
      </trkpt>
      <trkpt lat="45.523153" lon="9.068924">
        <ele>191.794901</ele>
        <time>2026-05-02T13:09:07.549Z</time>
      </trkpt>
      <trkpt lat="45.523036" lon="9.069000">
        <ele>191.666874</ele>
        <time>2026-05-02T13:09:10.554Z</time>
      </trkpt>
      <trkpt lat="45.522917" lon="9.069081">
        <ele>191.535567</ele>
        <time>2026-05-02T13:09:13.557Z</time>
      </trkpt>
      <trkpt lat="45.522831" lon="9.069139">
        <ele>191.440834</ele>
        <time>2026-05-02T13:09:15.552Z</time>
      </trkpt>
      <trkpt lat="45.522747" lon="9.069193">
        <ele>191.349079</ele>
        <time>2026-05-02T13:09:17.553Z</time>
      </trkpt>
      <trkpt lat="45.522659" lon="9.069254">
        <ele>191.281366</ele>
        <time>2026-05-02T13:09:19.555Z</time>
      </trkpt>
      <trkpt lat="45.522570" lon="9.069315">
        <ele>191.244984</ele>
        <time>2026-05-02T13:09:21.551Z</time>
      </trkpt>
      <trkpt lat="45.522476" lon="9.069372">
        <ele>191.207349</ele>
        <time>2026-05-02T13:09:23.551Z</time>
      </trkpt>
      <trkpt lat="45.522382" lon="9.069424">
        <ele>191.170199</ele>
        <time>2026-05-02T13:09:25.556Z</time>
      </trkpt>
      <trkpt lat="45.522290" lon="9.069472">
        <ele>191.134104</ele>
        <time>2026-05-02T13:09:27.553Z</time>
      </trkpt>
      <trkpt lat="45.522201" lon="9.069529">
        <ele>191.098157</ele>
        <time>2026-05-02T13:09:29.550Z</time>
      </trkpt>
      <trkpt lat="45.522110" lon="9.069566">
        <ele>191.063290</ele>
        <time>2026-05-02T13:09:31.552Z</time>
      </trkpt>
      <trkpt lat="45.522018" lon="9.069609">
        <ele>191.027616</ele>
        <time>2026-05-02T13:09:33.551Z</time>
      </trkpt>
      <trkpt lat="45.521925" lon="9.069656">
        <ele>190.991261</ele>
        <time>2026-05-02T13:09:35.560Z</time>
      </trkpt>
      <trkpt lat="45.521829" lon="9.069701">
        <ele>190.954026</ele>
        <time>2026-05-02T13:09:37.550Z</time>
      </trkpt>
      <trkpt lat="45.521737" lon="9.069750">
        <ele>190.917841</ele>
        <time>2026-05-02T13:09:39.553Z</time>
      </trkpt>
      <trkpt lat="45.521650" lon="9.069798">
        <ele>190.883470</ele>
        <time>2026-05-02T13:09:41.551Z</time>
      </trkpt>
      <trkpt lat="45.521564" lon="9.069844">
        <ele>190.849627</ele>
        <time>2026-05-02T13:09:43.549Z</time>
      </trkpt>
      <trkpt lat="45.521445" lon="9.069901">
        <ele>190.803372</ele>
        <time>2026-05-02T13:09:46.551Z</time>
      </trkpt>
      <trkpt lat="45.521335" lon="9.069955">
        <ele>190.760507</ele>
        <time>2026-05-02T13:09:49.548Z</time>
      </trkpt>
      <trkpt lat="45.521219" lon="9.070008">
        <ele>190.715624</ele>
        <time>2026-05-02T13:09:52.545Z</time>
      </trkpt>
      <trkpt lat="45.521108" lon="9.070065">
        <ele>190.672154</ele>
        <time>2026-05-02T13:09:55.551Z</time>
      </trkpt>
      <trkpt lat="45.520997" lon="9.070114">
        <ele>190.632751</ele>
        <time>2026-05-02T13:09:58.554Z</time>
      </trkpt>
      <trkpt lat="45.520890" lon="9.070163">
        <ele>190.612470</ele>
        <time>2026-05-02T13:10:01.556Z</time>
      </trkpt>
      <trkpt lat="45.520793" lon="9.070211">
        <ele>190.593941</ele>
        <time>2026-05-02T13:10:04.558Z</time>
      </trkpt>
      <trkpt lat="45.520693" lon="9.070258">
        <ele>190.574940</ele>
        <time>2026-05-02T13:10:07.551Z</time>
      </trkpt>
      <trkpt lat="45.520588" lon="9.070312">
        <ele>190.554798</ele>
        <time>2026-05-02T13:10:10.544Z</time>
      </trkpt>
      <trkpt lat="45.520473" lon="9.070360">
        <ele>190.533174</ele>
        <time>2026-05-02T13:10:13.548Z</time>
      </trkpt>
      <trkpt lat="45.520356" lon="9.070417">
        <ele>190.510862</ele>
        <time>2026-05-02T13:10:16.550Z</time>
      </trkpt>
      <trkpt lat="45.520232" lon="9.070446">
        <ele>190.488184</ele>
        <time>2026-05-02T13:10:19.552Z</time>
      </trkpt>
      <trkpt lat="45.520129" lon="9.070388">
        <ele>190.468201</ele>
        <time>2026-05-02T13:10:22.552Z</time>
      </trkpt>
      <trkpt lat="45.520017" lon="9.070329">
        <ele>190.446655</ele>
        <time>2026-05-02T13:10:25.560Z</time>
      </trkpt>
      <trkpt lat="45.519933" lon="9.070281">
        <ele>190.430325</ele>
        <time>2026-05-02T13:10:27.547Z</time>
      </trkpt>
      <trkpt lat="45.519807" lon="9.070210">
        <ele>190.405877</ele>
        <time>2026-05-02T13:10:30.547Z</time>
      </trkpt>
      <trkpt lat="45.519717" lon="9.070162">
        <ele>190.388537</ele>
        <time>2026-05-02T13:10:32.559Z</time>
      </trkpt>
      <trkpt lat="45.519630" lon="9.070122">
        <ele>190.372041</ele>
        <time>2026-05-02T13:10:34.553Z</time>
      </trkpt>
      <trkpt lat="45.519537" lon="9.070094">
        <ele>190.354887</ele>
        <time>2026-05-02T13:10:36.552Z</time>
      </trkpt>
      <trkpt lat="45.519443" lon="9.070068">
        <ele>190.337607</ele>
        <time>2026-05-02T13:10:38.551Z</time>
      </trkpt>
      <trkpt lat="45.519352" lon="9.070058">
        <ele>190.321135</ele>
        <time>2026-05-02T13:10:40.552Z</time>
      </trkpt>
      <trkpt lat="45.519263" lon="9.070078">
        <ele>190.319485</ele>
        <time>2026-05-02T13:10:42.563Z</time>
      </trkpt>
      <trkpt lat="45.519139" lon="9.070149">
        <ele>190.349250</ele>
        <time>2026-05-02T13:10:45.551Z</time>
      </trkpt>
      <trkpt lat="45.519066" lon="9.070226">
        <ele>190.369473</ele>
        <time>2026-05-02T13:10:47.559Z</time>
      </trkpt>
      <trkpt lat="45.518998" lon="9.070325">
        <ele>190.391113</ele>
        <time>2026-05-02T13:10:49.547Z</time>
      </trkpt>
      <trkpt lat="45.518937" lon="9.070429">
        <ele>190.412284</ele>
        <time>2026-05-02T13:10:51.548Z</time>
      </trkpt>
      <trkpt lat="45.518873" lon="9.070526">
        <ele>190.433082</ele>
        <time>2026-05-02T13:10:53.551Z</time>
      </trkpt>
      <trkpt lat="45.518818" lon="9.070641">
        <ele>190.454817</ele>
        <time>2026-05-02T13:10:55.556Z</time>
      </trkpt>
      <trkpt lat="45.518781" lon="9.070768">
        <ele>190.476286</ele>
        <time>2026-05-02T13:10:57.553Z</time>
      </trkpt>
      <trkpt lat="45.518740" lon="9.070887">
        <ele>190.496986</ele>
        <time>2026-05-02T13:10:59.555Z</time>
      </trkpt>
      <trkpt lat="45.518702" lon="9.071009">
        <ele>190.517827</ele>
        <time>2026-05-02T13:11:01.557Z</time>
      </trkpt>
      <trkpt lat="45.518661" lon="9.071130">
        <ele>190.538808</ele>
        <time>2026-05-02T13:11:03.555Z</time>
      </trkpt>
      <trkpt lat="45.518616" lon="9.071249">
        <ele>190.559916</ele>
        <time>2026-05-02T13:11:05.549Z</time>
      </trkpt>
      <trkpt lat="45.518546" lon="9.071348">
        <ele>190.581871</ele>
        <time>2026-05-02T13:11:07.547Z</time>
      </trkpt>
      <trkpt lat="45.518471" lon="9.071437">
        <ele>190.603600</ele>
        <time>2026-05-02T13:11:09.550Z</time>
      </trkpt>
      <trkpt lat="45.518386" lon="9.071507">
        <ele>190.625463</ele>
        <time>2026-05-02T13:11:11.554Z</time>
      </trkpt>
      <trkpt lat="45.518302" lon="9.071569">
        <ele>190.646531</ele>
        <time>2026-05-02T13:11:13.560Z</time>
      </trkpt>
      <trkpt lat="45.518236" lon="9.071666">
        <ele>190.667637</ele>
        <time>2026-05-02T13:11:15.553Z</time>
      </trkpt>
      <trkpt lat="45.518175" lon="9.071772">
        <ele>190.689049</ele>
        <time>2026-05-02T13:11:17.561Z</time>
      </trkpt>
      <trkpt lat="45.518116" lon="9.071883">
        <ele>190.710798</ele>
        <time>2026-05-02T13:11:19.559Z</time>
      </trkpt>
      <trkpt lat="45.518051" lon="9.071986">
        <ele>190.681473</ele>
        <time>2026-05-02T13:11:21.549Z</time>
      </trkpt>
      <trkpt lat="45.517987" lon="9.072088">
        <ele>190.649238</ele>
        <time>2026-05-02T13:11:23.553Z</time>
      </trkpt>
      <trkpt lat="45.517929" lon="9.072192">
        <ele>190.617945</ele>
        <time>2026-05-02T13:11:25.559Z</time>
      </trkpt>
      <trkpt lat="45.517834" lon="9.072325">
        <ele>190.573230</ele>
        <time>2026-05-02T13:11:28.560Z</time>
      </trkpt>
      <trkpt lat="45.517740" lon="9.072453">
        <ele>190.529576</ele>
        <time>2026-05-02T13:11:31.560Z</time>
      </trkpt>
      <trkpt lat="45.517649" lon="9.072594">
        <ele>190.484444</ele>
        <time>2026-05-02T13:11:34.548Z</time>
      </trkpt>
      <trkpt lat="45.517588" lon="9.072694">
        <ele>190.453229</ele>
        <time>2026-05-02T13:11:36.553Z</time>
      </trkpt>
      <trkpt lat="45.517528" lon="9.072796">
        <ele>190.421874</ele>
        <time>2026-05-02T13:11:38.557Z</time>
      </trkpt>
      <trkpt lat="45.517468" lon="9.072899">
        <ele>190.390339</ele>
        <time>2026-05-02T13:11:40.556Z</time>
      </trkpt>
      <trkpt lat="45.517403" lon="9.073006">
        <ele>190.356998</ele>
        <time>2026-05-02T13:11:42.549Z</time>
      </trkpt>
      <trkpt lat="45.517340" lon="9.073117">
        <ele>190.323367</ele>
        <time>2026-05-02T13:11:44.554Z</time>
      </trkpt>
      <trkpt lat="45.517280" lon="9.073223">
        <ele>190.291286</ele>
        <time>2026-05-02T13:11:46.555Z</time>
      </trkpt>
      <trkpt lat="45.517217" lon="9.073334">
        <ele>190.257655</ele>
        <time>2026-05-02T13:11:48.556Z</time>
      </trkpt>
      <trkpt lat="45.517156" lon="9.073444">
        <ele>190.224628</ele>
        <time>2026-05-02T13:11:50.555Z</time>
      </trkpt>
      <trkpt lat="45.517093" lon="9.073553">
        <ele>190.191361</ele>
        <time>2026-05-02T13:11:52.551Z</time>
      </trkpt>
      <trkpt lat="45.517033" lon="9.073666">
        <ele>190.157981</ele>
        <time>2026-05-02T13:11:54.555Z</time>
      </trkpt>
      <trkpt lat="45.516975" lon="9.073778">
        <ele>190.125193</ele>
        <time>2026-05-02T13:11:56.555Z</time>
      </trkpt>
      <trkpt lat="45.516916" lon="9.073893">
        <ele>190.068348</ele>
        <time>2026-05-02T13:11:58.555Z</time>
      </trkpt>
      <trkpt lat="45.516861" lon="9.074008">
        <ele>189.988251</ele>
        <time>2026-05-02T13:12:00.553Z</time>
      </trkpt>
      <trkpt lat="45.516804" lon="9.074124">
        <ele>189.906747</ele>
        <time>2026-05-02T13:12:02.554Z</time>
      </trkpt>
      <trkpt lat="45.516748" lon="9.074244">
        <ele>189.823806</ele>
        <time>2026-05-02T13:12:04.553Z</time>
      </trkpt>
      <trkpt lat="45.516691" lon="9.074352">
        <ele>189.746025</ele>
        <time>2026-05-02T13:12:06.553Z</time>
      </trkpt>
      <trkpt lat="45.516635" lon="9.074472">
        <ele>189.663083</ele>
        <time>2026-05-02T13:12:08.550Z</time>
      </trkpt>
      <trkpt lat="45.516575" lon="9.074588">
        <ele>189.580140</ele>
        <time>2026-05-02T13:12:10.553Z</time>
      </trkpt>
      <trkpt lat="45.516517" lon="9.074700">
        <ele>189.500023</ele>
        <time>2026-05-02T13:12:12.551Z</time>
      </trkpt>
      <trkpt lat="45.516474" lon="9.074820">
        <ele>189.422488</ele>
        <time>2026-05-02T13:12:14.551Z</time>
      </trkpt>
      <trkpt lat="45.516436" lon="9.074938">
        <ele>189.347780</ele>
        <time>2026-05-02T13:12:16.553Z</time>
      </trkpt>
      <trkpt lat="45.516392" lon="9.075064">
        <ele>189.266792</ele>
        <time>2026-05-02T13:12:18.549Z</time>
      </trkpt>
      <trkpt lat="45.516345" lon="9.075194">
        <ele>189.182639</ele>
        <time>2026-05-02T13:12:20.551Z</time>
      </trkpt>
      <trkpt lat="45.516301" lon="9.075312">
        <ele>189.105743</ele>
        <time>2026-05-02T13:12:22.552Z</time>
      </trkpt>
      <trkpt lat="45.516248" lon="9.075433">
        <ele>189.023654</ele>
        <time>2026-05-02T13:12:24.550Z</time>
      </trkpt>
      <trkpt lat="45.516195" lon="9.075554">
        <ele>188.941565</ele>
        <time>2026-05-02T13:12:26.551Z</time>
      </trkpt>
      <trkpt lat="45.516140" lon="9.075676">
        <ele>188.858110</ele>
        <time>2026-05-02T13:12:28.544Z</time>
      </trkpt>
      <trkpt lat="45.516091" lon="9.075805">
        <ele>188.773697</ele>
        <time>2026-05-02T13:12:30.553Z</time>
      </trkpt>
      <trkpt lat="45.516046" lon="9.075940">
        <ele>188.687695</ele>
        <time>2026-05-02T13:12:32.553Z</time>
      </trkpt>
      <trkpt lat="45.516002" lon="9.076070">
        <ele>188.621842</ele>
        <time>2026-05-02T13:12:34.552Z</time>
      </trkpt>
      <trkpt lat="45.515957" lon="9.076195">
        <ele>188.593557</ele>
        <time>2026-05-02T13:12:36.559Z</time>
      </trkpt>
      <trkpt lat="45.515910" lon="9.076325">
        <ele>188.564116</ele>
        <time>2026-05-02T13:12:38.551Z</time>
      </trkpt>
      <trkpt lat="45.515864" lon="9.076455">
        <ele>188.534804</ele>
        <time>2026-05-02T13:12:40.549Z</time>
      </trkpt>
      <trkpt lat="45.515817" lon="9.076577">
        <ele>188.506783</ele>
        <time>2026-05-02T13:12:42.557Z</time>
      </trkpt>
      <trkpt lat="45.515775" lon="9.076697">
        <ele>188.479786</ele>
        <time>2026-05-02T13:12:44.556Z</time>
      </trkpt>
      <trkpt lat="45.515731" lon="9.076815">
        <ele>188.452884</ele>
        <time>2026-05-02T13:12:46.550Z</time>
      </trkpt>
      <trkpt lat="45.515688" lon="9.076928">
        <ele>188.427003</ele>
        <time>2026-05-02T13:12:48.555Z</time>
      </trkpt>
      <trkpt lat="45.515608" lon="9.077071">
        <ele>188.390174</ele>
        <time>2026-05-02T13:12:51.546Z</time>
      </trkpt>
      <trkpt lat="45.515530" lon="9.077229">
        <ele>188.351275</ele>
        <time>2026-05-02T13:12:54.548Z</time>
      </trkpt>
      <trkpt lat="45.515481" lon="9.077346">
        <ele>188.323841</ele>
        <time>2026-05-02T13:12:56.552Z</time>
      </trkpt>
      <trkpt lat="45.515434" lon="9.077459">
        <ele>188.297393</ele>
        <time>2026-05-02T13:12:58.547Z</time>
      </trkpt>
      <trkpt lat="45.515381" lon="9.077573">
        <ele>188.269858</ele>
        <time>2026-05-02T13:13:00.547Z</time>
      </trkpt>
      <trkpt lat="45.515325" lon="9.077688">
        <ele>188.241672</ele>
        <time>2026-05-02T13:13:02.553Z</time>
      </trkpt>
      <trkpt lat="45.515272" lon="9.077796">
        <ele>188.215134</ele>
        <time>2026-05-02T13:13:04.550Z</time>
      </trkpt>
      <trkpt lat="45.515219" lon="9.077907">
        <ele>188.188100</ele>
        <time>2026-05-02T13:13:06.550Z</time>
      </trkpt>
      <trkpt lat="45.515164" lon="9.078021">
        <ele>188.160243</ele>
        <time>2026-05-02T13:13:08.553Z</time>
      </trkpt>
      <trkpt lat="45.515111" lon="9.078134">
        <ele>188.132875</ele>
        <time>2026-05-02T13:13:10.561Z</time>
      </trkpt>
      <trkpt lat="45.515058" lon="9.078242">
        <ele>188.107818</ele>
        <time>2026-05-02T13:13:12.553Z</time>
      </trkpt>
      <trkpt lat="45.515006" lon="9.078347">
        <ele>188.086651</ele>
        <time>2026-05-02T13:13:14.552Z</time>
      </trkpt>
      <trkpt lat="45.514952" lon="9.078455">
        <ele>188.064810</ele>
        <time>2026-05-02T13:13:16.551Z</time>
      </trkpt>
      <trkpt lat="45.514897" lon="9.078564">
        <ele>188.042697</ele>
        <time>2026-05-02T13:13:18.549Z</time>
      </trkpt>
      <trkpt lat="45.514842" lon="9.078674">
        <ele>188.020451</ele>
        <time>2026-05-02T13:13:20.552Z</time>
      </trkpt>
      <trkpt lat="45.514786" lon="9.078788">
        <ele>187.997532</ele>
        <time>2026-05-02T13:13:22.553Z</time>
      </trkpt>
      <trkpt lat="45.514729" lon="9.078898">
        <ele>187.975009</ele>
        <time>2026-05-02T13:13:24.548Z</time>
      </trkpt>
      <trkpt lat="45.514678" lon="9.079008">
        <ele>187.953296</ele>
        <time>2026-05-02T13:13:26.552Z</time>
      </trkpt>
      <trkpt lat="45.514626" lon="9.079114">
        <ele>187.931994</ele>
        <time>2026-05-02T13:13:28.559Z</time>
      </trkpt>
      <trkpt lat="45.514555" lon="9.079269">
        <ele>187.901509</ele>
        <time>2026-05-02T13:13:31.557Z</time>
      </trkpt>
      <trkpt lat="45.514502" lon="9.079374">
        <ele>187.880205</ele>
        <time>2026-05-02T13:13:33.559Z</time>
      </trkpt>
      <trkpt lat="45.514444" lon="9.079487">
        <ele>187.857146</ele>
        <time>2026-05-02T13:13:35.553Z</time>
      </trkpt>
      <trkpt lat="45.514389" lon="9.079592">
        <ele>187.835564</ele>
        <time>2026-05-02T13:13:37.551Z</time>
      </trkpt>
      <trkpt lat="45.514330" lon="9.079706">
        <ele>187.812233</ele>
        <time>2026-05-02T13:13:39.549Z</time>
      </trkpt>
      <trkpt lat="45.514270" lon="9.079817">
        <ele>187.789154</ele>
        <time>2026-05-02T13:13:41.552Z</time>
      </trkpt>
      <trkpt lat="45.514209" lon="9.079929">
        <ele>187.765801</ele>
        <time>2026-05-02T13:13:43.550Z</time>
      </trkpt>
      <trkpt lat="45.514147" lon="9.080040">
        <ele>187.742433</ele>
        <time>2026-05-02T13:13:45.556Z</time>
      </trkpt>
      <trkpt lat="45.514079" lon="9.080147">
        <ele>187.718652</ele>
        <time>2026-05-02T13:13:47.558Z</time>
      </trkpt>
      <trkpt lat="45.514012" lon="9.080249">
        <ele>187.695636</ele>
        <time>2026-05-02T13:13:49.552Z</time>
      </trkpt>
      <trkpt lat="45.513932" lon="9.080377">
        <ele>187.617379</ele>
        <time>2026-05-02T13:13:52.554Z</time>
      </trkpt>
      <trkpt lat="45.513873" lon="9.080487">
        <ele>187.548026</ele>
        <time>2026-05-02T13:13:54.560Z</time>
      </trkpt>
      <trkpt lat="45.513809" lon="9.080581">
        <ele>187.482410</ele>
        <time>2026-05-02T13:13:56.562Z</time>
      </trkpt>
      <trkpt lat="45.513731" lon="9.080722">
        <ele>187.392472</ele>
        <time>2026-05-02T13:13:59.554Z</time>
      </trkpt>
      <trkpt lat="45.513661" lon="9.080832">
        <ele>187.318081</ele>
        <time>2026-05-02T13:14:01.561Z</time>
      </trkpt>
      <trkpt lat="45.513585" lon="9.080948">
        <ele>187.238575</ele>
        <time>2026-05-02T13:14:03.552Z</time>
      </trkpt>
      <trkpt lat="45.513525" lon="9.081061">
        <ele>187.167595</ele>
        <time>2026-05-02T13:14:05.554Z</time>
      </trkpt>
      <trkpt lat="45.513483" lon="9.081188">
        <ele>187.097287</ele>
        <time>2026-05-02T13:14:07.560Z</time>
      </trkpt>
      <trkpt lat="45.513469" lon="9.081326">
        <ele>187.027477</ele>
        <time>2026-05-02T13:14:09.556Z</time>
      </trkpt>
      <trkpt lat="45.513488" lon="9.081452">
        <ele>186.962950</ele>
        <time>2026-05-02T13:14:11.550Z</time>
      </trkpt>
      <trkpt lat="45.513488" lon="9.081644">
        <ele>186.866825</ele>
        <time>2026-05-02T13:14:14.552Z</time>
      </trkpt>
      <trkpt lat="45.513409" lon="9.081773">
        <ele>186.781053</ele>
        <time>2026-05-02T13:14:17.554Z</time>
      </trkpt>
      <trkpt lat="45.513286" lon="9.081706">
        <ele>186.686990</ele>
        <time>2026-05-02T13:14:20.562Z</time>
      </trkpt>
      <trkpt lat="45.513194" lon="9.081738">
        <ele>186.619336</ele>
        <time>2026-05-02T13:14:22.548Z</time>
      </trkpt>
      <trkpt lat="45.513117" lon="9.081812">
        <ele>186.553010</ele>
        <time>2026-05-02T13:14:24.548Z</time>
      </trkpt>
      <trkpt lat="45.513055" lon="9.081908">
        <ele>186.487648</ele>
        <time>2026-05-02T13:14:26.552Z</time>
      </trkpt>
      <trkpt lat="45.512994" lon="9.082021">
        <ele>186.416234</ele>
        <time>2026-05-02T13:14:28.554Z</time>
      </trkpt>
      <trkpt lat="45.512933" lon="9.082147">
        <ele>186.458055</ele>
        <time>2026-05-02T13:14:30.552Z</time>
      </trkpt>
      <trkpt lat="45.512872" lon="9.082272">
        <ele>186.516092</ele>
        <time>2026-05-02T13:14:32.552Z</time>
      </trkpt>
      <trkpt lat="45.512813" lon="9.082396">
        <ele>186.573199</ele>
        <time>2026-05-02T13:14:34.554Z</time>
      </trkpt>
      <trkpt lat="45.512760" lon="9.082520">
        <ele>186.628539</ele>
        <time>2026-05-02T13:14:36.548Z</time>
      </trkpt>
      <trkpt lat="45.512715" lon="9.082646">
        <ele>186.682421</ele>
        <time>2026-05-02T13:14:38.550Z</time>
      </trkpt>
      <trkpt lat="45.512691" lon="9.082780">
        <ele>186.735117</ele>
        <time>2026-05-02T13:14:40.547Z</time>
      </trkpt>
      <trkpt lat="45.512693" lon="9.082962">
        <ele>186.804470</ele>
        <time>2026-05-02T13:14:43.557Z</time>
      </trkpt>
      <trkpt lat="45.512728" lon="9.083131">
        <ele>186.871613</ele>
        <time>2026-05-02T13:14:46.554Z</time>
      </trkpt>
      <trkpt lat="45.512719" lon="9.083284">
        <ele>186.930113</ele>
        <time>2026-05-02T13:14:49.554Z</time>
      </trkpt>
      <trkpt lat="45.512628" lon="9.083348">
        <ele>186.985273</ele>
        <time>2026-05-02T13:14:53.554Z</time>
      </trkpt>
      <trkpt lat="45.512536" lon="9.083361">
        <ele>187.035540</ele>
        <time>2026-05-02T13:14:56.552Z</time>
      </trkpt>
      <trkpt lat="45.512421" lon="9.083358">
        <ele>187.098077</ele>
        <time>2026-05-02T13:14:59.561Z</time>
      </trkpt>
      <trkpt lat="45.512349" lon="9.083499">
        <ele>187.164550</ele>
        <time>2026-05-02T13:15:02.552Z</time>
      </trkpt>
      <trkpt lat="45.512284" lon="9.083660">
        <ele>187.235345</ele>
        <time>2026-05-02T13:15:05.552Z</time>
      </trkpt>
      <trkpt lat="45.512206" lon="9.083817">
        <ele>187.308672</ele>
        <time>2026-05-02T13:15:08.550Z</time>
      </trkpt>
      <trkpt lat="45.512136" lon="9.083950">
        <ele>187.372048</ele>
        <time>2026-05-02T13:15:11.550Z</time>
      </trkpt>
      <trkpt lat="45.512070" lon="9.084057">
        <ele>187.486976</ele>
        <time>2026-05-02T13:15:15.550Z</time>
      </trkpt>
      <trkpt lat="45.512001" lon="9.084158">
        <ele>187.619100</ele>
        <time>2026-05-02T13:15:18.550Z</time>
      </trkpt>
      <trkpt lat="45.511923" lon="9.084279">
        <ele>187.773100</ele>
        <time>2026-05-02T13:15:21.550Z</time>
      </trkpt>
      <trkpt lat="45.511840" lon="9.084409">
        <ele>187.937831</ele>
        <time>2026-05-02T13:15:24.550Z</time>
      </trkpt>
      <trkpt lat="45.511760" lon="9.084544">
        <ele>188.103437</ele>
        <time>2026-05-02T13:15:27.548Z</time>
      </trkpt>
      <trkpt lat="45.511679" lon="9.084678">
        <ele>188.269199</ele>
        <time>2026-05-02T13:15:30.560Z</time>
      </trkpt>
      <trkpt lat="45.511589" lon="9.084786">
        <ele>188.426380</ele>
        <time>2026-05-02T13:15:33.552Z</time>
      </trkpt>
      <trkpt lat="45.511514" lon="9.084906">
        <ele>188.576995</ele>
        <time>2026-05-02T13:15:36.552Z</time>
      </trkpt>
      <trkpt lat="45.511443" lon="9.085031">
        <ele>188.727713</ele>
        <time>2026-05-02T13:15:39.557Z</time>
      </trkpt>
      <trkpt lat="45.511370" lon="9.085159">
        <ele>188.882299</ele>
        <time>2026-05-02T13:15:42.547Z</time>
      </trkpt>
      <trkpt lat="45.511303" lon="9.085285">
        <ele>189.030454</ele>
        <time>2026-05-02T13:15:45.547Z</time>
      </trkpt>
      <trkpt lat="45.511236" lon="9.085410">
        <ele>189.177865</ele>
        <time>2026-05-02T13:15:48.554Z</time>
      </trkpt>
      <trkpt lat="45.511229" lon="9.085558">
        <ele>189.316812</ele>
        <time>2026-05-02T13:15:51.550Z</time>
      </trkpt>
      <trkpt lat="45.511166" lon="9.085688">
        <ele>189.464865</ele>
        <time>2026-05-02T13:15:54.548Z</time>
      </trkpt>
      <trkpt lat="45.511094" lon="9.085815">
        <ele>189.617881</ele>
        <time>2026-05-02T13:15:57.550Z</time>
      </trkpt>
      <trkpt lat="45.511019" lon="9.085927">
        <ele>189.762989</ele>
        <time>2026-05-02T13:16:00.554Z</time>
      </trkpt>
      <trkpt lat="45.510952" lon="9.086053">
        <ele>189.766780</ele>
        <time>2026-05-02T13:16:03.550Z</time>
      </trkpt>
      <trkpt lat="45.510885" lon="9.086191">
        <ele>189.738179</ele>
        <time>2026-05-02T13:16:06.556Z</time>
      </trkpt>
      <trkpt lat="45.510816" lon="9.086323">
        <ele>189.710125</ele>
        <time>2026-05-02T13:16:09.552Z</time>
      </trkpt>
      <trkpt lat="45.510745" lon="9.086455">
        <ele>189.681777</ele>
        <time>2026-05-02T13:16:12.548Z</time>
      </trkpt>
      <trkpt lat="45.510677" lon="9.086580">
        <ele>189.654818</ele>
        <time>2026-05-02T13:16:15.559Z</time>
      </trkpt>
      <trkpt lat="45.510603" lon="9.086701">
        <ele>189.627459</ele>
        <time>2026-05-02T13:16:18.552Z</time>
      </trkpt>
      <trkpt lat="45.510530" lon="9.086828">
        <ele>189.599476</ele>
        <time>2026-05-02T13:16:21.547Z</time>
      </trkpt>
      <trkpt lat="45.510455" lon="9.086968">
        <ele>189.569455</ele>
        <time>2026-05-02T13:16:24.552Z</time>
      </trkpt>
      <trkpt lat="45.510379" lon="9.087107">
        <ele>189.539420</ele>
        <time>2026-05-02T13:16:27.554Z</time>
      </trkpt>
      <trkpt lat="45.510311" lon="9.087238">
        <ele>189.511647</ele>
        <time>2026-05-02T13:16:30.554Z</time>
      </trkpt>
      <trkpt lat="45.510245" lon="9.087363">
        <ele>189.484984</ele>
        <time>2026-05-02T13:16:33.558Z</time>
      </trkpt>
      <trkpt lat="45.510175" lon="9.087494">
        <ele>189.456919</ele>
        <time>2026-05-02T13:16:36.552Z</time>
      </trkpt>
      <trkpt lat="45.510097" lon="9.087627">
        <ele>189.427374</ele>
        <time>2026-05-02T13:16:39.548Z</time>
      </trkpt>
      <trkpt lat="45.510013" lon="9.087736">
        <ele>189.399772</ele>
        <time>2026-05-02T13:16:42.546Z</time>
      </trkpt>
      <trkpt lat="45.509945" lon="9.087864">
        <ele>189.372409</ele>
        <time>2026-05-02T13:16:45.546Z</time>
      </trkpt>
      <trkpt lat="45.509880" lon="9.087993">
        <ele>189.351373</ele>
        <time>2026-05-02T13:16:48.552Z</time>
      </trkpt>
      <trkpt lat="45.509812" lon="9.088121">
        <ele>189.349794</ele>
        <time>2026-05-02T13:16:51.550Z</time>
      </trkpt>
      <trkpt lat="45.509745" lon="9.088245">
        <ele>189.348256</ele>
        <time>2026-05-02T13:16:54.556Z</time>
      </trkpt>
      <trkpt lat="45.509690" lon="9.088362">
        <ele>189.346871</ele>
        <time>2026-05-02T13:16:57.556Z</time>
      </trkpt>
      <trkpt lat="45.509635" lon="9.088476">
        <ele>189.345511</ele>
        <time>2026-05-02T13:17:00.552Z</time>
      </trkpt>
      <trkpt lat="45.509560" lon="9.088611">
        <ele>189.343818</ele>
        <time>2026-05-02T13:17:03.554Z</time>
      </trkpt>
      <trkpt lat="45.509489" lon="9.088744">
        <ele>189.342174</ele>
        <time>2026-05-02T13:17:06.560Z</time>
      </trkpt>
      <trkpt lat="45.509425" lon="9.088870">
        <ele>189.340645</ele>
        <time>2026-05-02T13:17:09.548Z</time>
      </trkpt>
      <trkpt lat="45.509356" lon="9.088995">
        <ele>189.339081</ele>
        <time>2026-05-02T13:17:12.552Z</time>
      </trkpt>
      <trkpt lat="45.509284" lon="9.089127">
        <ele>189.337437</ele>
        <time>2026-05-02T13:17:15.550Z</time>
      </trkpt>
      <trkpt lat="45.509208" lon="9.089254">
        <ele>189.335796</ele>
        <time>2026-05-02T13:17:18.550Z</time>
      </trkpt>
      <trkpt lat="45.509135" lon="9.089385">
        <ele>189.334151</ele>
        <time>2026-05-02T13:17:21.548Z</time>
      </trkpt>
      <trkpt lat="45.509073" lon="9.089507">
        <ele>189.332670</ele>
        <time>2026-05-02T13:17:24.550Z</time>
      </trkpt>
      <trkpt lat="45.509012" lon="9.089628">
        <ele>189.331205</ele>
        <time>2026-05-02T13:17:27.548Z</time>
      </trkpt>
      <trkpt lat="45.508954" lon="9.089757">
        <ele>189.329699</ele>
        <time>2026-05-02T13:17:30.552Z</time>
      </trkpt>
      <trkpt lat="45.508898" lon="9.089894">
        <ele>189.328140</ele>
        <time>2026-05-02T13:17:33.558Z</time>
      </trkpt>
      <trkpt lat="45.508843" lon="9.090030">
        <ele>189.326597</ele>
        <time>2026-05-02T13:17:36.556Z</time>
      </trkpt>
      <trkpt lat="45.508794" lon="9.090172">
        <ele>188.808723</ele>
        <time>2026-05-02T13:17:39.554Z</time>
      </trkpt>
      <trkpt lat="45.508750" lon="9.090308">
        <ele>188.292520</ele>
        <time>2026-05-02T13:17:42.548Z</time>
      </trkpt>
      <trkpt lat="45.508709" lon="9.090426">
        <ele>187.838643</ele>
        <time>2026-05-02T13:17:45.554Z</time>
      </trkpt>
      <trkpt lat="45.508627" lon="9.090493">
        <ele>187.373992</ele>
        <time>2026-05-02T13:17:52.560Z</time>
      </trkpt>
      <trkpt lat="45.508530" lon="9.090479">
        <ele>186.894571</ele>
        <time>2026-05-02T13:17:59.552Z</time>
      </trkpt>
      <trkpt lat="45.508444" lon="9.090522">
        <ele>186.446466</ele>
        <time>2026-05-02T13:18:03.559Z</time>
      </trkpt>
      <trkpt lat="45.508346" lon="9.090485">
        <ele>185.947979</ele>
        <time>2026-05-02T13:18:08.552Z</time>
      </trkpt>
      <trkpt lat="45.508221" lon="9.090406">
        <ele>185.275714</ele>
        <time>2026-05-02T13:34:07.547Z</time>
      </trkpt>
      <trkpt lat="45.508119" lon="9.090390">
        <ele>184.771119</ele>
        <time>2026-05-02T13:34:12.565Z</time>
      </trkpt>
      <trkpt lat="45.508095" lon="9.090523">
        <ele>184.297831</ele>
        <time>2026-05-02T13:34:19.557Z</time>
      </trkpt>
      <trkpt lat="45.508012" lon="9.090603">
        <ele>183.805300</ele>
        <time>2026-05-02T13:34:23.557Z</time>
      </trkpt>
      <trkpt lat="45.507929" lon="9.090683">
        <ele>183.312769</ele>
        <time>2026-05-02T13:34:26.548Z</time>
      </trkpt>
      <trkpt lat="45.507843" lon="9.090764">
        <ele>182.806056</ele>
        <time>2026-05-02T13:34:29.550Z</time>
      </trkpt>
      <trkpt lat="45.507747" lon="9.090854">
        <ele>182.241215</ele>
        <time>2026-05-02T13:34:32.547Z</time>
      </trkpt>
      <trkpt lat="45.507654" lon="9.090932">
        <ele>181.710750</ele>
        <time>2026-05-02T13:34:35.553Z</time>
      </trkpt>
      <trkpt lat="45.507567" lon="9.091021">
        <ele>181.184353</ele>
        <time>2026-05-02T13:34:39.547Z</time>
      </trkpt>
      <trkpt lat="45.507544" lon="9.091168">
        <ele>180.665293</ele>
        <time>2026-05-02T13:34:44.553Z</time>
      </trkpt>
      <trkpt lat="45.507451" lon="9.091251">
        <ele>180.398163</ele>
        <time>2026-05-02T13:34:47.553Z</time>
      </trkpt>
      <trkpt lat="45.507358" lon="9.091351">
        <ele>180.263481</ele>
        <time>2026-05-02T13:34:50.546Z</time>
      </trkpt>
      <trkpt lat="45.507260" lon="9.091478">
        <ele>180.110368</ele>
        <time>2026-05-02T13:34:53.547Z</time>
      </trkpt>
      <trkpt lat="45.507196" lon="9.091571">
        <ele>180.004721</ele>
        <time>2026-05-02T13:34:55.550Z</time>
      </trkpt>
      <trkpt lat="45.507107" lon="9.091706">
        <ele>179.854490</ele>
        <time>2026-05-02T13:34:58.551Z</time>
      </trkpt>
      <trkpt lat="45.507034" lon="9.091839">
        <ele>179.717559</ele>
        <time>2026-05-02T13:35:01.550Z</time>
      </trkpt>
      <trkpt lat="45.506952" lon="9.091961">
        <ele>179.580544</ele>
        <time>2026-05-02T13:35:04.549Z</time>
      </trkpt>
      <trkpt lat="45.506864" lon="9.092023">
        <ele>179.467035</ele>
        <time>2026-05-02T13:35:08.556Z</time>
      </trkpt>
      <trkpt lat="45.506772" lon="9.092028">
        <ele>179.360553</ele>
        <time>2026-05-02T13:35:24.553Z</time>
      </trkpt>
      <trkpt lat="45.506690" lon="9.092115">
        <ele>179.242369</ele>
        <time>2026-05-02T13:35:28.560Z</time>
      </trkpt>
      <trkpt lat="45.506604" lon="9.092229">
        <ele>179.106605</ele>
        <time>2026-05-02T13:35:31.548Z</time>
      </trkpt>
      <trkpt lat="45.506536" lon="9.092322">
        <ele>178.997666</ele>
        <time>2026-05-02T13:35:33.546Z</time>
      </trkpt>
      <trkpt lat="45.506458" lon="9.092427">
        <ele>178.873642</ele>
        <time>2026-05-02T13:35:35.551Z</time>
      </trkpt>
      <trkpt lat="45.506373" lon="9.092546">
        <ele>178.735916</ele>
        <time>2026-05-02T13:35:37.552Z</time>
      </trkpt>
      <trkpt lat="45.506300" lon="9.092636">
        <ele>178.624336</ele>
        <time>2026-05-02T13:35:39.551Z</time>
      </trkpt>
      <trkpt lat="45.506231" lon="9.092725">
        <ele>178.516759</ele>
        <time>2026-05-02T13:35:41.551Z</time>
      </trkpt>
      <trkpt lat="45.506164" lon="9.092810">
        <ele>178.413068</ele>
        <time>2026-05-02T13:35:43.547Z</time>
      </trkpt>
      <trkpt lat="45.506043" lon="9.092929">
        <ele>178.628805</ele>
        <time>2026-05-02T13:35:45.548Z</time>
      </trkpt>
      <trkpt lat="45.506041" lon="9.093117">
        <ele>178.847200</ele>
        <time>2026-05-02T13:35:48.550Z</time>
      </trkpt>
      <trkpt lat="45.505935" lon="9.093157">
        <ele>179.028922</ele>
        <time>2026-05-02T13:35:50.547Z</time>
      </trkpt>
      <trkpt lat="45.505844" lon="9.093146">
        <ele>179.180283</ele>
        <time>2026-05-02T13:35:53.550Z</time>
      </trkpt>
      <trkpt lat="45.505753" lon="9.093120">
        <ele>179.334098</ele>
        <time>2026-05-02T13:35:57.548Z</time>
      </trkpt>
      <trkpt lat="45.505661" lon="9.093120">
        <ele>179.486577</ele>
        <time>2026-05-02T13:36:01.549Z</time>
      </trkpt>
      <trkpt lat="45.505592" lon="9.093238">
        <ele>179.665082</ele>
        <time>2026-05-02T13:36:06.548Z</time>
      </trkpt>
      <trkpt lat="45.505558" lon="9.093381">
        <ele>179.840483</ele>
        <time>2026-05-02T13:36:11.555Z</time>
      </trkpt>
      <trkpt lat="45.505522" lon="9.093517">
        <ele>180.009346</ele>
        <time>2026-05-02T13:36:16.546Z</time>
      </trkpt>
      <trkpt lat="45.505455" lon="9.093626">
        <ele>180.177753</ele>
        <time>2026-05-02T13:36:22.547Z</time>
      </trkpt>
      <trkpt lat="45.505428" lon="9.093785">
        <ele>180.367784</ele>
        <time>2026-05-02T13:36:26.547Z</time>
      </trkpt>
      <trkpt lat="45.505439" lon="9.093946">
        <ele>180.555682</ele>
        <time>2026-05-02T13:36:30.543Z</time>
      </trkpt>
      <trkpt lat="45.505491" lon="9.094075">
        <ele>180.728539</ele>
        <time>2026-05-02T13:36:34.552Z</time>
      </trkpt>
      <trkpt lat="45.505532" lon="9.094193">
        <ele>180.881523</ele>
        <time>2026-05-02T13:36:39.541Z</time>
      </trkpt>
      <trkpt lat="45.505564" lon="9.094346">
        <ele>181.066986</ele>
        <time>2026-05-02T13:36:44.547Z</time>
      </trkpt>
      <trkpt lat="45.505504" lon="9.094468">
        <ele>181.240105</ele>
        <time>2026-05-02T13:36:48.547Z</time>
      </trkpt>
      <trkpt lat="45.505411" lon="9.094451">
        <ele>181.381446</ele>
        <time>2026-05-02T13:36:52.550Z</time>
      </trkpt>
      <trkpt lat="45.505342" lon="9.094361">
        <ele>181.366852</ele>
        <time>2026-05-02T13:37:00.545Z</time>
      </trkpt>
      <trkpt lat="45.505277" lon="9.094261">
        <ele>181.351931</ele>
        <time>2026-05-02T13:37:05.555Z</time>
      </trkpt>
      <trkpt lat="45.505174" lon="9.094323">
        <ele>181.334481</ele>
        <time>2026-05-02T13:37:10.546Z</time>
      </trkpt>
      <trkpt lat="45.505085" lon="9.094418">
        <ele>181.317130</ele>
        <time>2026-05-02T13:37:14.553Z</time>
      </trkpt>
      <trkpt lat="45.504994" lon="9.094482">
        <ele>181.301293</ele>
        <time>2026-05-02T13:37:18.552Z</time>
      </trkpt>
      <trkpt lat="45.504913" lon="9.094547">
        <ele>181.286787</ele>
        <time>2026-05-02T13:37:21.552Z</time>
      </trkpt>
      <trkpt lat="45.504862" lon="9.094663">
        <ele>181.271805</ele>
        <time>2026-05-02T13:37:24.547Z</time>
      </trkpt>
      <trkpt lat="45.504826" lon="9.094815">
        <ele>181.254252</ele>
        <time>2026-05-02T13:37:27.545Z</time>
      </trkpt>
      <trkpt lat="45.504792" lon="9.094965">
        <ele>181.237005</ele>
        <time>2026-05-02T13:37:30.545Z</time>
      </trkpt>
      <trkpt lat="45.504724" lon="9.095078">
        <ele>181.220710</ele>
        <time>2026-05-02T13:37:33.550Z</time>
      </trkpt>
      <trkpt lat="45.504648" lon="9.095182">
        <ele>181.204272</ele>
        <time>2026-05-02T13:37:36.557Z</time>
      </trkpt>
      <trkpt lat="45.504594" lon="9.095295">
        <ele>181.189309</ele>
        <time>2026-05-02T13:37:39.550Z</time>
      </trkpt>
      <trkpt lat="45.504557" lon="9.095436">
        <ele>181.172838</ele>
        <time>2026-05-02T13:37:42.545Z</time>
      </trkpt>
      <trkpt lat="45.504548" lon="9.095574">
        <ele>181.157675</ele>
        <time>2026-05-02T13:37:45.550Z</time>
      </trkpt>
      <trkpt lat="45.504499" lon="9.095732">
        <ele>181.138772</ele>
        <time>2026-05-02T13:37:49.548Z</time>
      </trkpt>
      <trkpt lat="45.504450" lon="9.095877">
        <ele>181.121161</ele>
        <time>2026-05-02T13:37:52.547Z</time>
      </trkpt>
      <trkpt lat="45.504390" lon="9.096032">
        <ele>181.101463</ele>
        <time>2026-05-02T13:37:55.556Z</time>
      </trkpt>
      <trkpt lat="45.504323" lon="9.096173">
        <ele>181.020215</ele>
        <time>2026-05-02T13:37:58.548Z</time>
      </trkpt>
      <trkpt lat="45.504257" lon="9.096312">
        <ele>180.940138</ele>
        <time>2026-05-02T13:38:01.547Z</time>
      </trkpt>
      <trkpt lat="45.504187" lon="9.096438">
        <ele>180.863453</ele>
        <time>2026-05-02T13:38:04.548Z</time>
      </trkpt>
      <trkpt lat="45.504115" lon="9.096559">
        <ele>180.787748</ele>
        <time>2026-05-02T13:38:07.547Z</time>
      </trkpt>
      <trkpt lat="45.504064" lon="9.096694">
        <ele>180.714602</ele>
        <time>2026-05-02T13:38:10.543Z</time>
      </trkpt>
      <trkpt lat="45.504056" lon="9.096849">
        <ele>180.640475</ele>
        <time>2026-05-02T13:38:13.549Z</time>
      </trkpt>
      <trkpt lat="45.504048" lon="9.097008">
        <ele>180.564446</ele>
        <time>2026-05-02T13:38:16.552Z</time>
      </trkpt>
      <trkpt lat="45.504039" lon="9.097188">
        <ele>180.478377</ele>
        <time>2026-05-02T13:38:19.552Z</time>
      </trkpt>
      <trkpt lat="45.504038" lon="9.097378">
        <ele>180.387755</ele>
        <time>2026-05-02T13:38:22.551Z</time>
      </trkpt>
      <trkpt lat="45.504072" lon="9.097552">
        <ele>180.301601</ele>
        <time>2026-05-02T13:38:25.549Z</time>
      </trkpt>
      <trkpt lat="45.504064" lon="9.097728">
        <ele>180.217482</ele>
        <time>2026-05-02T13:38:28.545Z</time>
      </trkpt>
      <trkpt lat="45.504002" lon="9.097877">
        <ele>180.134836</ele>
        <time>2026-05-02T13:38:31.547Z</time>
      </trkpt>
      <trkpt lat="45.503915" lon="9.097960">
        <ele>180.063615</ele>
        <time>2026-05-02T13:38:34.554Z</time>
      </trkpt>
      <trkpt lat="45.503831" lon="9.098067">
        <ele>179.986986</ele>
        <time>2026-05-02T13:38:37.552Z</time>
      </trkpt>
      <trkpt lat="45.503734" lon="9.098196">
        <ele>179.896748</ele>
        <time>2026-05-02T13:38:40.549Z</time>
      </trkpt>
      <trkpt lat="45.503665" lon="9.098286">
        <ele>179.861756</ele>
        <time>2026-05-02T13:38:42.549Z</time>
      </trkpt>
      <trkpt lat="45.503597" lon="9.098379">
        <ele>179.838661</ele>
        <time>2026-05-02T13:38:44.551Z</time>
      </trkpt>
      <trkpt lat="45.503530" lon="9.098473">
        <ele>179.815623</ele>
        <time>2026-05-02T13:38:46.548Z</time>
      </trkpt>
      <trkpt lat="45.503433" lon="9.098608">
        <ele>179.782401</ele>
        <time>2026-05-02T13:38:49.544Z</time>
      </trkpt>
      <trkpt lat="45.503362" lon="9.098704">
        <ele>179.758418</ele>
        <time>2026-05-02T13:38:51.549Z</time>
      </trkpt>
      <trkpt lat="45.503290" lon="9.098798">
        <ele>179.734490</ele>
        <time>2026-05-02T13:38:53.549Z</time>
      </trkpt>
      <trkpt lat="45.503215" lon="9.098893">
        <ele>179.709901</ele>
        <time>2026-05-02T13:38:55.554Z</time>
      </trkpt>
      <trkpt lat="45.503119" lon="9.099028">
        <ele>179.676853</ele>
        <time>2026-05-02T13:38:58.555Z</time>
      </trkpt>
      <trkpt lat="45.503024" lon="9.099162">
        <ele>179.644101</ele>
        <time>2026-05-02T13:39:01.553Z</time>
      </trkpt>
      <trkpt lat="45.502931" lon="9.099293">
        <ele>179.612059</ele>
        <time>2026-05-02T13:39:04.548Z</time>
      </trkpt>
      <trkpt lat="45.502840" lon="9.099419">
        <ele>179.580969</ele>
        <time>2026-05-02T13:39:07.552Z</time>
      </trkpt>
      <trkpt lat="45.502748" lon="9.099541">
        <ele>179.550175</ele>
        <time>2026-05-02T13:39:10.542Z</time>
      </trkpt>
      <trkpt lat="45.502663" lon="9.099658">
        <ele>179.521217</ele>
        <time>2026-05-02T13:39:13.547Z</time>
      </trkpt>
      <trkpt lat="45.502614" lon="9.099780">
        <ele>179.497055</ele>
        <time>2026-05-02T13:39:16.551Z</time>
      </trkpt>
      <trkpt lat="45.502590" lon="9.099945">
        <ele>179.468097</ele>
        <time>2026-05-02T13:39:20.551Z</time>
      </trkpt>
      <trkpt lat="45.502532" lon="9.100089">
        <ele>179.439557</ele>
        <time>2026-05-02T13:39:23.551Z</time>
      </trkpt>
      <trkpt lat="45.502488" lon="9.100207">
        <ele>179.443922</ele>
        <time>2026-05-02T13:39:25.549Z</time>
      </trkpt>
      <trkpt lat="45.502431" lon="9.100316">
        <ele>179.452019</ele>
        <time>2026-05-02T13:39:27.550Z</time>
      </trkpt>
      <trkpt lat="45.502366" lon="9.100413">
        <ele>179.460009</ele>
        <time>2026-05-02T13:39:29.551Z</time>
      </trkpt>
      <trkpt lat="45.502294" lon="9.100514">
        <ele>179.468586</ele>
        <time>2026-05-02T13:39:31.552Z</time>
      </trkpt>
      <trkpt lat="45.502227" lon="9.100620">
        <ele>179.477085</ele>
        <time>2026-05-02T13:39:33.547Z</time>
      </trkpt>
      <trkpt lat="45.502159" lon="9.100712">
        <ele>179.485045</ele>
        <time>2026-05-02T13:39:35.543Z</time>
      </trkpt>
      <trkpt lat="45.502095" lon="9.100806">
        <ele>179.492848</ele>
        <time>2026-05-02T13:39:37.548Z</time>
      </trkpt>
      <trkpt lat="45.502032" lon="9.100908">
        <ele>179.500942</ele>
        <time>2026-05-02T13:39:39.547Z</time>
      </trkpt>
      <trkpt lat="45.501962" lon="9.101008">
        <ele>179.509357</ele>
        <time>2026-05-02T13:39:41.548Z</time>
      </trkpt>
      <trkpt lat="45.501898" lon="9.101107">
        <ele>179.517375</ele>
        <time>2026-05-02T13:39:43.550Z</time>
      </trkpt>
      <trkpt lat="45.501843" lon="9.101220">
        <ele>179.525566</ele>
        <time>2026-05-02T13:39:45.556Z</time>
      </trkpt>
      <trkpt lat="45.501786" lon="9.101336">
        <ele>179.534001</ele>
        <time>2026-05-02T13:39:47.549Z</time>
      </trkpt>
      <trkpt lat="45.501722" lon="9.101437">
        <ele>179.542108</ele>
        <time>2026-05-02T13:39:49.555Z</time>
      </trkpt>
      <trkpt lat="45.501632" lon="9.101578">
        <ele>179.553462</ele>
        <time>2026-05-02T13:39:52.547Z</time>
      </trkpt>
      <trkpt lat="45.501547" lon="9.101706">
        <ele>179.563960</ele>
        <time>2026-05-02T13:39:55.555Z</time>
      </trkpt>
      <trkpt lat="45.501433" lon="9.101768">
        <ele>179.574324</ele>
        <time>2026-05-02T13:39:58.550Z</time>
      </trkpt>
      <trkpt lat="45.501301" lon="9.101792">
        <ele>179.585628</ele>
        <time>2026-05-02T13:40:01.554Z</time>
      </trkpt>
      <trkpt lat="45.501174" lon="9.101818">
        <ele>179.556374</ele>
        <time>2026-05-02T13:40:04.553Z</time>
      </trkpt>
      <trkpt lat="45.501079" lon="9.101955">
        <ele>179.500573</ele>
        <time>2026-05-02T13:40:07.547Z</time>
      </trkpt>
      <trkpt lat="45.501012" lon="9.102053">
        <ele>179.460934</ele>
        <time>2026-05-02T13:40:09.551Z</time>
      </trkpt>
      <trkpt lat="45.500916" lon="9.102183">
        <ele>179.406256</ele>
        <time>2026-05-02T13:40:12.549Z</time>
      </trkpt>
      <trkpt lat="45.500847" lon="9.102276">
        <ele>179.367043</ele>
        <time>2026-05-02T13:40:14.541Z</time>
      </trkpt>
      <trkpt lat="45.500784" lon="9.102370">
        <ele>179.329385</ele>
        <time>2026-05-02T13:40:16.546Z</time>
      </trkpt>
      <trkpt lat="45.500718" lon="9.102470">
        <ele>179.289613</ele>
        <time>2026-05-02T13:40:18.547Z</time>
      </trkpt>
      <trkpt lat="45.500654" lon="9.102571">
        <ele>179.250189</ele>
        <time>2026-05-02T13:40:20.550Z</time>
      </trkpt>
      <trkpt lat="45.500583" lon="9.102666">
        <ele>179.209978</ele>
        <time>2026-05-02T13:40:22.547Z</time>
      </trkpt>
      <trkpt lat="45.500507" lon="9.102764">
        <ele>179.167659</ele>
        <time>2026-05-02T13:40:24.548Z</time>
      </trkpt>
      <trkpt lat="45.500435" lon="9.102861">
        <ele>179.126750</ele>
        <time>2026-05-02T13:40:26.547Z</time>
      </trkpt>
      <trkpt lat="45.500364" lon="9.102959">
        <ele>179.085939</ele>
        <time>2026-05-02T13:40:28.552Z</time>
      </trkpt>
      <trkpt lat="45.500294" lon="9.103049">
        <ele>179.047012</ele>
        <time>2026-05-02T13:40:30.547Z</time>
      </trkpt>
      <trkpt lat="45.500228" lon="9.103145">
        <ele>179.008075</ele>
        <time>2026-05-02T13:40:32.551Z</time>
      </trkpt>
      <trkpt lat="45.500170" lon="9.103255">
        <ele>178.968218</ele>
        <time>2026-05-02T13:40:34.556Z</time>
      </trkpt>
      <trkpt lat="45.500112" lon="9.103368">
        <ele>178.927664</ele>
        <time>2026-05-02T13:40:36.549Z</time>
      </trkpt>
      <trkpt lat="45.500059" lon="9.103483">
        <ele>178.887812</ele>
        <time>2026-05-02T13:40:38.548Z</time>
      </trkpt>
      <trkpt lat="45.500016" lon="9.103599">
        <ele>178.849816</ele>
        <time>2026-05-02T13:40:40.556Z</time>
      </trkpt>
      <trkpt lat="45.499952" lon="9.103770">
        <ele>178.839060</ele>
        <time>2026-05-02T13:40:43.551Z</time>
      </trkpt>
      <trkpt lat="45.499915" lon="9.103890">
        <ele>178.833626</ele>
        <time>2026-05-02T13:40:45.548Z</time>
      </trkpt>
      <trkpt lat="45.499878" lon="9.104015">
        <ele>178.828002</ele>
        <time>2026-05-02T13:40:47.549Z</time>
      </trkpt>
      <trkpt lat="45.499826" lon="9.104191">
        <ele>178.820085</ele>
        <time>2026-05-02T13:40:50.548Z</time>
      </trkpt>
      <trkpt lat="45.499790" lon="9.104310">
        <ele>178.814713</ele>
        <time>2026-05-02T13:40:52.549Z</time>
      </trkpt>
      <trkpt lat="45.499750" lon="9.104433">
        <ele>178.809092</ele>
        <time>2026-05-02T13:40:54.562Z</time>
      </trkpt>
      <trkpt lat="45.499712" lon="9.104556">
        <ele>178.803521</ele>
        <time>2026-05-02T13:40:56.555Z</time>
      </trkpt>
      <trkpt lat="45.499671" lon="9.104679">
        <ele>178.797875</ele>
        <time>2026-05-02T13:40:58.553Z</time>
      </trkpt>
      <trkpt lat="45.499638" lon="9.104799">
        <ele>178.792532</ele>
        <time>2026-05-02T13:41:00.547Z</time>
      </trkpt>
      <trkpt lat="45.499586" lon="9.104968">
        <ele>178.784882</ele>
        <time>2026-05-02T13:41:03.546Z</time>
      </trkpt>
      <trkpt lat="45.499531" lon="9.105123">
        <ele>178.777681</ele>
        <time>2026-05-02T13:41:06.552Z</time>
      </trkpt>
      <trkpt lat="45.499464" lon="9.105258">
        <ele>178.770824</ele>
        <time>2026-05-02T13:41:09.545Z</time>
      </trkpt>
      <trkpt lat="45.499387" lon="9.105369">
        <ele>178.764351</ele>
        <time>2026-05-02T13:41:12.542Z</time>
      </trkpt>
      <trkpt lat="45.499326" lon="9.105480">
        <ele>178.758505</ele>
        <time>2026-05-02T13:41:16.547Z</time>
      </trkpt>
      <trkpt lat="45.499241" lon="9.105541">
        <ele>178.752878</ele>
        <time>2026-05-02T13:41:19.548Z</time>
      </trkpt>
      <trkpt lat="45.499137" lon="9.105566">
        <ele>178.746641</ele>
        <time>2026-05-02T13:41:22.546Z</time>
      </trkpt>
      <trkpt lat="45.499021" lon="9.105582">
        <ele>178.735697</ele>
        <time>2026-05-02T13:41:25.548Z</time>
      </trkpt>
      <trkpt lat="45.498905" lon="9.105624">
        <ele>178.674046</ele>
        <time>2026-05-02T13:41:28.548Z</time>
      </trkpt>
      <trkpt lat="45.498798" lon="9.105698">
        <ele>178.612792</ele>
        <time>2026-05-02T13:41:31.549Z</time>
      </trkpt>
      <trkpt lat="45.498693" lon="9.105723">
        <ele>178.557954</ele>
        <time>2026-05-02T13:41:34.555Z</time>
      </trkpt>
      <trkpt lat="45.498566" lon="9.105711">
        <ele>178.492387</ele>
        <time>2026-05-02T13:41:37.548Z</time>
      </trkpt>
      <trkpt lat="45.498510" lon="9.105850">
        <ele>178.434498</ele>
        <time>2026-05-02T13:41:40.541Z</time>
      </trkpt>
      <trkpt lat="45.498496" lon="9.105978">
        <ele>178.387720</ele>
        <time>2026-05-02T13:41:42.547Z</time>
      </trkpt>
      <trkpt lat="45.498474" lon="9.106112">
        <ele>178.338026</ele>
        <time>2026-05-02T13:41:44.547Z</time>
      </trkpt>
      <trkpt lat="45.498429" lon="9.106243">
        <ele>178.285350</ele>
        <time>2026-05-02T13:41:46.552Z</time>
      </trkpt>
      <trkpt lat="45.498388" lon="9.106364">
        <ele>178.236823</ele>
        <time>2026-05-02T13:41:48.551Z</time>
      </trkpt>
      <trkpt lat="45.498320" lon="9.106531">
        <ele>178.167086</ele>
        <time>2026-05-02T13:41:51.549Z</time>
      </trkpt>
      <trkpt lat="45.498252" lon="9.106626">
        <ele>178.118058</ele>
        <time>2026-05-02T13:41:53.554Z</time>
      </trkpt>
      <trkpt lat="45.498179" lon="9.106719">
        <ele>178.067642</ele>
        <time>2026-05-02T13:41:55.548Z</time>
      </trkpt>
      <trkpt lat="45.498112" lon="9.106805">
        <ele>178.021214</ele>
        <time>2026-05-02T13:41:57.548Z</time>
      </trkpt>
      <trkpt lat="45.498019" lon="9.106935">
        <ele>177.954143</ele>
        <time>2026-05-02T13:42:00.548Z</time>
      </trkpt>
      <trkpt lat="45.497938" lon="9.107055">
        <ele>177.893988</ele>
        <time>2026-05-02T13:42:03.548Z</time>
      </trkpt>
      <trkpt lat="45.497833" lon="9.106993">
        <ele>177.835449</ele>
        <time>2026-05-02T13:42:07.548Z</time>
      </trkpt>
      <trkpt lat="45.497761" lon="9.106882">
        <ele>177.715789</ele>
        <time>2026-05-02T13:42:10.545Z</time>
      </trkpt>
      <trkpt lat="45.497648" lon="9.106849">
        <ele>177.538810</ele>
        <time>2026-05-02T13:42:13.551Z</time>
      </trkpt>
      <trkpt lat="45.497543" lon="9.106904">
        <ele>177.367185</ele>
        <time>2026-05-02T13:42:16.552Z</time>
      </trkpt>
      <trkpt lat="45.497469" lon="9.107010">
        <ele>177.206285</ele>
        <time>2026-05-02T13:42:19.548Z</time>
      </trkpt>
      <trkpt lat="45.497394" lon="9.106928">
        <ele>177.061300</ele>
        <time>2026-05-02T13:42:22.551Z</time>
      </trkpt>
      <trkpt lat="45.497310" lon="9.106802">
        <ele>176.874282</ele>
        <time>2026-05-02T13:42:25.546Z</time>
      </trkpt>
      <trkpt lat="45.497211" lon="9.106694">
        <ele>176.683059</ele>
        <time>2026-05-02T13:42:28.551Z</time>
      </trkpt>
      <trkpt lat="45.497102" lon="9.106657">
        <ele>176.511144</ele>
        <time>2026-05-02T13:42:31.546Z</time>
      </trkpt>
      <trkpt lat="45.496983" lon="9.106660">
        <ele>176.328526</ele>
        <time>2026-05-02T13:42:34.548Z</time>
      </trkpt>
      <trkpt lat="45.496946" lon="9.106809">
        <ele>176.158516</ele>
        <time>2026-05-02T13:42:38.556Z</time>
      </trkpt>
      <trkpt lat="45.496955" lon="9.106940">
        <ele>176.016948</ele>
        <time>2026-05-02T13:42:40.545Z</time>
      </trkpt>
      <trkpt lat="45.496968" lon="9.107081">
        <ele>175.863995</ele>
        <time>2026-05-02T13:42:42.554Z</time>
      </trkpt>
      <trkpt lat="45.496987" lon="9.107227">
        <ele>175.704287</ele>
        <time>2026-05-02T13:42:44.554Z</time>
      </trkpt>
      <trkpt lat="45.497005" lon="9.107376">
        <ele>175.541673</ele>
        <time>2026-05-02T13:42:46.547Z</time>
      </trkpt>
      <trkpt lat="45.497010" lon="9.107529">
        <ele>175.376942</ele>
        <time>2026-05-02T13:42:48.553Z</time>
      </trkpt>
      <trkpt lat="45.497001" lon="9.107674">
        <ele>175.220382</ele>
        <time>2026-05-02T13:42:50.555Z</time>
      </trkpt>
      <trkpt lat="45.496993" lon="9.107816">
        <ele>175.067167</ele>
        <time>2026-05-02T13:42:52.553Z</time>
      </trkpt>
      <trkpt lat="45.496985" lon="9.107953">
        <ele>175.085403</ele>
        <time>2026-05-02T13:42:54.546Z</time>
      </trkpt>
      <trkpt lat="45.496986" lon="9.108097">
        <ele>175.121603</ele>
        <time>2026-05-02T13:42:56.553Z</time>
      </trkpt>
      <trkpt lat="45.496995" lon="9.108239">
        <ele>175.157445</ele>
        <time>2026-05-02T13:42:58.552Z</time>
      </trkpt>
      <trkpt lat="45.497001" lon="9.108372">
        <ele>175.190948</ele>
        <time>2026-05-02T13:43:00.547Z</time>
      </trkpt>
      <trkpt lat="45.497013" lon="9.108510">
        <ele>175.225904</ele>
        <time>2026-05-02T13:43:02.547Z</time>
      </trkpt>
      <trkpt lat="45.497029" lon="9.108641">
        <ele>175.259331</ele>
        <time>2026-05-02T13:43:04.551Z</time>
      </trkpt>
      <trkpt lat="45.497040" lon="9.108778">
        <ele>175.293996</ele>
        <time>2026-05-02T13:43:06.551Z</time>
      </trkpt>
      <trkpt lat="45.497052" lon="9.108913">
        <ele>175.328204</ele>
        <time>2026-05-02T13:43:08.547Z</time>
      </trkpt>
      <trkpt lat="45.497062" lon="9.109100">
        <ele>175.375349</ele>
        <time>2026-05-02T13:43:11.548Z</time>
      </trkpt>
      <trkpt lat="45.497065" lon="9.109229">
        <ele>175.407795</ele>
        <time>2026-05-02T13:43:13.547Z</time>
      </trkpt>
      <trkpt lat="45.497068" lon="9.109411">
        <ele>175.453559</ele>
        <time>2026-05-02T13:43:16.551Z</time>
      </trkpt>
      <trkpt lat="45.497023" lon="9.109562">
        <ele>175.494805</ele>
        <time>2026-05-02T13:43:19.547Z</time>
      </trkpt>
      <trkpt lat="45.496960" lon="9.109687">
        <ele>175.533508</ele>
        <time>2026-05-02T13:43:22.547Z</time>
      </trkpt>
      <trkpt lat="45.496912" lon="9.109808">
        <ele>175.568458</ele>
        <time>2026-05-02T13:43:25.545Z</time>
      </trkpt>
      <trkpt lat="45.496838" lon="9.109948">
        <ele>175.612536</ele>
        <time>2026-05-02T13:43:28.550Z</time>
      </trkpt>
      <trkpt lat="45.496765" lon="9.110089">
        <ele>175.656601</ele>
        <time>2026-05-02T13:43:31.557Z</time>
      </trkpt>
      <trkpt lat="45.496725" lon="9.110252">
        <ele>175.697826</ele>
        <time>2026-05-02T13:43:34.548Z</time>
      </trkpt>
      <trkpt lat="45.496697" lon="9.110422">
        <ele>175.648389</ele>
        <time>2026-05-02T13:43:37.548Z</time>
      </trkpt>
      <trkpt lat="45.496679" lon="9.110575">
        <ele>175.604470</ele>
        <time>2026-05-02T13:43:40.548Z</time>
      </trkpt>
      <trkpt lat="45.496644" lon="9.110739">
        <ele>175.555939</ele>
        <time>2026-05-02T13:43:43.548Z</time>
      </trkpt>
      <trkpt lat="45.496574" lon="9.110908">
        <ele>175.500367</ele>
        <time>2026-05-02T13:43:46.547Z</time>
      </trkpt>
      <trkpt lat="45.496478" lon="9.111030">
        <ele>175.448444</ele>
        <time>2026-05-02T13:43:49.546Z</time>
      </trkpt>
      <trkpt lat="45.496394" lon="9.111130">
        <ele>175.404259</ele>
        <time>2026-05-02T13:43:52.552Z</time>
      </trkpt>
      <trkpt lat="45.496311" lon="9.111200">
        <ele>175.365318</ele>
        <time>2026-05-02T13:43:55.548Z</time>
      </trkpt>
      <trkpt lat="45.496207" lon="9.111278">
        <ele>175.317865</ele>
        <time>2026-05-02T13:43:58.551Z</time>
      </trkpt>
      <trkpt lat="45.496143" lon="9.111385">
        <ele>175.278045</ele>
        <time>2026-05-02T13:44:01.547Z</time>
      </trkpt>
      <trkpt lat="45.496197" lon="9.111501">
        <ele>175.238624</ele>
        <time>2026-05-02T13:44:13.547Z</time>
      </trkpt>
      <trkpt lat="45.496247" lon="9.111615">
        <ele>175.200554</ele>
        <time>2026-05-02T13:44:27.549Z</time>
      </trkpt>
      <trkpt lat="45.496288" lon="9.111730">
        <ele>175.164029</ele>
        <time>2026-05-02T13:44:30.547Z</time>
      </trkpt>
      <trkpt lat="45.496220" lon="9.111859">
        <ele>175.118335</ele>
        <time>2026-05-02T13:44:33.555Z</time>
      </trkpt>
      <trkpt lat="45.496143" lon="9.112005">
        <ele>175.066611</ele>
        <time>2026-05-02T13:44:36.545Z</time>
      </trkpt>
      <trkpt lat="45.496091" lon="9.112115">
        <ele>175.029051</ele>
        <time>2026-05-02T13:44:38.554Z</time>
      </trkpt>
      <trkpt lat="45.496037" lon="9.112227">
        <ele>174.990568</ele>
        <time>2026-05-02T13:44:40.543Z</time>
      </trkpt>
      <trkpt lat="45.495990" lon="9.112338">
        <ele>174.956923</ele>
        <time>2026-05-02T13:44:42.549Z</time>
      </trkpt>
      <trkpt lat="45.495913" lon="9.112497">
        <ele>174.911182</ele>
        <time>2026-05-02T13:44:45.554Z</time>
      </trkpt>
      <trkpt lat="45.495862" lon="9.112609">
        <ele>174.879570</ele>
        <time>2026-05-02T13:44:47.559Z</time>
      </trkpt>
      <trkpt lat="45.495829" lon="9.112728">
        <ele>174.849280</ele>
        <time>2026-05-02T13:44:49.552Z</time>
      </trkpt>
      <trkpt lat="45.495781" lon="9.112907">
        <ele>174.803918</ele>
        <time>2026-05-02T13:44:52.546Z</time>
      </trkpt>
      <trkpt lat="45.495727" lon="9.113078">
        <ele>174.759526</ele>
        <time>2026-05-02T13:44:55.552Z</time>
      </trkpt>
      <trkpt lat="45.495658" lon="9.113224">
        <ele>174.717849</ele>
        <time>2026-05-02T13:44:58.550Z</time>
      </trkpt>
      <trkpt lat="45.495574" lon="9.113350">
        <ele>174.676692</ele>
        <time>2026-05-02T13:45:01.549Z</time>
      </trkpt>
      <trkpt lat="45.495482" lon="9.113488">
        <ele>174.631615</ele>
        <time>2026-05-02T13:45:04.545Z</time>
      </trkpt>
      <trkpt lat="45.495393" lon="9.113625">
        <ele>174.587403</ele>
        <time>2026-05-02T13:45:07.545Z</time>
      </trkpt>
      <trkpt lat="45.495340" lon="9.113731">
        <ele>174.556585</ele>
        <time>2026-05-02T13:45:09.547Z</time>
      </trkpt>
      <trkpt lat="45.495279" lon="9.113827">
        <ele>174.525917</ele>
        <time>2026-05-02T13:45:11.549Z</time>
      </trkpt>
      <trkpt lat="45.495171" lon="9.113937">
        <ele>174.481109</ele>
        <time>2026-05-02T13:45:14.549Z</time>
      </trkpt>
      <trkpt lat="45.495095" lon="9.114020">
        <ele>174.448790</ele>
        <time>2026-05-02T13:45:16.556Z</time>
      </trkpt>
      <trkpt lat="45.495015" lon="9.114092">
        <ele>174.416850</ele>
        <time>2026-05-02T13:45:18.549Z</time>
      </trkpt>
      <trkpt lat="45.494924" lon="9.114138">
        <ele>174.384251</ele>
        <time>2026-05-02T13:45:20.548Z</time>
      </trkpt>
      <trkpt lat="45.494833" lon="9.114172">
        <ele>174.360742</ele>
        <time>2026-05-02T13:45:22.548Z</time>
      </trkpt>
      <trkpt lat="45.494749" lon="9.114222">
        <ele>174.349919</ele>
        <time>2026-05-02T13:45:24.556Z</time>
      </trkpt>
      <trkpt lat="45.494663" lon="9.114290">
        <ele>174.338226</ele>
        <time>2026-05-02T13:45:26.558Z</time>
      </trkpt>
      <trkpt lat="45.494573" lon="9.114367">
        <ele>174.325747</ele>
        <time>2026-05-02T13:45:28.548Z</time>
      </trkpt>
      <trkpt lat="45.494493" lon="9.114450">
        <ele>174.313984</ele>
        <time>2026-05-02T13:45:30.555Z</time>
      </trkpt>
      <trkpt lat="45.494430" lon="9.114554">
        <ele>174.302526</ele>
        <time>2026-05-02T13:45:32.555Z</time>
      </trkpt>
      <trkpt lat="45.494372" lon="9.114662">
        <ele>174.291185</ele>
        <time>2026-05-02T13:45:34.553Z</time>
      </trkpt>
      <trkpt lat="45.494322" lon="9.114775">
        <ele>174.280046</ele>
        <time>2026-05-02T13:45:36.548Z</time>
      </trkpt>
      <trkpt lat="45.494276" lon="9.114894">
        <ele>174.268719</ele>
        <time>2026-05-02T13:45:38.548Z</time>
      </trkpt>
      <trkpt lat="45.494214" lon="9.114997">
        <ele>174.257402</ele>
        <time>2026-05-02T13:45:40.546Z</time>
      </trkpt>
      <trkpt lat="45.494150" lon="9.115095">
        <ele>174.246237</ele>
        <time>2026-05-02T13:45:42.553Z</time>
      </trkpt>
      <trkpt lat="45.494090" lon="9.115192">
        <ele>174.235454</ele>
        <time>2026-05-02T13:45:44.548Z</time>
      </trkpt>
      <trkpt lat="45.494008" lon="9.115321">
        <ele>174.220938</ele>
        <time>2026-05-02T13:45:47.545Z</time>
      </trkpt>
      <trkpt lat="45.493933" lon="9.115443">
        <ele>174.207411</ele>
        <time>2026-05-02T13:45:50.544Z</time>
      </trkpt>
      <trkpt lat="45.493877" lon="9.115573">
        <ele>174.194692</ele>
        <time>2026-05-02T13:45:53.548Z</time>
      </trkpt>
      <trkpt lat="45.493924" lon="9.115723">
        <ele>174.180996</ele>
        <time>2026-05-02T13:45:56.557Z</time>
      </trkpt>
      <trkpt lat="45.494003" lon="9.115795">
        <ele>174.169849</ele>
        <time>2026-05-02T13:45:58.549Z</time>
      </trkpt>
      <trkpt lat="45.494081" lon="9.115868">
        <ele>174.158755</ele>
        <time>2026-05-02T13:46:00.546Z</time>
      </trkpt>
      <trkpt lat="45.494160" lon="9.115935">
        <ele>174.166636</ele>
        <time>2026-05-02T13:46:02.550Z</time>
      </trkpt>
      <trkpt lat="45.494238" lon="9.116008">
        <ele>174.214846</ele>
        <time>2026-05-02T13:46:04.555Z</time>
      </trkpt>
      <trkpt lat="45.494350" lon="9.116108">
        <ele>174.283128</ele>
        <time>2026-05-02T13:46:07.549Z</time>
      </trkpt>
      <trkpt lat="45.494458" lon="9.116202">
        <ele>174.348510</ele>
        <time>2026-05-02T13:46:10.547Z</time>
      </trkpt>
      <trkpt lat="45.494561" lon="9.116297">
        <ele>174.411895</ele>
        <time>2026-05-02T13:46:13.546Z</time>
      </trkpt>
      <trkpt lat="45.494661" lon="9.116380">
        <ele>174.471685</ele>
        <time>2026-05-02T13:46:16.546Z</time>
      </trkpt>
      <trkpt lat="45.494729" lon="9.116499">
        <ele>174.527302</ele>
        <time>2026-05-02T13:46:19.554Z</time>
      </trkpt>
      <trkpt lat="45.494753" lon="9.116664">
        <ele>174.588348</ele>
        <time>2026-05-02T13:46:22.546Z</time>
      </trkpt>
      <trkpt lat="45.494762" lon="9.116800">
        <ele>174.637834</ele>
        <time>2026-05-02T13:46:25.545Z</time>
      </trkpt>
      <trkpt lat="45.494836" lon="9.116914">
        <ele>174.694119</ele>
        <time>2026-05-02T13:46:29.546Z</time>
      </trkpt>
      <trkpt lat="45.494872" lon="9.117067">
        <ele>174.752583</ele>
        <time>2026-05-02T13:46:32.545Z</time>
      </trkpt>
      <trkpt lat="45.494900" lon="9.117235">
        <ele>174.815139</ele>
        <time>2026-05-02T13:46:35.545Z</time>
      </trkpt>
      <trkpt lat="45.494900" lon="9.117403">
        <ele>174.875998</ele>
        <time>2026-05-02T13:46:38.544Z</time>
      </trkpt>
      <trkpt lat="45.494883" lon="9.117580">
        <ele>174.940717</ele>
        <time>2026-05-02T13:46:41.542Z</time>
      </trkpt>
      <trkpt lat="45.494851" lon="9.117701">
        <ele>174.987566</ele>
        <time>2026-05-02T13:46:43.545Z</time>
      </trkpt>
      <trkpt lat="45.494810" lon="9.117876">
        <ele>175.054408</ele>
        <time>2026-05-02T13:46:46.541Z</time>
      </trkpt>
      <trkpt lat="45.494775" lon="9.117999">
        <ele>175.066614</ele>
        <time>2026-05-02T13:46:48.550Z</time>
      </trkpt>
      <trkpt lat="45.494738" lon="9.118129">
        <ele>175.033116</ele>
        <time>2026-05-02T13:46:50.548Z</time>
      </trkpt>
      <trkpt lat="45.494697" lon="9.118259">
        <ele>174.999082</ele>
        <time>2026-05-02T13:46:52.543Z</time>
      </trkpt>
      <trkpt lat="45.494655" lon="9.118379">
        <ele>174.967060</ele>
        <time>2026-05-02T13:46:54.550Z</time>
      </trkpt>
      <trkpt lat="45.494597" lon="9.118547">
        <ele>174.922350</ele>
        <time>2026-05-02T13:46:57.546Z</time>
      </trkpt>
      <trkpt lat="45.494538" lon="9.118709">
        <ele>174.878765</ele>
        <time>2026-05-02T13:47:00.550Z</time>
      </trkpt>
      <trkpt lat="45.494457" lon="9.118863">
        <ele>174.832799</ele>
        <time>2026-05-02T13:47:03.545Z</time>
      </trkpt>
      <trkpt lat="45.494387" lon="9.118962">
        <ele>174.799227</ele>
        <time>2026-05-02T13:47:05.546Z</time>
      </trkpt>
      <trkpt lat="45.494320" lon="9.119064">
        <ele>174.765854</ele>
        <time>2026-05-02T13:47:07.546Z</time>
      </trkpt>
      <trkpt lat="45.494257" lon="9.119161">
        <ele>174.734283</ele>
        <time>2026-05-02T13:47:09.549Z</time>
      </trkpt>
      <trkpt lat="45.494245" lon="9.119307">
        <ele>174.699187</ele>
        <time>2026-05-02T13:47:12.547Z</time>
      </trkpt>
      <trkpt lat="45.494335" lon="9.119410">
        <ele>174.659889</ele>
        <time>2026-05-02T13:47:15.543Z</time>
      </trkpt>
      <trkpt lat="45.494411" lon="9.119544">
        <ele>174.618736</ele>
        <time>2026-05-02T13:47:18.558Z</time>
      </trkpt>
      <trkpt lat="45.494421" lon="9.119703">
        <ele>174.580623</ele>
        <time>2026-05-02T13:47:21.546Z</time>
      </trkpt>
      <trkpt lat="45.494371" lon="9.119849">
        <ele>174.541829</ele>
        <time>2026-05-02T13:47:24.545Z</time>
      </trkpt>
      <trkpt lat="45.494297" lon="9.119990">
        <ele>174.499776</ele>
        <time>2026-05-02T13:47:27.545Z</time>
      </trkpt>
      <trkpt lat="45.494229" lon="9.120080">
        <ele>174.468296</ele>
        <time>2026-05-02T13:47:29.545Z</time>
      </trkpt>
      <trkpt lat="45.494161" lon="9.120165">
        <ele>174.478806</ele>
        <time>2026-05-02T13:47:31.544Z</time>
      </trkpt>
      <trkpt lat="45.494043" lon="9.120200">
        <ele>174.492815</ele>
        <time>2026-05-02T13:47:34.546Z</time>
      </trkpt>
      <trkpt lat="45.493968" lon="9.120302">
        <ele>174.504860</ele>
        <time>2026-05-02T13:47:37.556Z</time>
      </trkpt>
      <trkpt lat="45.493914" lon="9.120462">
        <ele>174.519330</ele>
        <time>2026-05-02T13:47:40.548Z</time>
      </trkpt>
      <trkpt lat="45.493880" lon="9.120582">
        <ele>174.529876</ele>
        <time>2026-05-02T13:47:42.545Z</time>
      </trkpt>
      <trkpt lat="45.493844" lon="9.120706">
        <ele>174.540812</ele>
        <time>2026-05-02T13:47:44.545Z</time>
      </trkpt>
      <trkpt lat="45.493819" lon="9.120837">
        <ele>174.551875</ele>
        <time>2026-05-02T13:47:46.544Z</time>
      </trkpt>
      <trkpt lat="45.493816" lon="9.120974">
        <ele>174.563043</ele>
        <time>2026-05-02T13:47:48.541Z</time>
      </trkpt>
      <trkpt lat="45.493823" lon="9.121115">
        <ele>174.574561</ele>
        <time>2026-05-02T13:47:50.549Z</time>
      </trkpt>
      <trkpt lat="45.493827" lon="9.121255">
        <ele>174.585978</ele>
        <time>2026-05-02T13:47:52.545Z</time>
      </trkpt>
      <trkpt lat="45.493843" lon="9.121384">
        <ele>174.596653</ele>
        <time>2026-05-02T13:47:54.548Z</time>
      </trkpt>
      <trkpt lat="45.493886" lon="9.121564">
        <ele>174.612148</ele>
        <time>2026-05-02T13:47:57.545Z</time>
      </trkpt>
      <trkpt lat="45.493904" lon="9.121690">
        <ele>174.622626</ele>
        <time>2026-05-02T13:47:59.546Z</time>
      </trkpt>
      <trkpt lat="45.493890" lon="9.121850">
        <ele>174.635764</ele>
        <time>2026-05-02T13:48:02.549Z</time>
      </trkpt>
      <trkpt lat="45.493846" lon="9.122000">
        <ele>174.649013</ele>
        <time>2026-05-02T13:48:05.546Z</time>
      </trkpt>
      <trkpt lat="45.493800" lon="9.122111">
        <ele>174.659520</ele>
        <time>2026-05-02T13:48:08.554Z</time>
      </trkpt>
      <trkpt lat="45.493762" lon="9.122264">
        <ele>174.672746</ele>
        <time>2026-05-02T13:48:13.544Z</time>
      </trkpt>
      <trkpt lat="45.493736" lon="9.122394">
        <ele>174.655794</ele>
        <time>2026-05-02T13:48:16.553Z</time>
      </trkpt>
      <trkpt lat="45.493674" lon="9.122508">
        <ele>174.616339</ele>
        <time>2026-05-02T13:48:19.554Z</time>
      </trkpt>
      <trkpt lat="45.493565" lon="9.122519">
        <ele>174.573712</ele>
        <time>2026-05-02T13:48:22.546Z</time>
      </trkpt>
      <trkpt lat="45.493474" lon="9.122536">
        <ele>174.537911</ele>
        <time>2026-05-02T13:48:25.552Z</time>
      </trkpt>
      <trkpt lat="45.493377" lon="9.122539">
        <ele>174.500063</ele>
        <time>2026-05-02T13:48:28.547Z</time>
      </trkpt>
      <trkpt lat="45.493278" lon="9.122534">
        <ele>174.461419</ele>
        <time>2026-05-02T13:48:31.544Z</time>
      </trkpt>
      <trkpt lat="45.493173" lon="9.122587">
        <ele>174.417971</ele>
        <time>2026-05-02T13:48:34.551Z</time>
      </trkpt>
      <trkpt lat="45.493091" lon="9.122729">
        <ele>174.367662</ele>
        <time>2026-05-02T13:48:37.551Z</time>
      </trkpt>
      <trkpt lat="45.493036" lon="9.122895">
        <ele>174.317454</ele>
        <time>2026-05-02T13:48:40.549Z</time>
      </trkpt>
      <trkpt lat="45.492996" lon="9.123026">
        <ele>174.278380</ele>
        <time>2026-05-02T13:48:42.545Z</time>
      </trkpt>
      <trkpt lat="45.492937" lon="9.123140">
        <ele>174.239631</ele>
        <time>2026-05-02T13:48:44.547Z</time>
      </trkpt>
      <trkpt lat="45.492867" lon="9.123227">
        <ele>174.203415</ele>
        <time>2026-05-02T13:48:46.544Z</time>
      </trkpt>
      <trkpt lat="45.492780" lon="9.123365">
        <ele>174.152662</ele>
        <time>2026-05-02T13:48:49.548Z</time>
      </trkpt>
      <trkpt lat="45.492704" lon="9.123509">
        <ele>174.103371</ele>
        <time>2026-05-02T13:48:52.545Z</time>
      </trkpt>
      <trkpt lat="45.492620" lon="9.123660">
        <ele>174.050658</ele>
        <time>2026-05-02T13:48:55.548Z</time>
      </trkpt>
      <trkpt lat="45.492561" lon="9.123762">
        <ele>174.014495</ele>
        <time>2026-05-02T13:48:57.553Z</time>
      </trkpt>
      <trkpt lat="45.492503" lon="9.123871">
        <ele>173.977074</ele>
        <time>2026-05-02T13:48:59.549Z</time>
      </trkpt>
      <trkpt lat="45.492442" lon="9.123978">
        <ele>173.919065</ele>
        <time>2026-05-02T13:49:01.555Z</time>
      </trkpt>
      <trkpt lat="45.492373" lon="9.124120">
        <ele>173.845434</ele>
        <time>2026-05-02T13:49:04.546Z</time>
      </trkpt>
      <trkpt lat="45.492380" lon="9.124280">
        <ele>173.777117</ele>
        <time>2026-05-02T13:49:07.546Z</time>
      </trkpt>
      <trkpt lat="45.492428" lon="9.124431">
        <ele>173.706460</ele>
        <time>2026-05-02T13:49:10.546Z</time>
      </trkpt>
      <trkpt lat="45.492359" lon="9.124548">
        <ele>173.641302</ele>
        <time>2026-05-02T13:49:15.546Z</time>
      </trkpt>
      <trkpt lat="45.492383" lon="9.124728">
        <ele>173.563218</ele>
        <time>2026-05-02T13:50:44.545Z</time>
      </trkpt>
      <trkpt lat="45.492394" lon="9.124855">
        <ele>173.508684</ele>
        <time>2026-05-02T13:50:49.542Z</time>
      </trkpt>
      <trkpt lat="45.492384" lon="9.124988">
        <ele>173.451680</ele>
        <time>2026-05-02T13:50:53.547Z</time>
      </trkpt>
      <trkpt lat="45.492387" lon="9.125126">
        <ele>173.392842</ele>
        <time>2026-05-02T13:50:56.545Z</time>
      </trkpt>
      <trkpt lat="45.492381" lon="9.125262">
        <ele>173.334770</ele>
        <time>2026-05-02T13:50:59.545Z</time>
      </trkpt>
      <trkpt lat="45.492371" lon="9.125393">
        <ele>173.278613</ele>
        <time>2026-05-02T13:51:02.553Z</time>
      </trkpt>
      <trkpt lat="45.492374" lon="9.125526">
        <ele>173.221905</ele>
        <time>2026-05-02T13:51:05.545Z</time>
      </trkpt>
      <trkpt lat="45.492383" lon="9.125684">
        <ele>173.154350</ele>
        <time>2026-05-02T13:51:08.536Z</time>
      </trkpt>
      <trkpt lat="45.492384" lon="9.125857">
        <ele>173.080623</ele>
        <time>2026-05-02T13:51:11.544Z</time>
      </trkpt>
      <trkpt lat="45.492382" lon="9.126015">
        <ele>173.013279</ele>
        <time>2026-05-02T13:51:14.542Z</time>
      </trkpt>
      <trkpt lat="45.492391" lon="9.126164">
        <ele>172.949546</ele>
        <time>2026-05-02T13:51:17.541Z</time>
      </trkpt>
      <trkpt lat="45.492401" lon="9.126333">
        <ele>172.884894</ele>
        <time>2026-05-02T13:51:20.545Z</time>
      </trkpt>
      <trkpt lat="45.492405" lon="9.126506">
        <ele>172.923749</ele>
        <time>2026-05-02T13:51:23.545Z</time>
      </trkpt>
      <trkpt lat="45.492403" lon="9.126685">
        <ele>172.963934</ele>
        <time>2026-05-02T13:51:26.549Z</time>
      </trkpt>
      <trkpt lat="45.492397" lon="9.126851">
        <ele>173.001246</ele>
        <time>2026-05-02T13:51:29.544Z</time>
      </trkpt>
      <trkpt lat="45.492399" lon="9.127027">
        <ele>173.040758</ele>
        <time>2026-05-02T13:51:32.544Z</time>
      </trkpt>
      <trkpt lat="45.492403" lon="9.127211">
        <ele>173.082081</ele>
        <time>2026-05-02T13:51:35.545Z</time>
      </trkpt>
      <trkpt lat="45.492416" lon="9.127392">
        <ele>173.122923</ele>
        <time>2026-05-02T13:51:38.555Z</time>
      </trkpt>
      <trkpt lat="45.492423" lon="9.127559">
        <ele>173.160477</ele>
        <time>2026-05-02T13:51:41.547Z</time>
      </trkpt>
      <trkpt lat="45.492422" lon="9.127732">
        <ele>173.199312</ele>
        <time>2026-05-02T13:51:44.546Z</time>
      </trkpt>
      <trkpt lat="45.492420" lon="9.127906">
        <ele>173.238375</ele>
        <time>2026-05-02T13:51:47.545Z</time>
      </trkpt>
      <trkpt lat="45.492418" lon="9.128064">
        <ele>173.273847</ele>
        <time>2026-05-02T13:51:50.548Z</time>
      </trkpt>
      <trkpt lat="45.492419" lon="9.128229">
        <ele>173.310886</ele>
        <time>2026-05-02T13:51:53.551Z</time>
      </trkpt>
      <trkpt lat="45.492430" lon="9.128397">
        <ele>173.348762</ele>
        <time>2026-05-02T13:51:56.545Z</time>
      </trkpt>
      <trkpt lat="45.492436" lon="9.128569">
        <ele>173.387419</ele>
        <time>2026-05-02T13:51:59.546Z</time>
      </trkpt>
      <trkpt lat="45.492436" lon="9.128723">
        <ele>173.421987</ele>
        <time>2026-05-02T13:52:02.551Z</time>
      </trkpt>
      <trkpt lat="45.492448" lon="9.128854">
        <ele>173.451643</ele>
        <time>2026-05-02T13:52:05.546Z</time>
      </trkpt>
      <trkpt lat="45.492466" lon="9.128984">
        <ele>173.565331</ele>
        <time>2026-05-02T13:52:08.551Z</time>
      </trkpt>
      <trkpt lat="45.492476" lon="9.129124">
        <ele>173.711349</ele>
        <time>2026-05-02T13:52:11.550Z</time>
      </trkpt>
      <trkpt lat="45.492488" lon="9.129285">
        <ele>173.879347</ele>
        <time>2026-05-02T13:52:15.542Z</time>
      </trkpt>
      <trkpt lat="45.492553" lon="9.129418">
        <ele>174.047577</ele>
        <time>2026-05-02T13:52:20.542Z</time>
      </trkpt>
      <trkpt lat="45.492622" lon="9.129510">
        <ele>174.187376</ele>
        <time>2026-05-02T13:52:24.548Z</time>
      </trkpt>
      <trkpt lat="45.492656" lon="9.129804">
        <ele>174.496557</ele>
        <time>2026-05-02T13:52:47.552Z</time>
      </trkpt>
      <trkpt lat="45.492673" lon="9.129969">
        <ele>174.669602</ele>
        <time>2026-05-02T13:52:51.544Z</time>
      </trkpt>
      <trkpt lat="45.492686" lon="9.130127">
        <ele>174.834669</ele>
        <time>2026-05-02T13:52:55.547Z</time>
      </trkpt>
      <trkpt lat="45.492709" lon="9.130251">
        <ele>174.967761</ele>
        <time>2026-05-02T13:52:59.545Z</time>
      </trkpt>
      <trkpt lat="45.492736" lon="9.130403">
        <ele>175.130462</ele>
        <time>2026-05-02T13:53:06.550Z</time>
      </trkpt>
      <trkpt lat="45.492776" lon="9.130527">
        <ele>175.272094</ele>
        <time>2026-05-02T13:53:09.550Z</time>
      </trkpt>
      <trkpt lat="45.492815" lon="9.130665">
        <ele>175.426483</ele>
        <time>2026-05-02T13:53:12.548Z</time>
      </trkpt>
      <trkpt lat="45.492858" lon="9.130806">
        <ele>175.586031</ele>
        <time>2026-05-02T13:53:15.544Z</time>
      </trkpt>
      <trkpt lat="45.492899" lon="9.130952">
        <ele>175.749225</ele>
        <time>2026-05-02T13:53:18.549Z</time>
      </trkpt>
      <trkpt lat="45.492947" lon="9.131095">
        <ele>175.913736</ele>
        <time>2026-05-02T13:53:21.545Z</time>
      </trkpt>
      <trkpt lat="45.492987" lon="9.131233">
        <ele>176.068683</ele>
        <time>2026-05-02T13:53:24.541Z</time>
      </trkpt>
      <trkpt lat="45.493018" lon="9.131361">
        <ele>176.224404</ele>
        <time>2026-05-02T13:53:27.545Z</time>
      </trkpt>
      <trkpt lat="45.493049" lon="9.131499">
        <ele>176.400551</ele>
        <time>2026-05-02T13:53:30.549Z</time>
      </trkpt>
      <trkpt lat="45.493080" lon="9.131647">
        <ele>176.588310</ele>
        <time>2026-05-02T13:53:33.546Z</time>
      </trkpt>
      <trkpt lat="45.493115" lon="9.131798">
        <ele>176.781631</ele>
        <time>2026-05-02T13:53:36.546Z</time>
      </trkpt>
      <trkpt lat="45.493145" lon="9.131950">
        <ele>176.973576</ele>
        <time>2026-05-02T13:53:39.546Z</time>
      </trkpt>
      <trkpt lat="45.493178" lon="9.132095">
        <ele>177.158886</ele>
        <time>2026-05-02T13:53:42.546Z</time>
      </trkpt>
      <trkpt lat="45.493207" lon="9.132240">
        <ele>177.342172</ele>
        <time>2026-05-02T13:53:45.544Z</time>
      </trkpt>
      <trkpt lat="45.493244" lon="9.132382">
        <ele>177.526317</ele>
        <time>2026-05-02T13:53:48.544Z</time>
      </trkpt>
      <trkpt lat="45.493278" lon="9.132529">
        <ele>177.714476</ele>
        <time>2026-05-02T13:53:51.547Z</time>
      </trkpt>
      <trkpt lat="45.493294" lon="9.132677">
        <ele>177.896502</ele>
        <time>2026-05-02T13:53:54.551Z</time>
      </trkpt>
      <trkpt lat="45.493295" lon="9.132845">
        <ele>178.100719</ele>
        <time>2026-05-02T13:53:57.547Z</time>
      </trkpt>
      <trkpt lat="45.493285" lon="9.133019">
        <ele>178.312932</ele>
        <time>2026-05-02T13:54:00.544Z</time>
      </trkpt>
      <trkpt lat="45.493247" lon="9.133174">
        <ele>178.512530</ele>
        <time>2026-05-02T13:54:03.552Z</time>
      </trkpt>
      <trkpt lat="45.493197" lon="9.133315">
        <ele>178.704603</ele>
        <time>2026-05-02T13:54:06.549Z</time>
      </trkpt>
      <trkpt lat="45.493154" lon="9.133444">
        <ele>178.878232</ele>
        <time>2026-05-02T13:54:09.549Z</time>
      </trkpt>
      <trkpt lat="45.493163" lon="9.133591">
        <ele>179.057597</ele>
        <time>2026-05-02T13:54:13.546Z</time>
      </trkpt>
      <trkpt lat="45.493242" lon="9.133657">
        <ele>179.216347</ele>
        <time>2026-05-02T13:54:21.554Z</time>
      </trkpt>
      <trkpt lat="45.493322" lon="9.133765">
        <ele>178.895512</ele>
        <time>2026-05-02T13:54:26.542Z</time>
      </trkpt>
      <trkpt lat="45.493409" lon="9.133840">
        <ele>178.534504</ele>
        <time>2026-05-02T13:54:29.545Z</time>
      </trkpt>
      <trkpt lat="45.493502" lon="9.133918">
        <ele>178.151367</ele>
        <time>2026-05-02T13:54:32.546Z</time>
      </trkpt>
      <trkpt lat="45.493598" lon="9.133994">
        <ele>177.761449</ele>
        <time>2026-05-02T13:54:35.553Z</time>
      </trkpt>
      <trkpt lat="45.493683" lon="9.134057">
        <ele>177.421265</ele>
        <time>2026-05-02T13:54:38.544Z</time>
      </trkpt>
      <trkpt lat="45.493733" lon="9.134172">
        <ele>177.084374</ele>
        <time>2026-05-02T13:54:44.546Z</time>
      </trkpt>
      <trkpt lat="45.493663" lon="9.134309">
        <ele>176.662325</ele>
        <time>2026-05-02T13:54:48.550Z</time>
      </trkpt>
      <trkpt lat="45.493610" lon="9.134438">
        <ele>176.290082</ele>
        <time>2026-05-02T13:54:51.550Z</time>
      </trkpt>
      <trkpt lat="45.493640" lon="9.134280">
        <ele>175.882566</ele>
        <time>2026-05-02T13:55:00.546Z</time>
      </trkpt>
      <trkpt lat="45.493701" lon="9.134124">
        <ele>175.437866</ele>
        <time>2026-05-02T13:55:03.544Z</time>
      </trkpt>
      <trkpt lat="45.493764" lon="9.133973">
        <ele>175.000405</ele>
        <time>2026-05-02T13:55:06.548Z</time>
      </trkpt>
      <trkpt lat="45.493823" lon="9.133833">
        <ele>174.593737</ele>
        <time>2026-05-02T13:55:09.545Z</time>
      </trkpt>
      <trkpt lat="45.493870" lon="9.133711">
        <ele>174.247173</ele>
        <time>2026-05-02T13:55:12.554Z</time>
      </trkpt>
      <trkpt lat="45.493854" lon="9.133837">
        <ele>173.928391</ele>
        <time>2026-05-02T13:55:18.551Z</time>
      </trkpt>
      <trkpt lat="45.493798" lon="9.133966">
        <ele>173.550650</ele>
        <time>2026-05-02T13:55:21.545Z</time>
      </trkpt>
      <trkpt lat="45.493791" lon="9.134113">
        <ele>173.183850</ele>
        <time>2026-05-02T13:55:25.547Z</time>
      </trkpt>
      <trkpt lat="45.493779" lon="9.134272">
        <ele>172.839426</ele>
        <time>2026-05-02T13:55:31.547Z</time>
      </trkpt>
      <trkpt lat="45.493710" lon="9.134399">
        <ele>172.765170</ele>
        <time>2026-05-02T13:55:34.546Z</time>
      </trkpt>
      <trkpt lat="45.493647" lon="9.134548">
        <ele>172.684754</ele>
        <time>2026-05-02T13:55:37.547Z</time>
      </trkpt>
      <trkpt lat="45.493580" lon="9.134701">
        <ele>172.601384</ele>
        <time>2026-05-02T13:55:40.543Z</time>
      </trkpt>
      <trkpt lat="45.493516" lon="9.134833">
        <ele>172.527211</ele>
        <time>2026-05-02T13:55:43.550Z</time>
      </trkpt>
      <trkpt lat="45.493448" lon="9.134948">
        <ele>172.457682</ele>
        <time>2026-05-02T13:55:46.551Z</time>
      </trkpt>
      <trkpt lat="45.493347" lon="9.134987">
        <ele>172.388700</ele>
        <time>2026-05-02T13:55:49.549Z</time>
      </trkpt>
      <trkpt lat="45.493275" lon="9.135101">
        <ele>172.317785</ele>
        <time>2026-05-02T13:55:53.539Z</time>
      </trkpt>
      <trkpt lat="45.493226" lon="9.135222">
        <ele>172.253206</ele>
        <time>2026-05-02T13:55:59.545Z</time>
      </trkpt>
      <trkpt lat="45.493161" lon="9.135347">
        <ele>172.181279</ele>
        <time>2026-05-02T13:56:04.543Z</time>
      </trkpt>
      <trkpt lat="45.493117" lon="9.135478">
        <ele>172.114147</ele>
        <time>2026-05-02T13:56:07.541Z</time>
      </trkpt>
      <trkpt lat="45.493062" lon="9.135625">
        <ele>172.037141</ele>
        <time>2026-05-02T13:56:10.544Z</time>
      </trkpt>
      <trkpt lat="45.493012" lon="9.135781">
        <ele>171.957867</ele>
        <time>2026-05-02T13:56:13.542Z</time>
      </trkpt>
      <trkpt lat="45.492992" lon="9.135949">
        <ele>171.879115</ele>
        <time>2026-05-02T13:56:16.544Z</time>
      </trkpt>
      <trkpt lat="45.492978" lon="9.136122">
        <ele>171.798633</ele>
        <time>2026-05-02T13:56:19.544Z</time>
      </trkpt>
      <trkpt lat="45.492965" lon="9.136294">
        <ele>171.718683</ele>
        <time>2026-05-02T13:56:22.545Z</time>
      </trkpt>
      <trkpt lat="45.492983" lon="9.136444">
        <ele>171.647686</ele>
        <time>2026-05-02T13:56:25.541Z</time>
      </trkpt>
      <trkpt lat="45.493013" lon="9.136594">
        <ele>171.572855</ele>
        <time>2026-05-02T13:56:28.544Z</time>
      </trkpt>
      <trkpt lat="45.493048" lon="9.136746">
        <ele>171.496103</ele>
        <time>2026-05-02T13:56:31.545Z</time>
      </trkpt>
      <trkpt lat="45.493101" lon="9.136884">
        <ele>171.420616</ele>
        <time>2026-05-02T13:56:34.550Z</time>
      </trkpt>
      <trkpt lat="45.493128" lon="9.137024">
        <ele>171.350958</ele>
        <time>2026-05-02T13:56:37.544Z</time>
      </trkpt>
      <trkpt lat="45.493073" lon="9.137134">
        <ele>171.286140</ele>
        <time>2026-05-02T13:56:40.549Z</time>
      </trkpt>
      <trkpt lat="45.492958" lon="9.137180">
        <ele>171.204404</ele>
        <time>2026-05-02T13:56:43.545Z</time>
      </trkpt>
      <trkpt lat="45.492845" lon="9.137258">
        <ele>171.118494</ele>
        <time>2026-05-02T13:56:46.539Z</time>
      </trkpt>
      <trkpt lat="45.492788" lon="9.137428">
        <ele>171.028091</ele>
        <time>2026-05-02T13:56:49.547Z</time>
      </trkpt>
      <trkpt lat="45.492751" lon="9.137596">
        <ele>170.943612</ele>
        <time>2026-05-02T13:56:52.547Z</time>
      </trkpt>
      <trkpt lat="45.492692" lon="9.137749">
        <ele>170.859840</ele>
        <time>2026-05-02T13:56:55.548Z</time>
      </trkpt>
      <trkpt lat="45.492635" lon="9.137850">
        <ele>170.797636</ele>
        <time>2026-05-02T13:56:57.547Z</time>
      </trkpt>
      <trkpt lat="45.492578" lon="9.137954">
        <ele>170.734305</ele>
        <time>2026-05-02T13:56:59.547Z</time>
      </trkpt>
      <trkpt lat="45.492499" lon="9.138084">
        <ele>170.651768</ele>
        <time>2026-05-02T13:57:02.553Z</time>
      </trkpt>
      <trkpt lat="45.492419" lon="9.138208">
        <ele>170.570922</ele>
        <time>2026-05-02T13:57:05.551Z</time>
      </trkpt>
      <trkpt lat="45.492335" lon="9.138333">
        <ele>170.487852</ele>
        <time>2026-05-02T13:57:08.546Z</time>
      </trkpt>
      <trkpt lat="45.492246" lon="9.138458">
        <ele>170.446458</ele>
        <time>2026-05-02T13:57:11.544Z</time>
      </trkpt>
      <trkpt lat="45.492147" lon="9.138573">
        <ele>170.477272</ele>
        <time>2026-05-02T13:57:14.541Z</time>
      </trkpt>
      <trkpt lat="45.492054" lon="9.138681">
        <ele>170.506216</ele>
        <time>2026-05-02T13:57:17.545Z</time>
      </trkpt>
      <trkpt lat="45.491960" lon="9.138787">
        <ele>170.535136</ele>
        <time>2026-05-02T13:57:20.555Z</time>
      </trkpt>
      <trkpt lat="45.491866" lon="9.138897">
        <ele>170.564480</ele>
        <time>2026-05-02T13:57:23.552Z</time>
      </trkpt>
      <trkpt lat="45.491770" lon="9.138992">
        <ele>170.592679</ele>
        <time>2026-05-02T13:57:26.542Z</time>
      </trkpt>
      <trkpt lat="45.491680" lon="9.139088">
        <ele>170.619802</ele>
        <time>2026-05-02T13:57:29.548Z</time>
      </trkpt>
      <trkpt lat="45.491594" lon="9.139176">
        <ele>170.645347</ele>
        <time>2026-05-02T13:57:32.552Z</time>
      </trkpt>
      <trkpt lat="45.491472" lon="9.139242">
        <ele>170.676839</ele>
        <time>2026-05-02T13:57:35.545Z</time>
      </trkpt>
      <trkpt lat="45.491349" lon="9.139320">
        <ele>170.709326</ele>
        <time>2026-05-02T13:57:38.546Z</time>
      </trkpt>
      <trkpt lat="45.491234" lon="9.139387">
        <ele>170.739308</ele>
        <time>2026-05-02T13:57:41.550Z</time>
      </trkpt>
      <trkpt lat="45.491139" lon="9.139442">
        <ele>170.764053</ele>
        <time>2026-05-02T13:57:44.550Z</time>
      </trkpt>
      <trkpt lat="45.491068" lon="9.139577">
        <ele>170.792608</ele>
        <time>2026-05-02T13:57:47.544Z</time>
      </trkpt>
      <trkpt lat="45.491008" lon="9.139743">
        <ele>170.824208</ele>
        <time>2026-05-02T13:57:50.549Z</time>
      </trkpt>
      <trkpt lat="45.490940" lon="9.139904">
        <ele>170.856010</ele>
        <time>2026-05-02T13:57:53.543Z</time>
      </trkpt>
      <trkpt lat="45.490914" lon="9.140068">
        <ele>170.925199</ele>
        <time>2026-05-02T13:57:56.549Z</time>
      </trkpt>
      <trkpt lat="45.490925" lon="9.140237">
        <ele>171.029975</ele>
        <time>2026-05-02T13:57:59.549Z</time>
      </trkpt>
      <trkpt lat="45.490980" lon="9.140372">
        <ele>171.126365</ele>
        <time>2026-05-02T13:58:02.553Z</time>
      </trkpt>
      <trkpt lat="45.490996" lon="9.140526">
        <ele>171.222471</ele>
        <time>2026-05-02T13:58:05.551Z</time>
      </trkpt>
      <trkpt lat="45.490998" lon="9.140695">
        <ele>171.326813</ele>
        <time>2026-05-02T13:58:08.554Z</time>
      </trkpt>
      <trkpt lat="45.491011" lon="9.140879">
        <ele>171.440976</ele>
        <time>2026-05-02T13:58:11.549Z</time>
      </trkpt>
      <trkpt lat="45.491059" lon="9.141056">
        <ele>171.558132</ele>
        <time>2026-05-02T13:58:14.542Z</time>
      </trkpt>
      <trkpt lat="45.491088" lon="9.141179">
        <ele>171.638242</ele>
        <time>2026-05-02T13:58:16.548Z</time>
      </trkpt>
      <trkpt lat="45.491115" lon="9.141301">
        <ele>171.717219</ele>
        <time>2026-05-02T13:58:18.540Z</time>
      </trkpt>
      <trkpt lat="45.491145" lon="9.141478">
        <ele>171.829633</ele>
        <time>2026-05-02T13:58:21.541Z</time>
      </trkpt>
      <trkpt lat="45.491178" lon="9.141654">
        <ele>171.942101</ele>
        <time>2026-05-02T13:58:24.544Z</time>
      </trkpt>
      <trkpt lat="45.491210" lon="9.141833">
        <ele>172.056137</ele>
        <time>2026-05-02T13:58:27.552Z</time>
      </trkpt>
      <trkpt lat="45.491244" lon="9.142010">
        <ele>172.169431</ele>
        <time>2026-05-02T13:58:30.543Z</time>
      </trkpt>
      <trkpt lat="45.491278" lon="9.142177">
        <ele>172.276783</ele>
        <time>2026-05-02T13:58:33.543Z</time>
      </trkpt>
      <trkpt lat="45.491311" lon="9.142322">
        <ele>172.370893</ele>
        <time>2026-05-02T13:58:36.544Z</time>
      </trkpt>
      <trkpt lat="45.491328" lon="9.142470">
        <ele>172.450620</ele>
        <time>2026-05-02T13:58:39.557Z</time>
      </trkpt>
      <trkpt lat="45.491262" lon="9.142607">
        <ele>172.427689</ele>
        <time>2026-05-02T13:58:42.546Z</time>
      </trkpt>
      <trkpt lat="45.491163" lon="9.142734">
        <ele>172.401488</ele>
        <time>2026-05-02T13:58:45.556Z</time>
      </trkpt>
      <trkpt lat="45.491093" lon="9.142825">
        <ele>172.382851</ele>
        <time>2026-05-02T13:58:47.548Z</time>
      </trkpt>
      <trkpt lat="45.491022" lon="9.142913">
        <ele>172.364342</ele>
        <time>2026-05-02T13:58:49.548Z</time>
      </trkpt>
      <trkpt lat="45.490948" lon="9.143006">
        <ele>172.344934</ele>
        <time>2026-05-02T13:58:51.556Z</time>
      </trkpt>
      <trkpt lat="45.490875" lon="9.143104">
        <ele>172.325208</ele>
        <time>2026-05-02T13:58:53.549Z</time>
      </trkpt>
      <trkpt lat="45.490801" lon="9.143199">
        <ele>172.305617</ele>
        <time>2026-05-02T13:58:55.540Z</time>
      </trkpt>
      <trkpt lat="45.490708" lon="9.143325">
        <ele>172.280377</ele>
        <time>2026-05-02T13:58:58.544Z</time>
      </trkpt>
      <trkpt lat="45.490623" lon="9.143437">
        <ele>172.257606</ele>
        <time>2026-05-02T13:59:01.554Z</time>
      </trkpt>
      <trkpt lat="45.490529" lon="9.143448">
        <ele>172.239046</ele>
        <time>2026-05-02T13:59:04.539Z</time>
      </trkpt>
      <trkpt lat="45.490443" lon="9.143371">
        <ele>172.219065</ele>
        <time>2026-05-02T13:59:07.545Z</time>
      </trkpt>
      <trkpt lat="45.490319" lon="9.143391">
        <ele>172.194508</ele>
        <time>2026-05-02T13:59:10.547Z</time>
      </trkpt>
      <trkpt lat="45.490221" lon="9.143504">
        <ele>172.169710</ele>
        <time>2026-05-02T13:59:13.552Z</time>
      </trkpt>
      <trkpt lat="45.490160" lon="9.143599">
        <ele>172.151938</ele>
        <time>2026-05-02T13:59:15.540Z</time>
      </trkpt>
      <trkpt lat="45.490105" lon="9.143701">
        <ele>172.134186</ele>
        <time>2026-05-02T13:59:17.543Z</time>
      </trkpt>
      <trkpt lat="45.490045" lon="9.143797">
        <ele>172.116443</ele>
        <time>2026-05-02T13:59:19.544Z</time>
      </trkpt>
      <trkpt lat="45.489979" lon="9.143896">
        <ele>172.105430</ele>
        <time>2026-05-02T13:59:21.547Z</time>
      </trkpt>
      <trkpt lat="45.489908" lon="9.143981">
        <ele>172.187531</ele>
        <time>2026-05-02T13:59:23.550Z</time>
      </trkpt>
      <trkpt lat="45.489804" lon="9.144107">
        <ele>172.308389</ele>
        <time>2026-05-02T13:59:26.543Z</time>
      </trkpt>
      <trkpt lat="45.489735" lon="9.144196">
        <ele>172.390785</ele>
        <time>2026-05-02T13:59:28.544Z</time>
      </trkpt>
      <trkpt lat="45.489665" lon="9.144281">
        <ele>172.472209</ele>
        <time>2026-05-02T13:59:30.542Z</time>
      </trkpt>
      <trkpt lat="45.489595" lon="9.144362">
        <ele>172.552045</ele>
        <time>2026-05-02T13:59:32.548Z</time>
      </trkpt>
      <trkpt lat="45.489501" lon="9.144483">
        <ele>172.664193</ele>
        <time>2026-05-02T13:59:35.555Z</time>
      </trkpt>
      <trkpt lat="45.489422" lon="9.144594">
        <ele>172.762411</ele>
        <time>2026-05-02T13:59:38.543Z</time>
      </trkpt>
      <trkpt lat="45.489338" lon="9.144705">
        <ele>172.863832</ele>
        <time>2026-05-02T13:59:41.547Z</time>
      </trkpt>
      <trkpt lat="45.489240" lon="9.144812">
        <ele>172.973144</ele>
        <time>2026-05-02T13:59:44.540Z</time>
      </trkpt>
      <trkpt lat="45.489149" lon="9.144952">
        <ele>173.091692</ele>
        <time>2026-05-02T13:59:47.546Z</time>
      </trkpt>
      <trkpt lat="45.489062" lon="9.145083">
        <ele>173.203741</ele>
        <time>2026-05-02T13:59:50.546Z</time>
      </trkpt>
      <trkpt lat="45.488963" lon="9.145200">
        <ele>173.317615</ele>
        <time>2026-05-02T13:59:53.540Z</time>
      </trkpt>
      <trkpt lat="45.488872" lon="9.145324">
        <ele>173.429083</ele>
        <time>2026-05-02T13:59:56.545Z</time>
      </trkpt>
      <trkpt lat="45.488785" lon="9.145443">
        <ele>173.535846</ele>
        <time>2026-05-02T13:59:59.546Z</time>
      </trkpt>
      <trkpt lat="45.488705" lon="9.145533">
        <ele>173.626091</ele>
        <time>2026-05-02T14:00:02.543Z</time>
      </trkpt>
      <trkpt lat="45.488630" lon="9.145647">
        <ele>173.705298</ele>
        <time>2026-05-02T14:00:06.543Z</time>
      </trkpt>
      <trkpt lat="45.488613" lon="9.145789">
        <ele>173.743222</ele>
        <time>2026-05-02T14:00:10.543Z</time>
      </trkpt>
      <trkpt lat="45.488574" lon="9.145905">
        <ele>173.777090</ele>
        <time>2026-05-02T14:00:14.543Z</time>
      </trkpt>
      <trkpt lat="45.488481" lon="9.145927">
        <ele>173.812491</ele>
        <time>2026-05-02T14:00:18.548Z</time>
      </trkpt>
      <trkpt lat="45.488438" lon="9.145791">
        <ele>173.851767</ele>
        <time>2026-05-02T14:00:22.551Z</time>
      </trkpt>
      <trkpt lat="45.488443" lon="9.145656">
        <ele>173.887357</ele>
        <time>2026-05-02T14:00:25.549Z</time>
      </trkpt>
      <trkpt lat="45.488417" lon="9.145504">
        <ele>173.928547</ele>
        <time>2026-05-02T14:00:29.548Z</time>
      </trkpt>
      <trkpt lat="45.488339" lon="9.145427">
        <ele>173.964168</ele>
        <time>2026-05-02T14:00:33.541Z</time>
      </trkpt>
      <trkpt lat="45.488272" lon="9.145522">
        <ele>173.999644</ele>
        <time>2026-05-02T14:00:36.548Z</time>
      </trkpt>
      <trkpt lat="45.488176" lon="9.145605">
        <ele>174.041799</ele>
        <time>2026-05-02T14:00:40.541Z</time>
      </trkpt>
      <trkpt lat="45.488070" lon="9.145634">
        <ele>174.082330</ele>
        <time>2026-05-02T14:00:44.552Z</time>
      </trkpt>
      <trkpt lat="45.487958" lon="9.145619">
        <ele>174.124573</ele>
        <time>2026-05-02T14:00:48.541Z</time>
      </trkpt>
      <trkpt lat="45.487849" lon="9.145568">
        <ele>174.167651</ele>
        <time>2026-05-02T14:00:52.545Z</time>
      </trkpt>
      <trkpt lat="45.487746" lon="9.145520">
        <ele>174.208342</ele>
        <time>2026-05-02T14:00:56.553Z</time>
      </trkpt>
      <trkpt lat="45.487702" lon="9.145642">
        <ele>174.244461</ele>
        <time>2026-05-02T14:01:01.550Z</time>
      </trkpt>
      <trkpt lat="45.487729" lon="9.145804">
        <ele>174.288298</ele>
        <time>2026-05-02T14:01:05.546Z</time>
      </trkpt>
      <trkpt lat="45.487729" lon="9.145952">
        <ele>174.327261</ele>
        <time>2026-05-02T14:01:08.545Z</time>
      </trkpt>
      <trkpt lat="45.487701" lon="9.146101">
        <ele>174.369041</ele>
        <time>2026-05-02T14:01:11.544Z</time>
      </trkpt>
      <trkpt lat="45.487657" lon="9.146229">
        <ele>174.554632</ele>
        <time>2026-05-02T14:01:14.543Z</time>
      </trkpt>
      <trkpt lat="45.487590" lon="9.146345">
        <ele>174.750298</ele>
        <time>2026-05-02T14:01:17.542Z</time>
      </trkpt>
      <trkpt lat="45.487501" lon="9.146430">
        <ele>174.949193</ele>
        <time>2026-05-02T14:01:20.544Z</time>
      </trkpt>
      <trkpt lat="45.487404" lon="9.146471">
        <ele>175.137062</ele>
        <time>2026-05-02T14:01:23.544Z</time>
      </trkpt>
      <trkpt lat="45.487303" lon="9.146482">
        <ele>175.325162</ele>
        <time>2026-05-02T14:01:26.542Z</time>
      </trkpt>
      <trkpt lat="45.487206" lon="9.146453">
        <ele>175.509202</ele>
        <time>2026-05-02T14:01:29.547Z</time>
      </trkpt>
      <trkpt lat="45.487118" lon="9.146386">
        <ele>175.694438</ele>
        <time>2026-05-02T14:01:32.548Z</time>
      </trkpt>
      <trkpt lat="45.487041" lon="9.146291">
        <ele>175.883492</ele>
        <time>2026-05-02T14:01:35.547Z</time>
      </trkpt>
      <trkpt lat="45.486985" lon="9.146164">
        <ele>176.078813</ele>
        <time>2026-05-02T14:01:38.547Z</time>
      </trkpt>
      <trkpt lat="45.486959" lon="9.146028">
        <ele>176.262332</ele>
        <time>2026-05-02T14:01:41.548Z</time>
      </trkpt>
      <trkpt lat="45.486957" lon="9.145892">
        <ele>176.439426</ele>
        <time>2026-05-02T14:01:44.546Z</time>
      </trkpt>
      <trkpt lat="45.486980" lon="9.145758">
        <ele>176.619029</ele>
        <time>2026-05-02T14:01:47.539Z</time>
      </trkpt>
      <trkpt lat="45.487026" lon="9.145641">
        <ele>176.793665</ele>
        <time>2026-05-02T14:01:50.545Z</time>
      </trkpt>
      <trkpt lat="45.487090" lon="9.145545">
        <ele>176.966130</ele>
        <time>2026-05-02T14:01:53.539Z</time>
      </trkpt>
      <trkpt lat="45.487195" lon="9.145469">
        <ele>177.184779</ele>
        <time>2026-05-02T14:01:57.541Z</time>
      </trkpt>
      <trkpt lat="45.487283" lon="9.145442">
        <ele>177.351930</ele>
        <time>2026-05-02T14:02:00.543Z</time>
      </trkpt>
      <trkpt lat="45.487402" lon="9.145463">
        <ele>177.574595</ele>
        <time>2026-05-02T14:02:04.549Z</time>
      </trkpt>
      <trkpt lat="45.487483" lon="9.145521">
        <ele>177.776773</ele>
        <time>2026-05-02T14:02:07.544Z</time>
      </trkpt>
      <trkpt lat="45.487568" lon="9.145635">
        <ele>178.201393</ele>
        <time>2026-05-02T14:02:11.545Z</time>
      </trkpt>
      <trkpt lat="45.487614" lon="9.145782">
        <ele>178.612127</ele>
        <time>2026-05-02T14:02:15.541Z</time>
      </trkpt>
      <trkpt lat="45.487621" lon="9.145941">
        <ele>179.018610</ele>
        <time>2026-05-02T14:02:19.546Z</time>
      </trkpt>
      <trkpt lat="45.487586" lon="9.146097">
        <ele>179.436525</ele>
        <time>2026-05-02T14:02:23.555Z</time>
      </trkpt>
      <trkpt lat="45.487515" lon="9.146225">
        <ele>179.852975</ele>
        <time>2026-05-02T14:02:27.546Z</time>
      </trkpt>
      <trkpt lat="45.487417" lon="9.146300">
        <ele>180.257731</ele>
        <time>2026-05-02T14:02:31.554Z</time>
      </trkpt>
      <trkpt lat="45.487304" lon="9.146313">
        <ele>180.670322</ele>
        <time>2026-05-02T14:02:35.553Z</time>
      </trkpt>
      <trkpt lat="45.487198" lon="9.146265">
        <ele>181.075075</ele>
        <time>2026-05-02T14:02:39.541Z</time>
      </trkpt>
      <trkpt lat="45.487123" lon="9.146177">
        <ele>181.428515</ele>
        <time>2026-05-02T14:02:43.539Z</time>
      </trkpt>
      <trkpt lat="45.487081" lon="9.146060">
        <ele>181.763899</ele>
        <time>2026-05-02T14:02:47.542Z</time>
      </trkpt>
      <trkpt lat="45.487071" lon="9.145921">
        <ele>182.120419</ele>
        <time>2026-05-02T14:02:52.543Z</time>
      </trkpt>
      <trkpt lat="45.487097" lon="9.145780">
        <ele>182.492416</ele>
        <time>2026-05-02T14:02:58.549Z</time>
      </trkpt>
      <trkpt lat="45.487156" lon="9.145676">
        <ele>182.833767</ele>
        <time>2026-05-02T14:03:02.549Z</time>
      </trkpt>
      <trkpt lat="45.487242" lon="9.145614">
        <ele>183.184463</ele>
        <time>2026-05-02T14:03:06.549Z</time>
      </trkpt>
      <trkpt lat="45.487336" lon="9.145605">
        <ele>183.527339</ele>
        <time>2026-05-02T14:03:10.541Z</time>
      </trkpt>
      <trkpt lat="45.487423" lon="9.145653">
        <ele>183.866830</ele>
        <time>2026-05-02T14:03:14.542Z</time>
      </trkpt>
      <trkpt lat="45.487496" lon="9.145764">
        <ele>184.253783</ele>
        <time>2026-05-02T14:03:19.547Z</time>
      </trkpt>
      <trkpt lat="45.487516" lon="9.145892">
        <ele>184.285284</ele>
        <time>2026-05-02T14:03:24.548Z</time>
      </trkpt>
      <trkpt lat="45.487487" lon="9.146034">
        <ele>184.320812</ele>
        <time>2026-05-02T14:03:29.543Z</time>
      </trkpt>
      <trkpt lat="45.487408" lon="9.146136">
        <ele>184.357322</ele>
        <time>2026-05-02T14:03:34.543Z</time>
      </trkpt>
      <trkpt lat="45.487304" lon="9.146153">
        <ele>184.393190</ele>
        <time>2026-05-02T14:03:39.546Z</time>
      </trkpt>
      <trkpt lat="45.487220" lon="9.146086">
        <ele>184.426165</ele>
        <time>2026-05-02T14:03:44.546Z</time>
      </trkpt>
      <trkpt lat="45.487182" lon="9.145950">
        <ele>184.461333</ele>
        <time>2026-05-02T14:03:50.545Z</time>
      </trkpt>
      <trkpt lat="45.487216" lon="9.145818">
        <ele>184.495114</ele>
        <time>2026-05-02T14:03:56.549Z</time>
      </trkpt>
      <trkpt lat="45.487303" lon="9.145758">
        <ele>184.528225</ele>
        <time>2026-05-02T14:04:02.548Z</time>
      </trkpt>
      <trkpt lat="45.487391" lon="9.145828">
        <ele>184.562748</ele>
        <time>2026-05-02T14:04:09.548Z</time>
      </trkpt>
      <trkpt lat="45.487386" lon="9.145963">
        <ele>184.595222</ele>
        <time>2026-05-02T14:04:17.551Z</time>
      </trkpt>
      <trkpt lat="45.487229" lon="9.145942">
        <ele>184.649252</ele>
        <time>2026-05-02T14:08:52.540Z</time>
      </trkpt>
      <trkpt lat="45.487276" lon="9.146060">
        <ele>184.681852</ele>
        <time>2026-05-02T14:08:57.546Z</time>
      </trkpt>
      <trkpt lat="45.487378" lon="9.146065">
        <ele>184.716822</ele>
        <time>2026-05-02T14:09:02.549Z</time>
      </trkpt>
      <trkpt lat="45.487448" lon="9.145952">
        <ele>184.753044</ele>
        <time>2026-05-02T14:09:08.543Z</time>
      </trkpt>
      <trkpt lat="45.487441" lon="9.145804">
        <ele>184.788676</ele>
        <time>2026-05-02T14:09:13.544Z</time>
      </trkpt>
      <trkpt lat="45.487375" lon="9.145711">
        <ele>184.820464</ele>
        <time>2026-05-02T14:09:18.544Z</time>
      </trkpt>
      <trkpt lat="45.487273" lon="9.145682">
        <ele>184.856100</ele>
        <time>2026-05-02T14:09:23.560Z</time>
      </trkpt>
      <trkpt lat="45.487183" lon="9.145739">
        <ele>184.638892</ele>
        <time>2026-05-02T14:09:29.544Z</time>
      </trkpt>
      <trkpt lat="45.487127" lon="9.145850">
        <ele>184.257879</ele>
        <time>2026-05-02T14:09:33.545Z</time>
      </trkpt>
      <trkpt lat="45.487122" lon="9.145981">
        <ele>183.892354</ele>
        <time>2026-05-02T14:09:37.547Z</time>
      </trkpt>
      <trkpt lat="45.487158" lon="9.146113">
        <ele>183.497736</ele>
        <time>2026-05-02T14:09:41.541Z</time>
      </trkpt>
      <trkpt lat="45.487237" lon="9.146202">
        <ele>183.097667</ele>
        <time>2026-05-02T14:09:45.543Z</time>
      </trkpt>
      <trkpt lat="45.487338" lon="9.146233">
        <ele>182.687093</ele>
        <time>2026-05-02T14:09:49.543Z</time>
      </trkpt>
      <trkpt lat="45.487434" lon="9.146195">
        <ele>182.291159</ele>
        <time>2026-05-02T14:09:53.545Z</time>
      </trkpt>
      <trkpt lat="45.487514" lon="9.146113">
        <ele>181.899657</ele>
        <time>2026-05-02T14:09:58.538Z</time>
      </trkpt>
      <trkpt lat="45.487560" lon="9.145973">
        <ele>181.468886</ele>
        <time>2026-05-02T14:10:04.538Z</time>
      </trkpt>
      <trkpt lat="45.487563" lon="9.145841">
        <ele>181.100926</ele>
        <time>2026-05-02T14:10:08.541Z</time>
      </trkpt>
      <trkpt lat="45.487535" lon="9.145712">
        <ele>180.724685</ele>
        <time>2026-05-02T14:10:12.547Z</time>
      </trkpt>
      <trkpt lat="45.487464" lon="9.145596">
        <ele>180.295654</ele>
        <time>2026-05-02T14:10:16.546Z</time>
      </trkpt>
      <trkpt lat="45.487354" lon="9.145523">
        <ele>179.813503</ele>
        <time>2026-05-02T14:10:20.543Z</time>
      </trkpt>
      <trkpt lat="45.487261" lon="9.145526">
        <ele>179.443815</ele>
        <time>2026-05-02T14:10:23.541Z</time>
      </trkpt>
      <trkpt lat="45.487172" lon="9.145561">
        <ele>179.076921</ele>
        <time>2026-05-02T14:10:26.545Z</time>
      </trkpt>
      <trkpt lat="45.487096" lon="9.145636">
        <ele>178.709650</ele>
        <time>2026-05-02T14:10:29.542Z</time>
      </trkpt>
      <trkpt lat="45.487043" lon="9.145740">
        <ele>178.351426</ele>
        <time>2026-05-02T14:10:32.545Z</time>
      </trkpt>
      <trkpt lat="45.487012" lon="9.145890">
        <ele>177.915724</ele>
        <time>2026-05-02T14:10:36.546Z</time>
      </trkpt>
      <trkpt lat="45.487019" lon="9.146049">
        <ele>177.569237</ele>
        <time>2026-05-02T14:10:40.546Z</time>
      </trkpt>
      <trkpt lat="45.487054" lon="9.146178">
        <ele>177.333948</ele>
        <time>2026-05-02T14:10:43.544Z</time>
      </trkpt>
      <trkpt lat="45.487118" lon="9.146284">
        <ele>177.095991</ele>
        <time>2026-05-02T14:10:46.548Z</time>
      </trkpt>
      <trkpt lat="45.487199" lon="9.146357">
        <ele>176.863518</ele>
        <time>2026-05-02T14:10:49.543Z</time>
      </trkpt>
      <trkpt lat="45.487288" lon="9.146390">
        <ele>176.640401</ele>
        <time>2026-05-02T14:10:52.541Z</time>
      </trkpt>
      <trkpt lat="45.487378" lon="9.146391">
        <ele>176.422027</ele>
        <time>2026-05-02T14:10:55.544Z</time>
      </trkpt>
      <trkpt lat="45.487488" lon="9.146342">
        <ele>176.142422</ele>
        <time>2026-05-02T14:10:59.544Z</time>
      </trkpt>
      <trkpt lat="45.487567" lon="9.146267">
        <ele>175.912171</ele>
        <time>2026-05-02T14:11:02.541Z</time>
      </trkpt>
      <trkpt lat="45.487627" lon="9.146160">
        <ele>175.679106</ele>
        <time>2026-05-02T14:11:05.547Z</time>
      </trkpt>
      <trkpt lat="45.487668" lon="9.146026">
        <ele>175.430410</ele>
        <time>2026-05-02T14:11:08.536Z</time>
      </trkpt>
      <trkpt lat="45.487678" lon="9.145886">
        <ele>175.191039</ele>
        <time>2026-05-02T14:11:11.545Z</time>
      </trkpt>
      <trkpt lat="45.487667" lon="9.145742">
        <ele>174.944646</ele>
        <time>2026-05-02T14:11:14.545Z</time>
      </trkpt>
      <trkpt lat="45.487624" lon="9.145606">
        <ele>174.690873</ele>
        <time>2026-05-02T14:11:17.540Z</time>
      </trkpt>
      <trkpt lat="45.487552" lon="9.145487">
        <ele>174.423495</ele>
        <time>2026-05-02T14:11:20.546Z</time>
      </trkpt>
      <trkpt lat="45.487459" lon="9.145403">
        <ele>174.156415</ele>
        <time>2026-05-02T14:11:23.540Z</time>
      </trkpt>
      <trkpt lat="45.487351" lon="9.145361">
        <ele>173.884810</ele>
        <time>2026-05-02T14:11:26.544Z</time>
      </trkpt>
      <trkpt lat="45.487245" lon="9.145361">
        <ele>173.627622</ele>
        <time>2026-05-02T14:11:29.546Z</time>
      </trkpt>
      <trkpt lat="45.487149" lon="9.145398">
        <ele>173.386344</ele>
        <time>2026-05-02T14:11:32.544Z</time>
      </trkpt>
      <trkpt lat="45.487060" lon="9.145426">
        <ele>173.230382</ele>
        <time>2026-05-02T14:11:35.543Z</time>
      </trkpt>
      <trkpt lat="45.486858" lon="9.145514">
        <ele>172.891299</ele>
        <time>2026-05-02T14:14:48.543Z</time>
      </trkpt>
      <trkpt lat="45.486755" lon="9.145520">
        <ele>172.725803</ele>
        <time>2026-05-02T14:14:53.547Z</time>
      </trkpt>
      <trkpt lat="45.486811" lon="9.145624">
        <ele>172.578208</ele>
        <time>2026-05-02T14:15:53.543Z</time>
      </trkpt>
      <trkpt lat="45.486906" lon="9.145606">
        <ele>172.424353</ele>
        <time>2026-05-02T14:15:58.542Z</time>
      </trkpt>
      <trkpt lat="45.486893" lon="9.145736">
        <ele>172.276555</ele>
        <time>2026-05-02T14:16:06.545Z</time>
      </trkpt>
      <trkpt lat="45.486874" lon="9.145901">
        <ele>172.088356</ele>
        <time>2026-05-02T14:16:10.541Z</time>
      </trkpt>
      <trkpt lat="45.486894" lon="9.146051">
        <ele>171.916503</ele>
        <time>2026-05-02T14:16:13.545Z</time>
      </trkpt>
      <trkpt lat="45.486926" lon="9.146203">
        <ele>171.737877</ele>
        <time>2026-05-02T14:16:16.544Z</time>
      </trkpt>
      <trkpt lat="45.486987" lon="9.146337">
        <ele>171.558053</ele>
        <time>2026-05-02T14:16:19.541Z</time>
      </trkpt>
      <trkpt lat="45.487062" lon="9.146455">
        <ele>171.378786</ele>
        <time>2026-05-02T14:16:22.546Z</time>
      </trkpt>
      <trkpt lat="45.487158" lon="9.146550">
        <ele>171.191207</ele>
        <time>2026-05-02T14:16:25.546Z</time>
      </trkpt>
      <trkpt lat="45.487250" lon="9.146660">
        <ele>170.998482</ele>
        <time>2026-05-02T14:16:28.540Z</time>
      </trkpt>
      <trkpt lat="45.487344" lon="9.146726">
        <ele>170.830281</ele>
        <time>2026-05-02T14:16:31.546Z</time>
      </trkpt>
      <trkpt lat="45.487419" lon="9.146651">
        <ele>170.683232</ele>
        <time>2026-05-02T14:16:35.542Z</time>
      </trkpt>
      <trkpt lat="45.487484" lon="9.146556">
        <ele>170.533827</ele>
        <time>2026-05-02T14:16:39.543Z</time>
      </trkpt>
      <trkpt lat="45.487562" lon="9.146459">
        <ele>170.651836</ele>
        <time>2026-05-02T14:16:44.540Z</time>
      </trkpt>
      <trkpt lat="45.487641" lon="9.146377">
        <ele>170.929541</ele>
        <time>2026-05-02T14:16:49.541Z</time>
      </trkpt>
      <trkpt lat="45.487742" lon="9.146353">
        <ele>171.220575</ele>
        <time>2026-05-02T14:16:54.545Z</time>
      </trkpt>
      <trkpt lat="45.487845" lon="9.146370">
        <ele>171.515290</ele>
        <time>2026-05-02T14:17:00.543Z</time>
      </trkpt>
      <trkpt lat="45.487933" lon="9.146404">
        <ele>171.774430</ele>
        <time>2026-05-02T14:17:04.542Z</time>
      </trkpt>
      <trkpt lat="45.488081" lon="9.146557">
        <ele>172.293960</ele>
        <time>2026-05-02T14:17:47.542Z</time>
      </trkpt>
      <trkpt lat="45.488136" lon="9.146660">
        <ele>172.551959</ele>
        <time>2026-05-02T14:17:51.541Z</time>
      </trkpt>
      <trkpt lat="45.488171" lon="9.146859">
        <ele>172.960785</ele>
        <time>2026-05-02T14:18:34.537Z</time>
      </trkpt>
      <trkpt lat="45.488169" lon="9.147013">
        <ele>173.267706</ele>
        <time>2026-05-02T14:18:39.544Z</time>
      </trkpt>
      <trkpt lat="45.488132" lon="9.147157">
        <ele>173.573312</ele>
        <time>2026-05-02T14:18:44.544Z</time>
      </trkpt>
      <trkpt lat="45.488067" lon="9.147274">
        <ele>173.870782</ele>
        <time>2026-05-02T14:18:49.542Z</time>
      </trkpt>
      <trkpt lat="45.487990" lon="9.147375">
        <ele>174.168111</ele>
        <time>2026-05-02T14:18:54.535Z</time>
      </trkpt>
      <trkpt lat="45.487946" lon="9.147492">
        <ele>174.432678</ele>
        <time>2026-05-02T14:18:58.540Z</time>
      </trkpt>
      <trkpt lat="45.487857" lon="9.147510">
        <ele>174.688177</ele>
        <time>2026-05-02T14:19:02.547Z</time>
      </trkpt>
      <trkpt lat="45.487765" lon="9.147506">
        <ele>174.949795</ele>
        <time>2026-05-02T14:19:06.547Z</time>
      </trkpt>
      <trkpt lat="45.487673" lon="9.147506">
        <ele>175.211292</ele>
        <time>2026-05-02T14:19:10.546Z</time>
      </trkpt>
      <trkpt lat="45.487580" lon="9.147481">
        <ele>175.480283</ele>
        <time>2026-05-02T14:19:14.539Z</time>
      </trkpt>
      <trkpt lat="45.487486" lon="9.147473">
        <ele>175.511188</ele>
        <time>2026-05-02T14:19:18.545Z</time>
      </trkpt>
      <trkpt lat="45.487382" lon="9.147467">
        <ele>175.383329</ele>
        <time>2026-05-02T14:19:22.545Z</time>
      </trkpt>
      <trkpt lat="45.487287" lon="9.147457">
        <ele>175.266312</ele>
        <time>2026-05-02T14:19:25.542Z</time>
      </trkpt>
      <trkpt lat="45.487186" lon="9.147454">
        <ele>175.142215</ele>
        <time>2026-05-02T14:19:28.541Z</time>
      </trkpt>
      <trkpt lat="45.487079" lon="9.147442">
        <ele>175.010369</ele>
        <time>2026-05-02T14:19:31.541Z</time>
      </trkpt>
      <trkpt lat="45.486953" lon="9.147438">
        <ele>174.855551</ele>
        <time>2026-05-02T14:19:34.542Z</time>
      </trkpt>
      <trkpt lat="45.486827" lon="9.147428">
        <ele>174.700531</ele>
        <time>2026-05-02T14:19:37.543Z</time>
      </trkpt>
      <trkpt lat="45.486709" lon="9.147426">
        <ele>174.555568</ele>
        <time>2026-05-02T14:19:40.541Z</time>
      </trkpt>
      <trkpt lat="45.486590" lon="9.147465">
        <ele>174.405578</ele>
        <time>2026-05-02T14:19:43.542Z</time>
      </trkpt>
      <trkpt lat="45.486468" lon="9.147533">
        <ele>174.244676</ele>
        <time>2026-05-02T14:19:46.540Z</time>
      </trkpt>
      <trkpt lat="45.486386" lon="9.147586">
        <ele>174.134087</ele>
        <time>2026-05-02T14:19:48.538Z</time>
      </trkpt>
      <trkpt lat="45.486270" lon="9.147681">
        <ele>173.969773</ele>
        <time>2026-05-02T14:19:51.541Z</time>
      </trkpt>
      <trkpt lat="45.486187" lon="9.147740">
        <ele>173.855855</ele>
        <time>2026-05-02T14:19:53.542Z</time>
      </trkpt>
      <trkpt lat="45.486090" lon="9.147757">
        <ele>173.735803</ele>
        <time>2026-05-02T14:19:55.540Z</time>
      </trkpt>
      <trkpt lat="45.485986" lon="9.147764">
        <ele>173.607905</ele>
        <time>2026-05-02T14:19:57.540Z</time>
      </trkpt>
      <trkpt lat="45.485888" lon="9.147788">
        <ele>173.485759</ele>
        <time>2026-05-02T14:19:59.548Z</time>
      </trkpt>
      <trkpt lat="45.485791" lon="9.147836">
        <ele>173.363029</ele>
        <time>2026-05-02T14:20:01.549Z</time>
      </trkpt>
      <trkpt lat="45.485696" lon="9.147894">
        <ele>173.267951</ele>
        <time>2026-05-02T14:20:03.540Z</time>
      </trkpt>
      <trkpt lat="45.485605" lon="9.147945">
        <ele>173.177993</ele>
        <time>2026-05-02T14:20:05.546Z</time>
      </trkpt>
      <trkpt lat="45.485514" lon="9.147982">
        <ele>173.090931</ele>
        <time>2026-05-02T14:20:07.542Z</time>
      </trkpt>
      <trkpt lat="45.485420" lon="9.147995">
        <ele>173.004038</ele>
        <time>2026-05-02T14:20:09.539Z</time>
      </trkpt>
      <trkpt lat="45.485290" lon="9.147984">
        <ele>172.884218</ele>
        <time>2026-05-02T14:20:12.542Z</time>
      </trkpt>
      <trkpt lat="45.485171" lon="9.147907">
        <ele>172.763989</ele>
        <time>2026-05-02T14:20:15.546Z</time>
      </trkpt>
      <trkpt lat="45.485076" lon="9.147795">
        <ele>172.650589</ele>
        <time>2026-05-02T14:20:18.538Z</time>
      </trkpt>
      <trkpt lat="45.484984" lon="9.147723">
        <ele>172.554037</ele>
        <time>2026-05-02T14:20:21.542Z</time>
      </trkpt>
      <trkpt lat="45.484992" lon="9.147868">
        <ele>172.460214</ele>
        <time>2026-05-02T14:20:25.537Z</time>
      </trkpt>
      <trkpt lat="45.485070" lon="9.147946">
        <ele>172.372568</ele>
        <time>2026-05-02T14:20:28.543Z</time>
      </trkpt>
      <trkpt lat="45.485133" lon="9.148082">
        <ele>172.267419</ele>
        <time>2026-05-02T14:20:32.543Z</time>
      </trkpt>
      <trkpt lat="45.485235" lon="9.148130">
        <ele>172.168596</ele>
        <time>2026-05-02T14:20:36.541Z</time>
      </trkpt>
      <trkpt lat="45.485314" lon="9.148201">
        <ele>172.082684</ele>
        <time>2026-05-02T14:20:40.542Z</time>
      </trkpt>
      <trkpt lat="45.485308" lon="9.148351">
        <ele>171.985768</ele>
        <time>2026-05-02T14:20:44.548Z</time>
      </trkpt>
      <trkpt lat="45.485317" lon="9.148513">
        <ele>171.880941</ele>
        <time>2026-05-02T14:20:48.539Z</time>
      </trkpt>
      <trkpt lat="45.485303" lon="9.148649">
        <ele>171.792272</ele>
        <time>2026-05-02T14:20:51.541Z</time>
      </trkpt>
      <trkpt lat="45.485219" lon="9.148759">
        <ele>171.745273</ele>
        <time>2026-05-02T14:20:55.547Z</time>
      </trkpt>
      <trkpt lat="45.485163" lon="9.148873">
        <ele>171.823731</ele>
        <time>2026-05-02T14:20:59.544Z</time>
      </trkpt>
      <trkpt lat="45.485147" lon="9.149022">
        <ele>171.908694</ele>
        <time>2026-05-02T14:21:04.545Z</time>
      </trkpt>
      <trkpt lat="45.485223" lon="9.149153">
        <ele>172.004534</ele>
        <time>2026-05-02T14:21:08.543Z</time>
      </trkpt>
      <trkpt lat="45.485312" lon="9.149180">
        <ele>172.077687</ele>
        <time>2026-05-02T14:21:11.549Z</time>
      </trkpt>
      <trkpt lat="45.485397" lon="9.149262">
        <ele>172.160185</ele>
        <time>2026-05-02T14:21:15.542Z</time>
      </trkpt>
      <trkpt lat="45.485452" lon="9.149363">
        <ele>172.232268</ele>
        <time>2026-05-02T14:21:18.538Z</time>
      </trkpt>
      <trkpt lat="45.485478" lon="9.149499">
        <ele>172.311723</ele>
        <time>2026-05-02T14:21:21.540Z</time>
      </trkpt>
      <trkpt lat="45.485473" lon="9.149638">
        <ele>172.390172</ele>
        <time>2026-05-02T14:21:24.550Z</time>
      </trkpt>
      <trkpt lat="45.485470" lon="9.149767">
        <ele>172.462923</ele>
        <time>2026-05-02T14:21:27.540Z</time>
      </trkpt>
      <trkpt lat="45.485432" lon="9.149918">
        <ele>172.553350</ele>
        <time>2026-05-02T14:21:31.540Z</time>
      </trkpt>
      <trkpt lat="45.485362" lon="9.150008">
        <ele>172.629115</ele>
        <time>2026-05-02T14:21:34.535Z</time>
      </trkpt>
      <trkpt lat="45.485279" lon="9.150074">
        <ele>172.705513</ele>
        <time>2026-05-02T14:21:37.541Z</time>
      </trkpt>
      <trkpt lat="45.485199" lon="9.150165">
        <ele>172.787777</ele>
        <time>2026-05-02T14:21:40.544Z</time>
      </trkpt>
      <trkpt lat="45.485114" lon="9.150261">
        <ele>172.874942</ele>
        <time>2026-05-02T14:21:43.539Z</time>
      </trkpt>
      <trkpt lat="45.485030" lon="9.150362">
        <ele>172.963268</ele>
        <time>2026-05-02T14:21:46.546Z</time>
      </trkpt>
      <trkpt lat="45.484932" lon="9.150454">
        <ele>173.057589</ele>
        <time>2026-05-02T14:21:49.545Z</time>
      </trkpt>
      <trkpt lat="45.484856" lon="9.150590">
        <ele>173.155617</ele>
        <time>2026-05-02T14:21:52.540Z</time>
      </trkpt>
      <trkpt lat="45.484768" lon="9.150706">
        <ele>173.400496</ele>
        <time>2026-05-02T14:21:55.544Z</time>
      </trkpt>
      <trkpt lat="45.484748" lon="9.150836">
        <ele>173.602635</ele>
        <time>2026-05-02T14:21:58.539Z</time>
      </trkpt>
      <trkpt lat="45.484683" lon="9.150940">
        <ele>173.814239</ele>
        <time>2026-05-02T14:22:01.542Z</time>
      </trkpt>
      <trkpt lat="45.484614" lon="9.151032">
        <ele>174.018851</ele>
        <time>2026-05-02T14:22:04.543Z</time>
      </trkpt>
      <trkpt lat="45.484536" lon="9.151127">
        <ele>174.241043</ele>
        <time>2026-05-02T14:22:08.537Z</time>
      </trkpt>
      <trkpt lat="45.484471" lon="9.151228">
        <ele>174.449268</ele>
        <time>2026-05-02T14:22:11.541Z</time>
      </trkpt>
      <trkpt lat="45.484399" lon="9.151339">
        <ele>174.678939</ele>
        <time>2026-05-02T14:22:14.541Z</time>
      </trkpt>
      <trkpt lat="45.484345" lon="9.151477">
        <ele>174.918967</ele>
        <time>2026-05-02T14:22:17.539Z</time>
      </trkpt>
      <trkpt lat="45.484301" lon="9.151629">
        <ele>175.168726</ele>
        <time>2026-05-02T14:22:20.540Z</time>
      </trkpt>
      <trkpt lat="45.484225" lon="9.151749">
        <ele>175.414333</ele>
        <time>2026-05-02T14:22:23.542Z</time>
      </trkpt>
      <trkpt lat="45.484117" lon="9.151800">
        <ele>175.660781</ele>
        <time>2026-05-02T14:22:26.542Z</time>
      </trkpt>
      <trkpt lat="45.484024" lon="9.151885">
        <ele>175.900059</ele>
        <time>2026-05-02T14:22:29.540Z</time>
      </trkpt>
      <trkpt lat="45.483941" lon="9.151991">
        <ele>176.141404</ele>
        <time>2026-05-02T14:22:32.539Z</time>
      </trkpt>
      <trkpt lat="45.483847" lon="9.152102">
        <ele>176.405766</ele>
        <time>2026-05-02T14:22:35.545Z</time>
      </trkpt>
      <trkpt lat="45.483761" lon="9.152212">
        <ele>176.656006</ele>
        <time>2026-05-02T14:22:38.538Z</time>
      </trkpt>
      <trkpt lat="45.483665" lon="9.152313">
        <ele>176.914424</ele>
        <time>2026-05-02T14:22:41.547Z</time>
      </trkpt>
      <trkpt lat="45.483567" lon="9.152430">
        <ele>177.025648</ele>
        <time>2026-05-02T14:22:44.545Z</time>
      </trkpt>
      <trkpt lat="45.483477" lon="9.152561">
        <ele>176.950967</ele>
        <time>2026-05-02T14:22:47.544Z</time>
      </trkpt>
      <trkpt lat="45.483390" lon="9.152679">
        <ele>176.881243</ele>
        <time>2026-05-02T14:22:50.543Z</time>
      </trkpt>
      <trkpt lat="45.483300" lon="9.152787">
        <ele>176.812935</ele>
        <time>2026-05-02T14:22:53.544Z</time>
      </trkpt>
      <trkpt lat="45.483209" lon="9.152906">
        <ele>176.741235</ele>
        <time>2026-05-02T14:22:56.546Z</time>
      </trkpt>
      <trkpt lat="45.483115" lon="9.153033">
        <ele>176.666039</ele>
        <time>2026-05-02T14:22:59.543Z</time>
      </trkpt>
      <trkpt lat="45.483015" lon="9.153155">
        <ele>176.589614</ele>
        <time>2026-05-02T14:23:02.543Z</time>
      </trkpt>
      <trkpt lat="45.482924" lon="9.153276">
        <ele>176.517361</ele>
        <time>2026-05-02T14:23:05.534Z</time>
      </trkpt>
      <trkpt lat="45.482841" lon="9.153381">
        <ele>176.452929</ele>
        <time>2026-05-02T14:23:08.537Z</time>
      </trkpt>
      <trkpt lat="45.482764" lon="9.153468">
        <ele>176.395878</ele>
        <time>2026-05-02T14:23:11.540Z</time>
      </trkpt>
      <trkpt lat="45.482682" lon="9.153539">
        <ele>176.340167</ele>
        <time>2026-05-02T14:23:22.540Z</time>
      </trkpt>
      <trkpt lat="45.482611" lon="9.153667">
        <ele>176.273708</ele>
        <time>2026-05-02T14:23:27.541Z</time>
      </trkpt>
      <trkpt lat="45.482529" lon="9.153781">
        <ele>176.207205</ele>
        <time>2026-05-02T14:23:30.545Z</time>
      </trkpt>
      <trkpt lat="45.482436" lon="9.153900">
        <ele>176.134644</ele>
        <time>2026-05-02T14:23:33.539Z</time>
      </trkpt>
      <trkpt lat="45.482370" lon="9.153990">
        <ele>176.081613</ele>
        <time>2026-05-02T14:23:35.545Z</time>
      </trkpt>
      <trkpt lat="45.482272" lon="9.154109">
        <ele>175.999269</ele>
        <time>2026-05-02T14:23:38.549Z</time>
      </trkpt>
      <trkpt lat="45.482177" lon="9.154240">
        <ele>175.859234</ele>
        <time>2026-05-02T14:23:41.544Z</time>
      </trkpt>
      <trkpt lat="45.482108" lon="9.154329">
        <ele>175.760645</ele>
        <time>2026-05-02T14:23:43.550Z</time>
      </trkpt>
      <trkpt lat="45.482037" lon="9.154423">
        <ele>175.657984</ele>
        <time>2026-05-02T14:23:45.539Z</time>
      </trkpt>
      <trkpt lat="45.481963" lon="9.154521">
        <ele>175.550970</ele>
        <time>2026-05-02T14:23:47.542Z</time>
      </trkpt>
      <trkpt lat="45.481891" lon="9.154612">
        <ele>175.449021</ele>
        <time>2026-05-02T14:23:49.549Z</time>
      </trkpt>
      <trkpt lat="45.481822" lon="9.154701">
        <ele>175.350432</ele>
        <time>2026-05-02T14:23:51.541Z</time>
      </trkpt>
      <trkpt lat="45.481730" lon="9.154829">
        <ele>175.214231</ele>
        <time>2026-05-02T14:23:54.543Z</time>
      </trkpt>
      <trkpt lat="45.481635" lon="9.154960">
        <ele>175.074196</ele>
        <time>2026-05-02T14:23:57.540Z</time>
      </trkpt>
      <trkpt lat="45.481566" lon="9.155046">
        <ele>174.977088</ele>
        <time>2026-05-02T14:23:59.541Z</time>
      </trkpt>
      <trkpt lat="45.481463" lon="9.155166">
        <ele>174.836147</ele>
        <time>2026-05-02T14:24:02.543Z</time>
      </trkpt>
      <trkpt lat="45.481366" lon="9.155281">
        <ele>174.702475</ele>
        <time>2026-05-02T14:24:05.540Z</time>
      </trkpt>
      <trkpt lat="45.481275" lon="9.155411">
        <ele>174.565982</ele>
        <time>2026-05-02T14:24:08.541Z</time>
      </trkpt>
      <trkpt lat="45.481186" lon="9.155530">
        <ele>174.436701</ele>
        <time>2026-05-02T14:24:11.541Z</time>
      </trkpt>
      <trkpt lat="45.481108" lon="9.155639">
        <ele>174.320977</ele>
        <time>2026-05-02T14:24:14.539Z</time>
      </trkpt>
      <trkpt lat="45.481013" lon="9.155736">
        <ele>174.197162</ele>
        <time>2026-05-02T14:24:17.540Z</time>
      </trkpt>
      <trkpt lat="45.480948" lon="9.155872">
        <ele>174.166545</ele>
        <time>2026-05-02T14:24:20.541Z</time>
      </trkpt>
      <trkpt lat="45.480883" lon="9.155997">
        <ele>174.352775</ele>
        <time>2026-05-02T14:24:23.540Z</time>
      </trkpt>
      <trkpt lat="45.480822" lon="9.156119">
        <ele>174.532085</ele>
        <time>2026-05-02T14:24:26.545Z</time>
      </trkpt>
      <trkpt lat="45.480772" lon="9.156230">
        <ele>174.689963</ele>
        <time>2026-05-02T14:24:29.546Z</time>
      </trkpt>
      <trkpt lat="45.480718" lon="9.156340">
        <ele>174.850652</ele>
        <time>2026-05-02T14:24:32.541Z</time>
      </trkpt>
      <trkpt lat="45.480653" lon="9.156467">
        <ele>175.038809</ele>
        <time>2026-05-02T14:24:35.537Z</time>
      </trkpt>
      <trkpt lat="45.480597" lon="9.156599">
        <ele>175.223432</ele>
        <time>2026-05-02T14:24:38.542Z</time>
      </trkpt>
      <trkpt lat="45.480525" lon="9.156753">
        <ele>175.444930</ele>
        <time>2026-05-02T14:24:41.553Z</time>
      </trkpt>
      <trkpt lat="45.480447" lon="9.156904">
        <ele>175.669369</ele>
        <time>2026-05-02T14:24:44.545Z</time>
      </trkpt>
      <trkpt lat="45.480381" lon="9.157052">
        <ele>175.879261</ele>
        <time>2026-05-02T14:24:47.543Z</time>
      </trkpt>
      <trkpt lat="45.480321" lon="9.157223">
        <ele>176.108083</ele>
        <time>2026-05-02T14:24:50.550Z</time>
      </trkpt>
      <trkpt lat="45.480296" lon="9.157350">
        <ele>176.265935</ele>
        <time>2026-05-02T14:24:52.549Z</time>
      </trkpt>
      <trkpt lat="45.480291" lon="9.157486">
        <ele>176.428905</ele>
        <time>2026-05-02T14:24:54.540Z</time>
      </trkpt>
      <trkpt lat="45.480292" lon="9.157619">
        <ele>176.588071</ele>
        <time>2026-05-02T14:24:56.536Z</time>
      </trkpt>
      <trkpt lat="45.480295" lon="9.157802">
        <ele>176.807120</ele>
        <time>2026-05-02T14:24:59.549Z</time>
      </trkpt>
      <trkpt lat="45.480298" lon="9.157979">
        <ele>177.018991</ele>
        <time>2026-05-02T14:25:02.538Z</time>
      </trkpt>
      <trkpt lat="45.480291" lon="9.158162">
        <ele>177.131001</ele>
        <time>2026-05-02T14:25:05.538Z</time>
      </trkpt>
      <trkpt lat="45.480255" lon="9.158345">
        <ele>176.941727</ele>
        <time>2026-05-02T14:25:08.536Z</time>
      </trkpt>
      <trkpt lat="45.480233" lon="9.158522">
        <ele>176.762717</ele>
        <time>2026-05-02T14:25:11.547Z</time>
      </trkpt>
      <trkpt lat="45.480233" lon="9.158682">
        <ele>176.603384</ele>
        <time>2026-05-02T14:25:14.549Z</time>
      </trkpt>
      <trkpt lat="45.480228" lon="9.158850">
        <ele>176.435934</ele>
        <time>2026-05-02T14:25:17.537Z</time>
      </trkpt>
      <trkpt lat="45.480223" lon="9.159028">
        <ele>176.258535</ele>
        <time>2026-05-02T14:25:20.538Z</time>
      </trkpt>
      <trkpt lat="45.480218" lon="9.159211">
        <ele>176.076159</ele>
        <time>2026-05-02T14:25:23.540Z</time>
      </trkpt>
      <trkpt lat="45.480207" lon="9.159398">
        <ele>175.889285</ele>
        <time>2026-05-02T14:25:26.544Z</time>
      </trkpt>
      <trkpt lat="45.480149" lon="9.159554">
        <ele>175.713446</ele>
        <time>2026-05-02T14:25:29.543Z</time>
      </trkpt>
      <trkpt lat="45.480039" lon="9.159599">
        <ele>175.550917</ele>
        <time>2026-05-02T14:25:32.535Z</time>
      </trkpt>
      <trkpt lat="45.479961" lon="9.159683">
        <ele>175.412101</ele>
        <time>2026-05-02T14:25:35.538Z</time>
      </trkpt>
      <trkpt lat="45.479888" lon="9.159783">
        <ele>175.268343</ele>
        <time>2026-05-02T14:25:38.537Z</time>
      </trkpt>
      <trkpt lat="45.479798" lon="9.159884">
        <ele>175.105692</ele>
        <time>2026-05-02T14:25:41.549Z</time>
      </trkpt>
      <trkpt lat="45.479678" lon="9.159937">
        <ele>174.927275</ele>
        <time>2026-05-02T14:25:44.539Z</time>
      </trkpt>
      <trkpt lat="45.479552" lon="9.159976">
        <ele>174.744155</ele>
        <time>2026-05-02T14:25:47.543Z</time>
      </trkpt>
      <trkpt lat="45.479427" lon="9.159971">
        <ele>174.678016</ele>
        <time>2026-05-02T14:25:50.542Z</time>
      </trkpt>
      <trkpt lat="45.479301" lon="9.159965">
        <ele>174.839378</ele>
        <time>2026-05-02T14:25:53.540Z</time>
      </trkpt>
      <trkpt lat="45.479188" lon="9.159933">
        <ele>174.986835</ele>
        <time>2026-05-02T14:25:56.539Z</time>
      </trkpt>
      <trkpt lat="45.479099" lon="9.159953">
        <ele>175.102154</ele>
        <time>2026-05-02T14:26:00.541Z</time>
      </trkpt>
      <trkpt lat="45.479001" lon="9.159974">
        <ele>175.228996</ele>
        <time>2026-05-02T14:26:08.541Z</time>
      </trkpt>
      <trkpt lat="45.478907" lon="9.159966">
        <ele>175.349524</ele>
        <time>2026-05-02T14:26:14.537Z</time>
      </trkpt>
      <trkpt lat="45.478815" lon="9.159961">
        <ele>175.467364</ele>
        <time>2026-05-02T14:26:18.538Z</time>
      </trkpt>
      <trkpt lat="45.478700" lon="9.159956">
        <ele>175.614625</ele>
        <time>2026-05-02T14:26:22.542Z</time>
      </trkpt>
      <trkpt lat="45.478596" lon="9.159946">
        <ele>175.748040</ele>
        <time>2026-05-02T14:26:26.535Z</time>
      </trkpt>
      <trkpt lat="45.478489" lon="9.159947">
        <ele>175.884996</ele>
        <time>2026-05-02T14:26:31.541Z</time>
      </trkpt>
      <trkpt lat="45.478390" lon="9.159921">
        <ele>176.013840</ele>
        <time>2026-05-02T14:26:35.540Z</time>
      </trkpt>
      <trkpt lat="45.478290" lon="9.159901">
        <ele>176.143087</ele>
        <time>2026-05-02T14:26:38.534Z</time>
      </trkpt>
      <trkpt lat="45.478194" lon="9.159888">
        <ele>176.266513</ele>
        <time>2026-05-02T14:26:41.547Z</time>
      </trkpt>
      <trkpt lat="45.478077" lon="9.159884">
        <ele>176.416309</ele>
        <time>2026-05-02T14:26:45.535Z</time>
      </trkpt>
      <trkpt lat="45.477972" lon="9.159862">
        <ele>176.552145</ele>
        <time>2026-05-02T14:26:49.545Z</time>
      </trkpt>
      <trkpt lat="45.477881" lon="9.159862">
        <ele>176.668619</ele>
        <time>2026-05-02T14:26:52.539Z</time>
      </trkpt>
      <trkpt lat="45.477778" lon="9.159865">
        <ele>176.800480</ele>
        <time>2026-05-02T14:26:55.539Z</time>
      </trkpt>
      <trkpt lat="45.477673" lon="9.159844">
        <ele>176.907272</ele>
        <time>2026-05-02T14:26:58.544Z</time>
      </trkpt>
      <trkpt lat="45.477575" lon="9.159820">
        <ele>176.619148</ele>
        <time>2026-05-02T14:27:01.541Z</time>
      </trkpt>
      <trkpt lat="45.477478" lon="9.159803">
        <ele>176.335963</ele>
        <time>2026-05-02T14:27:04.538Z</time>
      </trkpt>
      <trkpt lat="45.477372" lon="9.159804">
        <ele>176.028808</ele>
        <time>2026-05-02T14:27:07.545Z</time>
      </trkpt>
      <trkpt lat="45.477265" lon="9.159810">
        <ele>175.718522</ele>
        <time>2026-05-02T14:27:10.544Z</time>
      </trkpt>
      <trkpt lat="45.477169" lon="9.159827">
        <ele>175.438213</ele>
        <time>2026-05-02T14:27:13.551Z</time>
      </trkpt>
      <trkpt lat="45.477079" lon="9.159816">
        <ele>175.176470</ele>
        <time>2026-05-02T14:27:16.542Z</time>
      </trkpt>
      <trkpt lat="45.476976" lon="9.159817">
        <ele>174.878007</ele>
        <time>2026-05-02T14:27:20.533Z</time>
      </trkpt>
      <trkpt lat="45.476903" lon="9.159904">
        <ele>174.602344</ele>
        <time>2026-05-02T14:27:29.543Z</time>
      </trkpt>
      <trkpt lat="45.476883" lon="9.160042">
        <ele>174.316027</ele>
        <time>2026-05-02T14:27:34.537Z</time>
      </trkpt>
      <trkpt lat="45.476879" lon="9.160182">
        <ele>174.031338</ele>
        <time>2026-05-02T14:27:37.548Z</time>
      </trkpt>
      <trkpt lat="45.476880" lon="9.160332">
        <ele>173.726553</ele>
        <time>2026-05-02T14:27:40.539Z</time>
      </trkpt>
      <trkpt lat="45.476874" lon="9.160482">
        <ele>173.421285</ele>
        <time>2026-05-02T14:27:43.547Z</time>
      </trkpt>
      <trkpt lat="45.476871" lon="9.160651">
        <ele>173.077799</ele>
        <time>2026-05-02T14:27:46.540Z</time>
      </trkpt>
      <trkpt lat="45.476864" lon="9.160812">
        <ele>172.750050</ele>
        <time>2026-05-02T14:27:49.541Z</time>
      </trkpt>
      <trkpt lat="45.476856" lon="9.160963">
        <ele>172.442372</ele>
        <time>2026-05-02T14:27:52.543Z</time>
      </trkpt>
      <trkpt lat="45.476860" lon="9.161116">
        <ele>172.131289</ele>
        <time>2026-05-02T14:27:55.539Z</time>
      </trkpt>
      <trkpt lat="45.476948" lon="9.161149">
        <ele>171.867629</ele>
        <time>2026-05-02T14:28:02.542Z</time>
      </trkpt>
      <trkpt lat="45.477042" lon="9.161101">
        <ele>171.672427</ele>
        <time>2026-05-02T14:28:08.545Z</time>
      </trkpt>
      <trkpt lat="45.477046" lon="9.160973">
        <ele>171.590657</ele>
        <time>2026-05-02T14:28:13.545Z</time>
      </trkpt>
      <trkpt lat="45.476956" lon="9.161146">
        <ele>171.453181</ele>
        <time>2026-05-02T14:29:00.547Z</time>
      </trkpt>
      <trkpt lat="45.476888" lon="9.161252">
        <ele>171.361493</ele>
        <time>2026-05-02T14:29:03.543Z</time>
      </trkpt>
      <trkpt lat="45.476810" lon="9.161365">
        <ele>171.260298</ele>
        <time>2026-05-02T14:29:06.543Z</time>
      </trkpt>
      <trkpt lat="45.476725" lon="9.161478">
        <ele>171.154535</ele>
        <time>2026-05-02T14:29:09.544Z</time>
      </trkpt>
      <trkpt lat="45.476645" lon="9.161569">
        <ele>171.061398</ele>
        <time>2026-05-02T14:29:12.542Z</time>
      </trkpt>
      <trkpt lat="45.476558" lon="9.161670">
        <ele>170.959297</ele>
        <time>2026-05-02T14:29:15.534Z</time>
      </trkpt>
      <trkpt lat="45.476468" lon="9.161791">
        <ele>170.846722</ele>
        <time>2026-05-02T14:29:18.547Z</time>
      </trkpt>
      <trkpt lat="45.476378" lon="9.161911">
        <ele>170.734584</ele>
        <time>2026-05-02T14:29:21.548Z</time>
      </trkpt>
      <trkpt lat="45.476273" lon="9.161989">
        <ele>170.626830</ele>
        <time>2026-05-02T14:29:24.548Z</time>
      </trkpt>
      <trkpt lat="45.476181" lon="9.162055">
        <ele>170.533099</ele>
        <time>2026-05-02T14:29:27.545Z</time>
      </trkpt>
      <trkpt lat="45.476120" lon="9.162202">
        <ele>170.424086</ele>
        <time>2026-05-02T14:29:30.536Z</time>
      </trkpt>
      <trkpt lat="45.476057" lon="9.162299">
        <ele>170.339705</ele>
        <time>2026-05-02T14:29:32.542Z</time>
      </trkpt>
      <trkpt lat="45.475988" lon="9.162387">
        <ele>170.255455</ele>
        <time>2026-05-02T14:29:34.536Z</time>
      </trkpt>
      <trkpt lat="45.475917" lon="9.162473">
        <ele>170.170671</ele>
        <time>2026-05-02T14:29:36.544Z</time>
      </trkpt>
      <trkpt lat="45.475843" lon="9.162571">
        <ele>170.078759</ele>
        <time>2026-05-02T14:29:38.540Z</time>
      </trkpt>
      <trkpt lat="45.475770" lon="9.162661">
        <ele>169.996370</ele>
        <time>2026-05-02T14:29:40.547Z</time>
      </trkpt>
      <trkpt lat="45.475703" lon="9.162749">
        <ele>169.918617</ele>
        <time>2026-05-02T14:29:42.542Z</time>
      </trkpt>
      <trkpt lat="45.475607" lon="9.162885">
        <ele>169.803108</ele>
        <time>2026-05-02T14:29:45.541Z</time>
      </trkpt>
      <trkpt lat="45.475536" lon="9.162972">
        <ele>169.723202</ele>
        <time>2026-05-02T14:29:47.551Z</time>
      </trkpt>
      <trkpt lat="45.475437" lon="9.163100">
        <ele>169.609133</ele>
        <time>2026-05-02T14:29:50.544Z</time>
      </trkpt>
      <trkpt lat="45.475338" lon="9.163228">
        <ele>169.495063</ele>
        <time>2026-05-02T14:29:53.550Z</time>
      </trkpt>
      <trkpt lat="45.475243" lon="9.163354">
        <ele>169.384318</ele>
        <time>2026-05-02T14:29:56.546Z</time>
      </trkpt>
      <trkpt lat="45.475151" lon="9.163473">
        <ele>169.278294</ele>
        <time>2026-05-02T14:29:59.543Z</time>
      </trkpt>
      <trkpt lat="45.475055" lon="9.163599">
        <ele>169.166923</ele>
        <time>2026-05-02T14:30:02.535Z</time>
      </trkpt>
      <trkpt lat="45.474954" lon="9.163716">
        <ele>169.055847</ele>
        <time>2026-05-02T14:30:05.549Z</time>
      </trkpt>
      <trkpt lat="45.474850" lon="9.163841">
        <ele>168.939745</ele>
        <time>2026-05-02T14:30:08.547Z</time>
      </trkpt>
      <trkpt lat="45.474782" lon="9.163932">
        <ele>168.860144</ele>
        <time>2026-05-02T14:30:10.544Z</time>
      </trkpt>
      <trkpt lat="45.474714" lon="9.164027">
        <ele>168.778885</ele>
        <time>2026-05-02T14:30:12.533Z</time>
      </trkpt>
      <trkpt lat="45.474642" lon="9.164123">
        <ele>168.694746</ele>
        <time>2026-05-02T14:30:14.551Z</time>
      </trkpt>
      <trkpt lat="45.474570" lon="9.164217">
        <ele>168.611419</ele>
        <time>2026-05-02T14:30:16.540Z</time>
      </trkpt>
      <trkpt lat="45.474502" lon="9.164314">
        <ele>168.535808</ele>
        <time>2026-05-02T14:30:18.541Z</time>
      </trkpt>
      <trkpt lat="45.474434" lon="9.164416">
        <ele>168.491144</ele>
        <time>2026-05-02T14:30:20.546Z</time>
      </trkpt>
      <trkpt lat="45.474365" lon="9.164522">
        <ele>168.445246</ele>
        <time>2026-05-02T14:30:22.547Z</time>
      </trkpt>
      <trkpt lat="45.474296" lon="9.164625">
        <ele>168.400040</ele>
        <time>2026-05-02T14:30:24.545Z</time>
      </trkpt>
      <trkpt lat="45.474231" lon="9.164728">
        <ele>168.356065</ele>
        <time>2026-05-02T14:30:26.545Z</time>
      </trkpt>
      <trkpt lat="45.474160" lon="9.164828">
        <ele>168.310903</ele>
        <time>2026-05-02T14:30:28.538Z</time>
      </trkpt>
      <trkpt lat="45.474086" lon="9.164917">
        <ele>168.267093</ele>
        <time>2026-05-02T14:30:30.544Z</time>
      </trkpt>
      <trkpt lat="45.474014" lon="9.165007">
        <ele>168.223763</ele>
        <time>2026-05-02T14:30:32.537Z</time>
      </trkpt>
      <trkpt lat="45.473944" lon="9.165099">
        <ele>168.180682</ele>
        <time>2026-05-02T14:30:34.537Z</time>
      </trkpt>
      <trkpt lat="45.473877" lon="9.165194">
        <ele>168.137922</ele>
        <time>2026-05-02T14:30:36.541Z</time>
      </trkpt>
      <trkpt lat="45.473808" lon="9.165280">
        <ele>168.096450</ele>
        <time>2026-05-02T14:30:38.537Z</time>
      </trkpt>
      <trkpt lat="45.473718" lon="9.165403">
        <ele>168.040034</ele>
        <time>2026-05-02T14:30:41.546Z</time>
      </trkpt>
      <trkpt lat="45.473631" lon="9.165536">
        <ele>167.982313</ele>
        <time>2026-05-02T14:30:44.546Z</time>
      </trkpt>
      <trkpt lat="45.473537" lon="9.165662">
        <ele>167.923929</ele>
        <time>2026-05-02T14:30:47.551Z</time>
      </trkpt>
      <trkpt lat="45.473436" lon="9.165800">
        <ele>167.860626</ele>
        <time>2026-05-02T14:30:50.547Z</time>
      </trkpt>
      <trkpt lat="45.473342" lon="9.165913">
        <ele>167.804986</ele>
        <time>2026-05-02T14:30:53.544Z</time>
      </trkpt>
      <trkpt lat="45.473243" lon="9.166044">
        <ele>167.743866</ele>
        <time>2026-05-02T14:30:56.544Z</time>
      </trkpt>
      <trkpt lat="45.473146" lon="9.166167">
        <ele>167.847102</ele>
        <time>2026-05-02T14:30:59.540Z</time>
      </trkpt>
      <trkpt lat="45.473036" lon="9.166290">
        <ele>168.016676</ele>
        <time>2026-05-02T14:31:02.549Z</time>
      </trkpt>
      <trkpt lat="45.472942" lon="9.166429">
        <ele>168.180949</ele>
        <time>2026-05-02T14:31:05.535Z</time>
      </trkpt>
      <trkpt lat="45.472853" lon="9.166555">
        <ele>168.333087</ele>
        <time>2026-05-02T14:31:08.538Z</time>
      </trkpt>
      <trkpt lat="45.472787" lon="9.166648">
        <ele>168.445647</ele>
        <time>2026-05-02T14:31:10.540Z</time>
      </trkpt>
      <trkpt lat="45.472712" lon="9.166727">
        <ele>168.558760</ele>
        <time>2026-05-02T14:31:12.541Z</time>
      </trkpt>
      <trkpt lat="45.472611" lon="9.166846">
        <ele>168.717695</ele>
        <time>2026-05-02T14:31:15.541Z</time>
      </trkpt>
      <trkpt lat="45.472507" lon="9.166940">
        <ele>168.867067</ele>
        <time>2026-05-02T14:31:18.537Z</time>
      </trkpt>
      <trkpt lat="45.472436" lon="9.167058">
        <ele>168.999336</ele>
        <time>2026-05-02T14:31:22.539Z</time>
      </trkpt>
      <trkpt lat="45.472397" lon="9.167182">
        <ele>169.114947</ele>
        <time>2026-05-02T14:31:29.536Z</time>
      </trkpt>
      <trkpt lat="45.472461" lon="9.167298">
        <ele>169.240509</ele>
        <time>2026-05-02T14:31:35.542Z</time>
      </trkpt>
      <trkpt lat="45.472520" lon="9.167407">
        <ele>169.357646</ele>
        <time>2026-05-02T14:31:42.539Z</time>
      </trkpt>
      <trkpt lat="45.472525" lon="9.167539">
        <ele>169.470102</ele>
        <time>2026-05-02T14:31:48.547Z</time>
      </trkpt>
      <trkpt lat="45.472443" lon="9.167614">
        <ele>169.588280</ele>
        <time>2026-05-02T14:31:55.546Z</time>
      </trkpt>
      <trkpt lat="45.472472" lon="9.167746">
        <ele>169.705955</ele>
        <time>2026-05-02T14:32:00.542Z</time>
      </trkpt>
      <trkpt lat="45.472531" lon="9.167845">
        <ele>169.816479</ele>
        <time>2026-05-02T14:32:03.540Z</time>
      </trkpt>
      <trkpt lat="45.472600" lon="9.167942">
        <ele>169.899139</ele>
        <time>2026-05-02T14:32:06.544Z</time>
      </trkpt>
      <trkpt lat="45.472680" lon="9.168054">
        <ele>169.828213</ele>
        <time>2026-05-02T14:32:10.544Z</time>
      </trkpt>
      <trkpt lat="45.472750" lon="9.168162">
        <ele>169.762967</ele>
        <time>2026-05-02T14:32:14.539Z</time>
      </trkpt>
      <trkpt lat="45.472824" lon="9.168268">
        <ele>169.696610</ele>
        <time>2026-05-02T14:32:19.532Z</time>
      </trkpt>
      <trkpt lat="45.472921" lon="9.168321">
        <ele>169.630892</ele>
        <time>2026-05-02T14:32:24.538Z</time>
      </trkpt>
      <trkpt lat="45.473012" lon="9.168409">
        <ele>169.561331</ele>
        <time>2026-05-02T14:32:28.546Z</time>
      </trkpt>
      <trkpt lat="45.473076" lon="9.168514">
        <ele>169.499611</ele>
        <time>2026-05-02T14:32:31.540Z</time>
      </trkpt>
      <trkpt lat="45.473132" lon="9.168617">
        <ele>169.441790</ele>
        <time>2026-05-02T14:32:34.539Z</time>
      </trkpt>
      <trkpt lat="45.473213" lon="9.168728">
        <ele>169.370719</ele>
        <time>2026-05-02T14:32:38.540Z</time>
      </trkpt>
      <trkpt lat="45.473255" lon="9.168874">
        <ele>169.300708</ele>
        <time>2026-05-02T14:32:42.538Z</time>
      </trkpt>
      <trkpt lat="45.473305" lon="9.168980">
        <ele>169.244033</ele>
        <time>2026-05-02T14:32:45.538Z</time>
      </trkpt>
      <trkpt lat="45.473374" lon="9.169083">
        <ele>169.180837</ele>
        <time>2026-05-02T14:32:48.546Z</time>
      </trkpt>
      <trkpt lat="45.473435" lon="9.169180">
        <ele>169.123034</ele>
        <time>2026-05-02T14:32:51.536Z</time>
      </trkpt>
      <trkpt lat="45.473508" lon="9.169265">
        <ele>169.063411</ele>
        <time>2026-05-02T14:32:54.538Z</time>
      </trkpt>
      <trkpt lat="45.473572" lon="9.169362">
        <ele>169.004324</ele>
        <time>2026-05-02T14:32:57.533Z</time>
      </trkpt>
      <trkpt lat="45.473647" lon="9.169454">
        <ele>168.941735</ele>
        <time>2026-05-02T14:33:00.541Z</time>
      </trkpt>
      <trkpt lat="45.473710" lon="9.169564">
        <ele>168.878727</ele>
        <time>2026-05-02T14:33:03.533Z</time>
      </trkpt>
      <trkpt lat="45.473780" lon="9.169674">
        <ele>168.812827</ele>
        <time>2026-05-02T14:33:06.538Z</time>
      </trkpt>
      <trkpt lat="45.473854" lon="9.169794">
        <ele>168.724397</ele>
        <time>2026-05-02T14:33:10.541Z</time>
      </trkpt>
      <trkpt lat="45.473974" lon="9.170003">
        <ele>168.537291</ele>
        <time>2026-05-02T14:33:46.545Z</time>
      </trkpt>
      <trkpt lat="45.473920" lon="9.170128">
        <ele>168.435595</ele>
        <time>2026-05-02T14:33:50.537Z</time>
      </trkpt>
      <trkpt lat="45.473838" lon="9.170212">
        <ele>168.335864</ele>
        <time>2026-05-02T14:33:53.543Z</time>
      </trkpt>
      <trkpt lat="45.473757" lon="9.170300">
        <ele>168.235278</ele>
        <time>2026-05-02T14:33:56.542Z</time>
      </trkpt>
      <trkpt lat="45.473680" lon="9.170394">
        <ele>168.135155</ele>
        <time>2026-05-02T14:34:00.533Z</time>
      </trkpt>
      <trkpt lat="45.473709" lon="9.170537">
        <ele>168.032043</ele>
        <time>2026-05-02T14:34:06.538Z</time>
      </trkpt>
      <trkpt lat="45.473772" lon="9.170646">
        <ele>167.934201</ele>
        <time>2026-05-02T14:34:10.542Z</time>
      </trkpt>
      <trkpt lat="45.473837" lon="9.170738">
        <ele>167.843738</ele>
        <time>2026-05-02T14:34:13.540Z</time>
      </trkpt>
      <trkpt lat="45.473896" lon="9.170836">
        <ele>167.754270</ele>
        <time>2026-05-02T14:34:16.538Z</time>
      </trkpt>
      <trkpt lat="45.473958" lon="9.170955">
        <ele>167.651580</ele>
        <time>2026-05-02T14:34:20.543Z</time>
      </trkpt>
      <trkpt lat="45.473970" lon="9.171110">
        <ele>167.543563</ele>
        <time>2026-05-02T14:34:25.541Z</time>
      </trkpt>
      <trkpt lat="45.473957" lon="9.171268">
        <ele>167.433370</ele>
        <time>2026-05-02T14:34:29.540Z</time>
      </trkpt>
      <trkpt lat="45.473851" lon="9.171318">
        <ele>167.323085</ele>
        <time>2026-05-02T14:34:34.545Z</time>
      </trkpt>
      <trkpt lat="45.473761" lon="9.171290">
        <ele>167.232092</ele>
        <time>2026-05-02T14:34:37.536Z</time>
      </trkpt>
      <trkpt lat="45.473660" lon="9.171235">
        <ele>167.125299</ele>
        <time>2026-05-02T14:34:40.535Z</time>
      </trkpt>
      <trkpt lat="45.473563" lon="9.171174">
        <ele>167.020580</ele>
        <time>2026-05-02T14:34:43.545Z</time>
      </trkpt>
      <trkpt lat="45.473471" lon="9.171125">
        <ele>166.969956</ele>
        <time>2026-05-02T14:34:46.540Z</time>
      </trkpt>
      <trkpt lat="45.473381" lon="9.171177">
        <ele>166.935056</ele>
        <time>2026-05-02T14:34:49.548Z</time>
      </trkpt>
      <trkpt lat="45.473364" lon="9.171334">
        <ele>166.895018</ele>
        <time>2026-05-02T14:34:52.544Z</time>
      </trkpt>
      <trkpt lat="45.473371" lon="9.171495">
        <ele>166.854363</ele>
        <time>2026-05-02T14:34:55.538Z</time>
      </trkpt>
      <trkpt lat="45.473380" lon="9.171635">
        <ele>166.818931</ele>
        <time>2026-05-02T14:34:58.543Z</time>
      </trkpt>
      <trkpt lat="45.473392" lon="9.171765">
        <ele>166.785885</ele>
        <time>2026-05-02T14:35:01.548Z</time>
      </trkpt>
      <trkpt lat="45.473343" lon="9.171887">
        <ele>166.750451</ele>
        <time>2026-05-02T14:35:09.541Z</time>
      </trkpt>
      <trkpt lat="45.473261" lon="9.171960">
        <ele>166.715708</ele>
        <time>2026-05-02T14:35:14.540Z</time>
      </trkpt>
      <trkpt lat="45.473197" lon="9.172099">
        <ele>166.673800</ele>
        <time>2026-05-02T14:35:18.546Z</time>
      </trkpt>
      <trkpt lat="45.473152" lon="9.172234">
        <ele>166.636127</ele>
        <time>2026-05-02T14:35:21.533Z</time>
      </trkpt>
      <trkpt lat="45.473095" lon="9.172366">
        <ele>166.597057</ele>
        <time>2026-05-02T14:35:24.549Z</time>
      </trkpt>
      <trkpt lat="45.473039" lon="9.172512">
        <ele>166.555116</ele>
        <time>2026-05-02T14:35:27.542Z</time>
      </trkpt>
      <trkpt lat="45.472999" lon="9.172677">
        <ele>166.511116</ele>
        <time>2026-05-02T14:35:30.539Z</time>
      </trkpt>
      <trkpt lat="45.472965" lon="9.172841">
        <ele>166.468015</ele>
        <time>2026-05-02T14:35:33.536Z</time>
      </trkpt>
      <trkpt lat="45.472937" lon="9.173009">
        <ele>166.424494</ele>
        <time>2026-05-02T14:35:36.537Z</time>
      </trkpt>
      <trkpt lat="45.472920" lon="9.173187">
        <ele>166.379218</ele>
        <time>2026-05-02T14:35:39.538Z</time>
      </trkpt>
      <trkpt lat="45.472913" lon="9.173360">
        <ele>166.316209</ele>
        <time>2026-05-02T14:35:42.540Z</time>
      </trkpt>
      <trkpt lat="45.472933" lon="9.173527">
        <ele>166.216573</ele>
        <time>2026-05-02T14:35:45.538Z</time>
      </trkpt>
      <trkpt lat="45.473003" lon="9.173666">
        <ele>166.115931</ele>
        <time>2026-05-02T14:35:48.544Z</time>
      </trkpt>
      <trkpt lat="45.473067" lon="9.173787">
        <ele>166.026798</ele>
        <time>2026-05-02T14:35:51.536Z</time>
      </trkpt>
      <trkpt lat="45.473110" lon="9.173907">
        <ele>165.947546</ele>
        <time>2026-05-02T14:35:54.544Z</time>
      </trkpt>
      <trkpt lat="45.473160" lon="9.174035">
        <ele>165.861377</ele>
        <time>2026-05-02T14:35:58.540Z</time>
      </trkpt>
      <trkpt lat="45.473220" lon="9.174177">
        <ele>165.763878</ele>
        <time>2026-05-02T14:36:02.542Z</time>
      </trkpt>
      <trkpt lat="45.473283" lon="9.174272">
        <ele>165.686982</ele>
        <time>2026-05-02T14:36:05.540Z</time>
      </trkpt>
      <trkpt lat="45.473373" lon="9.174292">
        <ele>165.610592</ele>
        <time>2026-05-02T14:36:08.535Z</time>
      </trkpt>
      <trkpt lat="45.473466" lon="9.174187">
        <ele>165.511112</ele>
        <time>2026-05-02T14:36:12.538Z</time>
      </trkpt>
      <trkpt lat="45.473537" lon="9.174095">
        <ele>165.430658</ele>
        <time>2026-05-02T14:36:16.541Z</time>
      </trkpt>
      <trkpt lat="45.473623" lon="9.173996">
        <ele>165.337966</ele>
        <time>2026-05-02T14:36:21.543Z</time>
      </trkpt>
      <trkpt lat="45.473668" lon="9.173883">
        <ele>165.261543</ele>
        <time>2026-05-02T14:36:25.541Z</time>
      </trkpt>
      <trkpt lat="45.473796" lon="9.173710">
        <ele>165.113642</ele>
        <time>2026-05-02T14:37:17.544Z</time>
      </trkpt>
      <trkpt lat="45.473875" lon="9.173629">
        <ele>165.032041</ele>
        <time>2026-05-02T14:37:21.542Z</time>
      </trkpt>
      <trkpt lat="45.473955" lon="9.173568">
        <ele>164.955960</ele>
        <time>2026-05-02T14:37:25.544Z</time>
      </trkpt>
      <trkpt lat="45.474034" lon="9.173505">
        <ele>164.880050</ele>
        <time>2026-05-02T14:37:29.537Z</time>
      </trkpt>
      <trkpt lat="45.474143" lon="9.173554">
        <ele>164.859724</ele>
        <time>2026-05-02T14:37:34.543Z</time>
      </trkpt>
      <trkpt lat="45.474234" lon="9.173649">
        <ele>164.889586</ele>
        <time>2026-05-02T14:37:38.540Z</time>
      </trkpt>
      <trkpt lat="45.474310" lon="9.173723">
        <ele>164.913954</ele>
        <time>2026-05-02T14:37:42.543Z</time>
      </trkpt>
      <trkpt lat="45.474373" lon="9.173821">
        <ele>164.938640</ele>
        <time>2026-05-02T14:37:46.552Z</time>
      </trkpt>
      <trkpt lat="45.474438" lon="9.173949">
        <ele>164.967984</ele>
        <time>2026-05-02T14:37:51.539Z</time>
      </trkpt>
      <trkpt lat="45.474527" lon="9.173961">
        <ele>164.991655</ele>
        <time>2026-05-02T14:37:57.541Z</time>
      </trkpt>
      <trkpt lat="45.474594" lon="9.173859">
        <ele>165.017606</ele>
        <time>2026-05-02T14:38:04.542Z</time>
      </trkpt>
      <trkpt lat="45.474662" lon="9.173770">
        <ele>165.042046</ele>
        <time>2026-05-02T14:38:09.543Z</time>
      </trkpt>
      <trkpt lat="45.474739" lon="9.173685">
        <ele>165.067829</ele>
        <time>2026-05-02T14:38:14.544Z</time>
      </trkpt>
      <trkpt lat="45.474811" lon="9.173595">
        <ele>165.093181</ele>
        <time>2026-05-02T14:38:19.547Z</time>
      </trkpt>
      <trkpt lat="45.474880" lon="9.173503">
        <ele>165.118194</ele>
        <time>2026-05-02T14:38:24.545Z</time>
      </trkpt>
      <trkpt lat="45.475016" lon="9.173582">
        <ele>165.157078</ele>
        <time>2026-05-02T14:39:18.544Z</time>
      </trkpt>
      <trkpt lat="45.475053" lon="9.173738">
        <ele>165.187655</ele>
        <time>2026-05-02T14:39:23.544Z</time>
      </trkpt>
      <trkpt lat="45.475059" lon="9.173900">
        <ele>165.217777</ele>
        <time>2026-05-02T14:39:27.542Z</time>
      </trkpt>
      <trkpt lat="45.475042" lon="9.174053">
        <ele>165.246540</ele>
        <time>2026-05-02T14:39:31.540Z</time>
      </trkpt>
      <trkpt lat="45.475026" lon="9.174218">
        <ele>165.277468</ele>
        <time>2026-05-02T14:39:35.544Z</time>
      </trkpt>
      <trkpt lat="45.474976" lon="9.174341">
        <ele>165.303866</ele>
        <time>2026-05-02T14:39:39.544Z</time>
      </trkpt>
      <trkpt lat="45.474912" lon="9.174464">
        <ele>165.286226</ele>
        <time>2026-05-02T14:39:44.535Z</time>
      </trkpt>
      <trkpt lat="45.474849" lon="9.174592">
        <ele>165.222607</ele>
        <time>2026-05-02T14:39:49.534Z</time>
      </trkpt>
      <trkpt lat="45.474760" lon="9.174688">
        <ele>165.157867</ele>
        <time>2026-05-02T14:39:53.538Z</time>
      </trkpt>
      <trkpt lat="45.474648" lon="9.174740">
        <ele>165.089534</ele>
        <time>2026-05-02T14:39:57.537Z</time>
      </trkpt>
      <trkpt lat="45.474550" lon="9.174723">
        <ele>165.032260</ele>
        <time>2026-05-02T14:40:00.542Z</time>
      </trkpt>
      <trkpt lat="45.474457" lon="9.174752">
        <ele>164.977031</ele>
        <time>2026-05-02T14:40:03.541Z</time>
      </trkpt>
      <trkpt lat="45.474362" lon="9.174797">
        <ele>164.918956</ele>
        <time>2026-05-02T14:40:06.533Z</time>
      </trkpt>
      <trkpt lat="45.474275" lon="9.174869">
        <ele>164.860600</ele>
        <time>2026-05-02T14:40:09.543Z</time>
      </trkpt>
      <trkpt lat="45.474201" lon="9.174964">
        <ele>164.802836</ele>
        <time>2026-05-02T14:40:12.541Z</time>
      </trkpt>
      <trkpt lat="45.474149" lon="9.175079">
        <ele>164.747168</ele>
        <time>2026-05-02T14:40:15.540Z</time>
      </trkpt>
      <trkpt lat="45.474109" lon="9.175210">
        <ele>164.689042</ele>
        <time>2026-05-02T14:40:18.541Z</time>
      </trkpt>
      <trkpt lat="45.474094" lon="9.175347">
        <ele>164.632633</ele>
        <time>2026-05-02T14:40:21.546Z</time>
      </trkpt>
      <trkpt lat="45.474094" lon="9.175491">
        <ele>164.574051</ele>
        <time>2026-05-02T14:40:24.537Z</time>
      </trkpt>
      <trkpt lat="45.474065" lon="9.175628">
        <ele>164.515833</ele>
        <time>2026-05-02T14:40:27.538Z</time>
      </trkpt>
      <trkpt lat="45.474022" lon="9.175753">
        <ele>164.459191</ele>
        <time>2026-05-02T14:40:30.541Z</time>
      </trkpt>
      <trkpt lat="45.473956" lon="9.175855">
        <ele>164.402729</ele>
        <time>2026-05-02T14:40:33.537Z</time>
      </trkpt>
      <trkpt lat="45.473889" lon="9.175951">
        <ele>164.347627</ele>
        <time>2026-05-02T14:40:36.542Z</time>
      </trkpt>
      <trkpt lat="45.473820" lon="9.176055">
        <ele>164.289382</ele>
        <time>2026-05-02T14:40:39.540Z</time>
      </trkpt>
      <trkpt lat="45.473771" lon="9.176185">
        <ele>164.307923</ele>
        <time>2026-05-02T14:40:42.540Z</time>
      </trkpt>
      <trkpt lat="45.473748" lon="9.176312">
        <ele>164.347654</ele>
        <time>2026-05-02T14:40:45.538Z</time>
      </trkpt>
      <trkpt lat="45.473719" lon="9.176436">
        <ele>164.387248</ele>
        <time>2026-05-02T14:40:48.541Z</time>
      </trkpt>
      <trkpt lat="45.473687" lon="9.176585">
        <ele>164.434449</ele>
        <time>2026-05-02T14:40:52.538Z</time>
      </trkpt>
      <trkpt lat="45.473643" lon="9.176725">
        <ele>164.480920</ele>
        <time>2026-05-02T14:40:56.538Z</time>
      </trkpt>
      <trkpt lat="45.473575" lon="9.176852">
        <ele>164.529321</ele>
        <time>2026-05-02T14:41:00.538Z</time>
      </trkpt>
      <trkpt lat="45.473529" lon="9.176979">
        <ele>164.572619</ele>
        <time>2026-05-02T14:41:04.538Z</time>
      </trkpt>
      <trkpt lat="45.473438" lon="9.177057">
        <ele>164.618481</ele>
        <time>2026-05-02T14:41:09.537Z</time>
      </trkpt>
      <trkpt lat="45.473331" lon="9.177005">
        <ele>164.667311</ele>
        <time>2026-05-02T14:41:13.544Z</time>
      </trkpt>
      <trkpt lat="45.473238" lon="9.176975">
        <ele>164.708498</ele>
        <time>2026-05-02T14:41:16.538Z</time>
      </trkpt>
      <trkpt lat="45.473145" lon="9.176938">
        <ele>164.750204</ele>
        <time>2026-05-02T14:41:19.538Z</time>
      </trkpt>
      <trkpt lat="45.473058" lon="9.176876">
        <ele>164.792215</ele>
        <time>2026-05-02T14:41:23.542Z</time>
      </trkpt>
      <trkpt lat="45.472984" lon="9.176798">
        <ele>164.831964</ele>
        <time>2026-05-02T14:41:39.542Z</time>
      </trkpt>
      <trkpt lat="45.472919" lon="9.176922">
        <ele>164.878859</ele>
        <time>2026-05-02T14:41:45.540Z</time>
      </trkpt>
      <trkpt lat="45.472863" lon="9.177058">
        <ele>164.926632</ele>
        <time>2026-05-02T14:41:50.542Z</time>
      </trkpt>
      <trkpt lat="45.472789" lon="9.177167">
        <ele>164.972587</ele>
        <time>2026-05-02T14:41:55.546Z</time>
      </trkpt>
      <trkpt lat="45.472742" lon="9.177289">
        <ele>165.014751</ele>
        <time>2026-05-02T14:42:00.545Z</time>
      </trkpt>
      <trkpt lat="45.472694" lon="9.177405">
        <ele>165.073660</ele>
        <time>2026-05-02T14:42:06.540Z</time>
      </trkpt>
      <trkpt lat="45.472612" lon="9.177492">
        <ele>165.306864</ele>
        <time>2026-05-02T14:42:11.536Z</time>
      </trkpt>
      <trkpt lat="45.472543" lon="9.177594">
        <ele>165.533630</ele>
        <time>2026-05-02T14:42:16.545Z</time>
      </trkpt>
      <trkpt lat="45.472488" lon="9.177727">
        <ele>165.780683</ele>
        <time>2026-05-02T14:42:22.542Z</time>
      </trkpt>
      <trkpt lat="45.472412" lon="9.177804">
        <ele>165.993404</ele>
        <time>2026-05-02T14:42:27.540Z</time>
      </trkpt>
      <trkpt lat="45.472338" lon="9.177886">
        <ele>166.207235</ele>
        <time>2026-05-02T14:42:34.536Z</time>
      </trkpt>
      <trkpt lat="45.472250" lon="9.177976">
        <ele>166.454327</ele>
        <time>2026-05-02T14:42:40.532Z</time>
      </trkpt>
      <trkpt lat="45.472141" lon="9.177998">
        <ele>166.705511</ele>
        <time>2026-05-02T14:42:45.539Z</time>
      </trkpt>
      <trkpt lat="45.472050" lon="9.178035">
        <ele>166.921422</ele>
        <time>2026-05-02T14:42:50.541Z</time>
      </trkpt>
      <trkpt lat="45.471956" lon="9.178035">
        <ele>167.135903</ele>
        <time>2026-05-02T14:42:57.539Z</time>
      </trkpt>
      <trkpt lat="45.471853" lon="9.178033">
        <ele>167.370940</ele>
        <time>2026-05-02T14:43:03.546Z</time>
      </trkpt>
      <trkpt lat="45.471764" lon="9.177989">
        <ele>167.585870</ele>
        <time>2026-05-02T14:43:08.544Z</time>
      </trkpt>
      <trkpt lat="45.471675" lon="9.177939">
        <ele>167.804133</ele>
        <time>2026-05-02T14:43:13.543Z</time>
      </trkpt>
      <trkpt lat="45.471573" lon="9.177907">
        <ele>168.042433</ele>
        <time>2026-05-02T14:43:19.542Z</time>
      </trkpt>
      <trkpt lat="45.471474" lon="9.177931">
        <ele>168.271563</ele>
        <time>2026-05-02T14:43:24.540Z</time>
      </trkpt>
      <trkpt lat="45.471386" lon="9.178024">
        <ele>168.521484</ele>
        <time>2026-05-02T14:43:29.536Z</time>
      </trkpt>
      <trkpt lat="45.471321" lon="9.178119">
        <ele>168.733858</ele>
        <time>2026-05-02T14:43:33.534Z</time>
      </trkpt>
      <trkpt lat="45.471272" lon="9.178229">
        <ele>168.942375</ele>
        <time>2026-05-02T14:43:40.541Z</time>
      </trkpt>
      <trkpt lat="45.471199" lon="9.178324">
        <ele>169.153389</ele>
        <time>2026-05-02T14:43:50.539Z</time>
      </trkpt>
      <trkpt lat="45.471130" lon="9.178409">
        <ele>169.121789</ele>
        <time>2026-05-02T14:44:01.551Z</time>
      </trkpt>
      <trkpt lat="45.471064" lon="9.178497">
        <ele>169.090475</ele>
        <time>2026-05-02T14:44:11.542Z</time>
      </trkpt>
      <trkpt lat="45.470997" lon="9.178588">
        <ele>169.058409</ele>
        <time>2026-05-02T14:44:21.540Z</time>
      </trkpt>
      <trkpt lat="45.470925" lon="9.178677">
        <ele>169.025387</ele>
        <time>2026-05-02T14:44:31.539Z</time>
      </trkpt>
      <trkpt lat="45.470858" lon="9.178771">
        <ele>168.992813</ele>
        <time>2026-05-02T14:44:47.546Z</time>
      </trkpt>
      <trkpt lat="45.470779" lon="9.178848">
        <ele>168.959650</ele>
        <time>2026-05-02T14:45:03.549Z</time>
      </trkpt>
      <trkpt lat="45.470712" lon="9.178945">
        <ele>168.926561</ele>
        <time>2026-05-02T14:45:20.539Z</time>
      </trkpt>
      <trkpt lat="45.470547" lon="9.179168">
        <ele>168.847777</ele>
        <time>2026-05-02T14:46:22.536Z</time>
      </trkpt>
      <trkpt lat="45.470497" lon="9.179280">
        <ele>168.815509</ele>
        <time>2026-05-02T14:46:41.540Z</time>
      </trkpt>
      <trkpt lat="45.470416" lon="9.179350">
        <ele>168.782685</ele>
        <time>2026-05-02T14:46:58.541Z</time>
      </trkpt>
      <trkpt lat="45.470351" lon="9.179441">
        <ele>168.751117</ele>
        <time>2026-05-02T14:47:11.537Z</time>
      </trkpt>
      <trkpt lat="45.470333" lon="9.179610">
        <ele>168.709573</ele>
        <time>2026-05-02T14:47:53.554Z</time>
      </trkpt>
      <trkpt lat="45.470216" lon="9.179716">
        <ele>168.661534</ele>
        <time>2026-05-02T14:48:33.542Z</time>
      </trkpt>
      <trkpt lat="45.470145" lon="9.179809">
        <ele>168.628123</ele>
        <time>2026-05-02T14:48:42.538Z</time>
      </trkpt>
      <trkpt lat="45.470071" lon="9.179899">
        <ele>168.594416</ele>
        <time>2026-05-02T14:48:52.547Z</time>
      </trkpt>
      <trkpt lat="45.470008" lon="9.179993">
        <ele>168.562816</ele>
        <time>2026-05-02T14:49:02.538Z</time>
      </trkpt>
      <trkpt lat="45.469924" lon="9.180051">
        <ele>168.527024</ele>
        <time>2026-05-02T14:49:11.539Z</time>
      </trkpt>
      <trkpt lat="45.469840" lon="9.180113">
        <ele>168.418453</ele>
        <time>2026-05-02T14:49:20.538Z</time>
      </trkpt>
      <trkpt lat="45.469773" lon="9.180212">
        <ele>168.307704</ele>
        <time>2026-05-02T14:49:30.544Z</time>
      </trkpt>
      <trkpt lat="45.469712" lon="9.180317">
        <ele>168.197947</ele>
        <time>2026-05-02T14:49:49.528Z</time>
      </trkpt>
      <trkpt lat="45.469552" lon="9.180399">
        <ele>168.002789</ele>
        <time>2026-05-02T14:50:34.531Z</time>
      </trkpt>
      <trkpt lat="45.469479" lon="9.180500">
        <ele>167.886036</ele>
        <time>2026-05-02T14:50:40.538Z</time>
      </trkpt>
      <trkpt lat="45.469452" lon="9.180644">
        <ele>167.766048</ele>
        <time>2026-05-02T14:50:48.536Z</time>
      </trkpt>
      <trkpt lat="45.469366" lon="9.180707">
        <ele>167.655068</ele>
        <time>2026-05-02T14:50:55.537Z</time>
      </trkpt>
      <trkpt lat="45.469276" lon="9.180683">
        <ele>167.549970</ele>
        <time>2026-05-02T14:51:07.541Z</time>
      </trkpt>
      <trkpt lat="45.469058" lon="9.180756">
        <ele>167.292931</ele>
        <time>2026-05-02T14:52:53.541Z</time>
      </trkpt>
      <trkpt lat="45.468997" lon="9.180852">
        <ele>167.188650</ele>
        <time>2026-05-02T14:52:57.539Z</time>
      </trkpt>
      <trkpt lat="45.468952" lon="9.180989">
        <ele>167.066871</ele>
        <time>2026-05-02T14:53:01.541Z</time>
      </trkpt>
      <trkpt lat="45.468940" lon="9.181127">
        <ele>166.954932</ele>
        <time>2026-05-02T14:53:05.547Z</time>
      </trkpt>
      <trkpt lat="45.468915" lon="9.181260">
        <ele>166.844090</ele>
        <time>2026-05-02T14:53:17.535Z</time>
      </trkpt>
      <trkpt lat="45.468840" lon="9.181368">
        <ele>166.721740</ele>
        <time>2026-05-02T14:53:22.534Z</time>
      </trkpt>
      <trkpt lat="45.468784" lon="9.181501">
        <ele>166.596863</ele>
        <time>2026-05-02T14:53:28.535Z</time>
      </trkpt>
      <trkpt lat="45.468696" lon="9.181590">
        <ele>166.473024</ele>
        <time>2026-05-02T14:53:34.536Z</time>
      </trkpt>
      <trkpt lat="45.468632" lon="9.181683">
        <ele>166.511271</ele>
        <time>2026-05-02T14:53:39.532Z</time>
      </trkpt>
      <trkpt lat="45.468552" lon="9.181757">
        <ele>166.559664</ele>
        <time>2026-05-02T14:53:47.541Z</time>
      </trkpt>
      <trkpt lat="45.468452" lon="9.181770">
        <ele>166.610624</ele>
        <time>2026-05-02T14:53:55.547Z</time>
      </trkpt>
      <trkpt lat="45.468364" lon="9.181802">
        <ele>166.656713</ele>
        <time>2026-05-02T14:54:01.548Z</time>
      </trkpt>
      <trkpt lat="45.468263" lon="9.181764">
        <ele>166.709724</ele>
        <time>2026-05-02T14:54:06.532Z</time>
      </trkpt>
      <trkpt lat="45.468171" lon="9.181748">
        <ele>166.756759</ele>
        <time>2026-05-02T14:54:10.536Z</time>
      </trkpt>
      <trkpt lat="45.468078" lon="9.181741">
        <ele>166.804021</ele>
        <time>2026-05-02T14:54:15.536Z</time>
      </trkpt>
      <trkpt lat="45.467934" lon="9.181827">
        <ele>166.883251</ele>
        <time>2026-05-02T14:55:07.535Z</time>
      </trkpt>
      <trkpt lat="45.467849" lon="9.181876">
        <ele>166.929780</ele>
        <time>2026-05-02T14:55:11.538Z</time>
      </trkpt>
      <trkpt lat="45.467765" lon="9.181935">
        <ele>166.977301</ele>
        <time>2026-05-02T14:55:16.537Z</time>
      </trkpt>
      <trkpt lat="45.467696" lon="9.182020">
        <ele>167.023576</ele>
        <time>2026-05-02T14:55:21.542Z</time>
      </trkpt>
      <trkpt lat="45.467704" lon="9.182155">
        <ele>167.071795</ele>
        <time>2026-05-02T14:55:25.532Z</time>
      </trkpt>
      <trkpt lat="45.467782" lon="9.182244">
        <ele>167.122493</ele>
        <time>2026-05-02T14:55:29.537Z</time>
      </trkpt>
      <trkpt lat="45.467823" lon="9.182370">
        <ele>167.171929</ele>
        <time>2026-05-02T14:55:33.533Z</time>
      </trkpt>
      <trkpt lat="45.467859" lon="9.182504">
        <ele>167.223001</ele>
        <time>2026-05-02T14:55:38.541Z</time>
      </trkpt>
      <trkpt lat="45.467848" lon="9.182656">
        <ele>167.277386</ele>
        <time>2026-05-02T14:55:45.546Z</time>
      </trkpt>
      <trkpt lat="45.467830" lon="9.182783">
        <ele>167.323501</ele>
        <time>2026-05-02T14:55:51.540Z</time>
      </trkpt>
      <trkpt lat="45.467741" lon="9.182815">
        <ele>167.370081</ele>
        <time>2026-05-02T14:56:05.536Z</time>
      </trkpt>
      <trkpt lat="45.467679" lon="9.182921">
        <ele>167.328631</ele>
        <time>2026-05-02T14:56:17.535Z</time>
      </trkpt>
      <trkpt lat="45.467610" lon="9.183004">
        <ele>167.268101</ele>
        <time>2026-05-02T14:56:30.540Z</time>
      </trkpt>
      <trkpt lat="45.467549" lon="9.183105">
        <ele>167.205422</ele>
        <time>2026-05-02T14:56:40.533Z</time>
      </trkpt>
      <trkpt lat="45.467483" lon="9.183199">
        <ele>167.142873</ele>
        <time>2026-05-02T14:56:50.537Z</time>
      </trkpt>
      <trkpt lat="45.467366" lon="9.183390">
        <ele>167.023618</ele>
        <time>2026-05-02T14:58:04.534Z</time>
      </trkpt>
      <trkpt lat="45.467300" lon="9.183479">
        <ele>166.962708</ele>
        <time>2026-05-02T14:58:17.533Z</time>
      </trkpt>
      <trkpt lat="45.467226" lon="9.183554">
        <ele>166.901832</ele>
        <time>2026-05-02T14:58:29.540Z</time>
      </trkpt>
      <trkpt lat="45.467143" lon="9.183629">
        <ele>166.835945</ele>
        <time>2026-05-02T14:58:42.535Z</time>
      </trkpt>
      <trkpt lat="45.467065" lon="9.183708">
        <ele>166.771793</ele>
        <time>2026-05-02T14:58:53.540Z</time>
      </trkpt>
      <trkpt lat="45.467019" lon="9.183833">
        <ele>166.705411</ele>
        <time>2026-05-02T14:59:03.534Z</time>
      </trkpt>
      <trkpt lat="45.466950" lon="9.183925">
        <ele>166.642069</ele>
        <time>2026-05-02T14:59:13.538Z</time>
      </trkpt>
      <trkpt lat="45.466872" lon="9.184005">
        <ele>166.577644</ele>
        <time>2026-05-02T14:59:23.536Z</time>
      </trkpt>
      <trkpt lat="45.466796" lon="9.184096">
        <ele>166.511100</ele>
        <time>2026-05-02T14:59:33.533Z</time>
      </trkpt>
      <trkpt lat="45.466664" lon="9.184245">
        <ele>166.398213</ele>
        <time>2026-05-02T15:00:57.537Z</time>
      </trkpt>
      <trkpt lat="45.466582" lon="9.184326">
        <ele>166.331326</ele>
        <time>2026-05-02T15:01:07.537Z</time>
      </trkpt>
      <trkpt lat="45.466507" lon="9.184403">
        <ele>166.269357</ele>
        <time>2026-05-02T15:01:16.536Z</time>
      </trkpt>
      <trkpt lat="45.466436" lon="9.184484">
        <ele>166.208387</ele>
        <time>2026-05-02T15:01:25.532Z</time>
      </trkpt>
      <trkpt lat="45.466376" lon="9.184589">
        <ele>166.110062</ele>
        <time>2026-05-02T15:01:34.539Z</time>
      </trkpt>
      <trkpt lat="45.466307" lon="9.184690">
        <ele>165.965814</ele>
        <time>2026-05-02T15:01:45.530Z</time>
      </trkpt>
      <trkpt lat="45.466239" lon="9.184793">
        <ele>165.821098</ele>
        <time>2026-05-02T15:01:55.536Z</time>
      </trkpt>
      <trkpt lat="45.466164" lon="9.184877">
        <ele>165.681978</ele>
        <time>2026-05-02T15:02:05.535Z</time>
      </trkpt>
      <trkpt lat="45.466098" lon="9.184974">
        <ele>165.543715</ele>
        <time>2026-05-02T15:02:16.534Z</time>
      </trkpt>
      <trkpt lat="45.465955" lon="9.185042">
        <ele>165.323823</ele>
        <time>2026-05-02T15:03:20.531Z</time>
      </trkpt>
      <trkpt lat="45.465862" lon="9.185208">
        <ele>165.106464</ele>
        <time>2026-05-02T15:03:52.539Z</time>
      </trkpt>
      <trkpt lat="45.465861" lon="9.185338">
        <ele>164.973459</ele>
        <time>2026-05-02T15:04:01.535Z</time>
      </trkpt>
      <trkpt lat="45.465787" lon="9.185457">
        <ele>164.810752</ele>
        <time>2026-05-02T15:04:07.529Z</time>
      </trkpt>
      <trkpt lat="45.465717" lon="9.185555">
        <ele>164.667649</ele>
        <time>2026-05-02T15:04:11.543Z</time>
      </trkpt>
      <trkpt lat="45.465635" lon="9.185666">
        <ele>164.502714</ele>
        <time>2026-05-02T15:04:15.533Z</time>
      </trkpt>
      <trkpt lat="45.465568" lon="9.185753">
        <ele>164.370524</ele>
        <time>2026-05-02T15:04:18.543Z</time>
      </trkpt>
      <trkpt lat="45.465486" lon="9.185864">
        <ele>164.205589</ele>
        <time>2026-05-02T15:04:22.535Z</time>
      </trkpt>
      <trkpt lat="45.465411" lon="9.185962">
        <ele>164.057194</ele>
        <time>2026-05-02T15:04:26.530Z</time>
      </trkpt>
      <trkpt lat="45.465332" lon="9.186074">
        <ele>163.894684</ele>
        <time>2026-05-02T15:04:30.534Z</time>
      </trkpt>
      <trkpt lat="45.465249" lon="9.186180">
        <ele>163.732145</ele>
        <time>2026-05-02T15:04:34.530Z</time>
      </trkpt>
      <trkpt lat="45.465171" lon="9.186280">
        <ele>163.579133</ele>
        <time>2026-05-02T15:04:38.539Z</time>
      </trkpt>
      <trkpt lat="45.465093" lon="9.186392">
        <ele>163.510783</ele>
        <time>2026-05-02T15:04:42.534Z</time>
      </trkpt>
      <trkpt lat="45.465008" lon="9.186503">
        <ele>163.460571</ele>
        <time>2026-05-02T15:04:46.529Z</time>
      </trkpt>
      <trkpt lat="45.464943" lon="9.186594">
        <ele>163.420887</ele>
        <time>2026-05-02T15:04:49.531Z</time>
      </trkpt>
      <trkpt lat="45.464870" lon="9.186678">
        <ele>163.380022</ele>
        <time>2026-05-02T15:04:52.540Z</time>
      </trkpt>
      <trkpt lat="45.464789" lon="9.186790">
        <ele>163.330869</ele>
        <time>2026-05-02T15:04:56.530Z</time>
      </trkpt>
      <trkpt lat="45.464714" lon="9.186892">
        <ele>163.285717</ele>
        <time>2026-05-02T15:05:00.536Z</time>
      </trkpt>
      <trkpt lat="45.464626" lon="9.187005">
        <ele>163.234127</ele>
        <time>2026-05-02T15:05:04.533Z</time>
      </trkpt>
      <trkpt lat="45.464540" lon="9.187120">
        <ele>163.182764</ele>
        <time>2026-05-02T15:05:08.525Z</time>
      </trkpt>
      <trkpt lat="45.464458" lon="9.187239">
        <ele>163.131794</ele>
        <time>2026-05-02T15:05:12.534Z</time>
      </trkpt>
      <trkpt lat="45.464383" lon="9.187352">
        <ele>163.084261</ele>
        <time>2026-05-02T15:05:16.532Z</time>
      </trkpt>
      <trkpt lat="45.464318" lon="9.187446">
        <ele>163.043929</ele>
        <time>2026-05-02T15:05:20.529Z</time>
      </trkpt>
      <trkpt lat="45.464246" lon="9.187554">
        <ele>162.998404</ele>
        <time>2026-05-02T15:05:24.532Z</time>
      </trkpt>
      <trkpt lat="45.464172" lon="9.187663">
        <ele>162.952054</ele>
        <time>2026-05-02T15:05:28.531Z</time>
      </trkpt>
      <trkpt lat="45.464095" lon="9.187777">
        <ele>162.903698</ele>
        <time>2026-05-02T15:05:33.537Z</time>
      </trkpt>
      <trkpt lat="45.464024" lon="9.187878">
        <ele>162.860007</ele>
        <time>2026-05-02T15:05:37.531Z</time>
      </trkpt>
      <trkpt lat="45.463948" lon="9.187986">
        <ele>162.813263</ele>
        <time>2026-05-02T15:05:41.530Z</time>
      </trkpt>
      <trkpt lat="45.463955" lon="9.188118">
        <ele>162.772818</ele>
        <time>2026-05-02T15:05:53.527Z</time>
      </trkpt>
      <trkpt lat="45.463898" lon="9.188227">
        <ele>162.708240</ele>
        <time>2026-05-02T15:06:03.536Z</time>
      </trkpt>
      <trkpt lat="45.463856" lon="9.188345">
        <ele>162.641660</ele>
        <time>2026-05-02T15:06:15.532Z</time>
      </trkpt>
      <trkpt lat="45.463935" lon="9.188430">
        <ele>162.570661</ele>
        <time>2026-05-02T15:06:28.534Z</time>
      </trkpt>
      <trkpt lat="45.464025" lon="9.188446">
        <ele>162.505596</ele>
        <time>2026-05-02T15:06:37.537Z</time>
      </trkpt>
      <trkpt lat="45.464063" lon="9.188569">
        <ele>162.437971</ele>
        <time>2026-05-02T15:06:52.529Z</time>
      </trkpt>
      <trkpt lat="45.464041" lon="9.188708">
        <ele>162.366275</ele>
        <time>2026-05-02T15:07:02.537Z</time>
      </trkpt>
      <trkpt lat="45.464029" lon="9.188849">
        <ele>162.294811</ele>
        <time>2026-05-02T15:07:11.537Z</time>
      </trkpt>
      <trkpt lat="45.464023" lon="9.188978">
        <ele>162.229763</ele>
        <time>2026-05-02T15:07:23.536Z</time>
      </trkpt>
      <trkpt lat="45.464038" lon="9.189112">
        <ele>162.161488</ele>
        <time>2026-05-02T15:07:36.541Z</time>
      </trkpt>
      <trkpt lat="45.463984" lon="9.189312">
        <ele>162.053659</ele>
        <time>2026-05-02T15:08:50.537Z</time>
      </trkpt>
      <trkpt lat="45.463891" lon="9.189337">
        <ele>161.985767</ele>
        <time>2026-05-02T15:08:58.544Z</time>
      </trkpt>
      <trkpt lat="45.463837" lon="9.189448">
        <ele>161.917797</ele>
        <time>2026-05-02T15:09:05.537Z</time>
      </trkpt>
      <trkpt lat="45.463839" lon="9.189581">
        <ele>161.850863</ele>
        <time>2026-05-02T15:09:12.535Z</time>
      </trkpt>
      <trkpt lat="45.463854" lon="9.189719">
        <ele>161.780600</ele>
        <time>2026-05-02T15:09:20.531Z</time>
      </trkpt>
      <trkpt lat="45.463793" lon="9.189830">
        <ele>161.709648</ele>
        <time>2026-05-02T15:09:29.532Z</time>
      </trkpt>
      <trkpt lat="45.463730" lon="9.189934">
        <ele>161.640505</ele>
        <time>2026-05-02T15:09:36.532Z</time>
      </trkpt>
      <trkpt lat="45.463632" lon="9.189964">
        <ele>161.568599</ele>
        <time>2026-05-02T15:09:45.535Z</time>
      </trkpt>
      <trkpt lat="45.463724" lon="9.190009">
        <ele>161.498824</ele>
        <time>2026-05-02T15:10:35.537Z</time>
      </trkpt>
      <trkpt lat="45.463696" lon="9.190178">
        <ele>161.633182</ele>
        <time>2026-05-02T15:11:14.533Z</time>
      </trkpt>
      <trkpt lat="45.463700" lon="9.190307">
        <ele>161.789445</ele>
        <time>2026-05-02T15:11:19.536Z</time>
      </trkpt>
      <trkpt lat="45.463709" lon="9.190450">
        <ele>161.963192</ele>
        <time>2026-05-02T15:11:24.537Z</time>
      </trkpt>
      <trkpt lat="45.463685" lon="9.190584">
        <ele>162.130556</ele>
        <time>2026-05-02T15:11:29.531Z</time>
      </trkpt>
      <trkpt lat="45.463686" lon="9.190729">
        <ele>162.306037</ele>
        <time>2026-05-02T15:11:34.536Z</time>
      </trkpt>
      <trkpt lat="45.463686" lon="9.190861">
        <ele>162.465777</ele>
        <time>2026-05-02T15:11:39.536Z</time>
      </trkpt>
      <trkpt lat="45.463686" lon="9.191019">
        <ele>162.656982</ele>
        <time>2026-05-02T15:11:44.533Z</time>
      </trkpt>
      <trkpt lat="45.463679" lon="9.191162">
        <ele>162.830455</ele>
        <time>2026-05-02T15:11:48.536Z</time>
      </trkpt>
      <trkpt lat="45.463672" lon="9.191293">
        <ele>162.989444</ele>
        <time>2026-05-02T15:11:52.539Z</time>
      </trkpt>
      <trkpt lat="45.463703" lon="9.191417">
        <ele>163.148751</ele>
        <time>2026-05-02T15:11:56.532Z</time>
      </trkpt>
      <trkpt lat="45.463699" lon="9.191553">
        <ele>163.313477</ele>
        <time>2026-05-02T15:12:00.532Z</time>
      </trkpt>
      <trkpt lat="45.463696" lon="9.191693">
        <ele>163.482977</ele>
        <time>2026-05-02T15:12:05.530Z</time>
      </trkpt>
      <trkpt lat="45.463716" lon="9.191843">
        <ele>163.667751</ele>
        <time>2026-05-02T15:12:10.537Z</time>
      </trkpt>
      <trkpt lat="45.463723" lon="9.191989">
        <ele>163.844846</ele>
        <time>2026-05-02T15:12:15.535Z</time>
      </trkpt>
      <trkpt lat="45.463738" lon="9.192136">
        <ele>164.024611</ele>
        <time>2026-05-02T15:12:21.535Z</time>
      </trkpt>
      <trkpt lat="45.463741" lon="9.192273">
        <ele>164.190483</ele>
        <time>2026-05-02T15:12:25.535Z</time>
      </trkpt>
      <trkpt lat="45.463736" lon="9.192409">
        <ele>164.355289</ele>
        <time>2026-05-02T15:12:29.534Z</time>
      </trkpt>
      <trkpt lat="45.463743" lon="9.192538">
        <ele>164.511866</ele>
        <time>2026-05-02T15:12:33.533Z</time>
      </trkpt>
      <trkpt lat="45.463720" lon="9.192663">
        <ele>164.522770</ele>
        <time>2026-05-02T15:12:37.533Z</time>
      </trkpt>
      <trkpt lat="45.463681" lon="9.192790">
        <ele>164.413939</ele>
        <time>2026-05-02T15:12:41.532Z</time>
      </trkpt>
      <trkpt lat="45.463732" lon="9.192974">
        <ele>164.258632</ele>
        <time>2026-05-02T15:13:56.532Z</time>
      </trkpt>
      <trkpt lat="45.463767" lon="9.193115">
        <ele>164.141222</ele>
        <time>2026-05-02T15:14:03.532Z</time>
      </trkpt>
      <trkpt lat="45.463798" lon="9.193237">
        <ele>164.039362</ele>
        <time>2026-05-02T15:14:14.532Z</time>
      </trkpt>
      <trkpt lat="45.463841" lon="9.193097">
        <ele>163.919389</ele>
        <time>2026-05-02T15:14:21.533Z</time>
      </trkpt>
      <trkpt lat="45.463858" lon="9.192971">
        <ele>163.818667</ele>
        <time>2026-05-02T15:14:25.532Z</time>
      </trkpt>
      <trkpt lat="45.463916" lon="9.192871">
        <ele>163.716805</ele>
        <time>2026-05-02T15:14:29.533Z</time>
      </trkpt>
      <trkpt lat="45.464000" lon="9.192792">
        <ele>163.604179</ele>
        <time>2026-05-02T15:14:34.531Z</time>
      </trkpt>
      <trkpt lat="45.464090" lon="9.192794">
        <ele>163.503436</ele>
        <time>2026-05-02T15:14:41.531Z</time>
      </trkpt>
      <trkpt lat="45.464188" lon="9.192782">
        <ele>163.393347</ele>
        <time>2026-05-02T15:14:47.536Z</time>
      </trkpt>
      <trkpt lat="45.464277" lon="9.192798">
        <ele>163.292947</ele>
        <time>2026-05-02T15:14:52.530Z</time>
      </trkpt>
      <trkpt lat="45.464371" lon="9.192787">
        <ele>163.187386</ele>
        <time>2026-05-02T15:14:57.536Z</time>
      </trkpt>
      <trkpt lat="45.464469" lon="9.192774">
        <ele>163.077227</ele>
        <time>2026-05-02T15:15:03.530Z</time>
      </trkpt>
      <trkpt lat="45.464558" lon="9.192749">
        <ele>162.975701</ele>
        <time>2026-05-02T15:15:13.533Z</time>
      </trkpt>
      <trkpt lat="45.464632" lon="9.192833">
        <ele>162.869836</ele>
        <time>2026-05-02T15:15:17.531Z</time>
      </trkpt>
      <trkpt lat="45.464687" lon="9.192936">
        <ele>162.768217</ele>
        <time>2026-05-02T15:15:22.540Z</time>
      </trkpt>
      <trkpt lat="45.464735" lon="9.193055">
        <ele>162.660459</ele>
        <time>2026-05-02T15:15:28.533Z</time>
      </trkpt>
      <trkpt lat="45.464773" lon="9.193180">
        <ele>162.591366</ele>
        <time>2026-05-02T15:15:35.533Z</time>
      </trkpt>
      <trkpt lat="45.464820" lon="9.193308">
        <ele>162.798384</ele>
        <time>2026-05-02T15:15:42.531Z</time>
      </trkpt>
      <trkpt lat="45.464863" lon="9.193434">
        <ele>162.999159</ele>
        <time>2026-05-02T15:15:49.533Z</time>
      </trkpt>
      <trkpt lat="45.464902" lon="9.193563">
        <ele>163.200436</ele>
        <time>2026-05-02T15:15:56.528Z</time>
      </trkpt>
      <trkpt lat="45.464927" lon="9.193692">
        <ele>163.392197</ele>
        <time>2026-05-02T15:16:02.527Z</time>
      </trkpt>
      <trkpt lat="45.464959" lon="9.193827">
        <ele>163.596378</ele>
        <time>2026-05-02T15:16:09.534Z</time>
      </trkpt>
      <trkpt lat="45.465000" lon="9.193959">
        <ele>163.803229</ele>
        <time>2026-05-02T15:16:18.534Z</time>
      </trkpt>
      <trkpt lat="45.465013" lon="9.194088">
        <ele>163.989962</ele>
        <time>2026-05-02T15:16:28.532Z</time>
      </trkpt>
      <trkpt lat="45.465058" lon="9.194218">
        <ele>164.197682</ele>
        <time>2026-05-02T15:16:37.535Z</time>
      </trkpt>
      <trkpt lat="45.465094" lon="9.194343">
        <ele>164.391298</ele>
        <time>2026-05-02T15:16:42.536Z</time>
      </trkpt>
      <trkpt lat="45.465132" lon="9.194483">
        <ele>164.606391</ele>
        <time>2026-05-02T15:16:48.534Z</time>
      </trkpt>
      <trkpt lat="45.465169" lon="9.194606">
        <ele>164.798155</ele>
        <time>2026-05-02T15:16:55.534Z</time>
      </trkpt>
      <trkpt lat="45.465195" lon="9.194733">
        <ele>164.987718</ele>
        <time>2026-05-02T15:17:00.543Z</time>
      </trkpt>
      <trkpt lat="45.465228" lon="9.194857">
        <ele>165.177749</ele>
        <time>2026-05-02T15:17:05.533Z</time>
      </trkpt>
      <trkpt lat="45.465283" lon="9.194969">
        <ele>165.373652</ele>
        <time>2026-05-02T15:17:14.534Z</time>
      </trkpt>
      <trkpt lat="45.465381" lon="9.195249">
        <ele>165.822024</ele>
        <time>2026-05-02T15:17:51.532Z</time>
      </trkpt>
      <trkpt lat="45.465421" lon="9.195374">
        <ele>166.018888</ele>
        <time>2026-05-02T15:17:57.533Z</time>
      </trkpt>
      <trkpt lat="45.465454" lon="9.195515">
        <ele>166.231867</ele>
        <time>2026-05-02T15:18:03.533Z</time>
      </trkpt>
      <trkpt lat="45.465489" lon="9.195651">
        <ele>166.069038</ele>
        <time>2026-05-02T15:18:10.535Z</time>
      </trkpt>
      <trkpt lat="45.465534" lon="9.195785">
        <ele>165.883585</ele>
        <time>2026-05-02T15:18:18.535Z</time>
      </trkpt>
      <trkpt lat="45.465574" lon="9.195910">
        <ele>165.712078</ele>
        <time>2026-05-02T15:18:23.536Z</time>
      </trkpt>
      <trkpt lat="45.465612" lon="9.196036">
        <ele>165.540872</ele>
        <time>2026-05-02T15:18:28.536Z</time>
      </trkpt>
      <trkpt lat="45.465654" lon="9.196164">
        <ele>165.364472</ele>
        <time>2026-05-02T15:18:33.538Z</time>
      </trkpt>
      <trkpt lat="45.465700" lon="9.196284">
        <ele>165.193767</ele>
        <time>2026-05-02T15:18:38.538Z</time>
      </trkpt>
      <trkpt lat="45.465749" lon="9.196413">
        <ele>165.010641</ele>
        <time>2026-05-02T15:18:44.538Z</time>
      </trkpt>
      <trkpt lat="45.465794" lon="9.196536">
        <ele>164.837471</ele>
        <time>2026-05-02T15:18:49.535Z</time>
      </trkpt>
      <trkpt lat="45.465825" lon="9.196680">
        <ele>164.649445</ele>
        <time>2026-05-02T15:18:54.535Z</time>
      </trkpt>
      <trkpt lat="45.465872" lon="9.196809">
        <ele>164.467988</ele>
        <time>2026-05-02T15:18:59.536Z</time>
      </trkpt>
      <trkpt lat="45.465932" lon="9.196938">
        <ele>164.274770</ele>
        <time>2026-05-02T15:19:04.533Z</time>
      </trkpt>
      <trkpt lat="45.466010" lon="9.197040">
        <ele>164.086400</ele>
        <time>2026-05-02T15:19:09.535Z</time>
      </trkpt>
      <trkpt lat="45.466081" lon="9.197122">
        <ele>163.923778</ele>
        <time>2026-05-02T15:19:15.532Z</time>
      </trkpt>
      <trkpt lat="45.466160" lon="9.197205">
        <ele>163.749124</ele>
        <time>2026-05-02T15:19:23.534Z</time>
      </trkpt>
      <trkpt lat="45.466261" lon="9.197218">
        <ele>163.568631</ele>
        <time>2026-05-02T15:19:31.539Z</time>
      </trkpt>
      <trkpt lat="45.466311" lon="9.197325">
        <ele>163.408137</ele>
        <time>2026-05-02T15:19:39.538Z</time>
      </trkpt>
      <trkpt lat="45.466327" lon="9.197456">
        <ele>163.242155</ele>
        <time>2026-05-02T15:19:47.533Z</time>
      </trkpt>
      <trkpt lat="45.466394" lon="9.197550">
        <ele>163.074860</ele>
        <time>2026-05-02T15:19:54.537Z</time>
      </trkpt>
      <trkpt lat="45.466470" lon="9.197634">
        <ele>163.138442</ele>
        <time>2026-05-02T15:19:59.535Z</time>
      </trkpt>
      <trkpt lat="45.466556" lon="9.197708">
        <ele>163.267096</ele>
        <time>2026-05-02T15:20:04.526Z</time>
      </trkpt>
      <trkpt lat="45.466659" lon="9.197737">
        <ele>163.401568</ele>
        <time>2026-05-02T15:20:10.535Z</time>
      </trkpt>
      <trkpt lat="45.466753" lon="9.197779">
        <ele>163.527738</ele>
        <time>2026-05-02T15:20:16.533Z</time>
      </trkpt>
      <trkpt lat="45.466925" lon="9.197905">
        <ele>163.775413</ele>
        <time>2026-05-02T15:20:46.538Z</time>
      </trkpt>
      <trkpt lat="45.467020" lon="9.197963">
        <ele>163.907776</ele>
        <time>2026-05-02T15:20:49.534Z</time>
      </trkpt>
      <trkpt lat="45.467118" lon="9.198023">
        <ele>164.044378</ele>
        <time>2026-05-02T15:20:52.534Z</time>
      </trkpt>
      <trkpt lat="45.467204" lon="9.198080">
        <ele>164.165847</ele>
        <time>2026-05-02T15:20:55.535Z</time>
      </trkpt>
      <trkpt lat="45.467282" lon="9.198146">
        <ele>164.282018</ele>
        <time>2026-05-02T15:20:58.534Z</time>
      </trkpt>
      <trkpt lat="45.467379" lon="9.198193">
        <ele>164.413235</ele>
        <time>2026-05-02T15:21:01.532Z</time>
      </trkpt>
      <trkpt lat="45.467480" lon="9.198233">
        <ele>164.547495</ele>
        <time>2026-05-02T15:21:04.533Z</time>
      </trkpt>
      <trkpt lat="45.467573" lon="9.198296">
        <ele>164.679371</ele>
        <time>2026-05-02T15:21:07.533Z</time>
      </trkpt>
      <trkpt lat="45.467669" lon="9.198367">
        <ele>164.817885</ele>
        <time>2026-05-02T15:21:10.539Z</time>
      </trkpt>
      <trkpt lat="45.467745" lon="9.198459">
        <ele>164.945576</ele>
        <time>2026-05-02T15:21:13.535Z</time>
      </trkpt>
      <trkpt lat="45.467821" lon="9.198540">
        <ele>165.067105</ele>
        <time>2026-05-02T15:21:16.533Z</time>
      </trkpt>
      <trkpt lat="45.467908" lon="9.198619">
        <ele>165.199213</ele>
        <time>2026-05-02T15:21:19.534Z</time>
      </trkpt>
      <trkpt lat="45.468010" lon="9.198691">
        <ele>165.343128</ele>
        <time>2026-05-02T15:21:22.535Z</time>
      </trkpt>
      <trkpt lat="45.468105" lon="9.198761">
        <ele>165.233436</ele>
        <time>2026-05-02T15:21:25.532Z</time>
      </trkpt>
      <trkpt lat="45.468204" lon="9.198832">
        <ele>165.119761</ele>
        <time>2026-05-02T15:21:28.529Z</time>
      </trkpt>
      <trkpt lat="45.468298" lon="9.198910">
        <ele>165.008198</ele>
        <time>2026-05-02T15:21:31.537Z</time>
      </trkpt>
      <trkpt lat="45.468384" lon="9.198985">
        <ele>164.904789</ele>
        <time>2026-05-02T15:21:34.536Z</time>
      </trkpt>
      <trkpt lat="45.468473" lon="9.199057">
        <ele>164.799824</ele>
        <time>2026-05-02T15:21:37.532Z</time>
      </trkpt>
      <trkpt lat="45.468553" lon="9.199128">
        <ele>164.703164</ele>
        <time>2026-05-02T15:21:40.530Z</time>
      </trkpt>
      <trkpt lat="45.468624" lon="9.199210">
        <ele>164.609440</ele>
        <time>2026-05-02T15:21:51.536Z</time>
      </trkpt>
      <trkpt lat="45.468708" lon="9.199281">
        <ele>164.509272</ele>
        <time>2026-05-02T15:21:56.536Z</time>
      </trkpt>
      <trkpt lat="45.468819" lon="9.199356">
        <ele>164.383273</ele>
        <time>2026-05-02T15:22:00.535Z</time>
      </trkpt>
      <trkpt lat="45.468910" lon="9.199419">
        <ele>164.279506</ele>
        <time>2026-05-02T15:22:03.533Z</time>
      </trkpt>
      <trkpt lat="45.468999" lon="9.199506">
        <ele>164.168818</ele>
        <time>2026-05-02T15:22:06.536Z</time>
      </trkpt>
      <trkpt lat="45.469092" lon="9.199591">
        <ele>164.055504</ele>
        <time>2026-05-02T15:22:09.532Z</time>
      </trkpt>
      <trkpt lat="45.469182" lon="9.199683">
        <ele>163.941911</ele>
        <time>2026-05-02T15:22:12.532Z</time>
      </trkpt>
      <trkpt lat="45.469278" lon="9.199776">
        <ele>163.822859</ele>
        <time>2026-05-02T15:22:15.528Z</time>
      </trkpt>
      <trkpt lat="45.469388" lon="9.199877">
        <ele>163.688653</ele>
        <time>2026-05-02T15:22:18.533Z</time>
      </trkpt>
      <trkpt lat="45.469467" lon="9.199945">
        <ele>163.593996</ele>
        <time>2026-05-02T15:22:20.532Z</time>
      </trkpt>
      <trkpt lat="45.469574" lon="9.200049">
        <ele>163.441367</ele>
        <time>2026-05-02T15:22:23.532Z</time>
      </trkpt>
      <trkpt lat="45.469682" lon="9.200151">
        <ele>163.238822</ele>
        <time>2026-05-02T15:22:26.539Z</time>
      </trkpt>
      <trkpt lat="45.469789" lon="9.200227">
        <ele>163.051914</ele>
        <time>2026-05-02T15:22:29.534Z</time>
      </trkpt>
      <trkpt lat="45.469913" lon="9.200296">
        <ele>162.843793</ele>
        <time>2026-05-02T15:22:32.537Z</time>
      </trkpt>
      <trkpt lat="45.470010" lon="9.200318">
        <ele>162.690221</ele>
        <time>2026-05-02T15:22:34.533Z</time>
      </trkpt>
      <trkpt lat="45.470100" lon="9.200280">
        <ele>162.543461</ele>
        <time>2026-05-02T15:22:36.531Z</time>
      </trkpt>
      <trkpt lat="45.470186" lon="9.200234">
        <ele>162.399845</ele>
        <time>2026-05-02T15:22:38.536Z</time>
      </trkpt>
      <trkpt lat="45.470311" lon="9.200185">
        <ele>162.197149</ele>
        <time>2026-05-02T15:22:41.531Z</time>
      </trkpt>
      <trkpt lat="45.470427" lon="9.200137">
        <ele>162.008293</ele>
        <time>2026-05-02T15:22:44.538Z</time>
      </trkpt>
      <trkpt lat="45.470548" lon="9.200084">
        <ele>161.810377</ele>
        <time>2026-05-02T15:22:47.532Z</time>
      </trkpt>
      <trkpt lat="45.470664" lon="9.200026">
        <ele>161.618177</ele>
        <time>2026-05-02T15:22:50.533Z</time>
      </trkpt>
      <trkpt lat="45.470780" lon="9.199963">
        <ele>161.424094</ele>
        <time>2026-05-02T15:22:53.538Z</time>
      </trkpt>
      <trkpt lat="45.470890" lon="9.199909">
        <ele>161.242195</ele>
        <time>2026-05-02T15:22:56.531Z</time>
      </trkpt>
      <trkpt lat="45.471012" lon="9.199879">
        <ele>161.048625</ele>
        <time>2026-05-02T15:22:59.540Z</time>
      </trkpt>
      <trkpt lat="45.471126" lon="9.199898">
        <ele>160.869165</ele>
        <time>2026-05-02T15:23:02.540Z</time>
      </trkpt>
      <trkpt lat="45.471236" lon="9.199979">
        <ele>160.687729</ele>
        <time>2026-05-02T15:23:05.532Z</time>
      </trkpt>
      <trkpt lat="45.471340" lon="9.200062">
        <ele>160.706362</ele>
        <time>2026-05-02T15:23:08.540Z</time>
      </trkpt>
      <trkpt lat="45.471446" lon="9.200141">
        <ele>160.725062</ele>
        <time>2026-05-02T15:23:11.529Z</time>
      </trkpt>
      <trkpt lat="45.471561" lon="9.200212">
        <ele>160.744655</ele>
        <time>2026-05-02T15:23:14.533Z</time>
      </trkpt>
      <trkpt lat="45.471643" lon="9.200268">
        <ele>160.758870</ele>
        <time>2026-05-02T15:23:16.532Z</time>
      </trkpt>
      <trkpt lat="45.471758" lon="9.200354">
        <ele>160.779172</ele>
        <time>2026-05-02T15:23:19.538Z</time>
      </trkpt>
      <trkpt lat="45.471876" lon="9.200441">
        <ele>160.799941</ele>
        <time>2026-05-02T15:23:22.537Z</time>
      </trkpt>
      <trkpt lat="45.471989" lon="9.200513">
        <ele>160.819292</ele>
        <time>2026-05-02T15:23:25.532Z</time>
      </trkpt>
      <trkpt lat="45.472086" lon="9.200578">
        <ele>160.836048</ele>
        <time>2026-05-02T15:23:28.528Z</time>
      </trkpt>
      <trkpt lat="45.472174" lon="9.200663">
        <ele>160.852666</ele>
        <time>2026-05-02T15:23:31.533Z</time>
      </trkpt>
      <trkpt lat="45.472275" lon="9.200740">
        <ele>160.870572</ele>
        <time>2026-05-02T15:23:34.530Z</time>
      </trkpt>
      <trkpt lat="45.472361" lon="9.200854">
        <ele>160.888930</ele>
        <time>2026-05-02T15:23:37.523Z</time>
      </trkpt>
      <trkpt lat="45.472433" lon="9.200968">
        <ele>160.905751</ele>
        <time>2026-05-02T15:23:40.531Z</time>
      </trkpt>
      <trkpt lat="45.472512" lon="9.201048">
        <ele>160.920900</ele>
        <time>2026-05-02T15:23:43.531Z</time>
      </trkpt>
      <trkpt lat="45.472553" lon="9.201178">
        <ele>160.936528</ele>
        <time>2026-05-02T15:23:52.533Z</time>
      </trkpt>
      <trkpt lat="45.472641" lon="9.201142">
        <ele>160.950841</ele>
        <time>2026-05-02T15:23:57.532Z</time>
      </trkpt>
      <trkpt lat="45.472737" lon="9.201132">
        <ele>160.965891</ele>
        <time>2026-05-02T15:24:01.533Z</time>
      </trkpt>
      <trkpt lat="45.472840" lon="9.201151">
        <ele>160.920530</ele>
        <time>2026-05-02T15:24:05.532Z</time>
      </trkpt>
      <trkpt lat="45.472936" lon="9.201190">
        <ele>160.868864</ele>
        <time>2026-05-02T15:24:10.523Z</time>
      </trkpt>
      <trkpt lat="45.473032" lon="9.201257">
        <ele>160.813543</ele>
        <time>2026-05-02T15:24:15.525Z</time>
      </trkpt>
      <trkpt lat="45.473132" lon="9.201245">
        <ele>160.761600</ele>
        <time>2026-05-02T15:24:20.527Z</time>
      </trkpt>
      <trkpt lat="45.473219" lon="9.201200">
        <ele>160.713699</ele>
        <time>2026-05-02T15:24:24.533Z</time>
      </trkpt>
      <trkpt lat="45.473284" lon="9.201084">
        <ele>160.659804</ele>
        <time>2026-05-02T15:24:28.525Z</time>
      </trkpt>
      <trkpt lat="45.473338" lon="9.200969">
        <ele>160.609570</ele>
        <time>2026-05-02T15:24:32.531Z</time>
      </trkpt>
      <trkpt lat="45.473412" lon="9.200854">
        <ele>160.552919</ele>
        <time>2026-05-02T15:24:36.529Z</time>
      </trkpt>
      <trkpt lat="45.473519" lon="9.200826">
        <ele>160.496612</ele>
        <time>2026-05-02T15:24:40.536Z</time>
      </trkpt>
      <trkpt lat="45.473629" lon="9.200882">
        <ele>160.436157</ele>
        <time>2026-05-02T15:24:44.535Z</time>
      </trkpt>
      <trkpt lat="45.473732" lon="9.200875">
        <ele>160.382784</ele>
        <time>2026-05-02T15:24:48.529Z</time>
      </trkpt>
      <trkpt lat="45.473834" lon="9.200807">
        <ele>160.324505</ele>
        <time>2026-05-02T15:24:52.531Z</time>
      </trkpt>
      <trkpt lat="45.473889" lon="9.200675">
        <ele>160.268775</ele>
        <time>2026-05-02T15:24:56.530Z</time>
      </trkpt>
      <trkpt lat="45.473935" lon="9.200564">
        <ele>160.221977</ele>
        <time>2026-05-02T15:24:59.524Z</time>
      </trkpt>
      <trkpt lat="45.474001" lon="9.200437">
        <ele>160.164603</ele>
        <time>2026-05-02T15:25:03.533Z</time>
      </trkpt>
      <trkpt lat="45.474075" lon="9.200331">
        <ele>160.110315</ele>
        <time>2026-05-02T15:25:08.524Z</time>
      </trkpt>
      <trkpt lat="45.474164" lon="9.200311">
        <ele>160.063680</ele>
        <time>2026-05-02T15:25:12.530Z</time>
      </trkpt>
      <trkpt lat="45.474256" lon="9.200267">
        <ele>160.107586</ele>
        <time>2026-05-02T15:25:16.522Z</time>
      </trkpt>
      <trkpt lat="45.474340" lon="9.200208">
        <ele>160.253981</ele>
        <time>2026-05-02T15:25:20.536Z</time>
      </trkpt>
      <trkpt lat="45.474414" lon="9.200124">
        <ele>160.401853</ele>
        <time>2026-05-02T15:25:24.535Z</time>
      </trkpt>
      <trkpt lat="45.474514" lon="9.200095">
        <ele>160.561398</ele>
        <time>2026-05-02T15:25:30.534Z</time>
      </trkpt>
      <trkpt lat="45.474582" lon="9.200192">
        <ele>160.711770</ele>
        <time>2026-05-02T15:25:35.532Z</time>
      </trkpt>
      <trkpt lat="45.474647" lon="9.200284">
        <ele>160.854950</ele>
        <time>2026-05-02T15:25:40.532Z</time>
      </trkpt>
      <trkpt lat="45.474711" lon="9.200375">
        <ele>160.996249</ele>
        <time>2026-05-02T15:25:44.533Z</time>
      </trkpt>
      <trkpt lat="45.474775" lon="9.200469">
        <ele>161.139889</ele>
        <time>2026-05-02T15:25:48.531Z</time>
      </trkpt>
      <trkpt lat="45.474847" lon="9.200559">
        <ele>161.289579</ele>
        <time>2026-05-02T15:25:52.530Z</time>
      </trkpt>
      <trkpt lat="45.474919" lon="9.200666">
        <ele>161.452160</ele>
        <time>2026-05-02T15:25:56.531Z</time>
      </trkpt>
      <trkpt lat="45.474958" lon="9.200786">
        <ele>161.597162</ele>
        <time>2026-05-02T15:26:00.524Z</time>
      </trkpt>
      <trkpt lat="45.474934" lon="9.200931">
        <ele>161.760497</ele>
        <time>2026-05-02T15:26:04.537Z</time>
      </trkpt>
      <trkpt lat="45.474906" lon="9.201074">
        <ele>161.923268</ele>
        <time>2026-05-02T15:26:08.526Z</time>
      </trkpt>
      <trkpt lat="45.474881" lon="9.201203">
        <ele>162.069996</ele>
        <time>2026-05-02T15:26:12.534Z</time>
      </trkpt>
      <trkpt lat="45.474870" lon="9.201360">
        <ele>162.242976</ele>
        <time>2026-05-02T15:26:17.531Z</time>
      </trkpt>
      <trkpt lat="45.474942" lon="9.201480">
        <ele>162.416121</ele>
        <time>2026-05-02T15:26:22.526Z</time>
      </trkpt>
      <trkpt lat="45.475000" lon="9.201594">
        <ele>162.570533</ele>
        <time>2026-05-02T15:26:29.533Z</time>
      </trkpt>
      <trkpt lat="45.474996" lon="9.201734">
        <ele>162.724145</ele>
        <time>2026-05-02T15:26:34.523Z</time>
      </trkpt>
      <trkpt lat="45.475017" lon="9.201864">
        <ele>162.876505</ele>
        <time>2026-05-02T15:26:39.530Z</time>
      </trkpt>
      <trkpt lat="45.475038" lon="9.201996">
        <ele>163.067130</ele>
        <time>2026-05-02T15:26:44.535Z</time>
      </trkpt>
      <trkpt lat="45.475144" lon="9.201969">
        <ele>163.283392</ele>
        <time>2026-05-02T15:26:51.529Z</time>
      </trkpt>
      <trkpt lat="45.475213" lon="9.201842">
        <ele>163.509656</ele>
        <time>2026-05-02T15:26:56.528Z</time>
      </trkpt>
      <trkpt lat="45.475272" lon="9.201716">
        <ele>163.723034</ele>
        <time>2026-05-02T15:27:01.530Z</time>
      </trkpt>
      <trkpt lat="45.475353" lon="9.201628">
        <ele>163.927545</ele>
        <time>2026-05-02T15:27:08.530Z</time>
      </trkpt>
      <trkpt lat="45.475412" lon="9.201515">
        <ele>164.125958</ele>
        <time>2026-05-02T15:27:21.537Z</time>
      </trkpt>
      <trkpt lat="45.475451" lon="9.201374">
        <ele>164.339423</ele>
        <time>2026-05-02T15:27:27.529Z</time>
      </trkpt>
      <trkpt lat="45.475506" lon="9.201268">
        <ele>164.525131</ele>
        <time>2026-05-02T15:27:31.527Z</time>
      </trkpt>
      <trkpt lat="45.475565" lon="9.201170">
        <ele>164.707038</ele>
        <time>2026-05-02T15:27:35.528Z</time>
      </trkpt>
      <trkpt lat="45.475628" lon="9.201057">
        <ele>164.910350</ele>
        <time>2026-05-02T15:27:40.531Z</time>
      </trkpt>
      <trkpt lat="45.475689" lon="9.200939">
        <ele>165.116811</ele>
        <time>2026-05-02T15:27:46.530Z</time>
      </trkpt>
      <trkpt lat="45.475735" lon="9.200821">
        <ele>165.306948</ele>
        <time>2026-05-02T15:27:52.536Z</time>
      </trkpt>
      <trkpt lat="45.475796" lon="9.200719">
        <ele>165.495746</ele>
        <time>2026-05-02T15:28:05.533Z</time>
      </trkpt>
      <trkpt lat="45.475883" lon="9.200768">
        <ele>165.683612</ele>
        <time>2026-05-02T15:28:20.523Z</time>
      </trkpt>
      <trkpt lat="45.475963" lon="9.200836">
        <ele>165.870660</ele>
        <time>2026-05-02T15:28:25.531Z</time>
      </trkpt>
      <trkpt lat="45.476063" lon="9.200931">
        <ele>166.111984</ele>
        <time>2026-05-02T15:28:29.524Z</time>
      </trkpt>
      <trkpt lat="45.476151" lon="9.200993">
        <ele>166.309117</ele>
        <time>2026-05-02T15:28:33.532Z</time>
      </trkpt>
      <trkpt lat="45.476224" lon="9.200875">
        <ele>166.425486</ele>
        <time>2026-05-02T15:28:38.525Z</time>
      </trkpt>
      <trkpt lat="45.476277" lon="9.200750">
        <ele>166.319009</ele>
        <time>2026-05-02T15:28:41.529Z</time>
      </trkpt>
      <trkpt lat="45.476336" lon="9.200608">
        <ele>166.198697</ele>
        <time>2026-05-02T15:28:44.525Z</time>
      </trkpt>
      <trkpt lat="45.476398" lon="9.200465">
        <ele>166.076146</ele>
        <time>2026-05-02T15:28:47.534Z</time>
      </trkpt>
      <trkpt lat="45.476456" lon="9.200340">
        <ele>165.966890</ele>
        <time>2026-05-02T15:28:50.527Z</time>
      </trkpt>
      <trkpt lat="45.476519" lon="9.200205">
        <ele>165.848686</ele>
        <time>2026-05-02T15:28:53.527Z</time>
      </trkpt>
      <trkpt lat="45.476583" lon="9.200068">
        <ele>165.728693</ele>
        <time>2026-05-02T15:28:56.529Z</time>
      </trkpt>
      <trkpt lat="45.476644" lon="9.199936">
        <ele>165.613460</ele>
        <time>2026-05-02T15:28:59.532Z</time>
      </trkpt>
      <trkpt lat="45.476706" lon="9.199805">
        <ele>165.498257</ele>
        <time>2026-05-02T15:29:02.525Z</time>
      </trkpt>
      <trkpt lat="45.476756" lon="9.199686">
        <ele>165.397137</ele>
        <time>2026-05-02T15:29:05.528Z</time>
      </trkpt>
      <trkpt lat="45.476813" lon="9.199560">
        <ele>165.287839</ele>
        <time>2026-05-02T15:29:08.525Z</time>
      </trkpt>
      <trkpt lat="45.476870" lon="9.199439">
        <ele>165.181586</ele>
        <time>2026-05-02T15:29:11.531Z</time>
      </trkpt>
      <trkpt lat="45.476923" lon="9.199323">
        <ele>165.080667</ele>
        <time>2026-05-02T15:29:14.531Z</time>
      </trkpt>
      <trkpt lat="45.477000" lon="9.199235">
        <ele>164.978093</ele>
        <time>2026-05-02T15:29:17.537Z</time>
      </trkpt>
      <trkpt lat="45.477041" lon="9.199098">
        <ele>164.869518</ele>
        <time>2026-05-02T15:29:20.538Z</time>
      </trkpt>
      <trkpt lat="45.477077" lon="9.198933">
        <ele>164.743561</ele>
        <time>2026-05-02T15:29:23.525Z</time>
      </trkpt>
      <trkpt lat="45.477145" lon="9.198782">
        <ele>164.612752</ele>
        <time>2026-05-02T15:29:26.535Z</time>
      </trkpt>
      <trkpt lat="45.477221" lon="9.198622">
        <ele>164.433538</ele>
        <time>2026-05-02T15:29:29.529Z</time>
      </trkpt>
      <trkpt lat="45.477280" lon="9.198510">
        <ele>164.298734</ele>
        <time>2026-05-02T15:29:31.536Z</time>
      </trkpt>
      <trkpt lat="45.477350" lon="9.198402">
        <ele>164.157207</ele>
        <time>2026-05-02T15:29:33.529Z</time>
      </trkpt>
      <trkpt lat="45.477424" lon="9.198298">
        <ele>164.014626</ele>
        <time>2026-05-02T15:29:35.522Z</time>
      </trkpt>
      <trkpt lat="45.477500" lon="9.198202">
        <ele>163.875296</ele>
        <time>2026-05-02T15:29:37.522Z</time>
      </trkpt>
      <trkpt lat="45.477577" lon="9.198122">
        <ele>163.744555</ele>
        <time>2026-05-02T15:29:39.525Z</time>
      </trkpt>
      <trkpt lat="45.477677" lon="9.198041">
        <ele>163.586727</ele>
        <time>2026-05-02T15:29:42.534Z</time>
      </trkpt>
      <trkpt lat="45.477759" lon="9.197985">
        <ele>163.461955</ele>
        <time>2026-05-02T15:29:47.534Z</time>
      </trkpt>
      <trkpt lat="45.477810" lon="9.197860">
        <ele>163.322788</ele>
        <time>2026-05-02T15:29:59.526Z</time>
      </trkpt>
      <trkpt lat="45.477868" lon="9.197735">
        <ele>163.178550</ele>
        <time>2026-05-02T15:30:02.525Z</time>
      </trkpt>
      <trkpt lat="45.477935" lon="9.197604">
        <ele>163.022519</ele>
        <time>2026-05-02T15:30:05.538Z</time>
      </trkpt>
      <trkpt lat="45.478004" lon="9.197462">
        <ele>162.856270</ele>
        <time>2026-05-02T15:30:08.526Z</time>
      </trkpt>
      <trkpt lat="45.478067" lon="9.197326">
        <ele>162.699418</ele>
        <time>2026-05-02T15:30:11.521Z</time>
      </trkpt>
      <trkpt lat="45.478119" lon="9.197208">
        <ele>162.565305</ele>
        <time>2026-05-02T15:30:14.525Z</time>
      </trkpt>
      <trkpt lat="45.478199" lon="9.197271">
        <ele>162.439889</ele>
        <time>2026-05-02T15:30:21.540Z</time>
      </trkpt>
      <trkpt lat="45.478313" lon="9.197348">
        <ele>162.266779</ele>
        <time>2026-05-02T15:30:43.527Z</time>
      </trkpt>
      <trkpt lat="45.478418" lon="9.197390">
        <ele>162.126310</ele>
        <time>2026-05-02T15:30:50.527Z</time>
      </trkpt>
      <trkpt lat="45.478516" lon="9.197467">
        <ele>162.203356</ele>
        <time>2026-05-02T15:30:54.528Z</time>
      </trkpt>
      <trkpt lat="45.478600" lon="9.197538">
        <ele>162.270593</ele>
        <time>2026-05-02T15:30:57.533Z</time>
      </trkpt>
      <trkpt lat="45.478682" lon="9.197616">
        <ele>162.338464</ele>
        <time>2026-05-02T15:31:00.534Z</time>
      </trkpt>
      <trkpt lat="45.478758" lon="9.197691">
        <ele>162.402104</ele>
        <time>2026-05-02T15:31:03.534Z</time>
      </trkpt>
      <trkpt lat="45.478846" lon="9.197778">
        <ele>162.475836</ele>
        <time>2026-05-02T15:31:06.529Z</time>
      </trkpt>
      <trkpt lat="45.478938" lon="9.197870">
        <ele>162.553208</ele>
        <time>2026-05-02T15:31:09.531Z</time>
      </trkpt>
      <trkpt lat="45.479035" lon="9.197967">
        <ele>162.634785</ele>
        <time>2026-05-02T15:31:12.532Z</time>
      </trkpt>
      <trkpt lat="45.479137" lon="9.198058">
        <ele>162.717631</ele>
        <time>2026-05-02T15:31:15.528Z</time>
      </trkpt>
      <trkpt lat="45.479226" lon="9.198142">
        <ele>162.791121</ele>
        <time>2026-05-02T15:31:18.532Z</time>
      </trkpt>
      <trkpt lat="45.479304" lon="9.198220">
        <ele>162.856718</ele>
        <time>2026-05-02T15:31:21.531Z</time>
      </trkpt>
      <trkpt lat="45.479390" lon="9.198299">
        <ele>162.927158</ele>
        <time>2026-05-02T15:31:25.535Z</time>
      </trkpt>
      <trkpt lat="45.479495" lon="9.198397">
        <ele>163.013566</ele>
        <time>2026-05-02T15:31:29.528Z</time>
      </trkpt>
      <trkpt lat="45.479595" lon="9.198487">
        <ele>163.094990</ele>
        <time>2026-05-02T15:31:32.537Z</time>
      </trkpt>
      <trkpt lat="45.479696" lon="9.198588">
        <ele>163.179930</ele>
        <time>2026-05-02T15:31:35.530Z</time>
      </trkpt>
      <trkpt lat="45.479794" lon="9.198677">
        <ele>163.259932</ele>
        <time>2026-05-02T15:31:38.530Z</time>
      </trkpt>
      <trkpt lat="45.479892" lon="9.198775">
        <ele>163.342350</ele>
        <time>2026-05-02T15:31:41.528Z</time>
      </trkpt>
      <trkpt lat="45.479991" lon="9.198862">
        <ele>163.418663</ele>
        <time>2026-05-02T15:31:44.548Z</time>
      </trkpt>
      <trkpt lat="45.480093" lon="9.198929">
        <ele>163.491199</ele>
        <time>2026-05-02T15:31:47.530Z</time>
      </trkpt>
      <trkpt lat="45.480194" lon="9.198977">
        <ele>163.559963</ele>
        <time>2026-05-02T15:31:50.533Z</time>
      </trkpt>
      <trkpt lat="45.480300" lon="9.199034">
        <ele>163.633135</ele>
        <time>2026-05-02T15:31:53.531Z</time>
      </trkpt>
      <trkpt lat="45.480418" lon="9.199108">
        <ele>163.716396</ele>
        <time>2026-05-02T15:31:56.526Z</time>
      </trkpt>
      <trkpt lat="45.480525" lon="9.199215">
        <ele>163.800805</ele>
        <time>2026-05-02T15:31:59.532Z</time>
      </trkpt>
      <trkpt lat="45.480623" lon="9.199312">
        <ele>163.877856</ele>
        <time>2026-05-02T15:32:02.526Z</time>
      </trkpt>
      <trkpt lat="45.480728" lon="9.199401">
        <ele>163.956750</ele>
        <time>2026-05-02T15:32:05.531Z</time>
      </trkpt>
      <trkpt lat="45.480845" lon="9.199498">
        <ele>164.044163</ele>
        <time>2026-05-02T15:32:08.532Z</time>
      </trkpt>
      <trkpt lat="45.480923" lon="9.199575">
        <ele>164.105436</ele>
        <time>2026-05-02T15:32:10.538Z</time>
      </trkpt>
      <trkpt lat="45.480999" lon="9.199649">
        <ele>164.164874</ele>
        <time>2026-05-02T15:32:12.531Z</time>
      </trkpt>
      <trkpt lat="45.481104" lon="9.199754">
        <ele>164.247706</ele>
        <time>2026-05-02T15:32:15.529Z</time>
      </trkpt>
      <trkpt lat="45.481207" lon="9.199858">
        <ele>164.329220</ele>
        <time>2026-05-02T15:32:18.530Z</time>
      </trkpt>
      <trkpt lat="45.481281" lon="9.199932">
        <ele>164.387596</ele>
        <time>2026-05-02T15:32:20.524Z</time>
      </trkpt>
      <trkpt lat="45.481394" lon="9.200042">
        <ele>164.475965</ele>
        <time>2026-05-02T15:32:23.535Z</time>
      </trkpt>
      <trkpt lat="45.481476" lon="9.200116">
        <ele>164.529461</ele>
        <time>2026-05-02T15:32:25.526Z</time>
      </trkpt>
      <trkpt lat="45.481556" lon="9.200197">
        <ele>164.554289</ele>
        <time>2026-05-02T15:32:27.535Z</time>
      </trkpt>
      <trkpt lat="45.481640" lon="9.200275">
        <ele>164.579655</ele>
        <time>2026-05-02T15:32:29.539Z</time>
      </trkpt>
      <trkpt lat="45.481719" lon="9.200347">
        <ele>164.603380</ele>
        <time>2026-05-02T15:32:31.534Z</time>
      </trkpt>
      <trkpt lat="45.481792" lon="9.200425">
        <ele>164.626462</ele>
        <time>2026-05-02T15:32:33.527Z</time>
      </trkpt>
      <trkpt lat="45.481895" lon="9.200531">
        <ele>164.658605</ele>
        <time>2026-05-02T15:32:36.530Z</time>
      </trkpt>
      <trkpt lat="45.481989" lon="9.200628">
        <ele>164.687966</ele>
        <time>2026-05-02T15:32:39.530Z</time>
      </trkpt>
      <trkpt lat="45.482079" lon="9.200725">
        <ele>164.716513</ele>
        <time>2026-05-02T15:32:42.534Z</time>
      </trkpt>
      <trkpt lat="45.482179" lon="9.200821">
        <ele>164.747018</ele>
        <time>2026-05-02T15:32:45.540Z</time>
      </trkpt>
      <trkpt lat="45.482263" lon="9.200902">
        <ele>164.772678</ele>
        <time>2026-05-02T15:32:47.533Z</time>
      </trkpt>
      <trkpt lat="45.482353" lon="9.200985">
        <ele>164.799800</ele>
        <time>2026-05-02T15:32:49.540Z</time>
      </trkpt>
      <trkpt lat="45.482436" lon="9.201083">
        <ele>164.827067</ele>
        <time>2026-05-02T15:32:51.530Z</time>
      </trkpt>
      <trkpt lat="45.482523" lon="9.201173">
        <ele>164.854265</ele>
        <time>2026-05-02T15:32:53.532Z</time>
      </trkpt>
      <trkpt lat="45.482604" lon="9.201257">
        <ele>164.879609</ele>
        <time>2026-05-02T15:32:55.529Z</time>
      </trkpt>
      <trkpt lat="45.482681" lon="9.201342">
        <ele>164.904249</ele>
        <time>2026-05-02T15:32:57.532Z</time>
      </trkpt>
      <trkpt lat="45.482758" lon="9.201417">
        <ele>164.927845</ele>
        <time>2026-05-02T15:32:59.540Z</time>
      </trkpt>
      <trkpt lat="45.482837" lon="9.201496">
        <ele>164.952261</ele>
        <time>2026-05-02T15:33:01.527Z</time>
      </trkpt>
      <trkpt lat="45.482920" lon="9.201577">
        <ele>164.977712</ele>
        <time>2026-05-02T15:33:03.526Z</time>
      </trkpt>
      <trkpt lat="45.483002" lon="9.201650">
        <ele>164.974082</ele>
        <time>2026-05-02T15:33:05.523Z</time>
      </trkpt>
      <trkpt lat="45.483081" lon="9.201720">
        <ele>164.969430</ele>
        <time>2026-05-02T15:33:07.530Z</time>
      </trkpt>
      <trkpt lat="45.483190" lon="9.201830">
        <ele>164.962753</ele>
        <time>2026-05-02T15:33:10.534Z</time>
      </trkpt>
      <trkpt lat="45.483266" lon="9.201913">
        <ele>164.957966</ele>
        <time>2026-05-02T15:33:12.538Z</time>
      </trkpt>
      <trkpt lat="45.483347" lon="9.201990">
        <ele>164.953098</ele>
        <time>2026-05-02T15:33:14.531Z</time>
      </trkpt>
      <trkpt lat="45.483428" lon="9.202068">
        <ele>164.948210</ele>
        <time>2026-05-02T15:33:16.531Z</time>
      </trkpt>
      <trkpt lat="45.483508" lon="9.202146">
        <ele>164.943364</ele>
        <time>2026-05-02T15:33:18.526Z</time>
      </trkpt>
      <trkpt lat="45.483589" lon="9.202224">
        <ele>164.938476</ele>
        <time>2026-05-02T15:33:20.528Z</time>
      </trkpt>
      <trkpt lat="45.483662" lon="9.202304">
        <ele>164.933872</ele>
        <time>2026-05-02T15:33:22.528Z</time>
      </trkpt>
      <trkpt lat="45.483740" lon="9.202445">
        <ele>164.927575</ele>
        <time>2026-05-02T15:33:25.526Z</time>
      </trkpt>
      <trkpt lat="45.483838" lon="9.202542">
        <ele>164.921609</ele>
        <time>2026-05-02T15:33:28.526Z</time>
      </trkpt>
      <trkpt lat="45.483904" lon="9.202644">
        <ele>164.916742</ele>
        <time>2026-05-02T15:33:31.527Z</time>
      </trkpt>
      <trkpt lat="45.483883" lon="9.202788">
        <ele>164.911585</ele>
        <time>2026-05-02T15:33:34.523Z</time>
      </trkpt>
      <trkpt lat="45.483872" lon="9.202934">
        <ele>164.906437</ele>
        <time>2026-05-02T15:33:37.526Z</time>
      </trkpt>
      <trkpt lat="45.483884" lon="9.203096">
        <ele>164.900725</ele>
        <time>2026-05-02T15:33:40.529Z</time>
      </trkpt>
      <trkpt lat="45.483915" lon="9.203243">
        <ele>164.895343</ele>
        <time>2026-05-02T15:33:43.526Z</time>
      </trkpt>
      <trkpt lat="45.483961" lon="9.203366">
        <ele>164.890455</ele>
        <time>2026-05-02T15:33:46.529Z</time>
      </trkpt>
      <trkpt lat="45.484008" lon="9.203487">
        <ele>165.227002</ele>
        <time>2026-05-02T15:33:49.540Z</time>
      </trkpt>
      <trkpt lat="45.484075" lon="9.203578">
        <ele>165.721970</ele>
        <time>2026-05-02T15:33:52.526Z</time>
      </trkpt>
      <trkpt lat="45.484157" lon="9.203653">
        <ele>166.243118</ele>
        <time>2026-05-02T15:33:57.531Z</time>
      </trkpt>
      <trkpt lat="45.484254" lon="9.203646">
        <ele>166.762729</ele>
        <time>2026-05-02T15:34:03.527Z</time>
      </trkpt>
      <trkpt lat="45.484319" lon="9.203510">
        <ele>167.380105</ele>
        <time>2026-05-02T15:34:08.531Z</time>
      </trkpt>
      <trkpt lat="45.484391" lon="9.203392">
        <ele>167.966856</ele>
        <time>2026-05-02T15:34:12.523Z</time>
      </trkpt>
      <trkpt lat="45.484467" lon="9.203316">
        <ele>168.463430</ele>
        <time>2026-05-02T15:34:16.528Z</time>
      </trkpt>
      <trkpt lat="45.484566" lon="9.203386">
        <ele>169.054586</ele>
        <time>2026-05-02T15:34:21.529Z</time>
      </trkpt>
      <trkpt lat="45.484658" lon="9.203452">
        <ele>169.605533</ele>
        <time>2026-05-02T15:34:25.526Z</time>
      </trkpt>
      <trkpt lat="45.484737" lon="9.203335">
        <ele>170.214813</ele>
        <time>2026-05-02T15:34:30.529Z</time>
      </trkpt>
      <trkpt lat="45.484767" lon="9.203194">
        <ele>170.767502</ele>
        <time>2026-05-02T15:34:34.529Z</time>
      </trkpt>
      <trkpt lat="45.484839" lon="9.203297">
        <ele>171.313062</ele>
        <time>2026-05-02T15:35:24.528Z</time>
      </trkpt>
      <trkpt lat="45.484913" lon="9.203411">
        <ele>171.895792</ele>
        <time>2026-05-02T15:35:30.526Z</time>
      </trkpt>
      <trkpt lat="45.485010" lon="9.203455">
        <ele>172.440351</ele>
        <time>2026-05-02T15:35:35.530Z</time>
      </trkpt>
      <trkpt lat="45.485077" lon="9.203558">
        <ele>172.967362</ele>
        <time>2026-05-02T15:35:42.533Z</time>
      </trkpt>
      <trkpt lat="45.485148" lon="9.203648">
        <ele>173.475537</ele>
        <time>2026-05-02T15:35:50.530Z</time>
      </trkpt>
      <trkpt lat="45.485270" lon="9.203709">
        <ele>174.167175</ele>
        <time>2026-05-02T15:36:57.558Z</time>
      </trkpt>
      <trkpt lat="45.485361" lon="9.203729">
        <ele>174.718675</ele>
        <time>2026-05-02T15:37:07.540Z</time>
      </trkpt>
      <trkpt lat="45.485433" lon="9.203808">
        <ele>175.397687</ele>
        <time>2026-05-02T15:37:17.528Z</time>
      </trkpt>
      <trkpt lat="45.485664" lon="9.204018">
        <ele>177.445294</ele>
        <time>2026-05-02T15:39:15.536Z</time>
      </trkpt>
      <trkpt lat="45.485888" lon="9.204024">
        <ele>179.119977</ele>
        <time>2026-05-02T15:42:57.535Z</time>
      </trkpt>
      <trkpt lat="45.485982" lon="9.203943">
        <ele>179.940890</ele>
        <time>2026-05-02T15:43:03.527Z</time>
      </trkpt>
      <trkpt lat="45.486059" lon="9.203859">
        <ele>180.665503</ele>
        <time>2026-05-02T15:43:07.535Z</time>
      </trkpt>
      <trkpt lat="45.486035" lon="9.203735">
        <ele>181.339640</ele>
        <time>2026-05-02T15:43:14.534Z</time>
      </trkpt>
      <trkpt lat="45.486314" lon="9.203891">
        <ele>183.579662</ele>
        <time>2026-05-02T15:47:55.537Z</time>
      </trkpt>
      <trkpt lat="45.486392" lon="9.203810">
        <ele>184.300861</ele>
        <time>2026-05-02T15:48:35.522Z</time>
      </trkpt>
      <trkpt lat="45.486141" lon="9.204023">
        <ele>186.484012</ele>
        <time>2026-05-02T15:50:05.533Z</time>
      </trkpt>
      <trkpt lat="45.486070" lon="9.204109">
        <ele>187.180276</ele>
        <time>2026-05-02T15:50:12.530Z</time>
      </trkpt>
      <trkpt lat="45.486138" lon="9.204195">
        <ele>187.859602</ele>
        <time>2026-05-02T15:50:47.534Z</time>
      </trkpt>
      <trkpt lat="45.486374" lon="9.203973">
        <ele>187.956221</ele>
        <time>2026-05-02T15:52:26.529Z</time>
      </trkpt>
      <trkpt lat="45.486471" lon="9.203990">
        <ele>187.956221</ele>
        <time>2026-05-02T15:52:34.537Z</time>
      </trkpt>
      <trkpt lat="45.486562" lon="9.204004">
        <ele>187.956221</ele>
        <time>2026-05-02T15:52:42.537Z</time>
      </trkpt>
      <trkpt lat="45.486645" lon="9.203921">
        <ele>187.956221</ele>
        <time>2026-05-02T15:52:49.522Z</time>
      </trkpt>
      <trkpt lat="45.486744" lon="9.203917">
        <ele>187.956221</ele>
        <time>2026-05-02T15:52:54.532Z</time>
      </trkpt>
      <trkpt lat="45.486836" lon="9.203944">
        <ele>187.956221</ele>
        <time>2026-05-02T15:52:59.537Z</time>
      </trkpt>
      <trkpt lat="45.486933" lon="9.203959">
        <ele>187.956221</ele>
        <time>2026-05-02T15:53:04.541Z</time>
      </trkpt>
      <trkpt lat="45.487024" lon="9.203997">
        <ele>187.956221</ele>
        <time>2026-05-02T15:53:09.532Z</time>
      </trkpt>
      <trkpt lat="45.487103" lon="9.204074">
        <ele>187.956221</ele>
        <time>2026-05-02T15:53:14.536Z</time>
      </trkpt>
      <trkpt lat="45.487154" lon="9.204186">
        <ele>187.956221</ele>
        <time>2026-05-02T15:53:20.526Z</time>
      </trkpt>
      <trkpt lat="45.487221" lon="9.204300">
        <ele>187.956221</ele>
        <time>2026-05-02T15:53:27.524Z</time>
      </trkpt>
      <trkpt lat="45.487271" lon="9.204421">
        <ele>187.956221</ele>
        <time>2026-05-02T15:53:34.531Z</time>
      </trkpt>
      <trkpt lat="45.487364" lon="9.204463">
        <ele>187.956221</ele>
        <time>2026-05-02T15:53:40.534Z</time>
      </trkpt>
      <trkpt lat="45.487459" lon="9.204477">
        <ele>187.956221</ele>
        <time>2026-05-02T15:53:46.533Z</time>
      </trkpt>
      <trkpt lat="45.487537" lon="9.204544">
        <ele>187.956221</ele>
        <time>2026-05-02T15:53:51.529Z</time>
      </trkpt>
      <trkpt lat="45.487619" lon="9.204623">
        <ele>187.956221</ele>
        <time>2026-05-02T15:53:57.533Z</time>
      </trkpt>
      <trkpt lat="45.487712" lon="9.204679">
        <ele>187.956221</ele>
        <time>2026-05-02T15:54:04.537Z</time>
      </trkpt>
      <trkpt lat="45.487811" lon="9.204722">
        <ele>187.956221</ele>
        <time>2026-05-02T15:54:08.541Z</time>
      </trkpt>
      <trkpt lat="45.487909" lon="9.204747">
        <ele>187.956221</ele>
        <time>2026-05-02T15:54:15.535Z</time>
      </trkpt>
      <trkpt lat="45.487988" lon="9.204810">
        <ele>187.956221</ele>
        <time>2026-05-02T15:54:18.533Z</time>
      </trkpt>
      <trkpt lat="45.488084" lon="9.204859">
        <ele>187.956221</ele>
        <time>2026-05-02T15:54:24.530Z</time>
      </trkpt>
      <trkpt lat="45.488060" lon="9.204991">
        <ele>187.956221</ele>
        <time>2026-05-02T15:54:32.525Z</time>
      </trkpt>
    </trkseg>
  </trk>
</gpx>